<?xml version="1.0" encoding="UTF-8" standalone="no" ?>
<gpx xmlns="http://www.topografix.com/GPX/1/1" xmlns:xsi="http://www.w3.org/2001/XMLSchema-instance" xsi:schemaLocation="http://www.topografix.com/GPX/1/1 http://www.topografix.com/GPX/1/1/gpx.xsd" version="1.1" creator="VisuGPX - https://www.visugpx.com">
  <metadata>
    <name>Randonnée St Léger en Yvelines/ Rambouillet</name>
    <desc><![CDATA[Une randonnée sur 5 jours ]]></desc>
  </metadata>
  <trk>
    <name><![CDATA[Randonnée 4.5 jours (78)]]></name>
    <desc><![CDATA[Une grande boucle avec de beaux dénivelés , de mauvaises surprises aussi le deuxième jour... des GR vraiment pas fait pour les cavaliers, voir dangereux, de beaux payasages et un magnifique soleil !  
(il manque un petit bout du départ (qui est le m^mee que le point rouge de l'arrivée)]]></desc>
    <trkseg>
      <trkpt lat="48.67495" lon="1.82512">
        <ele>167</ele>
        <time>2011-04-16T09:16:07.000Z</time>
      </trkpt>
      <trkpt lat="48.67492" lon="1.82517">
        <ele>167</ele>
        <time>2011-04-16T09:16:11.000Z</time>
      </trkpt>
      <trkpt lat="48.67491" lon="1.82518">
        <ele>167.39999389648</ele>
        <time>2011-04-16T09:16:13.000Z</time>
      </trkpt>
      <trkpt lat="48.67489" lon="1.82528">
        <ele>167.39999389648</ele>
        <time>2011-04-16T09:16:20.000Z</time>
      </trkpt>
      <trkpt lat="48.67486" lon="1.82538">
        <ele>167.39999389648</ele>
        <time>2011-04-16T09:16:26.000Z</time>
      </trkpt>
      <trkpt lat="48.67482" lon="1.82547">
        <ele>167.39999389648</ele>
        <time>2011-04-16T09:16:31.000Z</time>
      </trkpt>
      <trkpt lat="48.67478" lon="1.82561">
        <ele>167.39999389648</ele>
        <time>2011-04-16T09:16:38.000Z</time>
      </trkpt>
      <trkpt lat="48.67474" lon="1.82573">
        <ele>168.39999389648</ele>
        <time>2011-04-16T09:16:44.000Z</time>
      </trkpt>
      <trkpt lat="48.67471" lon="1.82586">
        <ele>169.39999389648</ele>
        <time>2011-04-16T09:16:50.000Z</time>
      </trkpt>
      <trkpt lat="48.67468" lon="1.82599">
        <ele>168.80000305176</ele>
        <time>2011-04-16T09:16:56.000Z</time>
      </trkpt>
      <trkpt lat="48.67469" lon="1.82604">
        <ele>168.80000305176</ele>
        <time>2011-04-16T09:16:58.000Z</time>
      </trkpt>
      <trkpt lat="48.67464" lon="1.82613">
        <ele>167.39999389648</ele>
        <time>2011-04-16T09:17:03.000Z</time>
      </trkpt>
      <trkpt lat="48.67457" lon="1.82621">
        <ele>165</ele>
        <time>2011-04-16T09:17:08.000Z</time>
      </trkpt>
      <trkpt lat="48.6745" lon="1.82634">
        <ele>167.39999389648</ele>
        <time>2011-04-16T09:17:16.000Z</time>
      </trkpt>
      <trkpt lat="48.67445" lon="1.82643">
        <ele>167</ele>
        <time>2011-04-16T09:17:22.000Z</time>
      </trkpt>
      <trkpt lat="48.6744" lon="1.82653">
        <ele>167</ele>
        <time>2011-04-16T09:17:27.000Z</time>
      </trkpt>
      <trkpt lat="48.67437" lon="1.82665">
        <ele>167</ele>
        <time>2011-04-16T09:17:33.000Z</time>
      </trkpt>
      <trkpt lat="48.67435" lon="1.82678">
        <ele>167.80000305176</ele>
        <time>2011-04-16T09:17:39.000Z</time>
      </trkpt>
      <trkpt lat="48.6743" lon="1.82695">
        <ele>167</ele>
        <time>2011-04-16T09:17:47.000Z</time>
      </trkpt>
      <trkpt lat="48.67427" lon="1.82707">
        <ele>166.39999389648</ele>
        <time>2011-04-16T09:17:54.000Z</time>
      </trkpt>
      <trkpt lat="48.67426" lon="1.82709">
        <ele>165</ele>
        <time>2011-04-16T09:17:58.000Z</time>
      </trkpt>
      <trkpt lat="48.67407" lon="1.82716">
        <ele>158.19999694824</ele>
        <time>2011-04-16T09:19:46.000Z</time>
      </trkpt>
      <trkpt lat="48.67399" lon="1.82716">
        <ele>159.80000305176</ele>
        <time>2011-04-16T09:19:52.000Z</time>
      </trkpt>
      <trkpt lat="48.67395" lon="1.82719">
        <ele>158.80000305176</ele>
        <time>2011-04-16T09:19:57.000Z</time>
      </trkpt>
      <trkpt lat="48.6739" lon="1.82724">
        <ele>159.80000305176</ele>
        <time>2011-04-16T09:20:02.000Z</time>
      </trkpt>
      <trkpt lat="48.67376" lon="1.82728">
        <ele>158.80000305176</ele>
        <time>2011-04-16T09:20:11.000Z</time>
      </trkpt>
      <trkpt lat="48.67372" lon="1.8273">
        <ele>158.80000305176</ele>
        <time>2011-04-16T09:20:14.000Z</time>
      </trkpt>
      <trkpt lat="48.67367" lon="1.82731">
        <ele>158.19999694824</ele>
        <time>2011-04-16T09:20:18.000Z</time>
      </trkpt>
      <trkpt lat="48.67359" lon="1.82735">
        <ele>157.80000305176</ele>
        <time>2011-04-16T09:20:24.000Z</time>
      </trkpt>
      <trkpt lat="48.67353" lon="1.82739">
        <ele>158.19999694824</ele>
        <time>2011-04-16T09:20:31.000Z</time>
      </trkpt>
      <trkpt lat="48.67349" lon="1.82742">
        <ele>159.19999694824</ele>
        <time>2011-04-16T09:20:34.000Z</time>
      </trkpt>
      <trkpt lat="48.67348" lon="1.82745">
        <ele>160.19999694824</ele>
        <time>2011-04-16T09:20:38.000Z</time>
      </trkpt>
      <trkpt lat="48.67344" lon="1.82747">
        <ele>161.60000610352</ele>
        <time>2011-04-16T09:20:40.000Z</time>
      </trkpt>
      <trkpt lat="48.67335" lon="1.82748">
        <ele>161.19999694824</ele>
        <time>2011-04-16T09:20:47.000Z</time>
      </trkpt>
      <trkpt lat="48.67327" lon="1.82753">
        <ele>157.80000305176</ele>
        <time>2011-04-16T09:20:54.000Z</time>
      </trkpt>
      <trkpt lat="48.67316" lon="1.82758">
        <ele>158.19999694824</ele>
        <time>2011-04-16T09:21:01.000Z</time>
      </trkpt>
      <trkpt lat="48.67306" lon="1.82761">
        <ele>156.39999389648</ele>
        <time>2011-04-16T09:21:09.000Z</time>
      </trkpt>
      <trkpt lat="48.67296" lon="1.82765">
        <ele>155.80000305176</ele>
        <time>2011-04-16T09:21:18.000Z</time>
      </trkpt>
      <trkpt lat="48.67288" lon="1.82771">
        <ele>158.19999694824</ele>
        <time>2011-04-16T09:21:26.000Z</time>
      </trkpt>
      <trkpt lat="48.67285" lon="1.82774">
        <ele>158.80000305176</ele>
        <time>2011-04-16T09:21:32.000Z</time>
      </trkpt>
      <trkpt lat="48.67275" lon="1.8278">
        <ele>160.19999694824</ele>
        <time>2011-04-16T09:21:39.000Z</time>
      </trkpt>
      <trkpt lat="48.6727" lon="1.82784">
        <ele>159.80000305176</ele>
        <time>2011-04-16T09:21:46.000Z</time>
      </trkpt>
      <trkpt lat="48.6727" lon="1.82788">
        <ele>158.19999694824</ele>
        <time>2011-04-16T09:21:51.000Z</time>
      </trkpt>
      <trkpt lat="48.6727" lon="1.82791">
        <ele>158.19999694824</ele>
        <time>2011-04-16T09:21:55.000Z</time>
      </trkpt>
      <trkpt lat="48.67268" lon="1.8279">
        <ele>161.19999694824</ele>
        <time>2011-04-16T09:22:52.000Z</time>
      </trkpt>
      <trkpt lat="48.67263" lon="1.82788">
        <ele>162.19999694824</ele>
        <time>2011-04-16T09:22:55.000Z</time>
      </trkpt>
      <trkpt lat="48.67259" lon="1.82789">
        <ele>162.60000610352</ele>
        <time>2011-04-16T09:22:58.000Z</time>
      </trkpt>
      <trkpt lat="48.6725" lon="1.82795">
        <ele>162.60000610352</ele>
        <time>2011-04-16T09:23:04.000Z</time>
      </trkpt>
      <trkpt lat="48.67247" lon="1.82797">
        <ele>162.19999694824</ele>
        <time>2011-04-16T09:23:06.000Z</time>
      </trkpt>
      <trkpt lat="48.67241" lon="1.828">
        <ele>160.60000610352</ele>
        <time>2011-04-16T09:23:11.000Z</time>
      </trkpt>
      <trkpt lat="48.67234" lon="1.82808">
        <ele>161.19999694824</ele>
        <time>2011-04-16T09:23:17.000Z</time>
      </trkpt>
      <trkpt lat="48.6723" lon="1.82813">
        <ele>161.19999694824</ele>
        <time>2011-04-16T09:23:21.000Z</time>
      </trkpt>
      <trkpt lat="48.67226" lon="1.82821">
        <ele>161.19999694824</ele>
        <time>2011-04-16T09:23:28.000Z</time>
      </trkpt>
      <trkpt lat="48.6722" lon="1.82826">
        <ele>161.19999694824</ele>
        <time>2011-04-16T09:23:32.000Z</time>
      </trkpt>
      <trkpt lat="48.67212" lon="1.82835">
        <ele>162.19999694824</ele>
        <time>2011-04-16T09:23:38.000Z</time>
      </trkpt>
      <trkpt lat="48.67211" lon="1.82841">
        <ele>161.60000610352</ele>
        <time>2011-04-16T09:23:42.000Z</time>
      </trkpt>
      <trkpt lat="48.67201" lon="1.82854">
        <ele>163</ele>
        <time>2011-04-16T09:23:50.000Z</time>
      </trkpt>
      <trkpt lat="48.672" lon="1.82855">
        <ele>163</ele>
        <time>2011-04-16T09:23:51.000Z</time>
      </trkpt>
      <trkpt lat="48.67192" lon="1.82862">
        <ele>163</ele>
        <time>2011-04-16T09:23:58.000Z</time>
      </trkpt>
      <trkpt lat="48.67186" lon="1.82868">
        <ele>162.19999694824</ele>
        <time>2011-04-16T09:24:04.000Z</time>
      </trkpt>
      <trkpt lat="48.6718" lon="1.82873">
        <ele>159.19999694824</ele>
        <time>2011-04-16T09:24:09.000Z</time>
      </trkpt>
      <trkpt lat="48.67171" lon="1.8288">
        <ele>159.19999694824</ele>
        <time>2011-04-16T09:24:15.000Z</time>
      </trkpt>
      <trkpt lat="48.67166" lon="1.8289">
        <ele>161.60000610352</ele>
        <time>2011-04-16T09:24:22.000Z</time>
      </trkpt>
      <trkpt lat="48.67162" lon="1.82898">
        <ele>162.19999694824</ele>
        <time>2011-04-16T09:24:28.000Z</time>
      </trkpt>
      <trkpt lat="48.67155" lon="1.82906">
        <ele>164</ele>
        <time>2011-04-16T09:24:33.000Z</time>
      </trkpt>
      <trkpt lat="48.67152" lon="1.82911">
        <ele>165</ele>
        <time>2011-04-16T09:24:36.000Z</time>
      </trkpt>
      <trkpt lat="48.67142" lon="1.82924">
        <ele>166</ele>
        <time>2011-04-16T09:24:45.000Z</time>
      </trkpt>
      <trkpt lat="48.67136" lon="1.82934">
        <ele>165.39999389648</ele>
        <time>2011-04-16T09:24:51.000Z</time>
      </trkpt>
      <trkpt lat="48.67132" lon="1.82942">
        <ele>165.39999389648</ele>
        <time>2011-04-16T09:24:56.000Z</time>
      </trkpt>
      <trkpt lat="48.67129" lon="1.82947">
        <ele>166</ele>
        <time>2011-04-16T09:24:59.000Z</time>
      </trkpt>
      <trkpt lat="48.67121" lon="1.82959">
        <ele>167</ele>
        <time>2011-04-16T09:25:06.000Z</time>
      </trkpt>
      <trkpt lat="48.67116" lon="1.82967">
        <ele>165.39999389648</ele>
        <time>2011-04-16T09:25:11.000Z</time>
      </trkpt>
      <trkpt lat="48.67111" lon="1.82974">
        <ele>163.60000610352</ele>
        <time>2011-04-16T09:25:16.000Z</time>
      </trkpt>
      <trkpt lat="48.67108" lon="1.82977">
        <ele>162.19999694824</ele>
        <time>2011-04-16T09:25:20.000Z</time>
      </trkpt>
      <trkpt lat="48.67097" lon="1.82987">
        <ele>159.19999694824</ele>
        <time>2011-04-16T09:25:27.000Z</time>
      </trkpt>
      <trkpt lat="48.67088" lon="1.8299">
        <ele>158.19999694824</ele>
        <time>2011-04-16T09:25:33.000Z</time>
      </trkpt>
      <trkpt lat="48.67077" lon="1.82996">
        <ele>160.19999694824</ele>
        <time>2011-04-16T09:25:41.000Z</time>
      </trkpt>
      <trkpt lat="48.6707" lon="1.82998">
        <ele>162.60000610352</ele>
        <time>2011-04-16T09:25:46.000Z</time>
      </trkpt>
      <trkpt lat="48.67069" lon="1.82999">
        <ele>163</ele>
        <time>2011-04-16T09:25:47.000Z</time>
      </trkpt>
      <trkpt lat="48.67061" lon="1.83006">
        <ele>163.60000610352</ele>
        <time>2011-04-16T09:25:54.000Z</time>
      </trkpt>
      <trkpt lat="48.67057" lon="1.83008">
        <ele>163.60000610352</ele>
        <time>2011-04-16T09:25:59.000Z</time>
      </trkpt>
      <trkpt lat="48.67051" lon="1.8301">
        <ele>162.60000610352</ele>
        <time>2011-04-16T09:26:05.000Z</time>
      </trkpt>
      <trkpt lat="48.67043" lon="1.83012">
        <ele>161.60000610352</ele>
        <time>2011-04-16T09:26:11.000Z</time>
      </trkpt>
      <trkpt lat="48.67033" lon="1.83018">
        <ele>162.19999694824</ele>
        <time>2011-04-16T09:26:18.000Z</time>
      </trkpt>
      <trkpt lat="48.67024" lon="1.83019">
        <ele>163</ele>
        <time>2011-04-16T09:26:24.000Z</time>
      </trkpt>
      <trkpt lat="48.67022" lon="1.83019">
        <ele>164.60000610352</ele>
        <time>2011-04-16T09:26:29.000Z</time>
      </trkpt>
      <trkpt lat="48.67022" lon="1.83019">
        <ele>164.60000610352</ele>
        <time>2011-04-16T09:26:30.000Z</time>
      </trkpt>
      <trkpt lat="48.67013" lon="1.83023">
        <ele>164.60000610352</ele>
        <time>2011-04-16T09:26:51.000Z</time>
      </trkpt>
      <trkpt lat="48.67004" lon="1.83027">
        <ele>163.60000610352</ele>
        <time>2011-04-16T09:26:57.000Z</time>
      </trkpt>
      <trkpt lat="48.66996" lon="1.83034">
        <ele>165</ele>
        <time>2011-04-16T09:27:03.000Z</time>
      </trkpt>
      <trkpt lat="48.66988" lon="1.83038">
        <ele>164.60000610352</ele>
        <time>2011-04-16T09:27:09.000Z</time>
      </trkpt>
      <trkpt lat="48.66986" lon="1.83039">
        <ele>164.60000610352</ele>
        <time>2011-04-16T09:27:10.000Z</time>
      </trkpt>
      <trkpt lat="48.66985" lon="1.83053">
        <ele>162.60000610352</ele>
        <time>2011-04-16T09:27:17.000Z</time>
      </trkpt>
      <trkpt lat="48.66986" lon="1.83059">
        <ele>162.19999694824</ele>
        <time>2011-04-16T09:27:20.000Z</time>
      </trkpt>
      <trkpt lat="48.66993" lon="1.83077">
        <ele>160.19999694824</ele>
        <time>2011-04-16T09:27:30.000Z</time>
      </trkpt>
      <trkpt lat="48.66997" lon="1.83091">
        <ele>158.19999694824</ele>
        <time>2011-04-16T09:27:38.000Z</time>
      </trkpt>
      <trkpt lat="48.67" lon="1.83098">
        <ele>156.80000305176</ele>
        <time>2011-04-16T09:27:42.000Z</time>
      </trkpt>
      <trkpt lat="48.67002" lon="1.831">
        <ele>156.80000305176</ele>
        <time>2011-04-16T09:27:48.000Z</time>
      </trkpt>
      <trkpt lat="48.67003" lon="1.83106">
        <ele>156.80000305176</ele>
        <time>2011-04-16T09:27:52.000Z</time>
      </trkpt>
      <trkpt lat="48.67003" lon="1.83108">
        <ele>156.80000305176</ele>
        <time>2011-04-16T09:27:53.000Z</time>
      </trkpt>
      <trkpt lat="48.6701" lon="1.83129">
        <ele>157.80000305176</ele>
        <time>2011-04-16T09:28:03.000Z</time>
      </trkpt>
      <trkpt lat="48.67015" lon="1.83141">
        <ele>157.80000305176</ele>
        <time>2011-04-16T09:28:09.000Z</time>
      </trkpt>
      <trkpt lat="48.67019" lon="1.83151">
        <ele>158.19999694824</ele>
        <time>2011-04-16T09:28:15.000Z</time>
      </trkpt>
      <trkpt lat="48.67022" lon="1.83154">
        <ele>158.80000305176</ele>
        <time>2011-04-16T09:28:17.000Z</time>
      </trkpt>
      <trkpt lat="48.6703" lon="1.83163">
        <ele>159.80000305176</ele>
        <time>2011-04-16T09:28:24.000Z</time>
      </trkpt>
      <trkpt lat="48.67039" lon="1.83166">
        <ele>159.80000305176</ele>
        <time>2011-04-16T09:28:29.000Z</time>
      </trkpt>
      <trkpt lat="48.67048" lon="1.83169">
        <ele>159.19999694824</ele>
        <time>2011-04-16T09:28:33.000Z</time>
      </trkpt>
      <trkpt lat="48.67059" lon="1.83177">
        <ele>160.60000610352</ele>
        <time>2011-04-16T09:28:38.000Z</time>
      </trkpt>
      <trkpt lat="48.67069" lon="1.83176">
        <ele>162.60000610352</ele>
        <time>2011-04-16T09:28:43.000Z</time>
      </trkpt>
      <trkpt lat="48.67075" lon="1.83174">
        <ele>162.60000610352</ele>
        <time>2011-04-16T09:28:47.000Z</time>
      </trkpt>
      <trkpt lat="48.67081" lon="1.83172">
        <ele>162.60000610352</ele>
        <time>2011-04-16T09:28:52.000Z</time>
      </trkpt>
      <trkpt lat="48.67084" lon="1.83172">
        <ele>162.19999694824</ele>
        <time>2011-04-16T09:28:55.000Z</time>
      </trkpt>
      <trkpt lat="48.67085" lon="1.83172">
        <ele>162.19999694824</ele>
        <time>2011-04-16T09:28:56.000Z</time>
      </trkpt>
      <trkpt lat="48.67096" lon="1.8317">
        <ele>161.60000610352</ele>
        <time>2011-04-16T09:29:04.000Z</time>
      </trkpt>
      <trkpt lat="48.67106" lon="1.8317">
        <ele>160.60000610352</ele>
        <time>2011-04-16T09:29:11.000Z</time>
      </trkpt>
      <trkpt lat="48.67113" lon="1.83173">
        <ele>160.60000610352</ele>
        <time>2011-04-16T09:29:16.000Z</time>
      </trkpt>
      <trkpt lat="48.67117" lon="1.83173">
        <ele>160.19999694824</ele>
        <time>2011-04-16T09:29:20.000Z</time>
      </trkpt>
      <trkpt lat="48.67127" lon="1.83172">
        <ele>159.80000305176</ele>
        <time>2011-04-16T09:29:26.000Z</time>
      </trkpt>
      <trkpt lat="48.67135" lon="1.83172">
        <ele>161.19999694824</ele>
        <time>2011-04-16T09:29:33.000Z</time>
      </trkpt>
      <trkpt lat="48.67136" lon="1.83171">
        <ele>161.19999694824</ele>
        <time>2011-04-16T09:29:36.000Z</time>
      </trkpt>
      <trkpt lat="48.67147" lon="1.83174">
        <ele>163</ele>
        <time>2011-04-16T09:30:25.000Z</time>
      </trkpt>
      <trkpt lat="48.67157" lon="1.83175">
        <ele>162.19999694824</ele>
        <time>2011-04-16T09:30:31.000Z</time>
      </trkpt>
      <trkpt lat="48.67162" lon="1.83174">
        <ele>162.60000610352</ele>
        <time>2011-04-16T09:30:34.000Z</time>
      </trkpt>
      <trkpt lat="48.67168" lon="1.83174">
        <ele>163.60000610352</ele>
        <time>2011-04-16T09:30:38.000Z</time>
      </trkpt>
      <trkpt lat="48.67175" lon="1.83172">
        <ele>167.39999389648</ele>
        <time>2011-04-16T09:30:44.000Z</time>
      </trkpt>
      <trkpt lat="48.67185" lon="1.83171">
        <ele>168.80000305176</ele>
        <time>2011-04-16T09:30:51.000Z</time>
      </trkpt>
      <trkpt lat="48.67192" lon="1.83171">
        <ele>168.39999389648</ele>
        <time>2011-04-16T09:30:56.000Z</time>
      </trkpt>
      <trkpt lat="48.67201" lon="1.83171">
        <ele>170.19999694824</ele>
        <time>2011-04-16T09:31:04.000Z</time>
      </trkpt>
      <trkpt lat="48.67206" lon="1.83172">
        <ele>170.19999694824</ele>
        <time>2011-04-16T09:31:07.000Z</time>
      </trkpt>
      <trkpt lat="48.67214" lon="1.83173">
        <ele>169.80000305176</ele>
        <time>2011-04-16T09:31:14.000Z</time>
      </trkpt>
      <trkpt lat="48.67217" lon="1.83174">
        <ele>168.80000305176</ele>
        <time>2011-04-16T09:31:17.000Z</time>
      </trkpt>
      <trkpt lat="48.67221" lon="1.83189">
        <ele>168.39999389648</ele>
        <time>2011-04-16T09:31:25.000Z</time>
      </trkpt>
      <trkpt lat="48.67224" lon="1.83201">
        <ele>166.39999389648</ele>
        <time>2011-04-16T09:31:31.000Z</time>
      </trkpt>
      <trkpt lat="48.67224" lon="1.83211">
        <ele>164</ele>
        <time>2011-04-16T09:31:37.000Z</time>
      </trkpt>
      <trkpt lat="48.67224" lon="1.83224">
        <ele>161.60000610352</ele>
        <time>2011-04-16T09:31:44.000Z</time>
      </trkpt>
      <trkpt lat="48.67225" lon="1.83244">
        <ele>159.19999694824</ele>
        <time>2011-04-16T09:31:52.000Z</time>
      </trkpt>
      <trkpt lat="48.67223" lon="1.83257">
        <ele>160.60000610352</ele>
        <time>2011-04-16T09:31:58.000Z</time>
      </trkpt>
      <trkpt lat="48.67223" lon="1.83262">
        <ele>161.19999694824</ele>
        <time>2011-04-16T09:32:00.000Z</time>
      </trkpt>
      <trkpt lat="48.67224" lon="1.83271">
        <ele>162.19999694824</ele>
        <time>2011-04-16T09:32:04.000Z</time>
      </trkpt>
      <trkpt lat="48.67224" lon="1.83281">
        <ele>164.60000610352</ele>
        <time>2011-04-16T09:32:09.000Z</time>
      </trkpt>
      <trkpt lat="48.67223" lon="1.83298">
        <ele>167</ele>
        <time>2011-04-16T09:32:17.000Z</time>
      </trkpt>
      <trkpt lat="48.67223" lon="1.83301">
        <ele>167</ele>
        <time>2011-04-16T09:32:18.000Z</time>
      </trkpt>
      <trkpt lat="48.67222" lon="1.83305">
        <ele>167</ele>
        <time>2011-04-16T09:32:20.000Z</time>
      </trkpt>
      <trkpt lat="48.67221" lon="1.83314">
        <ele>166</ele>
        <time>2011-04-16T09:32:25.000Z</time>
      </trkpt>
      <trkpt lat="48.67221" lon="1.83329">
        <ele>166.39999389648</ele>
        <time>2011-04-16T09:32:32.000Z</time>
      </trkpt>
      <trkpt lat="48.67221" lon="1.83343">
        <ele>168.39999389648</ele>
        <time>2011-04-16T09:32:39.000Z</time>
      </trkpt>
      <trkpt lat="48.6722" lon="1.83353">
        <ele>169.39999389648</ele>
        <time>2011-04-16T09:32:44.000Z</time>
      </trkpt>
      <trkpt lat="48.67219" lon="1.83365">
        <ele>169.39999389648</ele>
        <time>2011-04-16T09:32:50.000Z</time>
      </trkpt>
      <trkpt lat="48.67218" lon="1.83382">
        <ele>168.39999389648</ele>
        <time>2011-04-16T09:32:58.000Z</time>
      </trkpt>
      <trkpt lat="48.67217" lon="1.83399">
        <ele>167</ele>
        <time>2011-04-16T09:33:06.000Z</time>
      </trkpt>
      <trkpt lat="48.67217" lon="1.83417">
        <ele>168.39999389648</ele>
        <time>2011-04-16T09:33:14.000Z</time>
      </trkpt>
      <trkpt lat="48.67215" lon="1.83439">
        <ele>168.80000305176</ele>
        <time>2011-04-16T09:33:25.000Z</time>
      </trkpt>
      <trkpt lat="48.67215" lon="1.83447">
        <ele>169.80000305176</ele>
        <time>2011-04-16T09:33:29.000Z</time>
      </trkpt>
      <trkpt lat="48.67214" lon="1.83457">
        <ele>170.19999694824</ele>
        <time>2011-04-16T09:33:34.000Z</time>
      </trkpt>
      <trkpt lat="48.67214" lon="1.83463">
        <ele>170.80000305176</ele>
        <time>2011-04-16T09:33:37.000Z</time>
      </trkpt>
      <trkpt lat="48.67213" lon="1.83482">
        <ele>171.19999694824</ele>
        <time>2011-04-16T09:33:46.000Z</time>
      </trkpt>
      <trkpt lat="48.67211" lon="1.83494">
        <ele>171.19999694824</ele>
        <time>2011-04-16T09:33:52.000Z</time>
      </trkpt>
      <trkpt lat="48.6721" lon="1.83501">
        <ele>171.19999694824</ele>
        <time>2011-04-16T09:33:56.000Z</time>
      </trkpt>
      <trkpt lat="48.67208" lon="1.83502">
        <ele>171.80000305176</ele>
        <time>2011-04-16T09:34:01.000Z</time>
      </trkpt>
      <trkpt lat="48.67208" lon="1.83511">
        <ele>171.80000305176</ele>
        <time>2011-04-16T09:34:08.000Z</time>
      </trkpt>
      <trkpt lat="48.67207" lon="1.83526">
        <ele>171.19999694824</ele>
        <time>2011-04-16T09:34:15.000Z</time>
      </trkpt>
      <trkpt lat="48.67207" lon="1.83538">
        <ele>171.19999694824</ele>
        <time>2011-04-16T09:34:20.000Z</time>
      </trkpt>
      <trkpt lat="48.67206" lon="1.83544">
        <ele>171.19999694824</ele>
        <time>2011-04-16T09:34:23.000Z</time>
      </trkpt>
      <trkpt lat="48.67205" lon="1.83559">
        <ele>172.19999694824</ele>
        <time>2011-04-16T09:34:30.000Z</time>
      </trkpt>
      <trkpt lat="48.67204" lon="1.83575">
        <ele>172.19999694824</ele>
        <time>2011-04-16T09:34:38.000Z</time>
      </trkpt>
      <trkpt lat="48.67203" lon="1.83589">
        <ele>172.19999694824</ele>
        <time>2011-04-16T09:34:45.000Z</time>
      </trkpt>
      <trkpt lat="48.67203" lon="1.83594">
        <ele>171.80000305176</ele>
        <time>2011-04-16T09:34:48.000Z</time>
      </trkpt>
      <trkpt lat="48.67205" lon="1.83604">
        <ele>171.80000305176</ele>
        <time>2011-04-16T09:34:54.000Z</time>
      </trkpt>
      <trkpt lat="48.6721" lon="1.8361">
        <ele>169.80000305176</ele>
        <time>2011-04-16T09:35:00.000Z</time>
      </trkpt>
      <trkpt lat="48.67217" lon="1.83612">
        <ele>167.80000305176</ele>
        <time>2011-04-16T09:35:06.000Z</time>
      </trkpt>
      <trkpt lat="48.67229" lon="1.83611">
        <ele>167.80000305176</ele>
        <time>2011-04-16T09:35:14.000Z</time>
      </trkpt>
      <trkpt lat="48.67232" lon="1.8361">
        <ele>167.39999389648</ele>
        <time>2011-04-16T09:35:16.000Z</time>
      </trkpt>
      <trkpt lat="48.67243" lon="1.8361">
        <ele>167.80000305176</ele>
        <time>2011-04-16T09:35:24.000Z</time>
      </trkpt>
      <trkpt lat="48.67252" lon="1.83613">
        <ele>167.39999389648</ele>
        <time>2011-04-16T09:35:31.000Z</time>
      </trkpt>
      <trkpt lat="48.67268" lon="1.83613">
        <ele>167.39999389648</ele>
        <time>2011-04-16T09:35:41.000Z</time>
      </trkpt>
      <trkpt lat="48.67281" lon="1.83612">
        <ele>167.80000305176</ele>
        <time>2011-04-16T09:35:50.000Z</time>
      </trkpt>
      <trkpt lat="48.67293" lon="1.83616">
        <ele>167.80000305176</ele>
        <time>2011-04-16T09:35:59.000Z</time>
      </trkpt>
      <trkpt lat="48.67307" lon="1.83617">
        <ele>167.39999389648</ele>
        <time>2011-04-16T09:36:08.000Z</time>
      </trkpt>
      <trkpt lat="48.67315" lon="1.8362">
        <ele>167</ele>
        <time>2011-04-16T09:36:14.000Z</time>
      </trkpt>
      <trkpt lat="48.67322" lon="1.83619">
        <ele>167.39999389648</ele>
        <time>2011-04-16T09:36:19.000Z</time>
      </trkpt>
      <trkpt lat="48.67339" lon="1.83618">
        <ele>167.39999389648</ele>
        <time>2011-04-16T09:36:31.000Z</time>
      </trkpt>
      <trkpt lat="48.67348" lon="1.83617">
        <ele>167.39999389648</ele>
        <time>2011-04-16T09:36:38.000Z</time>
      </trkpt>
      <trkpt lat="48.67357" lon="1.8362">
        <ele>167</ele>
        <time>2011-04-16T09:36:45.000Z</time>
      </trkpt>
      <trkpt lat="48.6737" lon="1.83621">
        <ele>167</ele>
        <time>2011-04-16T09:36:54.000Z</time>
      </trkpt>
      <trkpt lat="48.67383" lon="1.83622">
        <ele>167.80000305176</ele>
        <time>2011-04-16T09:37:03.000Z</time>
      </trkpt>
      <trkpt lat="48.67392" lon="1.83623">
        <ele>168.80000305176</ele>
        <time>2011-04-16T09:37:09.000Z</time>
      </trkpt>
      <trkpt lat="48.67402" lon="1.83622">
        <ele>168.39999389648</ele>
        <time>2011-04-16T09:37:17.000Z</time>
      </trkpt>
      <trkpt lat="48.67414" lon="1.83623">
        <ele>168.39999389648</ele>
        <time>2011-04-16T09:37:25.000Z</time>
      </trkpt>
      <trkpt lat="48.67421" lon="1.83624">
        <ele>168.80000305176</ele>
        <time>2011-04-16T09:37:30.000Z</time>
      </trkpt>
      <trkpt lat="48.6743" lon="1.83625">
        <ele>168.80000305176</ele>
        <time>2011-04-16T09:37:36.000Z</time>
      </trkpt>
      <trkpt lat="48.67439" lon="1.83625">
        <ele>169.80000305176</ele>
        <time>2011-04-16T09:37:43.000Z</time>
      </trkpt>
      <trkpt lat="48.67451" lon="1.83627">
        <ele>169.80000305176</ele>
        <time>2011-04-16T09:37:51.000Z</time>
      </trkpt>
      <trkpt lat="48.67461" lon="1.83628">
        <ele>170.19999694824</ele>
        <time>2011-04-16T09:37:58.000Z</time>
      </trkpt>
      <trkpt lat="48.67472" lon="1.83629">
        <ele>171.80000305176</ele>
        <time>2011-04-16T09:38:05.000Z</time>
      </trkpt>
      <trkpt lat="48.67481" lon="1.83628">
        <ele>172.60000610352</ele>
        <time>2011-04-16T09:38:11.000Z</time>
      </trkpt>
      <trkpt lat="48.67494" lon="1.83629">
        <ele>173.19999694824</ele>
        <time>2011-04-16T09:38:19.000Z</time>
      </trkpt>
      <trkpt lat="48.67501" lon="1.83629">
        <ele>173.19999694824</ele>
        <time>2011-04-16T09:38:24.000Z</time>
      </trkpt>
      <trkpt lat="48.67513" lon="1.8363">
        <ele>173.60000610352</ele>
        <time>2011-04-16T09:38:32.000Z</time>
      </trkpt>
      <trkpt lat="48.67526" lon="1.83631">
        <ele>173.60000610352</ele>
        <time>2011-04-16T09:38:41.000Z</time>
      </trkpt>
      <trkpt lat="48.67533" lon="1.83631">
        <ele>174.60000610352</ele>
        <time>2011-04-16T09:38:46.000Z</time>
      </trkpt>
      <trkpt lat="48.67541" lon="1.83631">
        <ele>173.60000610352</ele>
        <time>2011-04-16T09:38:52.000Z</time>
      </trkpt>
      <trkpt lat="48.67551" lon="1.83632">
        <ele>173.60000610352</ele>
        <time>2011-04-16T09:38:59.000Z</time>
      </trkpt>
      <trkpt lat="48.67554" lon="1.83633">
        <ele>173.19999694824</ele>
        <time>2011-04-16T09:39:02.000Z</time>
      </trkpt>
      <trkpt lat="48.67557" lon="1.83634">
        <ele>172.19999694824</ele>
        <time>2011-04-16T09:39:05.000Z</time>
      </trkpt>
      <trkpt lat="48.67558" lon="1.83635">
        <ele>171.80000305176</ele>
        <time>2011-04-16T09:39:08.000Z</time>
      </trkpt>
      <trkpt lat="48.67565" lon="1.83635">
        <ele>171.19999694824</ele>
        <time>2011-04-16T09:39:18.000Z</time>
      </trkpt>
      <trkpt lat="48.67574" lon="1.83635">
        <ele>167.80000305176</ele>
        <time>2011-04-16T09:39:25.000Z</time>
      </trkpt>
      <trkpt lat="48.67577" lon="1.83636">
        <ele>167</ele>
        <time>2011-04-16T09:39:28.000Z</time>
      </trkpt>
      <trkpt lat="48.67581" lon="1.83633">
        <ele>168.39999389648</ele>
        <time>2011-04-16T09:39:36.000Z</time>
      </trkpt>
      <trkpt lat="48.67582" lon="1.83633">
        <ele>168.39999389648</ele>
        <time>2011-04-16T09:39:37.000Z</time>
      </trkpt>
      <trkpt lat="48.67594" lon="1.83622">
        <ele>179.39999389648</ele>
        <time>2011-04-16T09:40:40.000Z</time>
      </trkpt>
      <trkpt lat="48.67598" lon="1.83609">
        <ele>177</ele>
        <time>2011-04-16T09:40:47.000Z</time>
      </trkpt>
      <trkpt lat="48.676" lon="1.83602">
        <ele>176</ele>
        <time>2011-04-16T09:40:52.000Z</time>
      </trkpt>
      <trkpt lat="48.67604" lon="1.83602">
        <ele>175</ele>
        <time>2011-04-16T09:40:59.000Z</time>
      </trkpt>
      <trkpt lat="48.67608" lon="1.83604">
        <ele>174.19999694824</ele>
        <time>2011-04-16T09:41:05.000Z</time>
      </trkpt>
      <trkpt lat="48.67624" lon="1.83615">
        <ele>175</ele>
        <time>2011-04-16T09:41:30.000Z</time>
      </trkpt>
      <trkpt lat="48.6763" lon="1.83621">
        <ele>173.19999694824</ele>
        <time>2011-04-16T09:41:37.000Z</time>
      </trkpt>
      <trkpt lat="48.67633" lon="1.83622">
        <ele>173.19999694824</ele>
        <time>2011-04-16T09:41:39.000Z</time>
      </trkpt>
      <trkpt lat="48.67637" lon="1.83634">
        <ele>172.19999694824</ele>
        <time>2011-04-16T09:41:46.000Z</time>
      </trkpt>
      <trkpt lat="48.67641" lon="1.83638">
        <ele>172.19999694824</ele>
        <time>2011-04-16T09:41:50.000Z</time>
      </trkpt>
      <trkpt lat="48.67645" lon="1.83639">
        <ele>172.60000610352</ele>
        <time>2011-04-16T09:41:53.000Z</time>
      </trkpt>
      <trkpt lat="48.67651" lon="1.83639">
        <ele>174.19999694824</ele>
        <time>2011-04-16T09:41:57.000Z</time>
      </trkpt>
      <trkpt lat="48.67658" lon="1.83641">
        <ele>175</ele>
        <time>2011-04-16T09:42:01.000Z</time>
      </trkpt>
      <trkpt lat="48.67668" lon="1.83642">
        <ele>175</ele>
        <time>2011-04-16T09:42:10.000Z</time>
      </trkpt>
      <trkpt lat="48.6767" lon="1.83641">
        <ele>175.60000610352</ele>
        <time>2011-04-16T09:42:12.000Z</time>
      </trkpt>
      <trkpt lat="48.67675" lon="1.83639">
        <ele>175.60000610352</ele>
        <time>2011-04-16T09:42:17.000Z</time>
      </trkpt>
      <trkpt lat="48.67681" lon="1.8364">
        <ele>176</ele>
        <time>2011-04-16T09:42:21.000Z</time>
      </trkpt>
      <trkpt lat="48.67685" lon="1.8364">
        <ele>178</ele>
        <time>2011-04-16T09:42:24.000Z</time>
      </trkpt>
      <trkpt lat="48.67694" lon="1.83639">
        <ele>177.60000610352</ele>
        <time>2011-04-16T09:42:32.000Z</time>
      </trkpt>
      <trkpt lat="48.67699" lon="1.8364">
        <ele>178</ele>
        <time>2011-04-16T09:42:35.000Z</time>
      </trkpt>
      <trkpt lat="48.67705" lon="1.83639">
        <ele>178</ele>
        <time>2011-04-16T09:42:39.000Z</time>
      </trkpt>
      <trkpt lat="48.6772" lon="1.83642">
        <ele>175</ele>
        <time>2011-04-16T09:42:48.000Z</time>
      </trkpt>
      <trkpt lat="48.67727" lon="1.83646">
        <ele>174.60000610352</ele>
        <time>2011-04-16T09:42:54.000Z</time>
      </trkpt>
      <trkpt lat="48.67729" lon="1.83646">
        <ele>175.60000610352</ele>
        <time>2011-04-16T09:43:00.000Z</time>
      </trkpt>
      <trkpt lat="48.6773" lon="1.83646">
        <ele>175.60000610352</ele>
        <time>2011-04-16T09:43:01.000Z</time>
      </trkpt>
      <trkpt lat="48.67737" lon="1.83643">
        <ele>178.39999389648</ele>
        <time>2011-04-16T09:43:21.000Z</time>
      </trkpt>
      <trkpt lat="48.67748" lon="1.83645">
        <ele>177</ele>
        <time>2011-04-16T09:43:29.000Z</time>
      </trkpt>
      <trkpt lat="48.67756" lon="1.83644">
        <ele>176.60000610352</ele>
        <time>2011-04-16T09:43:36.000Z</time>
      </trkpt>
      <trkpt lat="48.67757" lon="1.83644">
        <ele>176.60000610352</ele>
        <time>2011-04-16T09:43:37.000Z</time>
      </trkpt>
      <trkpt lat="48.67762" lon="1.83643">
        <ele>176.60000610352</ele>
        <time>2011-04-16T09:43:42.000Z</time>
      </trkpt>
      <trkpt lat="48.67762" lon="1.83643">
        <ele>176.60000610352</ele>
        <time>2011-04-16T09:43:43.000Z</time>
      </trkpt>
      <trkpt lat="48.67767" lon="1.8364">
        <ele>177.60000610352</ele>
        <time>2011-04-16T09:43:51.000Z</time>
      </trkpt>
      <trkpt lat="48.67767" lon="1.83639">
        <ele>178</ele>
        <time>2011-04-16T09:43:53.000Z</time>
      </trkpt>
      <trkpt lat="48.6777" lon="1.83649">
        <ele>176</ele>
        <time>2011-04-16T09:44:11.000Z</time>
      </trkpt>
      <trkpt lat="48.67773" lon="1.83659">
        <ele>173.60000610352</ele>
        <time>2011-04-16T09:44:15.000Z</time>
      </trkpt>
      <trkpt lat="48.67774" lon="1.83667">
        <ele>172.60000610352</ele>
        <time>2011-04-16T09:44:20.000Z</time>
      </trkpt>
      <trkpt lat="48.67774" lon="1.83675">
        <ele>172.19999694824</ele>
        <time>2011-04-16T09:44:24.000Z</time>
      </trkpt>
      <trkpt lat="48.67774" lon="1.83681">
        <ele>171.19999694824</ele>
        <time>2011-04-16T09:44:27.000Z</time>
      </trkpt>
      <trkpt lat="48.67775" lon="1.83691">
        <ele>170.19999694824</ele>
        <time>2011-04-16T09:44:32.000Z</time>
      </trkpt>
      <trkpt lat="48.67776" lon="1.83706">
        <ele>170.80000305176</ele>
        <time>2011-04-16T09:44:39.000Z</time>
      </trkpt>
      <trkpt lat="48.67776" lon="1.8371">
        <ele>171.19999694824</ele>
        <time>2011-04-16T09:44:41.000Z</time>
      </trkpt>
      <trkpt lat="48.67777" lon="1.83721">
        <ele>172.19999694824</ele>
        <time>2011-04-16T09:44:46.000Z</time>
      </trkpt>
      <trkpt lat="48.6778" lon="1.83735">
        <ele>173.19999694824</ele>
        <time>2011-04-16T09:44:52.000Z</time>
      </trkpt>
      <trkpt lat="48.67782" lon="1.83744">
        <ele>174.19999694824</ele>
        <time>2011-04-16T09:44:56.000Z</time>
      </trkpt>
      <trkpt lat="48.67783" lon="1.83757">
        <ele>174.19999694824</ele>
        <time>2011-04-16T09:45:04.000Z</time>
      </trkpt>
      <trkpt lat="48.67785" lon="1.83766">
        <ele>174.60000610352</ele>
        <time>2011-04-16T09:45:09.000Z</time>
      </trkpt>
      <trkpt lat="48.67785" lon="1.8378">
        <ele>175</ele>
        <time>2011-04-16T09:45:15.000Z</time>
      </trkpt>
      <trkpt lat="48.67787" lon="1.83794">
        <ele>173.60000610352</ele>
        <time>2011-04-16T09:45:22.000Z</time>
      </trkpt>
      <trkpt lat="48.67788" lon="1.838">
        <ele>173.19999694824</ele>
        <time>2011-04-16T09:45:25.000Z</time>
      </trkpt>
      <trkpt lat="48.6779" lon="1.83818">
        <ele>172.60000610352</ele>
        <time>2011-04-16T09:45:33.000Z</time>
      </trkpt>
      <trkpt lat="48.67793" lon="1.83831">
        <ele>172.60000610352</ele>
        <time>2011-04-16T09:45:39.000Z</time>
      </trkpt>
      <trkpt lat="48.67797" lon="1.83841">
        <ele>173.19999694824</ele>
        <time>2011-04-16T09:45:45.000Z</time>
      </trkpt>
      <trkpt lat="48.67803" lon="1.83851">
        <ele>173.60000610352</ele>
        <time>2011-04-16T09:45:51.000Z</time>
      </trkpt>
      <trkpt lat="48.67811" lon="1.83862">
        <ele>174.19999694824</ele>
        <time>2011-04-16T09:45:58.000Z</time>
      </trkpt>
      <trkpt lat="48.67815" lon="1.83868">
        <ele>174.19999694824</ele>
        <time>2011-04-16T09:46:02.000Z</time>
      </trkpt>
      <trkpt lat="48.6782" lon="1.83877">
        <ele>175</ele>
        <time>2011-04-16T09:46:08.000Z</time>
      </trkpt>
      <trkpt lat="48.67824" lon="1.83883">
        <ele>175.60000610352</ele>
        <time>2011-04-16T09:46:12.000Z</time>
      </trkpt>
      <trkpt lat="48.67827" lon="1.83887">
        <ele>175</ele>
        <time>2011-04-16T09:46:15.000Z</time>
      </trkpt>
      <trkpt lat="48.67832" lon="1.83893">
        <ele>175.60000610352</ele>
        <time>2011-04-16T09:46:22.000Z</time>
      </trkpt>
      <trkpt lat="48.67836" lon="1.83898">
        <ele>176</ele>
        <time>2011-04-16T09:46:29.000Z</time>
      </trkpt>
      <trkpt lat="48.67846" lon="1.83912">
        <ele>175</ele>
        <time>2011-04-16T09:46:37.000Z</time>
      </trkpt>
      <trkpt lat="48.67855" lon="1.83925">
        <ele>175</ele>
        <time>2011-04-16T09:46:45.000Z</time>
      </trkpt>
      <trkpt lat="48.67863" lon="1.83936">
        <ele>174.60000610352</ele>
        <time>2011-04-16T09:46:53.000Z</time>
      </trkpt>
      <trkpt lat="48.67873" lon="1.83948">
        <ele>174.60000610352</ele>
        <time>2011-04-16T09:47:01.000Z</time>
      </trkpt>
      <trkpt lat="48.6788" lon="1.83959">
        <ele>175</ele>
        <time>2011-04-16T09:47:08.000Z</time>
      </trkpt>
      <trkpt lat="48.67887" lon="1.83969">
        <ele>177</ele>
        <time>2011-04-16T09:47:14.000Z</time>
      </trkpt>
      <trkpt lat="48.67892" lon="1.8398">
        <ele>176.60000610352</ele>
        <time>2011-04-16T09:47:20.000Z</time>
      </trkpt>
      <trkpt lat="48.67895" lon="1.83996">
        <ele>176.60000610352</ele>
        <time>2011-04-16T09:47:27.000Z</time>
      </trkpt>
      <trkpt lat="48.67895" lon="1.84016">
        <ele>176.60000610352</ele>
        <time>2011-04-16T09:47:36.000Z</time>
      </trkpt>
      <trkpt lat="48.67895" lon="1.84036">
        <ele>176</ele>
        <time>2011-04-16T09:47:45.000Z</time>
      </trkpt>
      <trkpt lat="48.67894" lon="1.8406">
        <ele>175</ele>
        <time>2011-04-16T09:47:56.000Z</time>
      </trkpt>
      <trkpt lat="48.67892" lon="1.84075">
        <ele>174.60000610352</ele>
        <time>2011-04-16T09:48:04.000Z</time>
      </trkpt>
      <trkpt lat="48.6789" lon="1.8408">
        <ele>174.19999694824</ele>
        <time>2011-04-16T09:48:09.000Z</time>
      </trkpt>
      <trkpt lat="48.6789" lon="1.8408">
        <ele>174.19999694824</ele>
        <time>2011-04-16T09:48:11.000Z</time>
      </trkpt>
      <trkpt lat="48.67893" lon="1.84083">
        <ele>174.60000610352</ele>
        <time>2011-04-16T09:48:21.000Z</time>
      </trkpt>
      <trkpt lat="48.67902" lon="1.84082">
        <ele>175</ele>
        <time>2011-04-16T09:48:24.000Z</time>
      </trkpt>
      <trkpt lat="48.67915" lon="1.84078">
        <ele>174.60000610352</ele>
        <time>2011-04-16T09:48:30.000Z</time>
      </trkpt>
      <trkpt lat="48.67923" lon="1.84075">
        <ele>175</ele>
        <time>2011-04-16T09:48:36.000Z</time>
      </trkpt>
      <trkpt lat="48.67931" lon="1.84071">
        <ele>176</ele>
        <time>2011-04-16T09:48:42.000Z</time>
      </trkpt>
      <trkpt lat="48.67939" lon="1.84066">
        <ele>176.60000610352</ele>
        <time>2011-04-16T09:48:48.000Z</time>
      </trkpt>
      <trkpt lat="48.67951" lon="1.84059">
        <ele>176</ele>
        <time>2011-04-16T09:48:57.000Z</time>
      </trkpt>
      <trkpt lat="48.6796" lon="1.84055">
        <ele>178</ele>
        <time>2011-04-16T09:49:03.000Z</time>
      </trkpt>
      <trkpt lat="48.67969" lon="1.84052">
        <ele>179.39999389648</ele>
        <time>2011-04-16T09:49:10.000Z</time>
      </trkpt>
      <trkpt lat="48.67981" lon="1.84047">
        <ele>179.39999389648</ele>
        <time>2011-04-16T09:49:18.000Z</time>
      </trkpt>
      <trkpt lat="48.67991" lon="1.84045">
        <ele>178.39999389648</ele>
        <time>2011-04-16T09:49:26.000Z</time>
      </trkpt>
      <trkpt lat="48.68002" lon="1.84046">
        <ele>178</ele>
        <time>2011-04-16T09:49:34.000Z</time>
      </trkpt>
      <trkpt lat="48.68015" lon="1.84053">
        <ele>179.39999389648</ele>
        <time>2011-04-16T09:49:43.000Z</time>
      </trkpt>
      <trkpt lat="48.6802" lon="1.84057">
        <ele>180.80000305176</ele>
        <time>2011-04-16T09:49:50.000Z</time>
      </trkpt>
      <trkpt lat="48.68024" lon="1.84073">
        <ele>182.80000305176</ele>
        <time>2011-04-16T09:50:03.000Z</time>
      </trkpt>
      <trkpt lat="48.68025" lon="1.84091">
        <ele>181.80000305176</ele>
        <time>2011-04-16T09:50:11.000Z</time>
      </trkpt>
      <trkpt lat="48.68025" lon="1.84098">
        <ele>181.80000305176</ele>
        <time>2011-04-16T09:50:17.000Z</time>
      </trkpt>
      <trkpt lat="48.68027" lon="1.84106">
        <ele>181.80000305176</ele>
        <time>2011-04-16T09:50:25.000Z</time>
      </trkpt>
      <trkpt lat="48.68029" lon="1.84118">
        <ele>181.80000305176</ele>
        <time>2011-04-16T09:50:30.000Z</time>
      </trkpt>
      <trkpt lat="48.68031" lon="1.84132">
        <ele>182.39999389648</ele>
        <time>2011-04-16T09:50:36.000Z</time>
      </trkpt>
      <trkpt lat="48.68035" lon="1.84149">
        <ele>182.39999389648</ele>
        <time>2011-04-16T09:50:42.000Z</time>
      </trkpt>
      <trkpt lat="48.68037" lon="1.84167">
        <ele>182.39999389648</ele>
        <time>2011-04-16T09:50:49.000Z</time>
      </trkpt>
      <trkpt lat="48.6804" lon="1.84185">
        <ele>182.80000305176</ele>
        <time>2011-04-16T09:50:57.000Z</time>
      </trkpt>
      <trkpt lat="48.68042" lon="1.84196">
        <ele>182.80000305176</ele>
        <time>2011-04-16T09:51:02.000Z</time>
      </trkpt>
      <trkpt lat="48.68044" lon="1.8421">
        <ele>182.39999389648</ele>
        <time>2011-04-16T09:51:09.000Z</time>
      </trkpt>
      <trkpt lat="48.6805" lon="1.84223">
        <ele>183.19999694824</ele>
        <time>2011-04-16T09:51:16.000Z</time>
      </trkpt>
      <trkpt lat="48.68059" lon="1.84237">
        <ele>183.80000305176</ele>
        <time>2011-04-16T09:51:25.000Z</time>
      </trkpt>
      <trkpt lat="48.68071" lon="1.84245">
        <ele>182.39999389648</ele>
        <time>2011-04-16T09:51:34.000Z</time>
      </trkpt>
      <trkpt lat="48.6808" lon="1.84247">
        <ele>181.80000305176</ele>
        <time>2011-04-16T09:51:40.000Z</time>
      </trkpt>
      <trkpt lat="48.6809" lon="1.84246">
        <ele>180.80000305176</ele>
        <time>2011-04-16T09:51:47.000Z</time>
      </trkpt>
      <trkpt lat="48.68093" lon="1.84245">
        <ele>180.80000305176</ele>
        <time>2011-04-16T09:51:49.000Z</time>
      </trkpt>
      <trkpt lat="48.68099" lon="1.84244">
        <ele>180.39999389648</ele>
        <time>2011-04-16T09:51:53.000Z</time>
      </trkpt>
      <trkpt lat="48.68112" lon="1.84241">
        <ele>180</ele>
        <time>2011-04-16T09:52:01.000Z</time>
      </trkpt>
      <trkpt lat="48.68127" lon="1.8424">
        <ele>179</ele>
        <time>2011-04-16T09:52:10.000Z</time>
      </trkpt>
      <trkpt lat="48.68146" lon="1.84238">
        <ele>179</ele>
        <time>2011-04-16T09:52:21.000Z</time>
      </trkpt>
      <trkpt lat="48.68163" lon="1.84238">
        <ele>177.60000610352</ele>
        <time>2011-04-16T09:52:31.000Z</time>
      </trkpt>
      <trkpt lat="48.6817" lon="1.84238">
        <ele>177</ele>
        <time>2011-04-16T09:52:36.000Z</time>
      </trkpt>
      <trkpt lat="48.68176" lon="1.84247">
        <ele>178</ele>
        <time>2011-04-16T09:52:42.000Z</time>
      </trkpt>
      <trkpt lat="48.68177" lon="1.84262">
        <ele>177.60000610352</ele>
        <time>2011-04-16T09:52:50.000Z</time>
      </trkpt>
      <trkpt lat="48.68177" lon="1.84263">
        <ele>177.60000610352</ele>
        <time>2011-04-16T09:52:52.000Z</time>
      </trkpt>
      <trkpt lat="48.6817" lon="1.84301">
        <ele>173.19999694824</ele>
        <time>2011-04-16T09:53:52.000Z</time>
      </trkpt>
      <trkpt lat="48.68164" lon="1.8431">
        <ele>174.60000610352</ele>
        <time>2011-04-16T09:53:58.000Z</time>
      </trkpt>
      <trkpt lat="48.68161" lon="1.84317">
        <ele>176.60000610352</ele>
        <time>2011-04-16T09:54:02.000Z</time>
      </trkpt>
      <trkpt lat="48.68154" lon="1.8433">
        <ele>179.39999389648</ele>
        <time>2011-04-16T09:54:10.000Z</time>
      </trkpt>
      <trkpt lat="48.68152" lon="1.84337">
        <ele>181.39999389648</ele>
        <time>2011-04-16T09:54:17.000Z</time>
      </trkpt>
      <trkpt lat="48.68143" lon="1.84355">
        <ele>187.19999694824</ele>
        <time>2011-04-16T09:54:34.000Z</time>
      </trkpt>
      <trkpt lat="48.6814" lon="1.84357">
        <ele>187.19999694824</ele>
        <time>2011-04-16T09:54:35.000Z</time>
      </trkpt>
      <trkpt lat="48.68132" lon="1.84368">
        <ele>187.19999694824</ele>
        <time>2011-04-16T09:54:43.000Z</time>
      </trkpt>
      <trkpt lat="48.68123" lon="1.84376">
        <ele>184.19999694824</ele>
        <time>2011-04-16T09:54:50.000Z</time>
      </trkpt>
      <trkpt lat="48.68121" lon="1.84379">
        <ele>183.80000305176</ele>
        <time>2011-04-16T09:54:52.000Z</time>
      </trkpt>
      <trkpt lat="48.6812" lon="1.84386">
        <ele>183.80000305176</ele>
        <time>2011-04-16T09:54:56.000Z</time>
      </trkpt>
      <trkpt lat="48.68117" lon="1.84391">
        <ele>183.80000305176</ele>
        <time>2011-04-16T09:54:59.000Z</time>
      </trkpt>
      <trkpt lat="48.68113" lon="1.84401">
        <ele>184.19999694824</ele>
        <time>2011-04-16T09:55:05.000Z</time>
      </trkpt>
      <trkpt lat="48.6811" lon="1.84408">
        <ele>185.19999694824</ele>
        <time>2011-04-16T09:55:10.000Z</time>
      </trkpt>
      <trkpt lat="48.68106" lon="1.84411">
        <ele>184.80000305176</ele>
        <time>2011-04-16T09:55:13.000Z</time>
      </trkpt>
      <trkpt lat="48.68104" lon="1.84418">
        <ele>183.80000305176</ele>
        <time>2011-04-16T09:55:17.000Z</time>
      </trkpt>
      <trkpt lat="48.68099" lon="1.84424">
        <ele>181.39999389648</ele>
        <time>2011-04-16T09:55:23.000Z</time>
      </trkpt>
      <trkpt lat="48.68096" lon="1.8443">
        <ele>183.80000305176</ele>
        <time>2011-04-16T09:55:28.000Z</time>
      </trkpt>
      <trkpt lat="48.68094" lon="1.84433">
        <ele>184.19999694824</ele>
        <time>2011-04-16T09:55:30.000Z</time>
      </trkpt>
      <trkpt lat="48.6809" lon="1.84441">
        <ele>185.19999694824</ele>
        <time>2011-04-16T09:55:39.000Z</time>
      </trkpt>
      <trkpt lat="48.68089" lon="1.84443">
        <ele>184.80000305176</ele>
        <time>2011-04-16T09:55:40.000Z</time>
      </trkpt>
      <trkpt lat="48.68085" lon="1.84456">
        <ele>184.19999694824</ele>
        <time>2011-04-16T09:55:47.000Z</time>
      </trkpt>
      <trkpt lat="48.68083" lon="1.84459">
        <ele>184.80000305176</ele>
        <time>2011-04-16T09:55:49.000Z</time>
      </trkpt>
      <trkpt lat="48.68079" lon="1.84464">
        <ele>182.39999389648</ele>
        <time>2011-04-16T09:55:53.000Z</time>
      </trkpt>
      <trkpt lat="48.68075" lon="1.84471">
        <ele>184.19999694824</ele>
        <time>2011-04-16T09:56:01.000Z</time>
      </trkpt>
      <trkpt lat="48.68074" lon="1.84472">
        <ele>183.80000305176</ele>
        <time>2011-04-16T09:56:02.000Z</time>
      </trkpt>
      <trkpt lat="48.68067" lon="1.8448">
        <ele>184.80000305176</ele>
        <time>2011-04-16T09:56:08.000Z</time>
      </trkpt>
      <trkpt lat="48.68065" lon="1.84483">
        <ele>185.19999694824</ele>
        <time>2011-04-16T09:56:10.000Z</time>
      </trkpt>
      <trkpt lat="48.68056" lon="1.84497">
        <ele>182.80000305176</ele>
        <time>2011-04-16T09:56:19.000Z</time>
      </trkpt>
      <trkpt lat="48.68047" lon="1.84507">
        <ele>180.39999389648</ele>
        <time>2011-04-16T09:56:27.000Z</time>
      </trkpt>
      <trkpt lat="48.68037" lon="1.84519">
        <ele>180</ele>
        <time>2011-04-16T09:56:34.000Z</time>
      </trkpt>
      <trkpt lat="48.6803" lon="1.84529">
        <ele>180.39999389648</ele>
        <time>2011-04-16T09:56:41.000Z</time>
      </trkpt>
      <trkpt lat="48.68027" lon="1.84533">
        <ele>180.39999389648</ele>
        <time>2011-04-16T09:56:44.000Z</time>
      </trkpt>
      <trkpt lat="48.68025" lon="1.84539">
        <ele>179</ele>
        <time>2011-04-16T09:56:48.000Z</time>
      </trkpt>
      <trkpt lat="48.6802" lon="1.84549">
        <ele>180.39999389648</ele>
        <time>2011-04-16T09:56:55.000Z</time>
      </trkpt>
      <trkpt lat="48.68013" lon="1.84561">
        <ele>180</ele>
        <time>2011-04-16T09:57:02.000Z</time>
      </trkpt>
      <trkpt lat="48.68004" lon="1.84576">
        <ele>180.80000305176</ele>
        <time>2011-04-16T09:57:10.000Z</time>
      </trkpt>
      <trkpt lat="48.67991" lon="1.84594">
        <ele>190.39999389648</ele>
        <time>2011-04-16T09:57:18.000Z</time>
      </trkpt>
      <trkpt lat="48.67988" lon="1.84602">
        <ele>190.39999389648</ele>
        <time>2011-04-16T09:57:24.000Z</time>
      </trkpt>
      <trkpt lat="48.67987" lon="1.84607">
        <ele>186.19999694824</ele>
        <time>2011-04-16T09:57:30.000Z</time>
      </trkpt>
      <trkpt lat="48.67982" lon="1.84615">
        <ele>184.19999694824</ele>
        <time>2011-04-16T09:57:36.000Z</time>
      </trkpt>
      <trkpt lat="48.67974" lon="1.84626">
        <ele>180</ele>
        <time>2011-04-16T09:57:44.000Z</time>
      </trkpt>
      <trkpt lat="48.6797" lon="1.84634">
        <ele>179</ele>
        <time>2011-04-16T09:57:49.000Z</time>
      </trkpt>
      <trkpt lat="48.67961" lon="1.84644">
        <ele>180.39999389648</ele>
        <time>2011-04-16T09:57:56.000Z</time>
      </trkpt>
      <trkpt lat="48.67954" lon="1.84653">
        <ele>180.39999389648</ele>
        <time>2011-04-16T09:58:02.000Z</time>
      </trkpt>
      <trkpt lat="48.67949" lon="1.84668">
        <ele>178.39999389648</ele>
        <time>2011-04-16T09:58:10.000Z</time>
      </trkpt>
      <trkpt lat="48.67945" lon="1.84677">
        <ele>177.60000610352</ele>
        <time>2011-04-16T09:58:16.000Z</time>
      </trkpt>
      <trkpt lat="48.67937" lon="1.84691">
        <ele>177.60000610352</ele>
        <time>2011-04-16T09:58:24.000Z</time>
      </trkpt>
      <trkpt lat="48.67932" lon="1.847">
        <ele>178</ele>
        <time>2011-04-16T09:58:29.000Z</time>
      </trkpt>
      <trkpt lat="48.67926" lon="1.84714">
        <ele>179.39999389648</ele>
        <time>2011-04-16T09:58:37.000Z</time>
      </trkpt>
      <trkpt lat="48.67922" lon="1.84722">
        <ele>178</ele>
        <time>2011-04-16T09:58:42.000Z</time>
      </trkpt>
      <trkpt lat="48.67916" lon="1.84732">
        <ele>179</ele>
        <time>2011-04-16T09:58:48.000Z</time>
      </trkpt>
      <trkpt lat="48.67912" lon="1.8474">
        <ele>180.80000305176</ele>
        <time>2011-04-16T09:58:53.000Z</time>
      </trkpt>
      <trkpt lat="48.67904" lon="1.8475">
        <ele>183.19999694824</ele>
        <time>2011-04-16T09:59:00.000Z</time>
      </trkpt>
      <trkpt lat="48.67898" lon="1.84764">
        <ele>181.39999389648</ele>
        <time>2011-04-16T09:59:07.000Z</time>
      </trkpt>
      <trkpt lat="48.67893" lon="1.84771">
        <ele>180.80000305176</ele>
        <time>2011-04-16T09:59:12.000Z</time>
      </trkpt>
      <trkpt lat="48.67886" lon="1.84784">
        <ele>180</ele>
        <time>2011-04-16T09:59:20.000Z</time>
      </trkpt>
      <trkpt lat="48.67881" lon="1.84794">
        <ele>180</ele>
        <time>2011-04-16T09:59:26.000Z</time>
      </trkpt>
      <trkpt lat="48.67876" lon="1.84803">
        <ele>179</ele>
        <time>2011-04-16T09:59:32.000Z</time>
      </trkpt>
      <trkpt lat="48.67876" lon="1.84803">
        <ele>178.39999389648</ele>
        <time>2011-04-16T09:59:34.000Z</time>
      </trkpt>
      <trkpt lat="48.67871" lon="1.84809">
        <ele>175</ele>
        <time>2011-04-16T09:59:45.000Z</time>
      </trkpt>
      <trkpt lat="48.67865" lon="1.84819">
        <ele>173.60000610352</ele>
        <time>2011-04-16T09:59:50.000Z</time>
      </trkpt>
      <trkpt lat="48.67864" lon="1.8482">
        <ele>173.60000610352</ele>
        <time>2011-04-16T09:59:51.000Z</time>
      </trkpt>
      <trkpt lat="48.67858" lon="1.84822">
        <ele>173.60000610352</ele>
        <time>2011-04-16T09:59:57.000Z</time>
      </trkpt>
      <trkpt lat="48.67851" lon="1.84825">
        <ele>174.19999694824</ele>
        <time>2011-04-16T10:00:04.000Z</time>
      </trkpt>
      <trkpt lat="48.67848" lon="1.84827">
        <ele>175</ele>
        <time>2011-04-16T10:00:12.000Z</time>
      </trkpt>
      <trkpt lat="48.67842" lon="1.84831">
        <ele>179.39999389648</ele>
        <time>2011-04-16T10:00:19.000Z</time>
      </trkpt>
      <trkpt lat="48.67832" lon="1.84827">
        <ele>180</ele>
        <time>2011-04-16T10:00:27.000Z</time>
      </trkpt>
      <trkpt lat="48.67819" lon="1.84824">
        <ele>183.19999694824</ele>
        <time>2011-04-16T10:00:35.000Z</time>
      </trkpt>
      <trkpt lat="48.67818" lon="1.84824">
        <ele>183.80000305176</ele>
        <time>2011-04-16T10:00:36.000Z</time>
      </trkpt>
      <trkpt lat="48.67814" lon="1.84822">
        <ele>183.19999694824</ele>
        <time>2011-04-16T10:00:40.000Z</time>
      </trkpt>
      <trkpt lat="48.67809" lon="1.8482">
        <ele>180.80000305176</ele>
        <time>2011-04-16T10:00:45.000Z</time>
      </trkpt>
      <trkpt lat="48.678" lon="1.84812">
        <ele>176</ele>
        <time>2011-04-16T10:00:53.000Z</time>
      </trkpt>
      <trkpt lat="48.67795" lon="1.84808">
        <ele>176</ele>
        <time>2011-04-16T10:00:57.000Z</time>
      </trkpt>
      <trkpt lat="48.67787" lon="1.84803">
        <ele>175.60000610352</ele>
        <time>2011-04-16T10:01:04.000Z</time>
      </trkpt>
      <trkpt lat="48.67777" lon="1.84796">
        <ele>175.60000610352</ele>
        <time>2011-04-16T10:01:11.000Z</time>
      </trkpt>
      <trkpt lat="48.67765" lon="1.8479">
        <ele>175.60000610352</ele>
        <time>2011-04-16T10:01:19.000Z</time>
      </trkpt>
      <trkpt lat="48.67752" lon="1.84783">
        <ele>175.60000610352</ele>
        <time>2011-04-16T10:01:28.000Z</time>
      </trkpt>
      <trkpt lat="48.6774" lon="1.84778">
        <ele>177</ele>
        <time>2011-04-16T10:01:36.000Z</time>
      </trkpt>
      <trkpt lat="48.67731" lon="1.84775">
        <ele>179.39999389648</ele>
        <time>2011-04-16T10:01:42.000Z</time>
      </trkpt>
      <trkpt lat="48.67723" lon="1.84771">
        <ele>179.39999389648</ele>
        <time>2011-04-16T10:01:47.000Z</time>
      </trkpt>
      <trkpt lat="48.67711" lon="1.84764">
        <ele>179</ele>
        <time>2011-04-16T10:01:56.000Z</time>
      </trkpt>
      <trkpt lat="48.6771" lon="1.84763">
        <ele>178.39999389648</ele>
        <time>2011-04-16T10:01:59.000Z</time>
      </trkpt>
      <trkpt lat="48.67704" lon="1.84759">
        <ele>178</ele>
        <time>2011-04-16T10:02:05.000Z</time>
      </trkpt>
      <trkpt lat="48.67695" lon="1.84755">
        <ele>178.39999389648</ele>
        <time>2011-04-16T10:02:11.000Z</time>
      </trkpt>
      <trkpt lat="48.6769" lon="1.84751">
        <ele>178</ele>
        <time>2011-04-16T10:02:16.000Z</time>
      </trkpt>
      <trkpt lat="48.67685" lon="1.84749">
        <ele>178</ele>
        <time>2011-04-16T10:02:21.000Z</time>
      </trkpt>
      <trkpt lat="48.67678" lon="1.84746">
        <ele>177.60000610352</ele>
        <time>2011-04-16T10:02:27.000Z</time>
      </trkpt>
      <trkpt lat="48.67664" lon="1.84739">
        <ele>179.39999389648</ele>
        <time>2011-04-16T10:02:36.000Z</time>
      </trkpt>
      <trkpt lat="48.67653" lon="1.84734">
        <ele>177</ele>
        <time>2011-04-16T10:02:44.000Z</time>
      </trkpt>
      <trkpt lat="48.67644" lon="1.84729">
        <ele>176.60000610352</ele>
        <time>2011-04-16T10:02:50.000Z</time>
      </trkpt>
      <trkpt lat="48.6763" lon="1.84725">
        <ele>179</ele>
        <time>2011-04-16T10:02:59.000Z</time>
      </trkpt>
      <trkpt lat="48.67622" lon="1.84721">
        <ele>179</ele>
        <time>2011-04-16T10:03:05.000Z</time>
      </trkpt>
      <trkpt lat="48.67614" lon="1.84716">
        <ele>178.39999389648</ele>
        <time>2011-04-16T10:03:11.000Z</time>
      </trkpt>
      <trkpt lat="48.67606" lon="1.84711">
        <ele>178.39999389648</ele>
        <time>2011-04-16T10:03:17.000Z</time>
      </trkpt>
      <trkpt lat="48.67597" lon="1.84707">
        <ele>177</ele>
        <time>2011-04-16T10:03:23.000Z</time>
      </trkpt>
      <trkpt lat="48.67587" lon="1.84702">
        <ele>178.39999389648</ele>
        <time>2011-04-16T10:03:30.000Z</time>
      </trkpt>
      <trkpt lat="48.67576" lon="1.84698">
        <ele>179.39999389648</ele>
        <time>2011-04-16T10:03:37.000Z</time>
      </trkpt>
      <trkpt lat="48.67567" lon="1.84694">
        <ele>179.39999389648</ele>
        <time>2011-04-16T10:03:43.000Z</time>
      </trkpt>
      <trkpt lat="48.67559" lon="1.84688">
        <ele>178.39999389648</ele>
        <time>2011-04-16T10:03:49.000Z</time>
      </trkpt>
      <trkpt lat="48.67547" lon="1.84683">
        <ele>179.39999389648</ele>
        <time>2011-04-16T10:03:57.000Z</time>
      </trkpt>
      <trkpt lat="48.67538" lon="1.84681">
        <ele>181.80000305176</ele>
        <time>2011-04-16T10:04:04.000Z</time>
      </trkpt>
      <trkpt lat="48.67529" lon="1.84677">
        <ele>184.19999694824</ele>
        <time>2011-04-16T10:04:10.000Z</time>
      </trkpt>
      <trkpt lat="48.67525" lon="1.84675">
        <ele>184.19999694824</ele>
        <time>2011-04-16T10:04:16.000Z</time>
      </trkpt>
      <trkpt lat="48.6752" lon="1.84674">
        <ele>184.19999694824</ele>
        <time>2011-04-16T10:04:21.000Z</time>
      </trkpt>
      <trkpt lat="48.67513" lon="1.84669">
        <ele>183.80000305176</ele>
        <time>2011-04-16T10:04:27.000Z</time>
      </trkpt>
      <trkpt lat="48.67509" lon="1.84666">
        <ele>182.39999389648</ele>
        <time>2011-04-16T10:04:30.000Z</time>
      </trkpt>
      <trkpt lat="48.67503" lon="1.8466">
        <ele>180.80000305176</ele>
        <time>2011-04-16T10:04:37.000Z</time>
      </trkpt>
      <trkpt lat="48.67496" lon="1.84658">
        <ele>181.39999389648</ele>
        <time>2011-04-16T10:04:43.000Z</time>
      </trkpt>
      <trkpt lat="48.67486" lon="1.84653">
        <ele>180</ele>
        <time>2011-04-16T10:04:51.000Z</time>
      </trkpt>
      <trkpt lat="48.67478" lon="1.84649">
        <ele>180.80000305176</ele>
        <time>2011-04-16T10:04:57.000Z</time>
      </trkpt>
      <trkpt lat="48.67474" lon="1.84648">
        <ele>181.39999389648</ele>
        <time>2011-04-16T10:05:02.000Z</time>
      </trkpt>
      <trkpt lat="48.67468" lon="1.84646">
        <ele>181.80000305176</ele>
        <time>2011-04-16T10:05:07.000Z</time>
      </trkpt>
      <trkpt lat="48.67459" lon="1.84641">
        <ele>181.80000305176</ele>
        <time>2011-04-16T10:05:14.000Z</time>
      </trkpt>
      <trkpt lat="48.67452" lon="1.84637">
        <ele>181.39999389648</ele>
        <time>2011-04-16T10:05:20.000Z</time>
      </trkpt>
      <trkpt lat="48.67452" lon="1.84637">
        <ele>181.39999389648</ele>
        <time>2011-04-16T10:05:21.000Z</time>
      </trkpt>
      <trkpt lat="48.67437" lon="1.84634">
        <ele>187.60000610352</ele>
        <time>2011-04-16T10:06:08.000Z</time>
      </trkpt>
      <trkpt lat="48.6743" lon="1.84629">
        <ele>185.19999694824</ele>
        <time>2011-04-16T10:06:14.000Z</time>
      </trkpt>
      <trkpt lat="48.67425" lon="1.84626">
        <ele>183.19999694824</ele>
        <time>2011-04-16T10:06:20.000Z</time>
      </trkpt>
      <trkpt lat="48.67413" lon="1.84621">
        <ele>183.19999694824</ele>
        <time>2011-04-16T10:06:29.000Z</time>
      </trkpt>
      <trkpt lat="48.67405" lon="1.84613">
        <ele>179</ele>
        <time>2011-04-16T10:06:36.000Z</time>
      </trkpt>
      <trkpt lat="48.67396" lon="1.84606">
        <ele>175</ele>
        <time>2011-04-16T10:06:44.000Z</time>
      </trkpt>
      <trkpt lat="48.67386" lon="1.846">
        <ele>175</ele>
        <time>2011-04-16T10:06:53.000Z</time>
      </trkpt>
      <trkpt lat="48.67382" lon="1.84599">
        <ele>174.60000610352</ele>
        <time>2011-04-16T10:06:56.000Z</time>
      </trkpt>
      <trkpt lat="48.67376" lon="1.84598">
        <ele>174.60000610352</ele>
        <time>2011-04-16T10:07:02.000Z</time>
      </trkpt>
      <trkpt lat="48.6737" lon="1.84596">
        <ele>174.60000610352</ele>
        <time>2011-04-16T10:07:07.000Z</time>
      </trkpt>
      <trkpt lat="48.67362" lon="1.84591">
        <ele>173.60000610352</ele>
        <time>2011-04-16T10:07:14.000Z</time>
      </trkpt>
      <trkpt lat="48.67353" lon="1.84588">
        <ele>175.60000610352</ele>
        <time>2011-04-16T10:07:20.000Z</time>
      </trkpt>
      <trkpt lat="48.67342" lon="1.84583">
        <ele>175</ele>
        <time>2011-04-16T10:07:27.000Z</time>
      </trkpt>
      <trkpt lat="48.67333" lon="1.84577">
        <ele>174.19999694824</ele>
        <time>2011-04-16T10:07:34.000Z</time>
      </trkpt>
      <trkpt lat="48.67322" lon="1.8457">
        <ele>174.60000610352</ele>
        <time>2011-04-16T10:07:43.000Z</time>
      </trkpt>
      <trkpt lat="48.67311" lon="1.84565">
        <ele>175.60000610352</ele>
        <time>2011-04-16T10:07:51.000Z</time>
      </trkpt>
      <trkpt lat="48.67308" lon="1.84563">
        <ele>175.60000610352</ele>
        <time>2011-04-16T10:07:56.000Z</time>
      </trkpt>
      <trkpt lat="48.67303" lon="1.84561">
        <ele>175.60000610352</ele>
        <time>2011-04-16T10:08:03.000Z</time>
      </trkpt>
      <trkpt lat="48.67291" lon="1.84556">
        <ele>174.60000610352</ele>
        <time>2011-04-16T10:08:10.000Z</time>
      </trkpt>
      <trkpt lat="48.6728" lon="1.8455">
        <ele>175</ele>
        <time>2011-04-16T10:08:18.000Z</time>
      </trkpt>
      <trkpt lat="48.6727" lon="1.84544">
        <ele>174.19999694824</ele>
        <time>2011-04-16T10:08:25.000Z</time>
      </trkpt>
      <trkpt lat="48.67258" lon="1.84538">
        <ele>173.19999694824</ele>
        <time>2011-04-16T10:08:34.000Z</time>
      </trkpt>
      <trkpt lat="48.67256" lon="1.84537">
        <ele>173.19999694824</ele>
        <time>2011-04-16T10:08:36.000Z</time>
      </trkpt>
      <trkpt lat="48.67249" lon="1.84532">
        <ele>173.19999694824</ele>
        <time>2011-04-16T10:08:42.000Z</time>
      </trkpt>
      <trkpt lat="48.67248" lon="1.84532">
        <ele>173.19999694824</ele>
        <time>2011-04-16T10:08:43.000Z</time>
      </trkpt>
      <trkpt lat="48.67246" lon="1.8453">
        <ele>173.19999694824</ele>
        <time>2011-04-16T10:08:47.000Z</time>
      </trkpt>
      <trkpt lat="48.6724" lon="1.84528">
        <ele>174.19999694824</ele>
        <time>2011-04-16T10:08:55.000Z</time>
      </trkpt>
      <trkpt lat="48.67232" lon="1.84523">
        <ele>175</ele>
        <time>2011-04-16T10:09:01.000Z</time>
      </trkpt>
      <trkpt lat="48.67219" lon="1.84519">
        <ele>180</ele>
        <time>2011-04-16T10:09:09.000Z</time>
      </trkpt>
      <trkpt lat="48.67213" lon="1.84515">
        <ele>181.39999389648</ele>
        <time>2011-04-16T10:09:15.000Z</time>
      </trkpt>
      <trkpt lat="48.67202" lon="1.8451">
        <ele>182.39999389648</ele>
        <time>2011-04-16T10:09:24.000Z</time>
      </trkpt>
      <trkpt lat="48.672" lon="1.84509">
        <ele>181.39999389648</ele>
        <time>2011-04-16T10:09:27.000Z</time>
      </trkpt>
      <trkpt lat="48.67204" lon="1.84508">
        <ele>183.19999694824</ele>
        <time>2011-04-16T10:13:50.000Z</time>
      </trkpt>
      <trkpt lat="48.67205" lon="1.84508">
        <ele>183.19999694824</ele>
        <time>2011-04-16T10:13:51.000Z</time>
      </trkpt>
      <trkpt lat="48.672" lon="1.84505">
        <ele>183.80000305176</ele>
        <time>2011-04-16T10:14:40.000Z</time>
      </trkpt>
      <trkpt lat="48.67198" lon="1.84505">
        <ele>181.80000305176</ele>
        <time>2011-04-16T10:14:41.000Z</time>
      </trkpt>
      <trkpt lat="48.67195" lon="1.84511">
        <ele>178.39999389648</ele>
        <time>2011-04-16T10:14:44.000Z</time>
      </trkpt>
      <trkpt lat="48.67193" lon="1.84516">
        <ele>178.39999389648</ele>
        <time>2011-04-16T10:14:50.000Z</time>
      </trkpt>
      <trkpt lat="48.67192" lon="1.84519">
        <ele>177.60000610352</ele>
        <time>2011-04-16T10:14:52.000Z</time>
      </trkpt>
      <trkpt lat="48.67194" lon="1.84528">
        <ele>178.39999389648</ele>
        <time>2011-04-16T10:14:58.000Z</time>
      </trkpt>
      <trkpt lat="48.67195" lon="1.84529">
        <ele>178.39999389648</ele>
        <time>2011-04-16T10:15:01.000Z</time>
      </trkpt>
      <trkpt lat="48.67196" lon="1.84526">
        <ele>180.39999389648</ele>
        <time>2011-04-16T10:15:42.000Z</time>
      </trkpt>
      <trkpt lat="48.67194" lon="1.84523">
        <ele>180</ele>
        <time>2011-04-16T10:15:43.000Z</time>
      </trkpt>
      <trkpt lat="48.6719" lon="1.84511">
        <ele>177.60000610352</ele>
        <time>2011-04-16T10:15:49.000Z</time>
      </trkpt>
      <trkpt lat="48.67192" lon="1.84509">
        <ele>177.60000610352</ele>
        <time>2011-04-16T10:15:51.000Z</time>
      </trkpt>
      <trkpt lat="48.67192" lon="1.84508">
        <ele>177</ele>
        <time>2011-04-16T10:15:53.000Z</time>
      </trkpt>
      <trkpt lat="48.67193" lon="1.84502">
        <ele>175</ele>
        <time>2011-04-16T10:15:58.000Z</time>
      </trkpt>
      <trkpt lat="48.67199" lon="1.84499">
        <ele>177</ele>
        <time>2011-04-16T10:16:05.000Z</time>
      </trkpt>
      <trkpt lat="48.67199" lon="1.84499">
        <ele>177</ele>
        <time>2011-04-16T10:16:06.000Z</time>
      </trkpt>
      <trkpt lat="48.67185" lon="1.84504">
        <ele>178</ele>
        <time>2011-04-16T10:17:29.000Z</time>
      </trkpt>
      <trkpt lat="48.67175" lon="1.845">
        <ele>181.39999389648</ele>
        <time>2011-04-16T10:17:37.000Z</time>
      </trkpt>
      <trkpt lat="48.67172" lon="1.84502">
        <ele>187.60000610352</ele>
        <time>2011-04-16T10:17:43.000Z</time>
      </trkpt>
      <trkpt lat="48.6713" lon="1.84494">
        <ele>176</ele>
        <time>2011-04-16T10:18:56.000Z</time>
      </trkpt>
      <trkpt lat="48.67124" lon="1.84494">
        <ele>176</ele>
        <time>2011-04-16T10:19:01.000Z</time>
      </trkpt>
      <trkpt lat="48.67122" lon="1.84494">
        <ele>175.60000610352</ele>
        <time>2011-04-16T10:19:02.000Z</time>
      </trkpt>
      <trkpt lat="48.67111" lon="1.8449">
        <ele>176.60000610352</ele>
        <time>2011-04-16T10:19:10.000Z</time>
      </trkpt>
      <trkpt lat="48.67108" lon="1.84489">
        <ele>176.60000610352</ele>
        <time>2011-04-16T10:19:12.000Z</time>
      </trkpt>
      <trkpt lat="48.67098" lon="1.84484">
        <ele>177</ele>
        <time>2011-04-16T10:19:20.000Z</time>
      </trkpt>
      <trkpt lat="48.67088" lon="1.84478">
        <ele>178</ele>
        <time>2011-04-16T10:19:28.000Z</time>
      </trkpt>
      <trkpt lat="48.67079" lon="1.84473">
        <ele>179</ele>
        <time>2011-04-16T10:19:36.000Z</time>
      </trkpt>
      <trkpt lat="48.67069" lon="1.84468">
        <ele>177</ele>
        <time>2011-04-16T10:19:45.000Z</time>
      </trkpt>
      <trkpt lat="48.67066" lon="1.84466">
        <ele>177</ele>
        <time>2011-04-16T10:19:47.000Z</time>
      </trkpt>
      <trkpt lat="48.67056" lon="1.84463">
        <ele>178</ele>
        <time>2011-04-16T10:19:54.000Z</time>
      </trkpt>
      <trkpt lat="48.67054" lon="1.84461">
        <ele>177.60000610352</ele>
        <time>2011-04-16T10:19:56.000Z</time>
      </trkpt>
      <trkpt lat="48.67043" lon="1.84459">
        <ele>178</ele>
        <time>2011-04-16T10:20:05.000Z</time>
      </trkpt>
      <trkpt lat="48.67033" lon="1.84454">
        <ele>177</ele>
        <time>2011-04-16T10:20:12.000Z</time>
      </trkpt>
      <trkpt lat="48.67027" lon="1.8445">
        <ele>175.60000610352</ele>
        <time>2011-04-16T10:20:17.000Z</time>
      </trkpt>
      <trkpt lat="48.67024" lon="1.84446">
        <ele>175</ele>
        <time>2011-04-16T10:20:22.000Z</time>
      </trkpt>
      <trkpt lat="48.67023" lon="1.84443">
        <ele>178</ele>
        <time>2011-04-16T10:20:28.000Z</time>
      </trkpt>
      <trkpt lat="48.67016" lon="1.84438">
        <ele>177</ele>
        <time>2011-04-16T10:20:47.000Z</time>
      </trkpt>
      <trkpt lat="48.67006" lon="1.84435">
        <ele>176</ele>
        <time>2011-04-16T10:20:54.000Z</time>
      </trkpt>
      <trkpt lat="48.66998" lon="1.84434">
        <ele>174.60000610352</ele>
        <time>2011-04-16T10:21:01.000Z</time>
      </trkpt>
      <trkpt lat="48.66987" lon="1.84437">
        <ele>175</ele>
        <time>2011-04-16T10:21:09.000Z</time>
      </trkpt>
      <trkpt lat="48.66984" lon="1.84436">
        <ele>174.19999694824</ele>
        <time>2011-04-16T10:21:12.000Z</time>
      </trkpt>
      <trkpt lat="48.66976" lon="1.84438">
        <ele>176.60000610352</ele>
        <time>2011-04-16T10:21:18.000Z</time>
      </trkpt>
      <trkpt lat="48.66962" lon="1.84441">
        <ele>180.39999389648</ele>
        <time>2011-04-16T10:21:27.000Z</time>
      </trkpt>
      <trkpt lat="48.66952" lon="1.84441">
        <ele>179</ele>
        <time>2011-04-16T10:21:34.000Z</time>
      </trkpt>
      <trkpt lat="48.66943" lon="1.8444">
        <ele>177</ele>
        <time>2011-04-16T10:21:41.000Z</time>
      </trkpt>
      <trkpt lat="48.66931" lon="1.84443">
        <ele>180.39999389648</ele>
        <time>2011-04-16T10:21:49.000Z</time>
      </trkpt>
      <trkpt lat="48.66922" lon="1.84443">
        <ele>179.39999389648</ele>
        <time>2011-04-16T10:21:56.000Z</time>
      </trkpt>
      <trkpt lat="48.66914" lon="1.84443">
        <ele>181.39999389648</ele>
        <time>2011-04-16T10:22:02.000Z</time>
      </trkpt>
      <trkpt lat="48.66913" lon="1.84442">
        <ele>181.39999389648</ele>
        <time>2011-04-16T10:22:03.000Z</time>
      </trkpt>
      <trkpt lat="48.66905" lon="1.84441">
        <ele>179.39999389648</ele>
        <time>2011-04-16T10:22:09.000Z</time>
      </trkpt>
      <trkpt lat="48.66897" lon="1.8444">
        <ele>180.80000305176</ele>
        <time>2011-04-16T10:22:14.000Z</time>
      </trkpt>
      <trkpt lat="48.66892" lon="1.84434">
        <ele>178.39999389648</ele>
        <time>2011-04-16T10:22:19.000Z</time>
      </trkpt>
      <trkpt lat="48.6689" lon="1.84431">
        <ele>178.39999389648</ele>
        <time>2011-04-16T10:22:21.000Z</time>
      </trkpt>
      <trkpt lat="48.66881" lon="1.84425">
        <ele>178.39999389648</ele>
        <time>2011-04-16T10:22:28.000Z</time>
      </trkpt>
      <trkpt lat="48.66877" lon="1.84421">
        <ele>177</ele>
        <time>2011-04-16T10:22:31.000Z</time>
      </trkpt>
      <trkpt lat="48.66875" lon="1.84419">
        <ele>176.60000610352</ele>
        <time>2011-04-16T10:22:33.000Z</time>
      </trkpt>
      <trkpt lat="48.66871" lon="1.84416">
        <ele>175.60000610352</ele>
        <time>2011-04-16T10:22:36.000Z</time>
      </trkpt>
      <trkpt lat="48.66861" lon="1.8442">
        <ele>176.60000610352</ele>
        <time>2011-04-16T10:22:42.000Z</time>
      </trkpt>
      <trkpt lat="48.66855" lon="1.84417">
        <ele>174.19999694824</ele>
        <time>2011-04-16T10:22:47.000Z</time>
      </trkpt>
      <trkpt lat="48.66852" lon="1.84418">
        <ele>177</ele>
        <time>2011-04-16T10:22:53.000Z</time>
      </trkpt>
      <trkpt lat="48.66849" lon="1.84418">
        <ele>177</ele>
        <time>2011-04-16T10:22:58.000Z</time>
      </trkpt>
      <trkpt lat="48.66847" lon="1.84418">
        <ele>176.60000610352</ele>
        <time>2011-04-16T10:22:59.000Z</time>
      </trkpt>
      <trkpt lat="48.66842" lon="1.84413">
        <ele>175</ele>
        <time>2011-04-16T10:23:06.000Z</time>
      </trkpt>
      <trkpt lat="48.6684" lon="1.84412">
        <ele>176</ele>
        <time>2011-04-16T10:23:10.000Z</time>
      </trkpt>
      <trkpt lat="48.66835" lon="1.84414">
        <ele>174.60000610352</ele>
        <time>2011-04-16T10:23:14.000Z</time>
      </trkpt>
      <trkpt lat="48.66827" lon="1.84417">
        <ele>174.19999694824</ele>
        <time>2011-04-16T10:23:20.000Z</time>
      </trkpt>
      <trkpt lat="48.6682" lon="1.84423">
        <ele>177.60000610352</ele>
        <time>2011-04-16T10:23:25.000Z</time>
      </trkpt>
      <trkpt lat="48.66818" lon="1.84425">
        <ele>178.39999389648</ele>
        <time>2011-04-16T10:23:26.000Z</time>
      </trkpt>
      <trkpt lat="48.66814" lon="1.8443">
        <ele>179.39999389648</ele>
        <time>2011-04-16T10:23:31.000Z</time>
      </trkpt>
      <trkpt lat="48.66811" lon="1.84436">
        <ele>174.60000610352</ele>
        <time>2011-04-16T10:23:37.000Z</time>
      </trkpt>
      <trkpt lat="48.66808" lon="1.84433">
        <ele>176</ele>
        <time>2011-04-16T10:23:42.000Z</time>
      </trkpt>
      <trkpt lat="48.66807" lon="1.84435">
        <ele>175</ele>
        <time>2011-04-16T10:23:47.000Z</time>
      </trkpt>
      <trkpt lat="48.66805" lon="1.84438">
        <ele>173.60000610352</ele>
        <time>2011-04-16T10:23:52.000Z</time>
      </trkpt>
      <trkpt lat="48.66804" lon="1.8444">
        <ele>173.60000610352</ele>
        <time>2011-04-16T10:23:57.000Z</time>
      </trkpt>
      <trkpt lat="48.66803" lon="1.84439">
        <ele>173.60000610352</ele>
        <time>2011-04-16T10:23:59.000Z</time>
      </trkpt>
      <trkpt lat="48.66793" lon="1.84485">
        <ele>176</ele>
        <time>2011-04-16T10:24:54.000Z</time>
      </trkpt>
      <trkpt lat="48.66792" lon="1.84485">
        <ele>177</ele>
        <time>2011-04-16T10:24:56.000Z</time>
      </trkpt>
      <trkpt lat="48.66774" lon="1.84509">
        <ele>176.60000610352</ele>
        <time>2011-04-16T10:25:28.000Z</time>
      </trkpt>
      <trkpt lat="48.66774" lon="1.84516">
        <ele>176</ele>
        <time>2011-04-16T10:25:32.000Z</time>
      </trkpt>
      <trkpt lat="48.66776" lon="1.84527">
        <ele>175.60000610352</ele>
        <time>2011-04-16T10:25:38.000Z</time>
      </trkpt>
      <trkpt lat="48.66776" lon="1.84529">
        <ele>175.60000610352</ele>
        <time>2011-04-16T10:25:39.000Z</time>
      </trkpt>
      <trkpt lat="48.66776" lon="1.84533">
        <ele>175</ele>
        <time>2011-04-16T10:25:41.000Z</time>
      </trkpt>
      <trkpt lat="48.66776" lon="1.84543">
        <ele>174.60000610352</ele>
        <time>2011-04-16T10:25:47.000Z</time>
      </trkpt>
      <trkpt lat="48.66777" lon="1.84551">
        <ele>172.60000610352</ele>
        <time>2011-04-16T10:25:52.000Z</time>
      </trkpt>
      <trkpt lat="48.66776" lon="1.84557">
        <ele>172.60000610352</ele>
        <time>2011-04-16T10:25:55.000Z</time>
      </trkpt>
      <trkpt lat="48.66776" lon="1.84563">
        <ele>173.19999694824</ele>
        <time>2011-04-16T10:25:58.000Z</time>
      </trkpt>
      <trkpt lat="48.66773" lon="1.84577">
        <ele>171.19999694824</ele>
        <time>2011-04-16T10:26:05.000Z</time>
      </trkpt>
      <trkpt lat="48.66774" lon="1.84594">
        <ele>169.80000305176</ele>
        <time>2011-04-16T10:26:14.000Z</time>
      </trkpt>
      <trkpt lat="48.66774" lon="1.8461">
        <ele>170.80000305176</ele>
        <time>2011-04-16T10:26:22.000Z</time>
      </trkpt>
      <trkpt lat="48.66772" lon="1.84624">
        <ele>168.80000305176</ele>
        <time>2011-04-16T10:26:30.000Z</time>
      </trkpt>
      <trkpt lat="48.66771" lon="1.8463">
        <ele>168.80000305176</ele>
        <time>2011-04-16T10:26:33.000Z</time>
      </trkpt>
      <trkpt lat="48.66771" lon="1.84641">
        <ele>166</ele>
        <time>2011-04-16T10:26:39.000Z</time>
      </trkpt>
      <trkpt lat="48.66772" lon="1.84652">
        <ele>164.60000610352</ele>
        <time>2011-04-16T10:26:45.000Z</time>
      </trkpt>
      <trkpt lat="48.66772" lon="1.84654">
        <ele>164.60000610352</ele>
        <time>2011-04-16T10:26:46.000Z</time>
      </trkpt>
      <trkpt lat="48.66771" lon="1.8467">
        <ele>163</ele>
        <time>2011-04-16T10:26:55.000Z</time>
      </trkpt>
      <trkpt lat="48.66763" lon="1.84677">
        <ele>163.60000610352</ele>
        <time>2011-04-16T10:27:00.000Z</time>
      </trkpt>
      <trkpt lat="48.66754" lon="1.84673">
        <ele>168.80000305176</ele>
        <time>2011-04-16T10:27:06.000Z</time>
      </trkpt>
      <trkpt lat="48.66746" lon="1.84665">
        <ele>169.39999389648</ele>
        <time>2011-04-16T10:27:14.000Z</time>
      </trkpt>
      <trkpt lat="48.66738" lon="1.84662">
        <ele>170.80000305176</ele>
        <time>2011-04-16T10:27:20.000Z</time>
      </trkpt>
      <trkpt lat="48.66726" lon="1.84661">
        <ele>172.60000610352</ele>
        <time>2011-04-16T10:27:28.000Z</time>
      </trkpt>
      <trkpt lat="48.66718" lon="1.84656">
        <ele>168.80000305176</ele>
        <time>2011-04-16T10:27:35.000Z</time>
      </trkpt>
      <trkpt lat="48.66715" lon="1.84656">
        <ele>167.39999389648</ele>
        <time>2011-04-16T10:27:38.000Z</time>
      </trkpt>
      <trkpt lat="48.66708" lon="1.84654">
        <ele>166</ele>
        <time>2011-04-16T10:27:43.000Z</time>
      </trkpt>
      <trkpt lat="48.66702" lon="1.84654">
        <ele>163.60000610352</ele>
        <time>2011-04-16T10:27:48.000Z</time>
      </trkpt>
      <trkpt lat="48.66698" lon="1.84654">
        <ele>162.60000610352</ele>
        <time>2011-04-16T10:27:51.000Z</time>
      </trkpt>
      <trkpt lat="48.66687" lon="1.84647">
        <ele>164.60000610352</ele>
        <time>2011-04-16T10:28:00.000Z</time>
      </trkpt>
      <trkpt lat="48.66682" lon="1.84642">
        <ele>163</ele>
        <time>2011-04-16T10:28:05.000Z</time>
      </trkpt>
      <trkpt lat="48.66679" lon="1.84639">
        <ele>162.19999694824</ele>
        <time>2011-04-16T10:28:08.000Z</time>
      </trkpt>
      <trkpt lat="48.66669" lon="1.8463">
        <ele>163</ele>
        <time>2011-04-16T10:28:17.000Z</time>
      </trkpt>
      <trkpt lat="48.66665" lon="1.84627">
        <ele>165.39999389648</ele>
        <time>2011-04-16T10:28:23.000Z</time>
      </trkpt>
      <trkpt lat="48.66661" lon="1.84616">
        <ele>168.80000305176</ele>
        <time>2011-04-16T10:28:33.000Z</time>
      </trkpt>
      <trkpt lat="48.66657" lon="1.84607">
        <ele>170.19999694824</ele>
        <time>2011-04-16T10:28:38.000Z</time>
      </trkpt>
      <trkpt lat="48.66651" lon="1.846">
        <ele>170.80000305176</ele>
        <time>2011-04-16T10:28:44.000Z</time>
      </trkpt>
      <trkpt lat="48.66646" lon="1.84597">
        <ele>172.60000610352</ele>
        <time>2011-04-16T10:28:48.000Z</time>
      </trkpt>
      <trkpt lat="48.66642" lon="1.84595">
        <ele>173.60000610352</ele>
        <time>2011-04-16T10:28:51.000Z</time>
      </trkpt>
      <trkpt lat="48.66635" lon="1.84589">
        <ele>175</ele>
        <time>2011-04-16T10:28:56.000Z</time>
      </trkpt>
      <trkpt lat="48.66626" lon="1.84584">
        <ele>175</ele>
        <time>2011-04-16T10:29:03.000Z</time>
      </trkpt>
      <trkpt lat="48.66624" lon="1.84583">
        <ele>175.60000610352</ele>
        <time>2011-04-16T10:29:05.000Z</time>
      </trkpt>
      <trkpt lat="48.66619" lon="1.84574">
        <ele>172.60000610352</ele>
        <time>2011-04-16T10:29:10.000Z</time>
      </trkpt>
      <trkpt lat="48.66615" lon="1.84567">
        <ele>173.60000610352</ele>
        <time>2011-04-16T10:29:14.000Z</time>
      </trkpt>
      <trkpt lat="48.66611" lon="1.84556">
        <ele>171.19999694824</ele>
        <time>2011-04-16T10:29:20.000Z</time>
      </trkpt>
      <trkpt lat="48.66608" lon="1.8455">
        <ele>171.19999694824</ele>
        <time>2011-04-16T10:29:24.000Z</time>
      </trkpt>
      <trkpt lat="48.66606" lon="1.84544">
        <ele>168.80000305176</ele>
        <time>2011-04-16T10:29:28.000Z</time>
      </trkpt>
      <trkpt lat="48.666" lon="1.84533">
        <ele>169.80000305176</ele>
        <time>2011-04-16T10:29:37.000Z</time>
      </trkpt>
      <trkpt lat="48.666" lon="1.84533">
        <ele>169.80000305176</ele>
        <time>2011-04-16T10:29:38.000Z</time>
      </trkpt>
      <trkpt lat="48.66597" lon="1.84529">
        <ele>171.19999694824</ele>
        <time>2011-04-16T10:29:42.000Z</time>
      </trkpt>
      <trkpt lat="48.66589" lon="1.84531">
        <ele>166.39999389648</ele>
        <time>2011-04-16T10:29:49.000Z</time>
      </trkpt>
      <trkpt lat="48.66588" lon="1.84532">
        <ele>166</ele>
        <time>2011-04-16T10:29:50.000Z</time>
      </trkpt>
      <trkpt lat="48.66582" lon="1.84538">
        <ele>163.60000610352</ele>
        <time>2011-04-16T10:29:58.000Z</time>
      </trkpt>
      <trkpt lat="48.66581" lon="1.84539">
        <ele>164</ele>
        <time>2011-04-16T10:30:01.000Z</time>
      </trkpt>
      <trkpt lat="48.66572" lon="1.8456">
        <ele>188</ele>
        <time>2011-04-16T10:30:59.000Z</time>
      </trkpt>
      <trkpt lat="48.66571" lon="1.8456">
        <ele>189.60000610352</ele>
        <time>2011-04-16T10:31:02.000Z</time>
      </trkpt>
      <trkpt lat="48.66611" lon="1.84537">
        <ele>212.60000610352</ele>
        <time>2011-04-16T11:13:29.000Z</time>
      </trkpt>
      <trkpt lat="48.66608" lon="1.84546">
        <ele>182.80000305176</ele>
        <time>2011-04-16T11:13:31.000Z</time>
      </trkpt>
      <trkpt lat="48.66608" lon="1.84546">
        <ele>182.80000305176</ele>
        <time>2011-04-16T11:13:32.000Z</time>
      </trkpt>
      <trkpt lat="48.66608" lon="1.84548">
        <ele>181.39999389648</ele>
        <time>2011-04-16T11:13:34.000Z</time>
      </trkpt>
      <trkpt lat="48.66617" lon="1.84551">
        <ele>170.19999694824</ele>
        <time>2011-04-16T11:13:39.000Z</time>
      </trkpt>
      <trkpt lat="48.66621" lon="1.84553">
        <ele>168.39999389648</ele>
        <time>2011-04-16T11:13:42.000Z</time>
      </trkpt>
      <trkpt lat="48.66622" lon="1.84555">
        <ele>167.39999389648</ele>
        <time>2011-04-16T11:13:44.000Z</time>
      </trkpt>
      <trkpt lat="48.66624" lon="1.8456">
        <ele>166.39999389648</ele>
        <time>2011-04-16T11:13:49.000Z</time>
      </trkpt>
      <trkpt lat="48.66629" lon="1.84566">
        <ele>168.39999389648</ele>
        <time>2011-04-16T11:13:55.000Z</time>
      </trkpt>
      <trkpt lat="48.66633" lon="1.84571">
        <ele>166.39999389648</ele>
        <time>2011-04-16T11:14:00.000Z</time>
      </trkpt>
      <trkpt lat="48.66639" lon="1.84578">
        <ele>168.39999389648</ele>
        <time>2011-04-16T11:14:06.000Z</time>
      </trkpt>
      <trkpt lat="48.6664" lon="1.84579">
        <ele>168.80000305176</ele>
        <time>2011-04-16T11:14:07.000Z</time>
      </trkpt>
      <trkpt lat="48.66646" lon="1.84587">
        <ele>167.80000305176</ele>
        <time>2011-04-16T11:14:13.000Z</time>
      </trkpt>
      <trkpt lat="48.66654" lon="1.84596">
        <ele>169.80000305176</ele>
        <time>2011-04-16T11:14:20.000Z</time>
      </trkpt>
      <trkpt lat="48.66661" lon="1.84603">
        <ele>169.39999389648</ele>
        <time>2011-04-16T11:14:25.000Z</time>
      </trkpt>
      <trkpt lat="48.66662" lon="1.84606">
        <ele>168.80000305176</ele>
        <time>2011-04-16T11:14:27.000Z</time>
      </trkpt>
      <trkpt lat="48.66665" lon="1.84619">
        <ele>167.80000305176</ele>
        <time>2011-04-16T11:14:33.000Z</time>
      </trkpt>
      <trkpt lat="48.66669" lon="1.84625">
        <ele>164.60000610352</ele>
        <time>2011-04-16T11:14:37.000Z</time>
      </trkpt>
      <trkpt lat="48.66674" lon="1.8463">
        <ele>164.60000610352</ele>
        <time>2011-04-16T11:14:42.000Z</time>
      </trkpt>
      <trkpt lat="48.66679" lon="1.84635">
        <ele>164</ele>
        <time>2011-04-16T11:14:47.000Z</time>
      </trkpt>
      <trkpt lat="48.66681" lon="1.84637">
        <ele>164</ele>
        <time>2011-04-16T11:14:49.000Z</time>
      </trkpt>
      <trkpt lat="48.66686" lon="1.84641">
        <ele>164.60000610352</ele>
        <time>2011-04-16T11:14:55.000Z</time>
      </trkpt>
      <trkpt lat="48.66691" lon="1.84645">
        <ele>165.39999389648</ele>
        <time>2011-04-16T11:14:59.000Z</time>
      </trkpt>
      <trkpt lat="48.66695" lon="1.84648">
        <ele>164.60000610352</ele>
        <time>2011-04-16T11:15:02.000Z</time>
      </trkpt>
      <trkpt lat="48.66699" lon="1.84648">
        <ele>164</ele>
        <time>2011-04-16T11:15:06.000Z</time>
      </trkpt>
      <trkpt lat="48.66705" lon="1.84649">
        <ele>164</ele>
        <time>2011-04-16T11:15:11.000Z</time>
      </trkpt>
      <trkpt lat="48.66714" lon="1.8465">
        <ele>164</ele>
        <time>2011-04-16T11:15:16.000Z</time>
      </trkpt>
      <trkpt lat="48.66718" lon="1.84649">
        <ele>163</ele>
        <time>2011-04-16T11:15:19.000Z</time>
      </trkpt>
      <trkpt lat="48.6673" lon="1.84651">
        <ele>162.19999694824</ele>
        <time>2011-04-16T11:15:27.000Z</time>
      </trkpt>
      <trkpt lat="48.66731" lon="1.84653">
        <ele>162.60000610352</ele>
        <time>2011-04-16T11:15:30.000Z</time>
      </trkpt>
      <trkpt lat="48.66738" lon="1.84656">
        <ele>163.60000610352</ele>
        <time>2011-04-16T11:15:37.000Z</time>
      </trkpt>
      <trkpt lat="48.66742" lon="1.84657">
        <ele>165</ele>
        <time>2011-04-16T11:15:42.000Z</time>
      </trkpt>
      <trkpt lat="48.66742" lon="1.84658">
        <ele>164.60000610352</ele>
        <time>2011-04-16T11:15:43.000Z</time>
      </trkpt>
      <trkpt lat="48.66742" lon="1.84669">
        <ele>169.80000305176</ele>
        <time>2011-04-16T11:16:02.000Z</time>
      </trkpt>
      <trkpt lat="48.66741" lon="1.84672">
        <ele>172.60000610352</ele>
        <time>2011-04-16T11:16:04.000Z</time>
      </trkpt>
      <trkpt lat="48.66741" lon="1.84673">
        <ele>173.60000610352</ele>
        <time>2011-04-16T11:16:06.000Z</time>
      </trkpt>
      <trkpt lat="48.66746" lon="1.84673">
        <ele>168.80000305176</ele>
        <time>2011-04-16T11:16:25.000Z</time>
      </trkpt>
      <trkpt lat="48.66753" lon="1.84675">
        <ele>166</ele>
        <time>2011-04-16T11:16:29.000Z</time>
      </trkpt>
      <trkpt lat="48.66757" lon="1.84678">
        <ele>165.39999389648</ele>
        <time>2011-04-16T11:16:34.000Z</time>
      </trkpt>
      <trkpt lat="48.66758" lon="1.84679">
        <ele>167.39999389648</ele>
        <time>2011-04-16T11:16:36.000Z</time>
      </trkpt>
      <trkpt lat="48.66765" lon="1.84681">
        <ele>166</ele>
        <time>2011-04-16T11:16:43.000Z</time>
      </trkpt>
      <trkpt lat="48.66767" lon="1.84688">
        <ele>168.80000305176</ele>
        <time>2011-04-16T11:16:49.000Z</time>
      </trkpt>
      <trkpt lat="48.66768" lon="1.84698">
        <ele>171.80000305176</ele>
        <time>2011-04-16T11:16:55.000Z</time>
      </trkpt>
      <trkpt lat="48.66768" lon="1.84701">
        <ele>171.80000305176</ele>
        <time>2011-04-16T11:16:57.000Z</time>
      </trkpt>
      <trkpt lat="48.66765" lon="1.8471">
        <ele>171.80000305176</ele>
        <time>2011-04-16T11:17:02.000Z</time>
      </trkpt>
      <trkpt lat="48.66766" lon="1.84715">
        <ele>170.19999694824</ele>
        <time>2011-04-16T11:17:09.000Z</time>
      </trkpt>
      <trkpt lat="48.6676" lon="1.84759">
        <ele>149.60000610352</ele>
        <time>2011-04-16T11:18:00.000Z</time>
      </trkpt>
      <trkpt lat="48.66761" lon="1.84769">
        <ele>153.39999389648</ele>
        <time>2011-04-16T11:18:06.000Z</time>
      </trkpt>
      <trkpt lat="48.66764" lon="1.8477">
        <ele>151</ele>
        <time>2011-04-16T11:18:10.000Z</time>
      </trkpt>
      <trkpt lat="48.66771" lon="1.84785">
        <ele>150.60000610352</ele>
        <time>2011-04-16T11:18:14.000Z</time>
      </trkpt>
      <trkpt lat="48.66783" lon="1.84802">
        <ele>151.60000610352</ele>
        <time>2011-04-16T11:18:18.000Z</time>
      </trkpt>
      <trkpt lat="48.66785" lon="1.84807">
        <ele>151.60000610352</ele>
        <time>2011-04-16T11:18:19.000Z</time>
      </trkpt>
      <trkpt lat="48.66768" lon="1.84816">
        <ele>162.19999694824</ele>
        <time>2011-04-16T11:18:21.000Z</time>
      </trkpt>
      <trkpt lat="48.66762" lon="1.84816">
        <ele>163.60000610352</ele>
        <time>2011-04-16T11:18:26.000Z</time>
      </trkpt>
      <trkpt lat="48.66759" lon="1.84856">
        <ele>164</ele>
        <time>2011-04-16T11:19:01.000Z</time>
      </trkpt>
      <trkpt lat="48.66758" lon="1.84866">
        <ele>163.60000610352</ele>
        <time>2011-04-16T11:19:05.000Z</time>
      </trkpt>
      <trkpt lat="48.66755" lon="1.8488">
        <ele>166.39999389648</ele>
        <time>2011-04-16T11:19:13.000Z</time>
      </trkpt>
      <trkpt lat="48.66755" lon="1.84889">
        <ele>167.39999389648</ele>
        <time>2011-04-16T11:19:18.000Z</time>
      </trkpt>
      <trkpt lat="48.66749" lon="1.8489">
        <ele>166</ele>
        <time>2011-04-16T11:19:24.000Z</time>
      </trkpt>
      <trkpt lat="48.66742" lon="1.84889">
        <ele>165.39999389648</ele>
        <time>2011-04-16T11:19:29.000Z</time>
      </trkpt>
      <trkpt lat="48.66737" lon="1.8489">
        <ele>166</ele>
        <time>2011-04-16T11:19:33.000Z</time>
      </trkpt>
      <trkpt lat="48.66731" lon="1.84901">
        <ele>171.19999694824</ele>
        <time>2011-04-16T11:19:39.000Z</time>
      </trkpt>
      <trkpt lat="48.66729" lon="1.84902">
        <ele>171.19999694824</ele>
        <time>2011-04-16T11:19:43.000Z</time>
      </trkpt>
      <trkpt lat="48.66727" lon="1.84902">
        <ele>170.80000305176</ele>
        <time>2011-04-16T11:19:47.000Z</time>
      </trkpt>
      <trkpt lat="48.66728" lon="1.8491">
        <ele>170.80000305176</ele>
        <time>2011-04-16T11:19:53.000Z</time>
      </trkpt>
      <trkpt lat="48.66729" lon="1.84912">
        <ele>167.80000305176</ele>
        <time>2011-04-16T11:19:58.000Z</time>
      </trkpt>
      <trkpt lat="48.66727" lon="1.84921">
        <ele>167.80000305176</ele>
        <time>2011-04-16T11:20:05.000Z</time>
      </trkpt>
      <trkpt lat="48.66721" lon="1.84935">
        <ele>169.80000305176</ele>
        <time>2011-04-16T11:20:10.000Z</time>
      </trkpt>
      <trkpt lat="48.66718" lon="1.84951">
        <ele>174.19999694824</ele>
        <time>2011-04-16T11:20:17.000Z</time>
      </trkpt>
      <trkpt lat="48.66714" lon="1.8496">
        <ele>174.60000610352</ele>
        <time>2011-04-16T11:20:24.000Z</time>
      </trkpt>
      <trkpt lat="48.66713" lon="1.84962">
        <ele>176</ele>
        <time>2011-04-16T11:20:26.000Z</time>
      </trkpt>
      <trkpt lat="48.66715" lon="1.84973">
        <ele>179</ele>
        <time>2011-04-16T11:20:33.000Z</time>
      </trkpt>
      <trkpt lat="48.66714" lon="1.84976">
        <ele>180</ele>
        <time>2011-04-16T11:20:34.000Z</time>
      </trkpt>
      <trkpt lat="48.66715" lon="1.84989">
        <ele>178</ele>
        <time>2011-04-16T11:20:41.000Z</time>
      </trkpt>
      <trkpt lat="48.66715" lon="1.84991">
        <ele>177.60000610352</ele>
        <time>2011-04-16T11:20:42.000Z</time>
      </trkpt>
      <trkpt lat="48.66717" lon="1.84996">
        <ele>177.60000610352</ele>
        <time>2011-04-16T11:20:47.000Z</time>
      </trkpt>
      <trkpt lat="48.66718" lon="1.85005">
        <ele>175.60000610352</ele>
        <time>2011-04-16T11:20:53.000Z</time>
      </trkpt>
      <trkpt lat="48.6672" lon="1.85013">
        <ele>175</ele>
        <time>2011-04-16T11:20:58.000Z</time>
      </trkpt>
      <trkpt lat="48.66719" lon="1.85024">
        <ele>174.19999694824</ele>
        <time>2011-04-16T11:21:04.000Z</time>
      </trkpt>
      <trkpt lat="48.66719" lon="1.85027">
        <ele>175</ele>
        <time>2011-04-16T11:21:05.000Z</time>
      </trkpt>
      <trkpt lat="48.6672" lon="1.85034">
        <ele>173.19999694824</ele>
        <time>2011-04-16T11:21:11.000Z</time>
      </trkpt>
      <trkpt lat="48.66713" lon="1.85043">
        <ele>171.19999694824</ele>
        <time>2011-04-16T11:21:19.000Z</time>
      </trkpt>
      <trkpt lat="48.6671" lon="1.85049">
        <ele>170.80000305176</ele>
        <time>2011-04-16T11:21:23.000Z</time>
      </trkpt>
      <trkpt lat="48.66707" lon="1.85059">
        <ele>171.19999694824</ele>
        <time>2011-04-16T11:21:29.000Z</time>
      </trkpt>
      <trkpt lat="48.66705" lon="1.85063">
        <ele>171.80000305176</ele>
        <time>2011-04-16T11:21:32.000Z</time>
      </trkpt>
      <trkpt lat="48.66704" lon="1.85067">
        <ele>171.80000305176</ele>
        <time>2011-04-16T11:21:35.000Z</time>
      </trkpt>
      <trkpt lat="48.66702" lon="1.8507">
        <ele>170.19999694824</ele>
        <time>2011-04-16T11:21:40.000Z</time>
      </trkpt>
      <trkpt lat="48.66702" lon="1.85076">
        <ele>171.80000305176</ele>
        <time>2011-04-16T11:21:43.000Z</time>
      </trkpt>
      <trkpt lat="48.66701" lon="1.85087">
        <ele>173.19999694824</ele>
        <time>2011-04-16T11:21:49.000Z</time>
      </trkpt>
      <trkpt lat="48.667" lon="1.85086">
        <ele>172.60000610352</ele>
        <time>2011-04-16T11:21:51.000Z</time>
      </trkpt>
      <trkpt lat="48.66701" lon="1.85086">
        <ele>173.60000610352</ele>
        <time>2011-04-16T11:21:53.000Z</time>
      </trkpt>
      <trkpt lat="48.66701" lon="1.85095">
        <ele>173.60000610352</ele>
        <time>2011-04-16T11:22:00.000Z</time>
      </trkpt>
      <trkpt lat="48.66701" lon="1.85105">
        <ele>173.60000610352</ele>
        <time>2011-04-16T11:22:04.000Z</time>
      </trkpt>
      <trkpt lat="48.66701" lon="1.85108">
        <ele>174.19999694824</ele>
        <time>2011-04-16T11:22:05.000Z</time>
      </trkpt>
      <trkpt lat="48.66701" lon="1.85111">
        <ele>174.19999694824</ele>
        <time>2011-04-16T11:22:07.000Z</time>
      </trkpt>
      <trkpt lat="48.66698" lon="1.8512">
        <ele>174.60000610352</ele>
        <time>2011-04-16T11:22:12.000Z</time>
      </trkpt>
      <trkpt lat="48.66691" lon="1.8513">
        <ele>174.19999694824</ele>
        <time>2011-04-16T11:22:19.000Z</time>
      </trkpt>
      <trkpt lat="48.66687" lon="1.85133">
        <ele>173.19999694824</ele>
        <time>2011-04-16T11:22:23.000Z</time>
      </trkpt>
      <trkpt lat="48.6668" lon="1.85138">
        <ele>173.60000610352</ele>
        <time>2011-04-16T11:22:29.000Z</time>
      </trkpt>
      <trkpt lat="48.66677" lon="1.8514">
        <ele>172.60000610352</ele>
        <time>2011-04-16T11:22:33.000Z</time>
      </trkpt>
      <trkpt lat="48.66675" lon="1.8514">
        <ele>172.19999694824</ele>
        <time>2011-04-16T11:22:35.000Z</time>
      </trkpt>
      <trkpt lat="48.66666" lon="1.85138">
        <ele>171.19999694824</ele>
        <time>2011-04-16T11:22:43.000Z</time>
      </trkpt>
      <trkpt lat="48.66663" lon="1.85136">
        <ele>170.19999694824</ele>
        <time>2011-04-16T11:22:45.000Z</time>
      </trkpt>
      <trkpt lat="48.66655" lon="1.85134">
        <ele>167.39999389648</ele>
        <time>2011-04-16T11:22:52.000Z</time>
      </trkpt>
      <trkpt lat="48.6665" lon="1.85134">
        <ele>167</ele>
        <time>2011-04-16T11:22:57.000Z</time>
      </trkpt>
      <trkpt lat="48.66647" lon="1.85134">
        <ele>167.39999389648</ele>
        <time>2011-04-16T11:23:01.000Z</time>
      </trkpt>
      <trkpt lat="48.6664" lon="1.85137">
        <ele>168.80000305176</ele>
        <time>2011-04-16T11:23:07.000Z</time>
      </trkpt>
      <trkpt lat="48.66639" lon="1.85139">
        <ele>169.39999389648</ele>
        <time>2011-04-16T11:23:09.000Z</time>
      </trkpt>
      <trkpt lat="48.66634" lon="1.85145">
        <ele>169.80000305176</ele>
        <time>2011-04-16T11:23:15.000Z</time>
      </trkpt>
      <trkpt lat="48.66632" lon="1.85148">
        <ele>170.19999694824</ele>
        <time>2011-04-16T11:23:17.000Z</time>
      </trkpt>
      <trkpt lat="48.66626" lon="1.85158">
        <ele>172.19999694824</ele>
        <time>2011-04-16T11:23:25.000Z</time>
      </trkpt>
      <trkpt lat="48.66621" lon="1.85164">
        <ele>172.60000610352</ele>
        <time>2011-04-16T11:23:31.000Z</time>
      </trkpt>
      <trkpt lat="48.66614" lon="1.85168">
        <ele>172.60000610352</ele>
        <time>2011-04-16T11:23:37.000Z</time>
      </trkpt>
      <trkpt lat="48.66614" lon="1.85169">
        <ele>172.60000610352</ele>
        <time>2011-04-16T11:23:38.000Z</time>
      </trkpt>
      <trkpt lat="48.66608" lon="1.85173">
        <ele>171.19999694824</ele>
        <time>2011-04-16T11:23:44.000Z</time>
      </trkpt>
      <trkpt lat="48.66602" lon="1.8518">
        <ele>172.19999694824</ele>
        <time>2011-04-16T11:23:51.000Z</time>
      </trkpt>
      <trkpt lat="48.66598" lon="1.85187">
        <ele>172.60000610352</ele>
        <time>2011-04-16T11:23:58.000Z</time>
      </trkpt>
      <trkpt lat="48.66594" lon="1.85195">
        <ele>173.19999694824</ele>
        <time>2011-04-16T11:24:04.000Z</time>
      </trkpt>
      <trkpt lat="48.66591" lon="1.85203">
        <ele>174.60000610352</ele>
        <time>2011-04-16T11:24:09.000Z</time>
      </trkpt>
      <trkpt lat="48.6659" lon="1.85204">
        <ele>175</ele>
        <time>2011-04-16T11:24:10.000Z</time>
      </trkpt>
      <trkpt lat="48.66586" lon="1.85209">
        <ele>175.60000610352</ele>
        <time>2011-04-16T11:24:14.000Z</time>
      </trkpt>
      <trkpt lat="48.66577" lon="1.85215">
        <ele>174.60000610352</ele>
        <time>2011-04-16T11:24:21.000Z</time>
      </trkpt>
      <trkpt lat="48.66573" lon="1.85212">
        <ele>173.60000610352</ele>
        <time>2011-04-16T11:24:27.000Z</time>
      </trkpt>
      <trkpt lat="48.66565" lon="1.85206">
        <ele>173.19999694824</ele>
        <time>2011-04-16T11:24:34.000Z</time>
      </trkpt>
      <trkpt lat="48.66562" lon="1.85203">
        <ele>172.60000610352</ele>
        <time>2011-04-16T11:24:39.000Z</time>
      </trkpt>
      <trkpt lat="48.66533" lon="1.85218">
        <ele>176</ele>
        <time>2011-04-16T11:26:19.000Z</time>
      </trkpt>
      <trkpt lat="48.6653" lon="1.85227">
        <ele>178</ele>
        <time>2011-04-16T11:26:24.000Z</time>
      </trkpt>
      <trkpt lat="48.66529" lon="1.85228">
        <ele>178</ele>
        <time>2011-04-16T11:26:25.000Z</time>
      </trkpt>
      <trkpt lat="48.66527" lon="1.85231">
        <ele>178.39999389648</ele>
        <time>2011-04-16T11:26:28.000Z</time>
      </trkpt>
      <trkpt lat="48.66524" lon="1.85236">
        <ele>180</ele>
        <time>2011-04-16T11:26:32.000Z</time>
      </trkpt>
      <trkpt lat="48.66516" lon="1.85239">
        <ele>178</ele>
        <time>2011-04-16T11:26:39.000Z</time>
      </trkpt>
      <trkpt lat="48.66509" lon="1.85243">
        <ele>175</ele>
        <time>2011-04-16T11:26:46.000Z</time>
      </trkpt>
      <trkpt lat="48.66509" lon="1.85245">
        <ele>175</ele>
        <time>2011-04-16T11:26:47.000Z</time>
      </trkpt>
      <trkpt lat="48.66505" lon="1.85252">
        <ele>177.60000610352</ele>
        <time>2011-04-16T11:26:51.000Z</time>
      </trkpt>
      <trkpt lat="48.66503" lon="1.85256">
        <ele>180.39999389648</ele>
        <time>2011-04-16T11:26:56.000Z</time>
      </trkpt>
      <trkpt lat="48.66503" lon="1.85257">
        <ele>180.39999389648</ele>
        <time>2011-04-16T11:26:57.000Z</time>
      </trkpt>
      <trkpt lat="48.66501" lon="1.8526">
        <ele>180.39999389648</ele>
        <time>2011-04-16T11:27:00.000Z</time>
      </trkpt>
      <trkpt lat="48.66497" lon="1.85268">
        <ele>180.80000305176</ele>
        <time>2011-04-16T11:27:04.000Z</time>
      </trkpt>
      <trkpt lat="48.66492" lon="1.85278">
        <ele>184.19999694824</ele>
        <time>2011-04-16T11:27:11.000Z</time>
      </trkpt>
      <trkpt lat="48.66489" lon="1.85284">
        <ele>186.60000610352</ele>
        <time>2011-04-16T11:27:17.000Z</time>
      </trkpt>
      <trkpt lat="48.66485" lon="1.85287">
        <ele>184.80000305176</ele>
        <time>2011-04-16T11:27:22.000Z</time>
      </trkpt>
      <trkpt lat="48.6648" lon="1.85284">
        <ele>180.39999389648</ele>
        <time>2011-04-16T11:27:31.000Z</time>
      </trkpt>
      <trkpt lat="48.66477" lon="1.85283">
        <ele>180</ele>
        <time>2011-04-16T11:27:33.000Z</time>
      </trkpt>
      <trkpt lat="48.66474" lon="1.85283">
        <ele>178.39999389648</ele>
        <time>2011-04-16T11:27:36.000Z</time>
      </trkpt>
      <trkpt lat="48.66466" lon="1.85286">
        <ele>177.60000610352</ele>
        <time>2011-04-16T11:27:43.000Z</time>
      </trkpt>
      <trkpt lat="48.66461" lon="1.85286">
        <ele>177</ele>
        <time>2011-04-16T11:27:49.000Z</time>
      </trkpt>
      <trkpt lat="48.66454" lon="1.85289">
        <ele>177.60000610352</ele>
        <time>2011-04-16T11:27:57.000Z</time>
      </trkpt>
      <trkpt lat="48.66451" lon="1.85285">
        <ele>180</ele>
        <time>2011-04-16T11:28:21.000Z</time>
      </trkpt>
      <trkpt lat="48.66447" lon="1.8529">
        <ele>181.39999389648</ele>
        <time>2011-04-16T11:28:26.000Z</time>
      </trkpt>
      <trkpt lat="48.66444" lon="1.85292">
        <ele>181.39999389648</ele>
        <time>2011-04-16T11:28:30.000Z</time>
      </trkpt>
      <trkpt lat="48.6644" lon="1.85299">
        <ele>183.80000305176</ele>
        <time>2011-04-16T11:28:36.000Z</time>
      </trkpt>
      <trkpt lat="48.66438" lon="1.85302">
        <ele>183.80000305176</ele>
        <time>2011-04-16T11:28:38.000Z</time>
      </trkpt>
      <trkpt lat="48.66435" lon="1.85314">
        <ele>180.39999389648</ele>
        <time>2011-04-16T11:28:46.000Z</time>
      </trkpt>
      <trkpt lat="48.66434" lon="1.85321">
        <ele>178</ele>
        <time>2011-04-16T11:28:50.000Z</time>
      </trkpt>
      <trkpt lat="48.66431" lon="1.85339">
        <ele>178</ele>
        <time>2011-04-16T11:28:59.000Z</time>
      </trkpt>
      <trkpt lat="48.6643" lon="1.85341">
        <ele>179</ele>
        <time>2011-04-16T11:29:00.000Z</time>
      </trkpt>
      <trkpt lat="48.66423" lon="1.85348">
        <ele>177</ele>
        <time>2011-04-16T11:29:08.000Z</time>
      </trkpt>
      <trkpt lat="48.66421" lon="1.85351">
        <ele>177.60000610352</ele>
        <time>2011-04-16T11:29:13.000Z</time>
      </trkpt>
      <trkpt lat="48.6642" lon="1.85355">
        <ele>177.60000610352</ele>
        <time>2011-04-16T11:29:18.000Z</time>
      </trkpt>
      <trkpt lat="48.6642" lon="1.85363">
        <ele>176</ele>
        <time>2011-04-16T11:29:24.000Z</time>
      </trkpt>
      <trkpt lat="48.66423" lon="1.85373">
        <ele>175</ele>
        <time>2011-04-16T11:29:31.000Z</time>
      </trkpt>
      <trkpt lat="48.66427" lon="1.85385">
        <ele>176.60000610352</ele>
        <time>2011-04-16T11:29:38.000Z</time>
      </trkpt>
      <trkpt lat="48.66427" lon="1.8539">
        <ele>176</ele>
        <time>2011-04-16T11:29:41.000Z</time>
      </trkpt>
      <trkpt lat="48.66427" lon="1.85396">
        <ele>176</ele>
        <time>2011-04-16T11:29:44.000Z</time>
      </trkpt>
      <trkpt lat="48.66426" lon="1.85397">
        <ele>176</ele>
        <time>2011-04-16T11:29:47.000Z</time>
      </trkpt>
      <trkpt lat="48.66425" lon="1.85407">
        <ele>176</ele>
        <time>2011-04-16T11:29:54.000Z</time>
      </trkpt>
      <trkpt lat="48.66426" lon="1.85408">
        <ele>177.60000610352</ele>
        <time>2011-04-16T11:29:58.000Z</time>
      </trkpt>
      <trkpt lat="48.66426" lon="1.85416">
        <ele>177.60000610352</ele>
        <time>2011-04-16T11:30:03.000Z</time>
      </trkpt>
      <trkpt lat="48.66426" lon="1.85424">
        <ele>176.60000610352</ele>
        <time>2011-04-16T11:30:07.000Z</time>
      </trkpt>
      <trkpt lat="48.66426" lon="1.85434">
        <ele>175.60000610352</ele>
        <time>2011-04-16T11:30:12.000Z</time>
      </trkpt>
      <trkpt lat="48.66422" lon="1.85446">
        <ele>175</ele>
        <time>2011-04-16T11:30:19.000Z</time>
      </trkpt>
      <trkpt lat="48.66422" lon="1.85452">
        <ele>177</ele>
        <time>2011-04-16T11:30:22.000Z</time>
      </trkpt>
      <trkpt lat="48.66422" lon="1.85462">
        <ele>179.39999389648</ele>
        <time>2011-04-16T11:30:28.000Z</time>
      </trkpt>
      <trkpt lat="48.66422" lon="1.85466">
        <ele>179</ele>
        <time>2011-04-16T11:30:30.000Z</time>
      </trkpt>
      <trkpt lat="48.66419" lon="1.85477">
        <ele>178.39999389648</ele>
        <time>2011-04-16T11:30:37.000Z</time>
      </trkpt>
      <trkpt lat="48.66416" lon="1.85483">
        <ele>178</ele>
        <time>2011-04-16T11:30:41.000Z</time>
      </trkpt>
      <trkpt lat="48.66414" lon="1.85491">
        <ele>178.39999389648</ele>
        <time>2011-04-16T11:30:48.000Z</time>
      </trkpt>
      <trkpt lat="48.66413" lon="1.85493">
        <ele>179</ele>
        <time>2011-04-16T11:30:51.000Z</time>
      </trkpt>
      <trkpt lat="48.66411" lon="1.85495">
        <ele>181.39999389648</ele>
        <time>2011-04-16T11:30:52.000Z</time>
      </trkpt>
      <trkpt lat="48.66408" lon="1.85499">
        <ele>182.39999389648</ele>
        <time>2011-04-16T11:30:55.000Z</time>
      </trkpt>
      <trkpt lat="48.66406" lon="1.8551">
        <ele>181.39999389648</ele>
        <time>2011-04-16T11:31:02.000Z</time>
      </trkpt>
      <trkpt lat="48.66403" lon="1.85512">
        <ele>179</ele>
        <time>2011-04-16T11:31:05.000Z</time>
      </trkpt>
      <trkpt lat="48.66395" lon="1.85521">
        <ele>178</ele>
        <time>2011-04-16T11:31:12.000Z</time>
      </trkpt>
      <trkpt lat="48.66393" lon="1.85522">
        <ele>178</ele>
        <time>2011-04-16T11:31:14.000Z</time>
      </trkpt>
      <trkpt lat="48.66386" lon="1.85525">
        <ele>177.60000610352</ele>
        <time>2011-04-16T11:31:20.000Z</time>
      </trkpt>
      <trkpt lat="48.66381" lon="1.85527">
        <ele>175.60000610352</ele>
        <time>2011-04-16T11:31:25.000Z</time>
      </trkpt>
      <trkpt lat="48.66378" lon="1.85531">
        <ele>175</ele>
        <time>2011-04-16T11:31:28.000Z</time>
      </trkpt>
      <trkpt lat="48.66368" lon="1.8554">
        <ele>174.60000610352</ele>
        <time>2011-04-16T11:31:35.000Z</time>
      </trkpt>
      <trkpt lat="48.66358" lon="1.85548">
        <ele>174.19999694824</ele>
        <time>2011-04-16T11:31:43.000Z</time>
      </trkpt>
      <trkpt lat="48.66347" lon="1.85557">
        <ele>173.60000610352</ele>
        <time>2011-04-16T11:31:51.000Z</time>
      </trkpt>
      <trkpt lat="48.66338" lon="1.85563">
        <ele>173.19999694824</ele>
        <time>2011-04-16T11:32:00.000Z</time>
      </trkpt>
      <trkpt lat="48.66335" lon="1.85566">
        <ele>174.19999694824</ele>
        <time>2011-04-16T11:32:03.000Z</time>
      </trkpt>
      <trkpt lat="48.6633" lon="1.8557">
        <ele>175</ele>
        <time>2011-04-16T11:32:07.000Z</time>
      </trkpt>
      <trkpt lat="48.66325" lon="1.85574">
        <ele>172.60000610352</ele>
        <time>2011-04-16T11:32:14.000Z</time>
      </trkpt>
      <trkpt lat="48.66319" lon="1.85578">
        <ele>174.60000610352</ele>
        <time>2011-04-16T11:32:19.000Z</time>
      </trkpt>
      <trkpt lat="48.66312" lon="1.85581">
        <ele>175.60000610352</ele>
        <time>2011-04-16T11:32:25.000Z</time>
      </trkpt>
      <trkpt lat="48.66308" lon="1.85586">
        <ele>176</ele>
        <time>2011-04-16T11:32:30.000Z</time>
      </trkpt>
      <trkpt lat="48.66305" lon="1.85588">
        <ele>175</ele>
        <time>2011-04-16T11:32:36.000Z</time>
      </trkpt>
      <trkpt lat="48.66294" lon="1.85606">
        <ele>180.80000305176</ele>
        <time>2011-04-16T11:32:59.000Z</time>
      </trkpt>
      <trkpt lat="48.6629" lon="1.85617">
        <ele>183.19999694824</ele>
        <time>2011-04-16T11:33:04.000Z</time>
      </trkpt>
      <trkpt lat="48.66285" lon="1.85625">
        <ele>182.39999389648</ele>
        <time>2011-04-16T11:33:10.000Z</time>
      </trkpt>
      <trkpt lat="48.66283" lon="1.85629">
        <ele>182.80000305176</ele>
        <time>2011-04-16T11:33:13.000Z</time>
      </trkpt>
      <trkpt lat="48.66278" lon="1.85637">
        <ele>181.80000305176</ele>
        <time>2011-04-16T11:33:18.000Z</time>
      </trkpt>
      <trkpt lat="48.66274" lon="1.85644">
        <ele>180.39999389648</ele>
        <time>2011-04-16T11:33:24.000Z</time>
      </trkpt>
      <trkpt lat="48.66269" lon="1.85654">
        <ele>181.39999389648</ele>
        <time>2011-04-16T11:33:29.000Z</time>
      </trkpt>
      <trkpt lat="48.66266" lon="1.8566">
        <ele>181.39999389648</ele>
        <time>2011-04-16T11:33:34.000Z</time>
      </trkpt>
      <trkpt lat="48.66263" lon="1.85668">
        <ele>179</ele>
        <time>2011-04-16T11:33:40.000Z</time>
      </trkpt>
      <trkpt lat="48.6626" lon="1.85675">
        <ele>178</ele>
        <time>2011-04-16T11:33:45.000Z</time>
      </trkpt>
      <trkpt lat="48.66254" lon="1.85685">
        <ele>177.60000610352</ele>
        <time>2011-04-16T11:33:52.000Z</time>
      </trkpt>
      <trkpt lat="48.66251" lon="1.85692">
        <ele>180</ele>
        <time>2011-04-16T11:33:58.000Z</time>
      </trkpt>
      <trkpt lat="48.6625" lon="1.85695">
        <ele>180.80000305176</ele>
        <time>2011-04-16T11:34:03.000Z</time>
      </trkpt>
      <trkpt lat="48.66245" lon="1.85706">
        <ele>178.39999389648</ele>
        <time>2011-04-16T11:34:21.000Z</time>
      </trkpt>
      <trkpt lat="48.66243" lon="1.85709">
        <ele>177.60000610352</ele>
        <time>2011-04-16T11:34:22.000Z</time>
      </trkpt>
      <trkpt lat="48.6624" lon="1.85716">
        <ele>177.60000610352</ele>
        <time>2011-04-16T11:34:28.000Z</time>
      </trkpt>
      <trkpt lat="48.66237" lon="1.85726">
        <ele>178</ele>
        <time>2011-04-16T11:34:39.000Z</time>
      </trkpt>
      <trkpt lat="48.66236" lon="1.85729">
        <ele>178.39999389648</ele>
        <time>2011-04-16T11:34:40.000Z</time>
      </trkpt>
      <trkpt lat="48.66232" lon="1.85739">
        <ele>179.39999389648</ele>
        <time>2011-04-16T11:34:47.000Z</time>
      </trkpt>
      <trkpt lat="48.66231" lon="1.85741">
        <ele>178.39999389648</ele>
        <time>2011-04-16T11:34:49.000Z</time>
      </trkpt>
      <trkpt lat="48.66228" lon="1.85749">
        <ele>179</ele>
        <time>2011-04-16T11:34:55.000Z</time>
      </trkpt>
      <trkpt lat="48.66225" lon="1.85754">
        <ele>179.39999389648</ele>
        <time>2011-04-16T11:34:59.000Z</time>
      </trkpt>
      <trkpt lat="48.66222" lon="1.85756">
        <ele>179</ele>
        <time>2011-04-16T11:35:04.000Z</time>
      </trkpt>
      <trkpt lat="48.66219" lon="1.85764">
        <ele>179.39999389648</ele>
        <time>2011-04-16T11:35:15.000Z</time>
      </trkpt>
      <trkpt lat="48.66214" lon="1.85772">
        <ele>180</ele>
        <time>2011-04-16T11:35:19.000Z</time>
      </trkpt>
      <trkpt lat="48.66209" lon="1.8578">
        <ele>180.39999389648</ele>
        <time>2011-04-16T11:35:25.000Z</time>
      </trkpt>
      <trkpt lat="48.66209" lon="1.8578">
        <ele>180.39999389648</ele>
        <time>2011-04-16T11:35:26.000Z</time>
      </trkpt>
      <trkpt lat="48.66205" lon="1.8579">
        <ele>180</ele>
        <time>2011-04-16T11:35:33.000Z</time>
      </trkpt>
      <trkpt lat="48.66203" lon="1.85795">
        <ele>180.39999389648</ele>
        <time>2011-04-16T11:35:36.000Z</time>
      </trkpt>
      <trkpt lat="48.662" lon="1.85798">
        <ele>180.80000305176</ele>
        <time>2011-04-16T11:35:39.000Z</time>
      </trkpt>
      <trkpt lat="48.66198" lon="1.85802">
        <ele>179.39999389648</ele>
        <time>2011-04-16T11:35:45.000Z</time>
      </trkpt>
      <trkpt lat="48.66195" lon="1.85806">
        <ele>178</ele>
        <time>2011-04-16T11:35:49.000Z</time>
      </trkpt>
      <trkpt lat="48.66193" lon="1.8581">
        <ele>178</ele>
        <time>2011-04-16T11:35:52.000Z</time>
      </trkpt>
      <trkpt lat="48.66189" lon="1.85818">
        <ele>178</ele>
        <time>2011-04-16T11:35:58.000Z</time>
      </trkpt>
      <trkpt lat="48.66188" lon="1.85821">
        <ele>178</ele>
        <time>2011-04-16T11:36:03.000Z</time>
      </trkpt>
      <trkpt lat="48.66186" lon="1.8583">
        <ele>178</ele>
        <time>2011-04-16T11:36:10.000Z</time>
      </trkpt>
      <trkpt lat="48.66182" lon="1.85838">
        <ele>177.60000610352</ele>
        <time>2011-04-16T11:36:16.000Z</time>
      </trkpt>
      <trkpt lat="48.66182" lon="1.85838">
        <ele>178</ele>
        <time>2011-04-16T11:36:18.000Z</time>
      </trkpt>
      <trkpt lat="48.66174" lon="1.85831">
        <ele>177.60000610352</ele>
        <time>2011-04-16T11:37:43.000Z</time>
      </trkpt>
      <trkpt lat="48.66165" lon="1.85837">
        <ele>176</ele>
        <time>2011-04-16T11:37:49.000Z</time>
      </trkpt>
      <trkpt lat="48.66159" lon="1.85842">
        <ele>176</ele>
        <time>2011-04-16T11:37:56.000Z</time>
      </trkpt>
      <trkpt lat="48.66153" lon="1.85847">
        <ele>176</ele>
        <time>2011-04-16T11:38:22.000Z</time>
      </trkpt>
      <trkpt lat="48.6614" lon="1.85855">
        <ele>175.60000610352</ele>
        <time>2011-04-16T11:38:30.000Z</time>
      </trkpt>
      <trkpt lat="48.66135" lon="1.85858">
        <ele>175.60000610352</ele>
        <time>2011-04-16T11:38:34.000Z</time>
      </trkpt>
      <trkpt lat="48.66128" lon="1.85861">
        <ele>176.60000610352</ele>
        <time>2011-04-16T11:38:39.000Z</time>
      </trkpt>
      <trkpt lat="48.66126" lon="1.85863">
        <ele>176.60000610352</ele>
        <time>2011-04-16T11:38:43.000Z</time>
      </trkpt>
      <trkpt lat="48.66118" lon="1.85868">
        <ele>177</ele>
        <time>2011-04-16T11:38:59.000Z</time>
      </trkpt>
      <trkpt lat="48.66112" lon="1.85871">
        <ele>177</ele>
        <time>2011-04-16T11:39:05.000Z</time>
      </trkpt>
      <trkpt lat="48.66106" lon="1.85873">
        <ele>177</ele>
        <time>2011-04-16T11:39:14.000Z</time>
      </trkpt>
      <trkpt lat="48.66095" lon="1.85879">
        <ele>176</ele>
        <time>2011-04-16T11:39:21.000Z</time>
      </trkpt>
      <trkpt lat="48.66086" lon="1.85884">
        <ele>176</ele>
        <time>2011-04-16T11:39:28.000Z</time>
      </trkpt>
      <trkpt lat="48.66079" lon="1.8589">
        <ele>176</ele>
        <time>2011-04-16T11:39:34.000Z</time>
      </trkpt>
      <trkpt lat="48.6607" lon="1.85896">
        <ele>175.60000610352</ele>
        <time>2011-04-16T11:39:41.000Z</time>
      </trkpt>
      <trkpt lat="48.66067" lon="1.85902">
        <ele>175.60000610352</ele>
        <time>2011-04-16T11:39:45.000Z</time>
      </trkpt>
      <trkpt lat="48.66069" lon="1.85922">
        <ele>176</ele>
        <time>2011-04-16T11:39:54.000Z</time>
      </trkpt>
      <trkpt lat="48.66074" lon="1.85944">
        <ele>175.60000610352</ele>
        <time>2011-04-16T11:40:04.000Z</time>
      </trkpt>
      <trkpt lat="48.66077" lon="1.85964">
        <ele>175</ele>
        <time>2011-04-16T11:40:14.000Z</time>
      </trkpt>
      <trkpt lat="48.6608" lon="1.85981">
        <ele>175</ele>
        <time>2011-04-16T11:40:22.000Z</time>
      </trkpt>
      <trkpt lat="48.66082" lon="1.85995">
        <ele>175</ele>
        <time>2011-04-16T11:40:28.000Z</time>
      </trkpt>
      <trkpt lat="48.66088" lon="1.86017">
        <ele>175.60000610352</ele>
        <time>2011-04-16T11:40:38.000Z</time>
      </trkpt>
      <trkpt lat="48.66091" lon="1.86032">
        <ele>175.60000610352</ele>
        <time>2011-04-16T11:40:45.000Z</time>
      </trkpt>
      <trkpt lat="48.66092" lon="1.86039">
        <ele>175</ele>
        <time>2011-04-16T11:40:49.000Z</time>
      </trkpt>
      <trkpt lat="48.66094" lon="1.86048">
        <ele>175.60000610352</ele>
        <time>2011-04-16T11:40:56.000Z</time>
      </trkpt>
      <trkpt lat="48.66097" lon="1.86059">
        <ele>175.60000610352</ele>
        <time>2011-04-16T11:41:01.000Z</time>
      </trkpt>
      <trkpt lat="48.66098" lon="1.86063">
        <ele>175.60000610352</ele>
        <time>2011-04-16T11:41:03.000Z</time>
      </trkpt>
      <trkpt lat="48.661" lon="1.86072">
        <ele>175.60000610352</ele>
        <time>2011-04-16T11:41:07.000Z</time>
      </trkpt>
      <trkpt lat="48.66103" lon="1.86076">
        <ele>177</ele>
        <time>2011-04-16T11:41:12.000Z</time>
      </trkpt>
      <trkpt lat="48.66103" lon="1.86072">
        <ele>177</ele>
        <time>2011-04-16T11:41:16.000Z</time>
      </trkpt>
      <trkpt lat="48.661" lon="1.8606">
        <ele>177</ele>
        <time>2011-04-16T11:41:23.000Z</time>
      </trkpt>
      <trkpt lat="48.66096" lon="1.86043">
        <ele>176.60000610352</ele>
        <time>2011-04-16T11:41:32.000Z</time>
      </trkpt>
      <trkpt lat="48.66093" lon="1.86028">
        <ele>176.60000610352</ele>
        <time>2011-04-16T11:41:40.000Z</time>
      </trkpt>
      <trkpt lat="48.66091" lon="1.86022">
        <ele>176.60000610352</ele>
        <time>2011-04-16T11:41:43.000Z</time>
      </trkpt>
      <trkpt lat="48.66094" lon="1.86019">
        <ele>176.60000610352</ele>
        <time>2011-04-16T11:41:48.000Z</time>
      </trkpt>
      <trkpt lat="48.66095" lon="1.86021">
        <ele>176.60000610352</ele>
        <time>2011-04-16T11:41:49.000Z</time>
      </trkpt>
      <trkpt lat="48.66098" lon="1.86039">
        <ele>176.60000610352</ele>
        <time>2011-04-16T11:41:58.000Z</time>
      </trkpt>
      <trkpt lat="48.66101" lon="1.86053">
        <ele>176</ele>
        <time>2011-04-16T11:42:05.000Z</time>
      </trkpt>
      <trkpt lat="48.66103" lon="1.86064">
        <ele>176.60000610352</ele>
        <time>2011-04-16T11:42:10.000Z</time>
      </trkpt>
      <trkpt lat="48.66106" lon="1.86079">
        <ele>176</ele>
        <time>2011-04-16T11:42:17.000Z</time>
      </trkpt>
      <trkpt lat="48.6611" lon="1.86099">
        <ele>175.60000610352</ele>
        <time>2011-04-16T11:42:27.000Z</time>
      </trkpt>
      <trkpt lat="48.66115" lon="1.86123">
        <ele>175</ele>
        <time>2011-04-16T11:42:38.000Z</time>
      </trkpt>
      <trkpt lat="48.66118" lon="1.86136">
        <ele>174.60000610352</ele>
        <time>2011-04-16T11:42:44.000Z</time>
      </trkpt>
      <trkpt lat="48.66123" lon="1.86156">
        <ele>174.60000610352</ele>
        <time>2011-04-16T11:42:53.000Z</time>
      </trkpt>
      <trkpt lat="48.66126" lon="1.86173">
        <ele>174.60000610352</ele>
        <time>2011-04-16T11:43:02.000Z</time>
      </trkpt>
      <trkpt lat="48.66129" lon="1.86186">
        <ele>175</ele>
        <time>2011-04-16T11:43:09.000Z</time>
      </trkpt>
      <trkpt lat="48.66131" lon="1.86198">
        <ele>175</ele>
        <time>2011-04-16T11:43:15.000Z</time>
      </trkpt>
      <trkpt lat="48.66136" lon="1.86218">
        <ele>175</ele>
        <time>2011-04-16T11:43:25.000Z</time>
      </trkpt>
      <trkpt lat="48.66141" lon="1.86238">
        <ele>175</ele>
        <time>2011-04-16T11:43:35.000Z</time>
      </trkpt>
      <trkpt lat="48.66146" lon="1.86259">
        <ele>174.60000610352</ele>
        <time>2011-04-16T11:43:46.000Z</time>
      </trkpt>
      <trkpt lat="48.6615" lon="1.86276">
        <ele>173.60000610352</ele>
        <time>2011-04-16T11:43:55.000Z</time>
      </trkpt>
      <trkpt lat="48.66152" lon="1.86293">
        <ele>173.60000610352</ele>
        <time>2011-04-16T11:44:03.000Z</time>
      </trkpt>
      <trkpt lat="48.66153" lon="1.86295">
        <ele>173.19999694824</ele>
        <time>2011-04-16T11:44:05.000Z</time>
      </trkpt>
      <trkpt lat="48.66158" lon="1.86315">
        <ele>173.19999694824</ele>
        <time>2011-04-16T11:44:15.000Z</time>
      </trkpt>
      <trkpt lat="48.66162" lon="1.86332">
        <ele>173.19999694824</ele>
        <time>2011-04-16T11:44:24.000Z</time>
      </trkpt>
      <trkpt lat="48.66167" lon="1.86355">
        <ele>173.19999694824</ele>
        <time>2011-04-16T11:44:35.000Z</time>
      </trkpt>
      <trkpt lat="48.6617" lon="1.86371">
        <ele>172.60000610352</ele>
        <time>2011-04-16T11:44:43.000Z</time>
      </trkpt>
      <trkpt lat="48.66171" lon="1.86381">
        <ele>173.19999694824</ele>
        <time>2011-04-16T11:44:48.000Z</time>
      </trkpt>
      <trkpt lat="48.66172" lon="1.86383">
        <ele>173.19999694824</ele>
        <time>2011-04-16T11:44:49.000Z</time>
      </trkpt>
      <trkpt lat="48.66175" lon="1.86393">
        <ele>172.60000610352</ele>
        <time>2011-04-16T11:44:56.000Z</time>
      </trkpt>
      <trkpt lat="48.66176" lon="1.864">
        <ele>172.60000610352</ele>
        <time>2011-04-16T11:45:00.000Z</time>
      </trkpt>
      <trkpt lat="48.66179" lon="1.86417">
        <ele>173.19999694824</ele>
        <time>2011-04-16T11:45:09.000Z</time>
      </trkpt>
      <trkpt lat="48.66183" lon="1.86432">
        <ele>173.60000610352</ele>
        <time>2011-04-16T11:45:17.000Z</time>
      </trkpt>
      <trkpt lat="48.66187" lon="1.86451">
        <ele>173.19999694824</ele>
        <time>2011-04-16T11:45:27.000Z</time>
      </trkpt>
      <trkpt lat="48.66191" lon="1.86468">
        <ele>173.19999694824</ele>
        <time>2011-04-16T11:45:36.000Z</time>
      </trkpt>
      <trkpt lat="48.66196" lon="1.86489">
        <ele>173.19999694824</ele>
        <time>2011-04-16T11:45:47.000Z</time>
      </trkpt>
      <trkpt lat="48.66199" lon="1.86507">
        <ele>173.19999694824</ele>
        <time>2011-04-16T11:45:56.000Z</time>
      </trkpt>
      <trkpt lat="48.66204" lon="1.8653">
        <ele>172.60000610352</ele>
        <time>2011-04-16T11:46:08.000Z</time>
      </trkpt>
      <trkpt lat="48.66208" lon="1.86548">
        <ele>172.19999694824</ele>
        <time>2011-04-16T11:46:17.000Z</time>
      </trkpt>
      <trkpt lat="48.66212" lon="1.8657">
        <ele>171.80000305176</ele>
        <time>2011-04-16T11:46:28.000Z</time>
      </trkpt>
      <trkpt lat="48.66219" lon="1.86602">
        <ele>171.19999694824</ele>
        <time>2011-04-16T11:46:44.000Z</time>
      </trkpt>
      <trkpt lat="48.66225" lon="1.86629">
        <ele>170.80000305176</ele>
        <time>2011-04-16T11:46:57.000Z</time>
      </trkpt>
      <trkpt lat="48.66229" lon="1.86653">
        <ele>170.19999694824</ele>
        <time>2011-04-16T11:47:09.000Z</time>
      </trkpt>
      <trkpt lat="48.66235" lon="1.86682">
        <ele>170.80000305176</ele>
        <time>2011-04-16T11:47:23.000Z</time>
      </trkpt>
      <trkpt lat="48.66241" lon="1.86704">
        <ele>171.19999694824</ele>
        <time>2011-04-16T11:47:34.000Z</time>
      </trkpt>
      <trkpt lat="48.66244" lon="1.86712">
        <ele>171.19999694824</ele>
        <time>2011-04-16T11:47:40.000Z</time>
      </trkpt>
      <trkpt lat="48.66244" lon="1.86712">
        <ele>171.19999694824</ele>
        <time>2011-04-16T11:47:41.000Z</time>
      </trkpt>
      <trkpt lat="48.66245" lon="1.86723">
        <ele>171.19999694824</ele>
        <time>2011-04-16T11:47:50.000Z</time>
      </trkpt>
      <trkpt lat="48.66247" lon="1.86734">
        <ele>170.80000305176</ele>
        <time>2011-04-16T11:47:55.000Z</time>
      </trkpt>
      <trkpt lat="48.66251" lon="1.86756">
        <ele>170.19999694824</ele>
        <time>2011-04-16T11:48:06.000Z</time>
      </trkpt>
      <trkpt lat="48.66255" lon="1.86772">
        <ele>170.80000305176</ele>
        <time>2011-04-16T11:48:14.000Z</time>
      </trkpt>
      <trkpt lat="48.6626" lon="1.86793">
        <ele>170.80000305176</ele>
        <time>2011-04-16T11:48:25.000Z</time>
      </trkpt>
      <trkpt lat="48.66264" lon="1.86813">
        <ele>171.19999694824</ele>
        <time>2011-04-16T11:48:35.000Z</time>
      </trkpt>
      <trkpt lat="48.66268" lon="1.86832">
        <ele>171.80000305176</ele>
        <time>2011-04-16T11:48:44.000Z</time>
      </trkpt>
      <trkpt lat="48.66271" lon="1.86846">
        <ele>171.80000305176</ele>
        <time>2011-04-16T11:48:51.000Z</time>
      </trkpt>
      <trkpt lat="48.66275" lon="1.86859">
        <ele>171.80000305176</ele>
        <time>2011-04-16T11:48:58.000Z</time>
      </trkpt>
      <trkpt lat="48.66277" lon="1.86876">
        <ele>171.80000305176</ele>
        <time>2011-04-16T11:49:06.000Z</time>
      </trkpt>
      <trkpt lat="48.66284" lon="1.86906">
        <ele>171.19999694824</ele>
        <time>2011-04-16T11:49:20.000Z</time>
      </trkpt>
      <trkpt lat="48.66289" lon="1.86931">
        <ele>170.80000305176</ele>
        <time>2011-04-16T11:49:32.000Z</time>
      </trkpt>
      <trkpt lat="48.66295" lon="1.86957">
        <ele>170.19999694824</ele>
        <time>2011-04-16T11:49:45.000Z</time>
      </trkpt>
      <trkpt lat="48.66298" lon="1.86972">
        <ele>169.39999389648</ele>
        <time>2011-04-16T11:49:53.000Z</time>
      </trkpt>
      <trkpt lat="48.66303" lon="1.86995">
        <ele>169.39999389648</ele>
        <time>2011-04-16T11:50:04.000Z</time>
      </trkpt>
      <trkpt lat="48.66307" lon="1.87011">
        <ele>169.39999389648</ele>
        <time>2011-04-16T11:50:12.000Z</time>
      </trkpt>
      <trkpt lat="48.66312" lon="1.87034">
        <ele>169.39999389648</ele>
        <time>2011-04-16T11:50:23.000Z</time>
      </trkpt>
      <trkpt lat="48.66318" lon="1.87054">
        <ele>169.39999389648</ele>
        <time>2011-04-16T11:50:33.000Z</time>
      </trkpt>
      <trkpt lat="48.66321" lon="1.87063">
        <ele>168.80000305176</ele>
        <time>2011-04-16T11:50:40.000Z</time>
      </trkpt>
      <trkpt lat="48.66321" lon="1.87064">
        <ele>168.80000305176</ele>
        <time>2011-04-16T11:50:41.000Z</time>
      </trkpt>
      <trkpt lat="48.66324" lon="1.87072">
        <ele>171.19999694824</ele>
        <time>2011-04-16T11:50:58.000Z</time>
      </trkpt>
      <trkpt lat="48.66331" lon="1.87095">
        <ele>169.80000305176</ele>
        <time>2011-04-16T11:51:09.000Z</time>
      </trkpt>
      <trkpt lat="48.66336" lon="1.8711">
        <ele>169.39999389648</ele>
        <time>2011-04-16T11:51:17.000Z</time>
      </trkpt>
      <trkpt lat="48.66339" lon="1.87117">
        <ele>169.39999389648</ele>
        <time>2011-04-16T11:51:21.000Z</time>
      </trkpt>
      <trkpt lat="48.66342" lon="1.87124">
        <ele>168.80000305176</ele>
        <time>2011-04-16T11:51:27.000Z</time>
      </trkpt>
      <trkpt lat="48.66348" lon="1.87142">
        <ele>168.80000305176</ele>
        <time>2011-04-16T11:51:37.000Z</time>
      </trkpt>
      <trkpt lat="48.66351" lon="1.87151">
        <ele>168.80000305176</ele>
        <time>2011-04-16T11:51:42.000Z</time>
      </trkpt>
      <trkpt lat="48.66356" lon="1.87168">
        <ele>168.80000305176</ele>
        <time>2011-04-16T11:51:50.000Z</time>
      </trkpt>
      <trkpt lat="48.66361" lon="1.87181">
        <ele>168.39999389648</ele>
        <time>2011-04-16T11:51:58.000Z</time>
      </trkpt>
      <trkpt lat="48.66365" lon="1.87193">
        <ele>168.39999389648</ele>
        <time>2011-04-16T11:52:04.000Z</time>
      </trkpt>
      <trkpt lat="48.66372" lon="1.87215">
        <ele>167.80000305176</ele>
        <time>2011-04-16T11:52:15.000Z</time>
      </trkpt>
      <trkpt lat="48.66376" lon="1.87221">
        <ele>167.39999389648</ele>
        <time>2011-04-16T11:52:20.000Z</time>
      </trkpt>
      <trkpt lat="48.66376" lon="1.87222">
        <ele>167.80000305176</ele>
        <time>2011-04-16T11:52:23.000Z</time>
      </trkpt>
      <trkpt lat="48.6638" lon="1.87236">
        <ele>168.80000305176</ele>
        <time>2011-04-16T11:52:34.000Z</time>
      </trkpt>
      <trkpt lat="48.66386" lon="1.87252">
        <ele>168.39999389648</ele>
        <time>2011-04-16T11:52:42.000Z</time>
      </trkpt>
      <trkpt lat="48.66387" lon="1.87254">
        <ele>168.39999389648</ele>
        <time>2011-04-16T11:52:45.000Z</time>
      </trkpt>
      <trkpt lat="48.66389" lon="1.87262">
        <ele>168.80000305176</ele>
        <time>2011-04-16T11:52:52.000Z</time>
      </trkpt>
      <trkpt lat="48.66393" lon="1.87275">
        <ele>168.39999389648</ele>
        <time>2011-04-16T11:52:58.000Z</time>
      </trkpt>
      <trkpt lat="48.664" lon="1.87292">
        <ele>167.80000305176</ele>
        <time>2011-04-16T11:53:08.000Z</time>
      </trkpt>
      <trkpt lat="48.66402" lon="1.87298">
        <ele>167.80000305176</ele>
        <time>2011-04-16T11:53:14.000Z</time>
      </trkpt>
      <trkpt lat="48.66405" lon="1.87306">
        <ele>168.39999389648</ele>
        <time>2011-04-16T11:53:23.000Z</time>
      </trkpt>
      <trkpt lat="48.66412" lon="1.87326">
        <ele>168.80000305176</ele>
        <time>2011-04-16T11:53:32.000Z</time>
      </trkpt>
      <trkpt lat="48.66418" lon="1.87344">
        <ele>167.80000305176</ele>
        <time>2011-04-16T11:53:42.000Z</time>
      </trkpt>
      <trkpt lat="48.66422" lon="1.87356">
        <ele>167.39999389648</ele>
        <time>2011-04-16T11:53:50.000Z</time>
      </trkpt>
      <trkpt lat="48.66422" lon="1.87356">
        <ele>167.39999389648</ele>
        <time>2011-04-16T11:53:51.000Z</time>
      </trkpt>
      <trkpt lat="48.66424" lon="1.87362">
        <ele>167.39999389648</ele>
        <time>2011-04-16T11:54:02.000Z</time>
      </trkpt>
      <trkpt lat="48.6643" lon="1.87377">
        <ele>167.80000305176</ele>
        <time>2011-04-16T11:54:09.000Z</time>
      </trkpt>
      <trkpt lat="48.66435" lon="1.87393">
        <ele>167.39999389648</ele>
        <time>2011-04-16T11:54:17.000Z</time>
      </trkpt>
      <trkpt lat="48.66437" lon="1.87398">
        <ele>167.80000305176</ele>
        <time>2011-04-16T11:54:22.000Z</time>
      </trkpt>
      <trkpt lat="48.66439" lon="1.87403">
        <ele>167.39999389648</ele>
        <time>2011-04-16T11:54:35.000Z</time>
      </trkpt>
      <trkpt lat="48.66444" lon="1.87414">
        <ele>167.39999389648</ele>
        <time>2011-04-16T11:54:40.000Z</time>
      </trkpt>
      <trkpt lat="48.66449" lon="1.87427">
        <ele>168.39999389648</ele>
        <time>2011-04-16T11:54:47.000Z</time>
      </trkpt>
      <trkpt lat="48.6645" lon="1.87428">
        <ele>167.80000305176</ele>
        <time>2011-04-16T11:54:51.000Z</time>
      </trkpt>
      <trkpt lat="48.66452" lon="1.87437">
        <ele>167.80000305176</ele>
        <time>2011-04-16T11:55:03.000Z</time>
      </trkpt>
      <trkpt lat="48.6646" lon="1.87451">
        <ele>168.39999389648</ele>
        <time>2011-04-16T11:55:10.000Z</time>
      </trkpt>
      <trkpt lat="48.6647" lon="1.87452">
        <ele>168.39999389648</ele>
        <time>2011-04-16T11:55:18.000Z</time>
      </trkpt>
      <trkpt lat="48.66476" lon="1.87449">
        <ele>168.80000305176</ele>
        <time>2011-04-16T11:55:23.000Z</time>
      </trkpt>
      <trkpt lat="48.66481" lon="1.87446">
        <ele>169.39999389648</ele>
        <time>2011-04-16T11:55:28.000Z</time>
      </trkpt>
      <trkpt lat="48.66481" lon="1.87446">
        <ele>169.39999389648</ele>
        <time>2011-04-16T11:55:30.000Z</time>
      </trkpt>
      <trkpt lat="48.66487" lon="1.87444">
        <ele>169.39999389648</ele>
        <time>2011-04-16T11:55:39.000Z</time>
      </trkpt>
      <trkpt lat="48.66491" lon="1.87442">
        <ele>169.39999389648</ele>
        <time>2011-04-16T11:55:44.000Z</time>
      </trkpt>
      <trkpt lat="48.66491" lon="1.87441">
        <ele>169.39999389648</ele>
        <time>2011-04-16T11:55:45.000Z</time>
      </trkpt>
      <trkpt lat="48.66502" lon="1.87431">
        <ele>174.19999694824</ele>
        <time>2011-04-16T11:56:33.000Z</time>
      </trkpt>
      <trkpt lat="48.66505" lon="1.8743">
        <ele>173.60000610352</ele>
        <time>2011-04-16T11:56:34.000Z</time>
      </trkpt>
      <trkpt lat="48.66508" lon="1.8743">
        <ele>173.19999694824</ele>
        <time>2011-04-16T11:56:39.000Z</time>
      </trkpt>
      <trkpt lat="48.66514" lon="1.87428">
        <ele>173.19999694824</ele>
        <time>2011-04-16T11:56:43.000Z</time>
      </trkpt>
      <trkpt lat="48.66526" lon="1.87422">
        <ele>172.60000610352</ele>
        <time>2011-04-16T11:56:52.000Z</time>
      </trkpt>
      <trkpt lat="48.66534" lon="1.87418">
        <ele>172.19999694824</ele>
        <time>2011-04-16T11:56:58.000Z</time>
      </trkpt>
      <trkpt lat="48.66545" lon="1.87412">
        <ele>173.19999694824</ele>
        <time>2011-04-16T11:57:06.000Z</time>
      </trkpt>
      <trkpt lat="48.66553" lon="1.87407">
        <ele>173.60000610352</ele>
        <time>2011-04-16T11:57:12.000Z</time>
      </trkpt>
      <trkpt lat="48.66563" lon="1.87401">
        <ele>176</ele>
        <time>2011-04-16T11:57:20.000Z</time>
      </trkpt>
      <trkpt lat="48.66567" lon="1.87398">
        <ele>176.60000610352</ele>
        <time>2011-04-16T11:57:25.000Z</time>
      </trkpt>
      <trkpt lat="48.66576" lon="1.87394">
        <ele>177.60000610352</ele>
        <time>2011-04-16T11:57:30.000Z</time>
      </trkpt>
      <trkpt lat="48.66588" lon="1.87386">
        <ele>179.39999389648</ele>
        <time>2011-04-16T11:57:39.000Z</time>
      </trkpt>
      <trkpt lat="48.666" lon="1.87379">
        <ele>180.80000305176</ele>
        <time>2011-04-16T11:57:47.000Z</time>
      </trkpt>
      <trkpt lat="48.66609" lon="1.87374">
        <ele>181.80000305176</ele>
        <time>2011-04-16T11:57:53.000Z</time>
      </trkpt>
      <trkpt lat="48.66619" lon="1.87369">
        <ele>182.80000305176</ele>
        <time>2011-04-16T11:57:59.000Z</time>
      </trkpt>
      <trkpt lat="48.66626" lon="1.87365">
        <ele>182.80000305176</ele>
        <time>2011-04-16T11:58:03.000Z</time>
      </trkpt>
      <trkpt lat="48.66627" lon="1.87365">
        <ele>182.80000305176</ele>
        <time>2011-04-16T11:58:04.000Z</time>
      </trkpt>
      <trkpt lat="48.66637" lon="1.87363">
        <ele>182.39999389648</ele>
        <time>2011-04-16T11:58:11.000Z</time>
      </trkpt>
      <trkpt lat="48.66644" lon="1.87359">
        <ele>182.39999389648</ele>
        <time>2011-04-16T11:58:16.000Z</time>
      </trkpt>
      <trkpt lat="48.6665" lon="1.87356">
        <ele>183.19999694824</ele>
        <time>2011-04-16T11:58:20.000Z</time>
      </trkpt>
      <trkpt lat="48.66662" lon="1.87348">
        <ele>184.19999694824</ele>
        <time>2011-04-16T11:58:28.000Z</time>
      </trkpt>
      <trkpt lat="48.66671" lon="1.87345">
        <ele>184.80000305176</ele>
        <time>2011-04-16T11:58:34.000Z</time>
      </trkpt>
      <trkpt lat="48.66677" lon="1.87341">
        <ele>182.39999389648</ele>
        <time>2011-04-16T11:58:40.000Z</time>
      </trkpt>
      <trkpt lat="48.66677" lon="1.8734">
        <ele>182.39999389648</ele>
        <time>2011-04-16T11:58:41.000Z</time>
      </trkpt>
      <trkpt lat="48.6668" lon="1.8734">
        <ele>181.80000305176</ele>
        <time>2011-04-16T11:58:45.000Z</time>
      </trkpt>
      <trkpt lat="48.66682" lon="1.8734">
        <ele>180.80000305176</ele>
        <time>2011-04-16T11:58:46.000Z</time>
      </trkpt>
      <trkpt lat="48.66685" lon="1.87338">
        <ele>181.39999389648</ele>
        <time>2011-04-16T11:58:47.000Z</time>
      </trkpt>
      <trkpt lat="48.66692" lon="1.87334">
        <ele>181.39999389648</ele>
        <time>2011-04-16T11:58:52.000Z</time>
      </trkpt>
      <trkpt lat="48.66703" lon="1.87329">
        <ele>181.39999389648</ele>
        <time>2011-04-16T11:58:59.000Z</time>
      </trkpt>
      <trkpt lat="48.66713" lon="1.87324">
        <ele>179.39999389648</ele>
        <time>2011-04-16T11:59:06.000Z</time>
      </trkpt>
      <trkpt lat="48.66725" lon="1.87318">
        <ele>179.39999389648</ele>
        <time>2011-04-16T11:59:14.000Z</time>
      </trkpt>
      <trkpt lat="48.66738" lon="1.87312">
        <ele>178.39999389648</ele>
        <time>2011-04-16T11:59:22.000Z</time>
      </trkpt>
      <trkpt lat="48.66747" lon="1.8731">
        <ele>177.60000610352</ele>
        <time>2011-04-16T11:59:28.000Z</time>
      </trkpt>
      <trkpt lat="48.66754" lon="1.87306">
        <ele>178</ele>
        <time>2011-04-16T11:59:33.000Z</time>
      </trkpt>
      <trkpt lat="48.66759" lon="1.87302">
        <ele>178</ele>
        <time>2011-04-16T11:59:37.000Z</time>
      </trkpt>
      <trkpt lat="48.66773" lon="1.87294">
        <ele>178</ele>
        <time>2011-04-16T11:59:45.000Z</time>
      </trkpt>
      <trkpt lat="48.66782" lon="1.87292">
        <ele>179</ele>
        <time>2011-04-16T11:59:51.000Z</time>
      </trkpt>
      <trkpt lat="48.66794" lon="1.87288">
        <ele>179</ele>
        <time>2011-04-16T11:59:58.000Z</time>
      </trkpt>
      <trkpt lat="48.66803" lon="1.87283">
        <ele>180.39999389648</ele>
        <time>2011-04-16T12:00:04.000Z</time>
      </trkpt>
      <trkpt lat="48.66812" lon="1.87279">
        <ele>180.39999389648</ele>
        <time>2011-04-16T12:00:10.000Z</time>
      </trkpt>
      <trkpt lat="48.66817" lon="1.87277">
        <ele>179.39999389648</ele>
        <time>2011-04-16T12:00:13.000Z</time>
      </trkpt>
      <trkpt lat="48.66826" lon="1.87275">
        <ele>174.19999694824</ele>
        <time>2011-04-16T12:00:20.000Z</time>
      </trkpt>
      <trkpt lat="48.66836" lon="1.87272">
        <ele>174.19999694824</ele>
        <time>2011-04-16T12:00:26.000Z</time>
      </trkpt>
      <trkpt lat="48.66849" lon="1.87266">
        <ele>173.60000610352</ele>
        <time>2011-04-16T12:00:34.000Z</time>
      </trkpt>
      <trkpt lat="48.6686" lon="1.8726">
        <ele>175</ele>
        <time>2011-04-16T12:00:41.000Z</time>
      </trkpt>
      <trkpt lat="48.66868" lon="1.87257">
        <ele>173.60000610352</ele>
        <time>2011-04-16T12:00:47.000Z</time>
      </trkpt>
      <trkpt lat="48.66878" lon="1.87251">
        <ele>174.19999694824</ele>
        <time>2011-04-16T12:00:54.000Z</time>
      </trkpt>
      <trkpt lat="48.66887" lon="1.87246">
        <ele>174.60000610352</ele>
        <time>2011-04-16T12:01:00.000Z</time>
      </trkpt>
      <trkpt lat="48.66897" lon="1.87239">
        <ele>174.19999694824</ele>
        <time>2011-04-16T12:01:08.000Z</time>
      </trkpt>
      <trkpt lat="48.66906" lon="1.87233">
        <ele>173.60000610352</ele>
        <time>2011-04-16T12:01:14.000Z</time>
      </trkpt>
      <trkpt lat="48.66916" lon="1.87228">
        <ele>172.60000610352</ele>
        <time>2011-04-16T12:01:21.000Z</time>
      </trkpt>
      <trkpt lat="48.66927" lon="1.87227">
        <ele>175</ele>
        <time>2011-04-16T12:01:27.000Z</time>
      </trkpt>
      <trkpt lat="48.66938" lon="1.87225">
        <ele>174.19999694824</ele>
        <time>2011-04-16T12:01:33.000Z</time>
      </trkpt>
      <trkpt lat="48.66941" lon="1.87221">
        <ele>174.60000610352</ele>
        <time>2011-04-16T12:01:36.000Z</time>
      </trkpt>
      <trkpt lat="48.66943" lon="1.87219">
        <ele>174.19999694824</ele>
        <time>2011-04-16T12:01:40.000Z</time>
      </trkpt>
      <trkpt lat="48.66951" lon="1.87214">
        <ele>170.19999694824</ele>
        <time>2011-04-16T12:03:31.000Z</time>
      </trkpt>
      <trkpt lat="48.66955" lon="1.87229">
        <ele>170.80000305176</ele>
        <time>2011-04-16T12:03:38.000Z</time>
      </trkpt>
      <trkpt lat="48.66959" lon="1.8723">
        <ele>170.19999694824</ele>
        <time>2011-04-16T12:03:44.000Z</time>
      </trkpt>
      <trkpt lat="48.66963" lon="1.87231">
        <ele>170.80000305176</ele>
        <time>2011-04-16T12:03:50.000Z</time>
      </trkpt>
      <trkpt lat="48.66966" lon="1.87226">
        <ele>170.19999694824</ele>
        <time>2011-04-16T12:03:54.000Z</time>
      </trkpt>
      <trkpt lat="48.66966" lon="1.87225">
        <ele>170.19999694824</ele>
        <time>2011-04-16T12:03:56.000Z</time>
      </trkpt>
      <trkpt lat="48.66976" lon="1.87219">
        <ele>167.39999389648</ele>
        <time>2011-04-16T12:04:11.000Z</time>
      </trkpt>
      <trkpt lat="48.66984" lon="1.87213">
        <ele>167.80000305176</ele>
        <time>2011-04-16T12:04:16.000Z</time>
      </trkpt>
      <trkpt lat="48.66988" lon="1.8721">
        <ele>167.80000305176</ele>
        <time>2011-04-16T12:04:19.000Z</time>
      </trkpt>
      <trkpt lat="48.66992" lon="1.87205">
        <ele>167.80000305176</ele>
        <time>2011-04-16T12:04:23.000Z</time>
      </trkpt>
      <trkpt lat="48.66995" lon="1.87199">
        <ele>169.39999389648</ele>
        <time>2011-04-16T12:04:28.000Z</time>
      </trkpt>
      <trkpt lat="48.67005" lon="1.87194">
        <ele>168.39999389648</ele>
        <time>2011-04-16T12:04:35.000Z</time>
      </trkpt>
      <trkpt lat="48.6701" lon="1.87188">
        <ele>169.39999389648</ele>
        <time>2011-04-16T12:04:39.000Z</time>
      </trkpt>
      <trkpt lat="48.6701" lon="1.87187">
        <ele>170.80000305176</ele>
        <time>2011-04-16T12:04:42.000Z</time>
      </trkpt>
      <trkpt lat="48.67012" lon="1.87182">
        <ele>174.19999694824</ele>
        <time>2011-04-16T12:04:55.000Z</time>
      </trkpt>
      <trkpt lat="48.67013" lon="1.87181">
        <ele>174.60000610352</ele>
        <time>2011-04-16T12:04:56.000Z</time>
      </trkpt>
      <trkpt lat="48.67016" lon="1.87178">
        <ele>175</ele>
        <time>2011-04-16T12:05:01.000Z</time>
      </trkpt>
      <trkpt lat="48.67022" lon="1.87177">
        <ele>173.19999694824</ele>
        <time>2011-04-16T12:05:10.000Z</time>
      </trkpt>
      <trkpt lat="48.67025" lon="1.87174">
        <ele>173.60000610352</ele>
        <time>2011-04-16T12:05:14.000Z</time>
      </trkpt>
      <trkpt lat="48.67029" lon="1.87171">
        <ele>175</ele>
        <time>2011-04-16T12:05:20.000Z</time>
      </trkpt>
      <trkpt lat="48.67037" lon="1.87167">
        <ele>174.19999694824</ele>
        <time>2011-04-16T12:05:26.000Z</time>
      </trkpt>
      <trkpt lat="48.67046" lon="1.87163">
        <ele>172.19999694824</ele>
        <time>2011-04-16T12:05:33.000Z</time>
      </trkpt>
      <trkpt lat="48.67056" lon="1.87157">
        <ele>170.80000305176</ele>
        <time>2011-04-16T12:05:41.000Z</time>
      </trkpt>
      <trkpt lat="48.67059" lon="1.87155">
        <ele>169.80000305176</ele>
        <time>2011-04-16T12:05:44.000Z</time>
      </trkpt>
      <trkpt lat="48.67059" lon="1.8715">
        <ele>170.80000305176</ele>
        <time>2011-04-16T12:05:51.000Z</time>
      </trkpt>
      <trkpt lat="48.67064" lon="1.87146">
        <ele>171.80000305176</ele>
        <time>2011-04-16T12:05:57.000Z</time>
      </trkpt>
      <trkpt lat="48.67073" lon="1.87143">
        <ele>170.80000305176</ele>
        <time>2011-04-16T12:06:03.000Z</time>
      </trkpt>
      <trkpt lat="48.67083" lon="1.87136">
        <ele>170.80000305176</ele>
        <time>2011-04-16T12:06:11.000Z</time>
      </trkpt>
      <trkpt lat="48.67096" lon="1.87127">
        <ele>173.19999694824</ele>
        <time>2011-04-16T12:06:21.000Z</time>
      </trkpt>
      <trkpt lat="48.67107" lon="1.87121">
        <ele>174.60000610352</ele>
        <time>2011-04-16T12:06:29.000Z</time>
      </trkpt>
      <trkpt lat="48.67111" lon="1.87118">
        <ele>175</ele>
        <time>2011-04-16T12:06:34.000Z</time>
      </trkpt>
      <trkpt lat="48.67119" lon="1.87113">
        <ele>175</ele>
        <time>2011-04-16T12:06:41.000Z</time>
      </trkpt>
      <trkpt lat="48.67127" lon="1.87109">
        <ele>174.19999694824</ele>
        <time>2011-04-16T12:06:47.000Z</time>
      </trkpt>
      <trkpt lat="48.67138" lon="1.87102">
        <ele>173.19999694824</ele>
        <time>2011-04-16T12:06:55.000Z</time>
      </trkpt>
      <trkpt lat="48.67146" lon="1.87096">
        <ele>173.19999694824</ele>
        <time>2011-04-16T12:07:02.000Z</time>
      </trkpt>
      <trkpt lat="48.67156" lon="1.8709">
        <ele>173.60000610352</ele>
        <time>2011-04-16T12:07:09.000Z</time>
      </trkpt>
      <trkpt lat="48.67169" lon="1.87085">
        <ele>171.19999694824</ele>
        <time>2011-04-16T12:07:18.000Z</time>
      </trkpt>
      <trkpt lat="48.67181" lon="1.87078">
        <ele>173.19999694824</ele>
        <time>2011-04-16T12:07:26.000Z</time>
      </trkpt>
      <trkpt lat="48.67189" lon="1.87072">
        <ele>174.60000610352</ele>
        <time>2011-04-16T12:07:34.000Z</time>
      </trkpt>
      <trkpt lat="48.67195" lon="1.87068">
        <ele>175.60000610352</ele>
        <time>2011-04-16T12:07:39.000Z</time>
      </trkpt>
      <trkpt lat="48.67204" lon="1.87058">
        <ele>175.60000610352</ele>
        <time>2011-04-16T12:07:47.000Z</time>
      </trkpt>
      <trkpt lat="48.67214" lon="1.8705">
        <ele>176</ele>
        <time>2011-04-16T12:07:54.000Z</time>
      </trkpt>
      <trkpt lat="48.67223" lon="1.87043">
        <ele>176</ele>
        <time>2011-04-16T12:08:01.000Z</time>
      </trkpt>
      <trkpt lat="48.67225" lon="1.87042">
        <ele>176</ele>
        <time>2011-04-16T12:08:05.000Z</time>
      </trkpt>
      <trkpt lat="48.67238" lon="1.87033">
        <ele>175.60000610352</ele>
        <time>2011-04-16T12:08:26.000Z</time>
      </trkpt>
      <trkpt lat="48.6725" lon="1.87021">
        <ele>181.80000305176</ele>
        <time>2011-04-16T12:08:34.000Z</time>
      </trkpt>
      <trkpt lat="48.67261" lon="1.87014">
        <ele>180.80000305176</ele>
        <time>2011-04-16T12:08:42.000Z</time>
      </trkpt>
      <trkpt lat="48.67273" lon="1.87014">
        <ele>177.60000610352</ele>
        <time>2011-04-16T12:08:50.000Z</time>
      </trkpt>
      <trkpt lat="48.67284" lon="1.8702">
        <ele>171.80000305176</ele>
        <time>2011-04-16T12:08:57.000Z</time>
      </trkpt>
      <trkpt lat="48.67292" lon="1.87023">
        <ele>170.19999694824</ele>
        <time>2011-04-16T12:09:03.000Z</time>
      </trkpt>
      <trkpt lat="48.67293" lon="1.87024">
        <ele>168.39999389648</ele>
        <time>2011-04-16T12:09:07.000Z</time>
      </trkpt>
      <trkpt lat="48.67301" lon="1.87027">
        <ele>167.80000305176</ele>
        <time>2011-04-16T12:09:17.000Z</time>
      </trkpt>
      <trkpt lat="48.6731" lon="1.8703">
        <ele>166.39999389648</ele>
        <time>2011-04-16T12:09:23.000Z</time>
      </trkpt>
      <trkpt lat="48.67321" lon="1.87034">
        <ele>165.39999389648</ele>
        <time>2011-04-16T12:09:31.000Z</time>
      </trkpt>
      <trkpt lat="48.67329" lon="1.87035">
        <ele>165.39999389648</ele>
        <time>2011-04-16T12:09:37.000Z</time>
      </trkpt>
      <trkpt lat="48.67338" lon="1.87037">
        <ele>167</ele>
        <time>2011-04-16T12:09:44.000Z</time>
      </trkpt>
      <trkpt lat="48.67345" lon="1.8704">
        <ele>166.39999389648</ele>
        <time>2011-04-16T12:09:49.000Z</time>
      </trkpt>
      <trkpt lat="48.67352" lon="1.87045">
        <ele>165.39999389648</ele>
        <time>2011-04-16T12:09:55.000Z</time>
      </trkpt>
      <trkpt lat="48.67365" lon="1.87046">
        <ele>169.80000305176</ele>
        <time>2011-04-16T12:10:04.000Z</time>
      </trkpt>
      <trkpt lat="48.67376" lon="1.8705">
        <ele>169.39999389648</ele>
        <time>2011-04-16T12:10:11.000Z</time>
      </trkpt>
      <trkpt lat="48.67386" lon="1.87052">
        <ele>171.19999694824</ele>
        <time>2011-04-16T12:10:19.000Z</time>
      </trkpt>
      <trkpt lat="48.67388" lon="1.87053">
        <ele>168.80000305176</ele>
        <time>2011-04-16T12:10:23.000Z</time>
      </trkpt>
      <trkpt lat="48.67395" lon="1.87057">
        <ele>167.39999389648</ele>
        <time>2011-04-16T12:10:32.000Z</time>
      </trkpt>
      <trkpt lat="48.67407" lon="1.87061">
        <ele>170.19999694824</ele>
        <time>2011-04-16T12:10:40.000Z</time>
      </trkpt>
      <trkpt lat="48.67415" lon="1.87062">
        <ele>173.60000610352</ele>
        <time>2011-04-16T12:10:47.000Z</time>
      </trkpt>
      <trkpt lat="48.67417" lon="1.87061">
        <ele>174.60000610352</ele>
        <time>2011-04-16T12:10:51.000Z</time>
      </trkpt>
      <trkpt lat="48.67426" lon="1.87064">
        <ele>172.19999694824</ele>
        <time>2011-04-16T12:11:10.000Z</time>
      </trkpt>
      <trkpt lat="48.67437" lon="1.87067">
        <ele>172.60000610352</ele>
        <time>2011-04-16T12:11:17.000Z</time>
      </trkpt>
      <trkpt lat="48.67449" lon="1.87071">
        <ele>173.60000610352</ele>
        <time>2011-04-16T12:11:24.000Z</time>
      </trkpt>
      <trkpt lat="48.67456" lon="1.87075">
        <ele>172.60000610352</ele>
        <time>2011-04-16T12:11:29.000Z</time>
      </trkpt>
      <trkpt lat="48.67464" lon="1.87081">
        <ele>173.60000610352</ele>
        <time>2011-04-16T12:11:34.000Z</time>
      </trkpt>
      <trkpt lat="48.6747" lon="1.87084">
        <ele>173.60000610352</ele>
        <time>2011-04-16T12:11:40.000Z</time>
      </trkpt>
      <trkpt lat="48.67473" lon="1.87079">
        <ele>174.19999694824</ele>
        <time>2011-04-16T12:11:47.000Z</time>
      </trkpt>
      <trkpt lat="48.67472" lon="1.87071">
        <ele>176</ele>
        <time>2011-04-16T12:12:06.000Z</time>
      </trkpt>
      <trkpt lat="48.67473" lon="1.87061">
        <ele>174.60000610352</ele>
        <time>2011-04-16T12:12:11.000Z</time>
      </trkpt>
      <trkpt lat="48.67475" lon="1.87058">
        <ele>173.19999694824</ele>
        <time>2011-04-16T12:12:14.000Z</time>
      </trkpt>
      <trkpt lat="48.67481" lon="1.8706">
        <ele>168.80000305176</ele>
        <time>2011-04-16T12:12:19.000Z</time>
      </trkpt>
      <trkpt lat="48.67493" lon="1.8707">
        <ele>166.39999389648</ele>
        <time>2011-04-16T12:12:28.000Z</time>
      </trkpt>
      <trkpt lat="48.67503" lon="1.87076">
        <ele>166.39999389648</ele>
        <time>2011-04-16T12:12:35.000Z</time>
      </trkpt>
      <trkpt lat="48.67513" lon="1.87077">
        <ele>168.39999389648</ele>
        <time>2011-04-16T12:12:41.000Z</time>
      </trkpt>
      <trkpt lat="48.67524" lon="1.87081">
        <ele>166.39999389648</ele>
        <time>2011-04-16T12:12:48.000Z</time>
      </trkpt>
      <trkpt lat="48.67532" lon="1.87083">
        <ele>165.39999389648</ele>
        <time>2011-04-16T12:12:54.000Z</time>
      </trkpt>
      <trkpt lat="48.67541" lon="1.87087">
        <ele>166.39999389648</ele>
        <time>2011-04-16T12:13:00.000Z</time>
      </trkpt>
      <trkpt lat="48.67546" lon="1.87089">
        <ele>167</ele>
        <time>2011-04-16T12:13:05.000Z</time>
      </trkpt>
      <trkpt lat="48.67558" lon="1.87091">
        <ele>171.80000305176</ele>
        <time>2011-04-16T12:13:30.000Z</time>
      </trkpt>
      <trkpt lat="48.67563" lon="1.87093">
        <ele>172.19999694824</ele>
        <time>2011-04-16T12:13:35.000Z</time>
      </trkpt>
      <trkpt lat="48.67568" lon="1.87095">
        <ele>171.80000305176</ele>
        <time>2011-04-16T12:13:40.000Z</time>
      </trkpt>
      <trkpt lat="48.67569" lon="1.87095">
        <ele>171.19999694824</ele>
        <time>2011-04-16T12:13:43.000Z</time>
      </trkpt>
      <trkpt lat="48.67579" lon="1.87098">
        <ele>169.80000305176</ele>
        <time>2011-04-16T12:14:03.000Z</time>
      </trkpt>
      <trkpt lat="48.67584" lon="1.871">
        <ele>168.80000305176</ele>
        <time>2011-04-16T12:14:08.000Z</time>
      </trkpt>
      <trkpt lat="48.67592" lon="1.87103">
        <ele>167</ele>
        <time>2011-04-16T12:14:36.000Z</time>
      </trkpt>
      <trkpt lat="48.676" lon="1.87104">
        <ele>168.80000305176</ele>
        <time>2011-04-16T12:14:43.000Z</time>
      </trkpt>
      <trkpt lat="48.67605" lon="1.87106">
        <ele>168.39999389648</ele>
        <time>2011-04-16T12:14:48.000Z</time>
      </trkpt>
      <trkpt lat="48.67615" lon="1.87109">
        <ele>168.39999389648</ele>
        <time>2011-04-16T12:14:56.000Z</time>
      </trkpt>
      <trkpt lat="48.67623" lon="1.87112">
        <ele>167.80000305176</ele>
        <time>2011-04-16T12:15:03.000Z</time>
      </trkpt>
      <trkpt lat="48.67634" lon="1.87115">
        <ele>167</ele>
        <time>2011-04-16T12:15:11.000Z</time>
      </trkpt>
      <trkpt lat="48.67642" lon="1.87118">
        <ele>165.39999389648</ele>
        <time>2011-04-16T12:15:17.000Z</time>
      </trkpt>
      <trkpt lat="48.67648" lon="1.87119">
        <ele>165</ele>
        <time>2011-04-16T12:15:21.000Z</time>
      </trkpt>
      <trkpt lat="48.67649" lon="1.87119">
        <ele>165</ele>
        <time>2011-04-16T12:15:25.000Z</time>
      </trkpt>
      <trkpt lat="48.67662" lon="1.87124">
        <ele>164</ele>
        <time>2011-04-16T12:15:42.000Z</time>
      </trkpt>
      <trkpt lat="48.67665" lon="1.87126">
        <ele>164</ele>
        <time>2011-04-16T12:15:45.000Z</time>
      </trkpt>
      <trkpt lat="48.6767" lon="1.87127">
        <ele>164</ele>
        <time>2011-04-16T12:15:51.000Z</time>
      </trkpt>
      <trkpt lat="48.6768" lon="1.87128">
        <ele>164</ele>
        <time>2011-04-16T12:15:58.000Z</time>
      </trkpt>
      <trkpt lat="48.6769" lon="1.87126">
        <ele>164</ele>
        <time>2011-04-16T12:16:04.000Z</time>
      </trkpt>
      <trkpt lat="48.67702" lon="1.87124">
        <ele>162.60000610352</ele>
        <time>2011-04-16T12:16:13.000Z</time>
      </trkpt>
      <trkpt lat="48.67718" lon="1.8712">
        <ele>163</ele>
        <time>2011-04-16T12:16:24.000Z</time>
      </trkpt>
      <trkpt lat="48.6773" lon="1.87116">
        <ele>165</ele>
        <time>2011-04-16T12:16:32.000Z</time>
      </trkpt>
      <trkpt lat="48.67736" lon="1.87112">
        <ele>166.39999389648</ele>
        <time>2011-04-16T12:16:38.000Z</time>
      </trkpt>
      <trkpt lat="48.67741" lon="1.87119">
        <ele>166</ele>
        <time>2011-04-16T12:16:44.000Z</time>
      </trkpt>
      <trkpt lat="48.67741" lon="1.87124">
        <ele>166.39999389648</ele>
        <time>2011-04-16T12:16:46.000Z</time>
      </trkpt>
      <trkpt lat="48.67741" lon="1.87141">
        <ele>166</ele>
        <time>2011-04-16T12:16:54.000Z</time>
      </trkpt>
      <trkpt lat="48.67741" lon="1.87143">
        <ele>166</ele>
        <time>2011-04-16T12:16:55.000Z</time>
      </trkpt>
      <trkpt lat="48.67745" lon="1.87144">
        <ele>166.39999389648</ele>
        <time>2011-04-16T12:17:00.000Z</time>
      </trkpt>
      <trkpt lat="48.67749" lon="1.87144">
        <ele>166.39999389648</ele>
        <time>2011-04-16T12:17:04.000Z</time>
      </trkpt>
      <trkpt lat="48.67758" lon="1.87141">
        <ele>167</ele>
        <time>2011-04-16T12:17:10.000Z</time>
      </trkpt>
      <trkpt lat="48.6777" lon="1.87136">
        <ele>166</ele>
        <time>2011-04-16T12:17:18.000Z</time>
      </trkpt>
      <trkpt lat="48.67778" lon="1.87134">
        <ele>165.39999389648</ele>
        <time>2011-04-16T12:17:25.000Z</time>
      </trkpt>
      <trkpt lat="48.67778" lon="1.87134">
        <ele>165.39999389648</ele>
        <time>2011-04-16T12:17:26.000Z</time>
      </trkpt>
      <trkpt lat="48.67783" lon="1.87133">
        <ele>165.39999389648</ele>
        <time>2011-04-16T12:17:32.000Z</time>
      </trkpt>
      <trkpt lat="48.67794" lon="1.87132">
        <ele>166</ele>
        <time>2011-04-16T12:17:38.000Z</time>
      </trkpt>
      <trkpt lat="48.67808" lon="1.87132">
        <ele>163</ele>
        <time>2011-04-16T12:17:47.000Z</time>
      </trkpt>
      <trkpt lat="48.67822" lon="1.87131">
        <ele>163</ele>
        <time>2011-04-16T12:17:58.000Z</time>
      </trkpt>
      <trkpt lat="48.67822" lon="1.8713">
        <ele>163.60000610352</ele>
        <time>2011-04-16T12:18:00.000Z</time>
      </trkpt>
      <trkpt lat="48.67828" lon="1.87128">
        <ele>167</ele>
        <time>2011-04-16T12:18:11.000Z</time>
      </trkpt>
      <trkpt lat="48.6784" lon="1.87127">
        <ele>166.39999389648</ele>
        <time>2011-04-16T12:18:19.000Z</time>
      </trkpt>
      <trkpt lat="48.67849" lon="1.87126">
        <ele>167</ele>
        <time>2011-04-16T12:18:26.000Z</time>
      </trkpt>
      <trkpt lat="48.67857" lon="1.87124">
        <ele>167.39999389648</ele>
        <time>2011-04-16T12:18:35.000Z</time>
      </trkpt>
      <trkpt lat="48.67861" lon="1.87124">
        <ele>167</ele>
        <time>2011-04-16T12:18:39.000Z</time>
      </trkpt>
      <trkpt lat="48.67861" lon="1.87124">
        <ele>167.39999389648</ele>
        <time>2011-04-16T12:18:41.000Z</time>
      </trkpt>
      <trkpt lat="48.67869" lon="1.87123">
        <ele>169.80000305176</ele>
        <time>2011-04-16T12:19:07.000Z</time>
      </trkpt>
      <trkpt lat="48.67875" lon="1.87122">
        <ele>169.80000305176</ele>
        <time>2011-04-16T12:19:12.000Z</time>
      </trkpt>
      <trkpt lat="48.67875" lon="1.87122">
        <ele>170.19999694824</ele>
        <time>2011-04-16T12:19:14.000Z</time>
      </trkpt>
      <trkpt lat="48.67884" lon="1.8712">
        <ele>173.60000610352</ele>
        <time>2011-04-16T12:19:49.000Z</time>
      </trkpt>
      <trkpt lat="48.67898" lon="1.8712">
        <ele>171.80000305176</ele>
        <time>2011-04-16T12:19:59.000Z</time>
      </trkpt>
      <trkpt lat="48.67898" lon="1.8712">
        <ele>171.80000305176</ele>
        <time>2011-04-16T12:20:00.000Z</time>
      </trkpt>
      <trkpt lat="48.67904" lon="1.87119">
        <ele>171.19999694824</ele>
        <time>2011-04-16T12:20:08.000Z</time>
      </trkpt>
      <trkpt lat="48.67914" lon="1.87118">
        <ele>171.19999694824</ele>
        <time>2011-04-16T12:20:15.000Z</time>
      </trkpt>
      <trkpt lat="48.67924" lon="1.87116">
        <ele>170.80000305176</ele>
        <time>2011-04-16T12:20:23.000Z</time>
      </trkpt>
      <trkpt lat="48.67933" lon="1.87115">
        <ele>169.80000305176</ele>
        <time>2011-04-16T12:20:30.000Z</time>
      </trkpt>
      <trkpt lat="48.67942" lon="1.87111">
        <ele>169.80000305176</ele>
        <time>2011-04-16T12:20:37.000Z</time>
      </trkpt>
      <trkpt lat="48.67943" lon="1.87111">
        <ele>169.80000305176</ele>
        <time>2011-04-16T12:20:41.000Z</time>
      </trkpt>
      <trkpt lat="48.67946" lon="1.87112">
        <ele>167.39999389648</ele>
        <time>2011-04-16T12:20:47.000Z</time>
      </trkpt>
      <trkpt lat="48.67949" lon="1.87113">
        <ele>167</ele>
        <time>2011-04-16T12:20:50.000Z</time>
      </trkpt>
      <trkpt lat="48.6795" lon="1.87113">
        <ele>167</ele>
        <time>2011-04-16T12:20:51.000Z</time>
      </trkpt>
      <trkpt lat="48.67958" lon="1.87109">
        <ele>168.80000305176</ele>
        <time>2011-04-16T12:20:57.000Z</time>
      </trkpt>
      <trkpt lat="48.67974" lon="1.87105">
        <ele>169.39999389648</ele>
        <time>2011-04-16T12:21:08.000Z</time>
      </trkpt>
      <trkpt lat="48.6799" lon="1.87099">
        <ele>170.80000305176</ele>
        <time>2011-04-16T12:21:19.000Z</time>
      </trkpt>
      <trkpt lat="48.68005" lon="1.87096">
        <ele>167.80000305176</ele>
        <time>2011-04-16T12:21:29.000Z</time>
      </trkpt>
      <trkpt lat="48.68007" lon="1.87095">
        <ele>167.80000305176</ele>
        <time>2011-04-16T12:21:33.000Z</time>
      </trkpt>
      <trkpt lat="48.68013" lon="1.87094">
        <ele>167</ele>
        <time>2011-04-16T12:21:44.000Z</time>
      </trkpt>
      <trkpt lat="48.68026" lon="1.87092">
        <ele>167.39999389648</ele>
        <time>2011-04-16T12:21:52.000Z</time>
      </trkpt>
      <trkpt lat="48.68033" lon="1.87091">
        <ele>167</ele>
        <time>2011-04-16T12:21:59.000Z</time>
      </trkpt>
      <trkpt lat="48.68033" lon="1.87091">
        <ele>167</ele>
        <time>2011-04-16T12:22:00.000Z</time>
      </trkpt>
      <trkpt lat="48.68044" lon="1.8709">
        <ele>175</ele>
        <time>2011-04-16T12:22:19.000Z</time>
      </trkpt>
      <trkpt lat="48.68054" lon="1.87088">
        <ele>173.19999694824</ele>
        <time>2011-04-16T12:22:25.000Z</time>
      </trkpt>
      <trkpt lat="48.68059" lon="1.87083">
        <ele>171.19999694824</ele>
        <time>2011-04-16T12:22:31.000Z</time>
      </trkpt>
      <trkpt lat="48.68061" lon="1.8708">
        <ele>171.19999694824</ele>
        <time>2011-04-16T12:22:34.000Z</time>
      </trkpt>
      <trkpt lat="48.6807" lon="1.87073">
        <ele>171.80000305176</ele>
        <time>2011-04-16T12:22:42.000Z</time>
      </trkpt>
      <trkpt lat="48.68079" lon="1.87077">
        <ele>169.80000305176</ele>
        <time>2011-04-16T12:22:49.000Z</time>
      </trkpt>
      <trkpt lat="48.68085" lon="1.87091">
        <ele>166.39999389648</ele>
        <time>2011-04-16T12:22:56.000Z</time>
      </trkpt>
      <trkpt lat="48.6809" lon="1.87102">
        <ele>166</ele>
        <time>2011-04-16T12:23:03.000Z</time>
      </trkpt>
      <trkpt lat="48.6809" lon="1.87102">
        <ele>166</ele>
        <time>2011-04-16T12:23:05.000Z</time>
      </trkpt>
      <trkpt lat="48.68096" lon="1.87115">
        <ele>165.39999389648</ele>
        <time>2011-04-16T12:23:42.000Z</time>
      </trkpt>
      <trkpt lat="48.68099" lon="1.87125">
        <ele>165</ele>
        <time>2011-04-16T12:23:46.000Z</time>
      </trkpt>
      <trkpt lat="48.68104" lon="1.87145">
        <ele>165</ele>
        <time>2011-04-16T12:23:56.000Z</time>
      </trkpt>
      <trkpt lat="48.68108" lon="1.87156">
        <ele>165</ele>
        <time>2011-04-16T12:24:03.000Z</time>
      </trkpt>
      <trkpt lat="48.68111" lon="1.87162">
        <ele>165</ele>
        <time>2011-04-16T12:24:07.000Z</time>
      </trkpt>
      <trkpt lat="48.68114" lon="1.87172">
        <ele>165</ele>
        <time>2011-04-16T12:24:13.000Z</time>
      </trkpt>
      <trkpt lat="48.68119" lon="1.87187">
        <ele>165</ele>
        <time>2011-04-16T12:24:20.000Z</time>
      </trkpt>
      <trkpt lat="48.68125" lon="1.872">
        <ele>165.39999389648</ele>
        <time>2011-04-16T12:24:28.000Z</time>
      </trkpt>
      <trkpt lat="48.68128" lon="1.87209">
        <ele>165</ele>
        <time>2011-04-16T12:24:34.000Z</time>
      </trkpt>
      <trkpt lat="48.68135" lon="1.87227">
        <ele>164.60000610352</ele>
        <time>2011-04-16T12:24:44.000Z</time>
      </trkpt>
      <trkpt lat="48.68139" lon="1.87241">
        <ele>165</ele>
        <time>2011-04-16T12:24:51.000Z</time>
      </trkpt>
      <trkpt lat="48.68143" lon="1.87253">
        <ele>165</ele>
        <time>2011-04-16T12:24:58.000Z</time>
      </trkpt>
      <trkpt lat="48.68145" lon="1.87258">
        <ele>164.60000610352</ele>
        <time>2011-04-16T12:25:01.000Z</time>
      </trkpt>
      <trkpt lat="48.68151" lon="1.87274">
        <ele>164.60000610352</ele>
        <time>2011-04-16T12:25:09.000Z</time>
      </trkpt>
      <trkpt lat="48.68152" lon="1.87278">
        <ele>164.60000610352</ele>
        <time>2011-04-16T12:25:13.000Z</time>
      </trkpt>
      <trkpt lat="48.68156" lon="1.87289">
        <ele>165</ele>
        <time>2011-04-16T12:25:19.000Z</time>
      </trkpt>
      <trkpt lat="48.68156" lon="1.8729">
        <ele>165.39999389648</ele>
        <time>2011-04-16T12:25:22.000Z</time>
      </trkpt>
      <trkpt lat="48.68158" lon="1.87295">
        <ele>165.39999389648</ele>
        <time>2011-04-16T12:25:26.000Z</time>
      </trkpt>
      <trkpt lat="48.68165" lon="1.87313">
        <ele>166</ele>
        <time>2011-04-16T12:25:34.000Z</time>
      </trkpt>
      <trkpt lat="48.68168" lon="1.87322">
        <ele>166</ele>
        <time>2011-04-16T12:25:39.000Z</time>
      </trkpt>
      <trkpt lat="48.68174" lon="1.87336">
        <ele>166</ele>
        <time>2011-04-16T12:25:46.000Z</time>
      </trkpt>
      <trkpt lat="48.68179" lon="1.8735">
        <ele>165.39999389648</ele>
        <time>2011-04-16T12:25:53.000Z</time>
      </trkpt>
      <trkpt lat="48.68183" lon="1.87366">
        <ele>166</ele>
        <time>2011-04-16T12:26:01.000Z</time>
      </trkpt>
      <trkpt lat="48.68188" lon="1.87378">
        <ele>165.39999389648</ele>
        <time>2011-04-16T12:26:08.000Z</time>
      </trkpt>
      <trkpt lat="48.68193" lon="1.8739">
        <ele>166.39999389648</ele>
        <time>2011-04-16T12:26:14.000Z</time>
      </trkpt>
      <trkpt lat="48.68195" lon="1.87405">
        <ele>166.39999389648</ele>
        <time>2011-04-16T12:26:21.000Z</time>
      </trkpt>
      <trkpt lat="48.68196" lon="1.87408">
        <ele>166.39999389648</ele>
        <time>2011-04-16T12:26:25.000Z</time>
      </trkpt>
      <trkpt lat="48.68198" lon="1.87414">
        <ele>166</ele>
        <time>2011-04-16T12:26:31.000Z</time>
      </trkpt>
      <trkpt lat="48.68201" lon="1.87421">
        <ele>166</ele>
        <time>2011-04-16T12:26:34.000Z</time>
      </trkpt>
      <trkpt lat="48.68208" lon="1.87429">
        <ele>166</ele>
        <time>2011-04-16T12:26:41.000Z</time>
      </trkpt>
      <trkpt lat="48.6821" lon="1.87435">
        <ele>166</ele>
        <time>2011-04-16T12:26:44.000Z</time>
      </trkpt>
      <trkpt lat="48.68215" lon="1.87451">
        <ele>166</ele>
        <time>2011-04-16T12:26:49.000Z</time>
      </trkpt>
      <trkpt lat="48.6822" lon="1.87463">
        <ele>166.39999389648</ele>
        <time>2011-04-16T12:26:54.000Z</time>
      </trkpt>
      <trkpt lat="48.68222" lon="1.8747">
        <ele>166.39999389648</ele>
        <time>2011-04-16T12:26:59.000Z</time>
      </trkpt>
      <trkpt lat="48.68227" lon="1.87482">
        <ele>166</ele>
        <time>2011-04-16T12:27:06.000Z</time>
      </trkpt>
      <trkpt lat="48.68229" lon="1.87485">
        <ele>166</ele>
        <time>2011-04-16T12:27:11.000Z</time>
      </trkpt>
      <trkpt lat="48.68232" lon="1.87492">
        <ele>166.39999389648</ele>
        <time>2011-04-16T12:27:18.000Z</time>
      </trkpt>
      <trkpt lat="48.68239" lon="1.87512">
        <ele>166</ele>
        <time>2011-04-16T12:27:27.000Z</time>
      </trkpt>
      <trkpt lat="48.68242" lon="1.87519">
        <ele>166</ele>
        <time>2011-04-16T12:27:32.000Z</time>
      </trkpt>
      <trkpt lat="48.68247" lon="1.87534">
        <ele>166.39999389648</ele>
        <time>2011-04-16T12:27:40.000Z</time>
      </trkpt>
      <trkpt lat="48.68249" lon="1.87539">
        <ele>167</ele>
        <time>2011-04-16T12:27:43.000Z</time>
      </trkpt>
      <trkpt lat="48.68252" lon="1.8755">
        <ele>167</ele>
        <time>2011-04-16T12:27:49.000Z</time>
      </trkpt>
      <trkpt lat="48.68259" lon="1.87565">
        <ele>166.39999389648</ele>
        <time>2011-04-16T12:27:58.000Z</time>
      </trkpt>
      <trkpt lat="48.68264" lon="1.87579">
        <ele>166.39999389648</ele>
        <time>2011-04-16T12:28:05.000Z</time>
      </trkpt>
      <trkpt lat="48.68268" lon="1.87592">
        <ele>167</ele>
        <time>2011-04-16T12:28:12.000Z</time>
      </trkpt>
      <trkpt lat="48.68275" lon="1.87611">
        <ele>167.39999389648</ele>
        <time>2011-04-16T12:28:22.000Z</time>
      </trkpt>
      <trkpt lat="48.6828" lon="1.87624">
        <ele>167.39999389648</ele>
        <time>2011-04-16T12:28:29.000Z</time>
      </trkpt>
      <trkpt lat="48.68285" lon="1.87634">
        <ele>167.39999389648</ele>
        <time>2011-04-16T12:28:36.000Z</time>
      </trkpt>
      <trkpt lat="48.68289" lon="1.87647">
        <ele>167.39999389648</ele>
        <time>2011-04-16T12:28:42.000Z</time>
      </trkpt>
      <trkpt lat="48.68293" lon="1.87661">
        <ele>167.80000305176</ele>
        <time>2011-04-16T12:28:49.000Z</time>
      </trkpt>
      <trkpt lat="48.68297" lon="1.87673">
        <ele>167.39999389648</ele>
        <time>2011-04-16T12:28:56.000Z</time>
      </trkpt>
      <trkpt lat="48.68301" lon="1.87683">
        <ele>167.80000305176</ele>
        <time>2011-04-16T12:29:01.000Z</time>
      </trkpt>
      <trkpt lat="48.68306" lon="1.87699">
        <ele>168.39999389648</ele>
        <time>2011-04-16T12:29:10.000Z</time>
      </trkpt>
      <trkpt lat="48.68311" lon="1.87713">
        <ele>168.39999389648</ele>
        <time>2011-04-16T12:29:18.000Z</time>
      </trkpt>
      <trkpt lat="48.68315" lon="1.87721">
        <ele>168.39999389648</ele>
        <time>2011-04-16T12:29:24.000Z</time>
      </trkpt>
      <trkpt lat="48.68317" lon="1.87726">
        <ele>168.39999389648</ele>
        <time>2011-04-16T12:29:27.000Z</time>
      </trkpt>
      <trkpt lat="48.6832" lon="1.87738">
        <ele>168.39999389648</ele>
        <time>2011-04-16T12:29:34.000Z</time>
      </trkpt>
      <trkpt lat="48.68324" lon="1.87751">
        <ele>168.39999389648</ele>
        <time>2011-04-16T12:29:40.000Z</time>
      </trkpt>
      <trkpt lat="48.68331" lon="1.87772">
        <ele>168.80000305176</ele>
        <time>2011-04-16T12:29:51.000Z</time>
      </trkpt>
      <trkpt lat="48.68336" lon="1.87782">
        <ele>168.80000305176</ele>
        <time>2011-04-16T12:29:57.000Z</time>
      </trkpt>
      <trkpt lat="48.68336" lon="1.87793">
        <ele>168.80000305176</ele>
        <time>2011-04-16T12:30:03.000Z</time>
      </trkpt>
      <trkpt lat="48.68341" lon="1.878">
        <ele>168.80000305176</ele>
        <time>2011-04-16T12:30:08.000Z</time>
      </trkpt>
      <trkpt lat="48.68347" lon="1.87813">
        <ele>167.80000305176</ele>
        <time>2011-04-16T12:30:16.000Z</time>
      </trkpt>
      <trkpt lat="48.68352" lon="1.87828">
        <ele>166.39999389648</ele>
        <time>2011-04-16T12:30:24.000Z</time>
      </trkpt>
      <trkpt lat="48.68357" lon="1.87845">
        <ele>165</ele>
        <time>2011-04-16T12:30:33.000Z</time>
      </trkpt>
      <trkpt lat="48.68363" lon="1.87862">
        <ele>165</ele>
        <time>2011-04-16T12:30:42.000Z</time>
      </trkpt>
      <trkpt lat="48.68369" lon="1.87877">
        <ele>165</ele>
        <time>2011-04-16T12:30:50.000Z</time>
      </trkpt>
      <trkpt lat="48.68371" lon="1.87888">
        <ele>164.60000610352</ele>
        <time>2011-04-16T12:30:56.000Z</time>
      </trkpt>
      <trkpt lat="48.68377" lon="1.87904">
        <ele>164.60000610352</ele>
        <time>2011-04-16T12:31:04.000Z</time>
      </trkpt>
      <trkpt lat="48.68382" lon="1.87916">
        <ele>163</ele>
        <time>2011-04-16T12:31:10.000Z</time>
      </trkpt>
      <trkpt lat="48.68388" lon="1.87931">
        <ele>162.19999694824</ele>
        <time>2011-04-16T12:31:18.000Z</time>
      </trkpt>
      <trkpt lat="48.68394" lon="1.87946">
        <ele>163</ele>
        <time>2011-04-16T12:31:27.000Z</time>
      </trkpt>
      <trkpt lat="48.684" lon="1.87962">
        <ele>163.60000610352</ele>
        <time>2011-04-16T12:31:36.000Z</time>
      </trkpt>
      <trkpt lat="48.68404" lon="1.87972">
        <ele>163.60000610352</ele>
        <time>2011-04-16T12:31:43.000Z</time>
      </trkpt>
      <trkpt lat="48.68404" lon="1.87973">
        <ele>163.60000610352</ele>
        <time>2011-04-16T12:31:44.000Z</time>
      </trkpt>
      <trkpt lat="48.68409" lon="1.87986">
        <ele>164.60000610352</ele>
        <time>2011-04-16T12:31:52.000Z</time>
      </trkpt>
      <trkpt lat="48.68409" lon="1.87988">
        <ele>164.60000610352</ele>
        <time>2011-04-16T12:31:53.000Z</time>
      </trkpt>
      <trkpt lat="48.68413" lon="1.87995">
        <ele>165</ele>
        <time>2011-04-16T12:31:57.000Z</time>
      </trkpt>
      <trkpt lat="48.68416" lon="1.88003">
        <ele>165</ele>
        <time>2011-04-16T12:32:04.000Z</time>
      </trkpt>
      <trkpt lat="48.68421" lon="1.88017">
        <ele>166.39999389648</ele>
        <time>2011-04-16T12:32:11.000Z</time>
      </trkpt>
      <trkpt lat="48.68426" lon="1.88028">
        <ele>166.39999389648</ele>
        <time>2011-04-16T12:32:18.000Z</time>
      </trkpt>
      <trkpt lat="48.6843" lon="1.88037">
        <ele>167.39999389648</ele>
        <time>2011-04-16T12:32:25.000Z</time>
      </trkpt>
      <trkpt lat="48.68434" lon="1.88052">
        <ele>166</ele>
        <time>2011-04-16T12:32:33.000Z</time>
      </trkpt>
      <trkpt lat="48.68438" lon="1.88064">
        <ele>166</ele>
        <time>2011-04-16T12:32:40.000Z</time>
      </trkpt>
      <trkpt lat="48.68441" lon="1.88074">
        <ele>166</ele>
        <time>2011-04-16T12:32:46.000Z</time>
      </trkpt>
      <trkpt lat="48.68444" lon="1.8808">
        <ele>167</ele>
        <time>2011-04-16T12:32:50.000Z</time>
      </trkpt>
      <trkpt lat="48.68449" lon="1.88093">
        <ele>167</ele>
        <time>2011-04-16T12:32:57.000Z</time>
      </trkpt>
      <trkpt lat="48.68452" lon="1.881">
        <ele>166.39999389648</ele>
        <time>2011-04-16T12:33:03.000Z</time>
      </trkpt>
      <trkpt lat="48.68454" lon="1.88104">
        <ele>165.39999389648</ele>
        <time>2011-04-16T12:33:07.000Z</time>
      </trkpt>
      <trkpt lat="48.6846" lon="1.88117">
        <ele>164.60000610352</ele>
        <time>2011-04-16T12:33:15.000Z</time>
      </trkpt>
      <trkpt lat="48.68462" lon="1.88121">
        <ele>164.60000610352</ele>
        <time>2011-04-16T12:33:17.000Z</time>
      </trkpt>
      <trkpt lat="48.68463" lon="1.88132">
        <ele>164</ele>
        <time>2011-04-16T12:33:23.000Z</time>
      </trkpt>
      <trkpt lat="48.68468" lon="1.88147">
        <ele>166.39999389648</ele>
        <time>2011-04-16T12:33:31.000Z</time>
      </trkpt>
      <trkpt lat="48.68473" lon="1.88161">
        <ele>168.80000305176</ele>
        <time>2011-04-16T12:33:38.000Z</time>
      </trkpt>
      <trkpt lat="48.68478" lon="1.88175">
        <ele>171.19999694824</ele>
        <time>2011-04-16T12:33:46.000Z</time>
      </trkpt>
      <trkpt lat="48.68483" lon="1.88185">
        <ele>172.19999694824</ele>
        <time>2011-04-16T12:33:53.000Z</time>
      </trkpt>
      <trkpt lat="48.68489" lon="1.882">
        <ele>171.19999694824</ele>
        <time>2011-04-16T12:34:00.000Z</time>
      </trkpt>
      <trkpt lat="48.68492" lon="1.88211">
        <ele>172.19999694824</ele>
        <time>2011-04-16T12:34:07.000Z</time>
      </trkpt>
      <trkpt lat="48.68493" lon="1.88212">
        <ele>172.60000610352</ele>
        <time>2011-04-16T12:34:08.000Z</time>
      </trkpt>
      <trkpt lat="48.68497" lon="1.88218">
        <ele>170.80000305176</ele>
        <time>2011-04-16T12:34:12.000Z</time>
      </trkpt>
      <trkpt lat="48.68501" lon="1.88228">
        <ele>169.39999389648</ele>
        <time>2011-04-16T12:34:18.000Z</time>
      </trkpt>
      <trkpt lat="48.68502" lon="1.8823">
        <ele>168.80000305176</ele>
        <time>2011-04-16T12:34:19.000Z</time>
      </trkpt>
      <trkpt lat="48.68504" lon="1.8824">
        <ele>169.39999389648</ele>
        <time>2011-04-16T12:34:24.000Z</time>
      </trkpt>
      <trkpt lat="48.68508" lon="1.88252">
        <ele>173.19999694824</ele>
        <time>2011-04-16T12:34:30.000Z</time>
      </trkpt>
      <trkpt lat="48.68513" lon="1.8827">
        <ele>171.80000305176</ele>
        <time>2011-04-16T12:34:39.000Z</time>
      </trkpt>
      <trkpt lat="48.68517" lon="1.88281">
        <ele>169.80000305176</ele>
        <time>2011-04-16T12:34:46.000Z</time>
      </trkpt>
      <trkpt lat="48.68523" lon="1.88294">
        <ele>169.39999389648</ele>
        <time>2011-04-16T12:34:53.000Z</time>
      </trkpt>
      <trkpt lat="48.68525" lon="1.88304">
        <ele>170.80000305176</ele>
        <time>2011-04-16T12:34:58.000Z</time>
      </trkpt>
      <trkpt lat="48.68526" lon="1.88306">
        <ele>170.19999694824</ele>
        <time>2011-04-16T12:34:59.000Z</time>
      </trkpt>
      <trkpt lat="48.68529" lon="1.88319">
        <ele>168.39999389648</ele>
        <time>2011-04-16T12:35:05.000Z</time>
      </trkpt>
      <trkpt lat="48.68531" lon="1.88327">
        <ele>167.39999389648</ele>
        <time>2011-04-16T12:35:09.000Z</time>
      </trkpt>
      <trkpt lat="48.68534" lon="1.88334">
        <ele>167</ele>
        <time>2011-04-16T12:35:13.000Z</time>
      </trkpt>
      <trkpt lat="48.68537" lon="1.88347">
        <ele>165.39999389648</ele>
        <time>2011-04-16T12:35:20.000Z</time>
      </trkpt>
      <trkpt lat="48.68542" lon="1.88364">
        <ele>165</ele>
        <time>2011-04-16T12:35:29.000Z</time>
      </trkpt>
      <trkpt lat="48.68548" lon="1.8838">
        <ele>169.39999389648</ele>
        <time>2011-04-16T12:35:36.000Z</time>
      </trkpt>
      <trkpt lat="48.68552" lon="1.88393">
        <ele>169.39999389648</ele>
        <time>2011-04-16T12:35:43.000Z</time>
      </trkpt>
      <trkpt lat="48.68557" lon="1.88404">
        <ele>169.80000305176</ele>
        <time>2011-04-16T12:35:50.000Z</time>
      </trkpt>
      <trkpt lat="48.68561" lon="1.88416">
        <ele>169.80000305176</ele>
        <time>2011-04-16T12:35:56.000Z</time>
      </trkpt>
      <trkpt lat="48.68565" lon="1.88426">
        <ele>166.39999389648</ele>
        <time>2011-04-16T12:36:02.000Z</time>
      </trkpt>
      <trkpt lat="48.6857" lon="1.88437">
        <ele>167.39999389648</ele>
        <time>2011-04-16T12:36:08.000Z</time>
      </trkpt>
      <trkpt lat="48.68573" lon="1.88452">
        <ele>168.39999389648</ele>
        <time>2011-04-16T12:36:16.000Z</time>
      </trkpt>
      <trkpt lat="48.68578" lon="1.88466">
        <ele>167.80000305176</ele>
        <time>2011-04-16T12:36:24.000Z</time>
      </trkpt>
      <trkpt lat="48.68582" lon="1.88477">
        <ele>167.80000305176</ele>
        <time>2011-04-16T12:36:30.000Z</time>
      </trkpt>
      <trkpt lat="48.68587" lon="1.88491">
        <ele>167</ele>
        <time>2011-04-16T12:36:37.000Z</time>
      </trkpt>
      <trkpt lat="48.6859" lon="1.88499">
        <ele>167.39999389648</ele>
        <time>2011-04-16T12:36:43.000Z</time>
      </trkpt>
      <trkpt lat="48.68593" lon="1.88512">
        <ele>169.80000305176</ele>
        <time>2011-04-16T12:36:50.000Z</time>
      </trkpt>
      <trkpt lat="48.68597" lon="1.8853">
        <ele>169.39999389648</ele>
        <time>2011-04-16T12:37:00.000Z</time>
      </trkpt>
      <trkpt lat="48.686" lon="1.88545">
        <ele>169.39999389648</ele>
        <time>2011-04-16T12:37:07.000Z</time>
      </trkpt>
      <trkpt lat="48.68601" lon="1.88559">
        <ele>170.80000305176</ele>
        <time>2011-04-16T12:37:13.000Z</time>
      </trkpt>
      <trkpt lat="48.68603" lon="1.88576">
        <ele>172.60000610352</ele>
        <time>2011-04-16T12:37:21.000Z</time>
      </trkpt>
      <trkpt lat="48.68604" lon="1.88584">
        <ele>172.60000610352</ele>
        <time>2011-04-16T12:37:25.000Z</time>
      </trkpt>
      <trkpt lat="48.68604" lon="1.88601">
        <ele>171.80000305176</ele>
        <time>2011-04-16T12:37:33.000Z</time>
      </trkpt>
      <trkpt lat="48.68605" lon="1.8861">
        <ele>172.19999694824</ele>
        <time>2011-04-16T12:37:37.000Z</time>
      </trkpt>
      <trkpt lat="48.68605" lon="1.88618">
        <ele>171.80000305176</ele>
        <time>2011-04-16T12:37:41.000Z</time>
      </trkpt>
      <trkpt lat="48.68605" lon="1.88634">
        <ele>171.80000305176</ele>
        <time>2011-04-16T12:37:50.000Z</time>
      </trkpt>
      <trkpt lat="48.68604" lon="1.88635">
        <ele>172.19999694824</ele>
        <time>2011-04-16T12:37:52.000Z</time>
      </trkpt>
      <trkpt lat="48.68604" lon="1.88647">
        <ele>175</ele>
        <time>2011-04-16T12:37:59.000Z</time>
      </trkpt>
      <trkpt lat="48.68604" lon="1.88649">
        <ele>175</ele>
        <time>2011-04-16T12:38:00.000Z</time>
      </trkpt>
      <trkpt lat="48.68604" lon="1.88665">
        <ele>175</ele>
        <time>2011-04-16T12:38:07.000Z</time>
      </trkpt>
      <trkpt lat="48.68603" lon="1.88679">
        <ele>173.19999694824</ele>
        <time>2011-04-16T12:38:14.000Z</time>
      </trkpt>
      <trkpt lat="48.68603" lon="1.88695">
        <ele>173.60000610352</ele>
        <time>2011-04-16T12:38:23.000Z</time>
      </trkpt>
      <trkpt lat="48.68606" lon="1.88708">
        <ele>174.19999694824</ele>
        <time>2011-04-16T12:38:30.000Z</time>
      </trkpt>
      <trkpt lat="48.68606" lon="1.88711">
        <ele>173.19999694824</ele>
        <time>2011-04-16T12:38:36.000Z</time>
      </trkpt>
      <trkpt lat="48.68605" lon="1.88738">
        <ele>176</ele>
        <time>2011-04-16T12:38:57.000Z</time>
      </trkpt>
      <trkpt lat="48.68605" lon="1.88755">
        <ele>173.19999694824</ele>
        <time>2011-04-16T12:39:05.000Z</time>
      </trkpt>
      <trkpt lat="48.68606" lon="1.88765">
        <ele>171.80000305176</ele>
        <time>2011-04-16T12:39:11.000Z</time>
      </trkpt>
      <trkpt lat="48.68605" lon="1.88778">
        <ele>173.19999694824</ele>
        <time>2011-04-16T12:39:19.000Z</time>
      </trkpt>
      <trkpt lat="48.68606" lon="1.88783">
        <ele>174.19999694824</ele>
        <time>2011-04-16T12:39:25.000Z</time>
      </trkpt>
      <trkpt lat="48.68603" lon="1.8879">
        <ele>173.60000610352</ele>
        <time>2011-04-16T12:39:30.000Z</time>
      </trkpt>
      <trkpt lat="48.68602" lon="1.88796">
        <ele>174.60000610352</ele>
        <time>2011-04-16T12:39:35.000Z</time>
      </trkpt>
      <trkpt lat="48.68604" lon="1.88818">
        <ele>174.19999694824</ele>
        <time>2011-04-16T12:39:57.000Z</time>
      </trkpt>
      <trkpt lat="48.68605" lon="1.88828">
        <ele>172.60000610352</ele>
        <time>2011-04-16T12:40:01.000Z</time>
      </trkpt>
      <trkpt lat="48.68603" lon="1.88841">
        <ele>172.60000610352</ele>
        <time>2011-04-16T12:40:08.000Z</time>
      </trkpt>
      <trkpt lat="48.68604" lon="1.88851">
        <ele>175.60000610352</ele>
        <time>2011-04-16T12:40:14.000Z</time>
      </trkpt>
      <trkpt lat="48.68604" lon="1.88864">
        <ele>175</ele>
        <time>2011-04-16T12:40:21.000Z</time>
      </trkpt>
      <trkpt lat="48.68605" lon="1.8888">
        <ele>176.60000610352</ele>
        <time>2011-04-16T12:40:29.000Z</time>
      </trkpt>
      <trkpt lat="48.68605" lon="1.88887">
        <ele>178</ele>
        <time>2011-04-16T12:40:33.000Z</time>
      </trkpt>
      <trkpt lat="48.68605" lon="1.88897">
        <ele>178</ele>
        <time>2011-04-16T12:40:38.000Z</time>
      </trkpt>
      <trkpt lat="48.68604" lon="1.88918">
        <ele>179</ele>
        <time>2011-04-16T12:40:47.000Z</time>
      </trkpt>
      <trkpt lat="48.68605" lon="1.88931">
        <ele>179.39999389648</ele>
        <time>2011-04-16T12:40:53.000Z</time>
      </trkpt>
      <trkpt lat="48.68605" lon="1.88949">
        <ele>178</ele>
        <time>2011-04-16T12:41:01.000Z</time>
      </trkpt>
      <trkpt lat="48.68604" lon="1.88965">
        <ele>179</ele>
        <time>2011-04-16T12:41:08.000Z</time>
      </trkpt>
      <trkpt lat="48.68604" lon="1.88981">
        <ele>176</ele>
        <time>2011-04-16T12:41:16.000Z</time>
      </trkpt>
      <trkpt lat="48.68603" lon="1.89001">
        <ele>178</ele>
        <time>2011-04-16T12:41:25.000Z</time>
      </trkpt>
      <trkpt lat="48.68603" lon="1.89012">
        <ele>179.39999389648</ele>
        <time>2011-04-16T12:41:31.000Z</time>
      </trkpt>
      <trkpt lat="48.68605" lon="1.8903">
        <ele>173.19999694824</ele>
        <time>2011-04-16T12:41:40.000Z</time>
      </trkpt>
      <trkpt lat="48.68606" lon="1.8905">
        <ele>169.80000305176</ele>
        <time>2011-04-16T12:41:50.000Z</time>
      </trkpt>
      <trkpt lat="48.68604" lon="1.89064">
        <ele>169.39999389648</ele>
        <time>2011-04-16T12:41:57.000Z</time>
      </trkpt>
      <trkpt lat="48.68604" lon="1.89076">
        <ele>170.80000305176</ele>
        <time>2011-04-16T12:42:04.000Z</time>
      </trkpt>
      <trkpt lat="48.68604" lon="1.89091">
        <ele>173.60000610352</ele>
        <time>2011-04-16T12:42:12.000Z</time>
      </trkpt>
      <trkpt lat="48.68605" lon="1.89108">
        <ele>173.60000610352</ele>
        <time>2011-04-16T12:42:20.000Z</time>
      </trkpt>
      <trkpt lat="48.68604" lon="1.89117">
        <ele>176</ele>
        <time>2011-04-16T12:42:25.000Z</time>
      </trkpt>
      <trkpt lat="48.68604" lon="1.89129">
        <ele>179</ele>
        <time>2011-04-16T12:42:31.000Z</time>
      </trkpt>
      <trkpt lat="48.68603" lon="1.89142">
        <ele>177</ele>
        <time>2011-04-16T12:42:38.000Z</time>
      </trkpt>
      <trkpt lat="48.68603" lon="1.89159">
        <ele>175</ele>
        <time>2011-04-16T12:42:47.000Z</time>
      </trkpt>
      <trkpt lat="48.68603" lon="1.89167">
        <ele>173.60000610352</ele>
        <time>2011-04-16T12:42:52.000Z</time>
      </trkpt>
      <trkpt lat="48.68604" lon="1.89179">
        <ele>174.60000610352</ele>
        <time>2011-04-16T12:42:58.000Z</time>
      </trkpt>
      <trkpt lat="48.68604" lon="1.89191">
        <ele>176.60000610352</ele>
        <time>2011-04-16T12:43:05.000Z</time>
      </trkpt>
      <trkpt lat="48.68604" lon="1.89195">
        <ele>177.60000610352</ele>
        <time>2011-04-16T12:43:07.000Z</time>
      </trkpt>
      <trkpt lat="48.68608" lon="1.89197">
        <ele>184.19999694824</ele>
        <time>2011-04-16T12:43:14.000Z</time>
      </trkpt>
      <trkpt lat="48.68609" lon="1.89197">
        <ele>184.19999694824</ele>
        <time>2011-04-16T12:43:18.000Z</time>
      </trkpt>
      <trkpt lat="48.68616" lon="1.89223">
        <ele>188.60000610352</ele>
        <time>2011-04-16T12:44:31.000Z</time>
      </trkpt>
      <trkpt lat="48.68614" lon="1.89236">
        <ele>184.80000305176</ele>
        <time>2011-04-16T12:44:38.000Z</time>
      </trkpt>
      <trkpt lat="48.68614" lon="1.8924">
        <ele>183.19999694824</ele>
        <time>2011-04-16T12:44:40.000Z</time>
      </trkpt>
      <trkpt lat="48.68611" lon="1.89253">
        <ele>181.80000305176</ele>
        <time>2011-04-16T12:44:47.000Z</time>
      </trkpt>
      <trkpt lat="48.68611" lon="1.89258">
        <ele>181.39999389648</ele>
        <time>2011-04-16T12:44:50.000Z</time>
      </trkpt>
      <trkpt lat="48.68609" lon="1.89265">
        <ele>180.80000305176</ele>
        <time>2011-04-16T12:44:55.000Z</time>
      </trkpt>
      <trkpt lat="48.68608" lon="1.89279">
        <ele>182.80000305176</ele>
        <time>2011-04-16T12:45:02.000Z</time>
      </trkpt>
      <trkpt lat="48.68606" lon="1.8929">
        <ele>182.39999389648</ele>
        <time>2011-04-16T12:45:09.000Z</time>
      </trkpt>
      <trkpt lat="48.68606" lon="1.89305">
        <ele>178.39999389648</ele>
        <time>2011-04-16T12:45:17.000Z</time>
      </trkpt>
      <trkpt lat="48.68606" lon="1.8932">
        <ele>175</ele>
        <time>2011-04-16T12:45:24.000Z</time>
      </trkpt>
      <trkpt lat="48.68604" lon="1.89331">
        <ele>175.60000610352</ele>
        <time>2011-04-16T12:45:29.000Z</time>
      </trkpt>
      <trkpt lat="48.68605" lon="1.89353">
        <ele>174.60000610352</ele>
        <time>2011-04-16T12:45:39.000Z</time>
      </trkpt>
      <trkpt lat="48.68604" lon="1.89378">
        <ele>172.19999694824</ele>
        <time>2011-04-16T12:45:50.000Z</time>
      </trkpt>
      <trkpt lat="48.68604" lon="1.89395">
        <ele>173.19999694824</ele>
        <time>2011-04-16T12:45:58.000Z</time>
      </trkpt>
      <trkpt lat="48.68605" lon="1.89404">
        <ele>173.60000610352</ele>
        <time>2011-04-16T12:46:03.000Z</time>
      </trkpt>
      <trkpt lat="48.68605" lon="1.89409">
        <ele>174.19999694824</ele>
        <time>2011-04-16T12:46:05.000Z</time>
      </trkpt>
      <trkpt lat="48.68605" lon="1.89427">
        <ele>173.19999694824</ele>
        <time>2011-04-16T12:46:13.000Z</time>
      </trkpt>
      <trkpt lat="48.68606" lon="1.89436">
        <ele>173.60000610352</ele>
        <time>2011-04-16T12:46:18.000Z</time>
      </trkpt>
      <trkpt lat="48.68606" lon="1.89438">
        <ele>173.60000610352</ele>
        <time>2011-04-16T12:46:19.000Z</time>
      </trkpt>
      <trkpt lat="48.68605" lon="1.89449">
        <ele>173.60000610352</ele>
        <time>2011-04-16T12:46:24.000Z</time>
      </trkpt>
      <trkpt lat="48.68603" lon="1.89466">
        <ele>175.60000610352</ele>
        <time>2011-04-16T12:46:31.000Z</time>
      </trkpt>
      <trkpt lat="48.68603" lon="1.89484">
        <ele>176</ele>
        <time>2011-04-16T12:46:39.000Z</time>
      </trkpt>
      <trkpt lat="48.68603" lon="1.89501">
        <ele>180.80000305176</ele>
        <time>2011-04-16T12:46:47.000Z</time>
      </trkpt>
      <trkpt lat="48.68603" lon="1.89502">
        <ele>181.39999389648</ele>
        <time>2011-04-16T12:46:48.000Z</time>
      </trkpt>
      <trkpt lat="48.68607" lon="1.89517">
        <ele>178.39999389648</ele>
        <time>2011-04-16T12:46:56.000Z</time>
      </trkpt>
      <trkpt lat="48.68607" lon="1.89532">
        <ele>175</ele>
        <time>2011-04-16T12:47:04.000Z</time>
      </trkpt>
      <trkpt lat="48.68606" lon="1.89544">
        <ele>174.19999694824</ele>
        <time>2011-04-16T12:47:09.000Z</time>
      </trkpt>
      <trkpt lat="48.68607" lon="1.89556">
        <ele>171.80000305176</ele>
        <time>2011-04-16T12:47:15.000Z</time>
      </trkpt>
      <trkpt lat="48.68606" lon="1.89569">
        <ele>171.80000305176</ele>
        <time>2011-04-16T12:47:21.000Z</time>
      </trkpt>
      <trkpt lat="48.68606" lon="1.89573">
        <ele>172.19999694824</ele>
        <time>2011-04-16T12:47:23.000Z</time>
      </trkpt>
      <trkpt lat="48.68605" lon="1.89587">
        <ele>172.60000610352</ele>
        <time>2011-04-16T12:47:30.000Z</time>
      </trkpt>
      <trkpt lat="48.68606" lon="1.89599">
        <ele>173.19999694824</ele>
        <time>2011-04-16T12:47:36.000Z</time>
      </trkpt>
      <trkpt lat="48.68606" lon="1.89606">
        <ele>173.19999694824</ele>
        <time>2011-04-16T12:47:39.000Z</time>
      </trkpt>
      <trkpt lat="48.68605" lon="1.89616">
        <ele>175.60000610352</ele>
        <time>2011-04-16T12:47:44.000Z</time>
      </trkpt>
      <trkpt lat="48.68604" lon="1.89632">
        <ele>177</ele>
        <time>2011-04-16T12:47:51.000Z</time>
      </trkpt>
      <trkpt lat="48.68603" lon="1.89639">
        <ele>178.39999389648</ele>
        <time>2011-04-16T12:47:56.000Z</time>
      </trkpt>
      <trkpt lat="48.68602" lon="1.89654">
        <ele>178</ele>
        <time>2011-04-16T12:48:04.000Z</time>
      </trkpt>
      <trkpt lat="48.68604" lon="1.89669">
        <ele>177</ele>
        <time>2011-04-16T12:48:11.000Z</time>
      </trkpt>
      <trkpt lat="48.68606" lon="1.8968">
        <ele>174.60000610352</ele>
        <time>2011-04-16T12:48:16.000Z</time>
      </trkpt>
      <trkpt lat="48.68606" lon="1.89689">
        <ele>172.60000610352</ele>
        <time>2011-04-16T12:48:22.000Z</time>
      </trkpt>
      <trkpt lat="48.68606" lon="1.89704">
        <ele>170.19999694824</ele>
        <time>2011-04-16T12:48:30.000Z</time>
      </trkpt>
      <trkpt lat="48.68605" lon="1.89716">
        <ele>170.80000305176</ele>
        <time>2011-04-16T12:48:36.000Z</time>
      </trkpt>
      <trkpt lat="48.68604" lon="1.89718">
        <ele>170.80000305176</ele>
        <time>2011-04-16T12:48:37.000Z</time>
      </trkpt>
      <trkpt lat="48.68603" lon="1.89734">
        <ele>172.19999694824</ele>
        <time>2011-04-16T12:48:44.000Z</time>
      </trkpt>
      <trkpt lat="48.68603" lon="1.89749">
        <ele>174.60000610352</ele>
        <time>2011-04-16T12:48:50.000Z</time>
      </trkpt>
      <trkpt lat="48.68603" lon="1.89766">
        <ele>173.19999694824</ele>
        <time>2011-04-16T12:48:58.000Z</time>
      </trkpt>
      <trkpt lat="48.68603" lon="1.89778">
        <ele>173.19999694824</ele>
        <time>2011-04-16T12:49:04.000Z</time>
      </trkpt>
      <trkpt lat="48.68602" lon="1.8979">
        <ele>173.19999694824</ele>
        <time>2011-04-16T12:49:11.000Z</time>
      </trkpt>
      <trkpt lat="48.68602" lon="1.89799">
        <ele>175</ele>
        <time>2011-04-16T12:49:17.000Z</time>
      </trkpt>
      <trkpt lat="48.68603" lon="1.89813">
        <ele>175</ele>
        <time>2011-04-16T12:49:23.000Z</time>
      </trkpt>
      <trkpt lat="48.68603" lon="1.89829">
        <ele>173.19999694824</ele>
        <time>2011-04-16T12:49:30.000Z</time>
      </trkpt>
      <trkpt lat="48.68603" lon="1.89846">
        <ele>170.19999694824</ele>
        <time>2011-04-16T12:49:39.000Z</time>
      </trkpt>
      <trkpt lat="48.68603" lon="1.8985">
        <ele>170.19999694824</ele>
        <time>2011-04-16T12:49:41.000Z</time>
      </trkpt>
      <trkpt lat="48.68602" lon="1.89857">
        <ele>169.39999389648</ele>
        <time>2011-04-16T12:49:44.000Z</time>
      </trkpt>
      <trkpt lat="48.68602" lon="1.8987">
        <ele>172.60000610352</ele>
        <time>2011-04-16T12:49:50.000Z</time>
      </trkpt>
      <trkpt lat="48.68603" lon="1.89888">
        <ele>174.60000610352</ele>
        <time>2011-04-16T12:49:58.000Z</time>
      </trkpt>
      <trkpt lat="48.68603" lon="1.89904">
        <ele>173.60000610352</ele>
        <time>2011-04-16T12:50:05.000Z</time>
      </trkpt>
      <trkpt lat="48.68603" lon="1.89919">
        <ele>176</ele>
        <time>2011-04-16T12:50:11.000Z</time>
      </trkpt>
      <trkpt lat="48.68604" lon="1.89939">
        <ele>171.19999694824</ele>
        <time>2011-04-16T12:50:20.000Z</time>
      </trkpt>
      <trkpt lat="48.68604" lon="1.89955">
        <ele>169.80000305176</ele>
        <time>2011-04-16T12:50:27.000Z</time>
      </trkpt>
      <trkpt lat="48.68605" lon="1.89971">
        <ele>168.39999389648</ele>
        <time>2011-04-16T12:50:34.000Z</time>
      </trkpt>
      <trkpt lat="48.68604" lon="1.89976">
        <ele>167.80000305176</ele>
        <time>2011-04-16T12:50:37.000Z</time>
      </trkpt>
      <trkpt lat="48.68602" lon="1.89984">
        <ele>170.19999694824</ele>
        <time>2011-04-16T12:50:43.000Z</time>
      </trkpt>
      <trkpt lat="48.68602" lon="1.89984">
        <ele>170.19999694824</ele>
        <time>2011-04-16T12:50:44.000Z</time>
      </trkpt>
      <trkpt lat="48.68602" lon="1.89988">
        <ele>170.80000305176</ele>
        <time>2011-04-16T12:50:48.000Z</time>
      </trkpt>
      <trkpt lat="48.68601" lon="1.89995">
        <ele>170.80000305176</ele>
        <time>2011-04-16T12:50:51.000Z</time>
      </trkpt>
      <trkpt lat="48.68601" lon="1.90011">
        <ele>170.19999694824</ele>
        <time>2011-04-16T12:50:59.000Z</time>
      </trkpt>
      <trkpt lat="48.68602" lon="1.90025">
        <ele>172.19999694824</ele>
        <time>2011-04-16T12:51:06.000Z</time>
      </trkpt>
      <trkpt lat="48.68602" lon="1.90035">
        <ele>172.19999694824</ele>
        <time>2011-04-16T12:51:12.000Z</time>
      </trkpt>
      <trkpt lat="48.68602" lon="1.90048">
        <ele>173.60000610352</ele>
        <time>2011-04-16T12:51:18.000Z</time>
      </trkpt>
      <trkpt lat="48.68602" lon="1.90062">
        <ele>172.60000610352</ele>
        <time>2011-04-16T12:51:25.000Z</time>
      </trkpt>
      <trkpt lat="48.68602" lon="1.90075">
        <ele>172.60000610352</ele>
        <time>2011-04-16T12:51:31.000Z</time>
      </trkpt>
      <trkpt lat="48.68603" lon="1.90083">
        <ele>172.60000610352</ele>
        <time>2011-04-16T12:51:35.000Z</time>
      </trkpt>
      <trkpt lat="48.68913" lon="1.91888">
        <ele>133.19999694824</ele>
        <time>2011-04-16T13:29:40.000Z</time>
      </trkpt>
      <trkpt lat="48.68914" lon="1.91888">
        <ele>134.19999694824</ele>
        <time>2011-04-16T13:29:41.000Z</time>
      </trkpt>
      <trkpt lat="48.68914" lon="1.91887">
        <ele>136.60000610352</ele>
        <time>2011-04-16T13:29:43.000Z</time>
      </trkpt>
      <trkpt lat="48.68947" lon="1.92085">
        <ele>128.39999389648</ele>
        <time>2011-04-17T07:07:58.000Z</time>
      </trkpt>
      <trkpt lat="48.68948" lon="1.92086">
        <ele>128.39999389648</ele>
        <time>2011-04-17T07:07:59.000Z</time>
      </trkpt>
      <trkpt lat="48.68952" lon="1.92087">
        <ele>129.39999389648</ele>
        <time>2011-04-17T07:08:09.000Z</time>
      </trkpt>
      <trkpt lat="48.68948" lon="1.92094">
        <ele>116.40000152588</ele>
        <time>2011-04-17T07:08:21.000Z</time>
      </trkpt>
      <trkpt lat="48.68956" lon="1.92095">
        <ele>124.19999694824</ele>
        <time>2011-04-17T07:09:04.000Z</time>
      </trkpt>
      <trkpt lat="48.68959" lon="1.92097">
        <ele>123.59999847412</ele>
        <time>2011-04-17T07:09:08.000Z</time>
      </trkpt>
      <trkpt lat="48.68959" lon="1.92103">
        <ele>124.19999694824</ele>
        <time>2011-04-17T07:09:12.000Z</time>
      </trkpt>
      <trkpt lat="48.68961" lon="1.92111">
        <ele>125.19999694824</ele>
        <time>2011-04-17T07:09:19.000Z</time>
      </trkpt>
      <trkpt lat="48.68961" lon="1.92116">
        <ele>125.19999694824</ele>
        <time>2011-04-17T07:09:26.000Z</time>
      </trkpt>
      <trkpt lat="48.68964" lon="1.92124">
        <ele>127</ele>
        <time>2011-04-17T07:09:32.000Z</time>
      </trkpt>
      <trkpt lat="48.68961" lon="1.92134">
        <ele>126</ele>
        <time>2011-04-17T07:09:37.000Z</time>
      </trkpt>
      <trkpt lat="48.68961" lon="1.92137">
        <ele>125.59999847412</ele>
        <time>2011-04-17T07:09:39.000Z</time>
      </trkpt>
      <trkpt lat="48.68961" lon="1.92147">
        <ele>125.19999694824</ele>
        <time>2011-04-17T07:09:44.000Z</time>
      </trkpt>
      <trkpt lat="48.6896" lon="1.92155">
        <ele>125.59999847412</ele>
        <time>2011-04-17T07:09:49.000Z</time>
      </trkpt>
      <trkpt lat="48.68958" lon="1.9216">
        <ele>125.59999847412</ele>
        <time>2011-04-17T07:09:52.000Z</time>
      </trkpt>
      <trkpt lat="48.68957" lon="1.92164">
        <ele>126</ele>
        <time>2011-04-17T07:09:55.000Z</time>
      </trkpt>
      <trkpt lat="48.68955" lon="1.92174">
        <ele>126.59999847412</ele>
        <time>2011-04-17T07:10:01.000Z</time>
      </trkpt>
      <trkpt lat="48.68956" lon="1.9218">
        <ele>126.59999847412</ele>
        <time>2011-04-17T07:10:04.000Z</time>
      </trkpt>
      <trkpt lat="48.68951" lon="1.92187">
        <ele>127</ele>
        <time>2011-04-17T07:10:10.000Z</time>
      </trkpt>
      <trkpt lat="48.6895" lon="1.92196">
        <ele>124.59999847412</ele>
        <time>2011-04-17T07:10:15.000Z</time>
      </trkpt>
      <trkpt lat="48.68951" lon="1.92204">
        <ele>124.19999694824</ele>
        <time>2011-04-17T07:10:19.000Z</time>
      </trkpt>
      <trkpt lat="48.6895" lon="1.92214">
        <ele>123.59999847412</ele>
        <time>2011-04-17T07:10:23.000Z</time>
      </trkpt>
      <trkpt lat="48.68948" lon="1.92224">
        <ele>122.80000305176</ele>
        <time>2011-04-17T07:10:28.000Z</time>
      </trkpt>
      <trkpt lat="48.68948" lon="1.92235">
        <ele>122.19999694824</ele>
        <time>2011-04-17T07:10:32.000Z</time>
      </trkpt>
      <trkpt lat="48.68945" lon="1.92242">
        <ele>122.19999694824</ele>
        <time>2011-04-17T07:10:36.000Z</time>
      </trkpt>
      <trkpt lat="48.68945" lon="1.9226">
        <ele>121.80000305176</ele>
        <time>2011-04-17T07:10:41.000Z</time>
      </trkpt>
      <trkpt lat="48.68947" lon="1.9228">
        <ele>121.19999694824</ele>
        <time>2011-04-17T07:10:45.000Z</time>
      </trkpt>
      <trkpt lat="48.68945" lon="1.9228">
        <ele>122.19999694824</ele>
        <time>2011-04-17T07:10:50.000Z</time>
      </trkpt>
      <trkpt lat="48.68942" lon="1.92286">
        <ele>122.19999694824</ele>
        <time>2011-04-17T07:10:55.000Z</time>
      </trkpt>
      <trkpt lat="48.6894" lon="1.92288">
        <ele>122.80000305176</ele>
        <time>2011-04-17T07:10:59.000Z</time>
      </trkpt>
      <trkpt lat="48.68937" lon="1.92296">
        <ele>123.19999694824</ele>
        <time>2011-04-17T07:11:07.000Z</time>
      </trkpt>
      <trkpt lat="48.68933" lon="1.92298">
        <ele>123.19999694824</ele>
        <time>2011-04-17T07:11:11.000Z</time>
      </trkpt>
      <trkpt lat="48.6893" lon="1.92305">
        <ele>120.80000305176</ele>
        <time>2011-04-17T07:11:16.000Z</time>
      </trkpt>
      <trkpt lat="48.68923" lon="1.92305">
        <ele>124.19999694824</ele>
        <time>2011-04-17T07:11:22.000Z</time>
      </trkpt>
      <trkpt lat="48.6892" lon="1.92313">
        <ele>126</ele>
        <time>2011-04-17T07:11:28.000Z</time>
      </trkpt>
      <trkpt lat="48.68918" lon="1.92326">
        <ele>124.19999694824</ele>
        <time>2011-04-17T07:11:36.000Z</time>
      </trkpt>
      <trkpt lat="48.68916" lon="1.92333">
        <ele>123.59999847412</ele>
        <time>2011-04-17T07:11:40.000Z</time>
      </trkpt>
      <trkpt lat="48.68916" lon="1.92334">
        <ele>123.59999847412</ele>
        <time>2011-04-17T07:11:41.000Z</time>
      </trkpt>
      <trkpt lat="48.68913" lon="1.92338">
        <ele>122.80000305176</ele>
        <time>2011-04-17T07:11:47.000Z</time>
      </trkpt>
      <trkpt lat="48.68914" lon="1.92343">
        <ele>120.40000152588</ele>
        <time>2011-04-17T07:11:53.000Z</time>
      </trkpt>
      <trkpt lat="48.68911" lon="1.92349">
        <ele>119.80000305176</ele>
        <time>2011-04-17T07:11:59.000Z</time>
      </trkpt>
      <trkpt lat="48.68909" lon="1.92352">
        <ele>119.40000152588</ele>
        <time>2011-04-17T07:12:01.000Z</time>
      </trkpt>
      <trkpt lat="48.68907" lon="1.92359">
        <ele>118.40000152588</ele>
        <time>2011-04-17T07:12:06.000Z</time>
      </trkpt>
      <trkpt lat="48.68903" lon="1.92363">
        <ele>118.40000152588</ele>
        <time>2011-04-17T07:12:10.000Z</time>
      </trkpt>
      <trkpt lat="48.68898" lon="1.9237">
        <ele>118.80000305176</ele>
        <time>2011-04-17T07:12:15.000Z</time>
      </trkpt>
      <trkpt lat="48.68897" lon="1.92371">
        <ele>118.80000305176</ele>
        <time>2011-04-17T07:12:16.000Z</time>
      </trkpt>
      <trkpt lat="48.68894" lon="1.92376">
        <ele>118.80000305176</ele>
        <time>2011-04-17T07:12:19.000Z</time>
      </trkpt>
      <trkpt lat="48.68888" lon="1.92385">
        <ele>117</ele>
        <time>2011-04-17T07:12:26.000Z</time>
      </trkpt>
      <trkpt lat="48.68884" lon="1.92387">
        <ele>117.40000152588</ele>
        <time>2011-04-17T07:12:31.000Z</time>
      </trkpt>
      <trkpt lat="48.6888" lon="1.92391">
        <ele>117.40000152588</ele>
        <time>2011-04-17T07:12:35.000Z</time>
      </trkpt>
      <trkpt lat="48.68875" lon="1.92395">
        <ele>117.40000152588</ele>
        <time>2011-04-17T07:12:40.000Z</time>
      </trkpt>
      <trkpt lat="48.6887" lon="1.92402">
        <ele>117</ele>
        <time>2011-04-17T07:12:45.000Z</time>
      </trkpt>
      <trkpt lat="48.68866" lon="1.92409">
        <ele>117.40000152588</ele>
        <time>2011-04-17T07:12:50.000Z</time>
      </trkpt>
      <trkpt lat="48.68859" lon="1.92413">
        <ele>117</ele>
        <time>2011-04-17T07:12:55.000Z</time>
      </trkpt>
      <trkpt lat="48.68854" lon="1.92417">
        <ele>116.40000152588</ele>
        <time>2011-04-17T07:12:59.000Z</time>
      </trkpt>
      <trkpt lat="48.68851" lon="1.92419">
        <ele>117.40000152588</ele>
        <time>2011-04-17T07:13:02.000Z</time>
      </trkpt>
      <trkpt lat="48.68843" lon="1.92419">
        <ele>117</ele>
        <time>2011-04-17T07:13:08.000Z</time>
      </trkpt>
      <trkpt lat="48.68841" lon="1.9242">
        <ele>117.40000152588</ele>
        <time>2011-04-17T07:13:10.000Z</time>
      </trkpt>
      <trkpt lat="48.68835" lon="1.92422">
        <ele>115</ele>
        <time>2011-04-17T07:13:14.000Z</time>
      </trkpt>
      <trkpt lat="48.6883" lon="1.92426">
        <ele>115.40000152588</ele>
        <time>2011-04-17T07:13:19.000Z</time>
      </trkpt>
      <trkpt lat="48.68827" lon="1.92426">
        <ele>115.40000152588</ele>
        <time>2011-04-17T07:13:21.000Z</time>
      </trkpt>
      <trkpt lat="48.6882" lon="1.92428">
        <ele>115</ele>
        <time>2011-04-17T07:13:26.000Z</time>
      </trkpt>
      <trkpt lat="48.68818" lon="1.92426">
        <ele>115</ele>
        <time>2011-04-17T07:13:28.000Z</time>
      </trkpt>
      <trkpt lat="48.68813" lon="1.92435">
        <ele>113.59999847412</ele>
        <time>2011-04-17T07:13:34.000Z</time>
      </trkpt>
      <trkpt lat="48.6881" lon="1.92442">
        <ele>113</ele>
        <time>2011-04-17T07:13:38.000Z</time>
      </trkpt>
      <trkpt lat="48.68806" lon="1.92452">
        <ele>113.59999847412</ele>
        <time>2011-04-17T07:13:44.000Z</time>
      </trkpt>
      <trkpt lat="48.68805" lon="1.92455">
        <ele>114</ele>
        <time>2011-04-17T07:13:46.000Z</time>
      </trkpt>
      <trkpt lat="48.68802" lon="1.92462">
        <ele>116.40000152588</ele>
        <time>2011-04-17T07:13:52.000Z</time>
      </trkpt>
      <trkpt lat="48.68802" lon="1.92468">
        <ele>116.40000152588</ele>
        <time>2011-04-17T07:13:56.000Z</time>
      </trkpt>
      <trkpt lat="48.68804" lon="1.92475">
        <ele>118.40000152588</ele>
        <time>2011-04-17T07:14:00.000Z</time>
      </trkpt>
      <trkpt lat="48.68807" lon="1.92499">
        <ele>117.40000152588</ele>
        <time>2011-04-17T07:14:07.000Z</time>
      </trkpt>
      <trkpt lat="48.68807" lon="1.92502">
        <ele>117</ele>
        <time>2011-04-17T07:14:11.000Z</time>
      </trkpt>
      <trkpt lat="48.68807" lon="1.9251">
        <ele>118.80000305176</ele>
        <time>2011-04-17T07:14:16.000Z</time>
      </trkpt>
      <trkpt lat="48.68807" lon="1.92518">
        <ele>120.40000152588</ele>
        <time>2011-04-17T07:14:21.000Z</time>
      </trkpt>
      <trkpt lat="48.6881" lon="1.92529">
        <ele>119.40000152588</ele>
        <time>2011-04-17T07:14:27.000Z</time>
      </trkpt>
      <trkpt lat="48.68813" lon="1.92539">
        <ele>118.80000305176</ele>
        <time>2011-04-17T07:14:33.000Z</time>
      </trkpt>
      <trkpt lat="48.68813" lon="1.92552">
        <ele>118.40000152588</ele>
        <time>2011-04-17T07:14:40.000Z</time>
      </trkpt>
      <trkpt lat="48.68817" lon="1.9256">
        <ele>117.40000152588</ele>
        <time>2011-04-17T07:14:46.000Z</time>
      </trkpt>
      <trkpt lat="48.6882" lon="1.92566">
        <ele>116.40000152588</ele>
        <time>2011-04-17T07:14:50.000Z</time>
      </trkpt>
      <trkpt lat="48.68828" lon="1.92573">
        <ele>116</ele>
        <time>2011-04-17T07:14:56.000Z</time>
      </trkpt>
      <trkpt lat="48.68834" lon="1.92579">
        <ele>118.80000305176</ele>
        <time>2011-04-17T07:15:02.000Z</time>
      </trkpt>
      <trkpt lat="48.68837" lon="1.92581">
        <ele>119.40000152588</ele>
        <time>2011-04-17T07:15:05.000Z</time>
      </trkpt>
      <trkpt lat="48.68846" lon="1.92602">
        <ele>118.40000152588</ele>
        <time>2011-04-17T07:15:18.000Z</time>
      </trkpt>
      <trkpt lat="48.68845" lon="1.92603">
        <ele>118.40000152588</ele>
        <time>2011-04-17T07:15:19.000Z</time>
      </trkpt>
      <trkpt lat="48.6884" lon="1.92604">
        <ele>117.80000305176</ele>
        <time>2011-04-17T07:15:28.000Z</time>
      </trkpt>
      <trkpt lat="48.68844" lon="1.92605">
        <ele>118.40000152588</ele>
        <time>2011-04-17T07:15:35.000Z</time>
      </trkpt>
      <trkpt lat="48.68847" lon="1.92609">
        <ele>117.40000152588</ele>
        <time>2011-04-17T07:15:46.000Z</time>
      </trkpt>
      <trkpt lat="48.68834" lon="1.92617">
        <ele>125.59999847412</ele>
        <time>2011-04-17T07:16:20.000Z</time>
      </trkpt>
      <trkpt lat="48.68828" lon="1.92624">
        <ele>124.59999847412</ele>
        <time>2011-04-17T07:16:24.000Z</time>
      </trkpt>
      <trkpt lat="48.68825" lon="1.92628">
        <ele>124.59999847412</ele>
        <time>2011-04-17T07:16:27.000Z</time>
      </trkpt>
      <trkpt lat="48.68823" lon="1.92628">
        <ele>124.19999694824</ele>
        <time>2011-04-17T07:16:29.000Z</time>
      </trkpt>
      <trkpt lat="48.6882" lon="1.92633">
        <ele>124.59999847412</ele>
        <time>2011-04-17T07:16:32.000Z</time>
      </trkpt>
      <trkpt lat="48.68813" lon="1.92641">
        <ele>124.19999694824</ele>
        <time>2011-04-17T07:16:38.000Z</time>
      </trkpt>
      <trkpt lat="48.68812" lon="1.92649">
        <ele>122.19999694824</ele>
        <time>2011-04-17T07:16:43.000Z</time>
      </trkpt>
      <trkpt lat="48.68812" lon="1.9265">
        <ele>121.80000305176</ele>
        <time>2011-04-17T07:16:44.000Z</time>
      </trkpt>
      <trkpt lat="48.68801" lon="1.92658">
        <ele>134.80000305176</ele>
        <time>2011-04-17T07:17:16.000Z</time>
      </trkpt>
      <trkpt lat="48.68796" lon="1.92663">
        <ele>134.80000305176</ele>
        <time>2011-04-17T07:17:20.000Z</time>
      </trkpt>
      <trkpt lat="48.68795" lon="1.92663">
        <ele>134.80000305176</ele>
        <time>2011-04-17T07:17:21.000Z</time>
      </trkpt>
      <trkpt lat="48.6879" lon="1.92673">
        <ele>134.80000305176</ele>
        <time>2011-04-17T07:17:27.000Z</time>
      </trkpt>
      <trkpt lat="48.68788" lon="1.92678">
        <ele>134.19999694824</ele>
        <time>2011-04-17T07:17:31.000Z</time>
      </trkpt>
      <trkpt lat="48.68784" lon="1.92686">
        <ele>134.19999694824</ele>
        <time>2011-04-17T07:17:36.000Z</time>
      </trkpt>
      <trkpt lat="48.68782" lon="1.92691">
        <ele>133.80000305176</ele>
        <time>2011-04-17T07:17:40.000Z</time>
      </trkpt>
      <trkpt lat="48.68779" lon="1.92698">
        <ele>134.80000305176</ele>
        <time>2011-04-17T07:17:45.000Z</time>
      </trkpt>
      <trkpt lat="48.68778" lon="1.92718">
        <ele>136.60000610352</ele>
        <time>2011-04-17T07:17:52.000Z</time>
      </trkpt>
      <trkpt lat="48.68774" lon="1.92727">
        <ele>145.19999694824</ele>
        <time>2011-04-17T07:17:57.000Z</time>
      </trkpt>
      <trkpt lat="48.68772" lon="1.92735">
        <ele>144.80000305176</ele>
        <time>2011-04-17T07:18:02.000Z</time>
      </trkpt>
      <trkpt lat="48.68772" lon="1.92746">
        <ele>135.60000610352</ele>
        <time>2011-04-17T07:18:09.000Z</time>
      </trkpt>
      <trkpt lat="48.68774" lon="1.92754">
        <ele>133.80000305176</ele>
        <time>2011-04-17T07:18:15.000Z</time>
      </trkpt>
      <trkpt lat="48.68774" lon="1.92754">
        <ele>134.80000305176</ele>
        <time>2011-04-17T07:18:16.000Z</time>
      </trkpt>
      <trkpt lat="48.68772" lon="1.92757">
        <ele>134.80000305176</ele>
        <time>2011-04-17T07:18:21.000Z</time>
      </trkpt>
      <trkpt lat="48.68766" lon="1.92779">
        <ele>130.39999389648</ele>
        <time>2011-04-17T07:18:45.000Z</time>
      </trkpt>
      <trkpt lat="48.68761" lon="1.92785">
        <ele>131.39999389648</ele>
        <time>2011-04-17T07:18:48.000Z</time>
      </trkpt>
      <trkpt lat="48.68752" lon="1.92797">
        <ele>137.19999694824</ele>
        <time>2011-04-17T07:18:56.000Z</time>
      </trkpt>
      <trkpt lat="48.6875" lon="1.928">
        <ele>139.60000610352</ele>
        <time>2011-04-17T07:18:58.000Z</time>
      </trkpt>
      <trkpt lat="48.6874" lon="1.92813">
        <ele>151.60000610352</ele>
        <time>2011-04-17T07:19:06.000Z</time>
      </trkpt>
      <trkpt lat="48.68739" lon="1.92815">
        <ele>151.60000610352</ele>
        <time>2011-04-17T07:19:08.000Z</time>
      </trkpt>
      <trkpt lat="48.68739" lon="1.9282">
        <ele>146.19999694824</ele>
        <time>2011-04-17T07:19:12.000Z</time>
      </trkpt>
      <trkpt lat="48.68736" lon="1.92827">
        <ele>147.60000610352</ele>
        <time>2011-04-17T07:19:16.000Z</time>
      </trkpt>
      <trkpt lat="48.68735" lon="1.92837">
        <ele>145.80000305176</ele>
        <time>2011-04-17T07:19:22.000Z</time>
      </trkpt>
      <trkpt lat="48.68731" lon="1.92845">
        <ele>142.39999389648</ele>
        <time>2011-04-17T07:19:28.000Z</time>
      </trkpt>
      <trkpt lat="48.68727" lon="1.92852">
        <ele>140.39999389648</ele>
        <time>2011-04-17T07:19:34.000Z</time>
      </trkpt>
      <trkpt lat="48.68725" lon="1.92856">
        <ele>137.60000610352</ele>
        <time>2011-04-17T07:19:39.000Z</time>
      </trkpt>
      <trkpt lat="48.68724" lon="1.92858">
        <ele>137.19999694824</ele>
        <time>2011-04-17T07:19:40.000Z</time>
      </trkpt>
      <trkpt lat="48.68724" lon="1.92871">
        <ele>129</ele>
        <time>2011-04-17T07:19:46.000Z</time>
      </trkpt>
      <trkpt lat="48.68724" lon="1.92873">
        <ele>128</ele>
        <time>2011-04-17T07:19:47.000Z</time>
      </trkpt>
      <trkpt lat="48.68721" lon="1.92883">
        <ele>125.59999847412</ele>
        <time>2011-04-17T07:19:53.000Z</time>
      </trkpt>
      <trkpt lat="48.68718" lon="1.92888">
        <ele>126</ele>
        <time>2011-04-17T07:19:56.000Z</time>
      </trkpt>
      <trkpt lat="48.68714" lon="1.92895">
        <ele>126</ele>
        <time>2011-04-17T07:20:00.000Z</time>
      </trkpt>
      <trkpt lat="48.68707" lon="1.92908">
        <ele>130.80000305176</ele>
        <time>2011-04-17T07:20:08.000Z</time>
      </trkpt>
      <trkpt lat="48.68704" lon="1.92914">
        <ele>133.19999694824</ele>
        <time>2011-04-17T07:20:11.000Z</time>
      </trkpt>
      <trkpt lat="48.68703" lon="1.92916">
        <ele>132.39999389648</ele>
        <time>2011-04-17T07:20:13.000Z</time>
      </trkpt>
      <trkpt lat="48.68699" lon="1.92929">
        <ele>135.19999694824</ele>
        <time>2011-04-17T07:20:19.000Z</time>
      </trkpt>
      <trkpt lat="48.68695" lon="1.92934">
        <ele>135.60000610352</ele>
        <time>2011-04-17T07:20:23.000Z</time>
      </trkpt>
      <trkpt lat="48.68694" lon="1.92939">
        <ele>135.60000610352</ele>
        <time>2011-04-17T07:20:26.000Z</time>
      </trkpt>
      <trkpt lat="48.68689" lon="1.92947">
        <ele>137.19999694824</ele>
        <time>2011-04-17T07:20:33.000Z</time>
      </trkpt>
      <trkpt lat="48.68686" lon="1.92954">
        <ele>140</ele>
        <time>2011-04-17T07:20:37.000Z</time>
      </trkpt>
      <trkpt lat="48.68683" lon="1.9296">
        <ele>144.80000305176</ele>
        <time>2011-04-17T07:20:40.000Z</time>
      </trkpt>
      <trkpt lat="48.68681" lon="1.92968">
        <ele>144.39999389648</ele>
        <time>2011-04-17T07:20:45.000Z</time>
      </trkpt>
      <trkpt lat="48.68677" lon="1.92978">
        <ele>144.80000305176</ele>
        <time>2011-04-17T07:20:50.000Z</time>
      </trkpt>
      <trkpt lat="48.68676" lon="1.92985">
        <ele>144.39999389648</ele>
        <time>2011-04-17T07:20:54.000Z</time>
      </trkpt>
      <trkpt lat="48.68675" lon="1.92987">
        <ele>144.39999389648</ele>
        <time>2011-04-17T07:20:55.000Z</time>
      </trkpt>
      <trkpt lat="48.68671" lon="1.92996">
        <ele>145.19999694824</ele>
        <time>2011-04-17T07:21:00.000Z</time>
      </trkpt>
      <trkpt lat="48.6867" lon="1.93003">
        <ele>146.19999694824</ele>
        <time>2011-04-17T07:21:04.000Z</time>
      </trkpt>
      <trkpt lat="48.68669" lon="1.93014">
        <ele>145.80000305176</ele>
        <time>2011-04-17T07:21:10.000Z</time>
      </trkpt>
      <trkpt lat="48.68668" lon="1.93023">
        <ele>145.19999694824</ele>
        <time>2011-04-17T07:21:15.000Z</time>
      </trkpt>
      <trkpt lat="48.68666" lon="1.93039">
        <ele>149.19999694824</ele>
        <time>2011-04-17T07:21:22.000Z</time>
      </trkpt>
      <trkpt lat="48.68668" lon="1.93049">
        <ele>142.80000305176</ele>
        <time>2011-04-17T07:21:28.000Z</time>
      </trkpt>
      <trkpt lat="48.68668" lon="1.93059">
        <ele>142</ele>
        <time>2011-04-17T07:21:33.000Z</time>
      </trkpt>
      <trkpt lat="48.68667" lon="1.93069">
        <ele>144.39999389648</ele>
        <time>2011-04-17T07:21:37.000Z</time>
      </trkpt>
      <trkpt lat="48.68666" lon="1.93079">
        <ele>142.80000305176</ele>
        <time>2011-04-17T07:21:42.000Z</time>
      </trkpt>
      <trkpt lat="48.68667" lon="1.93088">
        <ele>138.60000610352</ele>
        <time>2011-04-17T07:21:48.000Z</time>
      </trkpt>
      <trkpt lat="48.68666" lon="1.93096">
        <ele>138</ele>
        <time>2011-04-17T07:21:53.000Z</time>
      </trkpt>
      <trkpt lat="48.68667" lon="1.93107">
        <ele>133.80000305176</ele>
        <time>2011-04-17T07:21:58.000Z</time>
      </trkpt>
      <trkpt lat="48.68664" lon="1.9312">
        <ele>135.60000610352</ele>
        <time>2011-04-17T07:22:04.000Z</time>
      </trkpt>
      <trkpt lat="48.68662" lon="1.93128">
        <ele>136.60000610352</ele>
        <time>2011-04-17T07:22:09.000Z</time>
      </trkpt>
      <trkpt lat="48.68661" lon="1.93138">
        <ele>142</ele>
        <time>2011-04-17T07:22:14.000Z</time>
      </trkpt>
      <trkpt lat="48.68657" lon="1.93145">
        <ele>148.19999694824</ele>
        <time>2011-04-17T07:22:19.000Z</time>
      </trkpt>
      <trkpt lat="48.68652" lon="1.9315">
        <ele>145.19999694824</ele>
        <time>2011-04-17T07:22:29.000Z</time>
      </trkpt>
      <trkpt lat="48.68642" lon="1.9315">
        <ele>161.19999694824</ele>
        <time>2011-04-17T07:22:48.000Z</time>
      </trkpt>
      <trkpt lat="48.68644" lon="1.93156">
        <ele>157.39999389648</ele>
        <time>2011-04-17T07:22:52.000Z</time>
      </trkpt>
      <trkpt lat="48.68644" lon="1.93157">
        <ele>156.80000305176</ele>
        <time>2011-04-17T07:22:53.000Z</time>
      </trkpt>
      <trkpt lat="48.68645" lon="1.93167">
        <ele>153.39999389648</ele>
        <time>2011-04-17T07:22:58.000Z</time>
      </trkpt>
      <trkpt lat="48.68645" lon="1.93176">
        <ele>152</ele>
        <time>2011-04-17T07:23:03.000Z</time>
      </trkpt>
      <trkpt lat="48.68645" lon="1.93184">
        <ele>150.60000610352</ele>
        <time>2011-04-17T07:23:07.000Z</time>
      </trkpt>
      <trkpt lat="48.68644" lon="1.93189">
        <ele>150.19999694824</ele>
        <time>2011-04-17T07:23:10.000Z</time>
      </trkpt>
      <trkpt lat="48.68644" lon="1.93195">
        <ele>148.60000610352</ele>
        <time>2011-04-17T07:23:13.000Z</time>
      </trkpt>
      <trkpt lat="48.68643" lon="1.93206">
        <ele>140.39999389648</ele>
        <time>2011-04-17T07:23:18.000Z</time>
      </trkpt>
      <trkpt lat="48.68643" lon="1.93219">
        <ele>139</ele>
        <time>2011-04-17T07:23:25.000Z</time>
      </trkpt>
      <trkpt lat="48.68642" lon="1.93224">
        <ele>139.60000610352</ele>
        <time>2011-04-17T07:23:28.000Z</time>
      </trkpt>
      <trkpt lat="48.6864" lon="1.93235">
        <ele>138.60000610352</ele>
        <time>2011-04-17T07:23:34.000Z</time>
      </trkpt>
      <trkpt lat="48.68639" lon="1.93245">
        <ele>140.39999389648</ele>
        <time>2011-04-17T07:23:39.000Z</time>
      </trkpt>
      <trkpt lat="48.68638" lon="1.93253">
        <ele>140.39999389648</ele>
        <time>2011-04-17T07:23:43.000Z</time>
      </trkpt>
      <trkpt lat="48.68638" lon="1.93256">
        <ele>141</ele>
        <time>2011-04-17T07:23:48.000Z</time>
      </trkpt>
      <trkpt lat="48.68639" lon="1.93268">
        <ele>135.60000610352</ele>
        <time>2011-04-17T07:23:58.000Z</time>
      </trkpt>
      <trkpt lat="48.68641" lon="1.93276">
        <ele>136.60000610352</ele>
        <time>2011-04-17T07:24:01.000Z</time>
      </trkpt>
      <trkpt lat="48.68644" lon="1.9328">
        <ele>136.19999694824</ele>
        <time>2011-04-17T07:24:04.000Z</time>
      </trkpt>
      <trkpt lat="48.68647" lon="1.93289">
        <ele>136.19999694824</ele>
        <time>2011-04-17T07:24:09.000Z</time>
      </trkpt>
      <trkpt lat="48.68647" lon="1.93291">
        <ele>135.60000610352</ele>
        <time>2011-04-17T07:24:10.000Z</time>
      </trkpt>
      <trkpt lat="48.68651" lon="1.93299">
        <ele>132.39999389648</ele>
        <time>2011-04-17T07:24:16.000Z</time>
      </trkpt>
      <trkpt lat="48.68652" lon="1.93306">
        <ele>133.80000305176</ele>
        <time>2011-04-17T07:24:20.000Z</time>
      </trkpt>
      <trkpt lat="48.68652" lon="1.9331">
        <ele>136.60000610352</ele>
        <time>2011-04-17T07:24:22.000Z</time>
      </trkpt>
      <trkpt lat="48.68653" lon="1.93317">
        <ele>141</ele>
        <time>2011-04-17T07:24:27.000Z</time>
      </trkpt>
      <trkpt lat="48.68658" lon="1.93327">
        <ele>145.19999694824</ele>
        <time>2011-04-17T07:24:35.000Z</time>
      </trkpt>
      <trkpt lat="48.68661" lon="1.93334">
        <ele>147.60000610352</ele>
        <time>2011-04-17T07:24:39.000Z</time>
      </trkpt>
      <trkpt lat="48.68663" lon="1.93343">
        <ele>152.60000610352</ele>
        <time>2011-04-17T07:24:43.000Z</time>
      </trkpt>
      <trkpt lat="48.68667" lon="1.93353">
        <ele>150.19999694824</ele>
        <time>2011-04-17T07:24:48.000Z</time>
      </trkpt>
      <trkpt lat="48.68668" lon="1.93358">
        <ele>146.19999694824</ele>
        <time>2011-04-17T07:24:52.000Z</time>
      </trkpt>
      <trkpt lat="48.68666" lon="1.93365">
        <ele>145.19999694824</ele>
        <time>2011-04-17T07:24:55.000Z</time>
      </trkpt>
      <trkpt lat="48.68656" lon="1.93375">
        <ele>142.80000305176</ele>
        <time>2011-04-17T07:25:02.000Z</time>
      </trkpt>
      <trkpt lat="48.68655" lon="1.93375">
        <ele>142.39999389648</ele>
        <time>2011-04-17T07:25:03.000Z</time>
      </trkpt>
      <trkpt lat="48.68652" lon="1.93378">
        <ele>140.39999389648</ele>
        <time>2011-04-17T07:25:08.000Z</time>
      </trkpt>
      <trkpt lat="48.68652" lon="1.93378">
        <ele>140</ele>
        <time>2011-04-17T07:25:09.000Z</time>
      </trkpt>
      <trkpt lat="48.68651" lon="1.93379">
        <ele>142.80000305176</ele>
        <time>2011-04-17T07:25:12.000Z</time>
      </trkpt>
      <trkpt lat="48.68647" lon="1.93382">
        <ele>145.19999694824</ele>
        <time>2011-04-17T07:25:16.000Z</time>
      </trkpt>
      <trkpt lat="48.68641" lon="1.93385">
        <ele>146.19999694824</ele>
        <time>2011-04-17T07:25:20.000Z</time>
      </trkpt>
      <trkpt lat="48.68636" lon="1.93388">
        <ele>144.39999389648</ele>
        <time>2011-04-17T07:25:25.000Z</time>
      </trkpt>
      <trkpt lat="48.68625" lon="1.93392">
        <ele>152.60000610352</ele>
        <time>2011-04-17T07:25:32.000Z</time>
      </trkpt>
      <trkpt lat="48.68623" lon="1.93394">
        <ele>152.60000610352</ele>
        <time>2011-04-17T07:25:34.000Z</time>
      </trkpt>
      <trkpt lat="48.68621" lon="1.93394">
        <ele>151</ele>
        <time>2011-04-17T07:25:36.000Z</time>
      </trkpt>
      <trkpt lat="48.68616" lon="1.93401">
        <ele>143.39999389648</ele>
        <time>2011-04-17T07:25:44.000Z</time>
      </trkpt>
      <trkpt lat="48.68613" lon="1.93407">
        <ele>143.39999389648</ele>
        <time>2011-04-17T07:25:48.000Z</time>
      </trkpt>
      <trkpt lat="48.6861" lon="1.93412">
        <ele>141.39999389648</ele>
        <time>2011-04-17T07:25:53.000Z</time>
      </trkpt>
      <trkpt lat="48.68606" lon="1.93424">
        <ele>136.60000610352</ele>
        <time>2011-04-17T07:26:00.000Z</time>
      </trkpt>
      <trkpt lat="48.68603" lon="1.93431">
        <ele>134.80000305176</ele>
        <time>2011-04-17T07:26:05.000Z</time>
      </trkpt>
      <trkpt lat="48.68603" lon="1.93435">
        <ele>131.39999389648</ele>
        <time>2011-04-17T07:26:10.000Z</time>
      </trkpt>
      <trkpt lat="48.68604" lon="1.93433">
        <ele>136.19999694824</ele>
        <time>2011-04-17T07:26:23.000Z</time>
      </trkpt>
      <trkpt lat="48.68615" lon="1.93443">
        <ele>131.80000305176</ele>
        <time>2011-04-17T07:28:58.000Z</time>
      </trkpt>
      <trkpt lat="48.68617" lon="1.93446">
        <ele>132.39999389648</ele>
        <time>2011-04-17T07:29:00.000Z</time>
      </trkpt>
      <trkpt lat="48.68619" lon="1.93456">
        <ele>130</ele>
        <time>2011-04-17T07:29:05.000Z</time>
      </trkpt>
      <trkpt lat="48.68621" lon="1.93466">
        <ele>131.80000305176</ele>
        <time>2011-04-17T07:29:11.000Z</time>
      </trkpt>
      <trkpt lat="48.68621" lon="1.93473">
        <ele>130.80000305176</ele>
        <time>2011-04-17T07:29:15.000Z</time>
      </trkpt>
      <trkpt lat="48.68622" lon="1.93479">
        <ele>130.39999389648</ele>
        <time>2011-04-17T07:29:18.000Z</time>
      </trkpt>
      <trkpt lat="48.68624" lon="1.93491">
        <ele>130</ele>
        <time>2011-04-17T07:29:24.000Z</time>
      </trkpt>
      <trkpt lat="48.68626" lon="1.93498">
        <ele>128</ele>
        <time>2011-04-17T07:29:28.000Z</time>
      </trkpt>
      <trkpt lat="48.68629" lon="1.93508">
        <ele>130</ele>
        <time>2011-04-17T07:29:34.000Z</time>
      </trkpt>
      <trkpt lat="48.68631" lon="1.93519">
        <ele>131.39999389648</ele>
        <time>2011-04-17T07:29:41.000Z</time>
      </trkpt>
      <trkpt lat="48.68633" lon="1.93525">
        <ele>131.80000305176</ele>
        <time>2011-04-17T07:29:45.000Z</time>
      </trkpt>
      <trkpt lat="48.68635" lon="1.93531">
        <ele>132.39999389648</ele>
        <time>2011-04-17T07:29:49.000Z</time>
      </trkpt>
      <trkpt lat="48.68636" lon="1.93532">
        <ele>132.80000305176</ele>
        <time>2011-04-17T07:29:50.000Z</time>
      </trkpt>
      <trkpt lat="48.68638" lon="1.93535">
        <ele>132.39999389648</ele>
        <time>2011-04-17T07:29:52.000Z</time>
      </trkpt>
      <trkpt lat="48.6864" lon="1.93542">
        <ele>135.19999694824</ele>
        <time>2011-04-17T07:29:57.000Z</time>
      </trkpt>
      <trkpt lat="48.68644" lon="1.93549">
        <ele>135.60000610352</ele>
        <time>2011-04-17T07:30:02.000Z</time>
      </trkpt>
      <trkpt lat="48.68649" lon="1.93557">
        <ele>140</ele>
        <time>2011-04-17T07:30:10.000Z</time>
      </trkpt>
      <trkpt lat="48.68654" lon="1.93563">
        <ele>138</ele>
        <time>2011-04-17T07:30:14.000Z</time>
      </trkpt>
      <trkpt lat="48.68657" lon="1.93571">
        <ele>137.60000610352</ele>
        <time>2011-04-17T07:30:19.000Z</time>
      </trkpt>
      <trkpt lat="48.68661" lon="1.93578">
        <ele>136.19999694824</ele>
        <time>2011-04-17T07:30:24.000Z</time>
      </trkpt>
      <trkpt lat="48.68664" lon="1.93581">
        <ele>138</ele>
        <time>2011-04-17T07:30:28.000Z</time>
      </trkpt>
      <trkpt lat="48.68667" lon="1.93586">
        <ele>139</ele>
        <time>2011-04-17T07:30:31.000Z</time>
      </trkpt>
      <trkpt lat="48.68669" lon="1.93594">
        <ele>142</ele>
        <time>2011-04-17T07:30:36.000Z</time>
      </trkpt>
      <trkpt lat="48.68671" lon="1.936">
        <ele>142.80000305176</ele>
        <time>2011-04-17T07:30:40.000Z</time>
      </trkpt>
      <trkpt lat="48.68679" lon="1.93609">
        <ele>143.80000305176</ele>
        <time>2011-04-17T07:30:47.000Z</time>
      </trkpt>
      <trkpt lat="48.68681" lon="1.93613">
        <ele>141</ele>
        <time>2011-04-17T07:30:52.000Z</time>
      </trkpt>
      <trkpt lat="48.68677" lon="1.93621">
        <ele>140.39999389648</ele>
        <time>2011-04-17T07:32:46.000Z</time>
      </trkpt>
      <trkpt lat="48.68677" lon="1.93623">
        <ele>140.39999389648</ele>
        <time>2011-04-17T07:32:49.000Z</time>
      </trkpt>
      <trkpt lat="48.68714" lon="1.93661">
        <ele>153.39999389648</ele>
        <time>2011-04-17T07:34:14.000Z</time>
      </trkpt>
      <trkpt lat="48.68716" lon="1.93669">
        <ele>151</ele>
        <time>2011-04-17T07:34:17.000Z</time>
      </trkpt>
      <trkpt lat="48.68719" lon="1.93674">
        <ele>150.19999694824</ele>
        <time>2011-04-17T07:34:22.000Z</time>
      </trkpt>
      <trkpt lat="48.68719" lon="1.93677">
        <ele>151.60000610352</ele>
        <time>2011-04-17T07:34:26.000Z</time>
      </trkpt>
      <trkpt lat="48.68714" lon="1.93686">
        <ele>175</ele>
        <time>2011-04-17T07:34:53.000Z</time>
      </trkpt>
      <trkpt lat="48.68712" lon="1.93692">
        <ele>163.60000610352</ele>
        <time>2011-04-17T07:35:31.000Z</time>
      </trkpt>
      <trkpt lat="48.68708" lon="1.93699">
        <ele>162.19999694824</ele>
        <time>2011-04-17T07:35:38.000Z</time>
      </trkpt>
      <trkpt lat="48.68705" lon="1.93704">
        <ele>166</ele>
        <time>2011-04-17T07:35:41.000Z</time>
      </trkpt>
      <trkpt lat="48.68703" lon="1.93708">
        <ele>169.39999389648</ele>
        <time>2011-04-17T07:35:43.000Z</time>
      </trkpt>
      <trkpt lat="48.68703" lon="1.93709">
        <ele>169.39999389648</ele>
        <time>2011-04-17T07:35:46.000Z</time>
      </trkpt>
      <trkpt lat="48.68692" lon="1.93736">
        <ele>172.60000610352</ele>
        <time>2011-04-17T07:36:16.000Z</time>
      </trkpt>
      <trkpt lat="48.68692" lon="1.93738">
        <ele>172.60000610352</ele>
        <time>2011-04-17T07:36:17.000Z</time>
      </trkpt>
      <trkpt lat="48.68691" lon="1.93743">
        <ele>171.80000305176</ele>
        <time>2011-04-17T07:36:20.000Z</time>
      </trkpt>
      <trkpt lat="48.68689" lon="1.93746">
        <ele>173.19999694824</ele>
        <time>2011-04-17T07:36:23.000Z</time>
      </trkpt>
      <trkpt lat="48.68689" lon="1.93745">
        <ele>172.60000610352</ele>
        <time>2011-04-17T07:36:26.000Z</time>
      </trkpt>
      <trkpt lat="48.68691" lon="1.93751">
        <ele>168.80000305176</ele>
        <time>2011-04-17T07:37:11.000Z</time>
      </trkpt>
      <trkpt lat="48.68689" lon="1.93761">
        <ele>170.80000305176</ele>
        <time>2011-04-17T07:37:17.000Z</time>
      </trkpt>
      <trkpt lat="48.68688" lon="1.93772">
        <ele>169.39999389648</ele>
        <time>2011-04-17T07:37:23.000Z</time>
      </trkpt>
      <trkpt lat="48.68685" lon="1.93786">
        <ele>168.80000305176</ele>
        <time>2011-04-17T07:37:30.000Z</time>
      </trkpt>
      <trkpt lat="48.68686" lon="1.9379">
        <ele>168.39999389648</ele>
        <time>2011-04-17T07:37:33.000Z</time>
      </trkpt>
      <trkpt lat="48.68688" lon="1.93795">
        <ele>166.39999389648</ele>
        <time>2011-04-17T07:37:37.000Z</time>
      </trkpt>
      <trkpt lat="48.68693" lon="1.93804">
        <ele>166.39999389648</ele>
        <time>2011-04-17T07:37:43.000Z</time>
      </trkpt>
      <trkpt lat="48.68698" lon="1.93814">
        <ele>164.60000610352</ele>
        <time>2011-04-17T07:37:49.000Z</time>
      </trkpt>
      <trkpt lat="48.68699" lon="1.9382">
        <ele>164.60000610352</ele>
        <time>2011-04-17T07:37:53.000Z</time>
      </trkpt>
      <trkpt lat="48.68699" lon="1.9382">
        <ele>164.60000610352</ele>
        <time>2011-04-17T07:37:54.000Z</time>
      </trkpt>
      <trkpt lat="48.68704" lon="1.93834">
        <ele>162.60000610352</ele>
        <time>2011-04-17T07:38:16.000Z</time>
      </trkpt>
      <trkpt lat="48.68708" lon="1.93845">
        <ele>160.60000610352</ele>
        <time>2011-04-17T07:38:22.000Z</time>
      </trkpt>
      <trkpt lat="48.68712" lon="1.93854">
        <ele>159.80000305176</ele>
        <time>2011-04-17T07:38:29.000Z</time>
      </trkpt>
      <trkpt lat="48.68713" lon="1.9386">
        <ele>160.60000610352</ele>
        <time>2011-04-17T07:38:33.000Z</time>
      </trkpt>
      <trkpt lat="48.68714" lon="1.93863">
        <ele>160.19999694824</ele>
        <time>2011-04-17T07:38:35.000Z</time>
      </trkpt>
      <trkpt lat="48.68716" lon="1.93871">
        <ele>160.60000610352</ele>
        <time>2011-04-17T07:38:41.000Z</time>
      </trkpt>
      <trkpt lat="48.68717" lon="1.93871">
        <ele>161.19999694824</ele>
        <time>2011-04-17T07:38:43.000Z</time>
      </trkpt>
      <trkpt lat="48.68713" lon="1.93884">
        <ele>166.39999389648</ele>
        <time>2011-04-17T07:40:23.000Z</time>
      </trkpt>
      <trkpt lat="48.68709" lon="1.93896">
        <ele>166.39999389648</ele>
        <time>2011-04-17T07:40:28.000Z</time>
      </trkpt>
      <trkpt lat="48.68708" lon="1.93902">
        <ele>167.39999389648</ele>
        <time>2011-04-17T07:40:32.000Z</time>
      </trkpt>
      <trkpt lat="48.68704" lon="1.93908">
        <ele>167.80000305176</ele>
        <time>2011-04-17T07:40:37.000Z</time>
      </trkpt>
      <trkpt lat="48.68699" lon="1.93914">
        <ele>168.80000305176</ele>
        <time>2011-04-17T07:40:43.000Z</time>
      </trkpt>
      <trkpt lat="48.68698" lon="1.93916">
        <ele>168.80000305176</ele>
        <time>2011-04-17T07:40:44.000Z</time>
      </trkpt>
      <trkpt lat="48.68697" lon="1.93921">
        <ele>167.80000305176</ele>
        <time>2011-04-17T07:40:50.000Z</time>
      </trkpt>
      <trkpt lat="48.6869" lon="1.93922">
        <ele>165.39999389648</ele>
        <time>2011-04-17T07:41:09.000Z</time>
      </trkpt>
      <trkpt lat="48.68684" lon="1.93921">
        <ele>166.39999389648</ele>
        <time>2011-04-17T07:41:12.000Z</time>
      </trkpt>
      <trkpt lat="48.68676" lon="1.9392">
        <ele>166.39999389648</ele>
        <time>2011-04-17T07:41:17.000Z</time>
      </trkpt>
      <trkpt lat="48.68667" lon="1.93915">
        <ele>166</ele>
        <time>2011-04-17T07:41:25.000Z</time>
      </trkpt>
      <trkpt lat="48.68663" lon="1.93915">
        <ele>167</ele>
        <time>2011-04-17T07:41:28.000Z</time>
      </trkpt>
      <trkpt lat="48.68658" lon="1.93912">
        <ele>166.39999389648</ele>
        <time>2011-04-17T07:41:32.000Z</time>
      </trkpt>
      <trkpt lat="48.68654" lon="1.93909">
        <ele>163</ele>
        <time>2011-04-17T07:41:36.000Z</time>
      </trkpt>
      <trkpt lat="48.68649" lon="1.93905">
        <ele>161.60000610352</ele>
        <time>2011-04-17T07:41:41.000Z</time>
      </trkpt>
      <trkpt lat="48.68639" lon="1.93902">
        <ele>160.60000610352</ele>
        <time>2011-04-17T07:41:49.000Z</time>
      </trkpt>
      <trkpt lat="48.68634" lon="1.93902">
        <ele>160.60000610352</ele>
        <time>2011-04-17T07:41:53.000Z</time>
      </trkpt>
      <trkpt lat="48.68627" lon="1.93905">
        <ele>160.60000610352</ele>
        <time>2011-04-17T07:41:59.000Z</time>
      </trkpt>
      <trkpt lat="48.68616" lon="1.93912">
        <ele>161.60000610352</ele>
        <time>2011-04-17T07:42:08.000Z</time>
      </trkpt>
      <trkpt lat="48.68607" lon="1.93919">
        <ele>161.19999694824</ele>
        <time>2011-04-17T07:42:16.000Z</time>
      </trkpt>
      <trkpt lat="48.68599" lon="1.93924">
        <ele>161.60000610352</ele>
        <time>2011-04-17T07:42:22.000Z</time>
      </trkpt>
      <trkpt lat="48.68591" lon="1.93928">
        <ele>162.19999694824</ele>
        <time>2011-04-17T07:42:29.000Z</time>
      </trkpt>
      <trkpt lat="48.6859" lon="1.93929">
        <ele>162.19999694824</ele>
        <time>2011-04-17T07:42:30.000Z</time>
      </trkpt>
      <trkpt lat="48.68579" lon="1.93933">
        <ele>163</ele>
        <time>2011-04-17T07:42:38.000Z</time>
      </trkpt>
      <trkpt lat="48.68577" lon="1.93933">
        <ele>163</ele>
        <time>2011-04-17T07:42:42.000Z</time>
      </trkpt>
      <trkpt lat="48.68557" lon="1.93954">
        <ele>160.60000610352</ele>
        <time>2011-04-17T07:43:36.000Z</time>
      </trkpt>
      <trkpt lat="48.68551" lon="1.93962">
        <ele>161.60000610352</ele>
        <time>2011-04-17T07:43:41.000Z</time>
      </trkpt>
      <trkpt lat="48.68544" lon="1.93971">
        <ele>161.19999694824</ele>
        <time>2011-04-17T07:43:49.000Z</time>
      </trkpt>
      <trkpt lat="48.68535" lon="1.93984">
        <ele>160.19999694824</ele>
        <time>2011-04-17T07:43:58.000Z</time>
      </trkpt>
      <trkpt lat="48.68527" lon="1.93993">
        <ele>158.80000305176</ele>
        <time>2011-04-17T07:44:05.000Z</time>
      </trkpt>
      <trkpt lat="48.6852" lon="1.94001">
        <ele>159.19999694824</ele>
        <time>2011-04-17T07:44:12.000Z</time>
      </trkpt>
      <trkpt lat="48.68519" lon="1.94001">
        <ele>158.19999694824</ele>
        <time>2011-04-17T07:44:15.000Z</time>
      </trkpt>
      <trkpt lat="48.68502" lon="1.94017">
        <ele>158.19999694824</ele>
        <time>2011-04-17T07:45:13.000Z</time>
      </trkpt>
      <trkpt lat="48.68491" lon="1.94023">
        <ele>155.80000305176</ele>
        <time>2011-04-17T07:45:23.000Z</time>
      </trkpt>
      <trkpt lat="48.68487" lon="1.9403">
        <ele>157.80000305176</ele>
        <time>2011-04-17T07:45:30.000Z</time>
      </trkpt>
      <trkpt lat="48.68487" lon="1.9403">
        <ele>157.80000305176</ele>
        <time>2011-04-17T07:45:31.000Z</time>
      </trkpt>
      <trkpt lat="48.68481" lon="1.94036">
        <ele>159.80000305176</ele>
        <time>2011-04-17T07:45:51.000Z</time>
      </trkpt>
      <trkpt lat="48.68477" lon="1.94041">
        <ele>159.80000305176</ele>
        <time>2011-04-17T07:45:57.000Z</time>
      </trkpt>
      <trkpt lat="48.68477" lon="1.94041">
        <ele>159.80000305176</ele>
        <time>2011-04-17T07:45:58.000Z</time>
      </trkpt>
      <trkpt lat="48.68491" lon="1.94052">
        <ele>161.19999694824</ele>
        <time>2011-04-17T07:55:35.000Z</time>
      </trkpt>
      <trkpt lat="48.68494" lon="1.94059">
        <ele>160.19999694824</ele>
        <time>2011-04-17T07:55:40.000Z</time>
      </trkpt>
      <trkpt lat="48.68494" lon="1.9406">
        <ele>159.80000305176</ele>
        <time>2011-04-17T07:55:42.000Z</time>
      </trkpt>
      <trkpt lat="48.685" lon="1.94056">
        <ele>155.39999389648</ele>
        <time>2011-04-17T07:56:13.000Z</time>
      </trkpt>
      <trkpt lat="48.68504" lon="1.94058">
        <ele>154</ele>
        <time>2011-04-17T07:56:17.000Z</time>
      </trkpt>
      <trkpt lat="48.68507" lon="1.94061">
        <ele>154.39999389648</ele>
        <time>2011-04-17T07:56:23.000Z</time>
      </trkpt>
      <trkpt lat="48.68511" lon="1.94063">
        <ele>153</ele>
        <time>2011-04-17T07:56:28.000Z</time>
      </trkpt>
      <trkpt lat="48.68513" lon="1.94066">
        <ele>152.60000610352</ele>
        <time>2011-04-17T07:56:33.000Z</time>
      </trkpt>
      <trkpt lat="48.68513" lon="1.94071">
        <ele>152</ele>
        <time>2011-04-17T07:56:37.000Z</time>
      </trkpt>
      <trkpt lat="48.6851" lon="1.94077">
        <ele>152</ele>
        <time>2011-04-17T07:56:41.000Z</time>
      </trkpt>
      <trkpt lat="48.68504" lon="1.94087">
        <ele>152</ele>
        <time>2011-04-17T07:56:47.000Z</time>
      </trkpt>
      <trkpt lat="48.68501" lon="1.94097">
        <ele>153.39999389648</ele>
        <time>2011-04-17T07:56:51.000Z</time>
      </trkpt>
      <trkpt lat="48.68496" lon="1.94103">
        <ele>152.60000610352</ele>
        <time>2011-04-17T07:56:56.000Z</time>
      </trkpt>
      <trkpt lat="48.68496" lon="1.94104">
        <ele>151.60000610352</ele>
        <time>2011-04-17T07:56:57.000Z</time>
      </trkpt>
      <trkpt lat="48.68484" lon="1.94124">
        <ele>144.39999389648</ele>
        <time>2011-04-17T07:57:17.000Z</time>
      </trkpt>
      <trkpt lat="48.6848" lon="1.94131">
        <ele>142</ele>
        <time>2011-04-17T07:57:21.000Z</time>
      </trkpt>
      <trkpt lat="48.68479" lon="1.94132">
        <ele>142</ele>
        <time>2011-04-17T07:57:22.000Z</time>
      </trkpt>
      <trkpt lat="48.68477" lon="1.94136">
        <ele>142.39999389648</ele>
        <time>2011-04-17T07:57:24.000Z</time>
      </trkpt>
      <trkpt lat="48.68473" lon="1.94141">
        <ele>143.39999389648</ele>
        <time>2011-04-17T07:57:27.000Z</time>
      </trkpt>
      <trkpt lat="48.68469" lon="1.94147">
        <ele>142.80000305176</ele>
        <time>2011-04-17T07:57:32.000Z</time>
      </trkpt>
      <trkpt lat="48.68467" lon="1.94149">
        <ele>142</ele>
        <time>2011-04-17T07:57:34.000Z</time>
      </trkpt>
      <trkpt lat="48.68463" lon="1.94158">
        <ele>143.39999389648</ele>
        <time>2011-04-17T07:57:39.000Z</time>
      </trkpt>
      <trkpt lat="48.68461" lon="1.94161">
        <ele>142.80000305176</ele>
        <time>2011-04-17T07:57:44.000Z</time>
      </trkpt>
      <trkpt lat="48.68461" lon="1.94161">
        <ele>142.80000305176</ele>
        <time>2011-04-17T07:57:46.000Z</time>
      </trkpt>
      <trkpt lat="48.68445" lon="1.9416">
        <ele>154.39999389648</ele>
        <time>2011-04-17T07:58:56.000Z</time>
      </trkpt>
      <trkpt lat="48.68444" lon="1.94162">
        <ele>154</ele>
        <time>2011-04-17T07:58:58.000Z</time>
      </trkpt>
      <trkpt lat="48.68438" lon="1.94165">
        <ele>148.19999694824</ele>
        <time>2011-04-17T07:59:05.000Z</time>
      </trkpt>
      <trkpt lat="48.68433" lon="1.94163">
        <ele>143.80000305176</ele>
        <time>2011-04-17T07:59:11.000Z</time>
      </trkpt>
      <trkpt lat="48.68427" lon="1.94164">
        <ele>138</ele>
        <time>2011-04-17T07:59:18.000Z</time>
      </trkpt>
      <trkpt lat="48.68421" lon="1.94162">
        <ele>136.19999694824</ele>
        <time>2011-04-17T07:59:23.000Z</time>
      </trkpt>
      <trkpt lat="48.68414" lon="1.94157">
        <ele>132.80000305176</ele>
        <time>2011-04-17T07:59:29.000Z</time>
      </trkpt>
      <trkpt lat="48.68405" lon="1.94152">
        <ele>129</ele>
        <time>2011-04-17T07:59:38.000Z</time>
      </trkpt>
      <trkpt lat="48.684" lon="1.94148">
        <ele>127.59999847412</ele>
        <time>2011-04-17T07:59:45.000Z</time>
      </trkpt>
      <trkpt lat="48.68399" lon="1.94145">
        <ele>127</ele>
        <time>2011-04-17T07:59:48.000Z</time>
      </trkpt>
      <trkpt lat="48.68397" lon="1.94145">
        <ele>127.59999847412</ele>
        <time>2011-04-17T07:59:52.000Z</time>
      </trkpt>
      <trkpt lat="48.68391" lon="1.94154">
        <ele>126.59999847412</ele>
        <time>2011-04-17T08:00:02.000Z</time>
      </trkpt>
      <trkpt lat="48.68385" lon="1.94161">
        <ele>127.59999847412</ele>
        <time>2011-04-17T08:00:08.000Z</time>
      </trkpt>
      <trkpt lat="48.68383" lon="1.94162">
        <ele>127</ele>
        <time>2011-04-17T08:00:11.000Z</time>
      </trkpt>
      <trkpt lat="48.68376" lon="1.94162">
        <ele>126</ele>
        <time>2011-04-17T08:00:18.000Z</time>
      </trkpt>
      <trkpt lat="48.6837" lon="1.9416">
        <ele>124.59999847412</ele>
        <time>2011-04-17T08:00:23.000Z</time>
      </trkpt>
      <trkpt lat="48.68362" lon="1.94159">
        <ele>123.19999694824</ele>
        <time>2011-04-17T08:00:30.000Z</time>
      </trkpt>
      <trkpt lat="48.68356" lon="1.94158">
        <ele>122.80000305176</ele>
        <time>2011-04-17T08:00:35.000Z</time>
      </trkpt>
      <trkpt lat="48.68348" lon="1.94158">
        <ele>122.80000305176</ele>
        <time>2011-04-17T08:00:41.000Z</time>
      </trkpt>
      <trkpt lat="48.68343" lon="1.94163">
        <ele>123.19999694824</ele>
        <time>2011-04-17T08:00:45.000Z</time>
      </trkpt>
      <trkpt lat="48.68336" lon="1.94171">
        <ele>121.80000305176</ele>
        <time>2011-04-17T08:00:52.000Z</time>
      </trkpt>
      <trkpt lat="48.68327" lon="1.94177">
        <ele>121.80000305176</ele>
        <time>2011-04-17T08:00:59.000Z</time>
      </trkpt>
      <trkpt lat="48.68322" lon="1.94181">
        <ele>120.40000152588</ele>
        <time>2011-04-17T08:01:04.000Z</time>
      </trkpt>
      <trkpt lat="48.68321" lon="1.94183">
        <ele>120.40000152588</ele>
        <time>2011-04-17T08:01:06.000Z</time>
      </trkpt>
      <trkpt lat="48.68318" lon="1.94184">
        <ele>119.40000152588</ele>
        <time>2011-04-17T08:01:11.000Z</time>
      </trkpt>
      <trkpt lat="48.68319" lon="1.94182">
        <ele>119.80000305176</ele>
        <time>2011-04-17T08:01:15.000Z</time>
      </trkpt>
      <trkpt lat="48.68319" lon="1.9418">
        <ele>119.80000305176</ele>
        <time>2011-04-17T08:01:19.000Z</time>
      </trkpt>
      <trkpt lat="48.68312" lon="1.94201">
        <ele>121.80000305176</ele>
        <time>2011-04-17T08:03:39.000Z</time>
      </trkpt>
      <trkpt lat="48.68313" lon="1.94199">
        <ele>120.40000152588</ele>
        <time>2011-04-17T08:03:43.000Z</time>
      </trkpt>
      <trkpt lat="48.68314" lon="1.94198">
        <ele>117.80000305176</ele>
        <time>2011-04-17T08:03:47.000Z</time>
      </trkpt>
      <trkpt lat="48.68314" lon="1.94193">
        <ele>136.19999694824</ele>
        <time>2011-04-17T08:04:41.000Z</time>
      </trkpt>
      <trkpt lat="48.68313" lon="1.94196">
        <ele>136.60000610352</ele>
        <time>2011-04-17T08:04:44.000Z</time>
      </trkpt>
      <trkpt lat="48.68312" lon="1.94197">
        <ele>136.19999694824</ele>
        <time>2011-04-17T08:04:46.000Z</time>
      </trkpt>
      <trkpt lat="48.68312" lon="1.942">
        <ele>122.80000305176</ele>
        <time>2011-04-17T08:08:12.000Z</time>
      </trkpt>
      <trkpt lat="48.68305" lon="1.94212">
        <ele>126.59999847412</ele>
        <time>2011-04-17T08:08:19.000Z</time>
      </trkpt>
      <trkpt lat="48.68305" lon="1.94212">
        <ele>126</ele>
        <time>2011-04-17T08:08:21.000Z</time>
      </trkpt>
      <trkpt lat="48.68304" lon="1.94214">
        <ele>126.59999847412</ele>
        <time>2011-04-17T08:08:24.000Z</time>
      </trkpt>
      <trkpt lat="48.68303" lon="1.94215">
        <ele>126.59999847412</ele>
        <time>2011-04-17T08:08:25.000Z</time>
      </trkpt>
      <trkpt lat="48.683" lon="1.94218">
        <ele>125.19999694824</ele>
        <time>2011-04-17T08:08:28.000Z</time>
      </trkpt>
      <trkpt lat="48.68297" lon="1.94221">
        <ele>124.59999847412</ele>
        <time>2011-04-17T08:08:34.000Z</time>
      </trkpt>
      <trkpt lat="48.68295" lon="1.94225">
        <ele>124.19999694824</ele>
        <time>2011-04-17T08:08:40.000Z</time>
      </trkpt>
      <trkpt lat="48.68299" lon="1.94224">
        <ele>124.19999694824</ele>
        <time>2011-04-17T08:08:45.000Z</time>
      </trkpt>
      <trkpt lat="48.68299" lon="1.94223">
        <ele>124.59999847412</ele>
        <time>2011-04-17T08:08:47.000Z</time>
      </trkpt>
      <trkpt lat="48.6829" lon="1.94225">
        <ele>117.80000305176</ele>
        <time>2011-04-17T08:09:16.000Z</time>
      </trkpt>
      <trkpt lat="48.68295" lon="1.94221">
        <ele>118.40000152588</ele>
        <time>2011-04-17T08:09:19.000Z</time>
      </trkpt>
      <trkpt lat="48.68297" lon="1.94219">
        <ele>118.40000152588</ele>
        <time>2011-04-17T08:09:24.000Z</time>
      </trkpt>
      <trkpt lat="48.68297" lon="1.94219">
        <ele>118.80000305176</ele>
        <time>2011-04-17T08:09:25.000Z</time>
      </trkpt>
      <trkpt lat="48.68292" lon="1.94223">
        <ele>118.40000152588</ele>
        <time>2011-04-17T08:09:49.000Z</time>
      </trkpt>
      <trkpt lat="48.68291" lon="1.94229">
        <ele>117.40000152588</ele>
        <time>2011-04-17T08:09:52.000Z</time>
      </trkpt>
      <trkpt lat="48.68284" lon="1.94234">
        <ele>121.19999694824</ele>
        <time>2011-04-17T08:09:59.000Z</time>
      </trkpt>
      <trkpt lat="48.68283" lon="1.94234">
        <ele>121.19999694824</ele>
        <time>2011-04-17T08:10:02.000Z</time>
      </trkpt>
      <trkpt lat="48.68292" lon="1.94227">
        <ele>106.80000305176</ele>
        <time>2011-04-17T08:10:43.000Z</time>
      </trkpt>
      <trkpt lat="48.68297" lon="1.94218">
        <ele>109.80000305176</ele>
        <time>2011-04-17T08:10:47.000Z</time>
      </trkpt>
      <trkpt lat="48.68298" lon="1.94218">
        <ele>110.19999694824</ele>
        <time>2011-04-17T08:10:48.000Z</time>
      </trkpt>
      <trkpt lat="48.68299" lon="1.94218">
        <ele>111.19999694824</ele>
        <time>2011-04-17T08:10:51.000Z</time>
      </trkpt>
      <trkpt lat="48.68289" lon="1.94258">
        <ele>116.40000152588</ele>
        <time>2011-04-17T08:13:07.000Z</time>
      </trkpt>
      <trkpt lat="48.68287" lon="1.9427">
        <ele>117.80000305176</ele>
        <time>2011-04-17T08:13:12.000Z</time>
      </trkpt>
      <trkpt lat="48.68286" lon="1.94274">
        <ele>117.40000152588</ele>
        <time>2011-04-17T08:13:15.000Z</time>
      </trkpt>
      <trkpt lat="48.68286" lon="1.94277">
        <ele>118.40000152588</ele>
        <time>2011-04-17T08:13:20.000Z</time>
      </trkpt>
      <trkpt lat="48.68291" lon="1.94296">
        <ele>121.80000305176</ele>
        <time>2011-04-17T08:13:38.000Z</time>
      </trkpt>
      <trkpt lat="48.68288" lon="1.94312">
        <ele>124.59999847412</ele>
        <time>2011-04-17T08:13:44.000Z</time>
      </trkpt>
      <trkpt lat="48.68288" lon="1.94325">
        <ele>122.80000305176</ele>
        <time>2011-04-17T08:13:51.000Z</time>
      </trkpt>
      <trkpt lat="48.68288" lon="1.94336">
        <ele>122.19999694824</ele>
        <time>2011-04-17T08:13:56.000Z</time>
      </trkpt>
      <trkpt lat="48.6829" lon="1.94345">
        <ele>124.19999694824</ele>
        <time>2011-04-17T08:14:02.000Z</time>
      </trkpt>
      <trkpt lat="48.68292" lon="1.94347">
        <ele>125.19999694824</ele>
        <time>2011-04-17T08:14:04.000Z</time>
      </trkpt>
      <trkpt lat="48.68297" lon="1.94356">
        <ele>125.19999694824</ele>
        <time>2011-04-17T08:14:11.000Z</time>
      </trkpt>
      <trkpt lat="48.68297" lon="1.94357">
        <ele>125.59999847412</ele>
        <time>2011-04-17T08:14:12.000Z</time>
      </trkpt>
      <trkpt lat="48.68297" lon="1.94364">
        <ele>126.59999847412</ele>
        <time>2011-04-17T08:14:18.000Z</time>
      </trkpt>
      <trkpt lat="48.68297" lon="1.94366">
        <ele>126.59999847412</ele>
        <time>2011-04-17T08:14:22.000Z</time>
      </trkpt>
      <trkpt lat="48.68293" lon="1.94375">
        <ele>129</ele>
        <time>2011-04-17T08:16:28.000Z</time>
      </trkpt>
      <trkpt lat="48.68286" lon="1.94378">
        <ele>139.60000610352</ele>
        <time>2011-04-17T08:16:35.000Z</time>
      </trkpt>
      <trkpt lat="48.68287" lon="1.94415">
        <ele>138</ele>
        <time>2011-04-17T08:18:48.000Z</time>
      </trkpt>
      <trkpt lat="48.68285" lon="1.9442">
        <ele>140</ele>
        <time>2011-04-17T08:18:51.000Z</time>
      </trkpt>
      <trkpt lat="48.68286" lon="1.94423">
        <ele>142</ele>
        <time>2011-04-17T08:18:55.000Z</time>
      </trkpt>
      <trkpt lat="48.6828" lon="1.94457">
        <ele>143.80000305176</ele>
        <time>2011-04-17T08:20:21.000Z</time>
      </trkpt>
      <trkpt lat="48.68279" lon="1.94464">
        <ele>143.39999389648</ele>
        <time>2011-04-17T08:20:27.000Z</time>
      </trkpt>
      <trkpt lat="48.68276" lon="1.94471">
        <ele>144.80000305176</ele>
        <time>2011-04-17T08:20:33.000Z</time>
      </trkpt>
      <trkpt lat="48.68274" lon="1.94478">
        <ele>145.80000305176</ele>
        <time>2011-04-17T08:20:37.000Z</time>
      </trkpt>
      <trkpt lat="48.68274" lon="1.94481">
        <ele>145.19999694824</ele>
        <time>2011-04-17T08:20:39.000Z</time>
      </trkpt>
      <trkpt lat="48.68275" lon="1.94489">
        <ele>145.80000305176</ele>
        <time>2011-04-17T08:20:44.000Z</time>
      </trkpt>
      <trkpt lat="48.68275" lon="1.94492">
        <ele>145.80000305176</ele>
        <time>2011-04-17T08:20:46.000Z</time>
      </trkpt>
      <trkpt lat="48.68276" lon="1.94501">
        <ele>146.19999694824</ele>
        <time>2011-04-17T08:20:52.000Z</time>
      </trkpt>
      <trkpt lat="48.68277" lon="1.94505">
        <ele>148.19999694824</ele>
        <time>2011-04-17T08:20:58.000Z</time>
      </trkpt>
      <trkpt lat="48.6829" lon="1.94512">
        <ele>157.80000305176</ele>
        <time>2011-04-17T08:21:20.000Z</time>
      </trkpt>
      <trkpt lat="48.68295" lon="1.94512">
        <ele>159.19999694824</ele>
        <time>2011-04-17T08:21:26.000Z</time>
      </trkpt>
      <trkpt lat="48.68298" lon="1.94512">
        <ele>158.19999694824</ele>
        <time>2011-04-17T08:21:31.000Z</time>
      </trkpt>
      <trkpt lat="48.68302" lon="1.94514">
        <ele>156.39999389648</ele>
        <time>2011-04-17T08:21:38.000Z</time>
      </trkpt>
      <trkpt lat="48.68302" lon="1.94514">
        <ele>156.39999389648</ele>
        <time>2011-04-17T08:21:39.000Z</time>
      </trkpt>
      <trkpt lat="48.68279" lon="1.94572">
        <ele>161.19999694824</ele>
        <time>2011-04-17T08:26:32.000Z</time>
      </trkpt>
      <trkpt lat="48.68276" lon="1.94579">
        <ele>161.60000610352</ele>
        <time>2011-04-17T08:26:35.000Z</time>
      </trkpt>
      <trkpt lat="48.68271" lon="1.94586">
        <ele>163.60000610352</ele>
        <time>2011-04-17T08:26:40.000Z</time>
      </trkpt>
      <trkpt lat="48.68267" lon="1.94595">
        <ele>163.60000610352</ele>
        <time>2011-04-17T08:26:47.000Z</time>
      </trkpt>
      <trkpt lat="48.68265" lon="1.94598">
        <ele>163.60000610352</ele>
        <time>2011-04-17T08:26:51.000Z</time>
      </trkpt>
      <trkpt lat="48.68248" lon="1.94632">
        <ele>161.60000610352</ele>
        <time>2011-04-17T08:27:38.000Z</time>
      </trkpt>
      <trkpt lat="48.68248" lon="1.94639">
        <ele>162.19999694824</ele>
        <time>2011-04-17T08:27:41.000Z</time>
      </trkpt>
      <trkpt lat="48.68247" lon="1.94648">
        <ele>161.60000610352</ele>
        <time>2011-04-17T08:27:48.000Z</time>
      </trkpt>
      <trkpt lat="48.68244" lon="1.94655">
        <ele>158.80000305176</ele>
        <time>2011-04-17T08:27:55.000Z</time>
      </trkpt>
      <trkpt lat="48.68238" lon="1.9466">
        <ele>159.80000305176</ele>
        <time>2011-04-17T08:28:02.000Z</time>
      </trkpt>
      <trkpt lat="48.68238" lon="1.94662">
        <ele>159.80000305176</ele>
        <time>2011-04-17T08:28:03.000Z</time>
      </trkpt>
      <trkpt lat="48.68236" lon="1.94667">
        <ele>159.80000305176</ele>
        <time>2011-04-17T08:28:07.000Z</time>
      </trkpt>
      <trkpt lat="48.68236" lon="1.94671">
        <ele>160.19999694824</ele>
        <time>2011-04-17T08:28:09.000Z</time>
      </trkpt>
      <trkpt lat="48.68235" lon="1.94673">
        <ele>160.60000610352</ele>
        <time>2011-04-17T08:28:13.000Z</time>
      </trkpt>
      <trkpt lat="48.6824" lon="1.94699">
        <ele>160.19999694824</ele>
        <time>2011-04-17T08:28:34.000Z</time>
      </trkpt>
      <trkpt lat="48.6824" lon="1.94705">
        <ele>160.19999694824</ele>
        <time>2011-04-17T08:28:36.000Z</time>
      </trkpt>
      <trkpt lat="48.68237" lon="1.94718">
        <ele>161.60000610352</ele>
        <time>2011-04-17T08:28:45.000Z</time>
      </trkpt>
      <trkpt lat="48.68234" lon="1.94731">
        <ele>161.19999694824</ele>
        <time>2011-04-17T08:28:53.000Z</time>
      </trkpt>
      <trkpt lat="48.68234" lon="1.94737">
        <ele>161.19999694824</ele>
        <time>2011-04-17T08:28:57.000Z</time>
      </trkpt>
      <trkpt lat="48.68234" lon="1.94743">
        <ele>159.80000305176</ele>
        <time>2011-04-17T08:29:00.000Z</time>
      </trkpt>
      <trkpt lat="48.68231" lon="1.94751">
        <ele>159.80000305176</ele>
        <time>2011-04-17T08:29:05.000Z</time>
      </trkpt>
      <trkpt lat="48.6823" lon="1.94758">
        <ele>157.80000305176</ele>
        <time>2011-04-17T08:29:09.000Z</time>
      </trkpt>
      <trkpt lat="48.68229" lon="1.94762">
        <ele>157.39999389648</ele>
        <time>2011-04-17T08:29:11.000Z</time>
      </trkpt>
      <trkpt lat="48.68225" lon="1.9477">
        <ele>155.80000305176</ele>
        <time>2011-04-17T08:29:18.000Z</time>
      </trkpt>
      <trkpt lat="48.68222" lon="1.94776">
        <ele>155.80000305176</ele>
        <time>2011-04-17T08:29:21.000Z</time>
      </trkpt>
      <trkpt lat="48.68224" lon="1.94788">
        <ele>157.80000305176</ele>
        <time>2011-04-17T08:29:28.000Z</time>
      </trkpt>
      <trkpt lat="48.68228" lon="1.94798">
        <ele>157.80000305176</ele>
        <time>2011-04-17T08:29:34.000Z</time>
      </trkpt>
      <trkpt lat="48.68232" lon="1.94801">
        <ele>157.39999389648</ele>
        <time>2011-04-17T08:29:38.000Z</time>
      </trkpt>
      <trkpt lat="48.68233" lon="1.94801">
        <ele>156.80000305176</ele>
        <time>2011-04-17T08:29:40.000Z</time>
      </trkpt>
      <trkpt lat="48.68235" lon="1.94801">
        <ele>159.19999694824</ele>
        <time>2011-04-17T08:29:44.000Z</time>
      </trkpt>
      <trkpt lat="48.68255" lon="1.94813">
        <ele>167.39999389648</ele>
        <time>2011-04-17T08:30:23.000Z</time>
      </trkpt>
      <trkpt lat="48.6826" lon="1.94816">
        <ele>165</ele>
        <time>2011-04-17T08:30:25.000Z</time>
      </trkpt>
      <trkpt lat="48.68264" lon="1.9482">
        <ele>162.60000610352</ele>
        <time>2011-04-17T08:30:29.000Z</time>
      </trkpt>
      <trkpt lat="48.68271" lon="1.94829">
        <ele>162.19999694824</ele>
        <time>2011-04-17T08:30:36.000Z</time>
      </trkpt>
      <trkpt lat="48.68276" lon="1.94832">
        <ele>162.60000610352</ele>
        <time>2011-04-17T08:30:41.000Z</time>
      </trkpt>
      <trkpt lat="48.68281" lon="1.94832">
        <ele>164.60000610352</ele>
        <time>2011-04-17T08:30:47.000Z</time>
      </trkpt>
      <trkpt lat="48.68284" lon="1.94837">
        <ele>163.60000610352</ele>
        <time>2011-04-17T08:30:51.000Z</time>
      </trkpt>
      <trkpt lat="48.6829" lon="1.94845">
        <ele>161.60000610352</ele>
        <time>2011-04-17T08:30:58.000Z</time>
      </trkpt>
      <trkpt lat="48.68295" lon="1.94848">
        <ele>161.19999694824</ele>
        <time>2011-04-17T08:31:02.000Z</time>
      </trkpt>
      <trkpt lat="48.683" lon="1.94852">
        <ele>161.60000610352</ele>
        <time>2011-04-17T08:31:08.000Z</time>
      </trkpt>
      <trkpt lat="48.68303" lon="1.94854">
        <ele>160.60000610352</ele>
        <time>2011-04-17T08:31:10.000Z</time>
      </trkpt>
      <trkpt lat="48.68304" lon="1.94855">
        <ele>158.80000305176</ele>
        <time>2011-04-17T08:31:12.000Z</time>
      </trkpt>
      <trkpt lat="48.68307" lon="1.94863">
        <ele>164</ele>
        <time>2011-04-17T08:31:18.000Z</time>
      </trkpt>
      <trkpt lat="48.68307" lon="1.94866">
        <ele>164.60000610352</ele>
        <time>2011-04-17T08:31:23.000Z</time>
      </trkpt>
      <trkpt lat="48.68309" lon="1.9487">
        <ele>164</ele>
        <time>2011-04-17T08:31:30.000Z</time>
      </trkpt>
      <trkpt lat="48.68299" lon="1.94895">
        <ele>161.60000610352</ele>
        <time>2011-04-17T08:32:00.000Z</time>
      </trkpt>
      <trkpt lat="48.68294" lon="1.94898">
        <ele>163</ele>
        <time>2011-04-17T08:32:06.000Z</time>
      </trkpt>
      <trkpt lat="48.68285" lon="1.94902">
        <ele>162.60000610352</ele>
        <time>2011-04-17T08:32:13.000Z</time>
      </trkpt>
      <trkpt lat="48.68277" lon="1.94907">
        <ele>162.60000610352</ele>
        <time>2011-04-17T08:32:19.000Z</time>
      </trkpt>
      <trkpt lat="48.68271" lon="1.9491">
        <ele>163</ele>
        <time>2011-04-17T08:32:23.000Z</time>
      </trkpt>
      <trkpt lat="48.68268" lon="1.94912">
        <ele>162.60000610352</ele>
        <time>2011-04-17T08:32:26.000Z</time>
      </trkpt>
      <trkpt lat="48.68263" lon="1.94914">
        <ele>160.19999694824</ele>
        <time>2011-04-17T08:32:30.000Z</time>
      </trkpt>
      <trkpt lat="48.68254" lon="1.94919">
        <ele>158.80000305176</ele>
        <time>2011-04-17T08:32:38.000Z</time>
      </trkpt>
      <trkpt lat="48.68252" lon="1.94922">
        <ele>158.80000305176</ele>
        <time>2011-04-17T08:32:40.000Z</time>
      </trkpt>
      <trkpt lat="48.68245" lon="1.94924">
        <ele>158.19999694824</ele>
        <time>2011-04-17T08:32:46.000Z</time>
      </trkpt>
      <trkpt lat="48.6824" lon="1.94928">
        <ele>162.19999694824</ele>
        <time>2011-04-17T08:32:50.000Z</time>
      </trkpt>
      <trkpt lat="48.68238" lon="1.9493">
        <ele>162.19999694824</ele>
        <time>2011-04-17T08:32:52.000Z</time>
      </trkpt>
      <trkpt lat="48.6823" lon="1.94932">
        <ele>158.19999694824</ele>
        <time>2011-04-17T08:32:59.000Z</time>
      </trkpt>
      <trkpt lat="48.68229" lon="1.94933">
        <ele>158.19999694824</ele>
        <time>2011-04-17T08:33:00.000Z</time>
      </trkpt>
      <trkpt lat="48.68225" lon="1.9494">
        <ele>155.80000305176</ele>
        <time>2011-04-17T08:33:07.000Z</time>
      </trkpt>
      <trkpt lat="48.68224" lon="1.94942">
        <ele>155.39999389648</ele>
        <time>2011-04-17T08:33:08.000Z</time>
      </trkpt>
      <trkpt lat="48.6822" lon="1.94948">
        <ele>154.39999389648</ele>
        <time>2011-04-17T08:33:12.000Z</time>
      </trkpt>
      <trkpt lat="48.68215" lon="1.94952">
        <ele>154</ele>
        <time>2011-04-17T08:33:19.000Z</time>
      </trkpt>
      <trkpt lat="48.68214" lon="1.94952">
        <ele>153</ele>
        <time>2011-04-17T08:33:23.000Z</time>
      </trkpt>
      <trkpt lat="48.68207" lon="1.94962">
        <ele>155</ele>
        <time>2011-04-17T08:33:35.000Z</time>
      </trkpt>
      <trkpt lat="48.68199" lon="1.94969">
        <ele>158.80000305176</ele>
        <time>2011-04-17T08:33:40.000Z</time>
      </trkpt>
      <trkpt lat="48.68195" lon="1.9498">
        <ele>158.80000305176</ele>
        <time>2011-04-17T08:33:47.000Z</time>
      </trkpt>
      <trkpt lat="48.68194" lon="1.94982">
        <ele>158.80000305176</ele>
        <time>2011-04-17T08:33:48.000Z</time>
      </trkpt>
      <trkpt lat="48.68189" lon="1.94992">
        <ele>157.39999389648</ele>
        <time>2011-04-17T08:33:55.000Z</time>
      </trkpt>
      <trkpt lat="48.68181" lon="1.95002">
        <ele>158.19999694824</ele>
        <time>2011-04-17T08:34:03.000Z</time>
      </trkpt>
      <trkpt lat="48.68175" lon="1.9501">
        <ele>160.60000610352</ele>
        <time>2011-04-17T08:34:09.000Z</time>
      </trkpt>
      <trkpt lat="48.68168" lon="1.95019">
        <ele>162.19999694824</ele>
        <time>2011-04-17T08:34:17.000Z</time>
      </trkpt>
      <trkpt lat="48.68163" lon="1.95028">
        <ele>162.60000610352</ele>
        <time>2011-04-17T08:34:24.000Z</time>
      </trkpt>
      <trkpt lat="48.68162" lon="1.95032">
        <ele>164</ele>
        <time>2011-04-17T08:34:28.000Z</time>
      </trkpt>
      <trkpt lat="48.68158" lon="1.95041">
        <ele>164</ele>
        <time>2011-04-17T08:34:34.000Z</time>
      </trkpt>
      <trkpt lat="48.68154" lon="1.95046">
        <ele>162.60000610352</ele>
        <time>2011-04-17T08:34:38.000Z</time>
      </trkpt>
      <trkpt lat="48.68151" lon="1.95055">
        <ele>160.19999694824</ele>
        <time>2011-04-17T08:34:44.000Z</time>
      </trkpt>
      <trkpt lat="48.68149" lon="1.95058">
        <ele>160.19999694824</ele>
        <time>2011-04-17T08:34:46.000Z</time>
      </trkpt>
      <trkpt lat="48.68148" lon="1.95063">
        <ele>159.80000305176</ele>
        <time>2011-04-17T08:34:50.000Z</time>
      </trkpt>
      <trkpt lat="48.68147" lon="1.95068">
        <ele>161.19999694824</ele>
        <time>2011-04-17T08:34:53.000Z</time>
      </trkpt>
      <trkpt lat="48.68148" lon="1.95074">
        <ele>164</ele>
        <time>2011-04-17T08:34:59.000Z</time>
      </trkpt>
      <trkpt lat="48.68145" lon="1.95077">
        <ele>163</ele>
        <time>2011-04-17T08:35:05.000Z</time>
      </trkpt>
      <trkpt lat="48.6814" lon="1.95083">
        <ele>162.19999694824</ele>
        <time>2011-04-17T08:35:15.000Z</time>
      </trkpt>
      <trkpt lat="48.68139" lon="1.95089">
        <ele>162.19999694824</ele>
        <time>2011-04-17T08:35:20.000Z</time>
      </trkpt>
      <trkpt lat="48.68137" lon="1.95094">
        <ele>164.60000610352</ele>
        <time>2011-04-17T08:35:26.000Z</time>
      </trkpt>
      <trkpt lat="48.68137" lon="1.95098">
        <ele>164.60000610352</ele>
        <time>2011-04-17T08:35:29.000Z</time>
      </trkpt>
      <trkpt lat="48.68136" lon="1.95107">
        <ele>164</ele>
        <time>2011-04-17T08:35:34.000Z</time>
      </trkpt>
      <trkpt lat="48.68135" lon="1.95117">
        <ele>164.60000610352</ele>
        <time>2011-04-17T08:35:39.000Z</time>
      </trkpt>
      <trkpt lat="48.68137" lon="1.95129">
        <ele>164.60000610352</ele>
        <time>2011-04-17T08:35:46.000Z</time>
      </trkpt>
      <trkpt lat="48.68138" lon="1.95141">
        <ele>165</ele>
        <time>2011-04-17T08:35:53.000Z</time>
      </trkpt>
      <trkpt lat="48.68137" lon="1.95144">
        <ele>165</ele>
        <time>2011-04-17T08:35:55.000Z</time>
      </trkpt>
      <trkpt lat="48.68137" lon="1.95151">
        <ele>165.39999389648</ele>
        <time>2011-04-17T08:35:59.000Z</time>
      </trkpt>
      <trkpt lat="48.68138" lon="1.95155">
        <ele>167</ele>
        <time>2011-04-17T08:36:02.000Z</time>
      </trkpt>
      <trkpt lat="48.68136" lon="1.95158">
        <ele>169.39999389648</ele>
        <time>2011-04-17T08:36:06.000Z</time>
      </trkpt>
      <trkpt lat="48.68135" lon="1.95183">
        <ele>167.39999389648</ele>
        <time>2011-04-17T08:36:39.000Z</time>
      </trkpt>
      <trkpt lat="48.68133" lon="1.95187">
        <ele>166.39999389648</ele>
        <time>2011-04-17T08:36:41.000Z</time>
      </trkpt>
      <trkpt lat="48.68126" lon="1.95202">
        <ele>161.19999694824</ele>
        <time>2011-04-17T08:36:52.000Z</time>
      </trkpt>
      <trkpt lat="48.6812" lon="1.95213">
        <ele>160.60000610352</ele>
        <time>2011-04-17T08:37:00.000Z</time>
      </trkpt>
      <trkpt lat="48.68119" lon="1.95217">
        <ele>159.19999694824</ele>
        <time>2011-04-17T08:37:03.000Z</time>
      </trkpt>
      <trkpt lat="48.68118" lon="1.95223">
        <ele>158.80000305176</ele>
        <time>2011-04-17T08:37:09.000Z</time>
      </trkpt>
      <trkpt lat="48.68115" lon="1.9523">
        <ele>159.80000305176</ele>
        <time>2011-04-17T08:37:14.000Z</time>
      </trkpt>
      <trkpt lat="48.68112" lon="1.95237">
        <ele>160.19999694824</ele>
        <time>2011-04-17T08:37:19.000Z</time>
      </trkpt>
      <trkpt lat="48.68107" lon="1.95247">
        <ele>161.60000610352</ele>
        <time>2011-04-17T08:37:26.000Z</time>
      </trkpt>
      <trkpt lat="48.68103" lon="1.95255">
        <ele>160.60000610352</ele>
        <time>2011-04-17T08:37:31.000Z</time>
      </trkpt>
      <trkpt lat="48.68097" lon="1.95266">
        <ele>161.60000610352</ele>
        <time>2011-04-17T08:37:38.000Z</time>
      </trkpt>
      <trkpt lat="48.68096" lon="1.95274">
        <ele>162.60000610352</ele>
        <time>2011-04-17T08:37:43.000Z</time>
      </trkpt>
      <trkpt lat="48.68097" lon="1.95275">
        <ele>162.19999694824</ele>
        <time>2011-04-17T08:37:44.000Z</time>
      </trkpt>
      <trkpt lat="48.68101" lon="1.95282">
        <ele>163</ele>
        <time>2011-04-17T08:37:51.000Z</time>
      </trkpt>
      <trkpt lat="48.68104" lon="1.95287">
        <ele>165.39999389648</ele>
        <time>2011-04-17T08:37:58.000Z</time>
      </trkpt>
      <trkpt lat="48.68107" lon="1.95295">
        <ele>166</ele>
        <time>2011-04-17T08:38:03.000Z</time>
      </trkpt>
      <trkpt lat="48.68107" lon="1.95296">
        <ele>166</ele>
        <time>2011-04-17T08:38:06.000Z</time>
      </trkpt>
      <trkpt lat="48.68127" lon="1.95308">
        <ele>168.39999389648</ele>
        <time>2011-04-17T08:43:59.000Z</time>
      </trkpt>
      <trkpt lat="48.68134" lon="1.95314">
        <ele>167.80000305176</ele>
        <time>2011-04-17T08:44:05.000Z</time>
      </trkpt>
      <trkpt lat="48.68138" lon="1.95318">
        <ele>167.80000305176</ele>
        <time>2011-04-17T08:44:10.000Z</time>
      </trkpt>
      <trkpt lat="48.68147" lon="1.95325">
        <ele>166.39999389648</ele>
        <time>2011-04-17T08:44:19.000Z</time>
      </trkpt>
      <trkpt lat="48.68155" lon="1.95328">
        <ele>169.80000305176</ele>
        <time>2011-04-17T08:44:27.000Z</time>
      </trkpt>
      <trkpt lat="48.68164" lon="1.95339">
        <ele>171.80000305176</ele>
        <time>2011-04-17T08:44:37.000Z</time>
      </trkpt>
      <trkpt lat="48.68169" lon="1.95344">
        <ele>172.19999694824</ele>
        <time>2011-04-17T08:44:43.000Z</time>
      </trkpt>
      <trkpt lat="48.68169" lon="1.95345">
        <ele>173.19999694824</ele>
        <time>2011-04-17T08:44:46.000Z</time>
      </trkpt>
      <trkpt lat="48.68174" lon="1.95349">
        <ele>174.19999694824</ele>
        <time>2011-04-17T08:44:52.000Z</time>
      </trkpt>
      <trkpt lat="48.68178" lon="1.95354">
        <ele>172.19999694824</ele>
        <time>2011-04-17T08:44:58.000Z</time>
      </trkpt>
      <trkpt lat="48.68178" lon="1.95354">
        <ele>172.19999694824</ele>
        <time>2011-04-17T08:44:59.000Z</time>
      </trkpt>
      <trkpt lat="48.68181" lon="1.95354">
        <ele>174.19999694824</ele>
        <time>2011-04-17T08:45:03.000Z</time>
      </trkpt>
      <trkpt lat="48.68183" lon="1.95354">
        <ele>176</ele>
        <time>2011-04-17T08:45:04.000Z</time>
      </trkpt>
      <trkpt lat="48.68188" lon="1.9536">
        <ele>173.60000610352</ele>
        <time>2011-04-17T08:45:09.000Z</time>
      </trkpt>
      <trkpt lat="48.68189" lon="1.95362">
        <ele>172.19999694824</ele>
        <time>2011-04-17T08:45:13.000Z</time>
      </trkpt>
      <trkpt lat="48.68197" lon="1.95365">
        <ele>174.60000610352</ele>
        <time>2011-04-17T08:45:24.000Z</time>
      </trkpt>
      <trkpt lat="48.68206" lon="1.95371">
        <ele>172.60000610352</ele>
        <time>2011-04-17T08:45:30.000Z</time>
      </trkpt>
      <trkpt lat="48.68211" lon="1.95377">
        <ele>170.19999694824</ele>
        <time>2011-04-17T08:45:35.000Z</time>
      </trkpt>
      <trkpt lat="48.68214" lon="1.95379">
        <ele>170.80000305176</ele>
        <time>2011-04-17T08:45:37.000Z</time>
      </trkpt>
      <trkpt lat="48.68218" lon="1.95386">
        <ele>168.80000305176</ele>
        <time>2011-04-17T08:45:43.000Z</time>
      </trkpt>
      <trkpt lat="48.68225" lon="1.95393">
        <ele>167.39999389648</ele>
        <time>2011-04-17T08:45:50.000Z</time>
      </trkpt>
      <trkpt lat="48.68233" lon="1.95399">
        <ele>167</ele>
        <time>2011-04-17T08:45:56.000Z</time>
      </trkpt>
      <trkpt lat="48.68236" lon="1.95401">
        <ele>168.39999389648</ele>
        <time>2011-04-17T08:45:59.000Z</time>
      </trkpt>
      <trkpt lat="48.68242" lon="1.95407">
        <ele>168.39999389648</ele>
        <time>2011-04-17T08:46:05.000Z</time>
      </trkpt>
      <trkpt lat="48.6825" lon="1.95412">
        <ele>170.19999694824</ele>
        <time>2011-04-17T08:46:10.000Z</time>
      </trkpt>
      <trkpt lat="48.68254" lon="1.95416">
        <ele>170.80000305176</ele>
        <time>2011-04-17T08:46:14.000Z</time>
      </trkpt>
      <trkpt lat="48.68258" lon="1.95419">
        <ele>172.19999694824</ele>
        <time>2011-04-17T08:46:20.000Z</time>
      </trkpt>
      <trkpt lat="48.68268" lon="1.95427">
        <ele>172.60000610352</ele>
        <time>2011-04-17T08:46:33.000Z</time>
      </trkpt>
      <trkpt lat="48.68275" lon="1.95434">
        <ele>170.80000305176</ele>
        <time>2011-04-17T08:46:39.000Z</time>
      </trkpt>
      <trkpt lat="48.68283" lon="1.95441">
        <ele>168.80000305176</ele>
        <time>2011-04-17T08:46:46.000Z</time>
      </trkpt>
      <trkpt lat="48.68292" lon="1.9545">
        <ele>167.80000305176</ele>
        <time>2011-04-17T08:46:54.000Z</time>
      </trkpt>
      <trkpt lat="48.68301" lon="1.95457">
        <ele>167</ele>
        <time>2011-04-17T08:47:01.000Z</time>
      </trkpt>
      <trkpt lat="48.68308" lon="1.95463">
        <ele>166</ele>
        <time>2011-04-17T08:47:08.000Z</time>
      </trkpt>
      <trkpt lat="48.68314" lon="1.95468">
        <ele>167</ele>
        <time>2011-04-17T08:47:14.000Z</time>
      </trkpt>
      <trkpt lat="48.68318" lon="1.95471">
        <ele>168.80000305176</ele>
        <time>2011-04-17T08:47:18.000Z</time>
      </trkpt>
      <trkpt lat="48.68327" lon="1.95477">
        <ele>170.19999694824</ele>
        <time>2011-04-17T08:47:26.000Z</time>
      </trkpt>
      <trkpt lat="48.68336" lon="1.95487">
        <ele>167.39999389648</ele>
        <time>2011-04-17T08:47:34.000Z</time>
      </trkpt>
      <trkpt lat="48.68344" lon="1.95495">
        <ele>164.60000610352</ele>
        <time>2011-04-17T08:47:42.000Z</time>
      </trkpt>
      <trkpt lat="48.68349" lon="1.955">
        <ele>163.60000610352</ele>
        <time>2011-04-17T08:47:47.000Z</time>
      </trkpt>
      <trkpt lat="48.68355" lon="1.95506">
        <ele>162.60000610352</ele>
        <time>2011-04-17T08:47:52.000Z</time>
      </trkpt>
      <trkpt lat="48.68357" lon="1.95508">
        <ele>162.60000610352</ele>
        <time>2011-04-17T08:47:54.000Z</time>
      </trkpt>
      <trkpt lat="48.68364" lon="1.95511">
        <ele>165</ele>
        <time>2011-04-17T08:48:01.000Z</time>
      </trkpt>
      <trkpt lat="48.68367" lon="1.95512">
        <ele>165</ele>
        <time>2011-04-17T08:48:03.000Z</time>
      </trkpt>
      <trkpt lat="48.68375" lon="1.95519">
        <ele>163</ele>
        <time>2011-04-17T08:48:10.000Z</time>
      </trkpt>
      <trkpt lat="48.68381" lon="1.95524">
        <ele>162.19999694824</ele>
        <time>2011-04-17T08:48:16.000Z</time>
      </trkpt>
      <trkpt lat="48.68391" lon="1.95533">
        <ele>163.60000610352</ele>
        <time>2011-04-17T08:48:25.000Z</time>
      </trkpt>
      <trkpt lat="48.68394" lon="1.95534">
        <ele>166.39999389648</ele>
        <time>2011-04-17T08:48:31.000Z</time>
      </trkpt>
      <trkpt lat="48.68396" lon="1.95534">
        <ele>167.39999389648</ele>
        <time>2011-04-17T08:48:33.000Z</time>
      </trkpt>
      <trkpt lat="48.68403" lon="1.95538">
        <ele>168.80000305176</ele>
        <time>2011-04-17T08:48:40.000Z</time>
      </trkpt>
      <trkpt lat="48.68409" lon="1.95547">
        <ele>169.80000305176</ele>
        <time>2011-04-17T08:48:47.000Z</time>
      </trkpt>
      <trkpt lat="48.68416" lon="1.95554">
        <ele>168.39999389648</ele>
        <time>2011-04-17T08:48:53.000Z</time>
      </trkpt>
      <trkpt lat="48.68419" lon="1.95555">
        <ele>167</ele>
        <time>2011-04-17T08:48:55.000Z</time>
      </trkpt>
      <trkpt lat="48.68426" lon="1.95561">
        <ele>166</ele>
        <time>2011-04-17T08:49:01.000Z</time>
      </trkpt>
      <trkpt lat="48.68436" lon="1.9557">
        <ele>164.60000610352</ele>
        <time>2011-04-17T08:49:09.000Z</time>
      </trkpt>
      <trkpt lat="48.68443" lon="1.95575">
        <ele>164.60000610352</ele>
        <time>2011-04-17T08:49:16.000Z</time>
      </trkpt>
      <trkpt lat="48.68451" lon="1.95583">
        <ele>163</ele>
        <time>2011-04-17T08:49:23.000Z</time>
      </trkpt>
      <trkpt lat="48.68458" lon="1.95588">
        <ele>162.19999694824</ele>
        <time>2011-04-17T08:49:29.000Z</time>
      </trkpt>
      <trkpt lat="48.68463" lon="1.9559">
        <ele>159.80000305176</ele>
        <time>2011-04-17T08:49:36.000Z</time>
      </trkpt>
      <trkpt lat="48.68463" lon="1.95591">
        <ele>159.80000305176</ele>
        <time>2011-04-17T08:49:37.000Z</time>
      </trkpt>
      <trkpt lat="48.68475" lon="1.956">
        <ele>160.60000610352</ele>
        <time>2011-04-17T08:49:45.000Z</time>
      </trkpt>
      <trkpt lat="48.68478" lon="1.95604">
        <ele>160.19999694824</ele>
        <time>2011-04-17T08:49:49.000Z</time>
      </trkpt>
      <trkpt lat="48.68488" lon="1.95614">
        <ele>160.19999694824</ele>
        <time>2011-04-17T08:49:59.000Z</time>
      </trkpt>
      <trkpt lat="48.68495" lon="1.9562">
        <ele>160.60000610352</ele>
        <time>2011-04-17T08:50:06.000Z</time>
      </trkpt>
      <trkpt lat="48.68501" lon="1.95626">
        <ele>162.60000610352</ele>
        <time>2011-04-17T08:50:11.000Z</time>
      </trkpt>
      <trkpt lat="48.6851" lon="1.95635">
        <ele>164.60000610352</ele>
        <time>2011-04-17T08:50:18.000Z</time>
      </trkpt>
      <trkpt lat="48.68511" lon="1.95636">
        <ele>164</ele>
        <time>2011-04-17T08:50:19.000Z</time>
      </trkpt>
      <trkpt lat="48.68519" lon="1.95647">
        <ele>165</ele>
        <time>2011-04-17T08:50:29.000Z</time>
      </trkpt>
      <trkpt lat="48.6852" lon="1.95649">
        <ele>165</ele>
        <time>2011-04-17T08:50:30.000Z</time>
      </trkpt>
      <trkpt lat="48.68527" lon="1.95652">
        <ele>164</ele>
        <time>2011-04-17T08:50:37.000Z</time>
      </trkpt>
      <trkpt lat="48.68531" lon="1.95655">
        <ele>164</ele>
        <time>2011-04-17T08:50:41.000Z</time>
      </trkpt>
      <trkpt lat="48.68533" lon="1.95657">
        <ele>164.60000610352</ele>
        <time>2011-04-17T08:50:43.000Z</time>
      </trkpt>
      <trkpt lat="48.68539" lon="1.95664">
        <ele>164</ele>
        <time>2011-04-17T08:50:49.000Z</time>
      </trkpt>
      <trkpt lat="48.68548" lon="1.95673">
        <ele>163</ele>
        <time>2011-04-17T08:50:57.000Z</time>
      </trkpt>
      <trkpt lat="48.68549" lon="1.95673">
        <ele>163.60000610352</ele>
        <time>2011-04-17T08:50:58.000Z</time>
      </trkpt>
      <trkpt lat="48.68555" lon="1.95676">
        <ele>165.39999389648</ele>
        <time>2011-04-17T08:51:03.000Z</time>
      </trkpt>
      <trkpt lat="48.68559" lon="1.95682">
        <ele>163.60000610352</ele>
        <time>2011-04-17T08:51:08.000Z</time>
      </trkpt>
      <trkpt lat="48.68567" lon="1.9569">
        <ele>162.60000610352</ele>
        <time>2011-04-17T08:51:15.000Z</time>
      </trkpt>
      <trkpt lat="48.68574" lon="1.95696">
        <ele>160.19999694824</ele>
        <time>2011-04-17T08:51:21.000Z</time>
      </trkpt>
      <trkpt lat="48.68583" lon="1.95703">
        <ele>161.60000610352</ele>
        <time>2011-04-17T08:51:29.000Z</time>
      </trkpt>
      <trkpt lat="48.68592" lon="1.95709">
        <ele>163</ele>
        <time>2011-04-17T08:51:36.000Z</time>
      </trkpt>
      <trkpt lat="48.68604" lon="1.9572">
        <ele>162.19999694824</ele>
        <time>2011-04-17T08:51:46.000Z</time>
      </trkpt>
      <trkpt lat="48.68614" lon="1.95729">
        <ele>164</ele>
        <time>2011-04-17T08:51:55.000Z</time>
      </trkpt>
      <trkpt lat="48.68623" lon="1.95737">
        <ele>166.39999389648</ele>
        <time>2011-04-17T08:52:03.000Z</time>
      </trkpt>
      <trkpt lat="48.68631" lon="1.95744">
        <ele>167</ele>
        <time>2011-04-17T08:52:10.000Z</time>
      </trkpt>
      <trkpt lat="48.68637" lon="1.95748">
        <ele>169.39999389648</ele>
        <time>2011-04-17T08:52:15.000Z</time>
      </trkpt>
      <trkpt lat="48.68644" lon="1.95754">
        <ele>169.39999389648</ele>
        <time>2011-04-17T08:52:22.000Z</time>
      </trkpt>
      <trkpt lat="48.68651" lon="1.95761">
        <ele>168.39999389648</ele>
        <time>2011-04-17T08:52:29.000Z</time>
      </trkpt>
      <trkpt lat="48.68659" lon="1.95768">
        <ele>167.39999389648</ele>
        <time>2011-04-17T08:52:37.000Z</time>
      </trkpt>
      <trkpt lat="48.68669" lon="1.95777">
        <ele>166</ele>
        <time>2011-04-17T08:52:45.000Z</time>
      </trkpt>
      <trkpt lat="48.68678" lon="1.95786">
        <ele>165.39999389648</ele>
        <time>2011-04-17T08:52:53.000Z</time>
      </trkpt>
      <trkpt lat="48.6868" lon="1.95788">
        <ele>165.39999389648</ele>
        <time>2011-04-17T08:52:55.000Z</time>
      </trkpt>
      <trkpt lat="48.6869" lon="1.95797">
        <ele>166.39999389648</ele>
        <time>2011-04-17T08:53:04.000Z</time>
      </trkpt>
      <trkpt lat="48.68698" lon="1.95804">
        <ele>166</ele>
        <time>2011-04-17T08:53:11.000Z</time>
      </trkpt>
      <trkpt lat="48.68706" lon="1.9581">
        <ele>167.39999389648</ele>
        <time>2011-04-17T08:53:17.000Z</time>
      </trkpt>
      <trkpt lat="48.68713" lon="1.95817">
        <ele>167.80000305176</ele>
        <time>2011-04-17T08:53:24.000Z</time>
      </trkpt>
      <trkpt lat="48.68715" lon="1.95818">
        <ele>168.39999389648</ele>
        <time>2011-04-17T08:53:26.000Z</time>
      </trkpt>
      <trkpt lat="48.68719" lon="1.95817">
        <ele>167.80000305176</ele>
        <time>2011-04-17T08:53:30.000Z</time>
      </trkpt>
      <trkpt lat="48.68722" lon="1.95815">
        <ele>167.80000305176</ele>
        <time>2011-04-17T08:53:32.000Z</time>
      </trkpt>
      <trkpt lat="48.68727" lon="1.9582">
        <ele>170.19999694824</ele>
        <time>2011-04-17T08:53:40.000Z</time>
      </trkpt>
      <trkpt lat="48.68735" lon="1.95827">
        <ele>171.80000305176</ele>
        <time>2011-04-17T08:53:47.000Z</time>
      </trkpt>
      <trkpt lat="48.68741" lon="1.95832">
        <ele>173.19999694824</ele>
        <time>2011-04-17T08:53:53.000Z</time>
      </trkpt>
      <trkpt lat="48.68749" lon="1.95839">
        <ele>172.60000610352</ele>
        <time>2011-04-17T08:54:01.000Z</time>
      </trkpt>
      <trkpt lat="48.6876" lon="1.95849">
        <ele>171.80000305176</ele>
        <time>2011-04-17T08:54:10.000Z</time>
      </trkpt>
      <trkpt lat="48.68767" lon="1.95856">
        <ele>171.19999694824</ele>
        <time>2011-04-17T08:54:17.000Z</time>
      </trkpt>
      <trkpt lat="48.68775" lon="1.95863">
        <ele>170.80000305176</ele>
        <time>2011-04-17T08:54:24.000Z</time>
      </trkpt>
      <trkpt lat="48.68788" lon="1.95874">
        <ele>170.80000305176</ele>
        <time>2011-04-17T08:54:34.000Z</time>
      </trkpt>
      <trkpt lat="48.68795" lon="1.95881">
        <ele>170.19999694824</ele>
        <time>2011-04-17T08:54:41.000Z</time>
      </trkpt>
      <trkpt lat="48.68802" lon="1.95889">
        <ele>168.80000305176</ele>
        <time>2011-04-17T08:54:48.000Z</time>
      </trkpt>
      <trkpt lat="48.68806" lon="1.95893">
        <ele>168.80000305176</ele>
        <time>2011-04-17T08:54:51.000Z</time>
      </trkpt>
      <trkpt lat="48.68809" lon="1.95901">
        <ele>168.80000305176</ele>
        <time>2011-04-17T08:54:57.000Z</time>
      </trkpt>
      <trkpt lat="48.68814" lon="1.95906">
        <ele>167.39999389648</ele>
        <time>2011-04-17T08:55:02.000Z</time>
      </trkpt>
      <trkpt lat="48.68823" lon="1.95912">
        <ele>170.80000305176</ele>
        <time>2011-04-17T08:55:10.000Z</time>
      </trkpt>
      <trkpt lat="48.68824" lon="1.95913">
        <ele>171.19999694824</ele>
        <time>2011-04-17T08:55:11.000Z</time>
      </trkpt>
      <trkpt lat="48.68832" lon="1.9592">
        <ele>172.60000610352</ele>
        <time>2011-04-17T08:55:18.000Z</time>
      </trkpt>
      <trkpt lat="48.68838" lon="1.95926">
        <ele>172.60000610352</ele>
        <time>2011-04-17T08:55:24.000Z</time>
      </trkpt>
      <trkpt lat="48.6884" lon="1.95925">
        <ele>171.80000305176</ele>
        <time>2011-04-17T08:55:27.000Z</time>
      </trkpt>
      <trkpt lat="48.68853" lon="1.95929">
        <ele>174.60000610352</ele>
        <time>2011-04-17T08:55:58.000Z</time>
      </trkpt>
      <trkpt lat="48.68855" lon="1.9593">
        <ele>174.60000610352</ele>
        <time>2011-04-17T08:55:59.000Z</time>
      </trkpt>
      <trkpt lat="48.68857" lon="1.95936">
        <ele>173.60000610352</ele>
        <time>2011-04-17T08:56:02.000Z</time>
      </trkpt>
      <trkpt lat="48.68859" lon="1.95938">
        <ele>174.60000610352</ele>
        <time>2011-04-17T08:56:05.000Z</time>
      </trkpt>
      <trkpt lat="48.68863" lon="1.95945">
        <ele>174.19999694824</ele>
        <time>2011-04-17T08:56:12.000Z</time>
      </trkpt>
      <trkpt lat="48.68867" lon="1.95948">
        <ele>174.60000610352</ele>
        <time>2011-04-17T08:56:17.000Z</time>
      </trkpt>
      <trkpt lat="48.68868" lon="1.95948">
        <ele>175</ele>
        <time>2011-04-17T08:56:18.000Z</time>
      </trkpt>
      <trkpt lat="48.68876" lon="1.95954">
        <ele>174.19999694824</ele>
        <time>2011-04-17T08:56:26.000Z</time>
      </trkpt>
      <trkpt lat="48.68884" lon="1.95963">
        <ele>172.19999694824</ele>
        <time>2011-04-17T08:56:34.000Z</time>
      </trkpt>
      <trkpt lat="48.68885" lon="1.95964">
        <ele>171.80000305176</ele>
        <time>2011-04-17T08:56:36.000Z</time>
      </trkpt>
      <trkpt lat="48.68892" lon="1.9597">
        <ele>172.60000610352</ele>
        <time>2011-04-17T08:56:42.000Z</time>
      </trkpt>
      <trkpt lat="48.68895" lon="1.95972">
        <ele>171.80000305176</ele>
        <time>2011-04-17T08:56:44.000Z</time>
      </trkpt>
      <trkpt lat="48.68899" lon="1.95976">
        <ele>170.19999694824</ele>
        <time>2011-04-17T08:56:48.000Z</time>
      </trkpt>
      <trkpt lat="48.68908" lon="1.95983">
        <ele>168.39999389648</ele>
        <time>2011-04-17T08:56:55.000Z</time>
      </trkpt>
      <trkpt lat="48.68909" lon="1.95984">
        <ele>167.80000305176</ele>
        <time>2011-04-17T08:56:56.000Z</time>
      </trkpt>
      <trkpt lat="48.68914" lon="1.95989">
        <ele>167.39999389648</ele>
        <time>2011-04-17T08:57:01.000Z</time>
      </trkpt>
      <trkpt lat="48.68919" lon="1.95993">
        <ele>165.39999389648</ele>
        <time>2011-04-17T08:57:05.000Z</time>
      </trkpt>
      <trkpt lat="48.68931" lon="1.96005">
        <ele>162.19999694824</ele>
        <time>2011-04-17T08:57:15.000Z</time>
      </trkpt>
      <trkpt lat="48.68937" lon="1.96009">
        <ele>162.60000610352</ele>
        <time>2011-04-17T08:57:21.000Z</time>
      </trkpt>
      <trkpt lat="48.68942" lon="1.96013">
        <ele>160.19999694824</ele>
        <time>2011-04-17T08:57:29.000Z</time>
      </trkpt>
      <trkpt lat="48.6895" lon="1.96021">
        <ele>161.60000610352</ele>
        <time>2011-04-17T08:57:37.000Z</time>
      </trkpt>
      <trkpt lat="48.68958" lon="1.96028">
        <ele>163</ele>
        <time>2011-04-17T08:57:44.000Z</time>
      </trkpt>
      <trkpt lat="48.6896" lon="1.96029">
        <ele>163</ele>
        <time>2011-04-17T08:57:46.000Z</time>
      </trkpt>
      <trkpt lat="48.68966" lon="1.96035">
        <ele>161.60000610352</ele>
        <time>2011-04-17T08:57:51.000Z</time>
      </trkpt>
      <trkpt lat="48.68976" lon="1.96045">
        <ele>159.19999694824</ele>
        <time>2011-04-17T08:58:01.000Z</time>
      </trkpt>
      <trkpt lat="48.68982" lon="1.96052">
        <ele>156.80000305176</ele>
        <time>2011-04-17T08:58:08.000Z</time>
      </trkpt>
      <trkpt lat="48.6899" lon="1.96057">
        <ele>161.19999694824</ele>
        <time>2011-04-17T08:58:16.000Z</time>
      </trkpt>
      <trkpt lat="48.68993" lon="1.9606">
        <ele>162.60000610352</ele>
        <time>2011-04-17T08:58:19.000Z</time>
      </trkpt>
      <trkpt lat="48.69" lon="1.96066">
        <ele>165.39999389648</ele>
        <time>2011-04-17T08:58:25.000Z</time>
      </trkpt>
      <trkpt lat="48.69009" lon="1.96073">
        <ele>167.39999389648</ele>
        <time>2011-04-17T08:58:33.000Z</time>
      </trkpt>
      <trkpt lat="48.69018" lon="1.96079">
        <ele>170.19999694824</ele>
        <time>2011-04-17T08:58:41.000Z</time>
      </trkpt>
      <trkpt lat="48.69024" lon="1.96084">
        <ele>171.80000305176</ele>
        <time>2011-04-17T08:58:47.000Z</time>
      </trkpt>
      <trkpt lat="48.6903" lon="1.96086">
        <ele>176</ele>
        <time>2011-04-17T08:58:54.000Z</time>
      </trkpt>
      <trkpt lat="48.69033" lon="1.96087">
        <ele>179.39999389648</ele>
        <time>2011-04-17T08:59:00.000Z</time>
      </trkpt>
      <trkpt lat="48.69033" lon="1.96087">
        <ele>180</ele>
        <time>2011-04-17T08:59:01.000Z</time>
      </trkpt>
      <trkpt lat="48.69037" lon="1.96097">
        <ele>178.39999389648</ele>
        <time>2011-04-17T08:59:11.000Z</time>
      </trkpt>
      <trkpt lat="48.69037" lon="1.96106">
        <ele>177.60000610352</ele>
        <time>2011-04-17T08:59:17.000Z</time>
      </trkpt>
      <trkpt lat="48.69039" lon="1.96107">
        <ele>178</ele>
        <time>2011-04-17T08:59:21.000Z</time>
      </trkpt>
      <trkpt lat="48.6904" lon="1.96208">
        <ele>161.60000610352</ele>
        <time>2011-04-17T09:01:19.000Z</time>
      </trkpt>
      <trkpt lat="48.69034" lon="1.96218">
        <ele>159.80000305176</ele>
        <time>2011-04-17T09:01:25.000Z</time>
      </trkpt>
      <trkpt lat="48.6903" lon="1.96222">
        <ele>159.19999694824</ele>
        <time>2011-04-17T09:01:28.000Z</time>
      </trkpt>
      <trkpt lat="48.69027" lon="1.96231">
        <ele>158.19999694824</ele>
        <time>2011-04-17T09:01:34.000Z</time>
      </trkpt>
      <trkpt lat="48.69023" lon="1.96238">
        <ele>158.80000305176</ele>
        <time>2011-04-17T09:01:39.000Z</time>
      </trkpt>
      <trkpt lat="48.69022" lon="1.96243">
        <ele>158.19999694824</ele>
        <time>2011-04-17T09:01:43.000Z</time>
      </trkpt>
      <trkpt lat="48.69021" lon="1.96246">
        <ele>157.80000305176</ele>
        <time>2011-04-17T09:01:45.000Z</time>
      </trkpt>
      <trkpt lat="48.69015" lon="1.96258">
        <ele>156.80000305176</ele>
        <time>2011-04-17T09:01:52.000Z</time>
      </trkpt>
      <trkpt lat="48.69012" lon="1.9627">
        <ele>154.39999389648</ele>
        <time>2011-04-17T09:01:59.000Z</time>
      </trkpt>
      <trkpt lat="48.6901" lon="1.96279">
        <ele>152</ele>
        <time>2011-04-17T09:02:04.000Z</time>
      </trkpt>
      <trkpt lat="48.69008" lon="1.9629">
        <ele>153</ele>
        <time>2011-04-17T09:02:10.000Z</time>
      </trkpt>
      <trkpt lat="48.6901" lon="1.96302">
        <ele>150.60000610352</ele>
        <time>2011-04-17T09:02:17.000Z</time>
      </trkpt>
      <trkpt lat="48.69012" lon="1.96313">
        <ele>150.60000610352</ele>
        <time>2011-04-17T09:02:23.000Z</time>
      </trkpt>
      <trkpt lat="48.69013" lon="1.96319">
        <ele>149.60000610352</ele>
        <time>2011-04-17T09:02:26.000Z</time>
      </trkpt>
      <trkpt lat="48.69015" lon="1.9633">
        <ele>150.19999694824</ele>
        <time>2011-04-17T09:02:32.000Z</time>
      </trkpt>
      <trkpt lat="48.69017" lon="1.96343">
        <ele>152.60000610352</ele>
        <time>2011-04-17T09:02:40.000Z</time>
      </trkpt>
      <trkpt lat="48.6902" lon="1.96358">
        <ele>155</ele>
        <time>2011-04-17T09:02:47.000Z</time>
      </trkpt>
      <trkpt lat="48.6902" lon="1.9637">
        <ele>158.80000305176</ele>
        <time>2011-04-17T09:02:54.000Z</time>
      </trkpt>
      <trkpt lat="48.69017" lon="1.96377">
        <ele>158.19999694824</ele>
        <time>2011-04-17T09:02:58.000Z</time>
      </trkpt>
      <trkpt lat="48.69013" lon="1.96386">
        <ele>155.80000305176</ele>
        <time>2011-04-17T09:03:03.000Z</time>
      </trkpt>
      <trkpt lat="48.69006" lon="1.96397">
        <ele>152.60000610352</ele>
        <time>2011-04-17T09:03:11.000Z</time>
      </trkpt>
      <trkpt lat="48.69005" lon="1.96402">
        <ele>153.39999389648</ele>
        <time>2011-04-17T09:03:16.000Z</time>
      </trkpt>
      <trkpt lat="48.68997" lon="1.9641">
        <ele>154</ele>
        <time>2011-04-17T09:03:46.000Z</time>
      </trkpt>
      <trkpt lat="48.68993" lon="1.96412">
        <ele>152</ele>
        <time>2011-04-17T09:03:48.000Z</time>
      </trkpt>
      <trkpt lat="48.68986" lon="1.96418">
        <ele>150.19999694824</ele>
        <time>2011-04-17T09:03:55.000Z</time>
      </trkpt>
      <trkpt lat="48.68979" lon="1.96425">
        <ele>147.60000610352</ele>
        <time>2011-04-17T09:04:01.000Z</time>
      </trkpt>
      <trkpt lat="48.68975" lon="1.96431">
        <ele>146.80000305176</ele>
        <time>2011-04-17T09:04:07.000Z</time>
      </trkpt>
      <trkpt lat="48.68973" lon="1.96442">
        <ele>143.80000305176</ele>
        <time>2011-04-17T09:04:14.000Z</time>
      </trkpt>
      <trkpt lat="48.6897" lon="1.96454">
        <ele>143.39999389648</ele>
        <time>2011-04-17T09:04:21.000Z</time>
      </trkpt>
      <trkpt lat="48.68967" lon="1.96468">
        <ele>141.39999389648</ele>
        <time>2011-04-17T09:04:29.000Z</time>
      </trkpt>
      <trkpt lat="48.68967" lon="1.96472">
        <ele>141.39999389648</ele>
        <time>2011-04-17T09:04:35.000Z</time>
      </trkpt>
      <trkpt lat="48.68966" lon="1.96483">
        <ele>140</ele>
        <time>2011-04-17T09:04:41.000Z</time>
      </trkpt>
      <trkpt lat="48.6896" lon="1.96497">
        <ele>138</ele>
        <time>2011-04-17T09:04:49.000Z</time>
      </trkpt>
      <trkpt lat="48.68958" lon="1.96508">
        <ele>137.19999694824</ele>
        <time>2011-04-17T09:04:54.000Z</time>
      </trkpt>
      <trkpt lat="48.68956" lon="1.96524">
        <ele>137.60000610352</ele>
        <time>2011-04-17T09:05:01.000Z</time>
      </trkpt>
      <trkpt lat="48.68954" lon="1.96536">
        <ele>137.60000610352</ele>
        <time>2011-04-17T09:05:07.000Z</time>
      </trkpt>
      <trkpt lat="48.68953" lon="1.96545">
        <ele>138</ele>
        <time>2011-04-17T09:05:12.000Z</time>
      </trkpt>
      <trkpt lat="48.68957" lon="1.96555">
        <ele>137.60000610352</ele>
        <time>2011-04-17T09:05:19.000Z</time>
      </trkpt>
      <trkpt lat="48.68956" lon="1.96557">
        <ele>137.60000610352</ele>
        <time>2011-04-17T09:05:20.000Z</time>
      </trkpt>
      <trkpt lat="48.6895" lon="1.96575">
        <ele>136.19999694824</ele>
        <time>2011-04-17T09:05:31.000Z</time>
      </trkpt>
      <trkpt lat="48.68949" lon="1.9658">
        <ele>136.19999694824</ele>
        <time>2011-04-17T09:05:36.000Z</time>
      </trkpt>
      <trkpt lat="48.68942" lon="1.96594">
        <ele>134.19999694824</ele>
        <time>2011-04-17T09:05:51.000Z</time>
      </trkpt>
      <trkpt lat="48.68939" lon="1.966">
        <ele>133.80000305176</ele>
        <time>2011-04-17T09:05:54.000Z</time>
      </trkpt>
      <trkpt lat="48.68937" lon="1.96601">
        <ele>134.19999694824</ele>
        <time>2011-04-17T09:05:59.000Z</time>
      </trkpt>
      <trkpt lat="48.68935" lon="1.96613">
        <ele>133.80000305176</ele>
        <time>2011-04-17T09:06:09.000Z</time>
      </trkpt>
      <trkpt lat="48.68933" lon="1.96621">
        <ele>133.80000305176</ele>
        <time>2011-04-17T09:06:12.000Z</time>
      </trkpt>
      <trkpt lat="48.68928" lon="1.96636">
        <ele>132.80000305176</ele>
        <time>2011-04-17T09:06:20.000Z</time>
      </trkpt>
      <trkpt lat="48.68927" lon="1.96637">
        <ele>132.80000305176</ele>
        <time>2011-04-17T09:06:23.000Z</time>
      </trkpt>
      <trkpt lat="48.68926" lon="1.96648">
        <ele>132.39999389648</ele>
        <time>2011-04-17T09:06:31.000Z</time>
      </trkpt>
      <trkpt lat="48.68922" lon="1.96663">
        <ele>131.39999389648</ele>
        <time>2011-04-17T09:06:39.000Z</time>
      </trkpt>
      <trkpt lat="48.68921" lon="1.96667">
        <ele>131.39999389648</ele>
        <time>2011-04-17T09:06:41.000Z</time>
      </trkpt>
      <trkpt lat="48.68921" lon="1.96671">
        <ele>131.39999389648</ele>
        <time>2011-04-17T09:06:46.000Z</time>
      </trkpt>
      <trkpt lat="48.68922" lon="1.96684">
        <ele>133.19999694824</ele>
        <time>2011-04-17T09:07:28.000Z</time>
      </trkpt>
      <trkpt lat="48.68919" lon="1.9669">
        <ele>132.39999389648</ele>
        <time>2011-04-17T09:07:31.000Z</time>
      </trkpt>
      <trkpt lat="48.68913" lon="1.96704">
        <ele>130.39999389648</ele>
        <time>2011-04-17T09:07:39.000Z</time>
      </trkpt>
      <trkpt lat="48.68905" lon="1.96722">
        <ele>128</ele>
        <time>2011-04-17T09:07:50.000Z</time>
      </trkpt>
      <trkpt lat="48.689" lon="1.96738">
        <ele>125.59999847412</ele>
        <time>2011-04-17T09:07:59.000Z</time>
      </trkpt>
      <trkpt lat="48.68896" lon="1.96753">
        <ele>123.19999694824</ele>
        <time>2011-04-17T09:08:08.000Z</time>
      </trkpt>
      <trkpt lat="48.68892" lon="1.96769">
        <ele>122.80000305176</ele>
        <time>2011-04-17T09:08:17.000Z</time>
      </trkpt>
      <trkpt lat="48.68888" lon="1.96782">
        <ele>122.19999694824</ele>
        <time>2011-04-17T09:08:24.000Z</time>
      </trkpt>
      <trkpt lat="48.68883" lon="1.96799">
        <ele>121.19999694824</ele>
        <time>2011-04-17T09:08:34.000Z</time>
      </trkpt>
      <trkpt lat="48.68879" lon="1.96812">
        <ele>121.80000305176</ele>
        <time>2011-04-17T09:08:41.000Z</time>
      </trkpt>
      <trkpt lat="48.68875" lon="1.96832">
        <ele>120.80000305176</ele>
        <time>2011-04-17T09:08:52.000Z</time>
      </trkpt>
      <trkpt lat="48.68874" lon="1.96836">
        <ele>120.80000305176</ele>
        <time>2011-04-17T09:08:54.000Z</time>
      </trkpt>
      <trkpt lat="48.68874" lon="1.96839">
        <ele>120.80000305176</ele>
        <time>2011-04-17T09:08:58.000Z</time>
      </trkpt>
      <trkpt lat="48.68871" lon="1.96848">
        <ele>119.80000305176</ele>
        <time>2011-04-17T09:09:13.000Z</time>
      </trkpt>
      <trkpt lat="48.68869" lon="1.96867">
        <ele>119.40000152588</ele>
        <time>2011-04-17T09:09:22.000Z</time>
      </trkpt>
      <trkpt lat="48.68868" lon="1.96875">
        <ele>118.80000305176</ele>
        <time>2011-04-17T09:09:27.000Z</time>
      </trkpt>
      <trkpt lat="48.68867" lon="1.96882">
        <ele>118.40000152588</ele>
        <time>2011-04-17T09:09:31.000Z</time>
      </trkpt>
      <trkpt lat="48.68865" lon="1.96899">
        <ele>117.80000305176</ele>
        <time>2011-04-17T09:09:40.000Z</time>
      </trkpt>
      <trkpt lat="48.68863" lon="1.96914">
        <ele>117</ele>
        <time>2011-04-17T09:09:48.000Z</time>
      </trkpt>
      <trkpt lat="48.68862" lon="1.96933">
        <ele>117</ele>
        <time>2011-04-17T09:09:57.000Z</time>
      </trkpt>
      <trkpt lat="48.68863" lon="1.96948">
        <ele>117</ele>
        <time>2011-04-17T09:10:05.000Z</time>
      </trkpt>
      <trkpt lat="48.68864" lon="1.96958">
        <ele>117</ele>
        <time>2011-04-17T09:10:10.000Z</time>
      </trkpt>
      <trkpt lat="48.68864" lon="1.96964">
        <ele>116.40000152588</ele>
        <time>2011-04-17T09:10:13.000Z</time>
      </trkpt>
      <trkpt lat="48.68865" lon="1.96976">
        <ele>117</ele>
        <time>2011-04-17T09:10:19.000Z</time>
      </trkpt>
      <trkpt lat="48.68864" lon="1.96996">
        <ele>116</ele>
        <time>2011-04-17T09:10:29.000Z</time>
      </trkpt>
      <trkpt lat="48.68863" lon="1.97008">
        <ele>116</ele>
        <time>2011-04-17T09:10:35.000Z</time>
      </trkpt>
      <trkpt lat="48.68863" lon="1.97023">
        <ele>115.40000152588</ele>
        <time>2011-04-17T09:10:42.000Z</time>
      </trkpt>
      <trkpt lat="48.6886" lon="1.97042">
        <ele>115</ele>
        <time>2011-04-17T09:10:52.000Z</time>
      </trkpt>
      <trkpt lat="48.68857" lon="1.97064">
        <ele>114.59999847412</ele>
        <time>2011-04-17T09:11:04.000Z</time>
      </trkpt>
      <trkpt lat="48.68856" lon="1.97078">
        <ele>113.59999847412</ele>
        <time>2011-04-17T09:11:12.000Z</time>
      </trkpt>
      <trkpt lat="48.68854" lon="1.97095">
        <ele>113.59999847412</ele>
        <time>2011-04-17T09:11:21.000Z</time>
      </trkpt>
      <trkpt lat="48.68851" lon="1.97109">
        <ele>112.59999847412</ele>
        <time>2011-04-17T09:11:29.000Z</time>
      </trkpt>
      <trkpt lat="48.68847" lon="1.97119">
        <ele>112.59999847412</ele>
        <time>2011-04-17T09:11:36.000Z</time>
      </trkpt>
      <trkpt lat="48.68842" lon="1.97126">
        <ele>112.19999694824</ele>
        <time>2011-04-17T09:11:42.000Z</time>
      </trkpt>
      <trkpt lat="48.68836" lon="1.97135">
        <ele>111.19999694824</ele>
        <time>2011-04-17T09:11:49.000Z</time>
      </trkpt>
      <trkpt lat="48.6883" lon="1.97142">
        <ele>111.19999694824</ele>
        <time>2011-04-17T09:11:55.000Z</time>
      </trkpt>
      <trkpt lat="48.6882" lon="1.97152">
        <ele>111.19999694824</ele>
        <time>2011-04-17T09:12:04.000Z</time>
      </trkpt>
      <trkpt lat="48.68815" lon="1.97158">
        <ele>111.19999694824</ele>
        <time>2011-04-17T09:12:10.000Z</time>
      </trkpt>
      <trkpt lat="48.68807" lon="1.97168">
        <ele>110.19999694824</ele>
        <time>2011-04-17T09:12:18.000Z</time>
      </trkpt>
      <trkpt lat="48.68799" lon="1.97175">
        <ele>110.19999694824</ele>
        <time>2011-04-17T09:12:25.000Z</time>
      </trkpt>
      <trkpt lat="48.68795" lon="1.9718">
        <ele>109.80000305176</ele>
        <time>2011-04-17T09:12:30.000Z</time>
      </trkpt>
      <trkpt lat="48.68788" lon="1.97194">
        <ele>110.59999847412</ele>
        <time>2011-04-17T09:12:39.000Z</time>
      </trkpt>
      <trkpt lat="48.6878" lon="1.97208">
        <ele>109.80000305176</ele>
        <time>2011-04-17T09:12:48.000Z</time>
      </trkpt>
      <trkpt lat="48.6878" lon="1.9721">
        <ele>109.80000305176</ele>
        <time>2011-04-17T09:12:49.000Z</time>
      </trkpt>
      <trkpt lat="48.68779" lon="1.97211">
        <ele>109.19999694824</ele>
        <time>2011-04-17T09:12:52.000Z</time>
      </trkpt>
      <trkpt lat="48.68777" lon="1.97225">
        <ele>109.19999694824</ele>
        <time>2011-04-17T09:13:07.000Z</time>
      </trkpt>
      <trkpt lat="48.68778" lon="1.9723">
        <ele>108.80000305176</ele>
        <time>2011-04-17T09:13:09.000Z</time>
      </trkpt>
      <trkpt lat="48.68778" lon="1.97238">
        <ele>109.19999694824</ele>
        <time>2011-04-17T09:13:13.000Z</time>
      </trkpt>
      <trkpt lat="48.68778" lon="1.97256">
        <ele>109.80000305176</ele>
        <time>2011-04-17T09:13:22.000Z</time>
      </trkpt>
      <trkpt lat="48.6878" lon="1.97271">
        <ele>110.19999694824</ele>
        <time>2011-04-17T09:13:30.000Z</time>
      </trkpt>
      <trkpt lat="48.68781" lon="1.97275">
        <ele>109.80000305176</ele>
        <time>2011-04-17T09:13:34.000Z</time>
      </trkpt>
      <trkpt lat="48.6879" lon="1.97342">
        <ele>108.19999694824</ele>
        <time>2011-04-17T09:14:54.000Z</time>
      </trkpt>
      <trkpt lat="48.68791" lon="1.97349">
        <ele>108.19999694824</ele>
        <time>2011-04-17T09:14:58.000Z</time>
      </trkpt>
      <trkpt lat="48.68791" lon="1.97356">
        <ele>107.80000305176</ele>
        <time>2011-04-17T09:15:02.000Z</time>
      </trkpt>
      <trkpt lat="48.68791" lon="1.97373">
        <ele>106.40000152588</ele>
        <time>2011-04-17T09:15:11.000Z</time>
      </trkpt>
      <trkpt lat="48.68793" lon="1.97388">
        <ele>105.40000152588</ele>
        <time>2011-04-17T09:15:19.000Z</time>
      </trkpt>
      <trkpt lat="48.68794" lon="1.97398">
        <ele>105.40000152588</ele>
        <time>2011-04-17T09:15:25.000Z</time>
      </trkpt>
      <trkpt lat="48.68797" lon="1.97407">
        <ele>105</ele>
        <time>2011-04-17T09:15:30.000Z</time>
      </trkpt>
      <trkpt lat="48.68797" lon="1.97418">
        <ele>104.40000152588</ele>
        <time>2011-04-17T09:15:36.000Z</time>
      </trkpt>
      <trkpt lat="48.68797" lon="1.97433">
        <ele>104</ele>
        <time>2011-04-17T09:15:44.000Z</time>
      </trkpt>
      <trkpt lat="48.68799" lon="1.97445">
        <ele>104</ele>
        <time>2011-04-17T09:15:50.000Z</time>
      </trkpt>
      <trkpt lat="48.68799" lon="1.97448">
        <ele>104</ele>
        <time>2011-04-17T09:15:52.000Z</time>
      </trkpt>
      <trkpt lat="48.688" lon="1.97453">
        <ele>104</ele>
        <time>2011-04-17T09:15:56.000Z</time>
      </trkpt>
      <trkpt lat="48.68801" lon="1.97464">
        <ele>104</ele>
        <time>2011-04-17T09:16:03.000Z</time>
      </trkpt>
      <trkpt lat="48.68806" lon="1.97478">
        <ele>104.40000152588</ele>
        <time>2011-04-17T09:16:11.000Z</time>
      </trkpt>
      <trkpt lat="48.68812" lon="1.97492">
        <ele>105</ele>
        <time>2011-04-17T09:16:20.000Z</time>
      </trkpt>
      <trkpt lat="48.68813" lon="1.97494">
        <ele>104.40000152588</ele>
        <time>2011-04-17T09:16:22.000Z</time>
      </trkpt>
      <trkpt lat="48.68817" lon="1.975">
        <ele>104.40000152588</ele>
        <time>2011-04-17T09:16:26.000Z</time>
      </trkpt>
      <trkpt lat="48.68829" lon="1.97505">
        <ele>104</ele>
        <time>2011-04-17T09:16:36.000Z</time>
      </trkpt>
      <trkpt lat="48.68835" lon="1.97508">
        <ele>104.40000152588</ele>
        <time>2011-04-17T09:16:41.000Z</time>
      </trkpt>
      <trkpt lat="48.68842" lon="1.97514">
        <ele>104.40000152588</ele>
        <time>2011-04-17T09:16:48.000Z</time>
      </trkpt>
      <trkpt lat="48.68853" lon="1.97524">
        <ele>104.40000152588</ele>
        <time>2011-04-17T09:16:58.000Z</time>
      </trkpt>
      <trkpt lat="48.68854" lon="1.9754">
        <ele>104.40000152588</ele>
        <time>2011-04-17T09:17:06.000Z</time>
      </trkpt>
      <trkpt lat="48.68854" lon="1.97555">
        <ele>104</ele>
        <time>2011-04-17T09:17:13.000Z</time>
      </trkpt>
      <trkpt lat="48.68853" lon="1.97568">
        <ele>103.40000152588</ele>
        <time>2011-04-17T09:17:20.000Z</time>
      </trkpt>
      <trkpt lat="48.68853" lon="1.97585">
        <ele>103</ele>
        <time>2011-04-17T09:17:28.000Z</time>
      </trkpt>
      <trkpt lat="48.68852" lon="1.97604">
        <ele>102.59999847412</ele>
        <time>2011-04-17T09:17:37.000Z</time>
      </trkpt>
      <trkpt lat="48.68851" lon="1.9762">
        <ele>102</ele>
        <time>2011-04-17T09:17:45.000Z</time>
      </trkpt>
      <trkpt lat="48.6885" lon="1.97625">
        <ele>102</ele>
        <time>2011-04-17T09:17:50.000Z</time>
      </trkpt>
      <trkpt lat="48.6885" lon="1.97631">
        <ele>101.59999847412</ele>
        <time>2011-04-17T09:17:59.000Z</time>
      </trkpt>
      <trkpt lat="48.6885" lon="1.97635">
        <ele>101</ele>
        <time>2011-04-17T09:18:03.000Z</time>
      </trkpt>
      <trkpt lat="48.68849" lon="1.97646">
        <ele>101</ele>
        <time>2011-04-17T09:18:11.000Z</time>
      </trkpt>
      <trkpt lat="48.68849" lon="1.9765">
        <ele>101</ele>
        <time>2011-04-17T09:18:14.000Z</time>
      </trkpt>
      <trkpt lat="48.68848" lon="1.97659">
        <ele>101</ele>
        <time>2011-04-17T09:18:27.000Z</time>
      </trkpt>
      <trkpt lat="48.68851" lon="1.97672">
        <ele>101</ele>
        <time>2011-04-17T09:18:33.000Z</time>
      </trkpt>
      <trkpt lat="48.68851" lon="1.97675">
        <ele>101</ele>
        <time>2011-04-17T09:18:35.000Z</time>
      </trkpt>
      <trkpt lat="48.68855" lon="1.9769">
        <ele>100.59999847412</ele>
        <time>2011-04-17T09:18:44.000Z</time>
      </trkpt>
      <trkpt lat="48.68856" lon="1.9769">
        <ele>100.59999847412</ele>
        <time>2011-04-17T09:18:45.000Z</time>
      </trkpt>
      <trkpt lat="48.68871" lon="1.97705">
        <ele>100.59999847412</ele>
        <time>2011-04-17T09:19:42.000Z</time>
      </trkpt>
      <trkpt lat="48.68875" lon="1.97708">
        <ele>100.19999694824</ele>
        <time>2011-04-17T09:19:44.000Z</time>
      </trkpt>
      <trkpt lat="48.68877" lon="1.9771">
        <ele>100.19999694824</ele>
        <time>2011-04-17T09:19:49.000Z</time>
      </trkpt>
      <trkpt lat="48.68884" lon="1.97716">
        <ele>99.599998474121</ele>
        <time>2011-04-17T09:20:41.000Z</time>
      </trkpt>
      <trkpt lat="48.68885" lon="1.97718">
        <ele>99.199996948242</ele>
        <time>2011-04-17T09:20:42.000Z</time>
      </trkpt>
      <trkpt lat="48.68889" lon="1.97721">
        <ele>99.199996948242</ele>
        <time>2011-04-17T09:20:45.000Z</time>
      </trkpt>
      <trkpt lat="48.68896" lon="1.97726">
        <ele>99.199996948242</ele>
        <time>2011-04-17T09:20:51.000Z</time>
      </trkpt>
      <trkpt lat="48.68897" lon="1.97726">
        <ele>99.199996948242</ele>
        <time>2011-04-17T09:20:52.000Z</time>
      </trkpt>
      <trkpt lat="48.68901" lon="1.9773">
        <ele>98.599998474121</ele>
        <time>2011-04-17T09:20:57.000Z</time>
      </trkpt>
      <trkpt lat="48.68908" lon="1.97737">
        <ele>98.599998474121</ele>
        <time>2011-04-17T09:21:04.000Z</time>
      </trkpt>
      <trkpt lat="48.68909" lon="1.97738">
        <ele>98.599998474121</ele>
        <time>2011-04-17T09:21:07.000Z</time>
      </trkpt>
      <trkpt lat="48.68919" lon="1.97745">
        <ele>98.199996948242</ele>
        <time>2011-04-17T09:21:53.000Z</time>
      </trkpt>
      <trkpt lat="48.68929" lon="1.97753">
        <ele>97.800003051758</ele>
        <time>2011-04-17T09:22:01.000Z</time>
      </trkpt>
      <trkpt lat="48.68938" lon="1.97763">
        <ele>97.800003051758</ele>
        <time>2011-04-17T09:22:10.000Z</time>
      </trkpt>
      <trkpt lat="48.68941" lon="1.97776">
        <ele>97.199996948242</ele>
        <time>2011-04-17T09:22:17.000Z</time>
      </trkpt>
      <trkpt lat="48.68941" lon="1.97781">
        <ele>97.199996948242</ele>
        <time>2011-04-17T09:22:20.000Z</time>
      </trkpt>
      <trkpt lat="48.68935" lon="1.97791">
        <ele>97.199996948242</ele>
        <time>2011-04-17T09:22:28.000Z</time>
      </trkpt>
      <trkpt lat="48.68931" lon="1.97798">
        <ele>96.199996948242</ele>
        <time>2011-04-17T09:22:33.000Z</time>
      </trkpt>
      <trkpt lat="48.68925" lon="1.97808">
        <ele>95.400001525879</ele>
        <time>2011-04-17T09:22:40.000Z</time>
      </trkpt>
      <trkpt lat="48.68924" lon="1.9781">
        <ele>95.400001525879</ele>
        <time>2011-04-17T09:22:41.000Z</time>
      </trkpt>
      <trkpt lat="48.68916" lon="1.97824">
        <ele>93.400001525879</ele>
        <time>2011-04-17T09:22:50.000Z</time>
      </trkpt>
      <trkpt lat="48.68912" lon="1.97829">
        <ele>93.400001525879</ele>
        <time>2011-04-17T09:22:54.000Z</time>
      </trkpt>
      <trkpt lat="48.68905" lon="1.97841">
        <ele>92.400001525879</ele>
        <time>2011-04-17T09:23:02.000Z</time>
      </trkpt>
      <trkpt lat="48.68902" lon="1.97845">
        <ele>92.400001525879</ele>
        <time>2011-04-17T09:23:07.000Z</time>
      </trkpt>
      <trkpt lat="48.68901" lon="1.97848">
        <ele>92.400001525879</ele>
        <time>2011-04-17T09:23:09.000Z</time>
      </trkpt>
      <trkpt lat="48.68892" lon="1.97863">
        <ele>93</ele>
        <time>2011-04-17T09:23:19.000Z</time>
      </trkpt>
      <trkpt lat="48.68884" lon="1.97878">
        <ele>93</ele>
        <time>2011-04-17T09:23:29.000Z</time>
      </trkpt>
      <trkpt lat="48.68876" lon="1.97888">
        <ele>92.400001525879</ele>
        <time>2011-04-17T09:23:37.000Z</time>
      </trkpt>
      <trkpt lat="48.6887" lon="1.97898">
        <ele>92.400001525879</ele>
        <time>2011-04-17T09:23:44.000Z</time>
      </trkpt>
      <trkpt lat="48.68863" lon="1.97909">
        <ele>93</ele>
        <time>2011-04-17T09:23:52.000Z</time>
      </trkpt>
      <trkpt lat="48.6886" lon="1.97913">
        <ele>92.400001525879</ele>
        <time>2011-04-17T09:23:55.000Z</time>
      </trkpt>
      <trkpt lat="48.68858" lon="1.97919">
        <ele>92</ele>
        <time>2011-04-17T09:23:59.000Z</time>
      </trkpt>
      <trkpt lat="48.6885" lon="1.97934">
        <ele>92</ele>
        <time>2011-04-17T09:24:09.000Z</time>
      </trkpt>
      <trkpt lat="48.68843" lon="1.97944">
        <ele>92</ele>
        <time>2011-04-17T09:24:16.000Z</time>
      </trkpt>
      <trkpt lat="48.68836" lon="1.97958">
        <ele>92.400001525879</ele>
        <time>2011-04-17T09:24:25.000Z</time>
      </trkpt>
      <trkpt lat="48.68828" lon="1.97972">
        <ele>92.400001525879</ele>
        <time>2011-04-17T09:24:35.000Z</time>
      </trkpt>
      <trkpt lat="48.68822" lon="1.97988">
        <ele>93</ele>
        <time>2011-04-17T09:24:45.000Z</time>
      </trkpt>
      <trkpt lat="48.68818" lon="1.97996">
        <ele>93.400001525879</ele>
        <time>2011-04-17T09:24:52.000Z</time>
      </trkpt>
      <trkpt lat="48.68817" lon="1.97992">
        <ele>94.400001525879</ele>
        <time>2011-04-17T09:24:57.000Z</time>
      </trkpt>
      <trkpt lat="48.68812" lon="1.97988">
        <ele>93.800003051758</ele>
        <time>2011-04-17T09:25:03.000Z</time>
      </trkpt>
      <trkpt lat="48.68809" lon="1.97986">
        <ele>93.400001525879</ele>
        <time>2011-04-17T09:25:06.000Z</time>
      </trkpt>
      <trkpt lat="48.68801" lon="1.97981">
        <ele>92.400001525879</ele>
        <time>2011-04-17T09:25:13.000Z</time>
      </trkpt>
      <trkpt lat="48.68793" lon="1.97983">
        <ele>92</ele>
        <time>2011-04-17T09:25:21.000Z</time>
      </trkpt>
      <trkpt lat="48.68789" lon="1.9798">
        <ele>92.400001525879</ele>
        <time>2011-04-17T09:25:27.000Z</time>
      </trkpt>
      <trkpt lat="48.68788" lon="1.97981">
        <ele>93</ele>
        <time>2011-04-17T09:25:28.000Z</time>
      </trkpt>
      <trkpt lat="48.68801" lon="1.97976">
        <ele>93.400001525879</ele>
        <time>2011-04-17T09:27:39.000Z</time>
      </trkpt>
      <trkpt lat="48.68799" lon="1.97974">
        <ele>96.800003051758</ele>
        <time>2011-04-17T09:27:41.000Z</time>
      </trkpt>
      <trkpt lat="48.68795" lon="1.97969">
        <ele>97.800003051758</ele>
        <time>2011-04-17T09:27:47.000Z</time>
      </trkpt>
      <trkpt lat="48.68791" lon="1.97973">
        <ele>95.800003051758</ele>
        <time>2011-04-17T09:27:53.000Z</time>
      </trkpt>
      <trkpt lat="48.68789" lon="1.97976">
        <ele>94.400001525879</ele>
        <time>2011-04-17T09:27:59.000Z</time>
      </trkpt>
      <trkpt lat="48.68799" lon="1.97976">
        <ele>103.40000152588</ele>
        <time>2011-04-17T09:32:07.000Z</time>
      </trkpt>
      <trkpt lat="48.68807" lon="1.97979">
        <ele>102.59999847412</ele>
        <time>2011-04-17T09:32:13.000Z</time>
      </trkpt>
      <trkpt lat="48.68811" lon="1.97982">
        <ele>102.59999847412</ele>
        <time>2011-04-17T09:32:17.000Z</time>
      </trkpt>
      <trkpt lat="48.68813" lon="1.97988">
        <ele>101.59999847412</ele>
        <time>2011-04-17T09:32:21.000Z</time>
      </trkpt>
      <trkpt lat="48.68815" lon="1.97992">
        <ele>101</ele>
        <time>2011-04-17T09:32:24.000Z</time>
      </trkpt>
      <trkpt lat="48.68813" lon="1.98002">
        <ele>99.599998474121</ele>
        <time>2011-04-17T09:32:31.000Z</time>
      </trkpt>
      <trkpt lat="48.68812" lon="1.98004">
        <ele>100.19999694824</ele>
        <time>2011-04-17T09:32:32.000Z</time>
      </trkpt>
      <trkpt lat="48.68806" lon="1.98019">
        <ele>100.19999694824</ele>
        <time>2011-04-17T09:32:41.000Z</time>
      </trkpt>
      <trkpt lat="48.688" lon="1.98031">
        <ele>100.19999694824</ele>
        <time>2011-04-17T09:32:49.000Z</time>
      </trkpt>
      <trkpt lat="48.68797" lon="1.98037">
        <ele>100.19999694824</ele>
        <time>2011-04-17T09:32:56.000Z</time>
      </trkpt>
      <trkpt lat="48.68799" lon="1.98045">
        <ele>100.59999847412</ele>
        <time>2011-04-17T09:33:02.000Z</time>
      </trkpt>
      <trkpt lat="48.688" lon="1.98048">
        <ele>100.59999847412</ele>
        <time>2011-04-17T09:33:04.000Z</time>
      </trkpt>
      <trkpt lat="48.68801" lon="1.98059">
        <ele>100.19999694824</ele>
        <time>2011-04-17T09:33:10.000Z</time>
      </trkpt>
      <trkpt lat="48.68804" lon="1.98072">
        <ele>100.59999847412</ele>
        <time>2011-04-17T09:33:18.000Z</time>
      </trkpt>
      <trkpt lat="48.6881" lon="1.98089">
        <ele>101</ele>
        <time>2011-04-17T09:33:28.000Z</time>
      </trkpt>
      <trkpt lat="48.68815" lon="1.98097">
        <ele>102</ele>
        <time>2011-04-17T09:33:34.000Z</time>
      </trkpt>
      <trkpt lat="48.68821" lon="1.98106">
        <ele>101.59999847412</ele>
        <time>2011-04-17T09:33:41.000Z</time>
      </trkpt>
      <trkpt lat="48.68826" lon="1.98115">
        <ele>102.59999847412</ele>
        <time>2011-04-17T09:33:48.000Z</time>
      </trkpt>
      <trkpt lat="48.68833" lon="1.98118">
        <ele>101.59999847412</ele>
        <time>2011-04-17T09:33:53.000Z</time>
      </trkpt>
      <trkpt lat="48.68838" lon="1.98119">
        <ele>101</ele>
        <time>2011-04-17T09:33:58.000Z</time>
      </trkpt>
      <trkpt lat="48.68841" lon="1.9812">
        <ele>101</ele>
        <time>2011-04-17T09:34:01.000Z</time>
      </trkpt>
      <trkpt lat="48.68856" lon="1.98126">
        <ele>100.19999694824</ele>
        <time>2011-04-17T09:34:11.000Z</time>
      </trkpt>
      <trkpt lat="48.68864" lon="1.98128">
        <ele>100.19999694824</ele>
        <time>2011-04-17T09:34:16.000Z</time>
      </trkpt>
      <trkpt lat="48.68866" lon="1.98128">
        <ele>100.19999694824</ele>
        <time>2011-04-17T09:34:17.000Z</time>
      </trkpt>
      <trkpt lat="48.68876" lon="1.98134">
        <ele>99.199996948242</ele>
        <time>2011-04-17T09:34:25.000Z</time>
      </trkpt>
      <trkpt lat="48.68882" lon="1.98135">
        <ele>98.599998474121</ele>
        <time>2011-04-17T09:34:29.000Z</time>
      </trkpt>
      <trkpt lat="48.68894" lon="1.98141">
        <ele>97.800003051758</ele>
        <time>2011-04-17T09:34:38.000Z</time>
      </trkpt>
      <trkpt lat="48.68904" lon="1.98144">
        <ele>98.199996948242</ele>
        <time>2011-04-17T09:34:45.000Z</time>
      </trkpt>
      <trkpt lat="48.68906" lon="1.98144">
        <ele>97.800003051758</ele>
        <time>2011-04-17T09:34:47.000Z</time>
      </trkpt>
      <trkpt lat="48.68911" lon="1.98148">
        <ele>97.800003051758</ele>
        <time>2011-04-17T09:34:52.000Z</time>
      </trkpt>
      <trkpt lat="48.68925" lon="1.98154">
        <ele>98.199996948242</ele>
        <time>2011-04-17T09:35:03.000Z</time>
      </trkpt>
      <trkpt lat="48.68929" lon="1.98164">
        <ele>98.199996948242</ele>
        <time>2011-04-17T09:35:09.000Z</time>
      </trkpt>
      <trkpt lat="48.68928" lon="1.98178">
        <ele>97.800003051758</ele>
        <time>2011-04-17T09:35:16.000Z</time>
      </trkpt>
      <trkpt lat="48.68928" lon="1.98188">
        <ele>97.800003051758</ele>
        <time>2011-04-17T09:35:22.000Z</time>
      </trkpt>
      <trkpt lat="48.68928" lon="1.98191">
        <ele>97.199996948242</ele>
        <time>2011-04-17T09:35:26.000Z</time>
      </trkpt>
      <trkpt lat="48.68928" lon="1.98207">
        <ele>97.199996948242</ele>
        <time>2011-04-17T09:35:37.000Z</time>
      </trkpt>
      <trkpt lat="48.68928" lon="1.98222">
        <ele>97.800003051758</ele>
        <time>2011-04-17T09:35:44.000Z</time>
      </trkpt>
      <trkpt lat="48.68928" lon="1.98237">
        <ele>98.199996948242</ele>
        <time>2011-04-17T09:35:52.000Z</time>
      </trkpt>
      <trkpt lat="48.68928" lon="1.98249">
        <ele>98.599998474121</ele>
        <time>2011-04-17T09:35:58.000Z</time>
      </trkpt>
      <trkpt lat="48.68932" lon="1.98261">
        <ele>100.59999847412</ele>
        <time>2011-04-17T09:36:06.000Z</time>
      </trkpt>
      <trkpt lat="48.68941" lon="1.98263">
        <ele>102</ele>
        <time>2011-04-17T09:36:14.000Z</time>
      </trkpt>
      <trkpt lat="48.68942" lon="1.98263">
        <ele>102.59999847412</ele>
        <time>2011-04-17T09:36:16.000Z</time>
      </trkpt>
      <trkpt lat="48.68947" lon="1.98266">
        <ele>103</ele>
        <time>2011-04-17T09:36:23.000Z</time>
      </trkpt>
      <trkpt lat="48.68957" lon="1.9827">
        <ele>103.40000152588</ele>
        <time>2011-04-17T09:36:30.000Z</time>
      </trkpt>
      <trkpt lat="48.68958" lon="1.98272">
        <ele>103.40000152588</ele>
        <time>2011-04-17T09:36:34.000Z</time>
      </trkpt>
      <trkpt lat="48.68969" lon="1.98278">
        <ele>103</ele>
        <time>2011-04-17T09:36:50.000Z</time>
      </trkpt>
      <trkpt lat="48.68977" lon="1.98283">
        <ele>103.40000152588</ele>
        <time>2011-04-17T09:36:56.000Z</time>
      </trkpt>
      <trkpt lat="48.68985" lon="1.9829">
        <ele>102.59999847412</ele>
        <time>2011-04-17T09:37:04.000Z</time>
      </trkpt>
      <trkpt lat="48.68996" lon="1.98304">
        <ele>102</ele>
        <time>2011-04-17T09:37:15.000Z</time>
      </trkpt>
      <trkpt lat="48.69001" lon="1.9831">
        <ele>101.59999847412</ele>
        <time>2011-04-17T09:37:20.000Z</time>
      </trkpt>
      <trkpt lat="48.69011" lon="1.98328">
        <ele>102.59999847412</ele>
        <time>2011-04-17T09:37:32.000Z</time>
      </trkpt>
      <trkpt lat="48.6902" lon="1.98341">
        <ele>103.40000152588</ele>
        <time>2011-04-17T09:37:42.000Z</time>
      </trkpt>
      <trkpt lat="48.6903" lon="1.98354">
        <ele>105</ele>
        <time>2011-04-17T09:37:52.000Z</time>
      </trkpt>
      <trkpt lat="48.69038" lon="1.98363">
        <ele>105</ele>
        <time>2011-04-17T09:38:00.000Z</time>
      </trkpt>
      <trkpt lat="48.69041" lon="1.98366">
        <ele>105</ele>
        <time>2011-04-17T09:38:03.000Z</time>
      </trkpt>
      <trkpt lat="48.69049" lon="1.98372">
        <ele>105</ele>
        <time>2011-04-17T09:38:11.000Z</time>
      </trkpt>
      <trkpt lat="48.69058" lon="1.9838">
        <ele>105.40000152588</ele>
        <time>2011-04-17T09:38:20.000Z</time>
      </trkpt>
      <trkpt lat="48.69059" lon="1.98381">
        <ele>105.40000152588</ele>
        <time>2011-04-17T09:38:21.000Z</time>
      </trkpt>
      <trkpt lat="48.6906" lon="1.98381">
        <ele>105.40000152588</ele>
        <time>2011-04-17T09:38:24.000Z</time>
      </trkpt>
      <trkpt lat="48.69065" lon="1.98386">
        <ele>104</ele>
        <time>2011-04-17T09:38:32.000Z</time>
      </trkpt>
      <trkpt lat="48.69076" lon="1.98396">
        <ele>103</ele>
        <time>2011-04-17T09:38:41.000Z</time>
      </trkpt>
      <trkpt lat="48.69086" lon="1.98407">
        <ele>103</ele>
        <time>2011-04-17T09:38:51.000Z</time>
      </trkpt>
      <trkpt lat="48.69095" lon="1.98415">
        <ele>103</ele>
        <time>2011-04-17T09:38:59.000Z</time>
      </trkpt>
      <trkpt lat="48.69109" lon="1.98428">
        <ele>103</ele>
        <time>2011-04-17T09:39:11.000Z</time>
      </trkpt>
      <trkpt lat="48.69121" lon="1.98442">
        <ele>108.19999694824</ele>
        <time>2011-04-17T09:39:23.000Z</time>
      </trkpt>
      <trkpt lat="48.69137" lon="1.98457">
        <ele>106.80000305176</ele>
        <time>2011-04-17T09:39:36.000Z</time>
      </trkpt>
      <trkpt lat="48.6915" lon="1.98463">
        <ele>105.40000152588</ele>
        <time>2011-04-17T09:39:46.000Z</time>
      </trkpt>
      <trkpt lat="48.69166" lon="1.98465">
        <ele>103.40000152588</ele>
        <time>2011-04-17T09:39:57.000Z</time>
      </trkpt>
      <trkpt lat="48.69177" lon="1.98466">
        <ele>102.59999847412</ele>
        <time>2011-04-17T09:40:05.000Z</time>
      </trkpt>
      <trkpt lat="48.69189" lon="1.98465">
        <ele>101.59999847412</ele>
        <time>2011-04-17T09:40:14.000Z</time>
      </trkpt>
      <trkpt lat="48.69194" lon="1.98465">
        <ele>101</ele>
        <time>2011-04-17T09:40:18.000Z</time>
      </trkpt>
      <trkpt lat="48.69204" lon="1.98466">
        <ele>102</ele>
        <time>2011-04-17T09:40:26.000Z</time>
      </trkpt>
      <trkpt lat="48.69213" lon="1.98466">
        <ele>102.59999847412</ele>
        <time>2011-04-17T09:40:33.000Z</time>
      </trkpt>
      <trkpt lat="48.69217" lon="1.98466">
        <ele>103.40000152588</ele>
        <time>2011-04-17T09:40:37.000Z</time>
      </trkpt>
      <trkpt lat="48.69229" lon="1.9846">
        <ele>105.80000305176</ele>
        <time>2011-04-17T09:40:46.000Z</time>
      </trkpt>
      <trkpt lat="48.69246" lon="1.98461">
        <ele>106.80000305176</ele>
        <time>2011-04-17T09:40:58.000Z</time>
      </trkpt>
      <trkpt lat="48.69253" lon="1.98462">
        <ele>105.40000152588</ele>
        <time>2011-04-17T09:41:03.000Z</time>
      </trkpt>
      <trkpt lat="48.69255" lon="1.98463">
        <ele>105</ele>
        <time>2011-04-17T09:41:05.000Z</time>
      </trkpt>
      <trkpt lat="48.69264" lon="1.98464">
        <ele>104.40000152588</ele>
        <time>2011-04-17T09:41:11.000Z</time>
      </trkpt>
      <trkpt lat="48.69271" lon="1.98465">
        <ele>104.40000152588</ele>
        <time>2011-04-17T09:41:16.000Z</time>
      </trkpt>
      <trkpt lat="48.69278" lon="1.98467">
        <ele>104.40000152588</ele>
        <time>2011-04-17T09:41:21.000Z</time>
      </trkpt>
      <trkpt lat="48.69292" lon="1.98471">
        <ele>104.40000152588</ele>
        <time>2011-04-17T09:41:31.000Z</time>
      </trkpt>
      <trkpt lat="48.69306" lon="1.98476">
        <ele>104</ele>
        <time>2011-04-17T09:41:41.000Z</time>
      </trkpt>
      <trkpt lat="48.69314" lon="1.98481">
        <ele>104</ele>
        <time>2011-04-17T09:41:47.000Z</time>
      </trkpt>
      <trkpt lat="48.6932" lon="1.98484">
        <ele>103.40000152588</ele>
        <time>2011-04-17T09:41:52.000Z</time>
      </trkpt>
      <trkpt lat="48.69327" lon="1.98484">
        <ele>103.40000152588</ele>
        <time>2011-04-17T09:41:58.000Z</time>
      </trkpt>
      <trkpt lat="48.69333" lon="1.98482">
        <ele>103</ele>
        <time>2011-04-17T09:42:02.000Z</time>
      </trkpt>
      <trkpt lat="48.6935" lon="1.98486">
        <ele>102</ele>
        <time>2011-04-17T09:42:13.000Z</time>
      </trkpt>
      <trkpt lat="48.69358" lon="1.98487">
        <ele>103.40000152588</ele>
        <time>2011-04-17T09:42:19.000Z</time>
      </trkpt>
      <trkpt lat="48.6937" lon="1.98487">
        <ele>102.59999847412</ele>
        <time>2011-04-17T09:42:27.000Z</time>
      </trkpt>
      <trkpt lat="48.69381" lon="1.98486">
        <ele>101</ele>
        <time>2011-04-17T09:42:34.000Z</time>
      </trkpt>
      <trkpt lat="48.69393" lon="1.98483">
        <ele>100.19999694824</ele>
        <time>2011-04-17T09:42:42.000Z</time>
      </trkpt>
      <trkpt lat="48.69401" lon="1.98481">
        <ele>99.599998474121</ele>
        <time>2011-04-17T09:42:47.000Z</time>
      </trkpt>
      <trkpt lat="48.69409" lon="1.98475">
        <ele>99.199996948242</ele>
        <time>2011-04-17T09:42:54.000Z</time>
      </trkpt>
      <trkpt lat="48.69416" lon="1.98466">
        <ele>97.800003051758</ele>
        <time>2011-04-17T09:43:00.000Z</time>
      </trkpt>
      <trkpt lat="48.69422" lon="1.98454">
        <ele>96.800003051758</ele>
        <time>2011-04-17T09:43:06.000Z</time>
      </trkpt>
      <trkpt lat="48.69433" lon="1.98435">
        <ele>94.800003051758</ele>
        <time>2011-04-17T09:43:13.000Z</time>
      </trkpt>
      <trkpt lat="48.6944" lon="1.98424">
        <ele>93.400001525879</ele>
        <time>2011-04-17T09:43:18.000Z</time>
      </trkpt>
      <trkpt lat="48.6945" lon="1.98404">
        <ele>93</ele>
        <time>2011-04-17T09:43:28.000Z</time>
      </trkpt>
      <trkpt lat="48.69457" lon="1.98393">
        <ele>92</ele>
        <time>2011-04-17T09:43:35.000Z</time>
      </trkpt>
      <trkpt lat="48.69463" lon="1.98385">
        <ele>92.400001525879</ele>
        <time>2011-04-17T09:43:40.000Z</time>
      </trkpt>
      <trkpt lat="48.69468" lon="1.98375">
        <ele>91.400001525879</ele>
        <time>2011-04-17T09:43:46.000Z</time>
      </trkpt>
      <trkpt lat="48.69477" lon="1.98365">
        <ele>91</ele>
        <time>2011-04-17T09:43:54.000Z</time>
      </trkpt>
      <trkpt lat="48.69483" lon="1.98353">
        <ele>91.400001525879</ele>
        <time>2011-04-17T09:44:01.000Z</time>
      </trkpt>
      <trkpt lat="48.69489" lon="1.98342">
        <ele>90.599998474121</ele>
        <time>2011-04-17T09:44:08.000Z</time>
      </trkpt>
      <trkpt lat="48.69494" lon="1.98333">
        <ele>90.599998474121</ele>
        <time>2011-04-17T09:44:14.000Z</time>
      </trkpt>
      <trkpt lat="48.69503" lon="1.98323">
        <ele>90.599998474121</ele>
        <time>2011-04-17T09:44:23.000Z</time>
      </trkpt>
      <trkpt lat="48.69516" lon="1.98317">
        <ele>90</ele>
        <time>2011-04-17T09:44:33.000Z</time>
      </trkpt>
      <trkpt lat="48.69527" lon="1.98313">
        <ele>91</ele>
        <time>2011-04-17T09:44:42.000Z</time>
      </trkpt>
      <trkpt lat="48.69542" lon="1.98304">
        <ele>97.199996948242</ele>
        <time>2011-04-17T09:44:52.000Z</time>
      </trkpt>
      <trkpt lat="48.69555" lon="1.98301">
        <ele>96.800003051758</ele>
        <time>2011-04-17T09:45:01.000Z</time>
      </trkpt>
      <trkpt lat="48.69567" lon="1.98294">
        <ele>94.800003051758</ele>
        <time>2011-04-17T09:45:11.000Z</time>
      </trkpt>
      <trkpt lat="48.69579" lon="1.98286">
        <ele>93.400001525879</ele>
        <time>2011-04-17T09:45:21.000Z</time>
      </trkpt>
      <trkpt lat="48.69588" lon="1.98281">
        <ele>93.800003051758</ele>
        <time>2011-04-17T09:45:28.000Z</time>
      </trkpt>
      <trkpt lat="48.69593" lon="1.98275">
        <ele>93.800003051758</ele>
        <time>2011-04-17T09:45:34.000Z</time>
      </trkpt>
      <trkpt lat="48.69598" lon="1.98271">
        <ele>93.800003051758</ele>
        <time>2011-04-17T09:45:38.000Z</time>
      </trkpt>
      <trkpt lat="48.69603" lon="1.98264">
        <ele>94.800003051758</ele>
        <time>2011-04-17T09:45:43.000Z</time>
      </trkpt>
      <trkpt lat="48.69613" lon="1.98248">
        <ele>95.400001525879</ele>
        <time>2011-04-17T09:45:53.000Z</time>
      </trkpt>
      <trkpt lat="48.69617" lon="1.98244">
        <ele>95.400001525879</ele>
        <time>2011-04-17T09:45:57.000Z</time>
      </trkpt>
      <trkpt lat="48.6962" lon="1.98242">
        <ele>95.800003051758</ele>
        <time>2011-04-17T09:46:03.000Z</time>
      </trkpt>
      <trkpt lat="48.69622" lon="1.98236">
        <ele>96.199996948242</ele>
        <time>2011-04-17T09:46:10.000Z</time>
      </trkpt>
      <trkpt lat="48.69626" lon="1.9823">
        <ele>96.199996948242</ele>
        <time>2011-04-17T09:46:13.000Z</time>
      </trkpt>
      <trkpt lat="48.69635" lon="1.98217">
        <ele>96.800003051758</ele>
        <time>2011-04-17T09:46:22.000Z</time>
      </trkpt>
      <trkpt lat="48.69637" lon="1.98213">
        <ele>97.199996948242</ele>
        <time>2011-04-17T09:46:28.000Z</time>
      </trkpt>
      <trkpt lat="48.69644" lon="1.98195">
        <ele>99.199996948242</ele>
        <time>2011-04-17T09:48:11.000Z</time>
      </trkpt>
      <trkpt lat="48.69645" lon="1.98189">
        <ele>99.199996948242</ele>
        <time>2011-04-17T09:48:13.000Z</time>
      </trkpt>
      <trkpt lat="48.6965" lon="1.98178">
        <ele>100.19999694824</ele>
        <time>2011-04-17T09:48:20.000Z</time>
      </trkpt>
      <trkpt lat="48.69655" lon="1.98169">
        <ele>99.599998474121</ele>
        <time>2011-04-17T09:48:25.000Z</time>
      </trkpt>
      <trkpt lat="48.69659" lon="1.98161">
        <ele>99.599998474121</ele>
        <time>2011-04-17T09:48:31.000Z</time>
      </trkpt>
      <trkpt lat="48.69663" lon="1.98152">
        <ele>99.599998474121</ele>
        <time>2011-04-17T09:48:37.000Z</time>
      </trkpt>
      <trkpt lat="48.69669" lon="1.98141">
        <ele>99.599998474121</ele>
        <time>2011-04-17T09:48:44.000Z</time>
      </trkpt>
      <trkpt lat="48.69675" lon="1.98127">
        <ele>100.19999694824</ele>
        <time>2011-04-17T09:48:53.000Z</time>
      </trkpt>
      <trkpt lat="48.6968" lon="1.98115">
        <ele>100.59999847412</ele>
        <time>2011-04-17T09:49:00.000Z</time>
      </trkpt>
      <trkpt lat="48.69685" lon="1.98099">
        <ele>101</ele>
        <time>2011-04-17T09:49:09.000Z</time>
      </trkpt>
      <trkpt lat="48.69689" lon="1.98085">
        <ele>101.59999847412</ele>
        <time>2011-04-17T09:49:17.000Z</time>
      </trkpt>
      <trkpt lat="48.69694" lon="1.98073">
        <ele>102</ele>
        <time>2011-04-17T09:49:25.000Z</time>
      </trkpt>
      <trkpt lat="48.697" lon="1.98059">
        <ele>102</ele>
        <time>2011-04-17T09:49:33.000Z</time>
      </trkpt>
      <trkpt lat="48.69705" lon="1.98041">
        <ele>102.59999847412</ele>
        <time>2011-04-17T09:49:42.000Z</time>
      </trkpt>
      <trkpt lat="48.69709" lon="1.98025">
        <ele>103</ele>
        <time>2011-04-17T09:49:50.000Z</time>
      </trkpt>
      <trkpt lat="48.69711" lon="1.98012">
        <ele>104.40000152588</ele>
        <time>2011-04-17T09:49:56.000Z</time>
      </trkpt>
      <trkpt lat="48.69717" lon="1.97991">
        <ele>105.40000152588</ele>
        <time>2011-04-17T09:50:07.000Z</time>
      </trkpt>
      <trkpt lat="48.69722" lon="1.97969">
        <ele>106.40000152588</ele>
        <time>2011-04-17T09:50:18.000Z</time>
      </trkpt>
      <trkpt lat="48.69727" lon="1.97954">
        <ele>106.80000305176</ele>
        <time>2011-04-17T09:50:28.000Z</time>
      </trkpt>
      <trkpt lat="48.69728" lon="1.97954">
        <ele>106.80000305176</ele>
        <time>2011-04-17T09:50:29.000Z</time>
      </trkpt>
      <trkpt lat="48.69731" lon="1.97942">
        <ele>107.80000305176</ele>
        <time>2011-04-17T09:50:39.000Z</time>
      </trkpt>
      <trkpt lat="48.69735" lon="1.97932">
        <ele>106.80000305176</ele>
        <time>2011-04-17T09:50:44.000Z</time>
      </trkpt>
      <trkpt lat="48.69737" lon="1.97927">
        <ele>106.40000152588</ele>
        <time>2011-04-17T09:50:48.000Z</time>
      </trkpt>
      <trkpt lat="48.69739" lon="1.9792">
        <ele>105.80000305176</ele>
        <time>2011-04-17T09:50:54.000Z</time>
      </trkpt>
      <trkpt lat="48.69741" lon="1.97913">
        <ele>106.40000152588</ele>
        <time>2011-04-17T09:50:58.000Z</time>
      </trkpt>
      <trkpt lat="48.69744" lon="1.97897">
        <ele>107.40000152588</ele>
        <time>2011-04-17T09:51:06.000Z</time>
      </trkpt>
      <trkpt lat="48.6975" lon="1.97883">
        <ele>107.40000152588</ele>
        <time>2011-04-17T09:51:14.000Z</time>
      </trkpt>
      <trkpt lat="48.69753" lon="1.97878">
        <ele>106.80000305176</ele>
        <time>2011-04-17T09:51:18.000Z</time>
      </trkpt>
      <trkpt lat="48.69756" lon="1.97874">
        <ele>107.40000152588</ele>
        <time>2011-04-17T09:51:22.000Z</time>
      </trkpt>
      <trkpt lat="48.69766" lon="1.97879">
        <ele>107.40000152588</ele>
        <time>2011-04-17T09:51:30.000Z</time>
      </trkpt>
      <trkpt lat="48.69775" lon="1.97885">
        <ele>106.40000152588</ele>
        <time>2011-04-17T09:51:37.000Z</time>
      </trkpt>
      <trkpt lat="48.69778" lon="1.97886">
        <ele>106.40000152588</ele>
        <time>2011-04-17T09:51:39.000Z</time>
      </trkpt>
      <trkpt lat="48.69786" lon="1.9789">
        <ele>106.40000152588</ele>
        <time>2011-04-17T09:51:46.000Z</time>
      </trkpt>
      <trkpt lat="48.69788" lon="1.97891">
        <ele>106.40000152588</ele>
        <time>2011-04-17T09:51:47.000Z</time>
      </trkpt>
      <trkpt lat="48.698" lon="1.97902">
        <ele>106.40000152588</ele>
        <time>2011-04-17T09:51:57.000Z</time>
      </trkpt>
      <trkpt lat="48.69809" lon="1.97904">
        <ele>106.40000152588</ele>
        <time>2011-04-17T09:52:03.000Z</time>
      </trkpt>
      <trkpt lat="48.69825" lon="1.97914">
        <ele>105.80000305176</ele>
        <time>2011-04-17T09:52:15.000Z</time>
      </trkpt>
      <trkpt lat="48.69833" lon="1.97918">
        <ele>105.80000305176</ele>
        <time>2011-04-17T09:52:21.000Z</time>
      </trkpt>
      <trkpt lat="48.69842" lon="1.97927">
        <ele>105.80000305176</ele>
        <time>2011-04-17T09:52:28.000Z</time>
      </trkpt>
      <trkpt lat="48.69854" lon="1.97935">
        <ele>105.40000152588</ele>
        <time>2011-04-17T09:52:37.000Z</time>
      </trkpt>
      <trkpt lat="48.69861" lon="1.97939">
        <ele>105.40000152588</ele>
        <time>2011-04-17T09:52:41.000Z</time>
      </trkpt>
      <trkpt lat="48.69871" lon="1.97946">
        <ele>105</ele>
        <time>2011-04-17T09:52:48.000Z</time>
      </trkpt>
      <trkpt lat="48.69886" lon="1.97956">
        <ele>104</ele>
        <time>2011-04-17T09:52:58.000Z</time>
      </trkpt>
      <trkpt lat="48.69898" lon="1.97964">
        <ele>104</ele>
        <time>2011-04-17T09:53:06.000Z</time>
      </trkpt>
      <trkpt lat="48.69906" lon="1.97968">
        <ele>104</ele>
        <time>2011-04-17T09:53:12.000Z</time>
      </trkpt>
      <trkpt lat="48.69917" lon="1.97977">
        <ele>103</ele>
        <time>2011-04-17T09:53:21.000Z</time>
      </trkpt>
      <trkpt lat="48.69925" lon="1.97982">
        <ele>103</ele>
        <time>2011-04-17T09:53:27.000Z</time>
      </trkpt>
      <trkpt lat="48.69931" lon="1.97986">
        <ele>102.59999847412</ele>
        <time>2011-04-17T09:53:32.000Z</time>
      </trkpt>
      <trkpt lat="48.6994" lon="1.9799">
        <ele>102.59999847412</ele>
        <time>2011-04-17T09:53:39.000Z</time>
      </trkpt>
      <trkpt lat="48.69944" lon="1.97992">
        <ele>102</ele>
        <time>2011-04-17T09:53:44.000Z</time>
      </trkpt>
      <trkpt lat="48.69946" lon="1.97987">
        <ele>102</ele>
        <time>2011-04-17T09:53:50.000Z</time>
      </trkpt>
      <trkpt lat="48.69949" lon="1.97982">
        <ele>101.59999847412</ele>
        <time>2011-04-17T09:53:52.000Z</time>
      </trkpt>
      <trkpt lat="48.69954" lon="1.97967">
        <ele>101.59999847412</ele>
        <time>2011-04-17T09:54:00.000Z</time>
      </trkpt>
      <trkpt lat="48.69957" lon="1.9795">
        <ele>101.59999847412</ele>
        <time>2011-04-17T09:54:08.000Z</time>
      </trkpt>
      <trkpt lat="48.69957" lon="1.97942">
        <ele>100.59999847412</ele>
        <time>2011-04-17T09:54:12.000Z</time>
      </trkpt>
      <trkpt lat="48.69963" lon="1.97925">
        <ele>100.59999847412</ele>
        <time>2011-04-17T09:54:21.000Z</time>
      </trkpt>
      <trkpt lat="48.69968" lon="1.97908">
        <ele>101</ele>
        <time>2011-04-17T09:54:30.000Z</time>
      </trkpt>
      <trkpt lat="48.69972" lon="1.97892">
        <ele>99.199996948242</ele>
        <time>2011-04-17T09:54:38.000Z</time>
      </trkpt>
      <trkpt lat="48.69975" lon="1.9788">
        <ele>97.800003051758</ele>
        <time>2011-04-17T09:54:44.000Z</time>
      </trkpt>
      <trkpt lat="48.69977" lon="1.97868">
        <ele>98.199996948242</ele>
        <time>2011-04-17T09:54:50.000Z</time>
      </trkpt>
      <trkpt lat="48.69979" lon="1.97856">
        <ele>97.800003051758</ele>
        <time>2011-04-17T09:54:56.000Z</time>
      </trkpt>
      <trkpt lat="48.69983" lon="1.97842">
        <ele>97.800003051758</ele>
        <time>2011-04-17T09:55:03.000Z</time>
      </trkpt>
      <trkpt lat="48.69991" lon="1.97832">
        <ele>98.199996948242</ele>
        <time>2011-04-17T09:55:10.000Z</time>
      </trkpt>
      <trkpt lat="48.69996" lon="1.97819">
        <ele>97.800003051758</ele>
        <time>2011-04-17T09:55:18.000Z</time>
      </trkpt>
      <trkpt lat="48.69997" lon="1.97818">
        <ele>97.800003051758</ele>
        <time>2011-04-17T09:55:19.000Z</time>
      </trkpt>
      <trkpt lat="48.70001" lon="1.97808">
        <ele>98.599998474121</ele>
        <time>2011-04-17T09:55:24.000Z</time>
      </trkpt>
      <trkpt lat="48.70002" lon="1.97804">
        <ele>99.199996948242</ele>
        <time>2011-04-17T09:55:26.000Z</time>
      </trkpt>
      <trkpt lat="48.70004" lon="1.97801">
        <ele>100.59999847412</ele>
        <time>2011-04-17T09:55:29.000Z</time>
      </trkpt>
      <trkpt lat="48.70006" lon="1.97794">
        <ele>101</ele>
        <time>2011-04-17T09:55:32.000Z</time>
      </trkpt>
      <trkpt lat="48.70007" lon="1.97787">
        <ele>103</ele>
        <time>2011-04-17T09:55:36.000Z</time>
      </trkpt>
      <trkpt lat="48.7001" lon="1.97773">
        <ele>104</ele>
        <time>2011-04-17T09:55:42.000Z</time>
      </trkpt>
      <trkpt lat="48.70013" lon="1.97758">
        <ele>104</ele>
        <time>2011-04-17T09:55:49.000Z</time>
      </trkpt>
      <trkpt lat="48.70014" lon="1.97736">
        <ele>103.40000152588</ele>
        <time>2011-04-17T09:55:59.000Z</time>
      </trkpt>
      <trkpt lat="48.70014" lon="1.97716">
        <ele>103.40000152588</ele>
        <time>2011-04-17T09:56:08.000Z</time>
      </trkpt>
      <trkpt lat="48.70014" lon="1.97703">
        <ele>104</ele>
        <time>2011-04-17T09:56:14.000Z</time>
      </trkpt>
      <trkpt lat="48.70014" lon="1.9769">
        <ele>104.40000152588</ele>
        <time>2011-04-17T09:56:20.000Z</time>
      </trkpt>
      <trkpt lat="48.70015" lon="1.97666">
        <ele>105</ele>
        <time>2011-04-17T09:56:31.000Z</time>
      </trkpt>
      <trkpt lat="48.70015" lon="1.97653">
        <ele>105</ele>
        <time>2011-04-17T09:56:37.000Z</time>
      </trkpt>
      <trkpt lat="48.70015" lon="1.97653">
        <ele>105</ele>
        <time>2011-04-17T09:56:37.000Z</time>
      </trkpt>
      <trkpt lat="48.70015" lon="1.97651">
        <ele>105</ele>
        <time>2011-04-17T09:56:38.000Z</time>
      </trkpt>
      <trkpt lat="48.70015" lon="1.97647">
        <ele>104</ele>
        <time>2011-04-17T09:56:40.000Z</time>
      </trkpt>
      <trkpt lat="48.70015" lon="1.97644">
        <ele>104</ele>
        <time>2011-04-17T09:56:43.000Z</time>
      </trkpt>
      <trkpt lat="48.70015" lon="1.97638">
        <ele>104</ele>
        <time>2011-04-17T09:56:44.000Z</time>
      </trkpt>
      <trkpt lat="48.70015" lon="1.97621">
        <ele>103.40000152588</ele>
        <time>2011-04-17T09:56:52.000Z</time>
      </trkpt>
      <trkpt lat="48.70015" lon="1.97603">
        <ele>104</ele>
        <time>2011-04-17T09:57:01.000Z</time>
      </trkpt>
      <trkpt lat="48.70015" lon="1.97585">
        <ele>105</ele>
        <time>2011-04-17T09:57:10.000Z</time>
      </trkpt>
      <trkpt lat="48.70012" lon="1.97567">
        <ele>105.40000152588</ele>
        <time>2011-04-17T09:57:19.000Z</time>
      </trkpt>
      <trkpt lat="48.70006" lon="1.97544">
        <ele>106.80000305176</ele>
        <time>2011-04-17T09:57:30.000Z</time>
      </trkpt>
      <trkpt lat="48.70002" lon="1.97527">
        <ele>106.80000305176</ele>
        <time>2011-04-17T09:57:39.000Z</time>
      </trkpt>
      <trkpt lat="48.70004" lon="1.97513">
        <ele>106.80000305176</ele>
        <time>2011-04-17T09:57:46.000Z</time>
      </trkpt>
      <trkpt lat="48.70006" lon="1.975">
        <ele>105.80000305176</ele>
        <time>2011-04-17T09:57:52.000Z</time>
      </trkpt>
      <trkpt lat="48.70007" lon="1.97489">
        <ele>105.80000305176</ele>
        <time>2011-04-17T09:57:58.000Z</time>
      </trkpt>
      <trkpt lat="48.70008" lon="1.97476">
        <ele>106.80000305176</ele>
        <time>2011-04-17T09:58:04.000Z</time>
      </trkpt>
      <trkpt lat="48.70009" lon="1.97459">
        <ele>106.40000152588</ele>
        <time>2011-04-17T09:58:12.000Z</time>
      </trkpt>
      <trkpt lat="48.70014" lon="1.97446">
        <ele>106.80000305176</ele>
        <time>2011-04-17T09:58:19.000Z</time>
      </trkpt>
      <trkpt lat="48.70022" lon="1.97438">
        <ele>107.80000305176</ele>
        <time>2011-04-17T09:58:26.000Z</time>
      </trkpt>
      <trkpt lat="48.7003" lon="1.97434">
        <ele>109.19999694824</ele>
        <time>2011-04-17T09:58:33.000Z</time>
      </trkpt>
      <trkpt lat="48.70038" lon="1.97434">
        <ele>110.19999694824</ele>
        <time>2011-04-17T09:58:40.000Z</time>
      </trkpt>
      <trkpt lat="48.70048" lon="1.97436">
        <ele>111.59999847412</ele>
        <time>2011-04-17T09:58:49.000Z</time>
      </trkpt>
      <trkpt lat="48.70063" lon="1.97435">
        <ele>110.19999694824</ele>
        <time>2011-04-17T09:59:00.000Z</time>
      </trkpt>
      <trkpt lat="48.70077" lon="1.97435">
        <ele>108.80000305176</ele>
        <time>2011-04-17T09:59:11.000Z</time>
      </trkpt>
      <trkpt lat="48.70094" lon="1.97435">
        <ele>107.40000152588</ele>
        <time>2011-04-17T09:59:23.000Z</time>
      </trkpt>
      <trkpt lat="48.701" lon="1.97436">
        <ele>107.40000152588</ele>
        <time>2011-04-17T09:59:28.000Z</time>
      </trkpt>
      <trkpt lat="48.70101" lon="1.97437">
        <ele>106.80000305176</ele>
        <time>2011-04-17T09:59:32.000Z</time>
      </trkpt>
      <trkpt lat="48.70108" lon="1.97437">
        <ele>107.80000305176</ele>
        <time>2011-04-17T09:59:44.000Z</time>
      </trkpt>
      <trkpt lat="48.70117" lon="1.97437">
        <ele>109.19999694824</ele>
        <time>2011-04-17T09:59:50.000Z</time>
      </trkpt>
      <trkpt lat="48.7012" lon="1.97436">
        <ele>108.19999694824</ele>
        <time>2011-04-17T09:59:54.000Z</time>
      </trkpt>
      <trkpt lat="48.70121" lon="1.97436">
        <ele>108.19999694824</ele>
        <time>2011-04-17T09:59:57.000Z</time>
      </trkpt>
      <trkpt lat="48.70129" lon="1.97437">
        <ele>106.80000305176</ele>
        <time>2011-04-17T10:00:01.000Z</time>
      </trkpt>
      <trkpt lat="48.70141" lon="1.97437">
        <ele>108.19999694824</ele>
        <time>2011-04-17T10:00:09.000Z</time>
      </trkpt>
      <trkpt lat="48.70152" lon="1.97438">
        <ele>108.19999694824</ele>
        <time>2011-04-17T10:00:17.000Z</time>
      </trkpt>
      <trkpt lat="48.7016" lon="1.9744">
        <ele>108.19999694824</ele>
        <time>2011-04-17T10:00:23.000Z</time>
      </trkpt>
      <trkpt lat="48.70174" lon="1.97441">
        <ele>109.80000305176</ele>
        <time>2011-04-17T10:00:32.000Z</time>
      </trkpt>
      <trkpt lat="48.70182" lon="1.97442">
        <ele>110.19999694824</ele>
        <time>2011-04-17T10:00:38.000Z</time>
      </trkpt>
      <trkpt lat="48.70189" lon="1.97437">
        <ele>108.80000305176</ele>
        <time>2011-04-17T10:00:45.000Z</time>
      </trkpt>
      <trkpt lat="48.70196" lon="1.97419">
        <ele>106.80000305176</ele>
        <time>2011-04-17T10:00:55.000Z</time>
      </trkpt>
      <trkpt lat="48.70204" lon="1.97401">
        <ele>103.40000152588</ele>
        <time>2011-04-17T10:01:06.000Z</time>
      </trkpt>
      <trkpt lat="48.70212" lon="1.97383">
        <ele>104.40000152588</ele>
        <time>2011-04-17T10:01:16.000Z</time>
      </trkpt>
      <trkpt lat="48.70216" lon="1.97379">
        <ele>105.80000305176</ele>
        <time>2011-04-17T10:01:22.000Z</time>
      </trkpt>
      <trkpt lat="48.70249" lon="1.97384">
        <ele>110.59999847412</ele>
        <time>2011-04-17T10:04:20.000Z</time>
      </trkpt>
      <trkpt lat="48.70252" lon="1.97385">
        <ele>103.40000152588</ele>
        <time>2011-04-17T10:04:27.000Z</time>
      </trkpt>
      <trkpt lat="48.70265" lon="1.97391">
        <ele>121.80000305176</ele>
        <time>2011-04-17T10:09:02.000Z</time>
      </trkpt>
      <trkpt lat="48.70269" lon="1.97386">
        <ele>119.80000305176</ele>
        <time>2011-04-17T10:09:06.000Z</time>
      </trkpt>
      <trkpt lat="48.70271" lon="1.97385">
        <ele>121.19999694824</ele>
        <time>2011-04-17T10:09:11.000Z</time>
      </trkpt>
      <trkpt lat="48.70278" lon="1.97366">
        <ele>125.19999694824</ele>
        <time>2011-04-17T10:18:31.000Z</time>
      </trkpt>
      <trkpt lat="48.7028" lon="1.97369">
        <ele>120.80000305176</ele>
        <time>2011-04-17T10:18:33.000Z</time>
      </trkpt>
      <trkpt lat="48.70282" lon="1.97366">
        <ele>118.40000152588</ele>
        <time>2011-04-17T10:18:37.000Z</time>
      </trkpt>
      <trkpt lat="48.70281" lon="1.97363">
        <ele>117.80000305176</ele>
        <time>2011-04-17T10:18:39.000Z</time>
      </trkpt>
      <trkpt lat="48.7028" lon="1.9736">
        <ele>118.40000152588</ele>
        <time>2011-04-17T10:18:46.000Z</time>
      </trkpt>
      <trkpt lat="48.7028" lon="1.97366">
        <ele>128</ele>
        <time>2011-04-17T10:20:05.000Z</time>
      </trkpt>
      <trkpt lat="48.70277" lon="1.97364">
        <ele>129.39999389648</ele>
        <time>2011-04-17T10:20:10.000Z</time>
      </trkpt>
      <trkpt lat="48.70277" lon="1.97364">
        <ele>130</ele>
        <time>2011-04-17T10:20:11.000Z</time>
      </trkpt>
      <trkpt lat="48.70268" lon="1.97391">
        <ele>118.40000152588</ele>
        <time>2011-04-17T10:21:05.000Z</time>
      </trkpt>
      <trkpt lat="48.70263" lon="1.97394">
        <ele>121.19999694824</ele>
        <time>2011-04-17T10:21:12.000Z</time>
      </trkpt>
      <trkpt lat="48.70266" lon="1.97391">
        <ele>120.80000305176</ele>
        <time>2011-04-17T10:21:18.000Z</time>
      </trkpt>
      <trkpt lat="48.70269" lon="1.97383">
        <ele>117.80000305176</ele>
        <time>2011-04-17T10:21:24.000Z</time>
      </trkpt>
      <trkpt lat="48.70272" lon="1.97378">
        <ele>116.40000152588</ele>
        <time>2011-04-17T10:21:28.000Z</time>
      </trkpt>
      <trkpt lat="48.70273" lon="1.97373">
        <ele>117.40000152588</ele>
        <time>2011-04-17T10:21:32.000Z</time>
      </trkpt>
      <trkpt lat="48.70277" lon="1.97366">
        <ele>117</ele>
        <time>2011-04-17T10:21:37.000Z</time>
      </trkpt>
      <trkpt lat="48.7028" lon="1.97365">
        <ele>117.80000305176</ele>
        <time>2011-04-17T10:21:43.000Z</time>
      </trkpt>
      <trkpt lat="48.70289" lon="1.9736">
        <ele>125.19999694824</ele>
        <time>2011-04-17T10:22:43.000Z</time>
      </trkpt>
      <trkpt lat="48.70291" lon="1.97363">
        <ele>125.59999847412</ele>
        <time>2011-04-17T10:22:44.000Z</time>
      </trkpt>
      <trkpt lat="48.70293" lon="1.97367">
        <ele>125.59999847412</ele>
        <time>2011-04-17T10:22:47.000Z</time>
      </trkpt>
      <trkpt lat="48.70299" lon="1.97374">
        <ele>125.19999694824</ele>
        <time>2011-04-17T10:22:53.000Z</time>
      </trkpt>
      <trkpt lat="48.70304" lon="1.97384">
        <ele>128.39999389648</ele>
        <time>2011-04-17T10:23:01.000Z</time>
      </trkpt>
      <trkpt lat="48.70305" lon="1.97386">
        <ele>130.80000305176</ele>
        <time>2011-04-17T10:23:04.000Z</time>
      </trkpt>
      <trkpt lat="48.70307" lon="1.97389">
        <ele>131.80000305176</ele>
        <time>2011-04-17T10:23:09.000Z</time>
      </trkpt>
      <trkpt lat="48.70308" lon="1.97386">
        <ele>136.19999694824</ele>
        <time>2011-04-17T10:23:14.000Z</time>
      </trkpt>
      <trkpt lat="48.70308" lon="1.97386">
        <ele>136.60000610352</ele>
        <time>2011-04-17T10:23:16.000Z</time>
      </trkpt>
      <trkpt lat="48.70321" lon="1.97372">
        <ele>142.39999389648</ele>
        <time>2011-04-17T10:23:45.000Z</time>
      </trkpt>
      <trkpt lat="48.70321" lon="1.97365">
        <ele>142.39999389648</ele>
        <time>2011-04-17T10:23:50.000Z</time>
      </trkpt>
      <trkpt lat="48.70323" lon="1.97358">
        <ele>141.39999389648</ele>
        <time>2011-04-17T10:23:56.000Z</time>
      </trkpt>
      <trkpt lat="48.70325" lon="1.97353">
        <ele>141</ele>
        <time>2011-04-17T10:24:01.000Z</time>
      </trkpt>
      <trkpt lat="48.70326" lon="1.97347">
        <ele>143.39999389648</ele>
        <time>2011-04-17T10:24:06.000Z</time>
      </trkpt>
      <trkpt lat="48.70327" lon="1.97345">
        <ele>147.60000610352</ele>
        <time>2011-04-17T10:24:13.000Z</time>
      </trkpt>
      <trkpt lat="48.70381" lon="1.97273">
        <ele>155.39999389648</ele>
        <time>2011-04-17T10:26:18.000Z</time>
      </trkpt>
      <trkpt lat="48.70385" lon="1.97269">
        <ele>154.39999389648</ele>
        <time>2011-04-17T10:26:21.000Z</time>
      </trkpt>
      <trkpt lat="48.70386" lon="1.97266">
        <ele>154.39999389648</ele>
        <time>2011-04-17T10:26:23.000Z</time>
      </trkpt>
      <trkpt lat="48.7039" lon="1.97262">
        <ele>155</ele>
        <time>2011-04-17T10:26:28.000Z</time>
      </trkpt>
      <trkpt lat="48.70394" lon="1.97254">
        <ele>155.80000305176</ele>
        <time>2011-04-17T10:26:34.000Z</time>
      </trkpt>
      <trkpt lat="48.70395" lon="1.97253">
        <ele>155.80000305176</ele>
        <time>2011-04-17T10:26:35.000Z</time>
      </trkpt>
      <trkpt lat="48.70398" lon="1.97251">
        <ele>157.39999389648</ele>
        <time>2011-04-17T10:26:38.000Z</time>
      </trkpt>
      <trkpt lat="48.70405" lon="1.9725">
        <ele>158.19999694824</ele>
        <time>2011-04-17T10:26:44.000Z</time>
      </trkpt>
      <trkpt lat="48.70408" lon="1.97247">
        <ele>159.80000305176</ele>
        <time>2011-04-17T10:26:49.000Z</time>
      </trkpt>
      <trkpt lat="48.70409" lon="1.97247">
        <ele>160.19999694824</ele>
        <time>2011-04-17T10:26:51.000Z</time>
      </trkpt>
      <trkpt lat="48.70428" lon="1.97244">
        <ele>168.39999389648</ele>
        <time>2011-04-17T10:31:54.000Z</time>
      </trkpt>
      <trkpt lat="48.70433" lon="1.97242">
        <ele>167.80000305176</ele>
        <time>2011-04-17T10:31:58.000Z</time>
      </trkpt>
      <trkpt lat="48.70442" lon="1.97241">
        <ele>167</ele>
        <time>2011-04-17T10:32:05.000Z</time>
      </trkpt>
      <trkpt lat="48.70448" lon="1.97239">
        <ele>165.39999389648</ele>
        <time>2011-04-17T10:32:11.000Z</time>
      </trkpt>
      <trkpt lat="48.70457" lon="1.97236">
        <ele>165</ele>
        <time>2011-04-17T10:32:19.000Z</time>
      </trkpt>
      <trkpt lat="48.70467" lon="1.97231">
        <ele>163.60000610352</ele>
        <time>2011-04-17T10:32:27.000Z</time>
      </trkpt>
      <trkpt lat="48.70468" lon="1.97227">
        <ele>160.60000610352</ele>
        <time>2011-04-17T10:32:32.000Z</time>
      </trkpt>
      <trkpt lat="48.70487" lon="1.9722">
        <ele>166.39999389648</ele>
        <time>2011-04-17T10:33:56.000Z</time>
      </trkpt>
      <trkpt lat="48.70493" lon="1.97216">
        <ele>164</ele>
        <time>2011-04-17T10:34:00.000Z</time>
      </trkpt>
      <trkpt lat="48.705" lon="1.97213">
        <ele>160.60000610352</ele>
        <time>2011-04-17T10:34:06.000Z</time>
      </trkpt>
      <trkpt lat="48.70508" lon="1.97207">
        <ele>160.19999694824</ele>
        <time>2011-04-17T10:34:13.000Z</time>
      </trkpt>
      <trkpt lat="48.70512" lon="1.97206">
        <ele>160.19999694824</ele>
        <time>2011-04-17T10:34:16.000Z</time>
      </trkpt>
      <trkpt lat="48.70517" lon="1.97201">
        <ele>158.80000305176</ele>
        <time>2011-04-17T10:34:21.000Z</time>
      </trkpt>
      <trkpt lat="48.70529" lon="1.97193">
        <ele>160.19999694824</ele>
        <time>2011-04-17T10:34:31.000Z</time>
      </trkpt>
      <trkpt lat="48.70538" lon="1.97191">
        <ele>162.60000610352</ele>
        <time>2011-04-17T10:34:37.000Z</time>
      </trkpt>
      <trkpt lat="48.70549" lon="1.97187">
        <ele>161.60000610352</ele>
        <time>2011-04-17T10:34:45.000Z</time>
      </trkpt>
      <trkpt lat="48.7055" lon="1.97186">
        <ele>162.60000610352</ele>
        <time>2011-04-17T10:34:48.000Z</time>
      </trkpt>
      <trkpt lat="48.70555" lon="1.97183">
        <ele>162.60000610352</ele>
        <time>2011-04-17T10:34:55.000Z</time>
      </trkpt>
      <trkpt lat="48.70559" lon="1.97186">
        <ele>161.19999694824</ele>
        <time>2011-04-17T10:34:57.000Z</time>
      </trkpt>
      <trkpt lat="48.7056" lon="1.97186">
        <ele>161.60000610352</ele>
        <time>2011-04-17T10:34:59.000Z</time>
      </trkpt>
      <trkpt lat="48.70562" lon="1.97181">
        <ele>163.60000610352</ele>
        <time>2011-04-17T10:35:05.000Z</time>
      </trkpt>
      <trkpt lat="48.70564" lon="1.97178">
        <ele>164</ele>
        <time>2011-04-17T10:35:10.000Z</time>
      </trkpt>
      <trkpt lat="48.70568" lon="1.97194">
        <ele>165</ele>
        <time>2011-04-17T10:35:33.000Z</time>
      </trkpt>
      <trkpt lat="48.70572" lon="1.97208">
        <ele>161.60000610352</ele>
        <time>2011-04-17T10:35:40.000Z</time>
      </trkpt>
      <trkpt lat="48.70577" lon="1.97221">
        <ele>158.80000305176</ele>
        <time>2011-04-17T10:35:48.000Z</time>
      </trkpt>
      <trkpt lat="48.70584" lon="1.97238">
        <ele>153.39999389648</ele>
        <time>2011-04-17T10:35:57.000Z</time>
      </trkpt>
      <trkpt lat="48.70589" lon="1.97252">
        <ele>151</ele>
        <time>2011-04-17T10:36:04.000Z</time>
      </trkpt>
      <trkpt lat="48.70595" lon="1.97264">
        <ele>150.19999694824</ele>
        <time>2011-04-17T10:36:12.000Z</time>
      </trkpt>
      <trkpt lat="48.70597" lon="1.9727">
        <ele>149.60000610352</ele>
        <time>2011-04-17T10:36:15.000Z</time>
      </trkpt>
      <trkpt lat="48.70601" lon="1.97277">
        <ele>150.19999694824</ele>
        <time>2011-04-17T10:36:20.000Z</time>
      </trkpt>
      <trkpt lat="48.70605" lon="1.97284">
        <ele>151</ele>
        <time>2011-04-17T10:36:24.000Z</time>
      </trkpt>
      <trkpt lat="48.70609" lon="1.97292">
        <ele>151.60000610352</ele>
        <time>2011-04-17T10:36:29.000Z</time>
      </trkpt>
      <trkpt lat="48.70614" lon="1.97307">
        <ele>149.19999694824</ele>
        <time>2011-04-17T10:36:37.000Z</time>
      </trkpt>
      <trkpt lat="48.70618" lon="1.97321">
        <ele>147.60000610352</ele>
        <time>2011-04-17T10:36:44.000Z</time>
      </trkpt>
      <trkpt lat="48.70625" lon="1.97339">
        <ele>145.19999694824</ele>
        <time>2011-04-17T10:36:53.000Z</time>
      </trkpt>
      <trkpt lat="48.70632" lon="1.97356">
        <ele>143.80000305176</ele>
        <time>2011-04-17T10:37:02.000Z</time>
      </trkpt>
      <trkpt lat="48.70637" lon="1.9737">
        <ele>143.39999389648</ele>
        <time>2011-04-17T10:37:09.000Z</time>
      </trkpt>
      <trkpt lat="48.70645" lon="1.97389">
        <ele>143.39999389648</ele>
        <time>2011-04-17T10:37:19.000Z</time>
      </trkpt>
      <trkpt lat="48.70649" lon="1.97398">
        <ele>143.39999389648</ele>
        <time>2011-04-17T10:37:24.000Z</time>
      </trkpt>
      <trkpt lat="48.70657" lon="1.97409">
        <ele>142.39999389648</ele>
        <time>2011-04-17T10:37:32.000Z</time>
      </trkpt>
      <trkpt lat="48.70669" lon="1.97407">
        <ele>143.80000305176</ele>
        <time>2011-04-17T10:37:40.000Z</time>
      </trkpt>
      <trkpt lat="48.7067" lon="1.97406">
        <ele>144.39999389648</ele>
        <time>2011-04-17T10:37:43.000Z</time>
      </trkpt>
      <trkpt lat="48.70674" lon="1.97399">
        <ele>145.19999694824</ele>
        <time>2011-04-17T10:37:49.000Z</time>
      </trkpt>
      <trkpt lat="48.70677" lon="1.97391">
        <ele>143.39999389648</ele>
        <time>2011-04-17T10:37:53.000Z</time>
      </trkpt>
      <trkpt lat="48.70678" lon="1.97388">
        <ele>146.19999694824</ele>
        <time>2011-04-17T10:37:56.000Z</time>
      </trkpt>
      <trkpt lat="48.70678" lon="1.97386">
        <ele>149.19999694824</ele>
        <time>2011-04-17T10:38:01.000Z</time>
      </trkpt>
      <trkpt lat="48.70677" lon="1.97388">
        <ele>159.19999694824</ele>
        <time>2011-04-17T10:39:13.000Z</time>
      </trkpt>
      <trkpt lat="48.70675" lon="1.97396">
        <ele>155.80000305176</ele>
        <time>2011-04-17T10:39:18.000Z</time>
      </trkpt>
      <trkpt lat="48.70675" lon="1.974">
        <ele>154</ele>
        <time>2011-04-17T10:39:21.000Z</time>
      </trkpt>
      <trkpt lat="48.70672" lon="1.97405">
        <ele>153</ele>
        <time>2011-04-17T10:39:27.000Z</time>
      </trkpt>
      <trkpt lat="48.70669" lon="1.97415">
        <ele>155</ele>
        <time>2011-04-17T10:39:34.000Z</time>
      </trkpt>
      <trkpt lat="48.70666" lon="1.97425">
        <ele>155.80000305176</ele>
        <time>2011-04-17T10:39:40.000Z</time>
      </trkpt>
      <trkpt lat="48.70664" lon="1.97443">
        <ele>159.19999694824</ele>
        <time>2011-04-17T10:39:48.000Z</time>
      </trkpt>
      <trkpt lat="48.70664" lon="1.97448">
        <ele>158.80000305176</ele>
        <time>2011-04-17T10:39:51.000Z</time>
      </trkpt>
      <trkpt lat="48.70663" lon="1.97454">
        <ele>157.80000305176</ele>
        <time>2011-04-17T10:39:55.000Z</time>
      </trkpt>
      <trkpt lat="48.7066" lon="1.97471">
        <ele>152.60000610352</ele>
        <time>2011-04-17T10:40:05.000Z</time>
      </trkpt>
      <trkpt lat="48.7066" lon="1.97487">
        <ele>150.60000610352</ele>
        <time>2011-04-17T10:40:14.000Z</time>
      </trkpt>
      <trkpt lat="48.70659" lon="1.975">
        <ele>151.60000610352</ele>
        <time>2011-04-17T10:40:21.000Z</time>
      </trkpt>
      <trkpt lat="48.70657" lon="1.97513">
        <ele>153</ele>
        <time>2011-04-17T10:40:27.000Z</time>
      </trkpt>
      <trkpt lat="48.70655" lon="1.97528">
        <ele>155.39999389648</ele>
        <time>2011-04-17T10:40:34.000Z</time>
      </trkpt>
      <trkpt lat="48.70654" lon="1.97533">
        <ele>156.39999389648</ele>
        <time>2011-04-17T10:40:37.000Z</time>
      </trkpt>
      <trkpt lat="48.70652" lon="1.97542">
        <ele>157.39999389648</ele>
        <time>2011-04-17T10:40:41.000Z</time>
      </trkpt>
      <trkpt lat="48.70653" lon="1.97556">
        <ele>154.39999389648</ele>
        <time>2011-04-17T10:40:49.000Z</time>
      </trkpt>
      <trkpt lat="48.70651" lon="1.97568">
        <ele>159.19999694824</ele>
        <time>2011-04-17T10:40:55.000Z</time>
      </trkpt>
      <trkpt lat="48.70649" lon="1.9758">
        <ele>162.60000610352</ele>
        <time>2011-04-17T10:41:01.000Z</time>
      </trkpt>
      <trkpt lat="48.70644" lon="1.97591">
        <ele>161.60000610352</ele>
        <time>2011-04-17T10:41:06.000Z</time>
      </trkpt>
      <trkpt lat="48.70643" lon="1.97602">
        <ele>160.60000610352</ele>
        <time>2011-04-17T10:41:14.000Z</time>
      </trkpt>
      <trkpt lat="48.70643" lon="1.97603">
        <ele>160.60000610352</ele>
        <time>2011-04-17T10:41:16.000Z</time>
      </trkpt>
      <trkpt lat="48.70641" lon="1.97612">
        <ele>160.60000610352</ele>
        <time>2011-04-17T10:41:23.000Z</time>
      </trkpt>
      <trkpt lat="48.70638" lon="1.97622">
        <ele>161.19999694824</ele>
        <time>2011-04-17T10:41:29.000Z</time>
      </trkpt>
      <trkpt lat="48.70638" lon="1.97624">
        <ele>161.60000610352</ele>
        <time>2011-04-17T10:41:33.000Z</time>
      </trkpt>
      <trkpt lat="48.70629" lon="1.97663">
        <ele>166</ele>
        <time>2011-04-17T10:42:25.000Z</time>
      </trkpt>
      <trkpt lat="48.70628" lon="1.97674">
        <ele>166</ele>
        <time>2011-04-17T10:42:30.000Z</time>
      </trkpt>
      <trkpt lat="48.70626" lon="1.97682">
        <ele>166.39999389648</ele>
        <time>2011-04-17T10:42:34.000Z</time>
      </trkpt>
      <trkpt lat="48.70625" lon="1.97693">
        <ele>166</ele>
        <time>2011-04-17T10:42:41.000Z</time>
      </trkpt>
      <trkpt lat="48.70624" lon="1.97704">
        <ele>167</ele>
        <time>2011-04-17T10:42:47.000Z</time>
      </trkpt>
      <trkpt lat="48.70623" lon="1.97716">
        <ele>165.39999389648</ele>
        <time>2011-04-17T10:42:52.000Z</time>
      </trkpt>
      <trkpt lat="48.7062" lon="1.97734">
        <ele>162.19999694824</ele>
        <time>2011-04-17T10:43:01.000Z</time>
      </trkpt>
      <trkpt lat="48.70619" lon="1.97746">
        <ele>160.60000610352</ele>
        <time>2011-04-17T10:43:07.000Z</time>
      </trkpt>
      <trkpt lat="48.7062" lon="1.97758">
        <ele>157.80000305176</ele>
        <time>2011-04-17T10:43:13.000Z</time>
      </trkpt>
      <trkpt lat="48.70621" lon="1.97771">
        <ele>155.80000305176</ele>
        <time>2011-04-17T10:43:20.000Z</time>
      </trkpt>
      <trkpt lat="48.70619" lon="1.97782">
        <ele>155.80000305176</ele>
        <time>2011-04-17T10:43:25.000Z</time>
      </trkpt>
      <trkpt lat="48.70619" lon="1.97788">
        <ele>158.80000305176</ele>
        <time>2011-04-17T10:43:28.000Z</time>
      </trkpt>
      <trkpt lat="48.70618" lon="1.97801">
        <ele>161.60000610352</ele>
        <time>2011-04-17T10:43:34.000Z</time>
      </trkpt>
      <trkpt lat="48.70617" lon="1.97805">
        <ele>160.60000610352</ele>
        <time>2011-04-17T10:43:38.000Z</time>
      </trkpt>
      <trkpt lat="48.70616" lon="1.97807">
        <ele>162.19999694824</ele>
        <time>2011-04-17T10:43:41.000Z</time>
      </trkpt>
      <trkpt lat="48.70614" lon="1.97803">
        <ele>166</ele>
        <time>2011-04-17T10:43:45.000Z</time>
      </trkpt>
      <trkpt lat="48.70612" lon="1.97788">
        <ele>162.60000610352</ele>
        <time>2011-04-17T10:43:52.000Z</time>
      </trkpt>
      <trkpt lat="48.70612" lon="1.97775">
        <ele>159.80000305176</ele>
        <time>2011-04-17T10:43:58.000Z</time>
      </trkpt>
      <trkpt lat="48.70611" lon="1.97773">
        <ele>160.60000610352</ele>
        <time>2011-04-17T10:44:04.000Z</time>
      </trkpt>
      <trkpt lat="48.70611" lon="1.97773">
        <ele>159.80000305176</ele>
        <time>2011-04-17T10:44:06.000Z</time>
      </trkpt>
      <trkpt lat="48.70612" lon="1.97796">
        <ele>156.39999389648</ele>
        <time>2011-04-17T10:44:34.000Z</time>
      </trkpt>
      <trkpt lat="48.70614" lon="1.97806">
        <ele>155.80000305176</ele>
        <time>2011-04-17T10:44:39.000Z</time>
      </trkpt>
      <trkpt lat="48.70615" lon="1.97816">
        <ele>156.39999389648</ele>
        <time>2011-04-17T10:44:44.000Z</time>
      </trkpt>
      <trkpt lat="48.70616" lon="1.97835">
        <ele>155.39999389648</ele>
        <time>2011-04-17T10:44:54.000Z</time>
      </trkpt>
      <trkpt lat="48.70617" lon="1.97853">
        <ele>154.39999389648</ele>
        <time>2011-04-17T10:45:02.000Z</time>
      </trkpt>
      <trkpt lat="48.70617" lon="1.97871">
        <ele>154</ele>
        <time>2011-04-17T10:45:11.000Z</time>
      </trkpt>
      <trkpt lat="48.70619" lon="1.97891">
        <ele>155.80000305176</ele>
        <time>2011-04-17T10:45:20.000Z</time>
      </trkpt>
      <trkpt lat="48.70618" lon="1.97912">
        <ele>155.80000305176</ele>
        <time>2011-04-17T10:45:29.000Z</time>
      </trkpt>
      <trkpt lat="48.70617" lon="1.97925">
        <ele>155.39999389648</ele>
        <time>2011-04-17T10:45:36.000Z</time>
      </trkpt>
      <trkpt lat="48.70616" lon="1.97943">
        <ele>154</ele>
        <time>2011-04-17T10:45:45.000Z</time>
      </trkpt>
      <trkpt lat="48.70615" lon="1.97958">
        <ele>154.39999389648</ele>
        <time>2011-04-17T10:45:52.000Z</time>
      </trkpt>
      <trkpt lat="48.70613" lon="1.97976">
        <ele>154</ele>
        <time>2011-04-17T10:46:01.000Z</time>
      </trkpt>
      <trkpt lat="48.70614" lon="1.97994">
        <ele>155</ele>
        <time>2011-04-17T10:46:10.000Z</time>
      </trkpt>
      <trkpt lat="48.70615" lon="1.97998">
        <ele>154.39999389648</ele>
        <time>2011-04-17T10:46:16.000Z</time>
      </trkpt>
      <trkpt lat="48.70624" lon="1.98">
        <ele>152</ele>
        <time>2011-04-17T10:46:30.000Z</time>
      </trkpt>
      <trkpt lat="48.70629" lon="1.98002">
        <ele>152</ele>
        <time>2011-04-17T10:46:33.000Z</time>
      </trkpt>
      <trkpt lat="48.70635" lon="1.98005">
        <ele>151</ele>
        <time>2011-04-17T10:46:40.000Z</time>
      </trkpt>
      <trkpt lat="48.7065" lon="1.98009">
        <ele>150.19999694824</ele>
        <time>2011-04-17T10:47:13.000Z</time>
      </trkpt>
      <trkpt lat="48.70658" lon="1.98011">
        <ele>150.19999694824</ele>
        <time>2011-04-17T10:47:19.000Z</time>
      </trkpt>
      <trkpt lat="48.70658" lon="1.9801">
        <ele>150.19999694824</ele>
        <time>2011-04-17T10:47:20.000Z</time>
      </trkpt>
      <trkpt lat="48.70678" lon="1.98009">
        <ele>151</ele>
        <time>2011-04-17T11:51:38.000Z</time>
      </trkpt>
      <trkpt lat="48.70672" lon="1.98007">
        <ele>149.60000610352</ele>
        <time>2011-04-17T11:51:44.000Z</time>
      </trkpt>
      <trkpt lat="48.70664" lon="1.98011">
        <ele>150.19999694824</ele>
        <time>2011-04-17T11:51:50.000Z</time>
      </trkpt>
      <trkpt lat="48.70663" lon="1.98011">
        <ele>150.19999694824</ele>
        <time>2011-04-17T11:51:51.000Z</time>
      </trkpt>
      <trkpt lat="48.70657" lon="1.98013">
        <ele>151</ele>
        <time>2011-04-17T11:51:55.000Z</time>
      </trkpt>
      <trkpt lat="48.70649" lon="1.98014">
        <ele>151.60000610352</ele>
        <time>2011-04-17T11:52:01.000Z</time>
      </trkpt>
      <trkpt lat="48.70642" lon="1.98012">
        <ele>151</ele>
        <time>2011-04-17T11:52:07.000Z</time>
      </trkpt>
      <trkpt lat="48.70635" lon="1.98011">
        <ele>149.60000610352</ele>
        <time>2011-04-17T11:52:12.000Z</time>
      </trkpt>
      <trkpt lat="48.70626" lon="1.98008">
        <ele>150.19999694824</ele>
        <time>2011-04-17T11:52:20.000Z</time>
      </trkpt>
      <trkpt lat="48.70624" lon="1.98008">
        <ele>150.60000610352</ele>
        <time>2011-04-17T11:52:24.000Z</time>
      </trkpt>
      <trkpt lat="48.70617" lon="1.98009">
        <ele>151</ele>
        <time>2011-04-17T11:52:43.000Z</time>
      </trkpt>
      <trkpt lat="48.70615" lon="1.98011">
        <ele>151.60000610352</ele>
        <time>2011-04-17T11:52:45.000Z</time>
      </trkpt>
      <trkpt lat="48.70614" lon="1.98028">
        <ele>151.60000610352</ele>
        <time>2011-04-17T11:52:54.000Z</time>
      </trkpt>
      <trkpt lat="48.70613" lon="1.98038">
        <ele>152</ele>
        <time>2011-04-17T11:52:59.000Z</time>
      </trkpt>
      <trkpt lat="48.70613" lon="1.98052">
        <ele>151</ele>
        <time>2011-04-17T11:53:06.000Z</time>
      </trkpt>
      <trkpt lat="48.70613" lon="1.98056">
        <ele>151</ele>
        <time>2011-04-17T11:53:08.000Z</time>
      </trkpt>
      <trkpt lat="48.70613" lon="1.98065">
        <ele>151.60000610352</ele>
        <time>2011-04-17T11:53:13.000Z</time>
      </trkpt>
      <trkpt lat="48.70613" lon="1.98069">
        <ele>151.60000610352</ele>
        <time>2011-04-17T11:53:15.000Z</time>
      </trkpt>
      <trkpt lat="48.70615" lon="1.98083">
        <ele>151</ele>
        <time>2011-04-17T11:53:23.000Z</time>
      </trkpt>
      <trkpt lat="48.70615" lon="1.98094">
        <ele>151</ele>
        <time>2011-04-17T11:53:29.000Z</time>
      </trkpt>
      <trkpt lat="48.70615" lon="1.98108">
        <ele>152.60000610352</ele>
        <time>2011-04-17T11:53:35.000Z</time>
      </trkpt>
      <trkpt lat="48.70616" lon="1.98116">
        <ele>152.60000610352</ele>
        <time>2011-04-17T11:53:40.000Z</time>
      </trkpt>
      <trkpt lat="48.70616" lon="1.98119">
        <ele>152.60000610352</ele>
        <time>2011-04-17T11:53:42.000Z</time>
      </trkpt>
      <trkpt lat="48.70618" lon="1.98132">
        <ele>154.39999389648</ele>
        <time>2011-04-17T11:53:48.000Z</time>
      </trkpt>
      <trkpt lat="48.70618" lon="1.98144">
        <ele>155</ele>
        <time>2011-04-17T11:53:55.000Z</time>
      </trkpt>
      <trkpt lat="48.7062" lon="1.98148">
        <ele>152.60000610352</ele>
        <time>2011-04-17T11:53:59.000Z</time>
      </trkpt>
      <trkpt lat="48.7062" lon="1.98157">
        <ele>151</ele>
        <time>2011-04-17T11:54:03.000Z</time>
      </trkpt>
      <trkpt lat="48.70621" lon="1.98165">
        <ele>150.19999694824</ele>
        <time>2011-04-17T11:54:08.000Z</time>
      </trkpt>
      <trkpt lat="48.70624" lon="1.98178">
        <ele>148.19999694824</ele>
        <time>2011-04-17T11:54:16.000Z</time>
      </trkpt>
      <trkpt lat="48.70626" lon="1.98186">
        <ele>147.60000610352</ele>
        <time>2011-04-17T11:54:21.000Z</time>
      </trkpt>
      <trkpt lat="48.70628" lon="1.98194">
        <ele>147.60000610352</ele>
        <time>2011-04-17T11:54:25.000Z</time>
      </trkpt>
      <trkpt lat="48.70633" lon="1.98207">
        <ele>149.19999694824</ele>
        <time>2011-04-17T11:54:35.000Z</time>
      </trkpt>
      <trkpt lat="48.70633" lon="1.98207">
        <ele>148.60000610352</ele>
        <time>2011-04-17T11:54:37.000Z</time>
      </trkpt>
      <trkpt lat="48.70631" lon="1.98202">
        <ele>145.80000305176</ele>
        <time>2011-04-17T11:55:01.000Z</time>
      </trkpt>
      <trkpt lat="48.70633" lon="1.98206">
        <ele>144.80000305176</ele>
        <time>2011-04-17T11:55:05.000Z</time>
      </trkpt>
      <trkpt lat="48.70645" lon="1.98261">
        <ele>145.80000305176</ele>
        <time>2011-04-17T11:55:47.000Z</time>
      </trkpt>
      <trkpt lat="48.70646" lon="1.98263">
        <ele>145.80000305176</ele>
        <time>2011-04-17T11:55:48.000Z</time>
      </trkpt>
      <trkpt lat="48.70649" lon="1.98274">
        <ele>146.19999694824</ele>
        <time>2011-04-17T11:55:53.000Z</time>
      </trkpt>
      <trkpt lat="48.7065" lon="1.9828">
        <ele>144.80000305176</ele>
        <time>2011-04-17T11:55:58.000Z</time>
      </trkpt>
      <trkpt lat="48.7065" lon="1.98286">
        <ele>143.39999389648</ele>
        <time>2011-04-17T11:56:03.000Z</time>
      </trkpt>
      <trkpt lat="48.7065" lon="1.98287">
        <ele>143.39999389648</ele>
        <time>2011-04-17T11:56:05.000Z</time>
      </trkpt>
      <trkpt lat="48.70658" lon="1.98304">
        <ele>145.80000305176</ele>
        <time>2011-04-17T11:57:24.000Z</time>
      </trkpt>
      <trkpt lat="48.70658" lon="1.98306">
        <ele>145.80000305176</ele>
        <time>2011-04-17T11:57:25.000Z</time>
      </trkpt>
      <trkpt lat="48.70662" lon="1.98314">
        <ele>145.19999694824</ele>
        <time>2011-04-17T11:57:29.000Z</time>
      </trkpt>
      <trkpt lat="48.70663" lon="1.98316">
        <ele>145.19999694824</ele>
        <time>2011-04-17T11:57:30.000Z</time>
      </trkpt>
      <trkpt lat="48.70663" lon="1.98329">
        <ele>145.19999694824</ele>
        <time>2011-04-17T11:57:37.000Z</time>
      </trkpt>
      <trkpt lat="48.70659" lon="1.98333">
        <ele>147.19999694824</ele>
        <time>2011-04-17T11:57:43.000Z</time>
      </trkpt>
      <trkpt lat="48.70654" lon="1.98336">
        <ele>147.19999694824</ele>
        <time>2011-04-17T11:57:48.000Z</time>
      </trkpt>
      <trkpt lat="48.70642" lon="1.98337">
        <ele>144.39999389648</ele>
        <time>2011-04-17T11:57:55.000Z</time>
      </trkpt>
      <trkpt lat="48.7064" lon="1.98339">
        <ele>144.80000305176</ele>
        <time>2011-04-17T11:57:58.000Z</time>
      </trkpt>
      <trkpt lat="48.70634" lon="1.98339">
        <ele>142</ele>
        <time>2011-04-17T11:58:02.000Z</time>
      </trkpt>
      <trkpt lat="48.7063" lon="1.98342">
        <ele>142.80000305176</ele>
        <time>2011-04-17T11:58:06.000Z</time>
      </trkpt>
      <trkpt lat="48.70625" lon="1.98345">
        <ele>144.80000305176</ele>
        <time>2011-04-17T11:58:11.000Z</time>
      </trkpt>
      <trkpt lat="48.70618" lon="1.98348">
        <ele>143.80000305176</ele>
        <time>2011-04-17T11:58:16.000Z</time>
      </trkpt>
      <trkpt lat="48.70613" lon="1.98347">
        <ele>141.39999389648</ele>
        <time>2011-04-17T11:58:20.000Z</time>
      </trkpt>
      <trkpt lat="48.70608" lon="1.98345">
        <ele>141.39999389648</ele>
        <time>2011-04-17T11:58:27.000Z</time>
      </trkpt>
      <trkpt lat="48.70608" lon="1.98345">
        <ele>141.39999389648</ele>
        <time>2011-04-17T11:58:29.000Z</time>
      </trkpt>
      <trkpt lat="48.70605" lon="1.98374">
        <ele>139</ele>
        <time>2011-04-17T11:59:05.000Z</time>
      </trkpt>
      <trkpt lat="48.70605" lon="1.98377">
        <ele>139.60000610352</ele>
        <time>2011-04-17T11:59:06.000Z</time>
      </trkpt>
      <trkpt lat="48.70606" lon="1.9838">
        <ele>139</ele>
        <time>2011-04-17T11:59:08.000Z</time>
      </trkpt>
      <trkpt lat="48.70608" lon="1.98388">
        <ele>140</ele>
        <time>2011-04-17T11:59:13.000Z</time>
      </trkpt>
      <trkpt lat="48.70602" lon="1.98396">
        <ele>132.39999389648</ele>
        <time>2011-04-17T11:59:20.000Z</time>
      </trkpt>
      <trkpt lat="48.70601" lon="1.98399">
        <ele>132.39999389648</ele>
        <time>2011-04-17T11:59:23.000Z</time>
      </trkpt>
      <trkpt lat="48.70597" lon="1.98408">
        <ele>133.19999694824</ele>
        <time>2011-04-17T11:59:28.000Z</time>
      </trkpt>
      <trkpt lat="48.70596" lon="1.98408">
        <ele>135.19999694824</ele>
        <time>2011-04-17T11:59:37.000Z</time>
      </trkpt>
      <trkpt lat="48.70596" lon="1.9841">
        <ele>141.39999389648</ele>
        <time>2011-04-17T12:00:19.000Z</time>
      </trkpt>
      <trkpt lat="48.70594" lon="1.98418">
        <ele>140</ele>
        <time>2011-04-17T12:00:24.000Z</time>
      </trkpt>
      <trkpt lat="48.70592" lon="1.98421">
        <ele>139.60000610352</ele>
        <time>2011-04-17T12:00:28.000Z</time>
      </trkpt>
      <trkpt lat="48.7059" lon="1.98434">
        <ele>132.39999389648</ele>
        <time>2011-04-17T12:00:39.000Z</time>
      </trkpt>
      <trkpt lat="48.70585" lon="1.98442">
        <ele>130.80000305176</ele>
        <time>2011-04-17T12:00:43.000Z</time>
      </trkpt>
      <trkpt lat="48.70579" lon="1.98447">
        <ele>129</ele>
        <time>2011-04-17T12:00:49.000Z</time>
      </trkpt>
      <trkpt lat="48.70578" lon="1.9845">
        <ele>127.59999847412</ele>
        <time>2011-04-17T12:00:52.000Z</time>
      </trkpt>
      <trkpt lat="48.70572" lon="1.98458">
        <ele>124.19999694824</ele>
        <time>2011-04-17T12:01:00.000Z</time>
      </trkpt>
      <trkpt lat="48.70567" lon="1.98469">
        <ele>118.80000305176</ele>
        <time>2011-04-17T12:01:08.000Z</time>
      </trkpt>
      <trkpt lat="48.70564" lon="1.98477">
        <ele>117.40000152588</ele>
        <time>2011-04-17T12:01:12.000Z</time>
      </trkpt>
      <trkpt lat="48.70561" lon="1.98478">
        <ele>116</ele>
        <time>2011-04-17T12:01:16.000Z</time>
      </trkpt>
      <trkpt lat="48.70558" lon="1.98494">
        <ele>113.59999847412</ele>
        <time>2011-04-17T12:02:24.000Z</time>
      </trkpt>
      <trkpt lat="48.70552" lon="1.98505">
        <ele>111.59999847412</ele>
        <time>2011-04-17T12:02:32.000Z</time>
      </trkpt>
      <trkpt lat="48.7055" lon="1.98514">
        <ele>110.19999694824</ele>
        <time>2011-04-17T12:02:38.000Z</time>
      </trkpt>
      <trkpt lat="48.70548" lon="1.98518">
        <ele>108.80000305176</ele>
        <time>2011-04-17T12:02:43.000Z</time>
      </trkpt>
      <trkpt lat="48.70542" lon="1.98525">
        <ele>107.40000152588</ele>
        <time>2011-04-17T12:02:47.000Z</time>
      </trkpt>
      <trkpt lat="48.70538" lon="1.98531">
        <ele>105.80000305176</ele>
        <time>2011-04-17T12:02:54.000Z</time>
      </trkpt>
      <trkpt lat="48.70533" lon="1.9854">
        <ele>105</ele>
        <time>2011-04-17T12:03:01.000Z</time>
      </trkpt>
      <trkpt lat="48.70527" lon="1.98551">
        <ele>104</ele>
        <time>2011-04-17T12:03:10.000Z</time>
      </trkpt>
      <trkpt lat="48.70521" lon="1.98559">
        <ele>102.59999847412</ele>
        <time>2011-04-17T12:03:19.000Z</time>
      </trkpt>
      <trkpt lat="48.70515" lon="1.98567">
        <ele>101</ele>
        <time>2011-04-17T12:03:27.000Z</time>
      </trkpt>
      <trkpt lat="48.70509" lon="1.98575">
        <ele>99.199996948242</ele>
        <time>2011-04-17T12:03:34.000Z</time>
      </trkpt>
      <trkpt lat="48.70506" lon="1.98582">
        <ele>98.199996948242</ele>
        <time>2011-04-17T12:03:40.000Z</time>
      </trkpt>
      <trkpt lat="48.70505" lon="1.98584">
        <ele>99.599998474121</ele>
        <time>2011-04-17T12:03:45.000Z</time>
      </trkpt>
      <trkpt lat="48.7051" lon="1.98611">
        <ele>98.199996948242</ele>
        <time>2011-04-17T12:04:23.000Z</time>
      </trkpt>
      <trkpt lat="48.70518" lon="1.98614">
        <ele>97.800003051758</ele>
        <time>2011-04-17T12:04:28.000Z</time>
      </trkpt>
      <trkpt lat="48.70529" lon="1.9862">
        <ele>95.400001525879</ele>
        <time>2011-04-17T12:04:37.000Z</time>
      </trkpt>
      <trkpt lat="48.70539" lon="1.98624">
        <ele>94.400001525879</ele>
        <time>2011-04-17T12:04:46.000Z</time>
      </trkpt>
      <trkpt lat="48.70549" lon="1.98633">
        <ele>93.400001525879</ele>
        <time>2011-04-17T12:04:55.000Z</time>
      </trkpt>
      <trkpt lat="48.70556" lon="1.98641">
        <ele>96.199996948242</ele>
        <time>2011-04-17T12:05:02.000Z</time>
      </trkpt>
      <trkpt lat="48.70563" lon="1.98651">
        <ele>93</ele>
        <time>2011-04-17T12:05:08.000Z</time>
      </trkpt>
      <trkpt lat="48.7057" lon="1.98663">
        <ele>90.599998474121</ele>
        <time>2011-04-17T12:05:15.000Z</time>
      </trkpt>
      <trkpt lat="48.70574" lon="1.98673">
        <ele>88.599998474121</ele>
        <time>2011-04-17T12:05:20.000Z</time>
      </trkpt>
      <trkpt lat="48.70576" lon="1.98679">
        <ele>89</ele>
        <time>2011-04-17T12:05:24.000Z</time>
      </trkpt>
      <trkpt lat="48.70577" lon="1.98686">
        <ele>91</ele>
        <time>2011-04-17T12:05:28.000Z</time>
      </trkpt>
      <trkpt lat="48.70576" lon="1.98687">
        <ele>90</ele>
        <time>2011-04-17T12:05:31.000Z</time>
      </trkpt>
      <trkpt lat="48.70577" lon="1.98686">
        <ele>98.599998474121</ele>
        <time>2011-04-17T12:06:40.000Z</time>
      </trkpt>
      <trkpt lat="48.70582" lon="1.98689">
        <ele>97.199996948242</ele>
        <time>2011-04-17T12:06:43.000Z</time>
      </trkpt>
      <trkpt lat="48.70588" lon="1.98697">
        <ele>94.800003051758</ele>
        <time>2011-04-17T12:06:49.000Z</time>
      </trkpt>
      <trkpt lat="48.70596" lon="1.9871">
        <ele>94.400001525879</ele>
        <time>2011-04-17T12:06:57.000Z</time>
      </trkpt>
      <trkpt lat="48.70602" lon="1.9872">
        <ele>93.800003051758</ele>
        <time>2011-04-17T12:07:04.000Z</time>
      </trkpt>
      <trkpt lat="48.70608" lon="1.98729">
        <ele>93.800003051758</ele>
        <time>2011-04-17T12:07:10.000Z</time>
      </trkpt>
      <trkpt lat="48.70614" lon="1.98739">
        <ele>94.400001525879</ele>
        <time>2011-04-17T12:07:17.000Z</time>
      </trkpt>
      <trkpt lat="48.7062" lon="1.98752">
        <ele>94.400001525879</ele>
        <time>2011-04-17T12:07:25.000Z</time>
      </trkpt>
      <trkpt lat="48.70627" lon="1.98764">
        <ele>94.800003051758</ele>
        <time>2011-04-17T12:07:33.000Z</time>
      </trkpt>
      <trkpt lat="48.70633" lon="1.98775">
        <ele>94.400001525879</ele>
        <time>2011-04-17T12:07:41.000Z</time>
      </trkpt>
      <trkpt lat="48.70639" lon="1.98786">
        <ele>93.800003051758</ele>
        <time>2011-04-17T12:07:49.000Z</time>
      </trkpt>
      <trkpt lat="48.70643" lon="1.98793">
        <ele>94.400001525879</ele>
        <time>2011-04-17T12:07:55.000Z</time>
      </trkpt>
      <trkpt lat="48.70646" lon="1.98799">
        <ele>93.800003051758</ele>
        <time>2011-04-17T12:07:59.000Z</time>
      </trkpt>
      <trkpt lat="48.7065" lon="1.98809">
        <ele>93.800003051758</ele>
        <time>2011-04-17T12:08:05.000Z</time>
      </trkpt>
      <trkpt lat="48.70653" lon="1.9882">
        <ele>93.800003051758</ele>
        <time>2011-04-17T12:08:11.000Z</time>
      </trkpt>
      <trkpt lat="48.70656" lon="1.98825">
        <ele>92.400001525879</ele>
        <time>2011-04-17T12:08:15.000Z</time>
      </trkpt>
      <trkpt lat="48.70659" lon="1.98832">
        <ele>93</ele>
        <time>2011-04-17T12:08:19.000Z</time>
      </trkpt>
      <trkpt lat="48.70664" lon="1.98843">
        <ele>93.400001525879</ele>
        <time>2011-04-17T12:08:25.000Z</time>
      </trkpt>
      <trkpt lat="48.70667" lon="1.98853">
        <ele>92.400001525879</ele>
        <time>2011-04-17T12:08:30.000Z</time>
      </trkpt>
      <trkpt lat="48.70667" lon="1.98858">
        <ele>92.400001525879</ele>
        <time>2011-04-17T12:08:33.000Z</time>
      </trkpt>
      <trkpt lat="48.70669" lon="1.98865">
        <ele>91.400001525879</ele>
        <time>2011-04-17T12:08:37.000Z</time>
      </trkpt>
      <trkpt lat="48.70673" lon="1.98879">
        <ele>91</ele>
        <time>2011-04-17T12:08:44.000Z</time>
      </trkpt>
      <trkpt lat="48.70675" lon="1.98883">
        <ele>91.400001525879</ele>
        <time>2011-04-17T12:08:46.000Z</time>
      </trkpt>
      <trkpt lat="48.7068" lon="1.98905">
        <ele>88</ele>
        <time>2011-04-17T12:08:58.000Z</time>
      </trkpt>
      <trkpt lat="48.70682" lon="1.98913">
        <ele>88</ele>
        <time>2011-04-17T12:09:02.000Z</time>
      </trkpt>
      <trkpt lat="48.70687" lon="1.98924">
        <ele>88</ele>
        <time>2011-04-17T12:09:09.000Z</time>
      </trkpt>
      <trkpt lat="48.70688" lon="1.98932">
        <ele>88.599998474121</ele>
        <time>2011-04-17T12:09:13.000Z</time>
      </trkpt>
      <trkpt lat="48.70694" lon="1.98943">
        <ele>88.599998474121</ele>
        <time>2011-04-17T12:09:19.000Z</time>
      </trkpt>
      <trkpt lat="48.70697" lon="1.98954">
        <ele>87.599998474121</ele>
        <time>2011-04-17T12:09:25.000Z</time>
      </trkpt>
      <trkpt lat="48.70698" lon="1.98956">
        <ele>88</ele>
        <time>2011-04-17T12:09:26.000Z</time>
      </trkpt>
      <trkpt lat="48.70702" lon="1.98967">
        <ele>90.599998474121</ele>
        <time>2011-04-17T12:09:32.000Z</time>
      </trkpt>
      <trkpt lat="48.70704" lon="1.98977">
        <ele>88.599998474121</ele>
        <time>2011-04-17T12:09:37.000Z</time>
      </trkpt>
      <trkpt lat="48.70705" lon="1.98981">
        <ele>88.599998474121</ele>
        <time>2011-04-17T12:09:39.000Z</time>
      </trkpt>
      <trkpt lat="48.70706" lon="1.98992">
        <ele>87.199996948242</ele>
        <time>2011-04-17T12:09:44.000Z</time>
      </trkpt>
      <trkpt lat="48.70704" lon="1.99002">
        <ele>86.199996948242</ele>
        <time>2011-04-17T12:09:49.000Z</time>
      </trkpt>
      <trkpt lat="48.70705" lon="1.9901">
        <ele>85.199996948242</ele>
        <time>2011-04-17T12:09:53.000Z</time>
      </trkpt>
      <trkpt lat="48.70703" lon="1.99013">
        <ele>85.199996948242</ele>
        <time>2011-04-17T12:09:56.000Z</time>
      </trkpt>
      <trkpt lat="48.70703" lon="1.99016">
        <ele>85.199996948242</ele>
        <time>2011-04-17T12:09:58.000Z</time>
      </trkpt>
      <trkpt lat="48.70705" lon="1.99029">
        <ele>87.199996948242</ele>
        <time>2011-04-17T12:10:05.000Z</time>
      </trkpt>
      <trkpt lat="48.70705" lon="1.99031">
        <ele>86.599998474121</ele>
        <time>2011-04-17T12:10:06.000Z</time>
      </trkpt>
      <trkpt lat="48.70706" lon="1.99038">
        <ele>87.199996948242</ele>
        <time>2011-04-17T12:10:12.000Z</time>
      </trkpt>
      <trkpt lat="48.70705" lon="1.99054">
        <ele>87.599998474121</ele>
        <time>2011-04-17T12:10:50.000Z</time>
      </trkpt>
      <trkpt lat="48.70705" lon="1.9906">
        <ele>86.199996948242</ele>
        <time>2011-04-17T12:10:52.000Z</time>
      </trkpt>
      <trkpt lat="48.70704" lon="1.99071">
        <ele>84.199996948242</ele>
        <time>2011-04-17T12:10:58.000Z</time>
      </trkpt>
      <trkpt lat="48.70704" lon="1.99073">
        <ele>83.800003051758</ele>
        <time>2011-04-17T12:10:59.000Z</time>
      </trkpt>
      <trkpt lat="48.70702" lon="1.99083">
        <ele>82.400001525879</ele>
        <time>2011-04-17T12:11:04.000Z</time>
      </trkpt>
      <trkpt lat="48.70702" lon="1.99095">
        <ele>80.400001525879</ele>
        <time>2011-04-17T12:11:10.000Z</time>
      </trkpt>
      <trkpt lat="48.70702" lon="1.99096">
        <ele>80.400001525879</ele>
        <time>2011-04-17T12:11:11.000Z</time>
      </trkpt>
      <trkpt lat="48.70702" lon="1.99112">
        <ele>79.400001525879</ele>
        <time>2011-04-17T12:11:19.000Z</time>
      </trkpt>
      <trkpt lat="48.70702" lon="1.99126">
        <ele>79.400001525879</ele>
        <time>2011-04-17T12:11:27.000Z</time>
      </trkpt>
      <trkpt lat="48.70705" lon="1.99138">
        <ele>79</ele>
        <time>2011-04-17T12:11:34.000Z</time>
      </trkpt>
      <trkpt lat="48.70704" lon="1.99144">
        <ele>79.400001525879</ele>
        <time>2011-04-17T12:11:37.000Z</time>
      </trkpt>
      <trkpt lat="48.70703" lon="1.99148">
        <ele>80</ele>
        <time>2011-04-17T12:11:40.000Z</time>
      </trkpt>
      <trkpt lat="48.70702" lon="1.99161">
        <ele>80.400001525879</ele>
        <time>2011-04-17T12:11:47.000Z</time>
      </trkpt>
      <trkpt lat="48.70704" lon="1.9917">
        <ele>80</ele>
        <time>2011-04-17T12:11:53.000Z</time>
      </trkpt>
      <trkpt lat="48.70703" lon="1.99179">
        <ele>79.400001525879</ele>
        <time>2011-04-17T12:11:58.000Z</time>
      </trkpt>
      <trkpt lat="48.70703" lon="1.99187">
        <ele>78.400001525879</ele>
        <time>2011-04-17T12:12:02.000Z</time>
      </trkpt>
      <trkpt lat="48.70703" lon="1.99197">
        <ele>79</ele>
        <time>2011-04-17T12:12:07.000Z</time>
      </trkpt>
      <trkpt lat="48.70704" lon="1.99204">
        <ele>80.400001525879</ele>
        <time>2011-04-17T12:12:11.000Z</time>
      </trkpt>
      <trkpt lat="48.70705" lon="1.99215">
        <ele>80.400001525879</ele>
        <time>2011-04-17T12:12:16.000Z</time>
      </trkpt>
      <trkpt lat="48.70705" lon="1.99228">
        <ele>78.400001525879</ele>
        <time>2011-04-17T12:12:23.000Z</time>
      </trkpt>
      <trkpt lat="48.70705" lon="1.99239">
        <ele>78</ele>
        <time>2011-04-17T12:12:28.000Z</time>
      </trkpt>
      <trkpt lat="48.70706" lon="1.99241">
        <ele>77.599998474121</ele>
        <time>2011-04-17T12:12:29.000Z</time>
      </trkpt>
      <trkpt lat="48.70706" lon="1.99254">
        <ele>78</ele>
        <time>2011-04-17T12:12:35.000Z</time>
      </trkpt>
      <trkpt lat="48.70706" lon="1.99265">
        <ele>80.400001525879</ele>
        <time>2011-04-17T12:12:41.000Z</time>
      </trkpt>
      <trkpt lat="48.70707" lon="1.99268">
        <ele>80.800003051758</ele>
        <time>2011-04-17T12:12:42.000Z</time>
      </trkpt>
      <trkpt lat="48.70708" lon="1.99276">
        <ele>81.800003051758</ele>
        <time>2011-04-17T12:12:46.000Z</time>
      </trkpt>
      <trkpt lat="48.70709" lon="1.99289">
        <ele>82.400001525879</ele>
        <time>2011-04-17T12:12:53.000Z</time>
      </trkpt>
      <trkpt lat="48.70709" lon="1.99303">
        <ele>81.400001525879</ele>
        <time>2011-04-17T12:13:00.000Z</time>
      </trkpt>
      <trkpt lat="48.70708" lon="1.99307">
        <ele>80.800003051758</ele>
        <time>2011-04-17T12:13:02.000Z</time>
      </trkpt>
      <trkpt lat="48.70711" lon="1.9932">
        <ele>81.800003051758</ele>
        <time>2011-04-17T12:13:09.000Z</time>
      </trkpt>
      <trkpt lat="48.70711" lon="1.99329">
        <ele>82.800003051758</ele>
        <time>2011-04-17T12:13:14.000Z</time>
      </trkpt>
      <trkpt lat="48.70712" lon="1.99338">
        <ele>84.199996948242</ele>
        <time>2011-04-17T12:13:19.000Z</time>
      </trkpt>
      <trkpt lat="48.70712" lon="1.99341">
        <ele>84.800003051758</ele>
        <time>2011-04-17T12:13:21.000Z</time>
      </trkpt>
      <trkpt lat="48.70713" lon="1.99348">
        <ele>86.599998474121</ele>
        <time>2011-04-17T12:13:25.000Z</time>
      </trkpt>
      <trkpt lat="48.70711" lon="1.99356">
        <ele>86.599998474121</ele>
        <time>2011-04-17T12:13:30.000Z</time>
      </trkpt>
      <trkpt lat="48.70711" lon="1.99362">
        <ele>86.199996948242</ele>
        <time>2011-04-17T12:13:33.000Z</time>
      </trkpt>
      <trkpt lat="48.70712" lon="1.99373">
        <ele>86.199996948242</ele>
        <time>2011-04-17T12:13:39.000Z</time>
      </trkpt>
      <trkpt lat="48.70712" lon="1.99389">
        <ele>85.599998474121</ele>
        <time>2011-04-17T12:13:47.000Z</time>
      </trkpt>
      <trkpt lat="48.70712" lon="1.99395">
        <ele>84.800003051758</ele>
        <time>2011-04-17T12:13:51.000Z</time>
      </trkpt>
      <trkpt lat="48.70712" lon="1.994">
        <ele>83.800003051758</ele>
        <time>2011-04-17T12:13:54.000Z</time>
      </trkpt>
      <trkpt lat="48.70711" lon="1.99409">
        <ele>82.800003051758</ele>
        <time>2011-04-17T12:13:59.000Z</time>
      </trkpt>
      <trkpt lat="48.70709" lon="1.99415">
        <ele>82.400001525879</ele>
        <time>2011-04-17T12:14:02.000Z</time>
      </trkpt>
      <trkpt lat="48.70712" lon="1.99424">
        <ele>82.400001525879</ele>
        <time>2011-04-17T12:14:07.000Z</time>
      </trkpt>
      <trkpt lat="48.70713" lon="1.99431">
        <ele>84.199996948242</ele>
        <time>2011-04-17T12:14:11.000Z</time>
      </trkpt>
      <trkpt lat="48.70716" lon="1.9944">
        <ele>85.599998474121</ele>
        <time>2011-04-17T12:14:17.000Z</time>
      </trkpt>
      <trkpt lat="48.70715" lon="1.99445">
        <ele>85.599998474121</ele>
        <time>2011-04-17T12:14:20.000Z</time>
      </trkpt>
      <trkpt lat="48.70716" lon="1.99459">
        <ele>86.199996948242</ele>
        <time>2011-04-17T12:14:28.000Z</time>
      </trkpt>
      <trkpt lat="48.70715" lon="1.99479">
        <ele>86.199996948242</ele>
        <time>2011-04-17T12:14:39.000Z</time>
      </trkpt>
      <trkpt lat="48.70716" lon="1.99491">
        <ele>85.199996948242</ele>
        <time>2011-04-17T12:14:46.000Z</time>
      </trkpt>
      <trkpt lat="48.70716" lon="1.99502">
        <ele>85.199996948242</ele>
        <time>2011-04-17T12:14:52.000Z</time>
      </trkpt>
      <trkpt lat="48.70717" lon="1.99513">
        <ele>84.800003051758</ele>
        <time>2011-04-17T12:14:58.000Z</time>
      </trkpt>
      <trkpt lat="48.70717" lon="1.99526">
        <ele>86.199996948242</ele>
        <time>2011-04-17T12:15:05.000Z</time>
      </trkpt>
      <trkpt lat="48.70718" lon="1.99539">
        <ele>86.599998474121</ele>
        <time>2011-04-17T12:15:12.000Z</time>
      </trkpt>
      <trkpt lat="48.70718" lon="1.99552">
        <ele>86.599998474121</ele>
        <time>2011-04-17T12:15:19.000Z</time>
      </trkpt>
      <trkpt lat="48.70719" lon="1.99563">
        <ele>86.599998474121</ele>
        <time>2011-04-17T12:15:25.000Z</time>
      </trkpt>
      <trkpt lat="48.70722" lon="1.9957">
        <ele>87.599998474121</ele>
        <time>2011-04-17T12:15:30.000Z</time>
      </trkpt>
      <trkpt lat="48.70723" lon="1.99576">
        <ele>86.599998474121</ele>
        <time>2011-04-17T12:15:34.000Z</time>
      </trkpt>
      <trkpt lat="48.70725" lon="1.99587">
        <ele>87.199996948242</ele>
        <time>2011-04-17T12:15:41.000Z</time>
      </trkpt>
      <trkpt lat="48.70724" lon="1.99596">
        <ele>86.199996948242</ele>
        <time>2011-04-17T12:15:46.000Z</time>
      </trkpt>
      <trkpt lat="48.70724" lon="1.99599">
        <ele>86.199996948242</ele>
        <time>2011-04-17T12:15:48.000Z</time>
      </trkpt>
      <trkpt lat="48.70723" lon="1.99613">
        <ele>89.599998474121</ele>
        <time>2011-04-17T12:15:56.000Z</time>
      </trkpt>
      <trkpt lat="48.70724" lon="1.99624">
        <ele>92</ele>
        <time>2011-04-17T12:16:02.000Z</time>
      </trkpt>
      <trkpt lat="48.70724" lon="1.99631">
        <ele>93</ele>
        <time>2011-04-17T12:16:06.000Z</time>
      </trkpt>
      <trkpt lat="48.70725" lon="1.99638">
        <ele>95.400001525879</ele>
        <time>2011-04-17T12:16:11.000Z</time>
      </trkpt>
      <trkpt lat="48.70725" lon="1.99651">
        <ele>96.199996948242</ele>
        <time>2011-04-17T12:16:19.000Z</time>
      </trkpt>
      <trkpt lat="48.70726" lon="1.99655">
        <ele>95.800003051758</ele>
        <time>2011-04-17T12:16:21.000Z</time>
      </trkpt>
      <trkpt lat="48.70728" lon="1.99665">
        <ele>98.599998474121</ele>
        <time>2011-04-17T12:16:27.000Z</time>
      </trkpt>
      <trkpt lat="48.70728" lon="1.99672">
        <ele>99.199996948242</ele>
        <time>2011-04-17T12:16:31.000Z</time>
      </trkpt>
      <trkpt lat="48.70728" lon="1.99682">
        <ele>98.599998474121</ele>
        <time>2011-04-17T12:16:38.000Z</time>
      </trkpt>
      <trkpt lat="48.70726" lon="1.99691">
        <ele>95.800003051758</ele>
        <time>2011-04-17T12:16:44.000Z</time>
      </trkpt>
      <trkpt lat="48.70729" lon="1.99706">
        <ele>93.800003051758</ele>
        <time>2011-04-17T12:16:52.000Z</time>
      </trkpt>
      <trkpt lat="48.7073" lon="1.99708">
        <ele>94.400001525879</ele>
        <time>2011-04-17T12:16:53.000Z</time>
      </trkpt>
      <trkpt lat="48.70731" lon="1.99716">
        <ele>96.800003051758</ele>
        <time>2011-04-17T12:16:57.000Z</time>
      </trkpt>
      <trkpt lat="48.70734" lon="1.99726">
        <ele>97.800003051758</ele>
        <time>2011-04-17T12:17:03.000Z</time>
      </trkpt>
      <trkpt lat="48.70735" lon="1.99734">
        <ele>95.400001525879</ele>
        <time>2011-04-17T12:17:09.000Z</time>
      </trkpt>
      <trkpt lat="48.70734" lon="1.99744">
        <ele>92</ele>
        <time>2011-04-17T12:17:16.000Z</time>
      </trkpt>
      <trkpt lat="48.70734" lon="1.99752">
        <ele>89.599998474121</ele>
        <time>2011-04-17T12:17:22.000Z</time>
      </trkpt>
      <trkpt lat="48.70737" lon="1.9976">
        <ele>90.599998474121</ele>
        <time>2011-04-17T12:17:27.000Z</time>
      </trkpt>
      <trkpt lat="48.7074" lon="1.99763">
        <ele>91</ele>
        <time>2011-04-17T12:17:29.000Z</time>
      </trkpt>
      <trkpt lat="48.70742" lon="1.99768">
        <ele>93</ele>
        <time>2011-04-17T12:17:32.000Z</time>
      </trkpt>
      <trkpt lat="48.70744" lon="1.99776">
        <ele>99.599998474121</ele>
        <time>2011-04-17T12:17:38.000Z</time>
      </trkpt>
      <trkpt lat="48.70747" lon="1.9978">
        <ele>99.599998474121</ele>
        <time>2011-04-17T12:17:41.000Z</time>
      </trkpt>
      <trkpt lat="48.70753" lon="1.99789">
        <ele>103.40000152588</ele>
        <time>2011-04-17T12:17:48.000Z</time>
      </trkpt>
      <trkpt lat="48.70758" lon="1.998">
        <ele>107.80000305176</ele>
        <time>2011-04-17T12:17:55.000Z</time>
      </trkpt>
      <trkpt lat="48.70759" lon="1.99808">
        <ele>111.59999847412</ele>
        <time>2011-04-17T12:18:00.000Z</time>
      </trkpt>
      <trkpt lat="48.70761" lon="1.99817">
        <ele>112.59999847412</ele>
        <time>2011-04-17T12:18:06.000Z</time>
      </trkpt>
      <trkpt lat="48.70761" lon="1.99827">
        <ele>109.80000305176</ele>
        <time>2011-04-17T12:18:12.000Z</time>
      </trkpt>
      <trkpt lat="48.70761" lon="1.99837">
        <ele>110.19999694824</ele>
        <time>2011-04-17T12:18:18.000Z</time>
      </trkpt>
      <trkpt lat="48.70762" lon="1.99846">
        <ele>115</ele>
        <time>2011-04-17T12:18:23.000Z</time>
      </trkpt>
      <trkpt lat="48.70762" lon="1.99856">
        <ele>117.40000152588</ele>
        <time>2011-04-17T12:18:29.000Z</time>
      </trkpt>
      <trkpt lat="48.70762" lon="1.99863">
        <ele>116.40000152588</ele>
        <time>2011-04-17T12:18:33.000Z</time>
      </trkpt>
      <trkpt lat="48.70761" lon="1.99873">
        <ele>116.40000152588</ele>
        <time>2011-04-17T12:18:39.000Z</time>
      </trkpt>
      <trkpt lat="48.70759" lon="1.99877">
        <ele>116.40000152588</ele>
        <time>2011-04-17T12:18:42.000Z</time>
      </trkpt>
      <trkpt lat="48.70759" lon="1.99884">
        <ele>117</ele>
        <time>2011-04-17T12:18:47.000Z</time>
      </trkpt>
      <trkpt lat="48.70757" lon="1.99891">
        <ele>119.40000152588</ele>
        <time>2011-04-17T12:18:52.000Z</time>
      </trkpt>
      <trkpt lat="48.70757" lon="1.99894">
        <ele>122.80000305176</ele>
        <time>2011-04-17T12:18:58.000Z</time>
      </trkpt>
      <trkpt lat="48.70755" lon="1.99895">
        <ele>122.19999694824</ele>
        <time>2011-04-17T12:19:01.000Z</time>
      </trkpt>
      <trkpt lat="48.70754" lon="1.99895">
        <ele>124.19999694824</ele>
        <time>2011-04-17T12:19:02.000Z</time>
      </trkpt>
      <trkpt lat="48.70753" lon="1.99897">
        <ele>123.59999847412</ele>
        <time>2011-04-17T12:19:04.000Z</time>
      </trkpt>
      <trkpt lat="48.70763" lon="1.99919">
        <ele>123.59999847412</ele>
        <time>2011-04-17T12:20:03.000Z</time>
      </trkpt>
      <trkpt lat="48.70762" lon="1.99925">
        <ele>124.59999847412</ele>
        <time>2011-04-17T12:20:06.000Z</time>
      </trkpt>
      <trkpt lat="48.70765" lon="1.99929">
        <ele>124.19999694824</ele>
        <time>2011-04-17T12:20:09.000Z</time>
      </trkpt>
      <trkpt lat="48.70767" lon="1.99933">
        <ele>124.19999694824</ele>
        <time>2011-04-17T12:20:12.000Z</time>
      </trkpt>
      <trkpt lat="48.70768" lon="1.99942">
        <ele>129</ele>
        <time>2011-04-17T12:20:19.000Z</time>
      </trkpt>
      <trkpt lat="48.70771" lon="1.99949">
        <ele>130.39999389648</ele>
        <time>2011-04-17T12:20:25.000Z</time>
      </trkpt>
      <trkpt lat="48.70774" lon="1.99955">
        <ele>130</ele>
        <time>2011-04-17T12:20:30.000Z</time>
      </trkpt>
      <trkpt lat="48.70778" lon="1.9996">
        <ele>128.39999389648</ele>
        <time>2011-04-17T12:20:37.000Z</time>
      </trkpt>
      <trkpt lat="48.7078" lon="1.99961">
        <ele>130</ele>
        <time>2011-04-17T12:20:42.000Z</time>
      </trkpt>
      <trkpt lat="48.70776" lon="1.99992">
        <ele>136.19999694824</ele>
        <time>2011-04-17T12:21:29.000Z</time>
      </trkpt>
      <trkpt lat="48.7077" lon="2.00002">
        <ele>140</ele>
        <time>2011-04-17T12:21:35.000Z</time>
      </trkpt>
      <trkpt lat="48.70768" lon="2.00012">
        <ele>140</ele>
        <time>2011-04-17T12:21:41.000Z</time>
      </trkpt>
      <trkpt lat="48.70767" lon="2.00015">
        <ele>139.60000610352</ele>
        <time>2011-04-17T12:21:43.000Z</time>
      </trkpt>
      <trkpt lat="48.70765" lon="2.00018">
        <ele>140.39999389648</ele>
        <time>2011-04-17T12:21:48.000Z</time>
      </trkpt>
      <trkpt lat="48.70764" lon="2.0002">
        <ele>139.60000610352</ele>
        <time>2011-04-17T12:21:51.000Z</time>
      </trkpt>
      <trkpt lat="48.70762" lon="2.00023">
        <ele>140</ele>
        <time>2011-04-17T12:21:52.000Z</time>
      </trkpt>
      <trkpt lat="48.70754" lon="2.00029">
        <ele>138.60000610352</ele>
        <time>2011-04-17T12:21:57.000Z</time>
      </trkpt>
      <trkpt lat="48.7075" lon="2.00036">
        <ele>140</ele>
        <time>2011-04-17T12:22:03.000Z</time>
      </trkpt>
      <trkpt lat="48.70749" lon="2.00037">
        <ele>142.80000305176</ele>
        <time>2011-04-17T12:22:06.000Z</time>
      </trkpt>
      <trkpt lat="48.70736" lon="2.00079">
        <ele>146.80000305176</ele>
        <time>2011-04-17T12:22:48.000Z</time>
      </trkpt>
      <trkpt lat="48.70734" lon="2.00091">
        <ele>143.80000305176</ele>
        <time>2011-04-17T12:22:54.000Z</time>
      </trkpt>
      <trkpt lat="48.70732" lon="2.00101">
        <ele>145.19999694824</ele>
        <time>2011-04-17T12:23:00.000Z</time>
      </trkpt>
      <trkpt lat="48.70729" lon="2.00108">
        <ele>146.80000305176</ele>
        <time>2011-04-17T12:23:05.000Z</time>
      </trkpt>
      <trkpt lat="48.70725" lon="2.00117">
        <ele>145.80000305176</ele>
        <time>2011-04-17T12:23:11.000Z</time>
      </trkpt>
      <trkpt lat="48.70723" lon="2.00124">
        <ele>147.60000610352</ele>
        <time>2011-04-17T12:23:17.000Z</time>
      </trkpt>
      <trkpt lat="48.70721" lon="2.00133">
        <ele>148.60000610352</ele>
        <time>2011-04-17T12:23:23.000Z</time>
      </trkpt>
      <trkpt lat="48.7072" lon="2.00144">
        <ele>147.60000610352</ele>
        <time>2011-04-17T12:23:29.000Z</time>
      </trkpt>
      <trkpt lat="48.70715" lon="2.00153">
        <ele>148.19999694824</ele>
        <time>2011-04-17T12:23:33.000Z</time>
      </trkpt>
      <trkpt lat="48.70713" lon="2.00158">
        <ele>147.19999694824</ele>
        <time>2011-04-17T12:23:37.000Z</time>
      </trkpt>
      <trkpt lat="48.70712" lon="2.00164">
        <ele>145.19999694824</ele>
        <time>2011-04-17T12:23:41.000Z</time>
      </trkpt>
      <trkpt lat="48.70713" lon="2.00175">
        <ele>142.39999389648</ele>
        <time>2011-04-17T12:23:49.000Z</time>
      </trkpt>
      <trkpt lat="48.70712" lon="2.00177">
        <ele>142.39999389648</ele>
        <time>2011-04-17T12:23:50.000Z</time>
      </trkpt>
      <trkpt lat="48.70715" lon="2.00182">
        <ele>140</ele>
        <time>2011-04-17T12:23:55.000Z</time>
      </trkpt>
      <trkpt lat="48.70719" lon="2.00184">
        <ele>142</ele>
        <time>2011-04-17T12:23:59.000Z</time>
      </trkpt>
      <trkpt lat="48.70725" lon="2.00183">
        <ele>144.80000305176</ele>
        <time>2011-04-17T12:24:06.000Z</time>
      </trkpt>
      <trkpt lat="48.70731" lon="2.00183">
        <ele>144.80000305176</ele>
        <time>2011-04-17T12:24:11.000Z</time>
      </trkpt>
      <trkpt lat="48.70737" lon="2.00186">
        <ele>145.19999694824</ele>
        <time>2011-04-17T12:24:19.000Z</time>
      </trkpt>
      <trkpt lat="48.70738" lon="2.00187">
        <ele>145.80000305176</ele>
        <time>2011-04-17T12:24:22.000Z</time>
      </trkpt>
      <trkpt lat="48.70765" lon="2.00188">
        <ele>155</ele>
        <time>2011-04-17T12:25:07.000Z</time>
      </trkpt>
      <trkpt lat="48.7077" lon="2.00191">
        <ele>153</ele>
        <time>2011-04-17T12:25:11.000Z</time>
      </trkpt>
      <trkpt lat="48.70772" lon="2.00193">
        <ele>152.60000610352</ele>
        <time>2011-04-17T12:25:13.000Z</time>
      </trkpt>
      <trkpt lat="48.70776" lon="2.00198">
        <ele>156.39999389648</ele>
        <time>2011-04-17T12:25:20.000Z</time>
      </trkpt>
      <trkpt lat="48.70786" lon="2.00215">
        <ele>157.80000305176</ele>
        <time>2011-04-17T12:25:44.000Z</time>
      </trkpt>
      <trkpt lat="48.70787" lon="2.00217">
        <ele>156.39999389648</ele>
        <time>2011-04-17T12:25:45.000Z</time>
      </trkpt>
      <trkpt lat="48.70792" lon="2.00224">
        <ele>155</ele>
        <time>2011-04-17T12:25:51.000Z</time>
      </trkpt>
      <trkpt lat="48.70793" lon="2.00236">
        <ele>154</ele>
        <time>2011-04-17T12:25:57.000Z</time>
      </trkpt>
      <trkpt lat="48.70795" lon="2.00241">
        <ele>155.39999389648</ele>
        <time>2011-04-17T12:26:00.000Z</time>
      </trkpt>
      <trkpt lat="48.70797" lon="2.0025">
        <ele>154</ele>
        <time>2011-04-17T12:26:05.000Z</time>
      </trkpt>
      <trkpt lat="48.70798" lon="2.00264">
        <ele>155.39999389648</ele>
        <time>2011-04-17T12:26:13.000Z</time>
      </trkpt>
      <trkpt lat="48.70803" lon="2.00276">
        <ele>157.80000305176</ele>
        <time>2011-04-17T12:26:20.000Z</time>
      </trkpt>
      <trkpt lat="48.70804" lon="2.00279">
        <ele>159.80000305176</ele>
        <time>2011-04-17T12:26:22.000Z</time>
      </trkpt>
      <trkpt lat="48.70808" lon="2.0028">
        <ele>160.19999694824</ele>
        <time>2011-04-17T12:26:27.000Z</time>
      </trkpt>
      <trkpt lat="48.7081" lon="2.00277">
        <ele>158.19999694824</ele>
        <time>2011-04-17T12:26:33.000Z</time>
      </trkpt>
      <trkpt lat="48.7081" lon="2.00277">
        <ele>157.80000305176</ele>
        <time>2011-04-17T12:26:34.000Z</time>
      </trkpt>
      <trkpt lat="48.70807" lon="2.00274">
        <ele>160.19999694824</ele>
        <time>2011-04-17T12:26:44.000Z</time>
      </trkpt>
      <trkpt lat="48.70806" lon="2.00272">
        <ele>163</ele>
        <time>2011-04-17T12:26:45.000Z</time>
      </trkpt>
      <trkpt lat="48.70805" lon="2.00272">
        <ele>165</ele>
        <time>2011-04-17T12:26:51.000Z</time>
      </trkpt>
      <trkpt lat="48.70805" lon="2.00271">
        <ele>166</ele>
        <time>2011-04-17T12:26:53.000Z</time>
      </trkpt>
      <trkpt lat="48.70827" lon="2.00254">
        <ele>161.19999694824</ele>
        <time>2011-04-17T12:28:03.000Z</time>
      </trkpt>
      <trkpt lat="48.70831" lon="2.00257">
        <ele>161.19999694824</ele>
        <time>2011-04-17T12:28:07.000Z</time>
      </trkpt>
      <trkpt lat="48.70835" lon="2.00256">
        <ele>161.60000610352</ele>
        <time>2011-04-17T12:28:11.000Z</time>
      </trkpt>
      <trkpt lat="48.70845" lon="2.00252">
        <ele>159.80000305176</ele>
        <time>2011-04-17T12:28:19.000Z</time>
      </trkpt>
      <trkpt lat="48.70846" lon="2.00251">
        <ele>159.19999694824</ele>
        <time>2011-04-17T12:28:20.000Z</time>
      </trkpt>
      <trkpt lat="48.70851" lon="2.00249">
        <ele>158.19999694824</ele>
        <time>2011-04-17T12:28:25.000Z</time>
      </trkpt>
      <trkpt lat="48.70856" lon="2.00249">
        <ele>156.39999389648</ele>
        <time>2011-04-17T12:28:29.000Z</time>
      </trkpt>
      <trkpt lat="48.70863" lon="2.00247">
        <ele>156.39999389648</ele>
        <time>2011-04-17T12:28:34.000Z</time>
      </trkpt>
      <trkpt lat="48.70866" lon="2.00249">
        <ele>158.80000305176</ele>
        <time>2011-04-17T12:28:39.000Z</time>
      </trkpt>
      <trkpt lat="48.70871" lon="2.00252">
        <ele>160.19999694824</ele>
        <time>2011-04-17T12:28:44.000Z</time>
      </trkpt>
      <trkpt lat="48.70873" lon="2.00251">
        <ele>160.19999694824</ele>
        <time>2011-04-17T12:28:46.000Z</time>
      </trkpt>
      <trkpt lat="48.70876" lon="2.00253">
        <ele>160.19999694824</ele>
        <time>2011-04-17T12:28:48.000Z</time>
      </trkpt>
      <trkpt lat="48.70886" lon="2.0025">
        <ele>162.19999694824</ele>
        <time>2011-04-17T12:28:55.000Z</time>
      </trkpt>
      <trkpt lat="48.70887" lon="2.0025">
        <ele>163</ele>
        <time>2011-04-17T12:28:56.000Z</time>
      </trkpt>
      <trkpt lat="48.70891" lon="2.00251">
        <ele>164</ele>
        <time>2011-04-17T12:29:00.000Z</time>
      </trkpt>
      <trkpt lat="48.70896" lon="2.00248">
        <ele>163.60000610352</ele>
        <time>2011-04-17T12:29:04.000Z</time>
      </trkpt>
      <trkpt lat="48.70904" lon="2.00248">
        <ele>164.60000610352</ele>
        <time>2011-04-17T12:29:12.000Z</time>
      </trkpt>
      <trkpt lat="48.70906" lon="2.00248">
        <ele>165</ele>
        <time>2011-04-17T12:29:14.000Z</time>
      </trkpt>
      <trkpt lat="48.7091" lon="2.00246">
        <ele>167.39999389648</ele>
        <time>2011-04-17T12:29:18.000Z</time>
      </trkpt>
      <trkpt lat="48.70912" lon="2.00245">
        <ele>166</ele>
        <time>2011-04-17T12:29:20.000Z</time>
      </trkpt>
      <trkpt lat="48.70916" lon="2.00245">
        <ele>165</ele>
        <time>2011-04-17T12:29:23.000Z</time>
      </trkpt>
      <trkpt lat="48.70925" lon="2.00244">
        <ele>166.39999389648</ele>
        <time>2011-04-17T12:29:29.000Z</time>
      </trkpt>
      <trkpt lat="48.70927" lon="2.00244">
        <ele>166.39999389648</ele>
        <time>2011-04-17T12:29:31.000Z</time>
      </trkpt>
      <trkpt lat="48.70928" lon="2.00247">
        <ele>164.60000610352</ele>
        <time>2011-04-17T12:29:35.000Z</time>
      </trkpt>
      <trkpt lat="48.70927" lon="2.00261">
        <ele>166.39999389648</ele>
        <time>2011-04-17T12:30:10.000Z</time>
      </trkpt>
      <trkpt lat="48.70926" lon="2.00267">
        <ele>169.39999389648</ele>
        <time>2011-04-17T12:30:14.000Z</time>
      </trkpt>
      <trkpt lat="48.70925" lon="2.00276">
        <ele>174.19999694824</ele>
        <time>2011-04-17T12:30:20.000Z</time>
      </trkpt>
      <trkpt lat="48.70919" lon="2.00285">
        <ele>176.60000610352</ele>
        <time>2011-04-17T12:30:27.000Z</time>
      </trkpt>
      <trkpt lat="48.70916" lon="2.00299">
        <ele>176</ele>
        <time>2011-04-17T12:30:34.000Z</time>
      </trkpt>
      <trkpt lat="48.70915" lon="2.003">
        <ele>176</ele>
        <time>2011-04-17T12:30:35.000Z</time>
      </trkpt>
      <trkpt lat="48.70916" lon="2.00312">
        <ele>173.19999694824</ele>
        <time>2011-04-17T12:30:43.000Z</time>
      </trkpt>
      <trkpt lat="48.70916" lon="2.00313">
        <ele>173.19999694824</ele>
        <time>2011-04-17T12:30:44.000Z</time>
      </trkpt>
      <trkpt lat="48.70913" lon="2.00327">
        <ele>173.60000610352</ele>
        <time>2011-04-17T12:30:54.000Z</time>
      </trkpt>
      <trkpt lat="48.70911" lon="2.00331">
        <ele>174.19999694824</ele>
        <time>2011-04-17T12:30:57.000Z</time>
      </trkpt>
      <trkpt lat="48.70908" lon="2.00336">
        <ele>174.19999694824</ele>
        <time>2011-04-17T12:31:02.000Z</time>
      </trkpt>
      <trkpt lat="48.70903" lon="2.00343">
        <ele>172.60000610352</ele>
        <time>2011-04-17T12:31:07.000Z</time>
      </trkpt>
      <trkpt lat="48.70902" lon="2.0035">
        <ele>172.19999694824</ele>
        <time>2011-04-17T12:31:11.000Z</time>
      </trkpt>
      <trkpt lat="48.70898" lon="2.00357">
        <ele>170.19999694824</ele>
        <time>2011-04-17T12:31:16.000Z</time>
      </trkpt>
      <trkpt lat="48.70895" lon="2.00367">
        <ele>169.39999389648</ele>
        <time>2011-04-17T12:31:23.000Z</time>
      </trkpt>
      <trkpt lat="48.70894" lon="2.00372">
        <ele>170.80000305176</ele>
        <time>2011-04-17T12:31:26.000Z</time>
      </trkpt>
      <trkpt lat="48.70894" lon="2.00378">
        <ele>173.60000610352</ele>
        <time>2011-04-17T12:31:33.000Z</time>
      </trkpt>
      <trkpt lat="48.7089" lon="2.00452">
        <ele>173.19999694824</ele>
        <time>2011-04-17T12:33:40.000Z</time>
      </trkpt>
      <trkpt lat="48.70892" lon="2.0046">
        <ele>170.80000305176</ele>
        <time>2011-04-17T12:33:44.000Z</time>
      </trkpt>
      <trkpt lat="48.70893" lon="2.00463">
        <ele>169.39999389648</ele>
        <time>2011-04-17T12:33:46.000Z</time>
      </trkpt>
      <trkpt lat="48.70893" lon="2.00471">
        <ele>166.39999389648</ele>
        <time>2011-04-17T12:33:50.000Z</time>
      </trkpt>
      <trkpt lat="48.70895" lon="2.00481">
        <ele>162.60000610352</ele>
        <time>2011-04-17T12:33:56.000Z</time>
      </trkpt>
      <trkpt lat="48.70896" lon="2.00487">
        <ele>161.60000610352</ele>
        <time>2011-04-17T12:33:59.000Z</time>
      </trkpt>
      <trkpt lat="48.70899" lon="2.00494">
        <ele>162.19999694824</ele>
        <time>2011-04-17T12:34:04.000Z</time>
      </trkpt>
      <trkpt lat="48.70901" lon="2.00502">
        <ele>160.60000610352</ele>
        <time>2011-04-17T12:34:09.000Z</time>
      </trkpt>
      <trkpt lat="48.70905" lon="2.00516">
        <ele>162.19999694824</ele>
        <time>2011-04-17T12:34:16.000Z</time>
      </trkpt>
      <trkpt lat="48.7091" lon="2.00524">
        <ele>158.19999694824</ele>
        <time>2011-04-17T12:34:21.000Z</time>
      </trkpt>
      <trkpt lat="48.7091" lon="2.00537">
        <ele>158.19999694824</ele>
        <time>2011-04-17T12:34:27.000Z</time>
      </trkpt>
      <trkpt lat="48.70911" lon="2.00539">
        <ele>158.80000305176</ele>
        <time>2011-04-17T12:34:28.000Z</time>
      </trkpt>
      <trkpt lat="48.70915" lon="2.0055">
        <ele>157.39999389648</ele>
        <time>2011-04-17T12:34:35.000Z</time>
      </trkpt>
      <trkpt lat="48.70917" lon="2.00561">
        <ele>157.39999389648</ele>
        <time>2011-04-17T12:34:41.000Z</time>
      </trkpt>
      <trkpt lat="48.7092" lon="2.00567">
        <ele>155</ele>
        <time>2011-04-17T12:34:45.000Z</time>
      </trkpt>
      <trkpt lat="48.70921" lon="2.00575">
        <ele>156.80000305176</ele>
        <time>2011-04-17T12:34:50.000Z</time>
      </trkpt>
      <trkpt lat="48.70923" lon="2.00586">
        <ele>158.80000305176</ele>
        <time>2011-04-17T12:34:56.000Z</time>
      </trkpt>
      <trkpt lat="48.70927" lon="2.00595">
        <ele>155.80000305176</ele>
        <time>2011-04-17T12:35:02.000Z</time>
      </trkpt>
      <trkpt lat="48.70931" lon="2.00605">
        <ele>158.80000305176</ele>
        <time>2011-04-17T12:35:07.000Z</time>
      </trkpt>
      <trkpt lat="48.70932" lon="2.00608">
        <ele>160.60000610352</ele>
        <time>2011-04-17T12:35:09.000Z</time>
      </trkpt>
      <trkpt lat="48.70935" lon="2.00618">
        <ele>164</ele>
        <time>2011-04-17T12:35:15.000Z</time>
      </trkpt>
      <trkpt lat="48.70938" lon="2.00629">
        <ele>170.19999694824</ele>
        <time>2011-04-17T12:35:21.000Z</time>
      </trkpt>
      <trkpt lat="48.7094" lon="2.00635">
        <ele>173.60000610352</ele>
        <time>2011-04-17T12:35:24.000Z</time>
      </trkpt>
      <trkpt lat="48.70941" lon="2.00639">
        <ele>175</ele>
        <time>2011-04-17T12:35:27.000Z</time>
      </trkpt>
      <trkpt lat="48.70941" lon="2.00642">
        <ele>177</ele>
        <time>2011-04-17T12:35:29.000Z</time>
      </trkpt>
      <trkpt lat="48.70943" lon="2.00648">
        <ele>177.60000610352</ele>
        <time>2011-04-17T12:35:33.000Z</time>
      </trkpt>
      <trkpt lat="48.70947" lon="2.00657">
        <ele>178.39999389648</ele>
        <time>2011-04-17T12:35:38.000Z</time>
      </trkpt>
      <trkpt lat="48.70949" lon="2.00666">
        <ele>176</ele>
        <time>2011-04-17T12:35:46.000Z</time>
      </trkpt>
      <trkpt lat="48.70953" lon="2.00671">
        <ele>176.60000610352</ele>
        <time>2011-04-17T12:35:51.000Z</time>
      </trkpt>
      <trkpt lat="48.70958" lon="2.00678">
        <ele>177.60000610352</ele>
        <time>2011-04-17T12:35:56.000Z</time>
      </trkpt>
      <trkpt lat="48.70962" lon="2.00685">
        <ele>178.39999389648</ele>
        <time>2011-04-17T12:36:01.000Z</time>
      </trkpt>
      <trkpt lat="48.70963" lon="2.00686">
        <ele>177.60000610352</ele>
        <time>2011-04-17T12:36:02.000Z</time>
      </trkpt>
      <trkpt lat="48.70967" lon="2.00688">
        <ele>177</ele>
        <time>2011-04-17T12:36:05.000Z</time>
      </trkpt>
      <trkpt lat="48.70971" lon="2.00693">
        <ele>174.19999694824</ele>
        <time>2011-04-17T12:36:10.000Z</time>
      </trkpt>
      <trkpt lat="48.7098" lon="2.00702">
        <ele>169.39999389648</ele>
        <time>2011-04-17T12:36:16.000Z</time>
      </trkpt>
      <trkpt lat="48.70989" lon="2.00713">
        <ele>165.39999389648</ele>
        <time>2011-04-17T12:36:24.000Z</time>
      </trkpt>
      <trkpt lat="48.70996" lon="2.00722">
        <ele>164.60000610352</ele>
        <time>2011-04-17T12:36:30.000Z</time>
      </trkpt>
      <trkpt lat="48.71001" lon="2.00728">
        <ele>164</ele>
        <time>2011-04-17T12:36:34.000Z</time>
      </trkpt>
      <trkpt lat="48.71002" lon="2.00733">
        <ele>164</ele>
        <time>2011-04-17T12:36:39.000Z</time>
      </trkpt>
      <trkpt lat="48.71002" lon="2.00733">
        <ele>164</ele>
        <time>2011-04-17T12:36:41.000Z</time>
      </trkpt>
      <trkpt lat="48.71012" lon="2.00727">
        <ele>166</ele>
        <time>2011-04-17T12:38:02.000Z</time>
      </trkpt>
      <trkpt lat="48.71012" lon="2.00727">
        <ele>165.39999389648</ele>
        <time>2011-04-17T12:38:04.000Z</time>
      </trkpt>
      <trkpt lat="48.70998" lon="2.00751">
        <ele>170.80000305176</ele>
        <time>2011-04-17T12:39:57.000Z</time>
      </trkpt>
      <trkpt lat="48.70994" lon="2.0076">
        <ele>172.60000610352</ele>
        <time>2011-04-17T12:40:02.000Z</time>
      </trkpt>
      <trkpt lat="48.7099" lon="2.00774">
        <ele>177</ele>
        <time>2011-04-17T12:40:10.000Z</time>
      </trkpt>
      <trkpt lat="48.70987" lon="2.0078">
        <ele>178.39999389648</ele>
        <time>2011-04-17T12:40:15.000Z</time>
      </trkpt>
      <trkpt lat="48.70981" lon="2.00797">
        <ele>181.80000305176</ele>
        <time>2011-04-17T12:40:24.000Z</time>
      </trkpt>
      <trkpt lat="48.70979" lon="2.00802">
        <ele>182.39999389648</ele>
        <time>2011-04-17T12:40:28.000Z</time>
      </trkpt>
      <trkpt lat="48.70975" lon="2.0081">
        <ele>181.80000305176</ele>
        <time>2011-04-17T12:40:35.000Z</time>
      </trkpt>
      <trkpt lat="48.70975" lon="2.00823">
        <ele>183.19999694824</ele>
        <time>2011-04-17T12:40:42.000Z</time>
      </trkpt>
      <trkpt lat="48.70974" lon="2.00838">
        <ele>184.19999694824</ele>
        <time>2011-04-17T12:40:50.000Z</time>
      </trkpt>
      <trkpt lat="48.70972" lon="2.00847">
        <ele>182.80000305176</ele>
        <time>2011-04-17T12:40:56.000Z</time>
      </trkpt>
      <trkpt lat="48.70967" lon="2.00851">
        <ele>180.80000305176</ele>
        <time>2011-04-17T12:41:00.000Z</time>
      </trkpt>
      <trkpt lat="48.70963" lon="2.00862">
        <ele>182.39999389648</ele>
        <time>2011-04-17T12:41:06.000Z</time>
      </trkpt>
      <trkpt lat="48.70962" lon="2.00863">
        <ele>182.39999389648</ele>
        <time>2011-04-17T12:41:07.000Z</time>
      </trkpt>
      <trkpt lat="48.70959" lon="2.00872">
        <ele>186.60000610352</ele>
        <time>2011-04-17T12:41:13.000Z</time>
      </trkpt>
      <trkpt lat="48.70957" lon="2.00882">
        <ele>180.80000305176</ele>
        <time>2011-04-17T12:41:18.000Z</time>
      </trkpt>
      <trkpt lat="48.70956" lon="2.00885">
        <ele>180</ele>
        <time>2011-04-17T12:41:20.000Z</time>
      </trkpt>
      <trkpt lat="48.70955" lon="2.00899">
        <ele>178</ele>
        <time>2011-04-17T12:41:27.000Z</time>
      </trkpt>
      <trkpt lat="48.70949" lon="2.00914">
        <ele>175.60000610352</ele>
        <time>2011-04-17T12:41:35.000Z</time>
      </trkpt>
      <trkpt lat="48.70947" lon="2.00928">
        <ele>170.19999694824</ele>
        <time>2011-04-17T12:41:43.000Z</time>
      </trkpt>
      <trkpt lat="48.70941" lon="2.00946">
        <ele>170.80000305176</ele>
        <time>2011-04-17T12:41:52.000Z</time>
      </trkpt>
      <trkpt lat="48.7094" lon="2.00957">
        <ele>175.60000610352</ele>
        <time>2011-04-17T12:41:58.000Z</time>
      </trkpt>
      <trkpt lat="48.70939" lon="2.00964">
        <ele>180</ele>
        <time>2011-04-17T12:42:02.000Z</time>
      </trkpt>
      <trkpt lat="48.70936" lon="2.00973">
        <ele>181.80000305176</ele>
        <time>2011-04-17T12:42:06.000Z</time>
      </trkpt>
      <trkpt lat="48.70933" lon="2.00989">
        <ele>184.19999694824</ele>
        <time>2011-04-17T12:42:14.000Z</time>
      </trkpt>
      <trkpt lat="48.70927" lon="2.01004">
        <ele>185.60000610352</ele>
        <time>2011-04-17T12:42:22.000Z</time>
      </trkpt>
      <trkpt lat="48.70924" lon="2.01015">
        <ele>188</ele>
        <time>2011-04-17T12:42:28.000Z</time>
      </trkpt>
      <trkpt lat="48.70921" lon="2.01025">
        <ele>184.19999694824</ele>
        <time>2011-04-17T12:42:32.000Z</time>
      </trkpt>
      <trkpt lat="48.70922" lon="2.01026">
        <ele>184.19999694824</ele>
        <time>2011-04-17T12:42:33.000Z</time>
      </trkpt>
      <trkpt lat="48.70921" lon="2.01036">
        <ele>178.39999389648</ele>
        <time>2011-04-17T12:42:39.000Z</time>
      </trkpt>
      <trkpt lat="48.70915" lon="2.01049">
        <ele>177.60000610352</ele>
        <time>2011-04-17T12:42:47.000Z</time>
      </trkpt>
      <trkpt lat="48.70914" lon="2.01051">
        <ele>178</ele>
        <time>2011-04-17T12:42:48.000Z</time>
      </trkpt>
      <trkpt lat="48.70911" lon="2.0106">
        <ele>180</ele>
        <time>2011-04-17T12:42:53.000Z</time>
      </trkpt>
      <trkpt lat="48.70909" lon="2.01064">
        <ele>180.39999389648</ele>
        <time>2011-04-17T12:42:55.000Z</time>
      </trkpt>
      <trkpt lat="48.70908" lon="2.0107">
        <ele>181.39999389648</ele>
        <time>2011-04-17T12:42:59.000Z</time>
      </trkpt>
      <trkpt lat="48.70904" lon="2.01082">
        <ele>186.60000610352</ele>
        <time>2011-04-17T12:43:06.000Z</time>
      </trkpt>
      <trkpt lat="48.70902" lon="2.01092">
        <ele>188.60000610352</ele>
        <time>2011-04-17T12:43:11.000Z</time>
      </trkpt>
      <trkpt lat="48.70899" lon="2.01104">
        <ele>188</ele>
        <time>2011-04-17T12:43:17.000Z</time>
      </trkpt>
      <trkpt lat="48.70898" lon="2.01108">
        <ele>188.60000610352</ele>
        <time>2011-04-17T12:43:18.000Z</time>
      </trkpt>
      <trkpt lat="48.70893" lon="2.0112">
        <ele>187.19999694824</ele>
        <time>2011-04-17T12:43:24.000Z</time>
      </trkpt>
      <trkpt lat="48.70893" lon="2.01122">
        <ele>187.19999694824</ele>
        <time>2011-04-17T12:43:25.000Z</time>
      </trkpt>
      <trkpt lat="48.70891" lon="2.01134">
        <ele>182.80000305176</ele>
        <time>2011-04-17T12:43:32.000Z</time>
      </trkpt>
      <trkpt lat="48.7089" lon="2.01138">
        <ele>181.39999389648</ele>
        <time>2011-04-17T12:43:35.000Z</time>
      </trkpt>
      <trkpt lat="48.70887" lon="2.0115">
        <ele>179.39999389648</ele>
        <time>2011-04-17T12:43:41.000Z</time>
      </trkpt>
      <trkpt lat="48.70886" lon="2.01155">
        <ele>177</ele>
        <time>2011-04-17T12:43:44.000Z</time>
      </trkpt>
      <trkpt lat="48.70882" lon="2.01168">
        <ele>177</ele>
        <time>2011-04-17T12:43:51.000Z</time>
      </trkpt>
      <trkpt lat="48.70882" lon="2.01172">
        <ele>176.60000610352</ele>
        <time>2011-04-17T12:43:53.000Z</time>
      </trkpt>
      <trkpt lat="48.70878" lon="2.01181">
        <ele>174.60000610352</ele>
        <time>2011-04-17T12:43:59.000Z</time>
      </trkpt>
      <trkpt lat="48.70878" lon="2.01185">
        <ele>173.60000610352</ele>
        <time>2011-04-17T12:44:02.000Z</time>
      </trkpt>
      <trkpt lat="48.7088" lon="2.01192">
        <ele>171.80000305176</ele>
        <time>2011-04-17T12:44:06.000Z</time>
      </trkpt>
      <trkpt lat="48.70873" lon="2.01214">
        <ele>170.80000305176</ele>
        <time>2011-04-17T12:44:17.000Z</time>
      </trkpt>
      <trkpt lat="48.70869" lon="2.01229">
        <ele>171.80000305176</ele>
        <time>2011-04-17T12:44:25.000Z</time>
      </trkpt>
      <trkpt lat="48.70865" lon="2.01237">
        <ele>173.60000610352</ele>
        <time>2011-04-17T12:44:29.000Z</time>
      </trkpt>
      <trkpt lat="48.70863" lon="2.01246">
        <ele>174.60000610352</ele>
        <time>2011-04-17T12:44:34.000Z</time>
      </trkpt>
      <trkpt lat="48.70861" lon="2.0126">
        <ele>173.60000610352</ele>
        <time>2011-04-17T12:44:42.000Z</time>
      </trkpt>
      <trkpt lat="48.70857" lon="2.01272">
        <ele>172.60000610352</ele>
        <time>2011-04-17T12:44:49.000Z</time>
      </trkpt>
      <trkpt lat="48.70856" lon="2.01279">
        <ele>171.80000305176</ele>
        <time>2011-04-17T12:44:53.000Z</time>
      </trkpt>
      <trkpt lat="48.7085" lon="2.01291">
        <ele>170.19999694824</ele>
        <time>2011-04-17T12:45:00.000Z</time>
      </trkpt>
      <trkpt lat="48.70848" lon="2.01303">
        <ele>168.80000305176</ele>
        <time>2011-04-17T12:45:07.000Z</time>
      </trkpt>
      <trkpt lat="48.70846" lon="2.01308">
        <ele>167.39999389648</ele>
        <time>2011-04-17T12:45:11.000Z</time>
      </trkpt>
      <trkpt lat="48.70843" lon="2.01312">
        <ele>166.39999389648</ele>
        <time>2011-04-17T12:45:15.000Z</time>
      </trkpt>
      <trkpt lat="48.70841" lon="2.01317">
        <ele>165</ele>
        <time>2011-04-17T12:45:19.000Z</time>
      </trkpt>
      <trkpt lat="48.70839" lon="2.01326">
        <ele>161.60000610352</ele>
        <time>2011-04-17T12:45:25.000Z</time>
      </trkpt>
      <trkpt lat="48.70836" lon="2.01332">
        <ele>160.60000610352</ele>
        <time>2011-04-17T12:45:28.000Z</time>
      </trkpt>
      <trkpt lat="48.70833" lon="2.01338">
        <ele>160.60000610352</ele>
        <time>2011-04-17T12:45:32.000Z</time>
      </trkpt>
      <trkpt lat="48.70829" lon="2.01352">
        <ele>160.60000610352</ele>
        <time>2011-04-17T12:45:39.000Z</time>
      </trkpt>
      <trkpt lat="48.70828" lon="2.01354">
        <ele>160.60000610352</ele>
        <time>2011-04-17T12:45:40.000Z</time>
      </trkpt>
      <trkpt lat="48.70828" lon="2.01358">
        <ele>159.80000305176</ele>
        <time>2011-04-17T12:45:42.000Z</time>
      </trkpt>
      <trkpt lat="48.70824" lon="2.01372">
        <ele>162.60000610352</ele>
        <time>2011-04-17T12:45:49.000Z</time>
      </trkpt>
      <trkpt lat="48.70823" lon="2.01383">
        <ele>167</ele>
        <time>2011-04-17T12:45:55.000Z</time>
      </trkpt>
      <trkpt lat="48.70824" lon="2.01386">
        <ele>167.80000305176</ele>
        <time>2011-04-17T12:45:57.000Z</time>
      </trkpt>
      <trkpt lat="48.70822" lon="2.01398">
        <ele>167.39999389648</ele>
        <time>2011-04-17T12:46:03.000Z</time>
      </trkpt>
      <trkpt lat="48.70819" lon="2.01411">
        <ele>166</ele>
        <time>2011-04-17T12:46:10.000Z</time>
      </trkpt>
      <trkpt lat="48.70815" lon="2.01428">
        <ele>163.60000610352</ele>
        <time>2011-04-17T12:46:19.000Z</time>
      </trkpt>
      <trkpt lat="48.70813" lon="2.01438">
        <ele>162.60000610352</ele>
        <time>2011-04-17T12:46:25.000Z</time>
      </trkpt>
      <trkpt lat="48.70813" lon="2.0144">
        <ele>162.60000610352</ele>
        <time>2011-04-17T12:46:26.000Z</time>
      </trkpt>
      <trkpt lat="48.70811" lon="2.01455">
        <ele>165</ele>
        <time>2011-04-17T12:46:32.000Z</time>
      </trkpt>
      <trkpt lat="48.70808" lon="2.01464">
        <ele>170.19999694824</ele>
        <time>2011-04-17T12:46:39.000Z</time>
      </trkpt>
      <trkpt lat="48.70804" lon="2.01473">
        <ele>173.60000610352</ele>
        <time>2011-04-17T12:46:45.000Z</time>
      </trkpt>
      <trkpt lat="48.70803" lon="2.01479">
        <ele>173.19999694824</ele>
        <time>2011-04-17T12:46:49.000Z</time>
      </trkpt>
      <trkpt lat="48.70802" lon="2.01482">
        <ele>173.60000610352</ele>
        <time>2011-04-17T12:46:51.000Z</time>
      </trkpt>
      <trkpt lat="48.708" lon="2.01494">
        <ele>173.60000610352</ele>
        <time>2011-04-17T12:46:58.000Z</time>
      </trkpt>
      <trkpt lat="48.70796" lon="2.0151">
        <ele>176</ele>
        <time>2011-04-17T12:47:05.000Z</time>
      </trkpt>
      <trkpt lat="48.70794" lon="2.01522">
        <ele>173.60000610352</ele>
        <time>2011-04-17T12:47:11.000Z</time>
      </trkpt>
      <trkpt lat="48.70791" lon="2.01533">
        <ele>174.60000610352</ele>
        <time>2011-04-17T12:47:16.000Z</time>
      </trkpt>
      <trkpt lat="48.70791" lon="2.01533">
        <ele>174.19999694824</ele>
        <time>2011-04-17T12:47:17.000Z</time>
      </trkpt>
      <trkpt lat="48.70791" lon="2.01546">
        <ele>176.60000610352</ele>
        <time>2011-04-17T12:47:23.000Z</time>
      </trkpt>
      <trkpt lat="48.70787" lon="2.01562">
        <ele>174.19999694824</ele>
        <time>2011-04-17T12:47:33.000Z</time>
      </trkpt>
      <trkpt lat="48.70786" lon="2.01566">
        <ele>173.60000610352</ele>
        <time>2011-04-17T12:47:35.000Z</time>
      </trkpt>
      <trkpt lat="48.7078" lon="2.01579">
        <ele>176</ele>
        <time>2011-04-17T12:47:44.000Z</time>
      </trkpt>
      <trkpt lat="48.70779" lon="2.01583">
        <ele>175.60000610352</ele>
        <time>2011-04-17T12:47:49.000Z</time>
      </trkpt>
      <trkpt lat="48.70778" lon="2.01603">
        <ele>168.39999389648</ele>
        <time>2011-04-17T12:48:13.000Z</time>
      </trkpt>
      <trkpt lat="48.70774" lon="2.01614">
        <ele>166.39999389648</ele>
        <time>2011-04-17T12:48:19.000Z</time>
      </trkpt>
      <trkpt lat="48.70773" lon="2.01623">
        <ele>164</ele>
        <time>2011-04-17T12:48:24.000Z</time>
      </trkpt>
      <trkpt lat="48.7077" lon="2.01626">
        <ele>166</ele>
        <time>2011-04-17T12:48:26.000Z</time>
      </trkpt>
      <trkpt lat="48.70766" lon="2.0164">
        <ele>167.80000305176</ele>
        <time>2011-04-17T12:48:34.000Z</time>
      </trkpt>
      <trkpt lat="48.7076" lon="2.01653">
        <ele>167.80000305176</ele>
        <time>2011-04-17T12:48:41.000Z</time>
      </trkpt>
      <trkpt lat="48.70757" lon="2.0166">
        <ele>166</ele>
        <time>2011-04-17T12:48:46.000Z</time>
      </trkpt>
      <trkpt lat="48.70754" lon="2.01675">
        <ele>162.60000610352</ele>
        <time>2011-04-17T12:48:55.000Z</time>
      </trkpt>
      <trkpt lat="48.70751" lon="2.01687">
        <ele>160.60000610352</ele>
        <time>2011-04-17T12:49:02.000Z</time>
      </trkpt>
      <trkpt lat="48.7075" lon="2.01698">
        <ele>161.19999694824</ele>
        <time>2011-04-17T12:49:09.000Z</time>
      </trkpt>
      <trkpt lat="48.7075" lon="2.01699">
        <ele>160.60000610352</ele>
        <time>2011-04-17T12:49:10.000Z</time>
      </trkpt>
      <trkpt lat="48.70748" lon="2.01713">
        <ele>163</ele>
        <time>2011-04-17T12:49:17.000Z</time>
      </trkpt>
      <trkpt lat="48.70746" lon="2.01723">
        <ele>163.60000610352</ele>
        <time>2011-04-17T12:49:22.000Z</time>
      </trkpt>
      <trkpt lat="48.70746" lon="2.01728">
        <ele>163.60000610352</ele>
        <time>2011-04-17T12:49:25.000Z</time>
      </trkpt>
      <trkpt lat="48.70741" lon="2.01742">
        <ele>163.60000610352</ele>
        <time>2011-04-17T12:49:33.000Z</time>
      </trkpt>
      <trkpt lat="48.70741" lon="2.01752">
        <ele>162.60000610352</ele>
        <time>2011-04-17T12:49:38.000Z</time>
      </trkpt>
      <trkpt lat="48.70741" lon="2.0177">
        <ele>163.60000610352</ele>
        <time>2011-04-17T12:49:46.000Z</time>
      </trkpt>
      <trkpt lat="48.7074" lon="2.01773">
        <ele>165</ele>
        <time>2011-04-17T12:49:48.000Z</time>
      </trkpt>
      <trkpt lat="48.70735" lon="2.01788">
        <ele>165.39999389648</ele>
        <time>2011-04-17T12:49:57.000Z</time>
      </trkpt>
      <trkpt lat="48.70732" lon="2.018">
        <ele>161.19999694824</ele>
        <time>2011-04-17T12:50:04.000Z</time>
      </trkpt>
      <trkpt lat="48.70729" lon="2.0181">
        <ele>161.60000610352</ele>
        <time>2011-04-17T12:50:10.000Z</time>
      </trkpt>
      <trkpt lat="48.70725" lon="2.0182">
        <ele>160.19999694824</ele>
        <time>2011-04-17T12:50:16.000Z</time>
      </trkpt>
      <trkpt lat="48.70723" lon="2.01829">
        <ele>160.19999694824</ele>
        <time>2011-04-17T12:50:22.000Z</time>
      </trkpt>
      <trkpt lat="48.70722" lon="2.01833">
        <ele>159.80000305176</ele>
        <time>2011-04-17T12:50:25.000Z</time>
      </trkpt>
      <trkpt lat="48.70723" lon="2.01837">
        <ele>158.80000305176</ele>
        <time>2011-04-17T12:50:28.000Z</time>
      </trkpt>
      <trkpt lat="48.70722" lon="2.01846">
        <ele>162.19999694824</ele>
        <time>2011-04-17T12:50:32.000Z</time>
      </trkpt>
      <trkpt lat="48.70718" lon="2.01861">
        <ele>157.80000305176</ele>
        <time>2011-04-17T12:50:41.000Z</time>
      </trkpt>
      <trkpt lat="48.70714" lon="2.01878">
        <ele>158.19999694824</ele>
        <time>2011-04-17T12:50:50.000Z</time>
      </trkpt>
      <trkpt lat="48.70714" lon="2.0188">
        <ele>158.80000305176</ele>
        <time>2011-04-17T12:50:53.000Z</time>
      </trkpt>
      <trkpt lat="48.70708" lon="2.01892">
        <ele>164.60000610352</ele>
        <time>2011-04-17T12:52:15.000Z</time>
      </trkpt>
      <trkpt lat="48.70708" lon="2.01898">
        <ele>163.60000610352</ele>
        <time>2011-04-17T12:52:18.000Z</time>
      </trkpt>
      <trkpt lat="48.70709" lon="2.01908">
        <ele>163</ele>
        <time>2011-04-17T12:52:24.000Z</time>
      </trkpt>
      <trkpt lat="48.70708" lon="2.01911">
        <ele>162.60000610352</ele>
        <time>2011-04-17T12:52:27.000Z</time>
      </trkpt>
      <trkpt lat="48.70707" lon="2.01917">
        <ele>163</ele>
        <time>2011-04-17T12:52:31.000Z</time>
      </trkpt>
      <trkpt lat="48.70703" lon="2.0193">
        <ele>162.19999694824</ele>
        <time>2011-04-17T12:52:40.000Z</time>
      </trkpt>
      <trkpt lat="48.70703" lon="2.01941">
        <ele>160.19999694824</ele>
        <time>2011-04-17T12:52:47.000Z</time>
      </trkpt>
      <trkpt lat="48.70701" lon="2.01944">
        <ele>160.60000610352</ele>
        <time>2011-04-17T12:52:49.000Z</time>
      </trkpt>
      <trkpt lat="48.707" lon="2.01957">
        <ele>160.19999694824</ele>
        <time>2011-04-17T12:52:57.000Z</time>
      </trkpt>
      <trkpt lat="48.70703" lon="2.01971">
        <ele>160.60000610352</ele>
        <time>2011-04-17T12:53:05.000Z</time>
      </trkpt>
      <trkpt lat="48.70704" lon="2.01978">
        <ele>160.60000610352</ele>
        <time>2011-04-17T12:53:10.000Z</time>
      </trkpt>
      <trkpt lat="48.70703" lon="2.01992">
        <ele>160.19999694824</ele>
        <time>2011-04-17T12:53:18.000Z</time>
      </trkpt>
      <trkpt lat="48.70703" lon="2.02009">
        <ele>160.60000610352</ele>
        <time>2011-04-17T12:53:27.000Z</time>
      </trkpt>
      <trkpt lat="48.70704" lon="2.02019">
        <ele>158.19999694824</ele>
        <time>2011-04-17T12:53:33.000Z</time>
      </trkpt>
      <trkpt lat="48.70706" lon="2.02034">
        <ele>157.39999389648</ele>
        <time>2011-04-17T12:53:41.000Z</time>
      </trkpt>
      <trkpt lat="48.70706" lon="2.02044">
        <ele>158.80000305176</ele>
        <time>2011-04-17T12:53:47.000Z</time>
      </trkpt>
      <trkpt lat="48.70705" lon="2.02054">
        <ele>157.39999389648</ele>
        <time>2011-04-17T12:53:54.000Z</time>
      </trkpt>
      <trkpt lat="48.70705" lon="2.0206">
        <ele>156.39999389648</ele>
        <time>2011-04-17T12:53:57.000Z</time>
      </trkpt>
      <trkpt lat="48.70705" lon="2.02074">
        <ele>155</ele>
        <time>2011-04-17T12:54:05.000Z</time>
      </trkpt>
      <trkpt lat="48.70705" lon="2.02088">
        <ele>155</ele>
        <time>2011-04-17T12:54:13.000Z</time>
      </trkpt>
      <trkpt lat="48.70705" lon="2.02098">
        <ele>155.80000305176</ele>
        <time>2011-04-17T12:54:19.000Z</time>
      </trkpt>
      <trkpt lat="48.70706" lon="2.02112">
        <ele>154</ele>
        <time>2011-04-17T12:54:26.000Z</time>
      </trkpt>
      <trkpt lat="48.70707" lon="2.02117">
        <ele>153</ele>
        <time>2011-04-17T12:54:30.000Z</time>
      </trkpt>
      <trkpt lat="48.70708" lon="2.02133">
        <ele>155.39999389648</ele>
        <time>2011-04-17T12:54:39.000Z</time>
      </trkpt>
      <trkpt lat="48.7071" lon="2.0215">
        <ele>161.60000610352</ele>
        <time>2011-04-17T12:54:47.000Z</time>
      </trkpt>
      <trkpt lat="48.70712" lon="2.02153">
        <ele>160.19999694824</ele>
        <time>2011-04-17T12:54:50.000Z</time>
      </trkpt>
      <trkpt lat="48.70712" lon="2.02167">
        <ele>160.19999694824</ele>
        <time>2011-04-17T12:54:57.000Z</time>
      </trkpt>
      <trkpt lat="48.70711" lon="2.02176">
        <ele>160.60000610352</ele>
        <time>2011-04-17T12:55:02.000Z</time>
      </trkpt>
      <trkpt lat="48.70711" lon="2.02186">
        <ele>160.19999694824</ele>
        <time>2011-04-17T12:55:08.000Z</time>
      </trkpt>
      <trkpt lat="48.70711" lon="2.02201">
        <ele>163.60000610352</ele>
        <time>2011-04-17T12:55:16.000Z</time>
      </trkpt>
      <trkpt lat="48.70709" lon="2.02219">
        <ele>162.60000610352</ele>
        <time>2011-04-17T12:55:25.000Z</time>
      </trkpt>
      <trkpt lat="48.70707" lon="2.0223">
        <ele>164</ele>
        <time>2011-04-17T12:55:30.000Z</time>
      </trkpt>
      <trkpt lat="48.70703" lon="2.02246">
        <ele>162.60000610352</ele>
        <time>2011-04-17T12:55:36.000Z</time>
      </trkpt>
      <trkpt lat="48.70702" lon="2.02251">
        <ele>160.19999694824</ele>
        <time>2011-04-17T12:55:40.000Z</time>
      </trkpt>
      <trkpt lat="48.70703" lon="2.02253">
        <ele>159.19999694824</ele>
        <time>2011-04-17T12:55:41.000Z</time>
      </trkpt>
      <trkpt lat="48.70702" lon="2.02258">
        <ele>157.80000305176</ele>
        <time>2011-04-17T12:55:44.000Z</time>
      </trkpt>
      <trkpt lat="48.707" lon="2.02266">
        <ele>156.39999389648</ele>
        <time>2011-04-17T12:55:48.000Z</time>
      </trkpt>
      <trkpt lat="48.70697" lon="2.02279">
        <ele>155.80000305176</ele>
        <time>2011-04-17T12:55:55.000Z</time>
      </trkpt>
      <trkpt lat="48.70696" lon="2.02295">
        <ele>155.80000305176</ele>
        <time>2011-04-17T12:56:03.000Z</time>
      </trkpt>
      <trkpt lat="48.70693" lon="2.02318">
        <ele>157.80000305176</ele>
        <time>2011-04-17T12:56:14.000Z</time>
      </trkpt>
      <trkpt lat="48.70692" lon="2.02336">
        <ele>160.19999694824</ele>
        <time>2011-04-17T12:56:23.000Z</time>
      </trkpt>
      <trkpt lat="48.70692" lon="2.02354">
        <ele>160.19999694824</ele>
        <time>2011-04-17T12:56:32.000Z</time>
      </trkpt>
      <trkpt lat="48.7069" lon="2.02364">
        <ele>161.19999694824</ele>
        <time>2011-04-17T12:56:38.000Z</time>
      </trkpt>
      <trkpt lat="48.7069" lon="2.0238">
        <ele>162.60000610352</ele>
        <time>2011-04-17T12:56:46.000Z</time>
      </trkpt>
      <trkpt lat="48.70691" lon="2.02394">
        <ele>165.39999389648</ele>
        <time>2011-04-17T12:56:54.000Z</time>
      </trkpt>
      <trkpt lat="48.7069" lon="2.02411">
        <ele>169.39999389648</ele>
        <time>2011-04-17T12:57:02.000Z</time>
      </trkpt>
      <trkpt lat="48.70689" lon="2.02431">
        <ele>171.19999694824</ele>
        <time>2011-04-17T12:57:11.000Z</time>
      </trkpt>
      <trkpt lat="48.70689" lon="2.02448">
        <ele>167.39999389648</ele>
        <time>2011-04-17T12:57:20.000Z</time>
      </trkpt>
      <trkpt lat="48.7069" lon="2.02462">
        <ele>165.39999389648</ele>
        <time>2011-04-17T12:57:27.000Z</time>
      </trkpt>
      <trkpt lat="48.70694" lon="2.02479">
        <ele>167</ele>
        <time>2011-04-17T12:57:37.000Z</time>
      </trkpt>
      <trkpt lat="48.70694" lon="2.02483">
        <ele>169.39999389648</ele>
        <time>2011-04-17T12:57:39.000Z</time>
      </trkpt>
      <trkpt lat="48.70697" lon="2.02492">
        <ele>171.19999694824</ele>
        <time>2011-04-17T12:57:45.000Z</time>
      </trkpt>
      <trkpt lat="48.70701" lon="2.02507">
        <ele>172.19999694824</ele>
        <time>2011-04-17T12:57:54.000Z</time>
      </trkpt>
      <trkpt lat="48.70706" lon="2.02519">
        <ele>170.19999694824</ele>
        <time>2011-04-17T12:58:02.000Z</time>
      </trkpt>
      <trkpt lat="48.7071" lon="2.02531">
        <ele>167.80000305176</ele>
        <time>2011-04-17T12:58:09.000Z</time>
      </trkpt>
      <trkpt lat="48.7071" lon="2.02533">
        <ele>168.39999389648</ele>
        <time>2011-04-17T12:58:10.000Z</time>
      </trkpt>
      <trkpt lat="48.70713" lon="2.02546">
        <ele>169.80000305176</ele>
        <time>2011-04-17T12:58:17.000Z</time>
      </trkpt>
      <trkpt lat="48.70714" lon="2.02553">
        <ele>168.39999389648</ele>
        <time>2011-04-17T12:58:21.000Z</time>
      </trkpt>
      <trkpt lat="48.70716" lon="2.02557">
        <ele>167.39999389648</ele>
        <time>2011-04-17T12:58:25.000Z</time>
      </trkpt>
      <trkpt lat="48.70719" lon="2.02568">
        <ele>167.80000305176</ele>
        <time>2011-04-17T12:58:31.000Z</time>
      </trkpt>
      <trkpt lat="48.70719" lon="2.02576">
        <ele>165</ele>
        <time>2011-04-17T12:58:35.000Z</time>
      </trkpt>
      <trkpt lat="48.70722" lon="2.02586">
        <ele>155.80000305176</ele>
        <time>2011-04-17T12:58:42.000Z</time>
      </trkpt>
      <trkpt lat="48.70723" lon="2.02588">
        <ele>155</ele>
        <time>2011-04-17T12:58:43.000Z</time>
      </trkpt>
      <trkpt lat="48.70725" lon="2.02595">
        <ele>151.60000610352</ele>
        <time>2011-04-17T12:58:47.000Z</time>
      </trkpt>
      <trkpt lat="48.70724" lon="2.02607">
        <ele>152.60000610352</ele>
        <time>2011-04-17T12:58:52.000Z</time>
      </trkpt>
      <trkpt lat="48.70725" lon="2.02613">
        <ele>151.60000610352</ele>
        <time>2011-04-17T12:58:55.000Z</time>
      </trkpt>
      <trkpt lat="48.70727" lon="2.02627">
        <ele>153.39999389648</ele>
        <time>2011-04-17T12:59:03.000Z</time>
      </trkpt>
      <trkpt lat="48.70729" lon="2.02637">
        <ele>155.80000305176</ele>
        <time>2011-04-17T12:59:09.000Z</time>
      </trkpt>
      <trkpt lat="48.70733" lon="2.0264">
        <ele>156.80000305176</ele>
        <time>2011-04-17T12:59:12.000Z</time>
      </trkpt>
      <trkpt lat="48.70731" lon="2.02649">
        <ele>155.80000305176</ele>
        <time>2011-04-17T12:59:17.000Z</time>
      </trkpt>
      <trkpt lat="48.70731" lon="2.0265">
        <ele>154</ele>
        <time>2011-04-17T12:59:20.000Z</time>
      </trkpt>
      <trkpt lat="48.70729" lon="2.02687">
        <ele>141.39999389648</ele>
        <time>2011-04-17T12:59:53.000Z</time>
      </trkpt>
      <trkpt lat="48.70733" lon="2.02697">
        <ele>139</ele>
        <time>2011-04-17T13:00:01.000Z</time>
      </trkpt>
      <trkpt lat="48.70732" lon="2.02713">
        <ele>141.39999389648</ele>
        <time>2011-04-17T13:00:10.000Z</time>
      </trkpt>
      <trkpt lat="48.70732" lon="2.02715">
        <ele>143.80000305176</ele>
        <time>2011-04-17T13:00:14.000Z</time>
      </trkpt>
      <trkpt lat="48.70736" lon="2.02726">
        <ele>147.19999694824</ele>
        <time>2011-04-17T13:00:26.000Z</time>
      </trkpt>
      <trkpt lat="48.70738" lon="2.02735">
        <ele>145.80000305176</ele>
        <time>2011-04-17T13:00:31.000Z</time>
      </trkpt>
      <trkpt lat="48.70738" lon="2.02743">
        <ele>148.60000610352</ele>
        <time>2011-04-17T13:00:35.000Z</time>
      </trkpt>
      <trkpt lat="48.70739" lon="2.0275">
        <ele>150.19999694824</ele>
        <time>2011-04-17T13:00:39.000Z</time>
      </trkpt>
      <trkpt lat="48.70741" lon="2.02756">
        <ele>148.19999694824</ele>
        <time>2011-04-17T13:00:43.000Z</time>
      </trkpt>
      <trkpt lat="48.70742" lon="2.02768">
        <ele>151</ele>
        <time>2011-04-17T13:00:48.000Z</time>
      </trkpt>
      <trkpt lat="48.70743" lon="2.02781">
        <ele>150.19999694824</ele>
        <time>2011-04-17T13:00:55.000Z</time>
      </trkpt>
      <trkpt lat="48.70747" lon="2.0279">
        <ele>144.39999389648</ele>
        <time>2011-04-17T13:01:01.000Z</time>
      </trkpt>
      <trkpt lat="48.70752" lon="2.02801">
        <ele>142.39999389648</ele>
        <time>2011-04-17T13:01:08.000Z</time>
      </trkpt>
      <trkpt lat="48.70756" lon="2.02813">
        <ele>149.60000610352</ele>
        <time>2011-04-17T13:01:14.000Z</time>
      </trkpt>
      <trkpt lat="48.70759" lon="2.0282">
        <ele>151</ele>
        <time>2011-04-17T13:01:18.000Z</time>
      </trkpt>
      <trkpt lat="48.70765" lon="2.0284">
        <ele>146.19999694824</ele>
        <time>2011-04-17T13:01:27.000Z</time>
      </trkpt>
      <trkpt lat="48.70768" lon="2.02853">
        <ele>146.19999694824</ele>
        <time>2011-04-17T13:01:33.000Z</time>
      </trkpt>
      <trkpt lat="48.70771" lon="2.0286">
        <ele>145.19999694824</ele>
        <time>2011-04-17T13:01:37.000Z</time>
      </trkpt>
      <trkpt lat="48.70774" lon="2.02874">
        <ele>152</ele>
        <time>2011-04-17T13:01:43.000Z</time>
      </trkpt>
      <trkpt lat="48.70778" lon="2.02879">
        <ele>148.19999694824</ele>
        <time>2011-04-17T13:01:47.000Z</time>
      </trkpt>
      <trkpt lat="48.70783" lon="2.02883">
        <ele>142.39999389648</ele>
        <time>2011-04-17T13:01:52.000Z</time>
      </trkpt>
      <trkpt lat="48.70786" lon="2.02892">
        <ele>138.60000610352</ele>
        <time>2011-04-17T13:01:58.000Z</time>
      </trkpt>
      <trkpt lat="48.70789" lon="2.02908">
        <ele>134.19999694824</ele>
        <time>2011-04-17T13:02:06.000Z</time>
      </trkpt>
      <trkpt lat="48.70792" lon="2.02918">
        <ele>128.39999389648</ele>
        <time>2011-04-17T13:02:12.000Z</time>
      </trkpt>
      <trkpt lat="48.70792" lon="2.02919">
        <ele>127.59999847412</ele>
        <time>2011-04-17T13:02:13.000Z</time>
      </trkpt>
      <trkpt lat="48.70795" lon="2.02929">
        <ele>124.19999694824</ele>
        <time>2011-04-17T13:02:18.000Z</time>
      </trkpt>
      <trkpt lat="48.70799" lon="2.02943">
        <ele>119.40000152588</ele>
        <time>2011-04-17T13:02:26.000Z</time>
      </trkpt>
      <trkpt lat="48.70803" lon="2.02953">
        <ele>118.80000305176</ele>
        <time>2011-04-17T13:02:32.000Z</time>
      </trkpt>
      <trkpt lat="48.70804" lon="2.02959">
        <ele>116.40000152588</ele>
        <time>2011-04-17T13:02:38.000Z</time>
      </trkpt>
      <trkpt lat="48.70802" lon="2.02972">
        <ele>121.80000305176</ele>
        <time>2011-04-17T13:02:50.000Z</time>
      </trkpt>
      <trkpt lat="48.70796" lon="2.02986">
        <ele>119.40000152588</ele>
        <time>2011-04-17T13:02:57.000Z</time>
      </trkpt>
      <trkpt lat="48.7079" lon="2.02998">
        <ele>119.80000305176</ele>
        <time>2011-04-17T13:03:05.000Z</time>
      </trkpt>
      <trkpt lat="48.70784" lon="2.03019">
        <ele>117.80000305176</ele>
        <time>2011-04-17T13:03:14.000Z</time>
      </trkpt>
      <trkpt lat="48.70783" lon="2.03022">
        <ele>116.40000152588</ele>
        <time>2011-04-17T13:03:18.000Z</time>
      </trkpt>
      <trkpt lat="48.70783" lon="2.03038">
        <ele>120.80000305176</ele>
        <time>2011-04-17T13:03:56.000Z</time>
      </trkpt>
      <trkpt lat="48.70777" lon="2.03048">
        <ele>121.19999694824</ele>
        <time>2011-04-17T13:04:00.000Z</time>
      </trkpt>
      <trkpt lat="48.70771" lon="2.0306">
        <ele>119.80000305176</ele>
        <time>2011-04-17T13:04:06.000Z</time>
      </trkpt>
      <trkpt lat="48.70767" lon="2.03072">
        <ele>117</ele>
        <time>2011-04-17T13:04:13.000Z</time>
      </trkpt>
      <trkpt lat="48.70764" lon="2.03078">
        <ele>115.40000152588</ele>
        <time>2011-04-17T13:04:18.000Z</time>
      </trkpt>
      <trkpt lat="48.70761" lon="2.03086">
        <ele>116</ele>
        <time>2011-04-17T13:04:28.000Z</time>
      </trkpt>
      <trkpt lat="48.70752" lon="2.03102">
        <ele>115.40000152588</ele>
        <time>2011-04-17T13:04:36.000Z</time>
      </trkpt>
      <trkpt lat="48.70746" lon="2.03111">
        <ele>112.19999694824</ele>
        <time>2011-04-17T13:04:43.000Z</time>
      </trkpt>
      <trkpt lat="48.70741" lon="2.03119">
        <ele>110.59999847412</ele>
        <time>2011-04-17T13:04:49.000Z</time>
      </trkpt>
      <trkpt lat="48.70735" lon="2.03127">
        <ele>107.80000305176</ele>
        <time>2011-04-17T13:04:56.000Z</time>
      </trkpt>
      <trkpt lat="48.70733" lon="2.0313">
        <ele>108.19999694824</ele>
        <time>2011-04-17T13:04:58.000Z</time>
      </trkpt>
      <trkpt lat="48.70732" lon="2.03132">
        <ele>108.19999694824</ele>
        <time>2011-04-17T13:05:02.000Z</time>
      </trkpt>
      <trkpt lat="48.70731" lon="2.03142">
        <ele>110.59999847412</ele>
        <time>2011-04-17T13:06:12.000Z</time>
      </trkpt>
      <trkpt lat="48.70724" lon="2.0315">
        <ele>110.19999694824</ele>
        <time>2011-04-17T13:06:16.000Z</time>
      </trkpt>
      <trkpt lat="48.70716" lon="2.0316">
        <ele>107.80000305176</ele>
        <time>2011-04-17T13:06:24.000Z</time>
      </trkpt>
      <trkpt lat="48.70707" lon="2.03168">
        <ele>105</ele>
        <time>2011-04-17T13:06:32.000Z</time>
      </trkpt>
      <trkpt lat="48.70698" lon="2.03172">
        <ele>102</ele>
        <time>2011-04-17T13:06:39.000Z</time>
      </trkpt>
      <trkpt lat="48.70691" lon="2.03178">
        <ele>101</ele>
        <time>2011-04-17T13:06:46.000Z</time>
      </trkpt>
      <trkpt lat="48.70682" lon="2.03186">
        <ele>100.19999694824</ele>
        <time>2011-04-17T13:06:55.000Z</time>
      </trkpt>
      <trkpt lat="48.70676" lon="2.03188">
        <ele>99.599998474121</ele>
        <time>2011-04-17T13:07:00.000Z</time>
      </trkpt>
      <trkpt lat="48.70673" lon="2.03188">
        <ele>98.199996948242</ele>
        <time>2011-04-17T13:07:04.000Z</time>
      </trkpt>
      <trkpt lat="48.70664" lon="2.03198">
        <ele>95.400001525879</ele>
        <time>2011-04-17T13:07:26.000Z</time>
      </trkpt>
      <trkpt lat="48.70658" lon="2.032">
        <ele>96.199996948242</ele>
        <time>2011-04-17T13:07:29.000Z</time>
      </trkpt>
      <trkpt lat="48.70644" lon="2.03207">
        <ele>96.199996948242</ele>
        <time>2011-04-17T13:07:40.000Z</time>
      </trkpt>
      <trkpt lat="48.70634" lon="2.03211">
        <ele>94.400001525879</ele>
        <time>2011-04-17T13:07:47.000Z</time>
      </trkpt>
      <trkpt lat="48.70621" lon="2.03218">
        <ele>92.400001525879</ele>
        <time>2011-04-17T13:07:57.000Z</time>
      </trkpt>
      <trkpt lat="48.7061" lon="2.03225">
        <ele>91</ele>
        <time>2011-04-17T13:08:06.000Z</time>
      </trkpt>
      <trkpt lat="48.706" lon="2.03233">
        <ele>89</ele>
        <time>2011-04-17T13:08:15.000Z</time>
      </trkpt>
      <trkpt lat="48.70592" lon="2.03239">
        <ele>88</ele>
        <time>2011-04-17T13:08:22.000Z</time>
      </trkpt>
      <trkpt lat="48.70584" lon="2.03249">
        <ele>87.199996948242</ele>
        <time>2011-04-17T13:08:31.000Z</time>
      </trkpt>
      <trkpt lat="48.70585" lon="2.03261">
        <ele>87.199996948242</ele>
        <time>2011-04-17T13:08:39.000Z</time>
      </trkpt>
      <trkpt lat="48.70587" lon="2.03268">
        <ele>87.199996948242</ele>
        <time>2011-04-17T13:08:44.000Z</time>
      </trkpt>
      <trkpt lat="48.70594" lon="2.03284">
        <ele>87.199996948242</ele>
        <time>2011-04-17T13:08:54.000Z</time>
      </trkpt>
      <trkpt lat="48.706" lon="2.03299">
        <ele>87.199996948242</ele>
        <time>2011-04-17T13:09:02.000Z</time>
      </trkpt>
      <trkpt lat="48.7061" lon="2.03325">
        <ele>88.599998474121</ele>
        <time>2011-04-17T13:09:16.000Z</time>
      </trkpt>
      <trkpt lat="48.70614" lon="2.03336">
        <ele>89</ele>
        <time>2011-04-17T13:09:23.000Z</time>
      </trkpt>
      <trkpt lat="48.7062" lon="2.03352">
        <ele>88.599998474121</ele>
        <time>2011-04-17T13:09:32.000Z</time>
      </trkpt>
      <trkpt lat="48.70626" lon="2.03372">
        <ele>88.599998474121</ele>
        <time>2011-04-17T13:09:43.000Z</time>
      </trkpt>
      <trkpt lat="48.70631" lon="2.03388">
        <ele>88.599998474121</ele>
        <time>2011-04-17T13:09:52.000Z</time>
      </trkpt>
      <trkpt lat="48.70633" lon="2.03396">
        <ele>88</ele>
        <time>2011-04-17T13:09:59.000Z</time>
      </trkpt>
      <trkpt lat="48.70638" lon="2.03401">
        <ele>87.599998474121</ele>
        <time>2011-04-17T13:10:07.000Z</time>
      </trkpt>
      <trkpt lat="48.7065" lon="2.03401">
        <ele>87.199996948242</ele>
        <time>2011-04-17T13:10:15.000Z</time>
      </trkpt>
      <trkpt lat="48.7066" lon="2.03395">
        <ele>87.599998474121</ele>
        <time>2011-04-17T13:10:23.000Z</time>
      </trkpt>
      <trkpt lat="48.70669" lon="2.03388">
        <ele>88.599998474121</ele>
        <time>2011-04-17T13:10:31.000Z</time>
      </trkpt>
      <trkpt lat="48.70676" lon="2.0338">
        <ele>89.599998474121</ele>
        <time>2011-04-17T13:10:38.000Z</time>
      </trkpt>
      <trkpt lat="48.70684" lon="2.03372">
        <ele>90</ele>
        <time>2011-04-17T13:10:45.000Z</time>
      </trkpt>
      <trkpt lat="48.70696" lon="2.03362">
        <ele>91</ele>
        <time>2011-04-17T13:10:55.000Z</time>
      </trkpt>
      <trkpt lat="48.70711" lon="2.03354">
        <ele>92.400001525879</ele>
        <time>2011-04-17T13:11:07.000Z</time>
      </trkpt>
      <trkpt lat="48.70718" lon="2.03361">
        <ele>93</ele>
        <time>2011-04-17T13:11:14.000Z</time>
      </trkpt>
      <trkpt lat="48.70726" lon="2.03379">
        <ele>92</ele>
        <time>2011-04-17T13:11:24.000Z</time>
      </trkpt>
      <trkpt lat="48.70735" lon="2.03397">
        <ele>91</ele>
        <time>2011-04-17T13:11:34.000Z</time>
      </trkpt>
      <trkpt lat="48.70745" lon="2.03412">
        <ele>91</ele>
        <time>2011-04-17T13:11:43.000Z</time>
      </trkpt>
      <trkpt lat="48.70751" lon="2.03425">
        <ele>91</ele>
        <time>2011-04-17T13:11:51.000Z</time>
      </trkpt>
      <trkpt lat="48.70756" lon="2.03439">
        <ele>90.599998474121</ele>
        <time>2011-04-17T13:11:59.000Z</time>
      </trkpt>
      <trkpt lat="48.70762" lon="2.03452">
        <ele>90</ele>
        <time>2011-04-17T13:12:07.000Z</time>
      </trkpt>
      <trkpt lat="48.70768" lon="2.03468">
        <ele>89.599998474121</ele>
        <time>2011-04-17T13:12:16.000Z</time>
      </trkpt>
      <trkpt lat="48.70778" lon="2.03486">
        <ele>89.599998474121</ele>
        <time>2011-04-17T13:12:27.000Z</time>
      </trkpt>
      <trkpt lat="48.70782" lon="2.03496">
        <ele>89.599998474121</ele>
        <time>2011-04-17T13:12:33.000Z</time>
      </trkpt>
      <trkpt lat="48.70789" lon="2.0351">
        <ele>89.599998474121</ele>
        <time>2011-04-17T13:12:41.000Z</time>
      </trkpt>
      <trkpt lat="48.70791" lon="2.03513">
        <ele>89.599998474121</ele>
        <time>2011-04-17T13:12:43.000Z</time>
      </trkpt>
      <trkpt lat="48.70798" lon="2.03529">
        <ele>87.599998474121</ele>
        <time>2011-04-17T13:12:53.000Z</time>
      </trkpt>
      <trkpt lat="48.70804" lon="2.03544">
        <ele>87.199996948242</ele>
        <time>2011-04-17T13:13:02.000Z</time>
      </trkpt>
      <trkpt lat="48.7081" lon="2.03562">
        <ele>85.599998474121</ele>
        <time>2011-04-17T13:13:13.000Z</time>
      </trkpt>
      <trkpt lat="48.70814" lon="2.03574">
        <ele>86.199996948242</ele>
        <time>2011-04-17T13:13:19.000Z</time>
      </trkpt>
      <trkpt lat="48.70818" lon="2.03588">
        <ele>86.199996948242</ele>
        <time>2011-04-17T13:13:26.000Z</time>
      </trkpt>
      <trkpt lat="48.7082" lon="2.03604">
        <ele>85.599998474121</ele>
        <time>2011-04-17T13:13:34.000Z</time>
      </trkpt>
      <trkpt lat="48.70826" lon="2.0362">
        <ele>84.199996948242</ele>
        <time>2011-04-17T13:13:43.000Z</time>
      </trkpt>
      <trkpt lat="48.70835" lon="2.03637">
        <ele>85.199996948242</ele>
        <time>2011-04-17T13:13:53.000Z</time>
      </trkpt>
      <trkpt lat="48.70839" lon="2.03649">
        <ele>84.199996948242</ele>
        <time>2011-04-17T13:14:00.000Z</time>
      </trkpt>
      <trkpt lat="48.70845" lon="2.03658">
        <ele>84.199996948242</ele>
        <time>2011-04-17T13:14:06.000Z</time>
      </trkpt>
      <trkpt lat="48.70854" lon="2.03674">
        <ele>83.800003051758</ele>
        <time>2011-04-17T13:14:15.000Z</time>
      </trkpt>
      <trkpt lat="48.70858" lon="2.03679">
        <ele>83.199996948242</ele>
        <time>2011-04-17T13:14:21.000Z</time>
      </trkpt>
      <trkpt lat="48.70859" lon="2.0368">
        <ele>83.199996948242</ele>
        <time>2011-04-17T13:14:23.000Z</time>
      </trkpt>
      <trkpt lat="48.70866" lon="2.03681">
        <ele>83.800003051758</ele>
        <time>2011-04-17T13:14:33.000Z</time>
      </trkpt>
      <trkpt lat="48.70873" lon="2.03677">
        <ele>83.199996948242</ele>
        <time>2011-04-17T13:14:37.000Z</time>
      </trkpt>
      <trkpt lat="48.70883" lon="2.0368">
        <ele>82.800003051758</ele>
        <time>2011-04-17T13:14:45.000Z</time>
      </trkpt>
      <trkpt lat="48.70891" lon="2.03686">
        <ele>82.400001525879</ele>
        <time>2011-04-17T13:14:53.000Z</time>
      </trkpt>
      <trkpt lat="48.70899" lon="2.03696">
        <ele>83.199996948242</ele>
        <time>2011-04-17T13:15:00.000Z</time>
      </trkpt>
      <trkpt lat="48.70903" lon="2.03709">
        <ele>84.800003051758</ele>
        <time>2011-04-17T13:15:07.000Z</time>
      </trkpt>
      <trkpt lat="48.70908" lon="2.03722">
        <ele>86.199996948242</ele>
        <time>2011-04-17T13:15:14.000Z</time>
      </trkpt>
      <trkpt lat="48.70913" lon="2.03739">
        <ele>87.599998474121</ele>
        <time>2011-04-17T13:15:24.000Z</time>
      </trkpt>
      <trkpt lat="48.70921" lon="2.0376">
        <ele>90</ele>
        <time>2011-04-17T13:15:35.000Z</time>
      </trkpt>
      <trkpt lat="48.70928" lon="2.03777">
        <ele>93</ele>
        <time>2011-04-17T13:15:44.000Z</time>
      </trkpt>
      <trkpt lat="48.70931" lon="2.03788">
        <ele>93.800003051758</ele>
        <time>2011-04-17T13:15:50.000Z</time>
      </trkpt>
      <trkpt lat="48.70933" lon="2.03794">
        <ele>93.800003051758</ele>
        <time>2011-04-17T13:15:54.000Z</time>
      </trkpt>
      <trkpt lat="48.70937" lon="2.03801">
        <ele>93.400001525879</ele>
        <time>2011-04-17T13:16:01.000Z</time>
      </trkpt>
      <trkpt lat="48.70942" lon="2.03801">
        <ele>93</ele>
        <time>2011-04-17T13:16:08.000Z</time>
      </trkpt>
      <trkpt lat="48.70942" lon="2.03801">
        <ele>93</ele>
        <time>2011-04-17T13:16:09.000Z</time>
      </trkpt>
      <trkpt lat="48.70945" lon="2.03797">
        <ele>92.400001525879</ele>
        <time>2011-04-17T13:16:28.000Z</time>
      </trkpt>
      <trkpt lat="48.70951" lon="2.03785">
        <ele>93.800003051758</ele>
        <time>2011-04-17T13:16:34.000Z</time>
      </trkpt>
      <trkpt lat="48.70956" lon="2.03774">
        <ele>95.400001525879</ele>
        <time>2011-04-17T13:16:40.000Z</time>
      </trkpt>
      <trkpt lat="48.70957" lon="2.03773">
        <ele>95.400001525879</ele>
        <time>2011-04-17T13:16:41.000Z</time>
      </trkpt>
      <trkpt lat="48.7096" lon="2.03766">
        <ele>95.400001525879</ele>
        <time>2011-04-17T13:16:45.000Z</time>
      </trkpt>
      <trkpt lat="48.70965" lon="2.03752">
        <ele>97.199996948242</ele>
        <time>2011-04-17T13:16:52.000Z</time>
      </trkpt>
      <trkpt lat="48.70969" lon="2.0374">
        <ele>98.599998474121</ele>
        <time>2011-04-17T13:16:58.000Z</time>
      </trkpt>
      <trkpt lat="48.70976" lon="2.03726">
        <ele>99.599998474121</ele>
        <time>2011-04-17T13:17:06.000Z</time>
      </trkpt>
      <trkpt lat="48.70985" lon="2.03711">
        <ele>98.599998474121</ele>
        <time>2011-04-17T13:17:15.000Z</time>
      </trkpt>
      <trkpt lat="48.7099" lon="2.03698">
        <ele>98.599998474121</ele>
        <time>2011-04-17T13:17:22.000Z</time>
      </trkpt>
      <trkpt lat="48.70998" lon="2.03683">
        <ele>98.599998474121</ele>
        <time>2011-04-17T13:17:31.000Z</time>
      </trkpt>
      <trkpt lat="48.71003" lon="2.03664">
        <ele>101</ele>
        <time>2011-04-17T13:17:40.000Z</time>
      </trkpt>
      <trkpt lat="48.71009" lon="2.03634">
        <ele>105</ele>
        <time>2011-04-17T13:17:54.000Z</time>
      </trkpt>
      <trkpt lat="48.71013" lon="2.0362">
        <ele>104.40000152588</ele>
        <time>2011-04-17T13:18:01.000Z</time>
      </trkpt>
      <trkpt lat="48.7102" lon="2.03598">
        <ele>102</ele>
        <time>2011-04-17T13:18:12.000Z</time>
      </trkpt>
      <trkpt lat="48.71024" lon="2.03582">
        <ele>101</ele>
        <time>2011-04-17T13:18:20.000Z</time>
      </trkpt>
      <trkpt lat="48.71026" lon="2.03571">
        <ele>100.59999847412</ele>
        <time>2011-04-17T13:18:25.000Z</time>
      </trkpt>
      <trkpt lat="48.71031" lon="2.03547">
        <ele>100.19999694824</ele>
        <time>2011-04-17T13:18:35.000Z</time>
      </trkpt>
      <trkpt lat="48.71034" lon="2.03536">
        <ele>99.599998474121</ele>
        <time>2011-04-17T13:18:40.000Z</time>
      </trkpt>
      <trkpt lat="48.71041" lon="2.03523">
        <ele>99.199996948242</ele>
        <time>2011-04-17T13:18:47.000Z</time>
      </trkpt>
      <trkpt lat="48.71046" lon="2.03514">
        <ele>98.599998474121</ele>
        <time>2011-04-17T13:18:52.000Z</time>
      </trkpt>
      <trkpt lat="48.71053" lon="2.03504">
        <ele>98.199996948242</ele>
        <time>2011-04-17T13:18:58.000Z</time>
      </trkpt>
      <trkpt lat="48.71058" lon="2.03498">
        <ele>97.800003051758</ele>
        <time>2011-04-17T13:19:02.000Z</time>
      </trkpt>
      <trkpt lat="48.71062" lon="2.03491">
        <ele>97.800003051758</ele>
        <time>2011-04-17T13:19:06.000Z</time>
      </trkpt>
      <trkpt lat="48.71075" lon="2.03472">
        <ele>98.599998474121</ele>
        <time>2011-04-17T13:19:18.000Z</time>
      </trkpt>
      <trkpt lat="48.71086" lon="2.03458">
        <ele>98.599998474121</ele>
        <time>2011-04-17T13:19:27.000Z</time>
      </trkpt>
      <trkpt lat="48.71092" lon="2.03446">
        <ele>100.59999847412</ele>
        <time>2011-04-17T13:19:34.000Z</time>
      </trkpt>
      <trkpt lat="48.71098" lon="2.03426">
        <ele>106.80000305176</ele>
        <time>2011-04-17T13:19:44.000Z</time>
      </trkpt>
      <trkpt lat="48.71107" lon="2.03418">
        <ele>110.19999694824</ele>
        <time>2011-04-17T13:19:52.000Z</time>
      </trkpt>
      <trkpt lat="48.71118" lon="2.03412">
        <ele>108.80000305176</ele>
        <time>2011-04-17T13:19:59.000Z</time>
      </trkpt>
      <trkpt lat="48.71136" lon="2.03405">
        <ele>106.40000152588</ele>
        <time>2011-04-17T13:20:10.000Z</time>
      </trkpt>
      <trkpt lat="48.71148" lon="2.03401">
        <ele>105.40000152588</ele>
        <time>2011-04-17T13:20:18.000Z</time>
      </trkpt>
      <trkpt lat="48.71161" lon="2.03395">
        <ele>104.40000152588</ele>
        <time>2011-04-17T13:20:27.000Z</time>
      </trkpt>
      <trkpt lat="48.71173" lon="2.03391">
        <ele>104</ele>
        <time>2011-04-17T13:20:35.000Z</time>
      </trkpt>
      <trkpt lat="48.71178" lon="2.03391">
        <ele>103.40000152588</ele>
        <time>2011-04-17T13:20:39.000Z</time>
      </trkpt>
      <trkpt lat="48.71183" lon="2.03394">
        <ele>103.40000152588</ele>
        <time>2011-04-17T13:20:43.000Z</time>
      </trkpt>
      <trkpt lat="48.71185" lon="2.03394">
        <ele>103</ele>
        <time>2011-04-17T13:20:47.000Z</time>
      </trkpt>
      <trkpt lat="48.71196" lon="2.03391">
        <ele>99.199996948242</ele>
        <time>2011-04-17T13:21:21.000Z</time>
      </trkpt>
      <trkpt lat="48.71204" lon="2.03384">
        <ele>99.599998474121</ele>
        <time>2011-04-17T13:21:28.000Z</time>
      </trkpt>
      <trkpt lat="48.7121" lon="2.03385">
        <ele>100.59999847412</ele>
        <time>2011-04-17T13:21:33.000Z</time>
      </trkpt>
      <trkpt lat="48.71221" lon="2.03384">
        <ele>101.59999847412</ele>
        <time>2011-04-17T13:21:41.000Z</time>
      </trkpt>
      <trkpt lat="48.71228" lon="2.03385">
        <ele>101.59999847412</ele>
        <time>2011-04-17T13:21:47.000Z</time>
      </trkpt>
      <trkpt lat="48.71238" lon="2.0338">
        <ele>103.40000152588</ele>
        <time>2011-04-17T13:21:55.000Z</time>
      </trkpt>
      <trkpt lat="48.71249" lon="2.03373">
        <ele>104.40000152588</ele>
        <time>2011-04-17T13:22:03.000Z</time>
      </trkpt>
      <trkpt lat="48.71254" lon="2.03366">
        <ele>105.40000152588</ele>
        <time>2011-04-17T13:22:08.000Z</time>
      </trkpt>
      <trkpt lat="48.71255" lon="2.03365">
        <ele>106.40000152588</ele>
        <time>2011-04-17T13:22:11.000Z</time>
      </trkpt>
      <trkpt lat="48.7126" lon="2.03354">
        <ele>107.80000305176</ele>
        <time>2011-04-17T13:22:21.000Z</time>
      </trkpt>
      <trkpt lat="48.71264" lon="2.03337">
        <ele>109.19999694824</ele>
        <time>2011-04-17T13:22:28.000Z</time>
      </trkpt>
      <trkpt lat="48.71268" lon="2.03329">
        <ele>110.19999694824</ele>
        <time>2011-04-17T13:22:34.000Z</time>
      </trkpt>
      <trkpt lat="48.71268" lon="2.03328">
        <ele>110.19999694824</ele>
        <time>2011-04-17T13:22:36.000Z</time>
      </trkpt>
      <trkpt lat="48.71267" lon="2.03319">
        <ele>112.19999694824</ele>
        <time>2011-04-17T13:22:45.000Z</time>
      </trkpt>
      <trkpt lat="48.71268" lon="2.03305">
        <ele>113</ele>
        <time>2011-04-17T13:22:51.000Z</time>
      </trkpt>
      <trkpt lat="48.71273" lon="2.03296">
        <ele>114.59999847412</ele>
        <time>2011-04-17T13:22:57.000Z</time>
      </trkpt>
      <trkpt lat="48.71277" lon="2.0329">
        <ele>116</ele>
        <time>2011-04-17T13:23:02.000Z</time>
      </trkpt>
      <trkpt lat="48.7128" lon="2.03282">
        <ele>117.40000152588</ele>
        <time>2011-04-17T13:23:08.000Z</time>
      </trkpt>
      <trkpt lat="48.7128" lon="2.03281">
        <ele>117.80000305176</ele>
        <time>2011-04-17T13:23:09.000Z</time>
      </trkpt>
      <trkpt lat="48.71286" lon="2.03272">
        <ele>117.40000152588</ele>
        <time>2011-04-17T13:23:15.000Z</time>
      </trkpt>
      <trkpt lat="48.71293" lon="2.03262">
        <ele>116.40000152588</ele>
        <time>2011-04-17T13:23:21.000Z</time>
      </trkpt>
      <trkpt lat="48.713" lon="2.03248">
        <ele>118.80000305176</ele>
        <time>2011-04-17T13:23:28.000Z</time>
      </trkpt>
      <trkpt lat="48.71302" lon="2.03243">
        <ele>120.40000152588</ele>
        <time>2011-04-17T13:23:31.000Z</time>
      </trkpt>
      <trkpt lat="48.71303" lon="2.0324">
        <ele>120.80000305176</ele>
        <time>2011-04-17T13:23:33.000Z</time>
      </trkpt>
      <trkpt lat="48.71303" lon="2.03236">
        <ele>122.80000305176</ele>
        <time>2011-04-17T13:23:35.000Z</time>
      </trkpt>
      <trkpt lat="48.71305" lon="2.03219">
        <ele>130.39999389648</ele>
        <time>2011-04-17T13:23:40.000Z</time>
      </trkpt>
      <trkpt lat="48.71311" lon="2.03211">
        <ele>131.39999389648</ele>
        <time>2011-04-17T13:23:44.000Z</time>
      </trkpt>
      <trkpt lat="48.71316" lon="2.03205">
        <ele>131.39999389648</ele>
        <time>2011-04-17T13:23:48.000Z</time>
      </trkpt>
      <trkpt lat="48.71323" lon="2.03198">
        <ele>128.39999389648</ele>
        <time>2011-04-17T13:23:55.000Z</time>
      </trkpt>
      <trkpt lat="48.71324" lon="2.03196">
        <ele>128</ele>
        <time>2011-04-17T13:23:56.000Z</time>
      </trkpt>
      <trkpt lat="48.71332" lon="2.03181">
        <ele>127.59999847412</ele>
        <time>2011-04-17T13:24:04.000Z</time>
      </trkpt>
      <trkpt lat="48.7134" lon="2.03167">
        <ele>130</ele>
        <time>2011-04-17T13:24:09.000Z</time>
      </trkpt>
      <trkpt lat="48.71346" lon="2.03163">
        <ele>131.80000305176</ele>
        <time>2011-04-17T13:24:11.000Z</time>
      </trkpt>
      <trkpt lat="48.7135" lon="2.03161">
        <ele>133.19999694824</ele>
        <time>2011-04-17T13:24:13.000Z</time>
      </trkpt>
      <trkpt lat="48.71355" lon="2.03157">
        <ele>133.80000305176</ele>
        <time>2011-04-17T13:24:17.000Z</time>
      </trkpt>
      <trkpt lat="48.71361" lon="2.0315">
        <ele>133.80000305176</ele>
        <time>2011-04-17T13:24:23.000Z</time>
      </trkpt>
      <trkpt lat="48.71364" lon="2.03148">
        <ele>134.80000305176</ele>
        <time>2011-04-17T13:24:26.000Z</time>
      </trkpt>
      <trkpt lat="48.71369" lon="2.03141">
        <ele>137.19999694824</ele>
        <time>2011-04-17T13:24:33.000Z</time>
      </trkpt>
      <trkpt lat="48.71373" lon="2.03141">
        <ele>136.60000610352</ele>
        <time>2011-04-17T13:24:36.000Z</time>
      </trkpt>
      <trkpt lat="48.71379" lon="2.03144">
        <ele>137.60000610352</ele>
        <time>2011-04-17T13:24:40.000Z</time>
      </trkpt>
      <trkpt lat="48.71386" lon="2.03137">
        <ele>140.39999389648</ele>
        <time>2011-04-17T13:24:44.000Z</time>
      </trkpt>
      <trkpt lat="48.71388" lon="2.03132">
        <ele>141.39999389648</ele>
        <time>2011-04-17T13:24:46.000Z</time>
      </trkpt>
      <trkpt lat="48.71391" lon="2.03119">
        <ele>147.60000610352</ele>
        <time>2011-04-17T13:24:52.000Z</time>
      </trkpt>
      <trkpt lat="48.71391" lon="2.03116">
        <ele>148.60000610352</ele>
        <time>2011-04-17T13:24:54.000Z</time>
      </trkpt>
      <trkpt lat="48.71391" lon="2.0311">
        <ele>146.80000305176</ele>
        <time>2011-04-17T13:24:59.000Z</time>
      </trkpt>
      <trkpt lat="48.71387" lon="2.03098">
        <ele>149.60000610352</ele>
        <time>2011-04-17T13:25:07.000Z</time>
      </trkpt>
      <trkpt lat="48.71389" lon="2.0309">
        <ele>152</ele>
        <time>2011-04-17T13:25:15.000Z</time>
      </trkpt>
      <trkpt lat="48.7139" lon="2.03091">
        <ele>152.60000610352</ele>
        <time>2011-04-17T13:25:22.000Z</time>
      </trkpt>
      <trkpt lat="48.71402" lon="2.03085">
        <ele>154.39999389648</ele>
        <time>2011-04-17T13:25:47.000Z</time>
      </trkpt>
      <trkpt lat="48.71407" lon="2.03082">
        <ele>154</ele>
        <time>2011-04-17T13:25:51.000Z</time>
      </trkpt>
      <trkpt lat="48.71412" lon="2.0308">
        <ele>152.60000610352</ele>
        <time>2011-04-17T13:25:56.000Z</time>
      </trkpt>
      <trkpt lat="48.71419" lon="2.03078">
        <ele>152.60000610352</ele>
        <time>2011-04-17T13:26:02.000Z</time>
      </trkpt>
      <trkpt lat="48.71423" lon="2.03076">
        <ele>155.39999389648</ele>
        <time>2011-04-17T13:26:08.000Z</time>
      </trkpt>
      <trkpt lat="48.7143" lon="2.03078">
        <ele>156.39999389648</ele>
        <time>2011-04-17T13:26:13.000Z</time>
      </trkpt>
      <trkpt lat="48.71431" lon="2.03078">
        <ele>156.80000305176</ele>
        <time>2011-04-17T13:26:14.000Z</time>
      </trkpt>
      <trkpt lat="48.71435" lon="2.03078">
        <ele>158.19999694824</ele>
        <time>2011-04-17T13:26:18.000Z</time>
      </trkpt>
      <trkpt lat="48.71441" lon="2.03079">
        <ele>160.60000610352</ele>
        <time>2011-04-17T13:26:24.000Z</time>
      </trkpt>
      <trkpt lat="48.7145" lon="2.03075">
        <ele>160.60000610352</ele>
        <time>2011-04-17T13:26:31.000Z</time>
      </trkpt>
      <trkpt lat="48.71453" lon="2.03074">
        <ele>161.60000610352</ele>
        <time>2011-04-17T13:26:34.000Z</time>
      </trkpt>
      <trkpt lat="48.7146" lon="2.03073">
        <ele>163.60000610352</ele>
        <time>2011-04-17T13:26:40.000Z</time>
      </trkpt>
      <trkpt lat="48.71462" lon="2.0307">
        <ele>165.39999389648</ele>
        <time>2011-04-17T13:26:42.000Z</time>
      </trkpt>
      <trkpt lat="48.71471" lon="2.03068">
        <ele>164.60000610352</ele>
        <time>2011-04-17T13:26:49.000Z</time>
      </trkpt>
      <trkpt lat="48.7148" lon="2.03065">
        <ele>162.60000610352</ele>
        <time>2011-04-17T13:26:56.000Z</time>
      </trkpt>
      <trkpt lat="48.71484" lon="2.03063">
        <ele>161.60000610352</ele>
        <time>2011-04-17T13:27:00.000Z</time>
      </trkpt>
      <trkpt lat="48.71493" lon="2.03056">
        <ele>159.80000305176</ele>
        <time>2011-04-17T13:27:08.000Z</time>
      </trkpt>
      <trkpt lat="48.71496" lon="2.03055">
        <ele>158.80000305176</ele>
        <time>2011-04-17T13:27:11.000Z</time>
      </trkpt>
      <trkpt lat="48.71504" lon="2.03054">
        <ele>159.80000305176</ele>
        <time>2011-04-17T13:27:17.000Z</time>
      </trkpt>
      <trkpt lat="48.71508" lon="2.03053">
        <ele>162.60000610352</ele>
        <time>2011-04-17T13:27:21.000Z</time>
      </trkpt>
      <trkpt lat="48.71508" lon="2.03053">
        <ele>162.60000610352</ele>
        <time>2011-04-17T13:27:22.000Z</time>
      </trkpt>
      <trkpt lat="48.71529" lon="2.03043">
        <ele>176</ele>
        <time>2011-04-17T13:28:12.000Z</time>
      </trkpt>
      <trkpt lat="48.71533" lon="2.03043">
        <ele>175</ele>
        <time>2011-04-17T13:28:15.000Z</time>
      </trkpt>
      <trkpt lat="48.71539" lon="2.03041">
        <ele>174.19999694824</ele>
        <time>2011-04-17T13:28:21.000Z</time>
      </trkpt>
      <trkpt lat="48.71546" lon="2.03038">
        <ele>173.60000610352</ele>
        <time>2011-04-17T13:28:27.000Z</time>
      </trkpt>
      <trkpt lat="48.71552" lon="2.03036">
        <ele>170.80000305176</ele>
        <time>2011-04-17T13:28:33.000Z</time>
      </trkpt>
      <trkpt lat="48.71559" lon="2.03033">
        <ele>170.19999694824</ele>
        <time>2011-04-17T13:28:38.000Z</time>
      </trkpt>
      <trkpt lat="48.71566" lon="2.03031">
        <ele>169.39999389648</ele>
        <time>2011-04-17T13:28:44.000Z</time>
      </trkpt>
      <trkpt lat="48.71568" lon="2.03031">
        <ele>168.80000305176</ele>
        <time>2011-04-17T13:28:45.000Z</time>
      </trkpt>
      <trkpt lat="48.71571" lon="2.0303">
        <ele>168.80000305176</ele>
        <time>2011-04-17T13:28:48.000Z</time>
      </trkpt>
      <trkpt lat="48.71576" lon="2.0303">
        <ele>168.39999389648</ele>
        <time>2011-04-17T13:28:53.000Z</time>
      </trkpt>
      <trkpt lat="48.71582" lon="2.03029">
        <ele>168.80000305176</ele>
        <time>2011-04-17T13:28:58.000Z</time>
      </trkpt>
      <trkpt lat="48.71584" lon="2.03028">
        <ele>168.39999389648</ele>
        <time>2011-04-17T13:29:00.000Z</time>
      </trkpt>
      <trkpt lat="48.71588" lon="2.03027">
        <ele>169.80000305176</ele>
        <time>2011-04-17T13:29:04.000Z</time>
      </trkpt>
      <trkpt lat="48.71599" lon="2.03024">
        <ele>172.60000610352</ele>
        <time>2011-04-17T13:29:11.000Z</time>
      </trkpt>
      <trkpt lat="48.71604" lon="2.03024">
        <ele>172.19999694824</ele>
        <time>2011-04-17T13:29:15.000Z</time>
      </trkpt>
      <trkpt lat="48.71613" lon="2.03022">
        <ele>172.19999694824</ele>
        <time>2011-04-17T13:29:20.000Z</time>
      </trkpt>
      <trkpt lat="48.7162" lon="2.0302">
        <ele>171.80000305176</ele>
        <time>2011-04-17T13:29:25.000Z</time>
      </trkpt>
      <trkpt lat="48.71627" lon="2.03017">
        <ele>172.60000610352</ele>
        <time>2011-04-17T13:29:30.000Z</time>
      </trkpt>
      <trkpt lat="48.71636" lon="2.03017">
        <ele>174.60000610352</ele>
        <time>2011-04-17T13:29:36.000Z</time>
      </trkpt>
      <trkpt lat="48.71643" lon="2.03013">
        <ele>178</ele>
        <time>2011-04-17T13:29:42.000Z</time>
      </trkpt>
      <trkpt lat="48.71644" lon="2.03012">
        <ele>177.60000610352</ele>
        <time>2011-04-17T13:29:43.000Z</time>
      </trkpt>
      <trkpt lat="48.71651" lon="2.03011">
        <ele>177.60000610352</ele>
        <time>2011-04-17T13:29:49.000Z</time>
      </trkpt>
      <trkpt lat="48.7166" lon="2.03009">
        <ele>178.39999389648</ele>
        <time>2011-04-17T13:29:56.000Z</time>
      </trkpt>
      <trkpt lat="48.7167" lon="2.03007">
        <ele>177.60000610352</ele>
        <time>2011-04-17T13:30:02.000Z</time>
      </trkpt>
      <trkpt lat="48.71677" lon="2.03007">
        <ele>179</ele>
        <time>2011-04-17T13:30:07.000Z</time>
      </trkpt>
      <trkpt lat="48.71685" lon="2.03008">
        <ele>179.39999389648</ele>
        <time>2011-04-17T13:30:12.000Z</time>
      </trkpt>
      <trkpt lat="48.71689" lon="2.03007">
        <ele>180.80000305176</ele>
        <time>2011-04-17T13:30:16.000Z</time>
      </trkpt>
      <trkpt lat="48.71692" lon="2.03008">
        <ele>180.80000305176</ele>
        <time>2011-04-17T13:30:20.000Z</time>
      </trkpt>
      <trkpt lat="48.71705" lon="2.03004">
        <ele>180.80000305176</ele>
        <time>2011-04-17T13:30:29.000Z</time>
      </trkpt>
      <trkpt lat="48.71709" lon="2.03003">
        <ele>182.80000305176</ele>
        <time>2011-04-17T13:30:33.000Z</time>
      </trkpt>
      <trkpt lat="48.71719" lon="2.03002">
        <ele>182.39999389648</ele>
        <time>2011-04-17T13:30:40.000Z</time>
      </trkpt>
      <trkpt lat="48.71728" lon="2.03001">
        <ele>181.80000305176</ele>
        <time>2011-04-17T13:30:47.000Z</time>
      </trkpt>
      <trkpt lat="48.71741" lon="2.03002">
        <ele>178.39999389648</ele>
        <time>2011-04-17T13:30:54.000Z</time>
      </trkpt>
      <trkpt lat="48.7175" lon="2.03002">
        <ele>175.60000610352</ele>
        <time>2011-04-17T13:31:01.000Z</time>
      </trkpt>
      <trkpt lat="48.71758" lon="2.03002">
        <ele>172.60000610352</ele>
        <time>2011-04-17T13:31:07.000Z</time>
      </trkpt>
      <trkpt lat="48.71768" lon="2.03004">
        <ele>171.19999694824</ele>
        <time>2011-04-17T13:31:14.000Z</time>
      </trkpt>
      <trkpt lat="48.71778" lon="2.03001">
        <ele>171.19999694824</ele>
        <time>2011-04-17T13:31:21.000Z</time>
      </trkpt>
      <trkpt lat="48.71784" lon="2.03001">
        <ele>170.19999694824</ele>
        <time>2011-04-17T13:31:25.000Z</time>
      </trkpt>
      <trkpt lat="48.71787" lon="2.03003">
        <ele>170.19999694824</ele>
        <time>2011-04-17T13:31:28.000Z</time>
      </trkpt>
      <trkpt lat="48.71795" lon="2.03">
        <ele>172.60000610352</ele>
        <time>2011-04-17T13:31:35.000Z</time>
      </trkpt>
      <trkpt lat="48.71803" lon="2.02999">
        <ele>172.19999694824</ele>
        <time>2011-04-17T13:31:40.000Z</time>
      </trkpt>
      <trkpt lat="48.71815" lon="2.03002">
        <ele>170.19999694824</ele>
        <time>2011-04-17T13:31:50.000Z</time>
      </trkpt>
      <trkpt lat="48.71816" lon="2.03003">
        <ele>170.80000305176</ele>
        <time>2011-04-17T13:31:51.000Z</time>
      </trkpt>
      <trkpt lat="48.71821" lon="2.03">
        <ele>171.19999694824</ele>
        <time>2011-04-17T13:31:56.000Z</time>
      </trkpt>
      <trkpt lat="48.71825" lon="2.03">
        <ele>175</ele>
        <time>2011-04-17T13:32:02.000Z</time>
      </trkpt>
      <trkpt lat="48.71833" lon="2.03001">
        <ele>173.19999694824</ele>
        <time>2011-04-17T13:32:08.000Z</time>
      </trkpt>
      <trkpt lat="48.71839" lon="2.03002">
        <ele>175</ele>
        <time>2011-04-17T13:32:13.000Z</time>
      </trkpt>
      <trkpt lat="48.71846" lon="2.02999">
        <ele>177.60000610352</ele>
        <time>2011-04-17T13:32:19.000Z</time>
      </trkpt>
      <trkpt lat="48.71856" lon="2.02997">
        <ele>179.39999389648</ele>
        <time>2011-04-17T13:32:26.000Z</time>
      </trkpt>
      <trkpt lat="48.71863" lon="2.02998">
        <ele>179</ele>
        <time>2011-04-17T13:32:32.000Z</time>
      </trkpt>
      <trkpt lat="48.71873" lon="2.02997">
        <ele>180</ele>
        <time>2011-04-17T13:32:39.000Z</time>
      </trkpt>
      <trkpt lat="48.71876" lon="2.02997">
        <ele>179</ele>
        <time>2011-04-17T13:32:41.000Z</time>
      </trkpt>
      <trkpt lat="48.71885" lon="2.02995">
        <ele>180</ele>
        <time>2011-04-17T13:32:48.000Z</time>
      </trkpt>
      <trkpt lat="48.71887" lon="2.02995">
        <ele>179.39999389648</ele>
        <time>2011-04-17T13:32:49.000Z</time>
      </trkpt>
      <trkpt lat="48.71899" lon="2.02995">
        <ele>176.60000610352</ele>
        <time>2011-04-17T13:32:57.000Z</time>
      </trkpt>
      <trkpt lat="48.71907" lon="2.02994">
        <ele>174.60000610352</ele>
        <time>2011-04-17T13:33:03.000Z</time>
      </trkpt>
      <trkpt lat="48.71917" lon="2.02991">
        <ele>175</ele>
        <time>2011-04-17T13:33:10.000Z</time>
      </trkpt>
      <trkpt lat="48.71928" lon="2.02991">
        <ele>175</ele>
        <time>2011-04-17T13:33:17.000Z</time>
      </trkpt>
      <trkpt lat="48.71933" lon="2.02989">
        <ele>175.60000610352</ele>
        <time>2011-04-17T13:33:22.000Z</time>
      </trkpt>
      <trkpt lat="48.7194" lon="2.02986">
        <ele>177</ele>
        <time>2011-04-17T13:33:28.000Z</time>
      </trkpt>
      <trkpt lat="48.71945" lon="2.02985">
        <ele>176.60000610352</ele>
        <time>2011-04-17T13:33:32.000Z</time>
      </trkpt>
      <trkpt lat="48.71951" lon="2.02986">
        <ele>175.60000610352</ele>
        <time>2011-04-17T13:33:36.000Z</time>
      </trkpt>
      <trkpt lat="48.71964" lon="2.02987">
        <ele>172.19999694824</ele>
        <time>2011-04-17T13:33:44.000Z</time>
      </trkpt>
      <trkpt lat="48.71972" lon="2.02986">
        <ele>172.60000610352</ele>
        <time>2011-04-17T13:33:49.000Z</time>
      </trkpt>
      <trkpt lat="48.71983" lon="2.0298">
        <ele>173.60000610352</ele>
        <time>2011-04-17T13:33:58.000Z</time>
      </trkpt>
      <trkpt lat="48.71994" lon="2.02979">
        <ele>173.19999694824</ele>
        <time>2011-04-17T13:34:05.000Z</time>
      </trkpt>
      <trkpt lat="48.72003" lon="2.02977">
        <ele>173.60000610352</ele>
        <time>2011-04-17T13:34:12.000Z</time>
      </trkpt>
      <trkpt lat="48.72014" lon="2.02976">
        <ele>172.19999694824</ele>
        <time>2011-04-17T13:34:18.000Z</time>
      </trkpt>
      <trkpt lat="48.72021" lon="2.02975">
        <ele>173.19999694824</ele>
        <time>2011-04-17T13:34:24.000Z</time>
      </trkpt>
      <trkpt lat="48.72022" lon="2.02975">
        <ele>173.19999694824</ele>
        <time>2011-04-17T13:34:25.000Z</time>
      </trkpt>
      <trkpt lat="48.72027" lon="2.02972">
        <ele>174.60000610352</ele>
        <time>2011-04-17T13:35:16.000Z</time>
      </trkpt>
      <trkpt lat="48.7203" lon="2.02973">
        <ele>173.60000610352</ele>
        <time>2011-04-17T13:35:19.000Z</time>
      </trkpt>
      <trkpt lat="48.7204" lon="2.0297">
        <ele>172.19999694824</ele>
        <time>2011-04-17T13:35:26.000Z</time>
      </trkpt>
      <trkpt lat="48.72049" lon="2.02967">
        <ele>171.80000305176</ele>
        <time>2011-04-17T13:35:33.000Z</time>
      </trkpt>
      <trkpt lat="48.72051" lon="2.02967">
        <ele>171.80000305176</ele>
        <time>2011-04-17T13:35:35.000Z</time>
      </trkpt>
      <trkpt lat="48.72055" lon="2.02968">
        <ele>170.80000305176</ele>
        <time>2011-04-17T13:35:38.000Z</time>
      </trkpt>
      <trkpt lat="48.72059" lon="2.02967">
        <ele>171.19999694824</ele>
        <time>2011-04-17T13:35:42.000Z</time>
      </trkpt>
      <trkpt lat="48.72072" lon="2.02964">
        <ele>171.19999694824</ele>
        <time>2011-04-17T13:35:49.000Z</time>
      </trkpt>
      <trkpt lat="48.72082" lon="2.0296">
        <ele>171.80000305176</ele>
        <time>2011-04-17T13:35:56.000Z</time>
      </trkpt>
      <trkpt lat="48.72095" lon="2.02954">
        <ele>173.19999694824</ele>
        <time>2011-04-17T13:36:04.000Z</time>
      </trkpt>
      <trkpt lat="48.72106" lon="2.02949">
        <ele>171.19999694824</ele>
        <time>2011-04-17T13:36:11.000Z</time>
      </trkpt>
      <trkpt lat="48.72113" lon="2.02945">
        <ele>170.80000305176</ele>
        <time>2011-04-17T13:36:17.000Z</time>
      </trkpt>
      <trkpt lat="48.72127" lon="2.02942">
        <ele>169.39999389648</ele>
        <time>2011-04-17T13:36:25.000Z</time>
      </trkpt>
      <trkpt lat="48.72141" lon="2.02938">
        <ele>169.39999389648</ele>
        <time>2011-04-17T13:36:34.000Z</time>
      </trkpt>
      <trkpt lat="48.72149" lon="2.02936">
        <ele>169.80000305176</ele>
        <time>2011-04-17T13:36:39.000Z</time>
      </trkpt>
      <trkpt lat="48.72159" lon="2.02934">
        <ele>170.80000305176</ele>
        <time>2011-04-17T13:36:44.000Z</time>
      </trkpt>
      <trkpt lat="48.72168" lon="2.0293">
        <ele>173.19999694824</ele>
        <time>2011-04-17T13:36:50.000Z</time>
      </trkpt>
      <trkpt lat="48.72178" lon="2.02927">
        <ele>173.19999694824</ele>
        <time>2011-04-17T13:36:57.000Z</time>
      </trkpt>
      <trkpt lat="48.72185" lon="2.02922">
        <ele>171.80000305176</ele>
        <time>2011-04-17T13:37:04.000Z</time>
      </trkpt>
      <trkpt lat="48.72189" lon="2.0292">
        <ele>169.39999389648</ele>
        <time>2011-04-17T13:37:09.000Z</time>
      </trkpt>
      <trkpt lat="48.72193" lon="2.02919">
        <ele>168.80000305176</ele>
        <time>2011-04-17T13:37:16.000Z</time>
      </trkpt>
      <trkpt lat="48.72229" lon="2.02916">
        <ele>169.80000305176</ele>
        <time>2011-04-17T13:38:36.000Z</time>
      </trkpt>
      <trkpt lat="48.72231" lon="2.02917">
        <ele>168.80000305176</ele>
        <time>2011-04-17T13:38:38.000Z</time>
      </trkpt>
      <trkpt lat="48.72238" lon="2.02918">
        <ele>167.80000305176</ele>
        <time>2011-04-17T13:38:42.000Z</time>
      </trkpt>
      <trkpt lat="48.72254" lon="2.02921">
        <ele>161.60000610352</ele>
        <time>2011-04-17T13:38:51.000Z</time>
      </trkpt>
      <trkpt lat="48.72263" lon="2.02919">
        <ele>159.80000305176</ele>
        <time>2011-04-17T13:38:59.000Z</time>
      </trkpt>
      <trkpt lat="48.72264" lon="2.02918">
        <ele>159.80000305176</ele>
        <time>2011-04-17T13:39:01.000Z</time>
      </trkpt>
      <trkpt lat="48.72271" lon="2.02913">
        <ele>161.60000610352</ele>
        <time>2011-04-17T13:39:09.000Z</time>
      </trkpt>
      <trkpt lat="48.72274" lon="2.0291">
        <ele>161.60000610352</ele>
        <time>2011-04-17T13:39:12.000Z</time>
      </trkpt>
      <trkpt lat="48.72275" lon="2.02906">
        <ele>161.60000610352</ele>
        <time>2011-04-17T13:39:17.000Z</time>
      </trkpt>
      <trkpt lat="48.72275" lon="2.02906">
        <ele>161.19999694824</ele>
        <time>2011-04-17T13:39:19.000Z</time>
      </trkpt>
      <trkpt lat="48.72271" lon="2.02895">
        <ele>161.60000610352</ele>
        <time>2011-04-17T13:39:28.000Z</time>
      </trkpt>
      <trkpt lat="48.72273" lon="2.02887">
        <ele>159.19999694824</ele>
        <time>2011-04-17T13:39:32.000Z</time>
      </trkpt>
      <trkpt lat="48.72277" lon="2.0288">
        <ele>159.80000305176</ele>
        <time>2011-04-17T13:39:36.000Z</time>
      </trkpt>
      <trkpt lat="48.72278" lon="2.02866">
        <ele>159.19999694824</ele>
        <time>2011-04-17T13:39:44.000Z</time>
      </trkpt>
      <trkpt lat="48.72286" lon="2.02855">
        <ele>157.80000305176</ele>
        <time>2011-04-17T13:39:51.000Z</time>
      </trkpt>
      <trkpt lat="48.72293" lon="2.02849">
        <ele>153.39999389648</ele>
        <time>2011-04-17T13:39:57.000Z</time>
      </trkpt>
      <trkpt lat="48.72298" lon="2.02844">
        <ele>152</ele>
        <time>2011-04-17T13:40:02.000Z</time>
      </trkpt>
      <trkpt lat="48.72304" lon="2.0284">
        <ele>152.60000610352</ele>
        <time>2011-04-17T13:40:07.000Z</time>
      </trkpt>
      <trkpt lat="48.72309" lon="2.02834">
        <ele>152</ele>
        <time>2011-04-17T13:40:13.000Z</time>
      </trkpt>
      <trkpt lat="48.72314" lon="2.0283">
        <ele>152.60000610352</ele>
        <time>2011-04-17T13:40:18.000Z</time>
      </trkpt>
      <trkpt lat="48.72323" lon="2.02824">
        <ele>153</ele>
        <time>2011-04-17T13:40:24.000Z</time>
      </trkpt>
      <trkpt lat="48.72332" lon="2.02819">
        <ele>155</ele>
        <time>2011-04-17T13:40:30.000Z</time>
      </trkpt>
      <trkpt lat="48.72339" lon="2.02817">
        <ele>154</ele>
        <time>2011-04-17T13:40:36.000Z</time>
      </trkpt>
      <trkpt lat="48.72345" lon="2.02815">
        <ele>151.60000610352</ele>
        <time>2011-04-17T13:40:41.000Z</time>
      </trkpt>
      <trkpt lat="48.72349" lon="2.02813">
        <ele>152</ele>
        <time>2011-04-17T13:40:44.000Z</time>
      </trkpt>
      <trkpt lat="48.72358" lon="2.02811">
        <ele>153.39999389648</ele>
        <time>2011-04-17T13:40:49.000Z</time>
      </trkpt>
      <trkpt lat="48.72368" lon="2.0281">
        <ele>153</ele>
        <time>2011-04-17T13:40:55.000Z</time>
      </trkpt>
      <trkpt lat="48.72375" lon="2.02805">
        <ele>152</ele>
        <time>2011-04-17T13:41:01.000Z</time>
      </trkpt>
      <trkpt lat="48.72382" lon="2.02794">
        <ele>146.19999694824</ele>
        <time>2011-04-17T13:41:09.000Z</time>
      </trkpt>
      <trkpt lat="48.72387" lon="2.02784">
        <ele>147.19999694824</ele>
        <time>2011-04-17T13:41:15.000Z</time>
      </trkpt>
      <trkpt lat="48.72396" lon="2.02775">
        <ele>149.60000610352</ele>
        <time>2011-04-17T13:41:21.000Z</time>
      </trkpt>
      <trkpt lat="48.72397" lon="2.02774">
        <ele>148.60000610352</ele>
        <time>2011-04-17T13:41:22.000Z</time>
      </trkpt>
      <trkpt lat="48.72404" lon="2.02765">
        <ele>148.19999694824</ele>
        <time>2011-04-17T13:41:28.000Z</time>
      </trkpt>
      <trkpt lat="48.72412" lon="2.02757">
        <ele>144.80000305176</ele>
        <time>2011-04-17T13:41:35.000Z</time>
      </trkpt>
      <trkpt lat="48.7242" lon="2.02751">
        <ele>142</ele>
        <time>2011-04-17T13:41:41.000Z</time>
      </trkpt>
      <trkpt lat="48.72429" lon="2.02742">
        <ele>142</ele>
        <time>2011-04-17T13:41:47.000Z</time>
      </trkpt>
      <trkpt lat="48.72434" lon="2.0274">
        <ele>139.60000610352</ele>
        <time>2011-04-17T13:41:51.000Z</time>
      </trkpt>
      <trkpt lat="48.72442" lon="2.02728">
        <ele>140</ele>
        <time>2011-04-17T13:41:59.000Z</time>
      </trkpt>
      <trkpt lat="48.72453" lon="2.02718">
        <ele>136.19999694824</ele>
        <time>2011-04-17T13:42:09.000Z</time>
      </trkpt>
      <trkpt lat="48.72463" lon="2.02714">
        <ele>132.39999389648</ele>
        <time>2011-04-17T13:42:15.000Z</time>
      </trkpt>
      <trkpt lat="48.72465" lon="2.02713">
        <ele>132.39999389648</ele>
        <time>2011-04-17T13:42:16.000Z</time>
      </trkpt>
      <trkpt lat="48.72473" lon="2.02709">
        <ele>130.39999389648</ele>
        <time>2011-04-17T13:42:22.000Z</time>
      </trkpt>
      <trkpt lat="48.72485" lon="2.02701">
        <ele>126.59999847412</ele>
        <time>2011-04-17T13:42:30.000Z</time>
      </trkpt>
      <trkpt lat="48.72495" lon="2.02695">
        <ele>126</ele>
        <time>2011-04-17T13:42:37.000Z</time>
      </trkpt>
      <trkpt lat="48.72503" lon="2.02694">
        <ele>129</ele>
        <time>2011-04-17T13:42:43.000Z</time>
      </trkpt>
      <trkpt lat="48.72506" lon="2.02694">
        <ele>129</ele>
        <time>2011-04-17T13:42:45.000Z</time>
      </trkpt>
      <trkpt lat="48.72515" lon="2.02691">
        <ele>133.80000305176</ele>
        <time>2011-04-17T13:42:50.000Z</time>
      </trkpt>
      <trkpt lat="48.72525" lon="2.02691">
        <ele>136.19999694824</ele>
        <time>2011-04-17T13:42:55.000Z</time>
      </trkpt>
      <trkpt lat="48.72536" lon="2.02687">
        <ele>138.60000610352</ele>
        <time>2011-04-17T13:43:03.000Z</time>
      </trkpt>
      <trkpt lat="48.72537" lon="2.02685">
        <ele>136.19999694824</ele>
        <time>2011-04-17T13:43:05.000Z</time>
      </trkpt>
      <trkpt lat="48.72544" lon="2.02686">
        <ele>134.80000305176</ele>
        <time>2011-04-17T13:43:11.000Z</time>
      </trkpt>
      <trkpt lat="48.72547" lon="2.02681">
        <ele>135.60000610352</ele>
        <time>2011-04-17T13:43:16.000Z</time>
      </trkpt>
      <trkpt lat="48.72544" lon="2.02664">
        <ele>130</ele>
        <time>2011-04-17T13:43:22.000Z</time>
      </trkpt>
      <trkpt lat="48.72546" lon="2.02667">
        <ele>129.39999389648</ele>
        <time>2011-04-17T13:43:25.000Z</time>
      </trkpt>
      <trkpt lat="48.72557" lon="2.02669">
        <ele>126</ele>
        <time>2011-04-17T13:43:32.000Z</time>
      </trkpt>
      <trkpt lat="48.72568" lon="2.02668">
        <ele>124.59999847412</ele>
        <time>2011-04-17T13:43:39.000Z</time>
      </trkpt>
      <trkpt lat="48.72569" lon="2.02665">
        <ele>123.19999694824</ele>
        <time>2011-04-17T13:43:42.000Z</time>
      </trkpt>
      <trkpt lat="48.72573" lon="2.02661">
        <ele>122.80000305176</ele>
        <time>2011-04-17T13:43:47.000Z</time>
      </trkpt>
      <trkpt lat="48.72582" lon="2.02659">
        <ele>123.19999694824</ele>
        <time>2011-04-17T13:43:53.000Z</time>
      </trkpt>
      <trkpt lat="48.72596" lon="2.02652">
        <ele>123.59999847412</ele>
        <time>2011-04-17T13:44:02.000Z</time>
      </trkpt>
      <trkpt lat="48.72599" lon="2.02651">
        <ele>121.80000305176</ele>
        <time>2011-04-17T13:44:05.000Z</time>
      </trkpt>
      <trkpt lat="48.72599" lon="2.02649">
        <ele>120.80000305176</ele>
        <time>2011-04-17T13:44:08.000Z</time>
      </trkpt>
      <trkpt lat="48.72607" lon="2.02644">
        <ele>120.80000305176</ele>
        <time>2011-04-17T13:44:11.000Z</time>
      </trkpt>
      <trkpt lat="48.72617" lon="2.02638">
        <ele>122.80000305176</ele>
        <time>2011-04-17T13:44:19.000Z</time>
      </trkpt>
      <trkpt lat="48.72626" lon="2.02632">
        <ele>123.19999694824</ele>
        <time>2011-04-17T13:44:26.000Z</time>
      </trkpt>
      <trkpt lat="48.72629" lon="2.02629">
        <ele>123.59999847412</ele>
        <time>2011-04-17T13:44:28.000Z</time>
      </trkpt>
      <trkpt lat="48.7264" lon="2.02621">
        <ele>123.59999847412</ele>
        <time>2011-04-17T13:44:36.000Z</time>
      </trkpt>
      <trkpt lat="48.72648" lon="2.02615">
        <ele>121.19999694824</ele>
        <time>2011-04-17T13:44:41.000Z</time>
      </trkpt>
      <trkpt lat="48.72659" lon="2.02605">
        <ele>118.80000305176</ele>
        <time>2011-04-17T13:44:49.000Z</time>
      </trkpt>
      <trkpt lat="48.72664" lon="2.02597">
        <ele>117.40000152588</ele>
        <time>2011-04-17T13:44:54.000Z</time>
      </trkpt>
      <trkpt lat="48.72669" lon="2.02588">
        <ele>117</ele>
        <time>2011-04-17T13:44:59.000Z</time>
      </trkpt>
      <trkpt lat="48.72679" lon="2.02577">
        <ele>117.80000305176</ele>
        <time>2011-04-17T13:45:06.000Z</time>
      </trkpt>
      <trkpt lat="48.72686" lon="2.02568">
        <ele>117.40000152588</ele>
        <time>2011-04-17T13:45:12.000Z</time>
      </trkpt>
      <trkpt lat="48.72695" lon="2.02557">
        <ele>112.19999694824</ele>
        <time>2011-04-17T13:45:19.000Z</time>
      </trkpt>
      <trkpt lat="48.72704" lon="2.02547">
        <ele>111.59999847412</ele>
        <time>2011-04-17T13:45:26.000Z</time>
      </trkpt>
      <trkpt lat="48.7271" lon="2.0254">
        <ele>112.59999847412</ele>
        <time>2011-04-17T13:45:31.000Z</time>
      </trkpt>
      <trkpt lat="48.72719" lon="2.02538">
        <ele>112.19999694824</ele>
        <time>2011-04-17T13:45:37.000Z</time>
      </trkpt>
      <trkpt lat="48.72723" lon="2.02545">
        <ele>111.19999694824</ele>
        <time>2011-04-17T13:45:43.000Z</time>
      </trkpt>
      <trkpt lat="48.72723" lon="2.02545">
        <ele>111.19999694824</ele>
        <time>2011-04-17T13:45:44.000Z</time>
      </trkpt>
      <trkpt lat="48.72733" lon="2.02562">
        <ele>109.19999694824</ele>
        <time>2011-04-17T13:46:12.000Z</time>
      </trkpt>
      <trkpt lat="48.72739" lon="2.02572">
        <ele>108.19999694824</ele>
        <time>2011-04-17T13:46:18.000Z</time>
      </trkpt>
      <trkpt lat="48.72744" lon="2.02573">
        <ele>107.80000305176</ele>
        <time>2011-04-17T13:46:22.000Z</time>
      </trkpt>
      <trkpt lat="48.72755" lon="2.02582">
        <ele>106.40000152588</ele>
        <time>2011-04-17T13:46:30.000Z</time>
      </trkpt>
      <trkpt lat="48.72762" lon="2.0259">
        <ele>105.40000152588</ele>
        <time>2011-04-17T13:46:36.000Z</time>
      </trkpt>
      <trkpt lat="48.72774" lon="2.02601">
        <ele>105</ele>
        <time>2011-04-17T13:46:45.000Z</time>
      </trkpt>
      <trkpt lat="48.72783" lon="2.0261">
        <ele>105</ele>
        <time>2011-04-17T13:46:52.000Z</time>
      </trkpt>
      <trkpt lat="48.72791" lon="2.02618">
        <ele>105</ele>
        <time>2011-04-17T13:47:00.000Z</time>
      </trkpt>
      <trkpt lat="48.72803" lon="2.02631">
        <ele>104.40000152588</ele>
        <time>2011-04-17T13:47:10.000Z</time>
      </trkpt>
      <trkpt lat="48.72817" lon="2.02646">
        <ele>104.40000152588</ele>
        <time>2011-04-17T13:47:22.000Z</time>
      </trkpt>
      <trkpt lat="48.7283" lon="2.02659">
        <ele>103.40000152588</ele>
        <time>2011-04-17T13:47:33.000Z</time>
      </trkpt>
      <trkpt lat="48.72836" lon="2.02665">
        <ele>104</ele>
        <time>2011-04-17T13:47:41.000Z</time>
      </trkpt>
      <trkpt lat="48.72841" lon="2.02671">
        <ele>103.40000152588</ele>
        <time>2011-04-17T13:47:51.000Z</time>
      </trkpt>
      <trkpt lat="48.7285" lon="2.0268">
        <ele>102.59999847412</ele>
        <time>2011-04-17T13:47:57.000Z</time>
      </trkpt>
      <trkpt lat="48.72862" lon="2.02694">
        <ele>101.59999847412</ele>
        <time>2011-04-17T13:48:07.000Z</time>
      </trkpt>
      <trkpt lat="48.72871" lon="2.02705">
        <ele>101.59999847412</ele>
        <time>2011-04-17T13:48:14.000Z</time>
      </trkpt>
      <trkpt lat="48.72883" lon="2.02717">
        <ele>100.59999847412</ele>
        <time>2011-04-17T13:48:23.000Z</time>
      </trkpt>
      <trkpt lat="48.72894" lon="2.02728">
        <ele>99.599998474121</ele>
        <time>2011-04-17T13:48:31.000Z</time>
      </trkpt>
      <trkpt lat="48.72903" lon="2.02735">
        <ele>100.59999847412</ele>
        <time>2011-04-17T13:48:38.000Z</time>
      </trkpt>
      <trkpt lat="48.72913" lon="2.02744">
        <ele>101</ele>
        <time>2011-04-17T13:48:46.000Z</time>
      </trkpt>
      <trkpt lat="48.7292" lon="2.0275">
        <ele>101</ele>
        <time>2011-04-17T13:48:52.000Z</time>
      </trkpt>
      <trkpt lat="48.7293" lon="2.02758">
        <ele>103</ele>
        <time>2011-04-17T13:49:00.000Z</time>
      </trkpt>
      <trkpt lat="48.72941" lon="2.02767">
        <ele>104.40000152588</ele>
        <time>2011-04-17T13:49:09.000Z</time>
      </trkpt>
      <trkpt lat="48.7295" lon="2.02778">
        <ele>105</ele>
        <time>2011-04-17T13:49:18.000Z</time>
      </trkpt>
      <trkpt lat="48.72955" lon="2.0279">
        <ele>105.40000152588</ele>
        <time>2011-04-17T13:49:26.000Z</time>
      </trkpt>
      <trkpt lat="48.72959" lon="2.02806">
        <ele>106.80000305176</ele>
        <time>2011-04-17T13:49:34.000Z</time>
      </trkpt>
      <trkpt lat="48.72961" lon="2.02816">
        <ele>107.80000305176</ele>
        <time>2011-04-17T13:49:40.000Z</time>
      </trkpt>
      <trkpt lat="48.72963" lon="2.02818">
        <ele>107.80000305176</ele>
        <time>2011-04-17T13:49:42.000Z</time>
      </trkpt>
      <trkpt lat="48.72973" lon="2.02814">
        <ele>109.19999694824</ele>
        <time>2011-04-17T13:49:51.000Z</time>
      </trkpt>
      <trkpt lat="48.72979" lon="2.02804">
        <ele>105.80000305176</ele>
        <time>2011-04-17T13:49:59.000Z</time>
      </trkpt>
      <trkpt lat="48.72987" lon="2.02794">
        <ele>105.40000152588</ele>
        <time>2011-04-17T13:50:07.000Z</time>
      </trkpt>
      <trkpt lat="48.72997" lon="2.02785">
        <ele>105</ele>
        <time>2011-04-17T13:50:16.000Z</time>
      </trkpt>
      <trkpt lat="48.73008" lon="2.02779">
        <ele>104</ele>
        <time>2011-04-17T13:50:24.000Z</time>
      </trkpt>
      <trkpt lat="48.73019" lon="2.02775">
        <ele>103.40000152588</ele>
        <time>2011-04-17T13:50:32.000Z</time>
      </trkpt>
      <trkpt lat="48.73027" lon="2.02769">
        <ele>103</ele>
        <time>2011-04-17T13:50:38.000Z</time>
      </trkpt>
      <trkpt lat="48.73033" lon="2.02757">
        <ele>103</ele>
        <time>2011-04-17T13:50:45.000Z</time>
      </trkpt>
      <trkpt lat="48.73038" lon="2.02742">
        <ele>103</ele>
        <time>2011-04-17T13:50:52.000Z</time>
      </trkpt>
      <trkpt lat="48.73046" lon="2.02732">
        <ele>103.40000152588</ele>
        <time>2011-04-17T13:50:59.000Z</time>
      </trkpt>
      <trkpt lat="48.73053" lon="2.02718">
        <ele>104</ele>
        <time>2011-04-17T13:51:07.000Z</time>
      </trkpt>
      <trkpt lat="48.73063" lon="2.02707">
        <ele>104</ele>
        <time>2011-04-17T13:51:16.000Z</time>
      </trkpt>
      <trkpt lat="48.7307" lon="2.02699">
        <ele>104</ele>
        <time>2011-04-17T13:51:22.000Z</time>
      </trkpt>
      <trkpt lat="48.73074" lon="2.02695">
        <ele>104.40000152588</ele>
        <time>2011-04-17T13:51:25.000Z</time>
      </trkpt>
      <trkpt lat="48.73083" lon="2.02685">
        <ele>105.40000152588</ele>
        <time>2011-04-17T13:51:33.000Z</time>
      </trkpt>
      <trkpt lat="48.73091" lon="2.02673">
        <ele>105.80000305176</ele>
        <time>2011-04-17T13:51:41.000Z</time>
      </trkpt>
      <trkpt lat="48.73101" lon="2.02663">
        <ele>105.80000305176</ele>
        <time>2011-04-17T13:51:49.000Z</time>
      </trkpt>
      <trkpt lat="48.73103" lon="2.0266">
        <ele>105.80000305176</ele>
        <time>2011-04-17T13:51:51.000Z</time>
      </trkpt>
      <trkpt lat="48.73111" lon="2.02656">
        <ele>105.80000305176</ele>
        <time>2011-04-17T13:51:56.000Z</time>
      </trkpt>
      <trkpt lat="48.73116" lon="2.02651">
        <ele>105</ele>
        <time>2011-04-17T13:52:00.000Z</time>
      </trkpt>
      <trkpt lat="48.73123" lon="2.02643">
        <ele>104</ele>
        <time>2011-04-17T13:52:06.000Z</time>
      </trkpt>
      <trkpt lat="48.73128" lon="2.0264">
        <ele>104</ele>
        <time>2011-04-17T13:52:09.000Z</time>
      </trkpt>
      <trkpt lat="48.73141" lon="2.02624">
        <ele>105</ele>
        <time>2011-04-17T13:52:20.000Z</time>
      </trkpt>
      <trkpt lat="48.73146" lon="2.02615">
        <ele>106.40000152588</ele>
        <time>2011-04-17T13:52:26.000Z</time>
      </trkpt>
      <trkpt lat="48.73148" lon="2.02612">
        <ele>106.80000305176</ele>
        <time>2011-04-17T13:52:28.000Z</time>
      </trkpt>
      <trkpt lat="48.73153" lon="2.02605">
        <ele>108.80000305176</ele>
        <time>2011-04-17T13:52:33.000Z</time>
      </trkpt>
      <trkpt lat="48.7316" lon="2.02596">
        <ele>107.80000305176</ele>
        <time>2011-04-17T13:52:39.000Z</time>
      </trkpt>
      <trkpt lat="48.7317" lon="2.02584">
        <ele>106.40000152588</ele>
        <time>2011-04-17T13:52:47.000Z</time>
      </trkpt>
      <trkpt lat="48.73176" lon="2.02572">
        <ele>105.40000152588</ele>
        <time>2011-04-17T13:52:54.000Z</time>
      </trkpt>
      <trkpt lat="48.73182" lon="2.02567">
        <ele>104.40000152588</ele>
        <time>2011-04-17T13:52:58.000Z</time>
      </trkpt>
      <trkpt lat="48.73193" lon="2.02555">
        <ele>105.80000305176</ele>
        <time>2011-04-17T13:53:06.000Z</time>
      </trkpt>
      <trkpt lat="48.73202" lon="2.02544">
        <ele>107.40000152588</ele>
        <time>2011-04-17T13:53:13.000Z</time>
      </trkpt>
      <trkpt lat="48.7321" lon="2.02531">
        <ele>105.80000305176</ele>
        <time>2011-04-17T13:53:21.000Z</time>
      </trkpt>
      <trkpt lat="48.73212" lon="2.02528">
        <ele>105.80000305176</ele>
        <time>2011-04-17T13:53:23.000Z</time>
      </trkpt>
      <trkpt lat="48.73223" lon="2.02518">
        <ele>109.80000305176</ele>
        <time>2011-04-17T13:53:31.000Z</time>
      </trkpt>
      <trkpt lat="48.73231" lon="2.02512">
        <ele>110.19999694824</ele>
        <time>2011-04-17T13:53:38.000Z</time>
      </trkpt>
      <trkpt lat="48.7324" lon="2.02502">
        <ele>108.80000305176</ele>
        <time>2011-04-17T13:53:45.000Z</time>
      </trkpt>
      <trkpt lat="48.73247" lon="2.02495">
        <ele>107.80000305176</ele>
        <time>2011-04-17T13:53:51.000Z</time>
      </trkpt>
      <trkpt lat="48.73255" lon="2.02487">
        <ele>106.40000152588</ele>
        <time>2011-04-17T13:53:57.000Z</time>
      </trkpt>
      <trkpt lat="48.73261" lon="2.02477">
        <ele>105.40000152588</ele>
        <time>2011-04-17T13:54:03.000Z</time>
      </trkpt>
      <trkpt lat="48.73264" lon="2.02473">
        <ele>105.80000305176</ele>
        <time>2011-04-17T13:54:06.000Z</time>
      </trkpt>
      <trkpt lat="48.73277" lon="2.02471">
        <ele>109.19999694824</ele>
        <time>2011-04-17T13:54:14.000Z</time>
      </trkpt>
      <trkpt lat="48.7329" lon="2.02463">
        <ele>114.59999847412</ele>
        <time>2011-04-17T13:54:23.000Z</time>
      </trkpt>
      <trkpt lat="48.73297" lon="2.0246">
        <ele>113</ele>
        <time>2011-04-17T13:54:28.000Z</time>
      </trkpt>
      <trkpt lat="48.73299" lon="2.02458">
        <ele>112.19999694824</ele>
        <time>2011-04-17T13:54:30.000Z</time>
      </trkpt>
      <trkpt lat="48.73311" lon="2.02449">
        <ele>111.19999694824</ele>
        <time>2011-04-17T13:54:39.000Z</time>
      </trkpt>
      <trkpt lat="48.73319" lon="2.02442">
        <ele>110.59999847412</ele>
        <time>2011-04-17T13:54:45.000Z</time>
      </trkpt>
      <trkpt lat="48.73329" lon="2.02431">
        <ele>110.59999847412</ele>
        <time>2011-04-17T13:54:54.000Z</time>
      </trkpt>
      <trkpt lat="48.73339" lon="2.02421">
        <ele>110.19999694824</ele>
        <time>2011-04-17T13:55:02.000Z</time>
      </trkpt>
      <trkpt lat="48.73352" lon="2.02413">
        <ele>109.80000305176</ele>
        <time>2011-04-17T13:55:11.000Z</time>
      </trkpt>
      <trkpt lat="48.73363" lon="2.02408">
        <ele>108.19999694824</ele>
        <time>2011-04-17T13:55:19.000Z</time>
      </trkpt>
      <trkpt lat="48.73378" lon="2.02397">
        <ele>106.80000305176</ele>
        <time>2011-04-17T13:55:30.000Z</time>
      </trkpt>
      <trkpt lat="48.73387" lon="2.02388">
        <ele>106.80000305176</ele>
        <time>2011-04-17T13:55:37.000Z</time>
      </trkpt>
      <trkpt lat="48.73396" lon="2.0238">
        <ele>105.80000305176</ele>
        <time>2011-04-17T13:55:44.000Z</time>
      </trkpt>
      <trkpt lat="48.73397" lon="2.02379">
        <ele>105.40000152588</ele>
        <time>2011-04-17T13:55:45.000Z</time>
      </trkpt>
      <trkpt lat="48.73404" lon="2.02369">
        <ele>105.80000305176</ele>
        <time>2011-04-17T13:55:51.000Z</time>
      </trkpt>
      <trkpt lat="48.73406" lon="2.02367">
        <ele>105.80000305176</ele>
        <time>2011-04-17T13:55:52.000Z</time>
      </trkpt>
      <trkpt lat="48.73413" lon="2.02356">
        <ele>105.80000305176</ele>
        <time>2011-04-17T13:55:59.000Z</time>
      </trkpt>
      <trkpt lat="48.73414" lon="2.02351">
        <ele>105.80000305176</ele>
        <time>2011-04-17T13:56:04.000Z</time>
      </trkpt>
      <trkpt lat="48.73419" lon="2.02357">
        <ele>105.80000305176</ele>
        <time>2011-04-17T13:57:53.000Z</time>
      </trkpt>
      <trkpt lat="48.73421" lon="2.02361">
        <ele>104.40000152588</ele>
        <time>2011-04-17T13:57:58.000Z</time>
      </trkpt>
      <trkpt lat="48.73421" lon="2.02366">
        <ele>106.40000152588</ele>
        <time>2011-04-17T13:58:03.000Z</time>
      </trkpt>
      <trkpt lat="48.73423" lon="2.02373">
        <ele>105.40000152588</ele>
        <time>2011-04-17T13:58:08.000Z</time>
      </trkpt>
      <trkpt lat="48.73424" lon="2.0238">
        <ele>105.40000152588</ele>
        <time>2011-04-17T13:58:14.000Z</time>
      </trkpt>
      <trkpt lat="48.73424" lon="2.02384">
        <ele>108.19999694824</ele>
        <time>2011-04-17T13:58:18.000Z</time>
      </trkpt>
      <trkpt lat="48.73425" lon="2.0239">
        <ele>107.80000305176</ele>
        <time>2011-04-17T13:58:23.000Z</time>
      </trkpt>
      <trkpt lat="48.73424" lon="2.024">
        <ele>106.40000152588</ele>
        <time>2011-04-17T13:58:30.000Z</time>
      </trkpt>
      <trkpt lat="48.73424" lon="2.02405">
        <ele>109.80000305176</ele>
        <time>2011-04-17T13:58:33.000Z</time>
      </trkpt>
      <trkpt lat="48.73422" lon="2.02413">
        <ele>108.19999694824</ele>
        <time>2011-04-17T13:58:38.000Z</time>
      </trkpt>
      <trkpt lat="48.7342" lon="2.02419">
        <ele>107.80000305176</ele>
        <time>2011-04-17T13:58:43.000Z</time>
      </trkpt>
      <trkpt lat="48.73417" lon="2.02429">
        <ele>105</ele>
        <time>2011-04-17T13:58:49.000Z</time>
      </trkpt>
      <trkpt lat="48.73416" lon="2.02436">
        <ele>107.80000305176</ele>
        <time>2011-04-17T13:58:55.000Z</time>
      </trkpt>
      <trkpt lat="48.73415" lon="2.02436">
        <ele>110.19999694824</ele>
        <time>2011-04-17T13:58:58.000Z</time>
      </trkpt>
      <trkpt lat="48.73404" lon="2.02456">
        <ele>109.80000305176</ele>
        <time>2011-04-17T13:59:23.000Z</time>
      </trkpt>
      <trkpt lat="48.734" lon="2.02463">
        <ele>104.40000152588</ele>
        <time>2011-04-17T13:59:28.000Z</time>
      </trkpt>
      <trkpt lat="48.73397" lon="2.02471">
        <ele>100.59999847412</ele>
        <time>2011-04-17T13:59:34.000Z</time>
      </trkpt>
      <trkpt lat="48.73396" lon="2.02472">
        <ele>100.19999694824</ele>
        <time>2011-04-17T13:59:35.000Z</time>
      </trkpt>
      <trkpt lat="48.73393" lon="2.02479">
        <ele>101</ele>
        <time>2011-04-17T13:59:39.000Z</time>
      </trkpt>
      <trkpt lat="48.73389" lon="2.02488">
        <ele>100.19999694824</ele>
        <time>2011-04-17T13:59:45.000Z</time>
      </trkpt>
      <trkpt lat="48.73386" lon="2.02492">
        <ele>103</ele>
        <time>2011-04-17T13:59:48.000Z</time>
      </trkpt>
      <trkpt lat="48.73379" lon="2.025">
        <ele>100.59999847412</ele>
        <time>2011-04-17T13:59:55.000Z</time>
      </trkpt>
      <trkpt lat="48.73378" lon="2.02504">
        <ele>100.59999847412</ele>
        <time>2011-04-17T13:59:59.000Z</time>
      </trkpt>
      <trkpt lat="48.73372" lon="2.0251">
        <ele>102.59999847412</ele>
        <time>2011-04-17T14:00:05.000Z</time>
      </trkpt>
      <trkpt lat="48.73371" lon="2.02512">
        <ele>103</ele>
        <time>2011-04-17T14:00:07.000Z</time>
      </trkpt>
      <trkpt lat="48.73363" lon="2.02521">
        <ele>111.19999694824</ele>
        <time>2011-04-17T14:00:14.000Z</time>
      </trkpt>
      <trkpt lat="48.73359" lon="2.02526">
        <ele>109.19999694824</ele>
        <time>2011-04-17T14:00:19.000Z</time>
      </trkpt>
      <trkpt lat="48.73354" lon="2.02533">
        <ele>108.19999694824</ele>
        <time>2011-04-17T14:00:27.000Z</time>
      </trkpt>
      <trkpt lat="48.7335" lon="2.02538">
        <ele>108.19999694824</ele>
        <time>2011-04-17T14:00:32.000Z</time>
      </trkpt>
      <trkpt lat="48.73346" lon="2.02542">
        <ele>108.19999694824</ele>
        <time>2011-04-17T14:00:37.000Z</time>
      </trkpt>
      <trkpt lat="48.73341" lon="2.02548">
        <ele>105.80000305176</ele>
        <time>2011-04-17T14:00:43.000Z</time>
      </trkpt>
      <trkpt lat="48.73339" lon="2.02555">
        <ele>107.80000305176</ele>
        <time>2011-04-17T14:00:47.000Z</time>
      </trkpt>
      <trkpt lat="48.73332" lon="2.02562">
        <ele>107.40000152588</ele>
        <time>2011-04-17T14:00:54.000Z</time>
      </trkpt>
      <trkpt lat="48.73331" lon="2.02567">
        <ele>106.40000152588</ele>
        <time>2011-04-17T14:00:58.000Z</time>
      </trkpt>
      <trkpt lat="48.73324" lon="2.02576">
        <ele>108.19999694824</ele>
        <time>2011-04-17T14:01:06.000Z</time>
      </trkpt>
      <trkpt lat="48.73322" lon="2.02579">
        <ele>108.80000305176</ele>
        <time>2011-04-17T14:01:09.000Z</time>
      </trkpt>
      <trkpt lat="48.73316" lon="2.02583">
        <ele>109.80000305176</ele>
        <time>2011-04-17T14:01:15.000Z</time>
      </trkpt>
      <trkpt lat="48.73313" lon="2.02586">
        <ele>110.19999694824</ele>
        <time>2011-04-17T14:01:18.000Z</time>
      </trkpt>
      <trkpt lat="48.73311" lon="2.0259">
        <ele>112.19999694824</ele>
        <time>2011-04-17T14:01:22.000Z</time>
      </trkpt>
      <trkpt lat="48.73304" lon="2.02599">
        <ele>111.59999847412</ele>
        <time>2011-04-17T14:01:30.000Z</time>
      </trkpt>
      <trkpt lat="48.73302" lon="2.02606">
        <ele>113.59999847412</ele>
        <time>2011-04-17T14:01:35.000Z</time>
      </trkpt>
      <trkpt lat="48.73299" lon="2.02617">
        <ele>113</ele>
        <time>2011-04-17T14:01:42.000Z</time>
      </trkpt>
      <trkpt lat="48.73299" lon="2.02627">
        <ele>113.59999847412</ele>
        <time>2011-04-17T14:01:47.000Z</time>
      </trkpt>
      <trkpt lat="48.73298" lon="2.02637">
        <ele>114.59999847412</ele>
        <time>2011-04-17T14:01:51.000Z</time>
      </trkpt>
      <trkpt lat="48.73298" lon="2.02645">
        <ele>117.80000305176</ele>
        <time>2011-04-17T14:01:56.000Z</time>
      </trkpt>
      <trkpt lat="48.73298" lon="2.02653">
        <ele>117.40000152588</ele>
        <time>2011-04-17T14:02:02.000Z</time>
      </trkpt>
      <trkpt lat="48.73298" lon="2.02667">
        <ele>118.40000152588</ele>
        <time>2011-04-17T14:02:11.000Z</time>
      </trkpt>
      <trkpt lat="48.73298" lon="2.02667">
        <ele>119.40000152588</ele>
        <time>2011-04-17T14:02:12.000Z</time>
      </trkpt>
      <trkpt lat="48.73296" lon="2.02674">
        <ele>118.80000305176</ele>
        <time>2011-04-17T14:02:16.000Z</time>
      </trkpt>
      <trkpt lat="48.73294" lon="2.02687">
        <ele>117.80000305176</ele>
        <time>2011-04-17T14:02:22.000Z</time>
      </trkpt>
      <trkpt lat="48.73292" lon="2.02696">
        <ele>117.80000305176</ele>
        <time>2011-04-17T14:02:27.000Z</time>
      </trkpt>
      <trkpt lat="48.73288" lon="2.02706">
        <ele>123.59999847412</ele>
        <time>2011-04-17T14:02:33.000Z</time>
      </trkpt>
      <trkpt lat="48.73285" lon="2.02715">
        <ele>128</ele>
        <time>2011-04-17T14:02:39.000Z</time>
      </trkpt>
      <trkpt lat="48.73283" lon="2.02723">
        <ele>128</ele>
        <time>2011-04-17T14:02:44.000Z</time>
      </trkpt>
      <trkpt lat="48.73281" lon="2.02728">
        <ele>128</ele>
        <time>2011-04-17T14:02:48.000Z</time>
      </trkpt>
      <trkpt lat="48.73278" lon="2.02737">
        <ele>128</ele>
        <time>2011-04-17T14:02:54.000Z</time>
      </trkpt>
      <trkpt lat="48.73276" lon="2.02744">
        <ele>127.59999847412</ele>
        <time>2011-04-17T14:02:59.000Z</time>
      </trkpt>
      <trkpt lat="48.73275" lon="2.02749">
        <ele>127</ele>
        <time>2011-04-17T14:03:02.000Z</time>
      </trkpt>
      <trkpt lat="48.73271" lon="2.02757">
        <ele>125.59999847412</ele>
        <time>2011-04-17T14:03:09.000Z</time>
      </trkpt>
      <trkpt lat="48.73264" lon="2.02767">
        <ele>127</ele>
        <time>2011-04-17T14:03:15.000Z</time>
      </trkpt>
      <trkpt lat="48.73261" lon="2.02773">
        <ele>128.39999389648</ele>
        <time>2011-04-17T14:03:19.000Z</time>
      </trkpt>
      <trkpt lat="48.73258" lon="2.02778">
        <ele>128</ele>
        <time>2011-04-17T14:03:23.000Z</time>
      </trkpt>
      <trkpt lat="48.73254" lon="2.02789">
        <ele>130.39999389648</ele>
        <time>2011-04-17T14:03:30.000Z</time>
      </trkpt>
      <trkpt lat="48.73253" lon="2.02791">
        <ele>130.39999389648</ele>
        <time>2011-04-17T14:03:31.000Z</time>
      </trkpt>
      <trkpt lat="48.73253" lon="2.02794">
        <ele>130.39999389648</ele>
        <time>2011-04-17T14:03:33.000Z</time>
      </trkpt>
      <trkpt lat="48.73249" lon="2.02805">
        <ele>132.39999389648</ele>
        <time>2011-04-17T14:03:40.000Z</time>
      </trkpt>
      <trkpt lat="48.73247" lon="2.02808">
        <ele>133.19999694824</ele>
        <time>2011-04-17T14:03:42.000Z</time>
      </trkpt>
      <trkpt lat="48.73246" lon="2.02813">
        <ele>133.80000305176</ele>
        <time>2011-04-17T14:03:45.000Z</time>
      </trkpt>
      <trkpt lat="48.73244" lon="2.02827">
        <ele>134.19999694824</ele>
        <time>2011-04-17T14:03:52.000Z</time>
      </trkpt>
      <trkpt lat="48.73244" lon="2.02829">
        <ele>134.19999694824</ele>
        <time>2011-04-17T14:03:53.000Z</time>
      </trkpt>
      <trkpt lat="48.73244" lon="2.02831">
        <ele>133.80000305176</ele>
        <time>2011-04-17T14:03:55.000Z</time>
      </trkpt>
      <trkpt lat="48.73244" lon="2.02839">
        <ele>134.19999694824</ele>
        <time>2011-04-17T14:03:59.000Z</time>
      </trkpt>
      <trkpt lat="48.73243" lon="2.02844">
        <ele>134.19999694824</ele>
        <time>2011-04-17T14:04:02.000Z</time>
      </trkpt>
      <trkpt lat="48.73243" lon="2.02854">
        <ele>132.80000305176</ele>
        <time>2011-04-17T14:04:07.000Z</time>
      </trkpt>
      <trkpt lat="48.73244" lon="2.02862">
        <ele>133.19999694824</ele>
        <time>2011-04-17T14:04:12.000Z</time>
      </trkpt>
      <trkpt lat="48.73244" lon="2.02865">
        <ele>133.80000305176</ele>
        <time>2011-04-17T14:04:14.000Z</time>
      </trkpt>
      <trkpt lat="48.73246" lon="2.0288">
        <ele>133.19999694824</ele>
        <time>2011-04-17T14:04:21.000Z</time>
      </trkpt>
      <trkpt lat="48.73245" lon="2.02888">
        <ele>135.60000610352</ele>
        <time>2011-04-17T14:04:25.000Z</time>
      </trkpt>
      <trkpt lat="48.73245" lon="2.02891">
        <ele>135.60000610352</ele>
        <time>2011-04-17T14:04:27.000Z</time>
      </trkpt>
      <trkpt lat="48.73243" lon="2.029">
        <ele>137.19999694824</ele>
        <time>2011-04-17T14:04:32.000Z</time>
      </trkpt>
      <trkpt lat="48.73244" lon="2.0291">
        <ele>137.60000610352</ele>
        <time>2011-04-17T14:04:39.000Z</time>
      </trkpt>
      <trkpt lat="48.73246" lon="2.02926">
        <ele>147.19999694824</ele>
        <time>2011-04-17T14:04:45.000Z</time>
      </trkpt>
      <trkpt lat="48.73245" lon="2.02937">
        <ele>152</ele>
        <time>2011-04-17T14:04:50.000Z</time>
      </trkpt>
      <trkpt lat="48.73243" lon="2.02946">
        <ele>154.39999389648</ele>
        <time>2011-04-17T14:04:55.000Z</time>
      </trkpt>
      <trkpt lat="48.73242" lon="2.02948">
        <ele>154.39999389648</ele>
        <time>2011-04-17T14:04:57.000Z</time>
      </trkpt>
      <trkpt lat="48.73241" lon="2.02949">
        <ele>154</ele>
        <time>2011-04-17T14:05:00.000Z</time>
      </trkpt>
      <trkpt lat="48.73218" lon="2.03021">
        <ele>158.80000305176</ele>
        <time>2011-04-17T14:11:17.000Z</time>
      </trkpt>
      <trkpt lat="48.73221" lon="2.03027">
        <ele>159.19999694824</ele>
        <time>2011-04-17T14:11:20.000Z</time>
      </trkpt>
      <trkpt lat="48.73222" lon="2.03031">
        <ele>158.80000305176</ele>
        <time>2011-04-17T14:11:23.000Z</time>
      </trkpt>
      <trkpt lat="48.73227" lon="2.03042">
        <ele>159.19999694824</ele>
        <time>2011-04-17T14:11:29.000Z</time>
      </trkpt>
      <trkpt lat="48.7323" lon="2.03055">
        <ele>159.19999694824</ele>
        <time>2011-04-17T14:11:36.000Z</time>
      </trkpt>
      <trkpt lat="48.73234" lon="2.0307">
        <ele>159.80000305176</ele>
        <time>2011-04-17T14:11:44.000Z</time>
      </trkpt>
      <trkpt lat="48.73237" lon="2.03085">
        <ele>160.19999694824</ele>
        <time>2011-04-17T14:11:52.000Z</time>
      </trkpt>
      <trkpt lat="48.73239" lon="2.03098">
        <ele>160.19999694824</ele>
        <time>2011-04-17T14:11:59.000Z</time>
      </trkpt>
      <trkpt lat="48.73241" lon="2.03115">
        <ele>159.80000305176</ele>
        <time>2011-04-17T14:12:08.000Z</time>
      </trkpt>
      <trkpt lat="48.73241" lon="2.03116">
        <ele>159.19999694824</ele>
        <time>2011-04-17T14:12:09.000Z</time>
      </trkpt>
      <trkpt lat="48.7324" lon="2.03118">
        <ele>158.80000305176</ele>
        <time>2011-04-17T14:12:12.000Z</time>
      </trkpt>
      <trkpt lat="48.7324" lon="2.03137">
        <ele>157.80000305176</ele>
        <time>2011-04-17T14:12:40.000Z</time>
      </trkpt>
      <trkpt lat="48.73241" lon="2.03144">
        <ele>157.39999389648</ele>
        <time>2011-04-17T14:12:44.000Z</time>
      </trkpt>
      <trkpt lat="48.73243" lon="2.03153">
        <ele>157.80000305176</ele>
        <time>2011-04-17T14:12:49.000Z</time>
      </trkpt>
      <trkpt lat="48.73244" lon="2.03161">
        <ele>158.19999694824</ele>
        <time>2011-04-17T14:12:54.000Z</time>
      </trkpt>
      <trkpt lat="48.73245" lon="2.0317">
        <ele>159.19999694824</ele>
        <time>2011-04-17T14:12:59.000Z</time>
      </trkpt>
      <trkpt lat="48.73246" lon="2.03183">
        <ele>159.19999694824</ele>
        <time>2011-04-17T14:13:05.000Z</time>
      </trkpt>
      <trkpt lat="48.73245" lon="2.03194">
        <ele>158.80000305176</ele>
        <time>2011-04-17T14:13:12.000Z</time>
      </trkpt>
      <trkpt lat="48.73245" lon="2.03201">
        <ele>159.80000305176</ele>
        <time>2011-04-17T14:13:16.000Z</time>
      </trkpt>
      <trkpt lat="48.73245" lon="2.03205">
        <ele>160.60000610352</ele>
        <time>2011-04-17T14:13:18.000Z</time>
      </trkpt>
      <trkpt lat="48.73245" lon="2.03208">
        <ele>160.19999694824</ele>
        <time>2011-04-17T14:13:20.000Z</time>
      </trkpt>
      <trkpt lat="48.73245" lon="2.03212">
        <ele>160.60000610352</ele>
        <time>2011-04-17T14:13:23.000Z</time>
      </trkpt>
      <trkpt lat="48.73245" lon="2.03222">
        <ele>160.19999694824</ele>
        <time>2011-04-17T14:13:29.000Z</time>
      </trkpt>
      <trkpt lat="48.73246" lon="2.03232">
        <ele>158.19999694824</ele>
        <time>2011-04-17T14:13:33.000Z</time>
      </trkpt>
      <trkpt lat="48.73245" lon="2.03235">
        <ele>157.80000305176</ele>
        <time>2011-04-17T14:13:35.000Z</time>
      </trkpt>
      <trkpt lat="48.73242" lon="2.03247">
        <ele>156.39999389648</ele>
        <time>2011-04-17T14:13:43.000Z</time>
      </trkpt>
      <trkpt lat="48.73242" lon="2.03251">
        <ele>156.80000305176</ele>
        <time>2011-04-17T14:13:45.000Z</time>
      </trkpt>
      <trkpt lat="48.73241" lon="2.03259">
        <ele>155.80000305176</ele>
        <time>2011-04-17T14:13:50.000Z</time>
      </trkpt>
      <trkpt lat="48.73241" lon="2.03262">
        <ele>155.80000305176</ele>
        <time>2011-04-17T14:13:51.000Z</time>
      </trkpt>
      <trkpt lat="48.73242" lon="2.03269">
        <ele>154.39999389648</ele>
        <time>2011-04-17T14:13:55.000Z</time>
      </trkpt>
      <trkpt lat="48.73243" lon="2.03273">
        <ele>154.39999389648</ele>
        <time>2011-04-17T14:14:00.000Z</time>
      </trkpt>
      <trkpt lat="48.73237" lon="2.03336">
        <ele>156.39999389648</ele>
        <time>2011-04-17T14:15:04.000Z</time>
      </trkpt>
      <trkpt lat="48.73237" lon="2.03338">
        <ele>156.80000305176</ele>
        <time>2011-04-17T14:15:07.000Z</time>
      </trkpt>
      <trkpt lat="48.73237" lon="2.03338">
        <ele>156.39999389648</ele>
        <time>2011-04-17T14:15:08.000Z</time>
      </trkpt>
      <trkpt lat="48.73236" lon="2.03353">
        <ele>155.80000305176</ele>
        <time>2011-04-17T14:15:23.000Z</time>
      </trkpt>
      <trkpt lat="48.73235" lon="2.03371">
        <ele>155.39999389648</ele>
        <time>2011-04-17T14:15:32.000Z</time>
      </trkpt>
      <trkpt lat="48.73233" lon="2.03384">
        <ele>155</ele>
        <time>2011-04-17T14:15:39.000Z</time>
      </trkpt>
      <trkpt lat="48.7323" lon="2.03399">
        <ele>154</ele>
        <time>2011-04-17T14:15:48.000Z</time>
      </trkpt>
      <trkpt lat="48.73228" lon="2.03411">
        <ele>153</ele>
        <time>2011-04-17T14:15:56.000Z</time>
      </trkpt>
      <trkpt lat="48.73225" lon="2.03426">
        <ele>153</ele>
        <time>2011-04-17T14:16:04.000Z</time>
      </trkpt>
      <trkpt lat="48.73221" lon="2.03442">
        <ele>153</ele>
        <time>2011-04-17T14:16:13.000Z</time>
      </trkpt>
      <trkpt lat="48.73219" lon="2.03445">
        <ele>153</ele>
        <time>2011-04-17T14:16:15.000Z</time>
      </trkpt>
      <trkpt lat="48.73219" lon="2.03447">
        <ele>153</ele>
        <time>2011-04-17T14:16:18.000Z</time>
      </trkpt>
      <trkpt lat="48.73213" lon="2.03466">
        <ele>156.39999389648</ele>
        <time>2011-04-17T14:17:08.000Z</time>
      </trkpt>
      <trkpt lat="48.7321" lon="2.03478">
        <ele>155.80000305176</ele>
        <time>2011-04-17T14:17:15.000Z</time>
      </trkpt>
      <trkpt lat="48.73206" lon="2.03484">
        <ele>155</ele>
        <time>2011-04-17T14:17:21.000Z</time>
      </trkpt>
      <trkpt lat="48.73202" lon="2.03494">
        <ele>154.39999389648</ele>
        <time>2011-04-17T14:17:28.000Z</time>
      </trkpt>
      <trkpt lat="48.73199" lon="2.03498">
        <ele>154.39999389648</ele>
        <time>2011-04-17T14:17:32.000Z</time>
      </trkpt>
      <trkpt lat="48.73196" lon="2.03504">
        <ele>154.39999389648</ele>
        <time>2011-04-17T14:17:37.000Z</time>
      </trkpt>
      <trkpt lat="48.73191" lon="2.03512">
        <ele>154</ele>
        <time>2011-04-17T14:17:43.000Z</time>
      </trkpt>
      <trkpt lat="48.73186" lon="2.03519">
        <ele>154</ele>
        <time>2011-04-17T14:17:48.000Z</time>
      </trkpt>
      <trkpt lat="48.73183" lon="2.03523">
        <ele>153.39999389648</ele>
        <time>2011-04-17T14:17:51.000Z</time>
      </trkpt>
      <trkpt lat="48.73179" lon="2.03526">
        <ele>153.39999389648</ele>
        <time>2011-04-17T14:17:56.000Z</time>
      </trkpt>
      <trkpt lat="48.73174" lon="2.03534">
        <ele>154.39999389648</ele>
        <time>2011-04-17T14:18:03.000Z</time>
      </trkpt>
      <trkpt lat="48.73173" lon="2.03536">
        <ele>155</ele>
        <time>2011-04-17T14:18:05.000Z</time>
      </trkpt>
      <trkpt lat="48.73169" lon="2.03545">
        <ele>155.80000305176</ele>
        <time>2011-04-17T14:18:11.000Z</time>
      </trkpt>
      <trkpt lat="48.73165" lon="2.03551">
        <ele>155.39999389648</ele>
        <time>2011-04-17T14:18:15.000Z</time>
      </trkpt>
      <trkpt lat="48.73159" lon="2.03561">
        <ele>156.39999389648</ele>
        <time>2011-04-17T14:18:22.000Z</time>
      </trkpt>
      <trkpt lat="48.73154" lon="2.03573">
        <ele>159.19999694824</ele>
        <time>2011-04-17T14:18:29.000Z</time>
      </trkpt>
      <trkpt lat="48.7315" lon="2.03583">
        <ele>160.19999694824</ele>
        <time>2011-04-17T14:18:35.000Z</time>
      </trkpt>
      <trkpt lat="48.73147" lon="2.03595">
        <ele>157.80000305176</ele>
        <time>2011-04-17T14:18:43.000Z</time>
      </trkpt>
      <trkpt lat="48.73143" lon="2.03603">
        <ele>157.39999389648</ele>
        <time>2011-04-17T14:18:49.000Z</time>
      </trkpt>
      <trkpt lat="48.73139" lon="2.03612">
        <ele>158.19999694824</ele>
        <time>2011-04-17T14:18:55.000Z</time>
      </trkpt>
      <trkpt lat="48.73138" lon="2.03613">
        <ele>158.19999694824</ele>
        <time>2011-04-17T14:18:56.000Z</time>
      </trkpt>
      <trkpt lat="48.73134" lon="2.03625">
        <ele>159.80000305176</ele>
        <time>2011-04-17T14:19:04.000Z</time>
      </trkpt>
      <trkpt lat="48.73133" lon="2.03629">
        <ele>159.80000305176</ele>
        <time>2011-04-17T14:19:06.000Z</time>
      </trkpt>
      <trkpt lat="48.73129" lon="2.03639">
        <ele>160.19999694824</ele>
        <time>2011-04-17T14:19:13.000Z</time>
      </trkpt>
      <trkpt lat="48.73129" lon="2.0364">
        <ele>160.19999694824</ele>
        <time>2011-04-17T14:19:14.000Z</time>
      </trkpt>
      <trkpt lat="48.73128" lon="2.03648">
        <ele>159.19999694824</ele>
        <time>2011-04-17T14:19:19.000Z</time>
      </trkpt>
      <trkpt lat="48.73127" lon="2.03654">
        <ele>159.80000305176</ele>
        <time>2011-04-17T14:19:22.000Z</time>
      </trkpt>
      <trkpt lat="48.73123" lon="2.03667">
        <ele>159.80000305176</ele>
        <time>2011-04-17T14:19:29.000Z</time>
      </trkpt>
      <trkpt lat="48.7312" lon="2.03677">
        <ele>159.80000305176</ele>
        <time>2011-04-17T14:19:36.000Z</time>
      </trkpt>
      <trkpt lat="48.7312" lon="2.03686">
        <ele>160.19999694824</ele>
        <time>2011-04-17T14:19:41.000Z</time>
      </trkpt>
      <trkpt lat="48.73119" lon="2.03697">
        <ele>162.60000610352</ele>
        <time>2011-04-17T14:19:46.000Z</time>
      </trkpt>
      <trkpt lat="48.73116" lon="2.03705">
        <ele>162.60000610352</ele>
        <time>2011-04-17T14:19:51.000Z</time>
      </trkpt>
      <trkpt lat="48.73116" lon="2.03717">
        <ele>162.60000610352</ele>
        <time>2011-04-17T14:19:57.000Z</time>
      </trkpt>
      <trkpt lat="48.73117" lon="2.03732">
        <ele>164</ele>
        <time>2011-04-17T14:20:04.000Z</time>
      </trkpt>
      <trkpt lat="48.73119" lon="2.0374">
        <ele>162.19999694824</ele>
        <time>2011-04-17T14:20:08.000Z</time>
      </trkpt>
      <trkpt lat="48.7312" lon="2.03741">
        <ele>161.60000610352</ele>
        <time>2011-04-17T14:20:09.000Z</time>
      </trkpt>
      <trkpt lat="48.7312" lon="2.03755">
        <ele>160.60000610352</ele>
        <time>2011-04-17T14:20:16.000Z</time>
      </trkpt>
      <trkpt lat="48.73119" lon="2.03767">
        <ele>155.39999389648</ele>
        <time>2011-04-17T14:20:23.000Z</time>
      </trkpt>
      <trkpt lat="48.73118" lon="2.03779">
        <ele>158.80000305176</ele>
        <time>2011-04-17T14:20:29.000Z</time>
      </trkpt>
      <trkpt lat="48.73119" lon="2.03789">
        <ele>156.39999389648</ele>
        <time>2011-04-17T14:20:35.000Z</time>
      </trkpt>
      <trkpt lat="48.73119" lon="2.03796">
        <ele>154.39999389648</ele>
        <time>2011-04-17T14:20:39.000Z</time>
      </trkpt>
      <trkpt lat="48.73119" lon="2.03808">
        <ele>153.39999389648</ele>
        <time>2011-04-17T14:20:45.000Z</time>
      </trkpt>
      <trkpt lat="48.7312" lon="2.03809">
        <ele>153</ele>
        <time>2011-04-17T14:20:46.000Z</time>
      </trkpt>
      <trkpt lat="48.73122" lon="2.03817">
        <ele>150.19999694824</ele>
        <time>2011-04-17T14:20:51.000Z</time>
      </trkpt>
      <trkpt lat="48.73122" lon="2.03826">
        <ele>149.19999694824</ele>
        <time>2011-04-17T14:20:56.000Z</time>
      </trkpt>
      <trkpt lat="48.73124" lon="2.03843">
        <ele>150.60000610352</ele>
        <time>2011-04-17T14:21:05.000Z</time>
      </trkpt>
      <trkpt lat="48.73126" lon="2.03848">
        <ele>151</ele>
        <time>2011-04-17T14:21:08.000Z</time>
      </trkpt>
      <trkpt lat="48.7313" lon="2.03864">
        <ele>153</ele>
        <time>2011-04-17T14:21:17.000Z</time>
      </trkpt>
      <trkpt lat="48.73133" lon="2.03876">
        <ele>154.39999389648</ele>
        <time>2011-04-17T14:21:24.000Z</time>
      </trkpt>
      <trkpt lat="48.73136" lon="2.03889">
        <ele>154.39999389648</ele>
        <time>2011-04-17T14:21:32.000Z</time>
      </trkpt>
      <trkpt lat="48.73137" lon="2.039">
        <ele>155.39999389648</ele>
        <time>2011-04-17T14:21:38.000Z</time>
      </trkpt>
      <trkpt lat="48.73139" lon="2.03911">
        <ele>156.39999389648</ele>
        <time>2011-04-17T14:21:44.000Z</time>
      </trkpt>
      <trkpt lat="48.73138" lon="2.03922">
        <ele>155.39999389648</ele>
        <time>2011-04-17T14:21:50.000Z</time>
      </trkpt>
      <trkpt lat="48.73137" lon="2.03936">
        <ele>155.80000305176</ele>
        <time>2011-04-17T14:21:58.000Z</time>
      </trkpt>
      <trkpt lat="48.73134" lon="2.03948">
        <ele>155.39999389648</ele>
        <time>2011-04-17T14:22:05.000Z</time>
      </trkpt>
      <trkpt lat="48.73132" lon="2.03961">
        <ele>154.39999389648</ele>
        <time>2011-04-17T14:22:12.000Z</time>
      </trkpt>
      <trkpt lat="48.73131" lon="2.03976">
        <ele>154</ele>
        <time>2011-04-17T14:22:20.000Z</time>
      </trkpt>
      <trkpt lat="48.73131" lon="2.03982">
        <ele>153.39999389648</ele>
        <time>2011-04-17T14:22:23.000Z</time>
      </trkpt>
      <trkpt lat="48.7313" lon="2.0399">
        <ele>153.39999389648</ele>
        <time>2011-04-17T14:22:28.000Z</time>
      </trkpt>
      <trkpt lat="48.73131" lon="2.03993">
        <ele>153</ele>
        <time>2011-04-17T14:22:31.000Z</time>
      </trkpt>
      <trkpt lat="48.7313" lon="2.03994">
        <ele>153</ele>
        <time>2011-04-17T14:22:35.000Z</time>
      </trkpt>
      <trkpt lat="48.73131" lon="2.04007">
        <ele>154</ele>
        <time>2011-04-17T14:22:45.000Z</time>
      </trkpt>
      <trkpt lat="48.73132" lon="2.04014">
        <ele>154.39999389648</ele>
        <time>2011-04-17T14:22:47.000Z</time>
      </trkpt>
      <trkpt lat="48.73133" lon="2.04024">
        <ele>154.39999389648</ele>
        <time>2011-04-17T14:22:53.000Z</time>
      </trkpt>
      <trkpt lat="48.73135" lon="2.04034">
        <ele>155.39999389648</ele>
        <time>2011-04-17T14:22:59.000Z</time>
      </trkpt>
      <trkpt lat="48.73137" lon="2.04043">
        <ele>157.39999389648</ele>
        <time>2011-04-17T14:23:04.000Z</time>
      </trkpt>
      <trkpt lat="48.7314" lon="2.0405">
        <ele>158.19999694824</ele>
        <time>2011-04-17T14:23:08.000Z</time>
      </trkpt>
      <trkpt lat="48.73142" lon="2.04061">
        <ele>158.80000305176</ele>
        <time>2011-04-17T14:23:14.000Z</time>
      </trkpt>
      <trkpt lat="48.73144" lon="2.04072">
        <ele>159.80000305176</ele>
        <time>2011-04-17T14:23:21.000Z</time>
      </trkpt>
      <trkpt lat="48.73145" lon="2.04077">
        <ele>157.80000305176</ele>
        <time>2011-04-17T14:23:24.000Z</time>
      </trkpt>
      <trkpt lat="48.73148" lon="2.0408">
        <ele>156.80000305176</ele>
        <time>2011-04-17T14:23:28.000Z</time>
      </trkpt>
      <trkpt lat="48.73152" lon="2.04084">
        <ele>158.19999694824</ele>
        <time>2011-04-17T14:23:38.000Z</time>
      </trkpt>
      <trkpt lat="48.73152" lon="2.04085">
        <ele>158.19999694824</ele>
        <time>2011-04-17T14:23:40.000Z</time>
      </trkpt>
      <trkpt lat="48.73153" lon="2.04121">
        <ele>153.39999389648</ele>
        <time>2011-04-17T14:25:22.000Z</time>
      </trkpt>
      <trkpt lat="48.73155" lon="2.04129">
        <ele>151.60000610352</ele>
        <time>2011-04-17T14:25:26.000Z</time>
      </trkpt>
      <trkpt lat="48.73156" lon="2.04131">
        <ele>151</ele>
        <time>2011-04-17T14:25:27.000Z</time>
      </trkpt>
      <trkpt lat="48.73158" lon="2.04136">
        <ele>150.19999694824</ele>
        <time>2011-04-17T14:25:30.000Z</time>
      </trkpt>
      <trkpt lat="48.73161" lon="2.04145">
        <ele>149.19999694824</ele>
        <time>2011-04-17T14:25:36.000Z</time>
      </trkpt>
      <trkpt lat="48.73161" lon="2.04148">
        <ele>149.60000610352</ele>
        <time>2011-04-17T14:25:37.000Z</time>
      </trkpt>
      <trkpt lat="48.73164" lon="2.04158">
        <ele>148.19999694824</ele>
        <time>2011-04-17T14:25:42.000Z</time>
      </trkpt>
      <trkpt lat="48.7317" lon="2.04169">
        <ele>149.60000610352</ele>
        <time>2011-04-17T14:25:48.000Z</time>
      </trkpt>
      <trkpt lat="48.7317" lon="2.0417">
        <ele>150.19999694824</ele>
        <time>2011-04-17T14:25:49.000Z</time>
      </trkpt>
      <trkpt lat="48.73174" lon="2.04179">
        <ele>151.60000610352</ele>
        <time>2011-04-17T14:25:54.000Z</time>
      </trkpt>
      <trkpt lat="48.73175" lon="2.04189">
        <ele>151.60000610352</ele>
        <time>2011-04-17T14:26:00.000Z</time>
      </trkpt>
      <trkpt lat="48.73177" lon="2.04199">
        <ele>150.19999694824</ele>
        <time>2011-04-17T14:26:05.000Z</time>
      </trkpt>
      <trkpt lat="48.7318" lon="2.04208">
        <ele>149.19999694824</ele>
        <time>2011-04-17T14:26:11.000Z</time>
      </trkpt>
      <trkpt lat="48.73185" lon="2.04224">
        <ele>150.60000610352</ele>
        <time>2011-04-17T14:26:19.000Z</time>
      </trkpt>
      <trkpt lat="48.73188" lon="2.04237">
        <ele>151.60000610352</ele>
        <time>2011-04-17T14:26:25.000Z</time>
      </trkpt>
      <trkpt lat="48.7319" lon="2.04242">
        <ele>152</ele>
        <time>2011-04-17T14:26:29.000Z</time>
      </trkpt>
      <trkpt lat="48.73193" lon="2.04249">
        <ele>152.60000610352</ele>
        <time>2011-04-17T14:26:33.000Z</time>
      </trkpt>
      <trkpt lat="48.73195" lon="2.04256">
        <ele>152.60000610352</ele>
        <time>2011-04-17T14:26:38.000Z</time>
      </trkpt>
      <trkpt lat="48.73197" lon="2.04267">
        <ele>151.60000610352</ele>
        <time>2011-04-17T14:26:43.000Z</time>
      </trkpt>
      <trkpt lat="48.73201" lon="2.04277">
        <ele>152.60000610352</ele>
        <time>2011-04-17T14:26:49.000Z</time>
      </trkpt>
      <trkpt lat="48.73204" lon="2.0428">
        <ele>152.60000610352</ele>
        <time>2011-04-17T14:26:51.000Z</time>
      </trkpt>
      <trkpt lat="48.73205" lon="2.04285">
        <ele>153</ele>
        <time>2011-04-17T14:26:54.000Z</time>
      </trkpt>
      <trkpt lat="48.73208" lon="2.04294">
        <ele>154</ele>
        <time>2011-04-17T14:27:00.000Z</time>
      </trkpt>
      <trkpt lat="48.7321" lon="2.04303">
        <ele>154</ele>
        <time>2011-04-17T14:27:05.000Z</time>
      </trkpt>
      <trkpt lat="48.73211" lon="2.04305">
        <ele>154</ele>
        <time>2011-04-17T14:27:07.000Z</time>
      </trkpt>
      <trkpt lat="48.73212" lon="2.04309">
        <ele>154.39999389648</ele>
        <time>2011-04-17T14:27:09.000Z</time>
      </trkpt>
      <trkpt lat="48.73218" lon="2.04319">
        <ele>154.39999389648</ele>
        <time>2011-04-17T14:27:14.000Z</time>
      </trkpt>
      <trkpt lat="48.7322" lon="2.04322">
        <ele>154.39999389648</ele>
        <time>2011-04-17T14:27:16.000Z</time>
      </trkpt>
      <trkpt lat="48.73223" lon="2.04329">
        <ele>154</ele>
        <time>2011-04-17T14:27:21.000Z</time>
      </trkpt>
      <trkpt lat="48.73223" lon="2.04333">
        <ele>153.39999389648</ele>
        <time>2011-04-17T14:27:24.000Z</time>
      </trkpt>
      <trkpt lat="48.73226" lon="2.04342">
        <ele>152</ele>
        <time>2011-04-17T14:27:30.000Z</time>
      </trkpt>
      <trkpt lat="48.73227" lon="2.04353">
        <ele>151.60000610352</ele>
        <time>2011-04-17T14:27:36.000Z</time>
      </trkpt>
      <trkpt lat="48.73231" lon="2.04362">
        <ele>150.19999694824</ele>
        <time>2011-04-17T14:27:42.000Z</time>
      </trkpt>
      <trkpt lat="48.73236" lon="2.0437">
        <ele>151</ele>
        <time>2011-04-17T14:27:48.000Z</time>
      </trkpt>
      <trkpt lat="48.73239" lon="2.04373">
        <ele>151</ele>
        <time>2011-04-17T14:27:54.000Z</time>
      </trkpt>
      <trkpt lat="48.7324" lon="2.04376">
        <ele>151</ele>
        <time>2011-04-17T14:27:58.000Z</time>
      </trkpt>
      <trkpt lat="48.73244" lon="2.04401">
        <ele>149.60000610352</ele>
        <time>2011-04-17T14:28:40.000Z</time>
      </trkpt>
      <trkpt lat="48.73247" lon="2.04407">
        <ele>150.60000610352</ele>
        <time>2011-04-17T14:28:44.000Z</time>
      </trkpt>
      <trkpt lat="48.73249" lon="2.04413">
        <ele>151</ele>
        <time>2011-04-17T14:28:48.000Z</time>
      </trkpt>
      <trkpt lat="48.73252" lon="2.0442">
        <ele>151.60000610352</ele>
        <time>2011-04-17T14:28:55.000Z</time>
      </trkpt>
      <trkpt lat="48.73255" lon="2.04429">
        <ele>152.60000610352</ele>
        <time>2011-04-17T14:29:00.000Z</time>
      </trkpt>
      <trkpt lat="48.73256" lon="2.04436">
        <ele>153</ele>
        <time>2011-04-17T14:29:05.000Z</time>
      </trkpt>
      <trkpt lat="48.73257" lon="2.04443">
        <ele>154.39999389648</ele>
        <time>2011-04-17T14:29:10.000Z</time>
      </trkpt>
      <trkpt lat="48.73259" lon="2.04452">
        <ele>155</ele>
        <time>2011-04-17T14:29:15.000Z</time>
      </trkpt>
      <trkpt lat="48.73264" lon="2.04465">
        <ele>154.39999389648</ele>
        <time>2011-04-17T14:29:22.000Z</time>
      </trkpt>
      <trkpt lat="48.7327" lon="2.04475">
        <ele>155</ele>
        <time>2011-04-17T14:29:28.000Z</time>
      </trkpt>
      <trkpt lat="48.73274" lon="2.04486">
        <ele>153.39999389648</ele>
        <time>2011-04-17T14:29:35.000Z</time>
      </trkpt>
      <trkpt lat="48.73276" lon="2.0449">
        <ele>153.39999389648</ele>
        <time>2011-04-17T14:29:39.000Z</time>
      </trkpt>
      <trkpt lat="48.73278" lon="2.04497">
        <ele>155</ele>
        <time>2011-04-17T14:29:43.000Z</time>
      </trkpt>
      <trkpt lat="48.73281" lon="2.04504">
        <ele>155</ele>
        <time>2011-04-17T14:29:48.000Z</time>
      </trkpt>
      <trkpt lat="48.73282" lon="2.04508">
        <ele>155.39999389648</ele>
        <time>2011-04-17T14:29:50.000Z</time>
      </trkpt>
      <trkpt lat="48.73281" lon="2.04514">
        <ele>156.80000305176</ele>
        <time>2011-04-17T14:29:57.000Z</time>
      </trkpt>
      <trkpt lat="48.73279" lon="2.04513">
        <ele>158.80000305176</ele>
        <time>2011-04-17T14:30:02.000Z</time>
      </trkpt>
      <trkpt lat="48.73279" lon="2.04513">
        <ele>159.19999694824</ele>
        <time>2011-04-17T14:30:03.000Z</time>
      </trkpt>
      <trkpt lat="48.7329" lon="2.04507">
        <ele>160.60000610352</ele>
        <time>2011-04-17T14:30:37.000Z</time>
      </trkpt>
      <trkpt lat="48.73295" lon="2.04503">
        <ele>161.60000610352</ele>
        <time>2011-04-17T14:30:40.000Z</time>
      </trkpt>
      <trkpt lat="48.73301" lon="2.04498">
        <ele>162.19999694824</ele>
        <time>2011-04-17T14:30:46.000Z</time>
      </trkpt>
      <trkpt lat="48.73308" lon="2.04496">
        <ele>160.60000610352</ele>
        <time>2011-04-17T14:30:51.000Z</time>
      </trkpt>
      <trkpt lat="48.73313" lon="2.04496">
        <ele>159.19999694824</ele>
        <time>2011-04-17T14:30:55.000Z</time>
      </trkpt>
      <trkpt lat="48.73318" lon="2.04503">
        <ele>157.80000305176</ele>
        <time>2011-04-17T14:31:01.000Z</time>
      </trkpt>
      <trkpt lat="48.73321" lon="2.04515">
        <ele>155</ele>
        <time>2011-04-17T14:31:08.000Z</time>
      </trkpt>
      <trkpt lat="48.73327" lon="2.04525">
        <ele>155</ele>
        <time>2011-04-17T14:31:14.000Z</time>
      </trkpt>
      <trkpt lat="48.73332" lon="2.04536">
        <ele>155</ele>
        <time>2011-04-17T14:31:20.000Z</time>
      </trkpt>
      <trkpt lat="48.73335" lon="2.04544">
        <ele>153.39999389648</ele>
        <time>2011-04-17T14:31:25.000Z</time>
      </trkpt>
      <trkpt lat="48.73338" lon="2.04551">
        <ele>153.39999389648</ele>
        <time>2011-04-17T14:31:30.000Z</time>
      </trkpt>
      <trkpt lat="48.73339" lon="2.04552">
        <ele>153.39999389648</ele>
        <time>2011-04-17T14:31:31.000Z</time>
      </trkpt>
      <trkpt lat="48.73343" lon="2.04559">
        <ele>154</ele>
        <time>2011-04-17T14:31:35.000Z</time>
      </trkpt>
      <trkpt lat="48.73345" lon="2.04562">
        <ele>154</ele>
        <time>2011-04-17T14:31:37.000Z</time>
      </trkpt>
      <trkpt lat="48.73348" lon="2.04572">
        <ele>154.39999389648</ele>
        <time>2011-04-17T14:31:43.000Z</time>
      </trkpt>
      <trkpt lat="48.7335" lon="2.04575">
        <ele>154.39999389648</ele>
        <time>2011-04-17T14:31:45.000Z</time>
      </trkpt>
      <trkpt lat="48.73355" lon="2.04585">
        <ele>155.39999389648</ele>
        <time>2011-04-17T14:31:51.000Z</time>
      </trkpt>
      <trkpt lat="48.7336" lon="2.04594">
        <ele>155.80000305176</ele>
        <time>2011-04-17T14:31:56.000Z</time>
      </trkpt>
      <trkpt lat="48.7336" lon="2.04596">
        <ele>155.39999389648</ele>
        <time>2011-04-17T14:31:57.000Z</time>
      </trkpt>
      <trkpt lat="48.73362" lon="2.04605">
        <ele>155.80000305176</ele>
        <time>2011-04-17T14:32:01.000Z</time>
      </trkpt>
      <trkpt lat="48.73363" lon="2.04608">
        <ele>155.80000305176</ele>
        <time>2011-04-17T14:32:03.000Z</time>
      </trkpt>
      <trkpt lat="48.73366" lon="2.0462">
        <ele>159.19999694824</ele>
        <time>2011-04-17T14:32:09.000Z</time>
      </trkpt>
      <trkpt lat="48.73366" lon="2.04629">
        <ele>159.19999694824</ele>
        <time>2011-04-17T14:32:15.000Z</time>
      </trkpt>
      <trkpt lat="48.73366" lon="2.04631">
        <ele>158.80000305176</ele>
        <time>2011-04-17T14:32:16.000Z</time>
      </trkpt>
      <trkpt lat="48.73366" lon="2.04643">
        <ele>160.19999694824</ele>
        <time>2011-04-17T14:32:23.000Z</time>
      </trkpt>
      <trkpt lat="48.73368" lon="2.04656">
        <ele>158.19999694824</ele>
        <time>2011-04-17T14:32:31.000Z</time>
      </trkpt>
      <trkpt lat="48.7337" lon="2.04657">
        <ele>157.80000305176</ele>
        <time>2011-04-17T14:32:32.000Z</time>
      </trkpt>
      <trkpt lat="48.73371" lon="2.04666">
        <ele>158.19999694824</ele>
        <time>2011-04-17T14:32:37.000Z</time>
      </trkpt>
      <trkpt lat="48.73372" lon="2.0468">
        <ele>157.80000305176</ele>
        <time>2011-04-17T14:32:44.000Z</time>
      </trkpt>
      <trkpt lat="48.73372" lon="2.04682">
        <ele>157.80000305176</ele>
        <time>2011-04-17T14:32:45.000Z</time>
      </trkpt>
      <trkpt lat="48.73372" lon="2.04684">
        <ele>157.80000305176</ele>
        <time>2011-04-17T14:32:47.000Z</time>
      </trkpt>
      <trkpt lat="48.73374" lon="2.04689">
        <ele>156.80000305176</ele>
        <time>2011-04-17T14:32:50.000Z</time>
      </trkpt>
      <trkpt lat="48.73374" lon="2.04698">
        <ele>156.80000305176</ele>
        <time>2011-04-17T14:32:54.000Z</time>
      </trkpt>
      <trkpt lat="48.73375" lon="2.04708">
        <ele>157.39999389648</ele>
        <time>2011-04-17T14:32:59.000Z</time>
      </trkpt>
      <trkpt lat="48.73377" lon="2.04725">
        <ele>161.19999694824</ele>
        <time>2011-04-17T14:33:08.000Z</time>
      </trkpt>
      <trkpt lat="48.73378" lon="2.04733">
        <ele>164</ele>
        <time>2011-04-17T14:33:12.000Z</time>
      </trkpt>
      <trkpt lat="48.73379" lon="2.04739">
        <ele>164</ele>
        <time>2011-04-17T14:33:15.000Z</time>
      </trkpt>
      <trkpt lat="48.73378" lon="2.04745">
        <ele>166</ele>
        <time>2011-04-17T14:33:21.000Z</time>
      </trkpt>
      <trkpt lat="48.73378" lon="2.04751">
        <ele>165</ele>
        <time>2011-04-17T14:33:26.000Z</time>
      </trkpt>
      <trkpt lat="48.7338" lon="2.0476">
        <ele>164.60000610352</ele>
        <time>2011-04-17T14:33:32.000Z</time>
      </trkpt>
      <trkpt lat="48.73383" lon="2.04772">
        <ele>167</ele>
        <time>2011-04-17T14:33:38.000Z</time>
      </trkpt>
      <trkpt lat="48.73383" lon="2.04783">
        <ele>167.80000305176</ele>
        <time>2011-04-17T14:33:44.000Z</time>
      </trkpt>
      <trkpt lat="48.73381" lon="2.04794">
        <ele>171.19999694824</ele>
        <time>2011-04-17T14:33:50.000Z</time>
      </trkpt>
      <trkpt lat="48.73383" lon="2.04805">
        <ele>169.80000305176</ele>
        <time>2011-04-17T14:33:57.000Z</time>
      </trkpt>
      <trkpt lat="48.73381" lon="2.04818">
        <ele>170.19999694824</ele>
        <time>2011-04-17T14:34:03.000Z</time>
      </trkpt>
      <trkpt lat="48.73381" lon="2.0482">
        <ele>169.80000305176</ele>
        <time>2011-04-17T14:34:04.000Z</time>
      </trkpt>
      <trkpt lat="48.73383" lon="2.04838">
        <ele>170.80000305176</ele>
        <time>2011-04-17T14:34:12.000Z</time>
      </trkpt>
      <trkpt lat="48.7338" lon="2.04847">
        <ele>172.19999694824</ele>
        <time>2011-04-17T14:34:16.000Z</time>
      </trkpt>
      <trkpt lat="48.73379" lon="2.04854">
        <ele>175</ele>
        <time>2011-04-17T14:34:20.000Z</time>
      </trkpt>
      <trkpt lat="48.7338" lon="2.04863">
        <ele>177</ele>
        <time>2011-04-17T14:34:25.000Z</time>
      </trkpt>
      <trkpt lat="48.7338" lon="2.04873">
        <ele>174.60000610352</ele>
        <time>2011-04-17T14:34:31.000Z</time>
      </trkpt>
      <trkpt lat="48.7338" lon="2.04879">
        <ele>173.19999694824</ele>
        <time>2011-04-17T14:34:34.000Z</time>
      </trkpt>
      <trkpt lat="48.73383" lon="2.04888">
        <ele>171.80000305176</ele>
        <time>2011-04-17T14:34:41.000Z</time>
      </trkpt>
      <trkpt lat="48.73387" lon="2.04888">
        <ele>171.19999694824</ele>
        <time>2011-04-17T14:34:52.000Z</time>
      </trkpt>
      <trkpt lat="48.73388" lon="2.049">
        <ele>168.39999389648</ele>
        <time>2011-04-17T14:35:10.000Z</time>
      </trkpt>
      <trkpt lat="48.73387" lon="2.0491">
        <ele>167.39999389648</ele>
        <time>2011-04-17T14:35:16.000Z</time>
      </trkpt>
      <trkpt lat="48.73387" lon="2.04913">
        <ele>165.39999389648</ele>
        <time>2011-04-17T14:35:18.000Z</time>
      </trkpt>
      <trkpt lat="48.73387" lon="2.0492">
        <ele>161.19999694824</ele>
        <time>2011-04-17T14:35:24.000Z</time>
      </trkpt>
      <trkpt lat="48.7339" lon="2.04929">
        <ele>160.60000610352</ele>
        <time>2011-04-17T14:35:31.000Z</time>
      </trkpt>
      <trkpt lat="48.7339" lon="2.04931">
        <ele>160.60000610352</ele>
        <time>2011-04-17T14:35:32.000Z</time>
      </trkpt>
      <trkpt lat="48.73393" lon="2.04937">
        <ele>161.19999694824</ele>
        <time>2011-04-17T14:35:36.000Z</time>
      </trkpt>
      <trkpt lat="48.73399" lon="2.04949">
        <ele>160.60000610352</ele>
        <time>2011-04-17T14:35:44.000Z</time>
      </trkpt>
      <trkpt lat="48.73405" lon="2.04958">
        <ele>161.19999694824</ele>
        <time>2011-04-17T14:35:50.000Z</time>
      </trkpt>
      <trkpt lat="48.73406" lon="2.04959">
        <ele>161.19999694824</ele>
        <time>2011-04-17T14:35:51.000Z</time>
      </trkpt>
      <trkpt lat="48.73414" lon="2.04967">
        <ele>159.19999694824</ele>
        <time>2011-04-17T14:35:57.000Z</time>
      </trkpt>
      <trkpt lat="48.73415" lon="2.04969">
        <ele>159.80000305176</ele>
        <time>2011-04-17T14:35:58.000Z</time>
      </trkpt>
      <trkpt lat="48.73419" lon="2.04973">
        <ele>158.80000305176</ele>
        <time>2011-04-17T14:36:04.000Z</time>
      </trkpt>
      <trkpt lat="48.73425" lon="2.04977">
        <ele>158.80000305176</ele>
        <time>2011-04-17T14:36:10.000Z</time>
      </trkpt>
      <trkpt lat="48.73428" lon="2.04982">
        <ele>159.19999694824</ele>
        <time>2011-04-17T14:36:15.000Z</time>
      </trkpt>
      <trkpt lat="48.73431" lon="2.04985">
        <ele>160.60000610352</ele>
        <time>2011-04-17T14:36:17.000Z</time>
      </trkpt>
      <trkpt lat="48.73435" lon="2.04993">
        <ele>161.19999694824</ele>
        <time>2011-04-17T14:36:22.000Z</time>
      </trkpt>
      <trkpt lat="48.73438" lon="2.04998">
        <ele>162.19999694824</ele>
        <time>2011-04-17T14:36:26.000Z</time>
      </trkpt>
      <trkpt lat="48.73445" lon="2.05005">
        <ele>162.60000610352</ele>
        <time>2011-04-17T14:36:32.000Z</time>
      </trkpt>
      <trkpt lat="48.73446" lon="2.05007">
        <ele>163</ele>
        <time>2011-04-17T14:36:34.000Z</time>
      </trkpt>
      <trkpt lat="48.73449" lon="2.0501">
        <ele>162.60000610352</ele>
        <time>2011-04-17T14:36:38.000Z</time>
      </trkpt>
      <trkpt lat="48.73455" lon="2.05017">
        <ele>161.60000610352</ele>
        <time>2011-04-17T14:36:44.000Z</time>
      </trkpt>
      <trkpt lat="48.73457" lon="2.05019">
        <ele>162.19999694824</ele>
        <time>2011-04-17T14:36:46.000Z</time>
      </trkpt>
      <trkpt lat="48.73461" lon="2.05025">
        <ele>163</ele>
        <time>2011-04-17T14:36:53.000Z</time>
      </trkpt>
      <trkpt lat="48.73465" lon="2.05032">
        <ele>162.60000610352</ele>
        <time>2011-04-17T14:36:58.000Z</time>
      </trkpt>
      <trkpt lat="48.7347" lon="2.05034">
        <ele>163</ele>
        <time>2011-04-17T14:37:02.000Z</time>
      </trkpt>
      <trkpt lat="48.73474" lon="2.05039">
        <ele>164</ele>
        <time>2011-04-17T14:37:08.000Z</time>
      </trkpt>
      <trkpt lat="48.73477" lon="2.05044">
        <ele>166.39999389648</ele>
        <time>2011-04-17T14:37:14.000Z</time>
      </trkpt>
      <trkpt lat="48.7348" lon="2.05047">
        <ele>166.39999389648</ele>
        <time>2011-04-17T14:37:19.000Z</time>
      </trkpt>
      <trkpt lat="48.73482" lon="2.0505">
        <ele>166.39999389648</ele>
        <time>2011-04-17T14:37:24.000Z</time>
      </trkpt>
      <trkpt lat="48.73482" lon="2.0505">
        <ele>166.39999389648</ele>
        <time>2011-04-17T14:37:25.000Z</time>
      </trkpt>
      <trkpt lat="48.73494" lon="2.05061">
        <ele>171.80000305176</ele>
        <time>2011-04-17T14:37:59.000Z</time>
      </trkpt>
      <trkpt lat="48.73497" lon="2.05063">
        <ele>171.80000305176</ele>
        <time>2011-04-17T14:38:01.000Z</time>
      </trkpt>
      <trkpt lat="48.73497" lon="2.05068">
        <ele>172.19999694824</ele>
        <time>2011-04-17T14:38:07.000Z</time>
      </trkpt>
      <trkpt lat="48.73493" lon="2.05064">
        <ele>172.60000610352</ele>
        <time>2011-04-17T14:38:36.000Z</time>
      </trkpt>
      <trkpt lat="48.73487" lon="2.05059">
        <ele>169.80000305176</ele>
        <time>2011-04-17T14:38:41.000Z</time>
      </trkpt>
      <trkpt lat="48.73485" lon="2.05057">
        <ele>169.39999389648</ele>
        <time>2011-04-17T14:38:43.000Z</time>
      </trkpt>
      <trkpt lat="48.73484" lon="2.05056">
        <ele>168.39999389648</ele>
        <time>2011-04-17T14:38:45.000Z</time>
      </trkpt>
      <trkpt lat="48.73479" lon="2.05055">
        <ele>167.80000305176</ele>
        <time>2011-04-17T14:38:50.000Z</time>
      </trkpt>
      <trkpt lat="48.73475" lon="2.05052">
        <ele>167.80000305176</ele>
        <time>2011-04-17T14:38:54.000Z</time>
      </trkpt>
      <trkpt lat="48.73473" lon="2.0505">
        <ele>168.80000305176</ele>
        <time>2011-04-17T14:38:58.000Z</time>
      </trkpt>
      <trkpt lat="48.7348" lon="2.05054">
        <ele>169.39999389648</ele>
        <time>2011-04-17T14:39:04.000Z</time>
      </trkpt>
      <trkpt lat="48.7348" lon="2.05055">
        <ele>169.39999389648</ele>
        <time>2011-04-17T14:39:05.000Z</time>
      </trkpt>
      <trkpt lat="48.73488" lon="2.05063">
        <ele>168.39999389648</ele>
        <time>2011-04-17T14:39:12.000Z</time>
      </trkpt>
      <trkpt lat="48.73492" lon="2.05066">
        <ele>167.80000305176</ele>
        <time>2011-04-17T14:39:17.000Z</time>
      </trkpt>
      <trkpt lat="48.73499" lon="2.0507">
        <ele>167</ele>
        <time>2011-04-17T14:39:23.000Z</time>
      </trkpt>
      <trkpt lat="48.73501" lon="2.05073">
        <ele>166</ele>
        <time>2011-04-17T14:39:26.000Z</time>
      </trkpt>
      <trkpt lat="48.73503" lon="2.05076">
        <ele>165.39999389648</ele>
        <time>2011-04-17T14:39:28.000Z</time>
      </trkpt>
      <trkpt lat="48.73508" lon="2.05084">
        <ele>165</ele>
        <time>2011-04-17T14:39:34.000Z</time>
      </trkpt>
      <trkpt lat="48.73513" lon="2.05087">
        <ele>165</ele>
        <time>2011-04-17T14:39:38.000Z</time>
      </trkpt>
      <trkpt lat="48.73521" lon="2.05096">
        <ele>166</ele>
        <time>2011-04-17T14:39:45.000Z</time>
      </trkpt>
      <trkpt lat="48.73528" lon="2.05104">
        <ele>166</ele>
        <time>2011-04-17T14:39:51.000Z</time>
      </trkpt>
      <trkpt lat="48.73534" lon="2.05111">
        <ele>165</ele>
        <time>2011-04-17T14:39:57.000Z</time>
      </trkpt>
      <trkpt lat="48.73539" lon="2.05118">
        <ele>165</ele>
        <time>2011-04-17T14:40:02.000Z</time>
      </trkpt>
      <trkpt lat="48.73541" lon="2.0512">
        <ele>165.39999389648</ele>
        <time>2011-04-17T14:40:04.000Z</time>
      </trkpt>
      <trkpt lat="48.73547" lon="2.05126">
        <ele>165.39999389648</ele>
        <time>2011-04-17T14:40:09.000Z</time>
      </trkpt>
      <trkpt lat="48.73552" lon="2.05133">
        <ele>165</ele>
        <time>2011-04-17T14:40:15.000Z</time>
      </trkpt>
      <trkpt lat="48.73553" lon="2.05133">
        <ele>165</ele>
        <time>2011-04-17T14:40:16.000Z</time>
      </trkpt>
      <trkpt lat="48.73557" lon="2.0514">
        <ele>165.39999389648</ele>
        <time>2011-04-17T14:40:21.000Z</time>
      </trkpt>
      <trkpt lat="48.73561" lon="2.05145">
        <ele>165</ele>
        <time>2011-04-17T14:40:26.000Z</time>
      </trkpt>
      <trkpt lat="48.73568" lon="2.05155">
        <ele>164</ele>
        <time>2011-04-17T14:40:34.000Z</time>
      </trkpt>
      <trkpt lat="48.73573" lon="2.05161">
        <ele>164</ele>
        <time>2011-04-17T14:40:39.000Z</time>
      </trkpt>
      <trkpt lat="48.73576" lon="2.05165">
        <ele>164</ele>
        <time>2011-04-17T14:40:42.000Z</time>
      </trkpt>
      <trkpt lat="48.73581" lon="2.0517">
        <ele>164.60000610352</ele>
        <time>2011-04-17T14:40:47.000Z</time>
      </trkpt>
      <trkpt lat="48.73582" lon="2.05173">
        <ele>164</ele>
        <time>2011-04-17T14:40:49.000Z</time>
      </trkpt>
      <trkpt lat="48.73589" lon="2.05182">
        <ele>163.60000610352</ele>
        <time>2011-04-17T14:40:56.000Z</time>
      </trkpt>
      <trkpt lat="48.73595" lon="2.05191">
        <ele>163.60000610352</ele>
        <time>2011-04-17T14:41:04.000Z</time>
      </trkpt>
      <trkpt lat="48.736" lon="2.05197">
        <ele>163</ele>
        <time>2011-04-17T14:41:09.000Z</time>
      </trkpt>
      <trkpt lat="48.73602" lon="2.05202">
        <ele>163</ele>
        <time>2011-04-17T14:41:12.000Z</time>
      </trkpt>
      <trkpt lat="48.73606" lon="2.05207">
        <ele>163.60000610352</ele>
        <time>2011-04-17T14:41:17.000Z</time>
      </trkpt>
      <trkpt lat="48.73611" lon="2.05213">
        <ele>163</ele>
        <time>2011-04-17T14:41:22.000Z</time>
      </trkpt>
      <trkpt lat="48.73616" lon="2.05219">
        <ele>163</ele>
        <time>2011-04-17T14:41:27.000Z</time>
      </trkpt>
      <trkpt lat="48.73619" lon="2.05225">
        <ele>163</ele>
        <time>2011-04-17T14:41:32.000Z</time>
      </trkpt>
      <trkpt lat="48.73621" lon="2.05226">
        <ele>163</ele>
        <time>2011-04-17T14:41:34.000Z</time>
      </trkpt>
      <trkpt lat="48.73626" lon="2.05231">
        <ele>163.60000610352</ele>
        <time>2011-04-17T14:41:38.000Z</time>
      </trkpt>
      <trkpt lat="48.73633" lon="2.05239">
        <ele>163.60000610352</ele>
        <time>2011-04-17T14:41:45.000Z</time>
      </trkpt>
      <trkpt lat="48.73638" lon="2.05245">
        <ele>164</ele>
        <time>2011-04-17T14:41:50.000Z</time>
      </trkpt>
      <trkpt lat="48.73641" lon="2.0525">
        <ele>164</ele>
        <time>2011-04-17T14:41:54.000Z</time>
      </trkpt>
      <trkpt lat="48.73649" lon="2.05262">
        <ele>163</ele>
        <time>2011-04-17T14:42:03.000Z</time>
      </trkpt>
      <trkpt lat="48.73655" lon="2.05269">
        <ele>162.60000610352</ele>
        <time>2011-04-17T14:42:08.000Z</time>
      </trkpt>
      <trkpt lat="48.73664" lon="2.05281">
        <ele>164</ele>
        <time>2011-04-17T14:42:17.000Z</time>
      </trkpt>
      <trkpt lat="48.73667" lon="2.05284">
        <ele>164</ele>
        <time>2011-04-17T14:42:20.000Z</time>
      </trkpt>
      <trkpt lat="48.73675" lon="2.05292">
        <ele>163.60000610352</ele>
        <time>2011-04-17T14:42:27.000Z</time>
      </trkpt>
      <trkpt lat="48.73684" lon="2.05302">
        <ele>163</ele>
        <time>2011-04-17T14:42:36.000Z</time>
      </trkpt>
      <trkpt lat="48.73692" lon="2.05312">
        <ele>163.60000610352</ele>
        <time>2011-04-17T14:42:44.000Z</time>
      </trkpt>
      <trkpt lat="48.73696" lon="2.05317">
        <ele>163</ele>
        <time>2011-04-17T14:42:49.000Z</time>
      </trkpt>
      <trkpt lat="48.73704" lon="2.05327">
        <ele>162.60000610352</ele>
        <time>2011-04-17T14:42:58.000Z</time>
      </trkpt>
      <trkpt lat="48.73712" lon="2.05336">
        <ele>162.19999694824</ele>
        <time>2011-04-17T14:43:06.000Z</time>
      </trkpt>
      <trkpt lat="48.73718" lon="2.05343">
        <ele>162.19999694824</ele>
        <time>2011-04-17T14:43:13.000Z</time>
      </trkpt>
      <trkpt lat="48.73725" lon="2.05351">
        <ele>161.60000610352</ele>
        <time>2011-04-17T14:43:20.000Z</time>
      </trkpt>
      <trkpt lat="48.73734" lon="2.05361">
        <ele>162.19999694824</ele>
        <time>2011-04-17T14:43:29.000Z</time>
      </trkpt>
      <trkpt lat="48.73741" lon="2.05369">
        <ele>161.60000610352</ele>
        <time>2011-04-17T14:43:36.000Z</time>
      </trkpt>
      <trkpt lat="48.73745" lon="2.05373">
        <ele>161.19999694824</ele>
        <time>2011-04-17T14:43:40.000Z</time>
      </trkpt>
      <trkpt lat="48.73752" lon="2.05381">
        <ele>160.60000610352</ele>
        <time>2011-04-17T14:43:48.000Z</time>
      </trkpt>
      <trkpt lat="48.73762" lon="2.05391">
        <ele>160.19999694824</ele>
        <time>2011-04-17T14:43:58.000Z</time>
      </trkpt>
      <trkpt lat="48.73768" lon="2.05398">
        <ele>160.19999694824</ele>
        <time>2011-04-17T14:44:04.000Z</time>
      </trkpt>
      <trkpt lat="48.73776" lon="2.05405">
        <ele>160.60000610352</ele>
        <time>2011-04-17T14:44:11.000Z</time>
      </trkpt>
      <trkpt lat="48.73784" lon="2.05413">
        <ele>160.60000610352</ele>
        <time>2011-04-17T14:44:19.000Z</time>
      </trkpt>
      <trkpt lat="48.73794" lon="2.05422">
        <ele>160.19999694824</ele>
        <time>2011-04-17T14:44:29.000Z</time>
      </trkpt>
      <trkpt lat="48.73799" lon="2.05428">
        <ele>160.60000610352</ele>
        <time>2011-04-17T14:44:34.000Z</time>
      </trkpt>
      <trkpt lat="48.73808" lon="2.05437">
        <ele>160.60000610352</ele>
        <time>2011-04-17T14:44:44.000Z</time>
      </trkpt>
      <trkpt lat="48.73813" lon="2.05442">
        <ele>160.60000610352</ele>
        <time>2011-04-17T14:44:48.000Z</time>
      </trkpt>
      <trkpt lat="48.73818" lon="2.05447">
        <ele>160.60000610352</ele>
        <time>2011-04-17T14:44:53.000Z</time>
      </trkpt>
      <trkpt lat="48.73821" lon="2.05452">
        <ele>160.60000610352</ele>
        <time>2011-04-17T14:44:57.000Z</time>
      </trkpt>
      <trkpt lat="48.73828" lon="2.05462">
        <ele>160.19999694824</ele>
        <time>2011-04-17T14:45:04.000Z</time>
      </trkpt>
      <trkpt lat="48.73832" lon="2.05468">
        <ele>159.80000305176</ele>
        <time>2011-04-17T14:45:08.000Z</time>
      </trkpt>
      <trkpt lat="48.73836" lon="2.05469">
        <ele>159.19999694824</ele>
        <time>2011-04-17T14:45:10.000Z</time>
      </trkpt>
      <trkpt lat="48.7384" lon="2.05474">
        <ele>159.19999694824</ele>
        <time>2011-04-17T14:45:14.000Z</time>
      </trkpt>
      <trkpt lat="48.73846" lon="2.05484">
        <ele>159.80000305176</ele>
        <time>2011-04-17T14:45:22.000Z</time>
      </trkpt>
      <trkpt lat="48.7385" lon="2.0549">
        <ele>159.19999694824</ele>
        <time>2011-04-17T14:45:27.000Z</time>
      </trkpt>
      <trkpt lat="48.73859" lon="2.05504">
        <ele>158.80000305176</ele>
        <time>2011-04-17T14:45:37.000Z</time>
      </trkpt>
      <trkpt lat="48.73867" lon="2.05516">
        <ele>158.80000305176</ele>
        <time>2011-04-17T14:45:46.000Z</time>
      </trkpt>
      <trkpt lat="48.73874" lon="2.05526">
        <ele>159.80000305176</ele>
        <time>2011-04-17T14:45:53.000Z</time>
      </trkpt>
      <trkpt lat="48.73879" lon="2.05533">
        <ele>159.80000305176</ele>
        <time>2011-04-17T14:45:59.000Z</time>
      </trkpt>
      <trkpt lat="48.73885" lon="2.05543">
        <ele>159.19999694824</ele>
        <time>2011-04-17T14:46:06.000Z</time>
      </trkpt>
      <trkpt lat="48.73891" lon="2.0555">
        <ele>159.80000305176</ele>
        <time>2011-04-17T14:46:12.000Z</time>
      </trkpt>
      <trkpt lat="48.73895" lon="2.05554">
        <ele>159.80000305176</ele>
        <time>2011-04-17T14:46:17.000Z</time>
      </trkpt>
      <trkpt lat="48.73895" lon="2.05556">
        <ele>159.19999694824</ele>
        <time>2011-04-17T14:46:20.000Z</time>
      </trkpt>
      <trkpt lat="48.73904" lon="2.05566">
        <ele>159.80000305176</ele>
        <time>2011-04-17T14:46:37.000Z</time>
      </trkpt>
      <trkpt lat="48.73911" lon="2.05572">
        <ele>159.80000305176</ele>
        <time>2011-04-17T14:46:42.000Z</time>
      </trkpt>
      <trkpt lat="48.7392" lon="2.0558">
        <ele>160.19999694824</ele>
        <time>2011-04-17T14:46:50.000Z</time>
      </trkpt>
      <trkpt lat="48.73929" lon="2.05593">
        <ele>159.80000305176</ele>
        <time>2011-04-17T14:47:00.000Z</time>
      </trkpt>
      <trkpt lat="48.73939" lon="2.05602">
        <ele>160.19999694824</ele>
        <time>2011-04-17T14:47:09.000Z</time>
      </trkpt>
      <trkpt lat="48.73949" lon="2.05609">
        <ele>159.80000305176</ele>
        <time>2011-04-17T14:47:17.000Z</time>
      </trkpt>
      <trkpt lat="48.7396" lon="2.05617">
        <ele>159.19999694824</ele>
        <time>2011-04-17T14:47:27.000Z</time>
      </trkpt>
      <trkpt lat="48.73969" lon="2.05624">
        <ele>158.80000305176</ele>
        <time>2011-04-17T14:47:36.000Z</time>
      </trkpt>
      <trkpt lat="48.7398" lon="2.05632">
        <ele>158.19999694824</ele>
        <time>2011-04-17T14:47:46.000Z</time>
      </trkpt>
      <trkpt lat="48.7399" lon="2.05638">
        <ele>158.80000305176</ele>
        <time>2011-04-17T14:47:54.000Z</time>
      </trkpt>
      <trkpt lat="48.74001" lon="2.05646">
        <ele>158.80000305176</ele>
        <time>2011-04-17T14:48:04.000Z</time>
      </trkpt>
      <trkpt lat="48.74009" lon="2.05651">
        <ele>159.19999694824</ele>
        <time>2011-04-17T14:48:10.000Z</time>
      </trkpt>
      <trkpt lat="48.74017" lon="2.05655">
        <ele>159.80000305176</ele>
        <time>2011-04-17T14:48:17.000Z</time>
      </trkpt>
      <trkpt lat="48.74028" lon="2.05657">
        <ele>160.60000610352</ele>
        <time>2011-04-17T14:48:25.000Z</time>
      </trkpt>
      <trkpt lat="48.74036" lon="2.0566">
        <ele>160.60000610352</ele>
        <time>2011-04-17T14:48:31.000Z</time>
      </trkpt>
      <trkpt lat="48.74043" lon="2.05665">
        <ele>160.19999694824</ele>
        <time>2011-04-17T14:48:38.000Z</time>
      </trkpt>
      <trkpt lat="48.74053" lon="2.05672">
        <ele>160.19999694824</ele>
        <time>2011-04-17T14:48:47.000Z</time>
      </trkpt>
      <trkpt lat="48.74061" lon="2.05677">
        <ele>160.19999694824</ele>
        <time>2011-04-17T14:48:54.000Z</time>
      </trkpt>
      <trkpt lat="48.74068" lon="2.05683">
        <ele>160.19999694824</ele>
        <time>2011-04-17T14:49:01.000Z</time>
      </trkpt>
      <trkpt lat="48.74079" lon="2.05692">
        <ele>160.19999694824</ele>
        <time>2011-04-17T14:49:10.000Z</time>
      </trkpt>
      <trkpt lat="48.74092" lon="2.05704">
        <ele>160.60000610352</ele>
        <time>2011-04-17T14:49:21.000Z</time>
      </trkpt>
      <trkpt lat="48.74098" lon="2.0571">
        <ele>160.60000610352</ele>
        <time>2011-04-17T14:49:27.000Z</time>
      </trkpt>
      <trkpt lat="48.7411" lon="2.05722">
        <ele>159.19999694824</ele>
        <time>2011-04-17T14:49:39.000Z</time>
      </trkpt>
      <trkpt lat="48.74118" lon="2.05729">
        <ele>158.80000305176</ele>
        <time>2011-04-17T14:49:47.000Z</time>
      </trkpt>
      <trkpt lat="48.74126" lon="2.05734">
        <ele>158.80000305176</ele>
        <time>2011-04-17T14:49:54.000Z</time>
      </trkpt>
      <trkpt lat="48.74128" lon="2.0574">
        <ele>158.19999694824</ele>
        <time>2011-04-17T14:49:58.000Z</time>
      </trkpt>
      <trkpt lat="48.74134" lon="2.05747">
        <ele>157.80000305176</ele>
        <time>2011-04-17T14:50:05.000Z</time>
      </trkpt>
      <trkpt lat="48.74135" lon="2.05749">
        <ele>157.80000305176</ele>
        <time>2011-04-17T14:50:06.000Z</time>
      </trkpt>
      <trkpt lat="48.74138" lon="2.05756">
        <ele>156.80000305176</ele>
        <time>2011-04-17T14:50:11.000Z</time>
      </trkpt>
      <trkpt lat="48.74138" lon="2.05764">
        <ele>156.39999389648</ele>
        <time>2011-04-17T14:50:16.000Z</time>
      </trkpt>
      <trkpt lat="48.74137" lon="2.05768">
        <ele>156.39999389648</ele>
        <time>2011-04-17T14:50:18.000Z</time>
      </trkpt>
      <trkpt lat="48.74138" lon="2.05774">
        <ele>156.80000305176</ele>
        <time>2011-04-17T14:50:22.000Z</time>
      </trkpt>
      <trkpt lat="48.74145" lon="2.05779">
        <ele>156.80000305176</ele>
        <time>2011-04-17T14:50:28.000Z</time>
      </trkpt>
      <trkpt lat="48.74154" lon="2.05778">
        <ele>157.39999389648</ele>
        <time>2011-04-17T14:50:35.000Z</time>
      </trkpt>
      <trkpt lat="48.74161" lon="2.0578">
        <ele>157.80000305176</ele>
        <time>2011-04-17T14:50:42.000Z</time>
      </trkpt>
      <trkpt lat="48.74166" lon="2.05786">
        <ele>157.80000305176</ele>
        <time>2011-04-17T14:50:48.000Z</time>
      </trkpt>
      <trkpt lat="48.74173" lon="2.05792">
        <ele>157.80000305176</ele>
        <time>2011-04-17T14:50:53.000Z</time>
      </trkpt>
      <trkpt lat="48.74176" lon="2.05793">
        <ele>157.80000305176</ele>
        <time>2011-04-17T14:50:55.000Z</time>
      </trkpt>
      <trkpt lat="48.7418" lon="2.05799">
        <ele>157.39999389648</ele>
        <time>2011-04-17T14:51:00.000Z</time>
      </trkpt>
      <trkpt lat="48.74183" lon="2.058">
        <ele>157.80000305176</ele>
        <time>2011-04-17T14:51:02.000Z</time>
      </trkpt>
      <trkpt lat="48.74187" lon="2.05809">
        <ele>156.80000305176</ele>
        <time>2011-04-17T14:51:09.000Z</time>
      </trkpt>
      <trkpt lat="48.7419" lon="2.05813">
        <ele>156.80000305176</ele>
        <time>2011-04-17T14:51:12.000Z</time>
      </trkpt>
      <trkpt lat="48.74196" lon="2.05823">
        <ele>156.39999389648</ele>
        <time>2011-04-17T14:51:20.000Z</time>
      </trkpt>
      <trkpt lat="48.74201" lon="2.05832">
        <ele>157.39999389648</ele>
        <time>2011-04-17T14:51:26.000Z</time>
      </trkpt>
      <trkpt lat="48.74203" lon="2.05834">
        <ele>156.80000305176</ele>
        <time>2011-04-17T14:51:28.000Z</time>
      </trkpt>
      <trkpt lat="48.74204" lon="2.05838">
        <ele>156.39999389648</ele>
        <time>2011-04-17T14:51:31.000Z</time>
      </trkpt>
      <trkpt lat="48.74206" lon="2.05841">
        <ele>156.39999389648</ele>
        <time>2011-04-17T14:51:35.000Z</time>
      </trkpt>
      <trkpt lat="48.7421" lon="2.05845">
        <ele>155.80000305176</ele>
        <time>2011-04-17T14:51:41.000Z</time>
      </trkpt>
      <trkpt lat="48.74214" lon="2.05847">
        <ele>156.39999389648</ele>
        <time>2011-04-17T14:51:45.000Z</time>
      </trkpt>
      <trkpt lat="48.74216" lon="2.05851">
        <ele>156.39999389648</ele>
        <time>2011-04-17T14:51:48.000Z</time>
      </trkpt>
      <trkpt lat="48.74222" lon="2.05857">
        <ele>156.80000305176</ele>
        <time>2011-04-17T14:51:54.000Z</time>
      </trkpt>
      <trkpt lat="48.74231" lon="2.05867">
        <ele>157.39999389648</ele>
        <time>2011-04-17T14:52:01.000Z</time>
      </trkpt>
      <trkpt lat="48.74232" lon="2.05871">
        <ele>156.80000305176</ele>
        <time>2011-04-17T14:52:06.000Z</time>
      </trkpt>
      <trkpt lat="48.74234" lon="2.05872">
        <ele>155.39999389648</ele>
        <time>2011-04-17T14:52:12.000Z</time>
      </trkpt>
      <trkpt lat="48.74236" lon="2.05876">
        <ele>156.39999389648</ele>
        <time>2011-04-17T14:52:16.000Z</time>
      </trkpt>
      <trkpt lat="48.74238" lon="2.05881">
        <ele>156.39999389648</ele>
        <time>2011-04-17T14:52:19.000Z</time>
      </trkpt>
      <trkpt lat="48.74243" lon="2.05888">
        <ele>155.80000305176</ele>
        <time>2011-04-17T14:52:26.000Z</time>
      </trkpt>
      <trkpt lat="48.74248" lon="2.05893">
        <ele>155.39999389648</ele>
        <time>2011-04-17T14:52:31.000Z</time>
      </trkpt>
      <trkpt lat="48.74252" lon="2.059">
        <ele>155.39999389648</ele>
        <time>2011-04-17T14:52:35.000Z</time>
      </trkpt>
      <trkpt lat="48.74256" lon="2.05907">
        <ele>155.39999389648</ele>
        <time>2011-04-17T14:52:40.000Z</time>
      </trkpt>
      <trkpt lat="48.74257" lon="2.05908">
        <ele>155</ele>
        <time>2011-04-17T14:52:41.000Z</time>
      </trkpt>
      <trkpt lat="48.74265" lon="2.05916">
        <ele>155.39999389648</ele>
        <time>2011-04-17T14:52:50.000Z</time>
      </trkpt>
      <trkpt lat="48.7427" lon="2.05921">
        <ele>155.39999389648</ele>
        <time>2011-04-17T14:52:54.000Z</time>
      </trkpt>
      <trkpt lat="48.74277" lon="2.0593">
        <ele>154.39999389648</ele>
        <time>2011-04-17T14:53:02.000Z</time>
      </trkpt>
      <trkpt lat="48.74285" lon="2.05938">
        <ele>154</ele>
        <time>2011-04-17T14:53:09.000Z</time>
      </trkpt>
      <trkpt lat="48.74291" lon="2.05946">
        <ele>152.60000610352</ele>
        <time>2011-04-17T14:53:16.000Z</time>
      </trkpt>
      <trkpt lat="48.74297" lon="2.05953">
        <ele>151.60000610352</ele>
        <time>2011-04-17T14:53:21.000Z</time>
      </trkpt>
      <trkpt lat="48.74302" lon="2.0596">
        <ele>151</ele>
        <time>2011-04-17T14:53:27.000Z</time>
      </trkpt>
      <trkpt lat="48.74308" lon="2.05969">
        <ele>151.60000610352</ele>
        <time>2011-04-17T14:53:33.000Z</time>
      </trkpt>
      <trkpt lat="48.74313" lon="2.05978">
        <ele>152</ele>
        <time>2011-04-17T14:53:38.000Z</time>
      </trkpt>
      <trkpt lat="48.74318" lon="2.05985">
        <ele>151.60000610352</ele>
        <time>2011-04-17T14:53:43.000Z</time>
      </trkpt>
      <trkpt lat="48.74322" lon="2.05996">
        <ele>149.60000610352</ele>
        <time>2011-04-17T14:53:50.000Z</time>
      </trkpt>
      <trkpt lat="48.74327" lon="2.06004">
        <ele>149.19999694824</ele>
        <time>2011-04-17T14:53:55.000Z</time>
      </trkpt>
      <trkpt lat="48.74332" lon="2.0601">
        <ele>151.60000610352</ele>
        <time>2011-04-17T14:53:59.000Z</time>
      </trkpt>
      <trkpt lat="48.74338" lon="2.06019">
        <ele>151.60000610352</ele>
        <time>2011-04-17T14:54:07.000Z</time>
      </trkpt>
      <trkpt lat="48.74345" lon="2.06027">
        <ele>151.60000610352</ele>
        <time>2011-04-17T14:54:13.000Z</time>
      </trkpt>
      <trkpt lat="48.74352" lon="2.06039">
        <ele>150.19999694824</ele>
        <time>2011-04-17T14:54:22.000Z</time>
      </trkpt>
      <trkpt lat="48.74358" lon="2.06051">
        <ele>149.60000610352</ele>
        <time>2011-04-17T14:54:29.000Z</time>
      </trkpt>
      <trkpt lat="48.74366" lon="2.06063">
        <ele>151</ele>
        <time>2011-04-17T14:54:37.000Z</time>
      </trkpt>
      <trkpt lat="48.74369" lon="2.06066">
        <ele>150.19999694824</ele>
        <time>2011-04-17T14:54:40.000Z</time>
      </trkpt>
      <trkpt lat="48.74375" lon="2.06071">
        <ele>150.60000610352</ele>
        <time>2011-04-17T14:54:45.000Z</time>
      </trkpt>
      <trkpt lat="48.74375" lon="2.06071">
        <ele>150.60000610352</ele>
        <time>2011-04-17T14:54:46.000Z</time>
      </trkpt>
      <trkpt lat="48.74377" lon="2.06073">
        <ele>151</ele>
        <time>2011-04-17T14:54:50.000Z</time>
      </trkpt>
      <trkpt lat="48.74386" lon="2.0608">
        <ele>152</ele>
        <time>2011-04-17T14:55:01.000Z</time>
      </trkpt>
      <trkpt lat="48.74388" lon="2.0609">
        <ele>153</ele>
        <time>2011-04-17T14:55:06.000Z</time>
      </trkpt>
      <trkpt lat="48.74388" lon="2.06095">
        <ele>153</ele>
        <time>2011-04-17T14:55:09.000Z</time>
      </trkpt>
      <trkpt lat="48.74388" lon="2.06098">
        <ele>152</ele>
        <time>2011-04-17T14:55:11.000Z</time>
      </trkpt>
      <trkpt lat="48.74387" lon="2.06103">
        <ele>153</ele>
        <time>2011-04-17T14:55:14.000Z</time>
      </trkpt>
      <trkpt lat="48.74387" lon="2.06106">
        <ele>152</ele>
        <time>2011-04-17T14:55:16.000Z</time>
      </trkpt>
      <trkpt lat="48.74387" lon="2.0611">
        <ele>151.60000610352</ele>
        <time>2011-04-17T14:55:19.000Z</time>
      </trkpt>
      <trkpt lat="48.74388" lon="2.06117">
        <ele>151.60000610352</ele>
        <time>2011-04-17T14:55:23.000Z</time>
      </trkpt>
      <trkpt lat="48.74386" lon="2.06129">
        <ele>151</ele>
        <time>2011-04-17T14:55:28.000Z</time>
      </trkpt>
      <trkpt lat="48.74388" lon="2.06139">
        <ele>150.60000610352</ele>
        <time>2011-04-17T14:55:33.000Z</time>
      </trkpt>
      <trkpt lat="48.7439" lon="2.06147">
        <ele>150.60000610352</ele>
        <time>2011-04-17T14:55:38.000Z</time>
      </trkpt>
      <trkpt lat="48.74392" lon="2.06158">
        <ele>149.19999694824</ele>
        <time>2011-04-17T14:55:45.000Z</time>
      </trkpt>
      <trkpt lat="48.74389" lon="2.06162">
        <ele>147.60000610352</ele>
        <time>2011-04-17T14:55:49.000Z</time>
      </trkpt>
      <trkpt lat="48.74388" lon="2.06168">
        <ele>149.60000610352</ele>
        <time>2011-04-17T14:55:56.000Z</time>
      </trkpt>
      <trkpt lat="48.7439" lon="2.0617">
        <ele>152</ele>
        <time>2011-04-17T14:56:02.000Z</time>
      </trkpt>
      <trkpt lat="48.74384" lon="2.06178">
        <ele>153.39999389648</ele>
        <time>2011-04-17T14:56:29.000Z</time>
      </trkpt>
      <trkpt lat="48.74382" lon="2.06181">
        <ele>153.39999389648</ele>
        <time>2011-04-17T14:56:31.000Z</time>
      </trkpt>
      <trkpt lat="48.74378" lon="2.06189">
        <ele>153.39999389648</ele>
        <time>2011-04-17T14:56:37.000Z</time>
      </trkpt>
      <trkpt lat="48.74372" lon="2.06198">
        <ele>152</ele>
        <time>2011-04-17T14:56:45.000Z</time>
      </trkpt>
      <trkpt lat="48.74363" lon="2.06206">
        <ele>152.60000610352</ele>
        <time>2011-04-17T14:56:53.000Z</time>
      </trkpt>
      <trkpt lat="48.74358" lon="2.06217">
        <ele>152</ele>
        <time>2011-04-17T14:57:00.000Z</time>
      </trkpt>
      <trkpt lat="48.74354" lon="2.06224">
        <ele>151.60000610352</ele>
        <time>2011-04-17T14:57:04.000Z</time>
      </trkpt>
      <trkpt lat="48.74352" lon="2.06233">
        <ele>149.60000610352</ele>
        <time>2011-04-17T14:57:09.000Z</time>
      </trkpt>
      <trkpt lat="48.74348" lon="2.06243">
        <ele>150.60000610352</ele>
        <time>2011-04-17T14:57:15.000Z</time>
      </trkpt>
      <trkpt lat="48.74347" lon="2.06246">
        <ele>150.60000610352</ele>
        <time>2011-04-17T14:57:17.000Z</time>
      </trkpt>
      <trkpt lat="48.74344" lon="2.06257">
        <ele>149.60000610352</ele>
        <time>2011-04-17T14:57:24.000Z</time>
      </trkpt>
      <trkpt lat="48.74344" lon="2.06259">
        <ele>149.60000610352</ele>
        <time>2011-04-17T14:57:25.000Z</time>
      </trkpt>
      <trkpt lat="48.74343" lon="2.06262">
        <ele>149.60000610352</ele>
        <time>2011-04-17T14:57:27.000Z</time>
      </trkpt>
      <trkpt lat="48.74338" lon="2.06266">
        <ele>150.19999694824</ele>
        <time>2011-04-17T14:57:35.000Z</time>
      </trkpt>
      <trkpt lat="48.74338" lon="2.06266">
        <ele>150.19999694824</ele>
        <time>2011-04-17T14:57:37.000Z</time>
      </trkpt>
      <trkpt lat="48.74329" lon="2.06281">
        <ele>150.19999694824</ele>
        <time>2011-04-18T06:55:46.000Z</time>
      </trkpt>
      <trkpt lat="48.74329" lon="2.06281">
        <ele>150.19999694824</ele>
        <time>2011-04-18T06:55:46.000Z</time>
      </trkpt>
      <trkpt lat="48.74329" lon="2.0628">
        <ele>150.19999694824</ele>
        <time>2011-04-18T06:55:47.000Z</time>
      </trkpt>
      <trkpt lat="48.74349" lon="2.0625">
        <ele>148.19999694824</ele>
        <time>2011-04-18T06:56:34.000Z</time>
      </trkpt>
      <trkpt lat="48.74349" lon="2.06244">
        <ele>148.19999694824</ele>
        <time>2011-04-18T06:56:36.000Z</time>
      </trkpt>
      <trkpt lat="48.74354" lon="2.06231">
        <ele>148.19999694824</ele>
        <time>2011-04-18T06:56:44.000Z</time>
      </trkpt>
      <trkpt lat="48.74358" lon="2.06221">
        <ele>148.19999694824</ele>
        <time>2011-04-18T06:56:49.000Z</time>
      </trkpt>
      <trkpt lat="48.74361" lon="2.06212">
        <ele>148.60000610352</ele>
        <time>2011-04-18T06:56:54.000Z</time>
      </trkpt>
      <trkpt lat="48.74365" lon="2.06205">
        <ele>148.60000610352</ele>
        <time>2011-04-18T06:56:59.000Z</time>
      </trkpt>
      <trkpt lat="48.74371" lon="2.06196">
        <ele>149.19999694824</ele>
        <time>2011-04-18T06:57:06.000Z</time>
      </trkpt>
      <trkpt lat="48.74371" lon="2.06193">
        <ele>151</ele>
        <time>2011-04-18T06:57:07.000Z</time>
      </trkpt>
      <trkpt lat="48.74374" lon="2.06191">
        <ele>152</ele>
        <time>2011-04-18T06:57:09.000Z</time>
      </trkpt>
      <trkpt lat="48.7438" lon="2.06185">
        <ele>152</ele>
        <time>2011-04-18T06:57:13.000Z</time>
      </trkpt>
      <trkpt lat="48.74384" lon="2.06174">
        <ele>155</ele>
        <time>2011-04-18T06:57:20.000Z</time>
      </trkpt>
      <trkpt lat="48.74385" lon="2.06164">
        <ele>154.39999389648</ele>
        <time>2011-04-18T06:57:26.000Z</time>
      </trkpt>
      <trkpt lat="48.74385" lon="2.06155">
        <ele>156.39999389648</ele>
        <time>2011-04-18T06:57:31.000Z</time>
      </trkpt>
      <trkpt lat="48.74385" lon="2.06147">
        <ele>156.39999389648</ele>
        <time>2011-04-18T06:57:35.000Z</time>
      </trkpt>
      <trkpt lat="48.74385" lon="2.06133">
        <ele>156.80000305176</ele>
        <time>2011-04-18T06:57:42.000Z</time>
      </trkpt>
      <trkpt lat="48.74385" lon="2.06118">
        <ele>157.80000305176</ele>
        <time>2011-04-18T06:57:49.000Z</time>
      </trkpt>
      <trkpt lat="48.74385" lon="2.06112">
        <ele>157.80000305176</ele>
        <time>2011-04-18T06:57:52.000Z</time>
      </trkpt>
      <trkpt lat="48.74383" lon="2.06098">
        <ele>159.19999694824</ele>
        <time>2011-04-18T06:57:59.000Z</time>
      </trkpt>
      <trkpt lat="48.74377" lon="2.06082">
        <ele>161.19999694824</ele>
        <time>2011-04-18T06:58:08.000Z</time>
      </trkpt>
      <trkpt lat="48.74373" lon="2.06077">
        <ele>161.19999694824</ele>
        <time>2011-04-18T06:58:12.000Z</time>
      </trkpt>
      <trkpt lat="48.74367" lon="2.06066">
        <ele>161.19999694824</ele>
        <time>2011-04-18T06:58:20.000Z</time>
      </trkpt>
      <trkpt lat="48.74365" lon="2.06063">
        <ele>161.19999694824</ele>
        <time>2011-04-18T06:58:23.000Z</time>
      </trkpt>
      <trkpt lat="48.74359" lon="2.06054">
        <ele>159.80000305176</ele>
        <time>2011-04-18T06:58:30.000Z</time>
      </trkpt>
      <trkpt lat="48.74357" lon="2.06049">
        <ele>160.19999694824</ele>
        <time>2011-04-18T06:58:36.000Z</time>
      </trkpt>
      <trkpt lat="48.74356" lon="2.0605">
        <ele>160.60000610352</ele>
        <time>2011-04-18T06:58:40.000Z</time>
      </trkpt>
      <trkpt lat="48.74347" lon="2.06036">
        <ele>156.80000305176</ele>
        <time>2011-04-18T06:59:40.000Z</time>
      </trkpt>
      <trkpt lat="48.74343" lon="2.06025">
        <ele>161.60000610352</ele>
        <time>2011-04-18T06:59:46.000Z</time>
      </trkpt>
      <trkpt lat="48.74335" lon="2.06018">
        <ele>162.19999694824</ele>
        <time>2011-04-18T06:59:52.000Z</time>
      </trkpt>
      <trkpt lat="48.74325" lon="2.06006">
        <ele>163</ele>
        <time>2011-04-18T07:00:01.000Z</time>
      </trkpt>
      <trkpt lat="48.74324" lon="2.06003">
        <ele>163</ele>
        <time>2011-04-18T07:00:03.000Z</time>
      </trkpt>
      <trkpt lat="48.74321" lon="2.05998">
        <ele>162.60000610352</ele>
        <time>2011-04-18T07:00:07.000Z</time>
      </trkpt>
      <trkpt lat="48.74318" lon="2.05992">
        <ele>161.19999694824</ele>
        <time>2011-04-18T07:00:11.000Z</time>
      </trkpt>
      <trkpt lat="48.74313" lon="2.05983">
        <ele>159.80000305176</ele>
        <time>2011-04-18T07:00:17.000Z</time>
      </trkpt>
      <trkpt lat="48.74311" lon="2.05979">
        <ele>158.19999694824</ele>
        <time>2011-04-18T07:00:20.000Z</time>
      </trkpt>
      <trkpt lat="48.7431" lon="2.05972">
        <ele>156.39999389648</ele>
        <time>2011-04-18T07:00:25.000Z</time>
      </trkpt>
      <trkpt lat="48.74309" lon="2.05971">
        <ele>155.80000305176</ele>
        <time>2011-04-18T07:00:26.000Z</time>
      </trkpt>
      <trkpt lat="48.74301" lon="2.05959">
        <ele>155.80000305176</ele>
        <time>2011-04-18T07:00:34.000Z</time>
      </trkpt>
      <trkpt lat="48.74291" lon="2.05951">
        <ele>159.80000305176</ele>
        <time>2011-04-18T07:00:41.000Z</time>
      </trkpt>
      <trkpt lat="48.74279" lon="2.05938">
        <ele>163.60000610352</ele>
        <time>2011-04-18T07:00:51.000Z</time>
      </trkpt>
      <trkpt lat="48.74269" lon="2.05927">
        <ele>162.60000610352</ele>
        <time>2011-04-18T07:01:01.000Z</time>
      </trkpt>
      <trkpt lat="48.74256" lon="2.05914">
        <ele>161.60000610352</ele>
        <time>2011-04-18T07:01:13.000Z</time>
      </trkpt>
      <trkpt lat="48.74247" lon="2.05903">
        <ele>162.19999694824</ele>
        <time>2011-04-18T07:01:22.000Z</time>
      </trkpt>
      <trkpt lat="48.74238" lon="2.05892">
        <ele>162.60000610352</ele>
        <time>2011-04-18T07:01:31.000Z</time>
      </trkpt>
      <trkpt lat="48.74228" lon="2.05877">
        <ele>162.19999694824</ele>
        <time>2011-04-18T07:01:43.000Z</time>
      </trkpt>
      <trkpt lat="48.74221" lon="2.05867">
        <ele>161.60000610352</ele>
        <time>2011-04-18T07:01:51.000Z</time>
      </trkpt>
      <trkpt lat="48.74214" lon="2.05855">
        <ele>159.19999694824</ele>
        <time>2011-04-18T07:02:00.000Z</time>
      </trkpt>
      <trkpt lat="48.74208" lon="2.05846">
        <ele>158.19999694824</ele>
        <time>2011-04-18T07:02:07.000Z</time>
      </trkpt>
      <trkpt lat="48.74198" lon="2.05832">
        <ele>159.80000305176</ele>
        <time>2011-04-18T07:02:17.000Z</time>
      </trkpt>
      <trkpt lat="48.74192" lon="2.05824">
        <ele>161.60000610352</ele>
        <time>2011-04-18T07:02:23.000Z</time>
      </trkpt>
      <trkpt lat="48.7419" lon="2.0582">
        <ele>162.60000610352</ele>
        <time>2011-04-18T07:02:26.000Z</time>
      </trkpt>
      <trkpt lat="48.7418" lon="2.05809">
        <ele>165</ele>
        <time>2011-04-18T07:02:35.000Z</time>
      </trkpt>
      <trkpt lat="48.74174" lon="2.05801">
        <ele>164</ele>
        <time>2011-04-18T07:02:41.000Z</time>
      </trkpt>
      <trkpt lat="48.74169" lon="2.05795">
        <ele>163</ele>
        <time>2011-04-18T07:02:45.000Z</time>
      </trkpt>
      <trkpt lat="48.74161" lon="2.05783">
        <ele>162.19999694824</ele>
        <time>2011-04-18T07:02:55.000Z</time>
      </trkpt>
      <trkpt lat="48.74154" lon="2.05775">
        <ele>161.60000610352</ele>
        <time>2011-04-18T07:03:03.000Z</time>
      </trkpt>
      <trkpt lat="48.74152" lon="2.05769">
        <ele>160.60000610352</ele>
        <time>2011-04-18T07:03:08.000Z</time>
      </trkpt>
      <trkpt lat="48.74147" lon="2.05764">
        <ele>161.60000610352</ele>
        <time>2011-04-18T07:03:12.000Z</time>
      </trkpt>
      <trkpt lat="48.74142" lon="2.05759">
        <ele>161.60000610352</ele>
        <time>2011-04-18T07:03:17.000Z</time>
      </trkpt>
      <trkpt lat="48.74136" lon="2.05752">
        <ele>162.60000610352</ele>
        <time>2011-04-18T07:03:23.000Z</time>
      </trkpt>
      <trkpt lat="48.74127" lon="2.05741">
        <ele>162.60000610352</ele>
        <time>2011-04-18T07:03:32.000Z</time>
      </trkpt>
      <trkpt lat="48.74118" lon="2.05731">
        <ele>162.19999694824</ele>
        <time>2011-04-18T07:03:41.000Z</time>
      </trkpt>
      <trkpt lat="48.74108" lon="2.05724">
        <ele>163</ele>
        <time>2011-04-18T07:03:50.000Z</time>
      </trkpt>
      <trkpt lat="48.741" lon="2.05718">
        <ele>163.60000610352</ele>
        <time>2011-04-18T07:03:57.000Z</time>
      </trkpt>
      <trkpt lat="48.74094" lon="2.05712">
        <ele>164.60000610352</ele>
        <time>2011-04-18T07:04:03.000Z</time>
      </trkpt>
      <trkpt lat="48.74086" lon="2.05703">
        <ele>164</ele>
        <time>2011-04-18T07:04:11.000Z</time>
      </trkpt>
      <trkpt lat="48.74076" lon="2.05692">
        <ele>163.60000610352</ele>
        <time>2011-04-18T07:04:21.000Z</time>
      </trkpt>
      <trkpt lat="48.7407" lon="2.05688">
        <ele>164</ele>
        <time>2011-04-18T07:04:26.000Z</time>
      </trkpt>
      <trkpt lat="48.74067" lon="2.05686">
        <ele>164</ele>
        <time>2011-04-18T07:04:30.000Z</time>
      </trkpt>
      <trkpt lat="48.74064" lon="2.05682">
        <ele>164</ele>
        <time>2011-04-18T07:04:33.000Z</time>
      </trkpt>
      <trkpt lat="48.74055" lon="2.05676">
        <ele>164.60000610352</ele>
        <time>2011-04-18T07:04:42.000Z</time>
      </trkpt>
      <trkpt lat="48.74049" lon="2.05671">
        <ele>164.60000610352</ele>
        <time>2011-04-18T07:04:47.000Z</time>
      </trkpt>
      <trkpt lat="48.7404" lon="2.05666">
        <ele>164.60000610352</ele>
        <time>2011-04-18T07:04:55.000Z</time>
      </trkpt>
      <trkpt lat="48.74029" lon="2.05658">
        <ele>165.39999389648</ele>
        <time>2011-04-18T07:05:04.000Z</time>
      </trkpt>
      <trkpt lat="48.7402" lon="2.05654">
        <ele>165.39999389648</ele>
        <time>2011-04-18T07:05:12.000Z</time>
      </trkpt>
      <trkpt lat="48.7401" lon="2.05654">
        <ele>164</ele>
        <time>2011-04-18T07:05:21.000Z</time>
      </trkpt>
      <trkpt lat="48.73998" lon="2.05647">
        <ele>163</ele>
        <time>2011-04-18T07:05:30.000Z</time>
      </trkpt>
      <trkpt lat="48.73995" lon="2.05645">
        <ele>162.60000610352</ele>
        <time>2011-04-18T07:05:33.000Z</time>
      </trkpt>
      <trkpt lat="48.73993" lon="2.05645">
        <ele>163</ele>
        <time>2011-04-18T07:05:35.000Z</time>
      </trkpt>
      <trkpt lat="48.7399" lon="2.05641">
        <ele>164</ele>
        <time>2011-04-18T07:05:40.000Z</time>
      </trkpt>
      <trkpt lat="48.73984" lon="2.05636">
        <ele>163.60000610352</ele>
        <time>2011-04-18T07:05:45.000Z</time>
      </trkpt>
      <trkpt lat="48.73975" lon="2.05632">
        <ele>162.60000610352</ele>
        <time>2011-04-18T07:05:52.000Z</time>
      </trkpt>
      <trkpt lat="48.73971" lon="2.05631">
        <ele>162.19999694824</ele>
        <time>2011-04-18T07:05:58.000Z</time>
      </trkpt>
      <trkpt lat="48.7397" lon="2.05631">
        <ele>161.60000610352</ele>
        <time>2011-04-18T07:05:59.000Z</time>
      </trkpt>
      <trkpt lat="48.73959" lon="2.05622">
        <ele>162.19999694824</ele>
        <time>2011-04-18T07:06:08.000Z</time>
      </trkpt>
      <trkpt lat="48.73957" lon="2.05621">
        <ele>162.19999694824</ele>
        <time>2011-04-18T07:06:12.000Z</time>
      </trkpt>
      <trkpt lat="48.73949" lon="2.05614">
        <ele>158.80000305176</ele>
        <time>2011-04-18T07:06:40.000Z</time>
      </trkpt>
      <trkpt lat="48.7394" lon="2.05607">
        <ele>159.80000305176</ele>
        <time>2011-04-18T07:06:47.000Z</time>
      </trkpt>
      <trkpt lat="48.7393" lon="2.05598">
        <ele>160.60000610352</ele>
        <time>2011-04-18T07:06:56.000Z</time>
      </trkpt>
      <trkpt lat="48.73925" lon="2.0559">
        <ele>160.60000610352</ele>
        <time>2011-04-18T07:07:02.000Z</time>
      </trkpt>
      <trkpt lat="48.7392" lon="2.05583">
        <ele>161.19999694824</ele>
        <time>2011-04-18T07:07:08.000Z</time>
      </trkpt>
      <trkpt lat="48.7392" lon="2.05579">
        <ele>161.19999694824</ele>
        <time>2011-04-18T07:07:13.000Z</time>
      </trkpt>
      <trkpt lat="48.73912" lon="2.05575">
        <ele>163</ele>
        <time>2011-04-18T07:08:24.000Z</time>
      </trkpt>
      <trkpt lat="48.73905" lon="2.05568">
        <ele>162.60000610352</ele>
        <time>2011-04-18T07:08:30.000Z</time>
      </trkpt>
      <trkpt lat="48.73903" lon="2.05566">
        <ele>163</ele>
        <time>2011-04-18T07:08:32.000Z</time>
      </trkpt>
      <trkpt lat="48.73897" lon="2.05559">
        <ele>163.60000610352</ele>
        <time>2011-04-18T07:08:38.000Z</time>
      </trkpt>
      <trkpt lat="48.73892" lon="2.05553">
        <ele>164</ele>
        <time>2011-04-18T07:08:43.000Z</time>
      </trkpt>
      <trkpt lat="48.73885" lon="2.05546">
        <ele>165</ele>
        <time>2011-04-18T07:08:49.000Z</time>
      </trkpt>
      <trkpt lat="48.73879" lon="2.05538">
        <ele>165.39999389648</ele>
        <time>2011-04-18T07:08:55.000Z</time>
      </trkpt>
      <trkpt lat="48.73873" lon="2.05528">
        <ele>165.39999389648</ele>
        <time>2011-04-18T07:09:02.000Z</time>
      </trkpt>
      <trkpt lat="48.73866" lon="2.05518">
        <ele>165.39999389648</ele>
        <time>2011-04-18T07:09:09.000Z</time>
      </trkpt>
      <trkpt lat="48.7386" lon="2.0551">
        <ele>166</ele>
        <time>2011-04-18T07:09:15.000Z</time>
      </trkpt>
      <trkpt lat="48.73853" lon="2.055">
        <ele>167</ele>
        <time>2011-04-18T07:09:22.000Z</time>
      </trkpt>
      <trkpt lat="48.73847" lon="2.05494">
        <ele>167.39999389648</ele>
        <time>2011-04-18T07:09:28.000Z</time>
      </trkpt>
      <trkpt lat="48.73845" lon="2.05491">
        <ele>167.80000305176</ele>
        <time>2011-04-18T07:09:30.000Z</time>
      </trkpt>
      <trkpt lat="48.73839" lon="2.05483">
        <ele>168.39999389648</ele>
        <time>2011-04-18T07:09:36.000Z</time>
      </trkpt>
      <trkpt lat="48.73835" lon="2.05477">
        <ele>168.80000305176</ele>
        <time>2011-04-18T07:09:40.000Z</time>
      </trkpt>
      <trkpt lat="48.73825" lon="2.05465">
        <ele>169.80000305176</ele>
        <time>2011-04-18T07:09:49.000Z</time>
      </trkpt>
      <trkpt lat="48.73817" lon="2.05455">
        <ele>169.80000305176</ele>
        <time>2011-04-18T07:09:57.000Z</time>
      </trkpt>
      <trkpt lat="48.73809" lon="2.05447">
        <ele>169.80000305176</ele>
        <time>2011-04-18T07:10:04.000Z</time>
      </trkpt>
      <trkpt lat="48.73802" lon="2.05438">
        <ele>168.80000305176</ele>
        <time>2011-04-18T07:10:11.000Z</time>
      </trkpt>
      <trkpt lat="48.73798" lon="2.05433">
        <ele>168.39999389648</ele>
        <time>2011-04-18T07:10:15.000Z</time>
      </trkpt>
      <trkpt lat="48.7379" lon="2.05426">
        <ele>168.80000305176</ele>
        <time>2011-04-18T07:10:22.000Z</time>
      </trkpt>
      <trkpt lat="48.73782" lon="2.05417">
        <ele>169.39999389648</ele>
        <time>2011-04-18T07:10:29.000Z</time>
      </trkpt>
      <trkpt lat="48.73773" lon="2.05408">
        <ele>169.80000305176</ele>
        <time>2011-04-18T07:10:37.000Z</time>
      </trkpt>
      <trkpt lat="48.73763" lon="2.05399">
        <ele>169.39999389648</ele>
        <time>2011-04-18T07:10:46.000Z</time>
      </trkpt>
      <trkpt lat="48.73756" lon="2.05392">
        <ele>168.80000305176</ele>
        <time>2011-04-18T07:10:53.000Z</time>
      </trkpt>
      <trkpt lat="48.73754" lon="2.0539">
        <ele>168.80000305176</ele>
        <time>2011-04-18T07:10:55.000Z</time>
      </trkpt>
      <trkpt lat="48.73747" lon="2.05382">
        <ele>167.80000305176</ele>
        <time>2011-04-18T07:11:01.000Z</time>
      </trkpt>
      <trkpt lat="48.73738" lon="2.05371">
        <ele>167.80000305176</ele>
        <time>2011-04-18T07:11:10.000Z</time>
      </trkpt>
      <trkpt lat="48.7373" lon="2.05362">
        <ele>167.39999389648</ele>
        <time>2011-04-18T07:11:18.000Z</time>
      </trkpt>
      <trkpt lat="48.73727" lon="2.05359">
        <ele>167.39999389648</ele>
        <time>2011-04-18T07:11:21.000Z</time>
      </trkpt>
      <trkpt lat="48.7372" lon="2.05349">
        <ele>166.39999389648</ele>
        <time>2011-04-18T07:11:29.000Z</time>
      </trkpt>
      <trkpt lat="48.73713" lon="2.0534">
        <ele>166.39999389648</ele>
        <time>2011-04-18T07:11:36.000Z</time>
      </trkpt>
      <trkpt lat="48.73708" lon="2.05335">
        <ele>166</ele>
        <time>2011-04-18T07:11:41.000Z</time>
      </trkpt>
      <trkpt lat="48.73699" lon="2.05324">
        <ele>166.39999389648</ele>
        <time>2011-04-18T07:11:50.000Z</time>
      </trkpt>
      <trkpt lat="48.73693" lon="2.05316">
        <ele>167</ele>
        <time>2011-04-18T07:11:57.000Z</time>
      </trkpt>
      <trkpt lat="48.73685" lon="2.05308">
        <ele>166.39999389648</ele>
        <time>2011-04-18T07:12:05.000Z</time>
      </trkpt>
      <trkpt lat="48.73676" lon="2.05298">
        <ele>166.39999389648</ele>
        <time>2011-04-18T07:12:14.000Z</time>
      </trkpt>
      <trkpt lat="48.73668" lon="2.05289">
        <ele>166.39999389648</ele>
        <time>2011-04-18T07:12:22.000Z</time>
      </trkpt>
      <trkpt lat="48.73658" lon="2.05278">
        <ele>166.39999389648</ele>
        <time>2011-04-18T07:12:32.000Z</time>
      </trkpt>
      <trkpt lat="48.73649" lon="2.05268">
        <ele>167</ele>
        <time>2011-04-18T07:12:41.000Z</time>
      </trkpt>
      <trkpt lat="48.73641" lon="2.05257">
        <ele>167</ele>
        <time>2011-04-18T07:12:50.000Z</time>
      </trkpt>
      <trkpt lat="48.7364" lon="2.05254">
        <ele>167</ele>
        <time>2011-04-18T07:12:52.000Z</time>
      </trkpt>
      <trkpt lat="48.73638" lon="2.05251">
        <ele>167</ele>
        <time>2011-04-18T07:12:56.000Z</time>
      </trkpt>
      <trkpt lat="48.73633" lon="2.05245">
        <ele>166.39999389648</ele>
        <time>2011-04-18T07:13:01.000Z</time>
      </trkpt>
      <trkpt lat="48.73625" lon="2.05233">
        <ele>165.39999389648</ele>
        <time>2011-04-18T07:13:10.000Z</time>
      </trkpt>
      <trkpt lat="48.73618" lon="2.05224">
        <ele>165</ele>
        <time>2011-04-18T07:13:17.000Z</time>
      </trkpt>
      <trkpt lat="48.73608" lon="2.0521">
        <ele>165</ele>
        <time>2011-04-18T07:13:27.000Z</time>
      </trkpt>
      <trkpt lat="48.736" lon="2.05198">
        <ele>165.39999389648</ele>
        <time>2011-04-18T07:13:36.000Z</time>
      </trkpt>
      <trkpt lat="48.7359" lon="2.05186">
        <ele>164.60000610352</ele>
        <time>2011-04-18T07:13:45.000Z</time>
      </trkpt>
      <trkpt lat="48.73581" lon="2.05173">
        <ele>164.60000610352</ele>
        <time>2011-04-18T07:13:54.000Z</time>
      </trkpt>
      <trkpt lat="48.73579" lon="2.05171">
        <ele>164.60000610352</ele>
        <time>2011-04-18T07:13:56.000Z</time>
      </trkpt>
      <trkpt lat="48.73577" lon="2.05169">
        <ele>165</ele>
        <time>2011-04-18T07:14:00.000Z</time>
      </trkpt>
      <trkpt lat="48.73563" lon="2.05152">
        <ele>165.39999389648</ele>
        <time>2011-04-18T07:14:20.000Z</time>
      </trkpt>
      <trkpt lat="48.73553" lon="2.05139">
        <ele>165.39999389648</ele>
        <time>2011-04-18T07:14:29.000Z</time>
      </trkpt>
      <trkpt lat="48.73545" lon="2.05127">
        <ele>165.39999389648</ele>
        <time>2011-04-18T07:14:38.000Z</time>
      </trkpt>
      <trkpt lat="48.73534" lon="2.05113">
        <ele>166</ele>
        <time>2011-04-18T07:14:49.000Z</time>
      </trkpt>
      <trkpt lat="48.73523" lon="2.05098">
        <ele>166</ele>
        <time>2011-04-18T07:15:00.000Z</time>
      </trkpt>
      <trkpt lat="48.73515" lon="2.05088">
        <ele>165.39999389648</ele>
        <time>2011-04-18T07:15:08.000Z</time>
      </trkpt>
      <trkpt lat="48.73509" lon="2.0508">
        <ele>166</ele>
        <time>2011-04-18T07:15:15.000Z</time>
      </trkpt>
      <trkpt lat="48.73503" lon="2.0507">
        <ele>164.60000610352</ele>
        <time>2011-04-18T07:15:22.000Z</time>
      </trkpt>
      <trkpt lat="48.73493" lon="2.05062">
        <ele>163.60000610352</ele>
        <time>2011-04-18T07:15:30.000Z</time>
      </trkpt>
      <trkpt lat="48.73485" lon="2.05057">
        <ele>162.19999694824</ele>
        <time>2011-04-18T07:15:37.000Z</time>
      </trkpt>
      <trkpt lat="48.73477" lon="2.05051">
        <ele>162.60000610352</ele>
        <time>2011-04-18T07:15:44.000Z</time>
      </trkpt>
      <trkpt lat="48.7347" lon="2.05045">
        <ele>160.60000610352</ele>
        <time>2011-04-18T07:15:50.000Z</time>
      </trkpt>
      <trkpt lat="48.73466" lon="2.05039">
        <ele>161.19999694824</ele>
        <time>2011-04-18T07:15:54.000Z</time>
      </trkpt>
      <trkpt lat="48.73463" lon="2.05037">
        <ele>160.19999694824</ele>
        <time>2011-04-18T07:15:56.000Z</time>
      </trkpt>
      <trkpt lat="48.73459" lon="2.0503">
        <ele>159.80000305176</ele>
        <time>2011-04-18T07:16:01.000Z</time>
      </trkpt>
      <trkpt lat="48.73456" lon="2.05027">
        <ele>158.19999694824</ele>
        <time>2011-04-18T07:16:05.000Z</time>
      </trkpt>
      <trkpt lat="48.73451" lon="2.05021">
        <ele>158.80000305176</ele>
        <time>2011-04-18T07:16:10.000Z</time>
      </trkpt>
      <trkpt lat="48.73449" lon="2.0502">
        <ele>160.60000610352</ele>
        <time>2011-04-18T07:16:11.000Z</time>
      </trkpt>
      <trkpt lat="48.73439" lon="2.05008">
        <ele>160.19999694824</ele>
        <time>2011-04-18T07:16:19.000Z</time>
      </trkpt>
      <trkpt lat="48.73436" lon="2.05004">
        <ele>160.60000610352</ele>
        <time>2011-04-18T07:16:22.000Z</time>
      </trkpt>
      <trkpt lat="48.7343" lon="2.04997">
        <ele>159.19999694824</ele>
        <time>2011-04-18T07:16:28.000Z</time>
      </trkpt>
      <trkpt lat="48.73426" lon="2.04991">
        <ele>157.39999389648</ele>
        <time>2011-04-18T07:16:33.000Z</time>
      </trkpt>
      <trkpt lat="48.73421" lon="2.04987">
        <ele>158.19999694824</ele>
        <time>2011-04-18T07:16:37.000Z</time>
      </trkpt>
      <trkpt lat="48.73418" lon="2.04983">
        <ele>159.19999694824</ele>
        <time>2011-04-18T07:16:39.000Z</time>
      </trkpt>
      <trkpt lat="48.7341" lon="2.0498">
        <ele>161.19999694824</ele>
        <time>2011-04-18T07:16:44.000Z</time>
      </trkpt>
      <trkpt lat="48.73406" lon="2.04974">
        <ele>160.19999694824</ele>
        <time>2011-04-18T07:16:49.000Z</time>
      </trkpt>
      <trkpt lat="48.73401" lon="2.04963">
        <ele>158.80000305176</ele>
        <time>2011-04-18T07:16:56.000Z</time>
      </trkpt>
      <trkpt lat="48.73397" lon="2.04956">
        <ele>157.80000305176</ele>
        <time>2011-04-18T07:17:01.000Z</time>
      </trkpt>
      <trkpt lat="48.73396" lon="2.04955">
        <ele>157.39999389648</ele>
        <time>2011-04-18T07:17:02.000Z</time>
      </trkpt>
      <trkpt lat="48.73389" lon="2.04942">
        <ele>157.80000305176</ele>
        <time>2011-04-18T07:17:10.000Z</time>
      </trkpt>
      <trkpt lat="48.73383" lon="2.04931">
        <ele>158.19999694824</ele>
        <time>2011-04-18T07:17:17.000Z</time>
      </trkpt>
      <trkpt lat="48.73379" lon="2.04929">
        <ele>159.19999694824</ele>
        <time>2011-04-18T07:17:21.000Z</time>
      </trkpt>
      <trkpt lat="48.73377" lon="2.04931">
        <ele>159.80000305176</ele>
        <time>2011-04-18T07:17:23.000Z</time>
      </trkpt>
      <trkpt lat="48.73371" lon="2.04932">
        <ele>163</ele>
        <time>2011-04-18T07:17:28.000Z</time>
      </trkpt>
      <trkpt lat="48.73368" lon="2.04937">
        <ele>163.60000610352</ele>
        <time>2011-04-18T07:17:33.000Z</time>
      </trkpt>
      <trkpt lat="48.73362" lon="2.04943">
        <ele>167.80000305176</ele>
        <time>2011-04-18T07:17:40.000Z</time>
      </trkpt>
      <trkpt lat="48.7336" lon="2.04946">
        <ele>169.80000305176</ele>
        <time>2011-04-18T07:17:43.000Z</time>
      </trkpt>
      <trkpt lat="48.73354" lon="2.04958">
        <ele>169.80000305176</ele>
        <time>2011-04-18T07:17:50.000Z</time>
      </trkpt>
      <trkpt lat="48.73352" lon="2.04961">
        <ele>170.19999694824</ele>
        <time>2011-04-18T07:17:52.000Z</time>
      </trkpt>
      <trkpt lat="48.73345" lon="2.04973">
        <ele>171.80000305176</ele>
        <time>2011-04-18T07:17:59.000Z</time>
      </trkpt>
      <trkpt lat="48.7334" lon="2.04982">
        <ele>173.19999694824</ele>
        <time>2011-04-18T07:18:04.000Z</time>
      </trkpt>
      <trkpt lat="48.73336" lon="2.04989">
        <ele>173.60000610352</ele>
        <time>2011-04-18T07:18:09.000Z</time>
      </trkpt>
      <trkpt lat="48.73333" lon="2.04994">
        <ele>174.19999694824</ele>
        <time>2011-04-18T07:18:13.000Z</time>
      </trkpt>
      <trkpt lat="48.73329" lon="2.04999">
        <ele>173.19999694824</ele>
        <time>2011-04-18T07:18:17.000Z</time>
      </trkpt>
      <trkpt lat="48.73326" lon="2.05007">
        <ele>173.19999694824</ele>
        <time>2011-04-18T07:18:22.000Z</time>
      </trkpt>
      <trkpt lat="48.7332" lon="2.05018">
        <ele>176</ele>
        <time>2011-04-18T07:18:28.000Z</time>
      </trkpt>
      <trkpt lat="48.73318" lon="2.05023">
        <ele>174.60000610352</ele>
        <time>2011-04-18T07:18:33.000Z</time>
      </trkpt>
      <trkpt lat="48.73318" lon="2.05024">
        <ele>174.19999694824</ele>
        <time>2011-04-18T07:18:34.000Z</time>
      </trkpt>
      <trkpt lat="48.73311" lon="2.05036">
        <ele>173.60000610352</ele>
        <time>2011-04-18T07:18:41.000Z</time>
      </trkpt>
      <trkpt lat="48.73309" lon="2.05039">
        <ele>172.60000610352</ele>
        <time>2011-04-18T07:18:43.000Z</time>
      </trkpt>
      <trkpt lat="48.73305" lon="2.05045">
        <ele>171.19999694824</ele>
        <time>2011-04-18T07:18:49.000Z</time>
      </trkpt>
      <trkpt lat="48.73301" lon="2.05054">
        <ele>170.19999694824</ele>
        <time>2011-04-18T07:18:56.000Z</time>
      </trkpt>
      <trkpt lat="48.73295" lon="2.05062">
        <ele>170.19999694824</ele>
        <time>2011-04-18T07:19:02.000Z</time>
      </trkpt>
      <trkpt lat="48.73288" lon="2.05074">
        <ele>171.80000305176</ele>
        <time>2011-04-18T07:19:09.000Z</time>
      </trkpt>
      <trkpt lat="48.73281" lon="2.05084">
        <ele>171.19999694824</ele>
        <time>2011-04-18T07:19:16.000Z</time>
      </trkpt>
      <trkpt lat="48.73274" lon="2.05096">
        <ele>172.19999694824</ele>
        <time>2011-04-18T07:19:23.000Z</time>
      </trkpt>
      <trkpt lat="48.7327" lon="2.05104">
        <ele>171.19999694824</ele>
        <time>2011-04-18T07:19:29.000Z</time>
      </trkpt>
      <trkpt lat="48.73263" lon="2.05116">
        <ele>171.80000305176</ele>
        <time>2011-04-18T07:19:36.000Z</time>
      </trkpt>
      <trkpt lat="48.73259" lon="2.0512">
        <ele>170.80000305176</ele>
        <time>2011-04-18T07:19:41.000Z</time>
      </trkpt>
      <trkpt lat="48.73255" lon="2.05126">
        <ele>170.80000305176</ele>
        <time>2011-04-18T07:19:47.000Z</time>
      </trkpt>
      <trkpt lat="48.73249" lon="2.05136">
        <ele>170.80000305176</ele>
        <time>2011-04-18T07:19:54.000Z</time>
      </trkpt>
      <trkpt lat="48.73249" lon="2.05138">
        <ele>170.19999694824</ele>
        <time>2011-04-18T07:19:55.000Z</time>
      </trkpt>
      <trkpt lat="48.73244" lon="2.05146">
        <ele>169.80000305176</ele>
        <time>2011-04-18T07:20:00.000Z</time>
      </trkpt>
      <trkpt lat="48.73239" lon="2.05155">
        <ele>169.39999389648</ele>
        <time>2011-04-18T07:20:06.000Z</time>
      </trkpt>
      <trkpt lat="48.73232" lon="2.05173">
        <ele>171.80000305176</ele>
        <time>2011-04-18T07:20:14.000Z</time>
      </trkpt>
      <trkpt lat="48.73232" lon="2.05175">
        <ele>172.19999694824</ele>
        <time>2011-04-18T07:20:15.000Z</time>
      </trkpt>
      <trkpt lat="48.73227" lon="2.05181">
        <ele>173.60000610352</ele>
        <time>2011-04-18T07:20:20.000Z</time>
      </trkpt>
      <trkpt lat="48.73218" lon="2.05195">
        <ele>175.60000610352</ele>
        <time>2011-04-18T07:20:28.000Z</time>
      </trkpt>
      <trkpt lat="48.73211" lon="2.05207">
        <ele>175</ele>
        <time>2011-04-18T07:20:36.000Z</time>
      </trkpt>
      <trkpt lat="48.73208" lon="2.05214">
        <ele>172.19999694824</ele>
        <time>2011-04-18T07:20:42.000Z</time>
      </trkpt>
      <trkpt lat="48.73204" lon="2.0522">
        <ele>170.80000305176</ele>
        <time>2011-04-18T07:20:46.000Z</time>
      </trkpt>
      <trkpt lat="48.732" lon="2.05231">
        <ele>171.19999694824</ele>
        <time>2011-04-18T07:20:53.000Z</time>
      </trkpt>
      <trkpt lat="48.73196" lon="2.05238">
        <ele>170.19999694824</ele>
        <time>2011-04-18T07:20:59.000Z</time>
      </trkpt>
      <trkpt lat="48.73195" lon="2.0524">
        <ele>170.19999694824</ele>
        <time>2011-04-18T07:21:02.000Z</time>
      </trkpt>
      <trkpt lat="48.73196" lon="2.05247">
        <ele>170.19999694824</ele>
        <time>2011-04-18T07:21:08.000Z</time>
      </trkpt>
      <trkpt lat="48.73197" lon="2.05257">
        <ele>167.39999389648</ele>
        <time>2011-04-18T07:21:14.000Z</time>
      </trkpt>
      <trkpt lat="48.73198" lon="2.05266">
        <ele>165.39999389648</ele>
        <time>2011-04-18T07:21:18.000Z</time>
      </trkpt>
      <trkpt lat="48.732" lon="2.05269">
        <ele>165.39999389648</ele>
        <time>2011-04-18T07:21:21.000Z</time>
      </trkpt>
      <trkpt lat="48.73201" lon="2.05275">
        <ele>163.60000610352</ele>
        <time>2011-04-18T07:21:24.000Z</time>
      </trkpt>
      <trkpt lat="48.73206" lon="2.05283">
        <ele>166</ele>
        <time>2011-04-18T07:21:29.000Z</time>
      </trkpt>
      <trkpt lat="48.7321" lon="2.05296">
        <ele>163.60000610352</ele>
        <time>2011-04-18T07:21:37.000Z</time>
      </trkpt>
      <trkpt lat="48.73211" lon="2.05297">
        <ele>163</ele>
        <time>2011-04-18T07:21:38.000Z</time>
      </trkpt>
      <trkpt lat="48.7321" lon="2.05306">
        <ele>162.19999694824</ele>
        <time>2011-04-18T07:21:42.000Z</time>
      </trkpt>
      <trkpt lat="48.73212" lon="2.05315">
        <ele>166</ele>
        <time>2011-04-18T07:21:47.000Z</time>
      </trkpt>
      <trkpt lat="48.73209" lon="2.05326">
        <ele>165</ele>
        <time>2011-04-18T07:21:53.000Z</time>
      </trkpt>
      <trkpt lat="48.73208" lon="2.05334">
        <ele>166</ele>
        <time>2011-04-18T07:21:57.000Z</time>
      </trkpt>
      <trkpt lat="48.73204" lon="2.05347">
        <ele>167.80000305176</ele>
        <time>2011-04-18T07:22:02.000Z</time>
      </trkpt>
      <trkpt lat="48.73203" lon="2.0536">
        <ele>168.39999389648</ele>
        <time>2011-04-18T07:22:08.000Z</time>
      </trkpt>
      <trkpt lat="48.73202" lon="2.05363">
        <ele>167.80000305176</ele>
        <time>2011-04-18T07:22:10.000Z</time>
      </trkpt>
      <trkpt lat="48.73204" lon="2.05372">
        <ele>167.80000305176</ele>
        <time>2011-04-18T07:22:16.000Z</time>
      </trkpt>
      <trkpt lat="48.73208" lon="2.05382">
        <ele>165</ele>
        <time>2011-04-18T07:22:23.000Z</time>
      </trkpt>
      <trkpt lat="48.7321" lon="2.05387">
        <ele>165.39999389648</ele>
        <time>2011-04-18T07:22:27.000Z</time>
      </trkpt>
      <trkpt lat="48.73212" lon="2.05393">
        <ele>165.39999389648</ele>
        <time>2011-04-18T07:22:31.000Z</time>
      </trkpt>
      <trkpt lat="48.73212" lon="2.05394">
        <ele>166.39999389648</ele>
        <time>2011-04-18T07:22:32.000Z</time>
      </trkpt>
      <trkpt lat="48.73216" lon="2.05401">
        <ele>167.80000305176</ele>
        <time>2011-04-18T07:22:37.000Z</time>
      </trkpt>
      <trkpt lat="48.73218" lon="2.05402">
        <ele>167.39999389648</ele>
        <time>2011-04-18T07:22:39.000Z</time>
      </trkpt>
      <trkpt lat="48.73228" lon="2.05413">
        <ele>168.80000305176</ele>
        <time>2011-04-18T07:22:46.000Z</time>
      </trkpt>
      <trkpt lat="48.73236" lon="2.05427">
        <ele>162.60000610352</ele>
        <time>2011-04-18T07:22:54.000Z</time>
      </trkpt>
      <trkpt lat="48.7324" lon="2.05433">
        <ele>161.60000610352</ele>
        <time>2011-04-18T07:22:59.000Z</time>
      </trkpt>
      <trkpt lat="48.73243" lon="2.05437">
        <ele>164.60000610352</ele>
        <time>2011-04-18T07:23:04.000Z</time>
      </trkpt>
      <trkpt lat="48.73249" lon="2.05445">
        <ele>165.39999389648</ele>
        <time>2011-04-18T07:23:10.000Z</time>
      </trkpt>
      <trkpt lat="48.7325" lon="2.05451">
        <ele>164.60000610352</ele>
        <time>2011-04-18T07:23:14.000Z</time>
      </trkpt>
      <trkpt lat="48.73249" lon="2.05454">
        <ele>164.60000610352</ele>
        <time>2011-04-18T07:23:16.000Z</time>
      </trkpt>
      <trkpt lat="48.73252" lon="2.05466">
        <ele>162.19999694824</ele>
        <time>2011-04-18T07:23:23.000Z</time>
      </trkpt>
      <trkpt lat="48.73254" lon="2.05468">
        <ele>162.60000610352</ele>
        <time>2011-04-18T07:23:25.000Z</time>
      </trkpt>
      <trkpt lat="48.73259" lon="2.0548">
        <ele>162.60000610352</ele>
        <time>2011-04-18T07:23:32.000Z</time>
      </trkpt>
      <trkpt lat="48.73261" lon="2.05486">
        <ele>164</ele>
        <time>2011-04-18T07:23:35.000Z</time>
      </trkpt>
      <trkpt lat="48.73261" lon="2.05487">
        <ele>163.60000610352</ele>
        <time>2011-04-18T07:23:37.000Z</time>
      </trkpt>
      <trkpt lat="48.73261" lon="2.05494">
        <ele>161.60000610352</ele>
        <time>2011-04-18T07:23:42.000Z</time>
      </trkpt>
      <trkpt lat="48.73263" lon="2.05499">
        <ele>162.19999694824</ele>
        <time>2011-04-18T07:23:48.000Z</time>
      </trkpt>
      <trkpt lat="48.73265" lon="2.05504">
        <ele>161.19999694824</ele>
        <time>2011-04-18T07:23:53.000Z</time>
      </trkpt>
      <trkpt lat="48.73265" lon="2.05504">
        <ele>160.60000610352</ele>
        <time>2011-04-18T07:23:55.000Z</time>
      </trkpt>
      <trkpt lat="48.73279" lon="2.05546">
        <ele>162.19999694824</ele>
        <time>2011-04-18T07:24:30.000Z</time>
      </trkpt>
      <trkpt lat="48.73285" lon="2.05555">
        <ele>164.60000610352</ele>
        <time>2011-04-18T07:24:34.000Z</time>
      </trkpt>
      <trkpt lat="48.7329" lon="2.05567">
        <ele>167</ele>
        <time>2011-04-18T07:24:41.000Z</time>
      </trkpt>
      <trkpt lat="48.73293" lon="2.05576">
        <ele>167</ele>
        <time>2011-04-18T07:24:47.000Z</time>
      </trkpt>
      <trkpt lat="48.73295" lon="2.05587">
        <ele>167.39999389648</ele>
        <time>2011-04-18T07:24:53.000Z</time>
      </trkpt>
      <trkpt lat="48.73296" lon="2.05589">
        <ele>167.80000305176</ele>
        <time>2011-04-18T07:24:54.000Z</time>
      </trkpt>
      <trkpt lat="48.73297" lon="2.05597">
        <ele>168.80000305176</ele>
        <time>2011-04-18T07:24:58.000Z</time>
      </trkpt>
      <trkpt lat="48.73298" lon="2.05601">
        <ele>169.80000305176</ele>
        <time>2011-04-18T07:25:00.000Z</time>
      </trkpt>
      <trkpt lat="48.73297" lon="2.05618">
        <ele>169.80000305176</ele>
        <time>2011-04-18T07:25:08.000Z</time>
      </trkpt>
      <trkpt lat="48.73298" lon="2.05628">
        <ele>169.80000305176</ele>
        <time>2011-04-18T07:25:14.000Z</time>
      </trkpt>
      <trkpt lat="48.73293" lon="2.05645">
        <ele>169.80000305176</ele>
        <time>2011-04-18T07:25:23.000Z</time>
      </trkpt>
      <trkpt lat="48.73292" lon="2.05657">
        <ele>168.39999389648</ele>
        <time>2011-04-18T07:25:29.000Z</time>
      </trkpt>
      <trkpt lat="48.7329" lon="2.05671">
        <ele>169.39999389648</ele>
        <time>2011-04-18T07:25:37.000Z</time>
      </trkpt>
      <trkpt lat="48.7329" lon="2.05678">
        <ele>167.80000305176</ele>
        <time>2011-04-18T07:25:41.000Z</time>
      </trkpt>
      <trkpt lat="48.73288" lon="2.05693">
        <ele>169.39999389648</ele>
        <time>2011-04-18T07:25:48.000Z</time>
      </trkpt>
      <trkpt lat="48.73288" lon="2.05705">
        <ele>169.39999389648</ele>
        <time>2011-04-18T07:25:55.000Z</time>
      </trkpt>
      <trkpt lat="48.73287" lon="2.05717">
        <ele>169.80000305176</ele>
        <time>2011-04-18T07:26:02.000Z</time>
      </trkpt>
      <trkpt lat="48.73285" lon="2.05722">
        <ele>169.39999389648</ele>
        <time>2011-04-18T07:26:05.000Z</time>
      </trkpt>
      <trkpt lat="48.73283" lon="2.05732">
        <ele>168.80000305176</ele>
        <time>2011-04-18T07:26:11.000Z</time>
      </trkpt>
      <trkpt lat="48.7328" lon="2.05745">
        <ele>167.80000305176</ele>
        <time>2011-04-18T07:26:17.000Z</time>
      </trkpt>
      <trkpt lat="48.7328" lon="2.05754">
        <ele>168.39999389648</ele>
        <time>2011-04-18T07:26:22.000Z</time>
      </trkpt>
      <trkpt lat="48.7328" lon="2.05764">
        <ele>167.80000305176</ele>
        <time>2011-04-18T07:26:28.000Z</time>
      </trkpt>
      <trkpt lat="48.73279" lon="2.05773">
        <ele>169.80000305176</ele>
        <time>2011-04-18T07:26:33.000Z</time>
      </trkpt>
      <trkpt lat="48.73278" lon="2.05775">
        <ele>170.19999694824</ele>
        <time>2011-04-18T07:26:34.000Z</time>
      </trkpt>
      <trkpt lat="48.73273" lon="2.05787">
        <ele>170.80000305176</ele>
        <time>2011-04-18T07:26:40.000Z</time>
      </trkpt>
      <trkpt lat="48.7327" lon="2.05799">
        <ele>172.19999694824</ele>
        <time>2011-04-18T07:26:46.000Z</time>
      </trkpt>
      <trkpt lat="48.73269" lon="2.05807">
        <ele>172.60000610352</ele>
        <time>2011-04-18T07:26:51.000Z</time>
      </trkpt>
      <trkpt lat="48.73266" lon="2.05819">
        <ele>172.60000610352</ele>
        <time>2011-04-18T07:26:59.000Z</time>
      </trkpt>
      <trkpt lat="48.73265" lon="2.05822">
        <ele>172.19999694824</ele>
        <time>2011-04-18T07:27:04.000Z</time>
      </trkpt>
      <trkpt lat="48.73272" lon="2.05831">
        <ele>164</ele>
        <time>2011-04-18T07:28:58.000Z</time>
      </trkpt>
      <trkpt lat="48.73276" lon="2.05831">
        <ele>164.60000610352</ele>
        <time>2011-04-18T07:29:01.000Z</time>
      </trkpt>
      <trkpt lat="48.73281" lon="2.05835">
        <ele>166</ele>
        <time>2011-04-18T07:29:07.000Z</time>
      </trkpt>
      <trkpt lat="48.73289" lon="2.05836">
        <ele>165</ele>
        <time>2011-04-18T07:29:14.000Z</time>
      </trkpt>
      <trkpt lat="48.73297" lon="2.05836">
        <ele>164</ele>
        <time>2011-04-18T07:29:19.000Z</time>
      </trkpt>
      <trkpt lat="48.73301" lon="2.05837">
        <ele>164</ele>
        <time>2011-04-18T07:29:23.000Z</time>
      </trkpt>
      <trkpt lat="48.7331" lon="2.05842">
        <ele>165.39999389648</ele>
        <time>2011-04-18T07:29:29.000Z</time>
      </trkpt>
      <trkpt lat="48.73314" lon="2.05844">
        <ele>167</ele>
        <time>2011-04-18T07:29:33.000Z</time>
      </trkpt>
      <trkpt lat="48.73318" lon="2.05846">
        <ele>171.19999694824</ele>
        <time>2011-04-18T07:29:37.000Z</time>
      </trkpt>
      <trkpt lat="48.7332" lon="2.05847">
        <ele>172.19999694824</ele>
        <time>2011-04-18T07:29:40.000Z</time>
      </trkpt>
      <trkpt lat="48.73323" lon="2.0585">
        <ele>168.39999389648</ele>
        <time>2011-04-18T07:29:42.000Z</time>
      </trkpt>
      <trkpt lat="48.73325" lon="2.05853">
        <ele>165.39999389648</ele>
        <time>2011-04-18T07:29:46.000Z</time>
      </trkpt>
      <trkpt lat="48.73328" lon="2.05856">
        <ele>164.60000610352</ele>
        <time>2011-04-18T07:29:50.000Z</time>
      </trkpt>
      <trkpt lat="48.73334" lon="2.05861">
        <ele>160.60000610352</ele>
        <time>2011-04-18T07:29:53.000Z</time>
      </trkpt>
      <trkpt lat="48.73338" lon="2.05866">
        <ele>161.19999694824</ele>
        <time>2011-04-18T07:29:57.000Z</time>
      </trkpt>
      <trkpt lat="48.73343" lon="2.05873">
        <ele>161.19999694824</ele>
        <time>2011-04-18T07:30:02.000Z</time>
      </trkpt>
      <trkpt lat="48.73348" lon="2.05879">
        <ele>162.60000610352</ele>
        <time>2011-04-18T07:30:07.000Z</time>
      </trkpt>
      <trkpt lat="48.7335" lon="2.05883">
        <ele>162.60000610352</ele>
        <time>2011-04-18T07:30:12.000Z</time>
      </trkpt>
      <trkpt lat="48.7335" lon="2.05883">
        <ele>162.60000610352</ele>
        <time>2011-04-18T07:30:14.000Z</time>
      </trkpt>
      <trkpt lat="48.73344" lon="2.05879">
        <ele>160.19999694824</ele>
        <time>2011-04-18T07:30:38.000Z</time>
      </trkpt>
      <trkpt lat="48.73337" lon="2.05874">
        <ele>159.80000305176</ele>
        <time>2011-04-18T07:30:43.000Z</time>
      </trkpt>
      <trkpt lat="48.73332" lon="2.0587">
        <ele>159.19999694824</ele>
        <time>2011-04-18T07:30:48.000Z</time>
      </trkpt>
      <trkpt lat="48.73328" lon="2.05866">
        <ele>160.60000610352</ele>
        <time>2011-04-18T07:30:54.000Z</time>
      </trkpt>
      <trkpt lat="48.73327" lon="2.05859">
        <ele>158.19999694824</ele>
        <time>2011-04-18T07:31:02.000Z</time>
      </trkpt>
      <trkpt lat="48.73326" lon="2.05857">
        <ele>159.19999694824</ele>
        <time>2011-04-18T07:31:06.000Z</time>
      </trkpt>
      <trkpt lat="48.7332" lon="2.05858">
        <ele>169.80000305176</ele>
        <time>2011-04-18T07:31:43.000Z</time>
      </trkpt>
      <trkpt lat="48.73319" lon="2.05858">
        <ele>170.80000305176</ele>
        <time>2011-04-18T07:31:45.000Z</time>
      </trkpt>
      <trkpt lat="48.7332" lon="2.05856">
        <ele>166</ele>
        <time>2011-04-18T07:34:06.000Z</time>
      </trkpt>
      <trkpt lat="48.73314" lon="2.05853">
        <ele>167</ele>
        <time>2011-04-18T07:34:09.000Z</time>
      </trkpt>
      <trkpt lat="48.73305" lon="2.05851">
        <ele>167.80000305176</ele>
        <time>2011-04-18T07:34:16.000Z</time>
      </trkpt>
      <trkpt lat="48.73296" lon="2.05849">
        <ele>171.80000305176</ele>
        <time>2011-04-18T07:34:23.000Z</time>
      </trkpt>
      <trkpt lat="48.73286" lon="2.05844">
        <ele>165.39999389648</ele>
        <time>2011-04-18T07:34:30.000Z</time>
      </trkpt>
      <trkpt lat="48.73277" lon="2.05841">
        <ele>164</ele>
        <time>2011-04-18T07:34:36.000Z</time>
      </trkpt>
      <trkpt lat="48.73272" lon="2.05839">
        <ele>165</ele>
        <time>2011-04-18T07:34:40.000Z</time>
      </trkpt>
      <trkpt lat="48.73269" lon="2.05837">
        <ele>165.39999389648</ele>
        <time>2011-04-18T07:34:42.000Z</time>
      </trkpt>
      <trkpt lat="48.73265" lon="2.05834">
        <ele>163</ele>
        <time>2011-04-18T07:34:46.000Z</time>
      </trkpt>
      <trkpt lat="48.73256" lon="2.05833">
        <ele>166</ele>
        <time>2011-04-18T07:34:53.000Z</time>
      </trkpt>
      <trkpt lat="48.73253" lon="2.05833">
        <ele>165.39999389648</ele>
        <time>2011-04-18T07:34:55.000Z</time>
      </trkpt>
      <trkpt lat="48.73244" lon="2.05831">
        <ele>164.60000610352</ele>
        <time>2011-04-18T07:35:02.000Z</time>
      </trkpt>
      <trkpt lat="48.73239" lon="2.05829">
        <ele>166.39999389648</ele>
        <time>2011-04-18T07:35:08.000Z</time>
      </trkpt>
      <trkpt lat="48.73236" lon="2.05822">
        <ele>167.80000305176</ele>
        <time>2011-04-18T07:35:13.000Z</time>
      </trkpt>
      <trkpt lat="48.73235" lon="2.05815">
        <ele>167</ele>
        <time>2011-04-18T07:35:17.000Z</time>
      </trkpt>
      <trkpt lat="48.73235" lon="2.05811">
        <ele>166</ele>
        <time>2011-04-18T07:35:19.000Z</time>
      </trkpt>
      <trkpt lat="48.73235" lon="2.05796">
        <ele>158.80000305176</ele>
        <time>2011-04-18T07:35:26.000Z</time>
      </trkpt>
      <trkpt lat="48.73236" lon="2.05784">
        <ele>154</ele>
        <time>2011-04-18T07:35:32.000Z</time>
      </trkpt>
      <trkpt lat="48.73236" lon="2.05779">
        <ele>153</ele>
        <time>2011-04-18T07:35:34.000Z</time>
      </trkpt>
      <trkpt lat="48.73236" lon="2.05771">
        <ele>151</ele>
        <time>2011-04-18T07:35:38.000Z</time>
      </trkpt>
      <trkpt lat="48.73236" lon="2.0576">
        <ele>149.19999694824</ele>
        <time>2011-04-18T07:35:43.000Z</time>
      </trkpt>
      <trkpt lat="48.73236" lon="2.05748">
        <ele>147.19999694824</ele>
        <time>2011-04-18T07:35:49.000Z</time>
      </trkpt>
      <trkpt lat="48.73237" lon="2.0574">
        <ele>145.80000305176</ele>
        <time>2011-04-18T07:35:53.000Z</time>
      </trkpt>
      <trkpt lat="48.73234" lon="2.05725">
        <ele>146.80000305176</ele>
        <time>2011-04-18T07:36:01.000Z</time>
      </trkpt>
      <trkpt lat="48.73232" lon="2.05712">
        <ele>146.80000305176</ele>
        <time>2011-04-18T07:36:09.000Z</time>
      </trkpt>
      <trkpt lat="48.73233" lon="2.05699">
        <ele>146.80000305176</ele>
        <time>2011-04-18T07:36:15.000Z</time>
      </trkpt>
      <trkpt lat="48.73234" lon="2.05691">
        <ele>144.39999389648</ele>
        <time>2011-04-18T07:36:19.000Z</time>
      </trkpt>
      <trkpt lat="48.73241" lon="2.05672">
        <ele>137.60000610352</ele>
        <time>2011-04-18T07:36:29.000Z</time>
      </trkpt>
      <trkpt lat="48.73243" lon="2.05655">
        <ele>135.60000610352</ele>
        <time>2011-04-18T07:36:37.000Z</time>
      </trkpt>
      <trkpt lat="48.73242" lon="2.05639">
        <ele>136.60000610352</ele>
        <time>2011-04-18T07:36:44.000Z</time>
      </trkpt>
      <trkpt lat="48.73243" lon="2.05625">
        <ele>133.19999694824</ele>
        <time>2011-04-18T07:36:51.000Z</time>
      </trkpt>
      <trkpt lat="48.7324" lon="2.0562">
        <ele>134.19999694824</ele>
        <time>2011-04-18T07:36:54.000Z</time>
      </trkpt>
      <trkpt lat="48.73238" lon="2.05615">
        <ele>133.80000305176</ele>
        <time>2011-04-18T07:36:57.000Z</time>
      </trkpt>
      <trkpt lat="48.73226" lon="2.05609">
        <ele>133.19999694824</ele>
        <time>2011-04-18T07:37:07.000Z</time>
      </trkpt>
      <trkpt lat="48.73216" lon="2.05612">
        <ele>136.19999694824</ele>
        <time>2011-04-18T07:37:15.000Z</time>
      </trkpt>
      <trkpt lat="48.73212" lon="2.05614">
        <ele>133.80000305176</ele>
        <time>2011-04-18T07:37:22.000Z</time>
      </trkpt>
      <trkpt lat="48.73208" lon="2.05616">
        <ele>131.80000305176</ele>
        <time>2011-04-18T07:37:26.000Z</time>
      </trkpt>
      <trkpt lat="48.732" lon="2.05616">
        <ele>129.39999389648</ele>
        <time>2011-04-18T07:37:33.000Z</time>
      </trkpt>
      <trkpt lat="48.73191" lon="2.05609">
        <ele>128</ele>
        <time>2011-04-18T07:37:41.000Z</time>
      </trkpt>
      <trkpt lat="48.73181" lon="2.05602">
        <ele>128.39999389648</ele>
        <time>2011-04-18T07:37:49.000Z</time>
      </trkpt>
      <trkpt lat="48.73171" lon="2.05592">
        <ele>130.39999389648</ele>
        <time>2011-04-18T07:37:59.000Z</time>
      </trkpt>
      <trkpt lat="48.73163" lon="2.05586">
        <ele>131.80000305176</ele>
        <time>2011-04-18T07:38:05.000Z</time>
      </trkpt>
      <trkpt lat="48.73155" lon="2.05578">
        <ele>131.80000305176</ele>
        <time>2011-04-18T07:38:12.000Z</time>
      </trkpt>
      <trkpt lat="48.73154" lon="2.05577">
        <ele>131.39999389648</ele>
        <time>2011-04-18T07:38:13.000Z</time>
      </trkpt>
      <trkpt lat="48.73149" lon="2.05567">
        <ele>129</ele>
        <time>2011-04-18T07:38:19.000Z</time>
      </trkpt>
      <trkpt lat="48.73144" lon="2.05558">
        <ele>126</ele>
        <time>2011-04-18T07:38:25.000Z</time>
      </trkpt>
      <trkpt lat="48.73137" lon="2.0555">
        <ele>123.19999694824</ele>
        <time>2011-04-18T07:38:31.000Z</time>
      </trkpt>
      <trkpt lat="48.73134" lon="2.05545">
        <ele>122.19999694824</ele>
        <time>2011-04-18T07:38:34.000Z</time>
      </trkpt>
      <trkpt lat="48.73131" lon="2.0554">
        <ele>122.19999694824</ele>
        <time>2011-04-18T07:38:38.000Z</time>
      </trkpt>
      <trkpt lat="48.73126" lon="2.05537">
        <ele>124.19999694824</ele>
        <time>2011-04-18T07:38:43.000Z</time>
      </trkpt>
      <trkpt lat="48.73125" lon="2.05538">
        <ele>123.19999694824</ele>
        <time>2011-04-18T07:38:47.000Z</time>
      </trkpt>
      <trkpt lat="48.73122" lon="2.05519">
        <ele>129.39999389648</ele>
        <time>2011-04-18T07:39:24.000Z</time>
      </trkpt>
      <trkpt lat="48.73123" lon="2.05507">
        <ele>126.59999847412</ele>
        <time>2011-04-18T07:39:28.000Z</time>
      </trkpt>
      <trkpt lat="48.73125" lon="2.05494">
        <ele>124.19999694824</ele>
        <time>2011-04-18T07:39:34.000Z</time>
      </trkpt>
      <trkpt lat="48.73127" lon="2.05485">
        <ele>122.80000305176</ele>
        <time>2011-04-18T07:39:38.000Z</time>
      </trkpt>
      <trkpt lat="48.73124" lon="2.05469">
        <ele>125.19999694824</ele>
        <time>2011-04-18T07:39:47.000Z</time>
      </trkpt>
      <trkpt lat="48.73119" lon="2.05463">
        <ele>128</ele>
        <time>2011-04-18T07:39:53.000Z</time>
      </trkpt>
      <trkpt lat="48.73117" lon="2.0546">
        <ele>127.59999847412</ele>
        <time>2011-04-18T07:39:55.000Z</time>
      </trkpt>
      <trkpt lat="48.73111" lon="2.05443">
        <ele>123.19999694824</ele>
        <time>2011-04-18T07:40:04.000Z</time>
      </trkpt>
      <trkpt lat="48.73106" lon="2.05429">
        <ele>122.80000305176</ele>
        <time>2011-04-18T07:40:12.000Z</time>
      </trkpt>
      <trkpt lat="48.73102" lon="2.05415">
        <ele>121.19999694824</ele>
        <time>2011-04-18T07:40:20.000Z</time>
      </trkpt>
      <trkpt lat="48.73096" lon="2.05401">
        <ele>121.19999694824</ele>
        <time>2011-04-18T07:40:29.000Z</time>
      </trkpt>
      <trkpt lat="48.73096" lon="2.05392">
        <ele>120.40000152588</ele>
        <time>2011-04-18T07:40:34.000Z</time>
      </trkpt>
      <trkpt lat="48.73095" lon="2.05378">
        <ele>118.80000305176</ele>
        <time>2011-04-18T07:40:41.000Z</time>
      </trkpt>
      <trkpt lat="48.73094" lon="2.0537">
        <ele>117.40000152588</ele>
        <time>2011-04-18T07:40:46.000Z</time>
      </trkpt>
      <trkpt lat="48.7309" lon="2.05361">
        <ele>114.59999847412</ele>
        <time>2011-04-18T07:40:52.000Z</time>
      </trkpt>
      <trkpt lat="48.73088" lon="2.05357">
        <ele>113.59999847412</ele>
        <time>2011-04-18T07:40:55.000Z</time>
      </trkpt>
      <trkpt lat="48.73086" lon="2.05346">
        <ele>112.19999694824</ele>
        <time>2011-04-18T07:41:01.000Z</time>
      </trkpt>
      <trkpt lat="48.73079" lon="2.05333">
        <ele>110.59999847412</ele>
        <time>2011-04-18T07:41:11.000Z</time>
      </trkpt>
      <trkpt lat="48.73073" lon="2.0532">
        <ele>108.80000305176</ele>
        <time>2011-04-18T07:41:21.000Z</time>
      </trkpt>
      <trkpt lat="48.73067" lon="2.05311">
        <ele>106.80000305176</ele>
        <time>2011-04-18T07:41:28.000Z</time>
      </trkpt>
      <trkpt lat="48.73059" lon="2.05299">
        <ele>105.80000305176</ele>
        <time>2011-04-18T07:41:36.000Z</time>
      </trkpt>
      <trkpt lat="48.73053" lon="2.0529">
        <ele>105.80000305176</ele>
        <time>2011-04-18T07:41:43.000Z</time>
      </trkpt>
      <trkpt lat="48.73045" lon="2.05276">
        <ele>107.40000152588</ele>
        <time>2011-04-18T07:41:52.000Z</time>
      </trkpt>
      <trkpt lat="48.7304" lon="2.05265">
        <ele>105.80000305176</ele>
        <time>2011-04-18T07:42:00.000Z</time>
      </trkpt>
      <trkpt lat="48.73037" lon="2.05262">
        <ele>105.80000305176</ele>
        <time>2011-04-18T07:42:03.000Z</time>
      </trkpt>
      <trkpt lat="48.73037" lon="2.0526">
        <ele>105.40000152588</ele>
        <time>2011-04-18T07:42:07.000Z</time>
      </trkpt>
      <trkpt lat="48.7303" lon="2.05236">
        <ele>107.40000152588</ele>
        <time>2011-04-18T07:43:27.000Z</time>
      </trkpt>
      <trkpt lat="48.7303" lon="2.05229">
        <ele>105.40000152588</ele>
        <time>2011-04-18T07:43:30.000Z</time>
      </trkpt>
      <trkpt lat="48.73028" lon="2.05211">
        <ele>105.40000152588</ele>
        <time>2011-04-18T07:43:38.000Z</time>
      </trkpt>
      <trkpt lat="48.73027" lon="2.05206">
        <ele>105</ele>
        <time>2011-04-18T07:43:40.000Z</time>
      </trkpt>
      <trkpt lat="48.73024" lon="2.0519">
        <ele>104</ele>
        <time>2011-04-18T07:43:49.000Z</time>
      </trkpt>
      <trkpt lat="48.73021" lon="2.05176">
        <ele>104.40000152588</ele>
        <time>2011-04-18T07:43:56.000Z</time>
      </trkpt>
      <trkpt lat="48.73021" lon="2.05174">
        <ele>104.40000152588</ele>
        <time>2011-04-18T07:43:57.000Z</time>
      </trkpt>
      <trkpt lat="48.7302" lon="2.0517">
        <ele>105</ele>
        <time>2011-04-18T07:43:59.000Z</time>
      </trkpt>
      <trkpt lat="48.73018" lon="2.0516">
        <ele>105.40000152588</ele>
        <time>2011-04-18T07:44:03.000Z</time>
      </trkpt>
      <trkpt lat="48.73018" lon="2.05156">
        <ele>106.40000152588</ele>
        <time>2011-04-18T07:44:05.000Z</time>
      </trkpt>
      <trkpt lat="48.73019" lon="2.0515">
        <ele>103.40000152588</ele>
        <time>2011-04-18T07:44:09.000Z</time>
      </trkpt>
      <trkpt lat="48.7302" lon="2.0513">
        <ele>105.80000305176</ele>
        <time>2011-04-18T07:44:19.000Z</time>
      </trkpt>
      <trkpt lat="48.73022" lon="2.05117">
        <ele>104.40000152588</ele>
        <time>2011-04-18T07:44:26.000Z</time>
      </trkpt>
      <trkpt lat="48.73021" lon="2.05104">
        <ele>105.40000152588</ele>
        <time>2011-04-18T07:44:32.000Z</time>
      </trkpt>
      <trkpt lat="48.73018" lon="2.05089">
        <ele>106.80000305176</ele>
        <time>2011-04-18T07:44:39.000Z</time>
      </trkpt>
      <trkpt lat="48.73017" lon="2.05083">
        <ele>104.40000152588</ele>
        <time>2011-04-18T07:44:45.000Z</time>
      </trkpt>
      <trkpt lat="48.73003" lon="2.05073">
        <ele>104</ele>
        <time>2011-04-18T07:47:05.000Z</time>
      </trkpt>
      <trkpt lat="48.73003" lon="2.05072">
        <ele>103</ele>
        <time>2011-04-18T07:47:06.000Z</time>
      </trkpt>
      <trkpt lat="48.73008" lon="2.05074">
        <ele>102.59999847412</ele>
        <time>2011-04-18T07:47:13.000Z</time>
      </trkpt>
      <trkpt lat="48.73011" lon="2.05077">
        <ele>103.40000152588</ele>
        <time>2011-04-18T07:47:20.000Z</time>
      </trkpt>
      <trkpt lat="48.73006" lon="2.05074">
        <ele>105.40000152588</ele>
        <time>2011-04-18T07:49:45.000Z</time>
      </trkpt>
      <trkpt lat="48.72994" lon="2.05064">
        <ele>104.40000152588</ele>
        <time>2011-04-18T07:49:54.000Z</time>
      </trkpt>
      <trkpt lat="48.72993" lon="2.05063">
        <ele>104.40000152588</ele>
        <time>2011-04-18T07:49:55.000Z</time>
      </trkpt>
      <trkpt lat="48.72988" lon="2.05059">
        <ele>104.40000152588</ele>
        <time>2011-04-18T07:49:59.000Z</time>
      </trkpt>
      <trkpt lat="48.72977" lon="2.05053">
        <ele>104</ele>
        <time>2011-04-18T07:50:07.000Z</time>
      </trkpt>
      <trkpt lat="48.72976" lon="2.05053">
        <ele>104</ele>
        <time>2011-04-18T07:50:08.000Z</time>
      </trkpt>
      <trkpt lat="48.72967" lon="2.05051">
        <ele>104</ele>
        <time>2011-04-18T07:50:14.000Z</time>
      </trkpt>
      <trkpt lat="48.72958" lon="2.05046">
        <ele>103</ele>
        <time>2011-04-18T07:50:22.000Z</time>
      </trkpt>
      <trkpt lat="48.72952" lon="2.05044">
        <ele>103</ele>
        <time>2011-04-18T07:50:27.000Z</time>
      </trkpt>
      <trkpt lat="48.72939" lon="2.05042">
        <ele>104</ele>
        <time>2011-04-18T07:50:37.000Z</time>
      </trkpt>
      <trkpt lat="48.72931" lon="2.05041">
        <ele>104.40000152588</ele>
        <time>2011-04-18T07:50:43.000Z</time>
      </trkpt>
      <trkpt lat="48.72914" lon="2.0504">
        <ele>104</ele>
        <time>2011-04-18T07:50:55.000Z</time>
      </trkpt>
      <trkpt lat="48.72896" lon="2.05041">
        <ele>103.40000152588</ele>
        <time>2011-04-18T07:51:08.000Z</time>
      </trkpt>
      <trkpt lat="48.72884" lon="2.05044">
        <ele>103.40000152588</ele>
        <time>2011-04-18T07:51:17.000Z</time>
      </trkpt>
      <trkpt lat="48.7287" lon="2.05046">
        <ele>103.40000152588</ele>
        <time>2011-04-18T07:51:27.000Z</time>
      </trkpt>
      <trkpt lat="48.72862" lon="2.05046">
        <ele>104</ele>
        <time>2011-04-18T07:51:34.000Z</time>
      </trkpt>
      <trkpt lat="48.72851" lon="2.05046">
        <ele>105.40000152588</ele>
        <time>2011-04-18T07:51:43.000Z</time>
      </trkpt>
      <trkpt lat="48.72841" lon="2.05043">
        <ele>106.40000152588</ele>
        <time>2011-04-18T07:51:51.000Z</time>
      </trkpt>
      <trkpt lat="48.72831" lon="2.0504">
        <ele>106.80000305176</ele>
        <time>2011-04-18T07:52:00.000Z</time>
      </trkpt>
      <trkpt lat="48.72822" lon="2.05036">
        <ele>106.80000305176</ele>
        <time>2011-04-18T07:52:08.000Z</time>
      </trkpt>
      <trkpt lat="48.7281" lon="2.05036">
        <ele>108.19999694824</ele>
        <time>2011-04-18T07:52:18.000Z</time>
      </trkpt>
      <trkpt lat="48.7281" lon="2.05036">
        <ele>108.19999694824</ele>
        <time>2011-04-18T07:52:20.000Z</time>
      </trkpt>
      <trkpt lat="48.72808" lon="2.05028">
        <ele>107.40000152588</ele>
        <time>2011-04-18T07:52:29.000Z</time>
      </trkpt>
      <trkpt lat="48.72811" lon="2.0502">
        <ele>105.80000305176</ele>
        <time>2011-04-18T07:52:33.000Z</time>
      </trkpt>
      <trkpt lat="48.72814" lon="2.05008">
        <ele>105.80000305176</ele>
        <time>2011-04-18T07:52:39.000Z</time>
      </trkpt>
      <trkpt lat="48.72816" lon="2.04993">
        <ele>105.40000152588</ele>
        <time>2011-04-18T07:52:47.000Z</time>
      </trkpt>
      <trkpt lat="48.72817" lon="2.04983">
        <ele>105</ele>
        <time>2011-04-18T07:52:52.000Z</time>
      </trkpt>
      <trkpt lat="48.72819" lon="2.04976">
        <ele>104</ele>
        <time>2011-04-18T07:52:56.000Z</time>
      </trkpt>
      <trkpt lat="48.72819" lon="2.04972">
        <ele>104</ele>
        <time>2011-04-18T07:52:58.000Z</time>
      </trkpt>
      <trkpt lat="48.7282" lon="2.04964">
        <ele>105</ele>
        <time>2011-04-18T07:53:02.000Z</time>
      </trkpt>
      <trkpt lat="48.72821" lon="2.04954">
        <ele>104.40000152588</ele>
        <time>2011-04-18T07:53:07.000Z</time>
      </trkpt>
      <trkpt lat="48.72821" lon="2.04942">
        <ele>103</ele>
        <time>2011-04-18T07:53:13.000Z</time>
      </trkpt>
      <trkpt lat="48.7282" lon="2.04939">
        <ele>103</ele>
        <time>2011-04-18T07:53:16.000Z</time>
      </trkpt>
      <trkpt lat="48.7282" lon="2.04936">
        <ele>103.40000152588</ele>
        <time>2011-04-18T07:53:20.000Z</time>
      </trkpt>
      <trkpt lat="48.7281" lon="2.04929">
        <ele>104.40000152588</ele>
        <time>2011-04-18T07:54:37.000Z</time>
      </trkpt>
      <trkpt lat="48.72799" lon="2.04921">
        <ele>102</ele>
        <time>2011-04-18T07:54:46.000Z</time>
      </trkpt>
      <trkpt lat="48.72788" lon="2.04918">
        <ele>101.59999847412</ele>
        <time>2011-04-18T07:54:55.000Z</time>
      </trkpt>
      <trkpt lat="48.72778" lon="2.04916">
        <ele>100.19999694824</ele>
        <time>2011-04-18T07:55:03.000Z</time>
      </trkpt>
      <trkpt lat="48.72767" lon="2.04912">
        <ele>97.800003051758</ele>
        <time>2011-04-18T07:55:12.000Z</time>
      </trkpt>
      <trkpt lat="48.72759" lon="2.04907">
        <ele>95.800003051758</ele>
        <time>2011-04-18T07:55:20.000Z</time>
      </trkpt>
      <trkpt lat="48.72757" lon="2.04906">
        <ele>97.199996948242</ele>
        <time>2011-04-18T07:55:25.000Z</time>
      </trkpt>
      <trkpt lat="48.72752" lon="2.04905">
        <ele>98.199996948242</ele>
        <time>2011-04-18T07:55:30.000Z</time>
      </trkpt>
      <trkpt lat="48.72744" lon="2.04903">
        <ele>97.800003051758</ele>
        <time>2011-04-18T07:55:37.000Z</time>
      </trkpt>
      <trkpt lat="48.72731" lon="2.049">
        <ele>96.800003051758</ele>
        <time>2011-04-18T07:55:47.000Z</time>
      </trkpt>
      <trkpt lat="48.72721" lon="2.04895">
        <ele>95.800003051758</ele>
        <time>2011-04-18T07:55:56.000Z</time>
      </trkpt>
      <trkpt lat="48.72711" lon="2.04894">
        <ele>94.400001525879</ele>
        <time>2011-04-18T07:56:04.000Z</time>
      </trkpt>
      <trkpt lat="48.72699" lon="2.04897">
        <ele>91.400001525879</ele>
        <time>2011-04-18T07:56:14.000Z</time>
      </trkpt>
      <trkpt lat="48.7269" lon="2.04897">
        <ele>90.599998474121</ele>
        <time>2011-04-18T07:56:21.000Z</time>
      </trkpt>
      <trkpt lat="48.72689" lon="2.04897">
        <ele>90</ele>
        <time>2011-04-18T07:56:22.000Z</time>
      </trkpt>
      <trkpt lat="48.72684" lon="2.04898">
        <ele>89.599998474121</ele>
        <time>2011-04-18T07:56:26.000Z</time>
      </trkpt>
      <trkpt lat="48.72678" lon="2.049">
        <ele>89.599998474121</ele>
        <time>2011-04-18T07:56:30.000Z</time>
      </trkpt>
      <trkpt lat="48.72668" lon="2.04901">
        <ele>87.599998474121</ele>
        <time>2011-04-18T07:56:37.000Z</time>
      </trkpt>
      <trkpt lat="48.72657" lon="2.04901">
        <ele>88</ele>
        <time>2011-04-18T07:56:45.000Z</time>
      </trkpt>
      <trkpt lat="48.72648" lon="2.04903">
        <ele>88</ele>
        <time>2011-04-18T07:56:51.000Z</time>
      </trkpt>
      <trkpt lat="48.72641" lon="2.04904">
        <ele>88.599998474121</ele>
        <time>2011-04-18T07:56:56.000Z</time>
      </trkpt>
      <trkpt lat="48.72629" lon="2.04903">
        <ele>87.599998474121</ele>
        <time>2011-04-18T07:57:06.000Z</time>
      </trkpt>
      <trkpt lat="48.72618" lon="2.04905">
        <ele>88</ele>
        <time>2011-04-18T07:57:14.000Z</time>
      </trkpt>
      <trkpt lat="48.72611" lon="2.04905">
        <ele>87.599998474121</ele>
        <time>2011-04-18T07:57:20.000Z</time>
      </trkpt>
      <trkpt lat="48.726" lon="2.04905">
        <ele>86.599998474121</ele>
        <time>2011-04-18T07:57:28.000Z</time>
      </trkpt>
      <trkpt lat="48.72593" lon="2.04904">
        <ele>86.199996948242</ele>
        <time>2011-04-18T07:57:34.000Z</time>
      </trkpt>
      <trkpt lat="48.72589" lon="2.04903">
        <ele>85.199996948242</ele>
        <time>2011-04-18T07:57:37.000Z</time>
      </trkpt>
      <trkpt lat="48.7258" lon="2.04902">
        <ele>82.800003051758</ele>
        <time>2011-04-18T07:57:45.000Z</time>
      </trkpt>
      <trkpt lat="48.72574" lon="2.04901">
        <ele>82.800003051758</ele>
        <time>2011-04-18T07:57:50.000Z</time>
      </trkpt>
      <trkpt lat="48.72564" lon="2.04898">
        <ele>84.800003051758</ele>
        <time>2011-04-18T07:57:56.000Z</time>
      </trkpt>
      <trkpt lat="48.72562" lon="2.04897">
        <ele>85.599998474121</ele>
        <time>2011-04-18T07:57:58.000Z</time>
      </trkpt>
      <trkpt lat="48.72553" lon="2.04899">
        <ele>87.199996948242</ele>
        <time>2011-04-18T07:58:06.000Z</time>
      </trkpt>
      <trkpt lat="48.72551" lon="2.049">
        <ele>87.199996948242</ele>
        <time>2011-04-18T07:58:08.000Z</time>
      </trkpt>
      <trkpt lat="48.72548" lon="2.04901">
        <ele>87.599998474121</ele>
        <time>2011-04-18T07:58:10.000Z</time>
      </trkpt>
      <trkpt lat="48.72542" lon="2.049">
        <ele>88</ele>
        <time>2011-04-18T07:58:14.000Z</time>
      </trkpt>
      <trkpt lat="48.72534" lon="2.04899">
        <ele>87.199996948242</ele>
        <time>2011-04-18T07:58:21.000Z</time>
      </trkpt>
      <trkpt lat="48.72525" lon="2.04895">
        <ele>87.599998474121</ele>
        <time>2011-04-18T07:58:28.000Z</time>
      </trkpt>
      <trkpt lat="48.72524" lon="2.04894">
        <ele>88</ele>
        <time>2011-04-18T07:58:29.000Z</time>
      </trkpt>
      <trkpt lat="48.72518" lon="2.04883">
        <ele>91.400001525879</ele>
        <time>2011-04-18T07:58:37.000Z</time>
      </trkpt>
      <trkpt lat="48.72516" lon="2.0488">
        <ele>91.400001525879</ele>
        <time>2011-04-18T07:58:39.000Z</time>
      </trkpt>
      <trkpt lat="48.72514" lon="2.04871">
        <ele>92</ele>
        <time>2011-04-18T07:58:44.000Z</time>
      </trkpt>
      <trkpt lat="48.72511" lon="2.04862">
        <ele>92.400001525879</ele>
        <time>2011-04-18T07:58:49.000Z</time>
      </trkpt>
      <trkpt lat="48.72507" lon="2.04857">
        <ele>93.400001525879</ele>
        <time>2011-04-18T07:58:53.000Z</time>
      </trkpt>
      <trkpt lat="48.725" lon="2.04852">
        <ele>93.800003051758</ele>
        <time>2011-04-18T07:58:59.000Z</time>
      </trkpt>
      <trkpt lat="48.72494" lon="2.0485">
        <ele>93.800003051758</ele>
        <time>2011-04-18T07:59:04.000Z</time>
      </trkpt>
      <trkpt lat="48.72485" lon="2.04851">
        <ele>96.199996948242</ele>
        <time>2011-04-18T07:59:11.000Z</time>
      </trkpt>
      <trkpt lat="48.72477" lon="2.04852">
        <ele>98.199996948242</ele>
        <time>2011-04-18T07:59:18.000Z</time>
      </trkpt>
      <trkpt lat="48.72468" lon="2.04854">
        <ele>98.199996948242</ele>
        <time>2011-04-18T07:59:25.000Z</time>
      </trkpt>
      <trkpt lat="48.72459" lon="2.04859">
        <ele>100.59999847412</ele>
        <time>2011-04-18T07:59:33.000Z</time>
      </trkpt>
      <trkpt lat="48.72452" lon="2.04861">
        <ele>102</ele>
        <time>2011-04-18T07:59:38.000Z</time>
      </trkpt>
      <trkpt lat="48.72444" lon="2.04859">
        <ele>103</ele>
        <time>2011-04-18T07:59:45.000Z</time>
      </trkpt>
      <trkpt lat="48.72438" lon="2.0486">
        <ele>105</ele>
        <time>2011-04-18T07:59:50.000Z</time>
      </trkpt>
      <trkpt lat="48.7243" lon="2.0486">
        <ele>109.19999694824</ele>
        <time>2011-04-18T07:59:56.000Z</time>
      </trkpt>
      <trkpt lat="48.72425" lon="2.04862">
        <ele>110.19999694824</ele>
        <time>2011-04-18T08:00:00.000Z</time>
      </trkpt>
      <trkpt lat="48.72421" lon="2.04862">
        <ele>110.19999694824</ele>
        <time>2011-04-18T08:00:04.000Z</time>
      </trkpt>
      <trkpt lat="48.72415" lon="2.04863">
        <ele>109.19999694824</ele>
        <time>2011-04-18T08:00:10.000Z</time>
      </trkpt>
      <trkpt lat="48.7241" lon="2.04862">
        <ele>109.19999694824</ele>
        <time>2011-04-18T08:00:13.000Z</time>
      </trkpt>
      <trkpt lat="48.72404" lon="2.04862">
        <ele>108.19999694824</ele>
        <time>2011-04-18T08:00:17.000Z</time>
      </trkpt>
      <trkpt lat="48.72397" lon="2.0486">
        <ele>103.40000152588</ele>
        <time>2011-04-18T08:00:24.000Z</time>
      </trkpt>
      <trkpt lat="48.72388" lon="2.04859">
        <ele>104</ele>
        <time>2011-04-18T08:00:31.000Z</time>
      </trkpt>
      <trkpt lat="48.72372" lon="2.04856">
        <ele>104.40000152588</ele>
        <time>2011-04-18T08:00:44.000Z</time>
      </trkpt>
      <trkpt lat="48.72361" lon="2.04853">
        <ele>105.80000305176</ele>
        <time>2011-04-18T08:00:53.000Z</time>
      </trkpt>
      <trkpt lat="48.72349" lon="2.04852">
        <ele>109.19999694824</ele>
        <time>2011-04-18T08:01:02.000Z</time>
      </trkpt>
      <trkpt lat="48.72337" lon="2.04851">
        <ele>110.59999847412</ele>
        <time>2011-04-18T08:01:12.000Z</time>
      </trkpt>
      <trkpt lat="48.72327" lon="2.04851">
        <ele>113</ele>
        <time>2011-04-18T08:01:20.000Z</time>
      </trkpt>
      <trkpt lat="48.72317" lon="2.04851">
        <ele>115.40000152588</ele>
        <time>2011-04-18T08:01:28.000Z</time>
      </trkpt>
      <trkpt lat="48.72305" lon="2.0485">
        <ele>117.80000305176</ele>
        <time>2011-04-18T08:01:38.000Z</time>
      </trkpt>
      <trkpt lat="48.72296" lon="2.04848">
        <ele>120.40000152588</ele>
        <time>2011-04-18T08:01:45.000Z</time>
      </trkpt>
      <trkpt lat="48.72289" lon="2.04848">
        <ele>121.19999694824</ele>
        <time>2011-04-18T08:01:52.000Z</time>
      </trkpt>
      <trkpt lat="48.72281" lon="2.04849">
        <ele>122.19999694824</ele>
        <time>2011-04-18T08:01:59.000Z</time>
      </trkpt>
      <trkpt lat="48.72274" lon="2.04848">
        <ele>123.19999694824</ele>
        <time>2011-04-18T08:02:05.000Z</time>
      </trkpt>
      <trkpt lat="48.72269" lon="2.04845">
        <ele>125.19999694824</ele>
        <time>2011-04-18T08:02:11.000Z</time>
      </trkpt>
      <trkpt lat="48.72265" lon="2.04847">
        <ele>126</ele>
        <time>2011-04-18T08:02:15.000Z</time>
      </trkpt>
      <trkpt lat="48.72263" lon="2.04846">
        <ele>126</ele>
        <time>2011-04-18T08:02:17.000Z</time>
      </trkpt>
      <trkpt lat="48.72261" lon="2.04846">
        <ele>125.59999847412</ele>
        <time>2011-04-18T08:02:23.000Z</time>
      </trkpt>
      <trkpt lat="48.72237" lon="2.04843">
        <ele>126.59999847412</ele>
        <time>2011-04-18T08:03:15.000Z</time>
      </trkpt>
      <trkpt lat="48.7223" lon="2.0484">
        <ele>127.59999847412</ele>
        <time>2011-04-18T08:03:20.000Z</time>
      </trkpt>
      <trkpt lat="48.72226" lon="2.04838">
        <ele>128.39999389648</ele>
        <time>2011-04-18T08:03:24.000Z</time>
      </trkpt>
      <trkpt lat="48.7222" lon="2.04837">
        <ele>129.39999389648</ele>
        <time>2011-04-18T08:03:29.000Z</time>
      </trkpt>
      <trkpt lat="48.72217" lon="2.04837">
        <ele>130</ele>
        <time>2011-04-18T08:03:31.000Z</time>
      </trkpt>
      <trkpt lat="48.72207" lon="2.04841">
        <ele>134.19999694824</ele>
        <time>2011-04-18T08:03:40.000Z</time>
      </trkpt>
      <trkpt lat="48.72203" lon="2.04841">
        <ele>136.60000610352</ele>
        <time>2011-04-18T08:03:44.000Z</time>
      </trkpt>
      <trkpt lat="48.72199" lon="2.04842">
        <ele>139</ele>
        <time>2011-04-18T08:03:48.000Z</time>
      </trkpt>
      <trkpt lat="48.72196" lon="2.04843">
        <ele>140</ele>
        <time>2011-04-18T08:03:51.000Z</time>
      </trkpt>
      <trkpt lat="48.7219" lon="2.04846">
        <ele>140.39999389648</ele>
        <time>2011-04-18T08:03:56.000Z</time>
      </trkpt>
      <trkpt lat="48.72188" lon="2.04847">
        <ele>140</ele>
        <time>2011-04-18T08:03:58.000Z</time>
      </trkpt>
      <trkpt lat="48.72183" lon="2.04849">
        <ele>139</ele>
        <time>2011-04-18T08:04:04.000Z</time>
      </trkpt>
      <trkpt lat="48.72177" lon="2.04852">
        <ele>139.60000610352</ele>
        <time>2011-04-18T08:04:09.000Z</time>
      </trkpt>
      <trkpt lat="48.72175" lon="2.04854">
        <ele>140.39999389648</ele>
        <time>2011-04-18T08:04:12.000Z</time>
      </trkpt>
      <trkpt lat="48.72173" lon="2.04853">
        <ele>142</ele>
        <time>2011-04-18T08:04:18.000Z</time>
      </trkpt>
      <trkpt lat="48.72155" lon="2.04862">
        <ele>155.80000305176</ele>
        <time>2011-04-18T08:04:51.000Z</time>
      </trkpt>
      <trkpt lat="48.7215" lon="2.04866">
        <ele>153.39999389648</ele>
        <time>2011-04-18T08:04:56.000Z</time>
      </trkpt>
      <trkpt lat="48.72144" lon="2.04872">
        <ele>153.39999389648</ele>
        <time>2011-04-18T08:05:02.000Z</time>
      </trkpt>
      <trkpt lat="48.7214" lon="2.04874">
        <ele>153.39999389648</ele>
        <time>2011-04-18T08:05:07.000Z</time>
      </trkpt>
      <trkpt lat="48.72136" lon="2.04882">
        <ele>155.39999389648</ele>
        <time>2011-04-18T08:05:12.000Z</time>
      </trkpt>
      <trkpt lat="48.72134" lon="2.04885">
        <ele>154.39999389648</ele>
        <time>2011-04-18T08:05:14.000Z</time>
      </trkpt>
      <trkpt lat="48.72129" lon="2.04895">
        <ele>154</ele>
        <time>2011-04-18T08:05:21.000Z</time>
      </trkpt>
      <trkpt lat="48.72126" lon="2.04898">
        <ele>152.60000610352</ele>
        <time>2011-04-18T08:05:25.000Z</time>
      </trkpt>
      <trkpt lat="48.72121" lon="2.04906">
        <ele>155.80000305176</ele>
        <time>2011-04-18T08:05:31.000Z</time>
      </trkpt>
      <trkpt lat="48.72119" lon="2.04908">
        <ele>155.80000305176</ele>
        <time>2011-04-18T08:05:33.000Z</time>
      </trkpt>
      <trkpt lat="48.72111" lon="2.04912">
        <ele>156.39999389648</ele>
        <time>2011-04-18T08:05:41.000Z</time>
      </trkpt>
      <trkpt lat="48.72107" lon="2.04913">
        <ele>157.39999389648</ele>
        <time>2011-04-18T08:05:46.000Z</time>
      </trkpt>
      <trkpt lat="48.72101" lon="2.04913">
        <ele>159.80000305176</ele>
        <time>2011-04-18T08:05:53.000Z</time>
      </trkpt>
      <trkpt lat="48.721" lon="2.04917">
        <ele>162.19999694824</ele>
        <time>2011-04-18T08:05:59.000Z</time>
      </trkpt>
      <trkpt lat="48.72091" lon="2.04869">
        <ele>161.19999694824</ele>
        <time>2011-04-18T08:08:25.000Z</time>
      </trkpt>
      <trkpt lat="48.72091" lon="2.04852">
        <ele>156.39999389648</ele>
        <time>2011-04-18T08:08:32.000Z</time>
      </trkpt>
      <trkpt lat="48.72088" lon="2.04831">
        <ele>153</ele>
        <time>2011-04-18T08:08:42.000Z</time>
      </trkpt>
      <trkpt lat="48.72087" lon="2.04825">
        <ele>153</ele>
        <time>2011-04-18T08:08:44.000Z</time>
      </trkpt>
      <trkpt lat="48.72087" lon="2.04809">
        <ele>155</ele>
        <time>2011-04-18T08:08:51.000Z</time>
      </trkpt>
      <trkpt lat="48.72085" lon="2.04798">
        <ele>155</ele>
        <time>2011-04-18T08:08:57.000Z</time>
      </trkpt>
      <trkpt lat="48.72085" lon="2.04787">
        <ele>154.39999389648</ele>
        <time>2011-04-18T08:09:02.000Z</time>
      </trkpt>
      <trkpt lat="48.72084" lon="2.04772">
        <ele>153.39999389648</ele>
        <time>2011-04-18T08:09:09.000Z</time>
      </trkpt>
      <trkpt lat="48.72082" lon="2.04752">
        <ele>151</ele>
        <time>2011-04-18T08:09:18.000Z</time>
      </trkpt>
      <trkpt lat="48.72082" lon="2.0475">
        <ele>151.60000610352</ele>
        <time>2011-04-18T08:09:19.000Z</time>
      </trkpt>
      <trkpt lat="48.7208" lon="2.04736">
        <ele>151</ele>
        <time>2011-04-18T08:09:26.000Z</time>
      </trkpt>
      <trkpt lat="48.72079" lon="2.04722">
        <ele>148.60000610352</ele>
        <time>2011-04-18T08:09:33.000Z</time>
      </trkpt>
      <trkpt lat="48.72076" lon="2.04706">
        <ele>147.60000610352</ele>
        <time>2011-04-18T08:09:40.000Z</time>
      </trkpt>
      <trkpt lat="48.72076" lon="2.04704">
        <ele>148.19999694824</ele>
        <time>2011-04-18T08:09:41.000Z</time>
      </trkpt>
      <trkpt lat="48.72074" lon="2.04688">
        <ele>150.60000610352</ele>
        <time>2011-04-18T08:09:48.000Z</time>
      </trkpt>
      <trkpt lat="48.72074" lon="2.04686">
        <ele>151</ele>
        <time>2011-04-18T08:09:49.000Z</time>
      </trkpt>
      <trkpt lat="48.72073" lon="2.04676">
        <ele>151.60000610352</ele>
        <time>2011-04-18T08:09:54.000Z</time>
      </trkpt>
      <trkpt lat="48.72074" lon="2.04671">
        <ele>151.60000610352</ele>
        <time>2011-04-18T08:09:57.000Z</time>
      </trkpt>
      <trkpt lat="48.72073" lon="2.04656">
        <ele>155.80000305176</ele>
        <time>2011-04-18T08:10:04.000Z</time>
      </trkpt>
      <trkpt lat="48.72072" lon="2.04651">
        <ele>156.39999389648</ele>
        <time>2011-04-18T08:10:06.000Z</time>
      </trkpt>
      <trkpt lat="48.72069" lon="2.04633">
        <ele>156.39999389648</ele>
        <time>2011-04-18T08:10:14.000Z</time>
      </trkpt>
      <trkpt lat="48.72068" lon="2.04626">
        <ele>158.19999694824</ele>
        <time>2011-04-18T08:10:20.000Z</time>
      </trkpt>
      <trkpt lat="48.72066" lon="2.04617">
        <ele>158.19999694824</ele>
        <time>2011-04-18T08:10:26.000Z</time>
      </trkpt>
      <trkpt lat="48.72067" lon="2.04607">
        <ele>157.80000305176</ele>
        <time>2011-04-18T08:10:32.000Z</time>
      </trkpt>
      <trkpt lat="48.72066" lon="2.04596">
        <ele>156.80000305176</ele>
        <time>2011-04-18T08:10:38.000Z</time>
      </trkpt>
      <trkpt lat="48.72064" lon="2.0459">
        <ele>157.39999389648</ele>
        <time>2011-04-18T08:10:41.000Z</time>
      </trkpt>
      <trkpt lat="48.72063" lon="2.04579">
        <ele>156.39999389648</ele>
        <time>2011-04-18T08:10:47.000Z</time>
      </trkpt>
      <trkpt lat="48.72063" lon="2.04569">
        <ele>156.39999389648</ele>
        <time>2011-04-18T08:10:52.000Z</time>
      </trkpt>
      <trkpt lat="48.72062" lon="2.0456">
        <ele>156.80000305176</ele>
        <time>2011-04-18T08:10:57.000Z</time>
      </trkpt>
      <trkpt lat="48.72063" lon="2.0455">
        <ele>155.80000305176</ele>
        <time>2011-04-18T08:11:03.000Z</time>
      </trkpt>
      <trkpt lat="48.72063" lon="2.04548">
        <ele>155.80000305176</ele>
        <time>2011-04-18T08:11:04.000Z</time>
      </trkpt>
      <trkpt lat="48.72065" lon="2.04533">
        <ele>153</ele>
        <time>2011-04-18T08:11:12.000Z</time>
      </trkpt>
      <trkpt lat="48.72065" lon="2.04531">
        <ele>152.60000610352</ele>
        <time>2011-04-18T08:11:13.000Z</time>
      </trkpt>
      <trkpt lat="48.72067" lon="2.04523">
        <ele>152</ele>
        <time>2011-04-18T08:11:17.000Z</time>
      </trkpt>
      <trkpt lat="48.7207" lon="2.04513">
        <ele>150.60000610352</ele>
        <time>2011-04-18T08:11:23.000Z</time>
      </trkpt>
      <trkpt lat="48.72074" lon="2.04499">
        <ele>150.60000610352</ele>
        <time>2011-04-18T08:11:30.000Z</time>
      </trkpt>
      <trkpt lat="48.72079" lon="2.04485">
        <ele>149.60000610352</ele>
        <time>2011-04-18T08:11:37.000Z</time>
      </trkpt>
      <trkpt lat="48.7208" lon="2.04474">
        <ele>149.60000610352</ele>
        <time>2011-04-18T08:11:42.000Z</time>
      </trkpt>
      <trkpt lat="48.72083" lon="2.04463">
        <ele>149.60000610352</ele>
        <time>2011-04-18T08:11:48.000Z</time>
      </trkpt>
      <trkpt lat="48.72085" lon="2.04455">
        <ele>146.80000305176</ele>
        <time>2011-04-18T08:11:53.000Z</time>
      </trkpt>
      <trkpt lat="48.72085" lon="2.04439">
        <ele>147.60000610352</ele>
        <time>2011-04-18T08:12:00.000Z</time>
      </trkpt>
      <trkpt lat="48.72085" lon="2.04421">
        <ele>150.19999694824</ele>
        <time>2011-04-18T08:12:08.000Z</time>
      </trkpt>
      <trkpt lat="48.72085" lon="2.04403">
        <ele>150.19999694824</ele>
        <time>2011-04-18T08:12:16.000Z</time>
      </trkpt>
      <trkpt lat="48.72087" lon="2.04388">
        <ele>150.19999694824</ele>
        <time>2011-04-18T08:12:23.000Z</time>
      </trkpt>
      <trkpt lat="48.72087" lon="2.04383">
        <ele>151.60000610352</ele>
        <time>2011-04-18T08:12:25.000Z</time>
      </trkpt>
      <trkpt lat="48.72089" lon="2.04376">
        <ele>152</ele>
        <time>2011-04-18T08:12:29.000Z</time>
      </trkpt>
      <trkpt lat="48.7209" lon="2.04364">
        <ele>156.39999389648</ele>
        <time>2011-04-18T08:12:35.000Z</time>
      </trkpt>
      <trkpt lat="48.72091" lon="2.0436">
        <ele>156.80000305176</ele>
        <time>2011-04-18T08:12:37.000Z</time>
      </trkpt>
      <trkpt lat="48.72092" lon="2.04345">
        <ele>159.80000305176</ele>
        <time>2011-04-18T08:12:44.000Z</time>
      </trkpt>
      <trkpt lat="48.72094" lon="2.04334">
        <ele>160.19999694824</ele>
        <time>2011-04-18T08:12:50.000Z</time>
      </trkpt>
      <trkpt lat="48.72096" lon="2.04324">
        <ele>159.80000305176</ele>
        <time>2011-04-18T08:12:56.000Z</time>
      </trkpt>
      <trkpt lat="48.72097" lon="2.04322">
        <ele>159.19999694824</ele>
        <time>2011-04-18T08:12:57.000Z</time>
      </trkpt>
      <trkpt lat="48.721" lon="2.04307">
        <ele>159.19999694824</ele>
        <time>2011-04-18T08:13:05.000Z</time>
      </trkpt>
      <trkpt lat="48.72102" lon="2.04294">
        <ele>158.19999694824</ele>
        <time>2011-04-18T08:13:12.000Z</time>
      </trkpt>
      <trkpt lat="48.72106" lon="2.04275">
        <ele>158.80000305176</ele>
        <time>2011-04-18T08:13:21.000Z</time>
      </trkpt>
      <trkpt lat="48.72108" lon="2.04264">
        <ele>158.80000305176</ele>
        <time>2011-04-18T08:13:27.000Z</time>
      </trkpt>
      <trkpt lat="48.72109" lon="2.04262">
        <ele>158.80000305176</ele>
        <time>2011-04-18T08:13:28.000Z</time>
      </trkpt>
      <trkpt lat="48.72112" lon="2.04254">
        <ele>156.80000305176</ele>
        <time>2011-04-18T08:13:33.000Z</time>
      </trkpt>
      <trkpt lat="48.72113" lon="2.0425">
        <ele>155.80000305176</ele>
        <time>2011-04-18T08:13:35.000Z</time>
      </trkpt>
      <trkpt lat="48.72118" lon="2.04237">
        <ele>154</ele>
        <time>2011-04-18T08:13:43.000Z</time>
      </trkpt>
      <trkpt lat="48.7212" lon="2.04232">
        <ele>154.39999389648</ele>
        <time>2011-04-18T08:13:46.000Z</time>
      </trkpt>
      <trkpt lat="48.72123" lon="2.04222">
        <ele>156.80000305176</ele>
        <time>2011-04-18T08:13:51.000Z</time>
      </trkpt>
      <trkpt lat="48.72128" lon="2.04211">
        <ele>155.80000305176</ele>
        <time>2011-04-18T08:13:57.000Z</time>
      </trkpt>
      <trkpt lat="48.72134" lon="2.042">
        <ele>154</ele>
        <time>2011-04-18T08:14:05.000Z</time>
      </trkpt>
      <trkpt lat="48.72136" lon="2.04197">
        <ele>154</ele>
        <time>2011-04-18T08:14:07.000Z</time>
      </trkpt>
      <trkpt lat="48.72146" lon="2.04185">
        <ele>154</ele>
        <time>2011-04-18T08:14:15.000Z</time>
      </trkpt>
      <trkpt lat="48.7215" lon="2.04178">
        <ele>154</ele>
        <time>2011-04-18T08:14:20.000Z</time>
      </trkpt>
      <trkpt lat="48.72158" lon="2.04166">
        <ele>154</ele>
        <time>2011-04-18T08:14:28.000Z</time>
      </trkpt>
      <trkpt lat="48.72164" lon="2.04152">
        <ele>156.80000305176</ele>
        <time>2011-04-18T08:14:35.000Z</time>
      </trkpt>
      <trkpt lat="48.72167" lon="2.04146">
        <ele>158.80000305176</ele>
        <time>2011-04-18T08:14:40.000Z</time>
      </trkpt>
      <trkpt lat="48.72169" lon="2.04137">
        <ele>162.60000610352</ele>
        <time>2011-04-18T08:14:44.000Z</time>
      </trkpt>
      <trkpt lat="48.72171" lon="2.04132">
        <ele>163</ele>
        <time>2011-04-18T08:14:47.000Z</time>
      </trkpt>
      <trkpt lat="48.72175" lon="2.04123">
        <ele>162.19999694824</ele>
        <time>2011-04-18T08:14:52.000Z</time>
      </trkpt>
      <trkpt lat="48.72181" lon="2.04109">
        <ele>160.60000610352</ele>
        <time>2011-04-18T08:14:59.000Z</time>
      </trkpt>
      <trkpt lat="48.72186" lon="2.04097">
        <ele>157.80000305176</ele>
        <time>2011-04-18T08:15:07.000Z</time>
      </trkpt>
      <trkpt lat="48.72191" lon="2.04089">
        <ele>157.39999389648</ele>
        <time>2011-04-18T08:15:12.000Z</time>
      </trkpt>
      <trkpt lat="48.72198" lon="2.04079">
        <ele>157.80000305176</ele>
        <time>2011-04-18T08:15:19.000Z</time>
      </trkpt>
      <trkpt lat="48.722" lon="2.04075">
        <ele>157.80000305176</ele>
        <time>2011-04-18T08:15:22.000Z</time>
      </trkpt>
      <trkpt lat="48.72203" lon="2.04066">
        <ele>159.19999694824</ele>
        <time>2011-04-18T08:15:27.000Z</time>
      </trkpt>
      <trkpt lat="48.72207" lon="2.04059">
        <ele>161.19999694824</ele>
        <time>2011-04-18T08:15:33.000Z</time>
      </trkpt>
      <trkpt lat="48.72209" lon="2.04055">
        <ele>163</ele>
        <time>2011-04-18T08:15:37.000Z</time>
      </trkpt>
      <trkpt lat="48.72209" lon="2.04052">
        <ele>165</ele>
        <time>2011-04-18T08:15:41.000Z</time>
      </trkpt>
      <trkpt lat="48.72203" lon="2.04022">
        <ele>158.19999694824</ele>
        <time>2011-04-18T08:16:17.000Z</time>
      </trkpt>
      <trkpt lat="48.72203" lon="2.04019">
        <ele>158.80000305176</ele>
        <time>2011-04-18T08:16:18.000Z</time>
      </trkpt>
      <trkpt lat="48.72199" lon="2.0401">
        <ele>159.19999694824</ele>
        <time>2011-04-18T08:16:24.000Z</time>
      </trkpt>
      <trkpt lat="48.72196" lon="2.03999">
        <ele>159.80000305176</ele>
        <time>2011-04-18T08:16:30.000Z</time>
      </trkpt>
      <trkpt lat="48.72195" lon="2.03998">
        <ele>159.19999694824</ele>
        <time>2011-04-18T08:16:31.000Z</time>
      </trkpt>
      <trkpt lat="48.72188" lon="2.0399">
        <ele>158.80000305176</ele>
        <time>2011-04-18T08:16:39.000Z</time>
      </trkpt>
      <trkpt lat="48.7218" lon="2.03984">
        <ele>158.80000305176</ele>
        <time>2011-04-18T08:16:45.000Z</time>
      </trkpt>
      <trkpt lat="48.7217" lon="2.03981">
        <ele>158.19999694824</ele>
        <time>2011-04-18T08:16:53.000Z</time>
      </trkpt>
      <trkpt lat="48.72157" lon="2.03976">
        <ele>158.19999694824</ele>
        <time>2011-04-18T08:17:03.000Z</time>
      </trkpt>
      <trkpt lat="48.72148" lon="2.03972">
        <ele>158.80000305176</ele>
        <time>2011-04-18T08:17:10.000Z</time>
      </trkpt>
      <trkpt lat="48.72135" lon="2.03967">
        <ele>158.80000305176</ele>
        <time>2011-04-18T08:17:20.000Z</time>
      </trkpt>
      <trkpt lat="48.72134" lon="2.03967">
        <ele>158.80000305176</ele>
        <time>2011-04-18T08:17:21.000Z</time>
      </trkpt>
      <trkpt lat="48.72129" lon="2.03965">
        <ele>159.19999694824</ele>
        <time>2011-04-18T08:17:25.000Z</time>
      </trkpt>
      <trkpt lat="48.72123" lon="2.03964">
        <ele>159.19999694824</ele>
        <time>2011-04-18T08:17:30.000Z</time>
      </trkpt>
      <trkpt lat="48.72114" lon="2.0396">
        <ele>158.80000305176</ele>
        <time>2011-04-18T08:17:37.000Z</time>
      </trkpt>
      <trkpt lat="48.72113" lon="2.0396">
        <ele>158.80000305176</ele>
        <time>2011-04-18T08:17:39.000Z</time>
      </trkpt>
      <trkpt lat="48.72103" lon="2.03954">
        <ele>159.19999694824</ele>
        <time>2011-04-18T08:17:47.000Z</time>
      </trkpt>
      <trkpt lat="48.72092" lon="2.0395">
        <ele>159.19999694824</ele>
        <time>2011-04-18T08:17:55.000Z</time>
      </trkpt>
      <trkpt lat="48.72081" lon="2.03945">
        <ele>159.19999694824</ele>
        <time>2011-04-18T08:18:03.000Z</time>
      </trkpt>
      <trkpt lat="48.72075" lon="2.03942">
        <ele>159.19999694824</ele>
        <time>2011-04-18T08:18:09.000Z</time>
      </trkpt>
      <trkpt lat="48.72075" lon="2.03942">
        <ele>159.19999694824</ele>
        <time>2011-04-18T08:18:10.000Z</time>
      </trkpt>
      <trkpt lat="48.72069" lon="2.0394">
        <ele>159.19999694824</ele>
        <time>2011-04-18T08:18:18.000Z</time>
      </trkpt>
      <trkpt lat="48.72056" lon="2.03935">
        <ele>159.80000305176</ele>
        <time>2011-04-18T08:18:27.000Z</time>
      </trkpt>
      <trkpt lat="48.72042" lon="2.0393">
        <ele>161.19999694824</ele>
        <time>2011-04-18T08:18:38.000Z</time>
      </trkpt>
      <trkpt lat="48.72027" lon="2.03924">
        <ele>162.19999694824</ele>
        <time>2011-04-18T08:18:50.000Z</time>
      </trkpt>
      <trkpt lat="48.72016" lon="2.0392">
        <ele>162.60000610352</ele>
        <time>2011-04-18T08:18:59.000Z</time>
      </trkpt>
      <trkpt lat="48.72005" lon="2.03916">
        <ele>162.60000610352</ele>
        <time>2011-04-18T08:19:08.000Z</time>
      </trkpt>
      <trkpt lat="48.71993" lon="2.03911">
        <ele>162.60000610352</ele>
        <time>2011-04-18T08:19:17.000Z</time>
      </trkpt>
      <trkpt lat="48.7198" lon="2.03906">
        <ele>162.19999694824</ele>
        <time>2011-04-18T08:19:27.000Z</time>
      </trkpt>
      <trkpt lat="48.71973" lon="2.03903">
        <ele>162.60000610352</ele>
        <time>2011-04-18T08:19:33.000Z</time>
      </trkpt>
      <trkpt lat="48.7196" lon="2.03898">
        <ele>162.60000610352</ele>
        <time>2011-04-18T08:19:43.000Z</time>
      </trkpt>
      <trkpt lat="48.71959" lon="2.03898">
        <ele>162.60000610352</ele>
        <time>2011-04-18T08:19:46.000Z</time>
      </trkpt>
      <trkpt lat="48.71952" lon="2.03895">
        <ele>162.60000610352</ele>
        <time>2011-04-18T08:19:54.000Z</time>
      </trkpt>
      <trkpt lat="48.71939" lon="2.0389">
        <ele>162.60000610352</ele>
        <time>2011-04-18T08:20:03.000Z</time>
      </trkpt>
      <trkpt lat="48.71929" lon="2.03886">
        <ele>163</ele>
        <time>2011-04-18T08:20:11.000Z</time>
      </trkpt>
      <trkpt lat="48.71918" lon="2.03882">
        <ele>163.60000610352</ele>
        <time>2011-04-18T08:20:20.000Z</time>
      </trkpt>
      <trkpt lat="48.71908" lon="2.03879">
        <ele>164</ele>
        <time>2011-04-18T08:20:28.000Z</time>
      </trkpt>
      <trkpt lat="48.71898" lon="2.03874">
        <ele>164.60000610352</ele>
        <time>2011-04-18T08:20:36.000Z</time>
      </trkpt>
      <trkpt lat="48.71883" lon="2.0387">
        <ele>165</ele>
        <time>2011-04-18T08:20:47.000Z</time>
      </trkpt>
      <trkpt lat="48.71869" lon="2.03863">
        <ele>165</ele>
        <time>2011-04-18T08:20:58.000Z</time>
      </trkpt>
      <trkpt lat="48.71854" lon="2.03858">
        <ele>165.39999389648</ele>
        <time>2011-04-18T08:21:09.000Z</time>
      </trkpt>
      <trkpt lat="48.71845" lon="2.03855">
        <ele>165.39999389648</ele>
        <time>2011-04-18T08:21:16.000Z</time>
      </trkpt>
      <trkpt lat="48.71842" lon="2.03855">
        <ele>165.39999389648</ele>
        <time>2011-04-18T08:21:19.000Z</time>
      </trkpt>
      <trkpt lat="48.7184" lon="2.03857">
        <ele>166</ele>
        <time>2011-04-18T08:21:24.000Z</time>
      </trkpt>
      <trkpt lat="48.71837" lon="2.03876">
        <ele>165</ele>
        <time>2011-04-18T08:21:57.000Z</time>
      </trkpt>
      <trkpt lat="48.71834" lon="2.03895">
        <ele>165</ele>
        <time>2011-04-18T08:22:05.000Z</time>
      </trkpt>
      <trkpt lat="48.71831" lon="2.03916">
        <ele>165</ele>
        <time>2011-04-18T08:22:15.000Z</time>
      </trkpt>
      <trkpt lat="48.71831" lon="2.03918">
        <ele>164.60000610352</ele>
        <time>2011-04-18T08:22:16.000Z</time>
      </trkpt>
      <trkpt lat="48.71823" lon="2.03933">
        <ele>165</ele>
        <time>2011-04-18T08:22:25.000Z</time>
      </trkpt>
      <trkpt lat="48.71813" lon="2.03936">
        <ele>165.39999389648</ele>
        <time>2011-04-18T08:22:33.000Z</time>
      </trkpt>
      <trkpt lat="48.71796" lon="2.03936">
        <ele>165.39999389648</ele>
        <time>2011-04-18T08:22:45.000Z</time>
      </trkpt>
      <trkpt lat="48.71781" lon="2.03934">
        <ele>165.39999389648</ele>
        <time>2011-04-18T08:22:57.000Z</time>
      </trkpt>
      <trkpt lat="48.71769" lon="2.03935">
        <ele>165</ele>
        <time>2011-04-18T08:23:06.000Z</time>
      </trkpt>
      <trkpt lat="48.71758" lon="2.03935">
        <ele>165</ele>
        <time>2011-04-18T08:23:14.000Z</time>
      </trkpt>
      <trkpt lat="48.71747" lon="2.03934">
        <ele>165</ele>
        <time>2011-04-18T08:23:22.000Z</time>
      </trkpt>
      <trkpt lat="48.71736" lon="2.03933">
        <ele>165</ele>
        <time>2011-04-18T08:23:31.000Z</time>
      </trkpt>
      <trkpt lat="48.71721" lon="2.03932">
        <ele>165</ele>
        <time>2011-04-18T08:23:43.000Z</time>
      </trkpt>
      <trkpt lat="48.71705" lon="2.03931">
        <ele>164.60000610352</ele>
        <time>2011-04-18T08:23:56.000Z</time>
      </trkpt>
      <trkpt lat="48.71697" lon="2.03931">
        <ele>164.60000610352</ele>
        <time>2011-04-18T08:24:03.000Z</time>
      </trkpt>
      <trkpt lat="48.71692" lon="2.03929">
        <ele>164.60000610352</ele>
        <time>2011-04-18T08:24:09.000Z</time>
      </trkpt>
      <trkpt lat="48.71687" lon="2.03928">
        <ele>164.60000610352</ele>
        <time>2011-04-18T08:24:13.000Z</time>
      </trkpt>
      <trkpt lat="48.71677" lon="2.03928">
        <ele>164.60000610352</ele>
        <time>2011-04-18T08:24:21.000Z</time>
      </trkpt>
      <trkpt lat="48.71672" lon="2.03929">
        <ele>164.60000610352</ele>
        <time>2011-04-18T08:24:25.000Z</time>
      </trkpt>
      <trkpt lat="48.7166" lon="2.03928">
        <ele>164.60000610352</ele>
        <time>2011-04-18T08:24:34.000Z</time>
      </trkpt>
      <trkpt lat="48.71648" lon="2.03929">
        <ele>164.60000610352</ele>
        <time>2011-04-18T08:24:43.000Z</time>
      </trkpt>
      <trkpt lat="48.71637" lon="2.03929">
        <ele>164</ele>
        <time>2011-04-18T08:24:51.000Z</time>
      </trkpt>
      <trkpt lat="48.71625" lon="2.0393">
        <ele>164</ele>
        <time>2011-04-18T08:25:01.000Z</time>
      </trkpt>
      <trkpt lat="48.71612" lon="2.03929">
        <ele>163.60000610352</ele>
        <time>2011-04-18T08:25:11.000Z</time>
      </trkpt>
      <trkpt lat="48.71597" lon="2.03932">
        <ele>163</ele>
        <time>2011-04-18T08:25:22.000Z</time>
      </trkpt>
      <trkpt lat="48.71586" lon="2.03936">
        <ele>162.60000610352</ele>
        <time>2011-04-18T08:25:31.000Z</time>
      </trkpt>
      <trkpt lat="48.71574" lon="2.03942">
        <ele>162.19999694824</ele>
        <time>2011-04-18T08:25:41.000Z</time>
      </trkpt>
      <trkpt lat="48.71562" lon="2.03948">
        <ele>161.60000610352</ele>
        <time>2011-04-18T08:25:51.000Z</time>
      </trkpt>
      <trkpt lat="48.71552" lon="2.03954">
        <ele>161.19999694824</ele>
        <time>2011-04-18T08:25:59.000Z</time>
      </trkpt>
      <trkpt lat="48.71542" lon="2.03959">
        <ele>161.19999694824</ele>
        <time>2011-04-18T08:26:08.000Z</time>
      </trkpt>
      <trkpt lat="48.71532" lon="2.03964">
        <ele>160.60000610352</ele>
        <time>2011-04-18T08:26:16.000Z</time>
      </trkpt>
      <trkpt lat="48.71524" lon="2.03965">
        <ele>161.19999694824</ele>
        <time>2011-04-18T08:26:23.000Z</time>
      </trkpt>
      <trkpt lat="48.71521" lon="2.03966">
        <ele>161.19999694824</ele>
        <time>2011-04-18T08:26:26.000Z</time>
      </trkpt>
      <trkpt lat="48.7151" lon="2.03973">
        <ele>161.60000610352</ele>
        <time>2011-04-18T08:26:35.000Z</time>
      </trkpt>
      <trkpt lat="48.71502" lon="2.03977">
        <ele>161.19999694824</ele>
        <time>2011-04-18T08:26:41.000Z</time>
      </trkpt>
      <trkpt lat="48.71491" lon="2.03982">
        <ele>161.19999694824</ele>
        <time>2011-04-18T08:26:50.000Z</time>
      </trkpt>
      <trkpt lat="48.71478" lon="2.03987">
        <ele>160.60000610352</ele>
        <time>2011-04-18T08:27:00.000Z</time>
      </trkpt>
      <trkpt lat="48.71475" lon="2.03988">
        <ele>160.19999694824</ele>
        <time>2011-04-18T08:27:02.000Z</time>
      </trkpt>
      <trkpt lat="48.71464" lon="2.03994">
        <ele>160.19999694824</ele>
        <time>2011-04-18T08:27:11.000Z</time>
      </trkpt>
      <trkpt lat="48.71457" lon="2.03997">
        <ele>160.19999694824</ele>
        <time>2011-04-18T08:27:17.000Z</time>
      </trkpt>
      <trkpt lat="48.71452" lon="2.03999">
        <ele>160.60000610352</ele>
        <time>2011-04-18T08:27:21.000Z</time>
      </trkpt>
      <trkpt lat="48.7145" lon="2.04">
        <ele>160.60000610352</ele>
        <time>2011-04-18T08:27:22.000Z</time>
      </trkpt>
      <trkpt lat="48.71442" lon="2.04002">
        <ele>160.60000610352</ele>
        <time>2011-04-18T08:27:28.000Z</time>
      </trkpt>
      <trkpt lat="48.7143" lon="2.04004">
        <ele>160.19999694824</ele>
        <time>2011-04-18T08:27:38.000Z</time>
      </trkpt>
      <trkpt lat="48.71429" lon="2.04005">
        <ele>160.19999694824</ele>
        <time>2011-04-18T08:27:39.000Z</time>
      </trkpt>
      <trkpt lat="48.71427" lon="2.04004">
        <ele>159.80000305176</ele>
        <time>2011-04-18T08:27:43.000Z</time>
      </trkpt>
      <trkpt lat="48.71413" lon="2.04007">
        <ele>159.19999694824</ele>
        <time>2011-04-18T08:28:15.000Z</time>
      </trkpt>
      <trkpt lat="48.71406" lon="2.04003">
        <ele>158.80000305176</ele>
        <time>2011-04-18T08:28:20.000Z</time>
      </trkpt>
      <trkpt lat="48.71398" lon="2.04001">
        <ele>158.80000305176</ele>
        <time>2011-04-18T08:28:28.000Z</time>
      </trkpt>
      <trkpt lat="48.7139" lon="2.04006">
        <ele>158.19999694824</ele>
        <time>2011-04-18T08:28:36.000Z</time>
      </trkpt>
      <trkpt lat="48.71383" lon="2.0402">
        <ele>158.80000305176</ele>
        <time>2011-04-18T08:28:46.000Z</time>
      </trkpt>
      <trkpt lat="48.71376" lon="2.04036">
        <ele>158.80000305176</ele>
        <time>2011-04-18T08:28:54.000Z</time>
      </trkpt>
      <trkpt lat="48.71371" lon="2.04046">
        <ele>158.80000305176</ele>
        <time>2011-04-18T08:29:00.000Z</time>
      </trkpt>
      <trkpt lat="48.71369" lon="2.04052">
        <ele>158.80000305176</ele>
        <time>2011-04-18T08:29:04.000Z</time>
      </trkpt>
      <trkpt lat="48.71361" lon="2.04066">
        <ele>158.19999694824</ele>
        <time>2011-04-18T08:29:14.000Z</time>
      </trkpt>
      <trkpt lat="48.71356" lon="2.04082">
        <ele>157.80000305176</ele>
        <time>2011-04-18T08:29:24.000Z</time>
      </trkpt>
      <trkpt lat="48.71348" lon="2.04099">
        <ele>158.19999694824</ele>
        <time>2011-04-18T08:29:34.000Z</time>
      </trkpt>
      <trkpt lat="48.71342" lon="2.04111">
        <ele>158.19999694824</ele>
        <time>2011-04-18T08:29:42.000Z</time>
      </trkpt>
      <trkpt lat="48.71333" lon="2.04128">
        <ele>159.19999694824</ele>
        <time>2011-04-18T08:29:53.000Z</time>
      </trkpt>
      <trkpt lat="48.71324" lon="2.04141">
        <ele>159.19999694824</ele>
        <time>2011-04-18T08:30:03.000Z</time>
      </trkpt>
      <trkpt lat="48.71314" lon="2.04146">
        <ele>158.80000305176</ele>
        <time>2011-04-18T08:30:11.000Z</time>
      </trkpt>
      <trkpt lat="48.71306" lon="2.04151">
        <ele>158.80000305176</ele>
        <time>2011-04-18T08:30:18.000Z</time>
      </trkpt>
      <trkpt lat="48.71295" lon="2.04158">
        <ele>158.19999694824</ele>
        <time>2011-04-18T08:30:28.000Z</time>
      </trkpt>
      <trkpt lat="48.71287" lon="2.04166">
        <ele>157.80000305176</ele>
        <time>2011-04-18T08:30:36.000Z</time>
      </trkpt>
      <trkpt lat="48.7127" lon="2.04176">
        <ele>157.80000305176</ele>
        <time>2011-04-18T08:30:50.000Z</time>
      </trkpt>
      <trkpt lat="48.71259" lon="2.04182">
        <ele>157.39999389648</ele>
        <time>2011-04-18T08:30:59.000Z</time>
      </trkpt>
      <trkpt lat="48.71251" lon="2.04191">
        <ele>156.39999389648</ele>
        <time>2011-04-18T08:31:08.000Z</time>
      </trkpt>
      <trkpt lat="48.71242" lon="2.04201">
        <ele>155.80000305176</ele>
        <time>2011-04-18T08:31:17.000Z</time>
      </trkpt>
      <trkpt lat="48.7123" lon="2.04218">
        <ele>155</ele>
        <time>2011-04-18T08:31:30.000Z</time>
      </trkpt>
      <trkpt lat="48.71222" lon="2.04232">
        <ele>155</ele>
        <time>2011-04-18T08:31:39.000Z</time>
      </trkpt>
      <trkpt lat="48.71215" lon="2.0425">
        <ele>155</ele>
        <time>2011-04-18T08:31:50.000Z</time>
      </trkpt>
      <trkpt lat="48.71208" lon="2.0427">
        <ele>156.39999389648</ele>
        <time>2011-04-18T08:32:02.000Z</time>
      </trkpt>
      <trkpt lat="48.71203" lon="2.04284">
        <ele>155.80000305176</ele>
        <time>2011-04-18T08:32:10.000Z</time>
      </trkpt>
      <trkpt lat="48.71199" lon="2.04297">
        <ele>155.80000305176</ele>
        <time>2011-04-18T08:32:17.000Z</time>
      </trkpt>
      <trkpt lat="48.71197" lon="2.04302">
        <ele>155.39999389648</ele>
        <time>2011-04-18T08:32:20.000Z</time>
      </trkpt>
      <trkpt lat="48.71194" lon="2.04312">
        <ele>155.80000305176</ele>
        <time>2011-04-18T08:32:25.000Z</time>
      </trkpt>
      <trkpt lat="48.71193" lon="2.0432">
        <ele>156.39999389648</ele>
        <time>2011-04-18T08:32:29.000Z</time>
      </trkpt>
      <trkpt lat="48.71189" lon="2.04332">
        <ele>156.39999389648</ele>
        <time>2011-04-18T08:32:35.000Z</time>
      </trkpt>
      <trkpt lat="48.71181" lon="2.04339">
        <ele>156.39999389648</ele>
        <time>2011-04-18T08:32:42.000Z</time>
      </trkpt>
      <trkpt lat="48.71179" lon="2.04341">
        <ele>156.39999389648</ele>
        <time>2011-04-18T08:32:44.000Z</time>
      </trkpt>
      <trkpt lat="48.71171" lon="2.04342">
        <ele>156.39999389648</ele>
        <time>2011-04-18T08:32:50.000Z</time>
      </trkpt>
      <trkpt lat="48.71163" lon="2.04328">
        <ele>155.39999389648</ele>
        <time>2011-04-18T08:32:59.000Z</time>
      </trkpt>
      <trkpt lat="48.71157" lon="2.04311">
        <ele>155.39999389648</ele>
        <time>2011-04-18T08:33:09.000Z</time>
      </trkpt>
      <trkpt lat="48.71154" lon="2.04296">
        <ele>155.39999389648</ele>
        <time>2011-04-18T08:33:17.000Z</time>
      </trkpt>
      <trkpt lat="48.71154" lon="2.0428">
        <ele>155</ele>
        <time>2011-04-18T08:33:25.000Z</time>
      </trkpt>
      <trkpt lat="48.71152" lon="2.04256">
        <ele>155</ele>
        <time>2011-04-18T08:33:36.000Z</time>
      </trkpt>
      <trkpt lat="48.7115" lon="2.04242">
        <ele>154.39999389648</ele>
        <time>2011-04-18T08:33:43.000Z</time>
      </trkpt>
      <trkpt lat="48.71145" lon="2.04234">
        <ele>154.39999389648</ele>
        <time>2011-04-18T08:33:49.000Z</time>
      </trkpt>
      <trkpt lat="48.71143" lon="2.04231">
        <ele>154.39999389648</ele>
        <time>2011-04-18T08:33:51.000Z</time>
      </trkpt>
      <trkpt lat="48.71144" lon="2.04218">
        <ele>154</ele>
        <time>2011-04-18T08:33:58.000Z</time>
      </trkpt>
      <trkpt lat="48.71141" lon="2.04204">
        <ele>153.39999389648</ele>
        <time>2011-04-18T08:34:05.000Z</time>
      </trkpt>
      <trkpt lat="48.71133" lon="2.04181">
        <ele>153</ele>
        <time>2011-04-18T08:34:17.000Z</time>
      </trkpt>
      <trkpt lat="48.71127" lon="2.04163">
        <ele>153</ele>
        <time>2011-04-18T08:34:27.000Z</time>
      </trkpt>
      <trkpt lat="48.71124" lon="2.04154">
        <ele>153</ele>
        <time>2011-04-18T08:34:34.000Z</time>
      </trkpt>
      <trkpt lat="48.71123" lon="2.04153">
        <ele>153</ele>
        <time>2011-04-18T08:34:36.000Z</time>
      </trkpt>
      <trkpt lat="48.71114" lon="2.04147">
        <ele>152</ele>
        <time>2011-04-18T08:34:59.000Z</time>
      </trkpt>
      <trkpt lat="48.71104" lon="2.0414">
        <ele>151.60000610352</ele>
        <time>2011-04-18T08:35:07.000Z</time>
      </trkpt>
      <trkpt lat="48.711" lon="2.04139">
        <ele>151.60000610352</ele>
        <time>2011-04-18T08:35:10.000Z</time>
      </trkpt>
      <trkpt lat="48.71091" lon="2.04139">
        <ele>151.60000610352</ele>
        <time>2011-04-18T08:35:18.000Z</time>
      </trkpt>
      <trkpt lat="48.71082" lon="2.04138">
        <ele>151.60000610352</ele>
        <time>2011-04-18T08:35:26.000Z</time>
      </trkpt>
      <trkpt lat="48.71072" lon="2.04131">
        <ele>151</ele>
        <time>2011-04-18T08:35:34.000Z</time>
      </trkpt>
      <trkpt lat="48.71064" lon="2.04127">
        <ele>150.19999694824</ele>
        <time>2011-04-18T08:35:41.000Z</time>
      </trkpt>
      <trkpt lat="48.71056" lon="2.04121">
        <ele>149.60000610352</ele>
        <time>2011-04-18T08:35:48.000Z</time>
      </trkpt>
      <trkpt lat="48.71053" lon="2.04117">
        <ele>149.19999694824</ele>
        <time>2011-04-18T08:35:51.000Z</time>
      </trkpt>
      <trkpt lat="48.71052" lon="2.04117">
        <ele>148.60000610352</ele>
        <time>2011-04-18T08:35:54.000Z</time>
      </trkpt>
      <trkpt lat="48.71039" lon="2.04126">
        <ele>152.60000610352</ele>
        <time>2011-04-18T08:37:33.000Z</time>
      </trkpt>
      <trkpt lat="48.71031" lon="2.04132">
        <ele>151</ele>
        <time>2011-04-18T08:37:40.000Z</time>
      </trkpt>
      <trkpt lat="48.71029" lon="2.04131">
        <ele>150.60000610352</ele>
        <time>2011-04-18T08:37:45.000Z</time>
      </trkpt>
      <trkpt lat="48.71028" lon="2.04128">
        <ele>150.60000610352</ele>
        <time>2011-04-18T08:37:49.000Z</time>
      </trkpt>
      <trkpt lat="48.71003" lon="2.04161">
        <ele>147.60000610352</ele>
        <time>2011-04-18T08:39:12.000Z</time>
      </trkpt>
      <trkpt lat="48.70999" lon="2.04165">
        <ele>147.60000610352</ele>
        <time>2011-04-18T08:39:14.000Z</time>
      </trkpt>
      <trkpt lat="48.70993" lon="2.04165">
        <ele>146.80000305176</ele>
        <time>2011-04-18T08:39:19.000Z</time>
      </trkpt>
      <trkpt lat="48.70993" lon="2.04166">
        <ele>146.19999694824</ele>
        <time>2011-04-18T08:39:22.000Z</time>
      </trkpt>
      <trkpt lat="48.7098" lon="2.04165">
        <ele>147.60000610352</ele>
        <time>2011-04-18T08:39:46.000Z</time>
      </trkpt>
      <trkpt lat="48.70977" lon="2.04163">
        <ele>147.19999694824</ele>
        <time>2011-04-18T08:39:48.000Z</time>
      </trkpt>
      <trkpt lat="48.70974" lon="2.04162">
        <ele>146.80000305176</ele>
        <time>2011-04-18T08:39:52.000Z</time>
      </trkpt>
      <trkpt lat="48.70966" lon="2.04167">
        <ele>143.80000305176</ele>
        <time>2011-04-18T08:40:00.000Z</time>
      </trkpt>
      <trkpt lat="48.70961" lon="2.04177">
        <ele>141.39999389648</ele>
        <time>2011-04-18T08:40:08.000Z</time>
      </trkpt>
      <trkpt lat="48.70957" lon="2.04193">
        <ele>139.60000610352</ele>
        <time>2011-04-18T08:40:18.000Z</time>
      </trkpt>
      <trkpt lat="48.70954" lon="2.04206">
        <ele>137.60000610352</ele>
        <time>2011-04-18T08:40:26.000Z</time>
      </trkpt>
      <trkpt lat="48.70951" lon="2.04222">
        <ele>134.19999694824</ele>
        <time>2011-04-18T08:40:36.000Z</time>
      </trkpt>
      <trkpt lat="48.70949" lon="2.04223">
        <ele>133.80000305176</ele>
        <time>2011-04-18T08:40:39.000Z</time>
      </trkpt>
      <trkpt lat="48.70944" lon="2.04194">
        <ele>131.80000305176</ele>
        <time>2011-04-18T08:41:11.000Z</time>
      </trkpt>
      <trkpt lat="48.70944" lon="2.0418">
        <ele>130.39999389648</ele>
        <time>2011-04-18T08:41:19.000Z</time>
      </trkpt>
      <trkpt lat="48.70945" lon="2.04178">
        <ele>130.39999389648</ele>
        <time>2011-04-18T08:41:23.000Z</time>
      </trkpt>
      <trkpt lat="48.70938" lon="2.04175">
        <ele>127</ele>
        <time>2011-04-18T08:41:47.000Z</time>
      </trkpt>
      <trkpt lat="48.70936" lon="2.04181">
        <ele>126.59999847412</ele>
        <time>2011-04-18T08:41:50.000Z</time>
      </trkpt>
      <trkpt lat="48.70934" lon="2.04184">
        <ele>126</ele>
        <time>2011-04-18T08:41:52.000Z</time>
      </trkpt>
      <trkpt lat="48.70929" lon="2.04194">
        <ele>125.19999694824</ele>
        <time>2011-04-18T08:41:59.000Z</time>
      </trkpt>
      <trkpt lat="48.70927" lon="2.04201">
        <ele>123.59999847412</ele>
        <time>2011-04-18T08:42:04.000Z</time>
      </trkpt>
      <trkpt lat="48.70927" lon="2.0421">
        <ele>123.19999694824</ele>
        <time>2011-04-18T08:42:09.000Z</time>
      </trkpt>
      <trkpt lat="48.70927" lon="2.04216">
        <ele>122.80000305176</ele>
        <time>2011-04-18T08:42:13.000Z</time>
      </trkpt>
      <trkpt lat="48.70927" lon="2.04223">
        <ele>120.80000305176</ele>
        <time>2011-04-18T08:42:19.000Z</time>
      </trkpt>
      <trkpt lat="48.70923" lon="2.04228">
        <ele>117.40000152588</ele>
        <time>2011-04-18T08:42:25.000Z</time>
      </trkpt>
      <trkpt lat="48.70917" lon="2.04225">
        <ele>116.40000152588</ele>
        <time>2011-04-18T08:42:32.000Z</time>
      </trkpt>
      <trkpt lat="48.70915" lon="2.04221">
        <ele>116</ele>
        <time>2011-04-18T08:42:35.000Z</time>
      </trkpt>
      <trkpt lat="48.70908" lon="2.04209">
        <ele>116</ele>
        <time>2011-04-18T08:42:44.000Z</time>
      </trkpt>
      <trkpt lat="48.70906" lon="2.04203">
        <ele>115.40000152588</ele>
        <time>2011-04-18T08:42:50.000Z</time>
      </trkpt>
      <trkpt lat="48.709" lon="2.04162">
        <ele>107.80000305176</ele>
        <time>2011-04-18T08:43:57.000Z</time>
      </trkpt>
      <trkpt lat="48.709" lon="2.04148">
        <ele>100.59999847412</ele>
        <time>2011-04-18T08:44:06.000Z</time>
      </trkpt>
      <trkpt lat="48.70902" lon="2.04135">
        <ele>99.199996948242</ele>
        <time>2011-04-18T08:44:14.000Z</time>
      </trkpt>
      <trkpt lat="48.70902" lon="2.04122">
        <ele>99.199996948242</ele>
        <time>2011-04-18T08:44:21.000Z</time>
      </trkpt>
      <trkpt lat="48.70902" lon="2.04121">
        <ele>98.599998474121</ele>
        <time>2011-04-18T08:44:22.000Z</time>
      </trkpt>
      <trkpt lat="48.70901" lon="2.04105">
        <ele>94.400001525879</ele>
        <time>2011-04-18T08:44:31.000Z</time>
      </trkpt>
      <trkpt lat="48.70899" lon="2.04095">
        <ele>92.400001525879</ele>
        <time>2011-04-18T08:44:37.000Z</time>
      </trkpt>
      <trkpt lat="48.70898" lon="2.04089">
        <ele>93</ele>
        <time>2011-04-18T08:44:41.000Z</time>
      </trkpt>
      <trkpt lat="48.70893" lon="2.04079">
        <ele>95.800003051758</ele>
        <time>2011-04-18T08:44:47.000Z</time>
      </trkpt>
      <trkpt lat="48.70891" lon="2.04077">
        <ele>98.599998474121</ele>
        <time>2011-04-18T08:44:52.000Z</time>
      </trkpt>
      <trkpt lat="48.70807" lon="2.04112">
        <ele>89.599998474121</ele>
        <time>2011-04-18T08:52:21.000Z</time>
      </trkpt>
      <trkpt lat="48.70801" lon="2.04113">
        <ele>87.199996948242</ele>
        <time>2011-04-18T08:52:26.000Z</time>
      </trkpt>
      <trkpt lat="48.70798" lon="2.04113">
        <ele>87.199996948242</ele>
        <time>2011-04-18T08:52:28.000Z</time>
      </trkpt>
      <trkpt lat="48.70795" lon="2.04113">
        <ele>87.199996948242</ele>
        <time>2011-04-18T08:52:30.000Z</time>
      </trkpt>
      <trkpt lat="48.7079" lon="2.04116">
        <ele>88</ele>
        <time>2011-04-18T08:52:37.000Z</time>
      </trkpt>
      <trkpt lat="48.7079" lon="2.04116">
        <ele>88.599998474121</ele>
        <time>2011-04-18T08:52:44.000Z</time>
      </trkpt>
      <trkpt lat="48.70785" lon="2.04128">
        <ele>98.199996948242</ele>
        <time>2011-04-18T08:54:13.000Z</time>
      </trkpt>
      <trkpt lat="48.70788" lon="2.04123">
        <ele>103</ele>
        <time>2011-04-18T08:54:20.000Z</time>
      </trkpt>
      <trkpt lat="48.70778" lon="2.04129">
        <ele>99.199996948242</ele>
        <time>2011-04-18T08:55:29.000Z</time>
      </trkpt>
      <trkpt lat="48.7078" lon="2.04134">
        <ele>95.400001525879</ele>
        <time>2011-04-18T08:55:39.000Z</time>
      </trkpt>
      <trkpt lat="48.70774" lon="2.04128">
        <ele>87.599998474121</ele>
        <time>2011-04-18T08:56:07.000Z</time>
      </trkpt>
      <trkpt lat="48.70771" lon="2.04124">
        <ele>88</ele>
        <time>2011-04-18T08:56:11.000Z</time>
      </trkpt>
      <trkpt lat="48.70766" lon="2.04122">
        <ele>87.599998474121</ele>
        <time>2011-04-18T08:56:16.000Z</time>
      </trkpt>
      <trkpt lat="48.70757" lon="2.04117">
        <ele>87.199996948242</ele>
        <time>2011-04-18T08:56:24.000Z</time>
      </trkpt>
      <trkpt lat="48.70753" lon="2.04114">
        <ele>84.199996948242</ele>
        <time>2011-04-18T08:56:30.000Z</time>
      </trkpt>
      <trkpt lat="48.70748" lon="2.04115">
        <ele>89</ele>
        <time>2011-04-18T08:56:37.000Z</time>
      </trkpt>
      <trkpt lat="48.70747" lon="2.04115">
        <ele>90.599998474121</ele>
        <time>2011-04-18T08:56:40.000Z</time>
      </trkpt>
      <trkpt lat="48.70746" lon="2.04115">
        <ele>92</ele>
        <time>2011-04-18T08:56:50.000Z</time>
      </trkpt>
      <trkpt lat="48.70746" lon="2.04116">
        <ele>91.400001525879</ele>
        <time>2011-04-18T08:56:52.000Z</time>
      </trkpt>
      <trkpt lat="48.70748" lon="2.04108">
        <ele>86.599998474121</ele>
        <time>2011-04-18T08:57:42.000Z</time>
      </trkpt>
      <trkpt lat="48.70749" lon="2.04105">
        <ele>86.599998474121</ele>
        <time>2011-04-18T08:57:43.000Z</time>
      </trkpt>
      <trkpt lat="48.7075" lon="2.04094">
        <ele>86.199996948242</ele>
        <time>2011-04-18T08:57:48.000Z</time>
      </trkpt>
      <trkpt lat="48.70752" lon="2.04085">
        <ele>85.199996948242</ele>
        <time>2011-04-18T08:57:52.000Z</time>
      </trkpt>
      <trkpt lat="48.70753" lon="2.04074">
        <ele>84.199996948242</ele>
        <time>2011-04-18T08:57:57.000Z</time>
      </trkpt>
      <trkpt lat="48.70754" lon="2.04068">
        <ele>84.199996948242</ele>
        <time>2011-04-18T08:58:00.000Z</time>
      </trkpt>
      <trkpt lat="48.70754" lon="2.04055">
        <ele>82.800003051758</ele>
        <time>2011-04-18T08:58:07.000Z</time>
      </trkpt>
      <trkpt lat="48.70754" lon="2.0405">
        <ele>82.800003051758</ele>
        <time>2011-04-18T08:58:09.000Z</time>
      </trkpt>
      <trkpt lat="48.70754" lon="2.04037">
        <ele>83.199996948242</ele>
        <time>2011-04-18T08:58:16.000Z</time>
      </trkpt>
      <trkpt lat="48.70755" lon="2.04029">
        <ele>83.199996948242</ele>
        <time>2011-04-18T08:58:20.000Z</time>
      </trkpt>
      <trkpt lat="48.70756" lon="2.0402">
        <ele>82.800003051758</ele>
        <time>2011-04-18T08:58:25.000Z</time>
      </trkpt>
      <trkpt lat="48.70756" lon="2.04002">
        <ele>82.400001525879</ele>
        <time>2011-04-18T08:58:34.000Z</time>
      </trkpt>
      <trkpt lat="48.70757" lon="2.03993">
        <ele>82.800003051758</ele>
        <time>2011-04-18T08:58:38.000Z</time>
      </trkpt>
      <trkpt lat="48.70755" lon="2.03974">
        <ele>82.800003051758</ele>
        <time>2011-04-18T08:58:47.000Z</time>
      </trkpt>
      <trkpt lat="48.70751" lon="2.03959">
        <ele>81.400001525879</ele>
        <time>2011-04-18T08:58:55.000Z</time>
      </trkpt>
      <trkpt lat="48.70749" lon="2.03951">
        <ele>80.400001525879</ele>
        <time>2011-04-18T08:58:59.000Z</time>
      </trkpt>
      <trkpt lat="48.70743" lon="2.03944">
        <ele>80.800003051758</ele>
        <time>2011-04-18T08:59:04.000Z</time>
      </trkpt>
      <trkpt lat="48.7074" lon="2.03943">
        <ele>80.800003051758</ele>
        <time>2011-04-18T08:59:07.000Z</time>
      </trkpt>
      <trkpt lat="48.70738" lon="2.03945">
        <ele>80.800003051758</ele>
        <time>2011-04-18T08:59:10.000Z</time>
      </trkpt>
      <trkpt lat="48.70732" lon="2.03948">
        <ele>80.400001525879</ele>
        <time>2011-04-18T08:59:16.000Z</time>
      </trkpt>
      <trkpt lat="48.70728" lon="2.03952">
        <ele>80.800003051758</ele>
        <time>2011-04-18T08:59:20.000Z</time>
      </trkpt>
      <trkpt lat="48.70722" lon="2.03955">
        <ele>78.400001525879</ele>
        <time>2011-04-18T08:59:26.000Z</time>
      </trkpt>
      <trkpt lat="48.70708" lon="2.03966">
        <ele>78</ele>
        <time>2011-04-18T08:59:37.000Z</time>
      </trkpt>
      <trkpt lat="48.70695" lon="2.03973">
        <ele>76.599998474121</ele>
        <time>2011-04-18T08:59:48.000Z</time>
      </trkpt>
      <trkpt lat="48.70687" lon="2.03975">
        <ele>75.199996948242</ele>
        <time>2011-04-18T08:59:55.000Z</time>
      </trkpt>
      <trkpt lat="48.70683" lon="2.03975">
        <ele>75.199996948242</ele>
        <time>2011-04-18T09:00:00.000Z</time>
      </trkpt>
      <trkpt lat="48.70671" lon="2.03976">
        <ele>76</ele>
        <time>2011-04-18T09:00:20.000Z</time>
      </trkpt>
      <trkpt lat="48.70666" lon="2.0398">
        <ele>76.599998474121</ele>
        <time>2011-04-18T09:00:24.000Z</time>
      </trkpt>
      <trkpt lat="48.70665" lon="2.03983">
        <ele>76.599998474121</ele>
        <time>2011-04-18T09:00:26.000Z</time>
      </trkpt>
      <trkpt lat="48.70665" lon="2.03986">
        <ele>76</ele>
        <time>2011-04-18T09:00:30.000Z</time>
      </trkpt>
      <trkpt lat="48.70666" lon="2.04002">
        <ele>76</ele>
        <time>2011-04-18T09:01:11.000Z</time>
      </trkpt>
      <trkpt lat="48.70666" lon="2.04004">
        <ele>76</ele>
        <time>2011-04-18T09:01:12.000Z</time>
      </trkpt>
      <trkpt lat="48.70666" lon="2.04009">
        <ele>76</ele>
        <time>2011-04-18T09:01:17.000Z</time>
      </trkpt>
      <trkpt lat="48.70667" lon="2.04018">
        <ele>76.599998474121</ele>
        <time>2011-04-18T09:01:24.000Z</time>
      </trkpt>
      <trkpt lat="48.70671" lon="2.04038">
        <ele>78.400001525879</ele>
        <time>2011-04-18T09:01:33.000Z</time>
      </trkpt>
      <trkpt lat="48.70671" lon="2.04053">
        <ele>80</ele>
        <time>2011-04-18T09:01:41.000Z</time>
      </trkpt>
      <trkpt lat="48.70671" lon="2.04065">
        <ele>79.400001525879</ele>
        <time>2011-04-18T09:01:48.000Z</time>
      </trkpt>
      <trkpt lat="48.70672" lon="2.04079">
        <ele>79.400001525879</ele>
        <time>2011-04-18T09:01:56.000Z</time>
      </trkpt>
      <trkpt lat="48.70672" lon="2.04094">
        <ele>79</ele>
        <time>2011-04-18T09:02:04.000Z</time>
      </trkpt>
      <trkpt lat="48.70671" lon="2.04094">
        <ele>79</ele>
        <time>2011-04-18T09:02:08.000Z</time>
      </trkpt>
      <trkpt lat="48.70671" lon="2.04092">
        <ele>78.400001525879</ele>
        <time>2011-04-18T09:02:12.000Z</time>
      </trkpt>
      <trkpt lat="48.70673" lon="2.04107">
        <ele>78.400001525879</ele>
        <time>2011-04-18T09:02:46.000Z</time>
      </trkpt>
      <trkpt lat="48.70673" lon="2.04112">
        <ele>79</ele>
        <time>2011-04-18T09:02:48.000Z</time>
      </trkpt>
      <trkpt lat="48.70678" lon="2.04133">
        <ele>80</ele>
        <time>2011-04-18T09:02:59.000Z</time>
      </trkpt>
      <trkpt lat="48.70679" lon="2.04135">
        <ele>80.400001525879</ele>
        <time>2011-04-18T09:03:00.000Z</time>
      </trkpt>
      <trkpt lat="48.70679" lon="2.04146">
        <ele>80</ele>
        <time>2011-04-18T09:03:06.000Z</time>
      </trkpt>
      <trkpt lat="48.70678" lon="2.0416">
        <ele>79.400001525879</ele>
        <time>2011-04-18T09:03:14.000Z</time>
      </trkpt>
      <trkpt lat="48.70678" lon="2.04179">
        <ele>80</ele>
        <time>2011-04-18T09:03:24.000Z</time>
      </trkpt>
      <trkpt lat="48.70677" lon="2.04187">
        <ele>79.400001525879</ele>
        <time>2011-04-18T09:03:29.000Z</time>
      </trkpt>
      <trkpt lat="48.70677" lon="2.04199">
        <ele>79</ele>
        <time>2011-04-18T09:03:36.000Z</time>
      </trkpt>
      <trkpt lat="48.70679" lon="2.0421">
        <ele>79.400001525879</ele>
        <time>2011-04-18T09:03:42.000Z</time>
      </trkpt>
      <trkpt lat="48.70679" lon="2.04216">
        <ele>79.400001525879</ele>
        <time>2011-04-18T09:03:45.000Z</time>
      </trkpt>
      <trkpt lat="48.70681" lon="2.04227">
        <ele>79.400001525879</ele>
        <time>2011-04-18T09:03:52.000Z</time>
      </trkpt>
      <trkpt lat="48.7068" lon="2.04234">
        <ele>80.400001525879</ele>
        <time>2011-04-18T09:03:56.000Z</time>
      </trkpt>
      <trkpt lat="48.70681" lon="2.04246">
        <ele>80.400001525879</ele>
        <time>2011-04-18T09:04:03.000Z</time>
      </trkpt>
      <trkpt lat="48.7068" lon="2.04252">
        <ele>80.400001525879</ele>
        <time>2011-04-18T09:04:06.000Z</time>
      </trkpt>
      <trkpt lat="48.70681" lon="2.04274">
        <ele>80.400001525879</ele>
        <time>2011-04-18T09:04:17.000Z</time>
      </trkpt>
      <trkpt lat="48.7068" lon="2.04287">
        <ele>80.400001525879</ele>
        <time>2011-04-18T09:04:24.000Z</time>
      </trkpt>
      <trkpt lat="48.7068" lon="2.04296">
        <ele>80.800003051758</ele>
        <time>2011-04-18T09:04:29.000Z</time>
      </trkpt>
      <trkpt lat="48.7068" lon="2.04309">
        <ele>80.400001525879</ele>
        <time>2011-04-18T09:04:37.000Z</time>
      </trkpt>
      <trkpt lat="48.70682" lon="2.04324">
        <ele>80.400001525879</ele>
        <time>2011-04-18T09:04:45.000Z</time>
      </trkpt>
      <trkpt lat="48.70682" lon="2.04338">
        <ele>80.800003051758</ele>
        <time>2011-04-18T09:04:53.000Z</time>
      </trkpt>
      <trkpt lat="48.70681" lon="2.04358">
        <ele>80.800003051758</ele>
        <time>2011-04-18T09:05:03.000Z</time>
      </trkpt>
      <trkpt lat="48.7068" lon="2.04363">
        <ele>80.800003051758</ele>
        <time>2011-04-18T09:05:07.000Z</time>
      </trkpt>
      <trkpt lat="48.70679" lon="2.04363">
        <ele>80.800003051758</ele>
        <time>2011-04-18T09:05:10.000Z</time>
      </trkpt>
      <trkpt lat="48.70678" lon="2.04383">
        <ele>79.400001525879</ele>
        <time>2011-04-18T09:05:53.000Z</time>
      </trkpt>
      <trkpt lat="48.70677" lon="2.0439">
        <ele>79.400001525879</ele>
        <time>2011-04-18T09:05:56.000Z</time>
      </trkpt>
      <trkpt lat="48.70675" lon="2.04405">
        <ele>79.400001525879</ele>
        <time>2011-04-18T09:06:04.000Z</time>
      </trkpt>
      <trkpt lat="48.70673" lon="2.04419">
        <ele>78.400001525879</ele>
        <time>2011-04-18T09:06:13.000Z</time>
      </trkpt>
      <trkpt lat="48.70673" lon="2.04422">
        <ele>79</ele>
        <time>2011-04-18T09:06:18.000Z</time>
      </trkpt>
      <trkpt lat="48.70665" lon="2.0442">
        <ele>76.599998474121</ele>
        <time>2011-04-18T09:06:57.000Z</time>
      </trkpt>
      <trkpt lat="48.70652" lon="2.04421">
        <ele>75.599998474121</ele>
        <time>2011-04-18T09:07:06.000Z</time>
      </trkpt>
      <trkpt lat="48.70651" lon="2.04421">
        <ele>76</ele>
        <time>2011-04-18T09:07:08.000Z</time>
      </trkpt>
      <trkpt lat="48.70647" lon="2.04422">
        <ele>76.599998474121</ele>
        <time>2011-04-18T09:07:15.000Z</time>
      </trkpt>
      <trkpt lat="48.70642" lon="2.04421">
        <ele>74.199996948242</ele>
        <time>2011-04-18T09:07:22.000Z</time>
      </trkpt>
      <trkpt lat="48.70639" lon="2.04421">
        <ele>72.800003051758</ele>
        <time>2011-04-18T09:07:27.000Z</time>
      </trkpt>
      <trkpt lat="48.7063" lon="2.0448">
        <ele>75.199996948242</ele>
        <time>2011-04-18T09:11:48.000Z</time>
      </trkpt>
      <trkpt lat="48.70629" lon="2.04487">
        <ele>74.599998474121</ele>
        <time>2011-04-18T09:11:51.000Z</time>
      </trkpt>
      <trkpt lat="48.70628" lon="2.04495">
        <ele>74.599998474121</ele>
        <time>2011-04-18T09:11:56.000Z</time>
      </trkpt>
      <trkpt lat="48.70627" lon="2.04506">
        <ele>75.199996948242</ele>
        <time>2011-04-18T09:12:02.000Z</time>
      </trkpt>
      <trkpt lat="48.70626" lon="2.04519">
        <ele>74.599998474121</ele>
        <time>2011-04-18T09:12:11.000Z</time>
      </trkpt>
      <trkpt lat="48.70623" lon="2.04532">
        <ele>75.199996948242</ele>
        <time>2011-04-18T09:12:19.000Z</time>
      </trkpt>
      <trkpt lat="48.70617" lon="2.04545">
        <ele>75.199996948242</ele>
        <time>2011-04-18T09:12:28.000Z</time>
      </trkpt>
      <trkpt lat="48.70614" lon="2.04553">
        <ele>75.199996948242</ele>
        <time>2011-04-18T09:12:33.000Z</time>
      </trkpt>
      <trkpt lat="48.70613" lon="2.04552">
        <ele>75.199996948242</ele>
        <time>2011-04-18T09:12:37.000Z</time>
      </trkpt>
      <trkpt lat="48.70611" lon="2.04558">
        <ele>75.199996948242</ele>
        <time>2011-04-18T09:12:43.000Z</time>
      </trkpt>
      <trkpt lat="48.7061" lon="2.04564">
        <ele>74.199996948242</ele>
        <time>2011-04-18T09:12:47.000Z</time>
      </trkpt>
      <trkpt lat="48.70606" lon="2.04571">
        <ele>73.599998474121</ele>
        <time>2011-04-18T09:12:53.000Z</time>
      </trkpt>
      <trkpt lat="48.70605" lon="2.04571">
        <ele>74.199996948242</ele>
        <time>2011-04-18T09:12:57.000Z</time>
      </trkpt>
      <trkpt lat="48.70579" lon="2.04615">
        <ele>75.599998474121</ele>
        <time>2011-04-18T09:14:52.000Z</time>
      </trkpt>
      <trkpt lat="48.70575" lon="2.04627">
        <ele>75.199996948242</ele>
        <time>2011-04-18T09:14:59.000Z</time>
      </trkpt>
      <trkpt lat="48.70569" lon="2.04639">
        <ele>74.599998474121</ele>
        <time>2011-04-18T09:15:07.000Z</time>
      </trkpt>
      <trkpt lat="48.70562" lon="2.04655">
        <ele>74.199996948242</ele>
        <time>2011-04-18T09:15:17.000Z</time>
      </trkpt>
      <trkpt lat="48.70556" lon="2.04666">
        <ele>73.599998474121</ele>
        <time>2011-04-18T09:15:26.000Z</time>
      </trkpt>
      <trkpt lat="48.70548" lon="2.04677">
        <ele>72.199996948242</ele>
        <time>2011-04-18T09:15:35.000Z</time>
      </trkpt>
      <trkpt lat="48.70538" lon="2.04685">
        <ele>71.800003051758</ele>
        <time>2011-04-18T09:15:44.000Z</time>
      </trkpt>
      <trkpt lat="48.70526" lon="2.04692">
        <ele>72.800003051758</ele>
        <time>2011-04-18T09:15:50.000Z</time>
      </trkpt>
      <trkpt lat="48.70518" lon="2.04697">
        <ele>73.599998474121</ele>
        <time>2011-04-18T09:15:56.000Z</time>
      </trkpt>
      <trkpt lat="48.70506" lon="2.04706">
        <ele>74.599998474121</ele>
        <time>2011-04-18T09:16:06.000Z</time>
      </trkpt>
      <trkpt lat="48.70496" lon="2.04716">
        <ele>75.199996948242</ele>
        <time>2011-04-18T09:16:16.000Z</time>
      </trkpt>
      <trkpt lat="48.70485" lon="2.04727">
        <ele>76</ele>
        <time>2011-04-18T09:16:26.000Z</time>
      </trkpt>
      <trkpt lat="48.70479" lon="2.04735">
        <ele>76.599998474121</ele>
        <time>2011-04-18T09:16:32.000Z</time>
      </trkpt>
      <trkpt lat="48.70471" lon="2.04744">
        <ele>77.599998474121</ele>
        <time>2011-04-18T09:16:41.000Z</time>
      </trkpt>
      <trkpt lat="48.70461" lon="2.04754">
        <ele>78</ele>
        <time>2011-04-18T09:16:50.000Z</time>
      </trkpt>
      <trkpt lat="48.70456" lon="2.04762">
        <ele>79</ele>
        <time>2011-04-18T09:16:56.000Z</time>
      </trkpt>
      <trkpt lat="48.70447" lon="2.04767">
        <ele>78.400001525879</ele>
        <time>2011-04-18T09:17:04.000Z</time>
      </trkpt>
      <trkpt lat="48.70439" lon="2.04769">
        <ele>78.400001525879</ele>
        <time>2011-04-18T09:17:11.000Z</time>
      </trkpt>
      <trkpt lat="48.70432" lon="2.04777">
        <ele>78.400001525879</ele>
        <time>2011-04-18T09:17:18.000Z</time>
      </trkpt>
      <trkpt lat="48.70427" lon="2.04787">
        <ele>79.400001525879</ele>
        <time>2011-04-18T09:17:24.000Z</time>
      </trkpt>
      <trkpt lat="48.70425" lon="2.048">
        <ele>79</ele>
        <time>2011-04-18T09:17:31.000Z</time>
      </trkpt>
      <trkpt lat="48.70425" lon="2.04813">
        <ele>78.400001525879</ele>
        <time>2011-04-18T09:17:38.000Z</time>
      </trkpt>
      <trkpt lat="48.70422" lon="2.04827">
        <ele>78.400001525879</ele>
        <time>2011-04-18T09:17:45.000Z</time>
      </trkpt>
      <trkpt lat="48.70416" lon="2.04847">
        <ele>79</ele>
        <time>2011-04-18T09:17:56.000Z</time>
      </trkpt>
      <trkpt lat="48.70407" lon="2.04868">
        <ele>80.400001525879</ele>
        <time>2011-04-18T09:18:08.000Z</time>
      </trkpt>
      <trkpt lat="48.70399" lon="2.04881">
        <ele>80.800003051758</ele>
        <time>2011-04-18T09:18:16.000Z</time>
      </trkpt>
      <trkpt lat="48.70392" lon="2.04894">
        <ele>81.800003051758</ele>
        <time>2011-04-18T09:18:24.000Z</time>
      </trkpt>
      <trkpt lat="48.70391" lon="2.04899">
        <ele>81.800003051758</ele>
        <time>2011-04-18T09:18:27.000Z</time>
      </trkpt>
      <trkpt lat="48.7039" lon="2.04901">
        <ele>81.800003051758</ele>
        <time>2011-04-18T09:18:30.000Z</time>
      </trkpt>
      <trkpt lat="48.70386" lon="2.04908">
        <ele>82.800003051758</ele>
        <time>2011-04-18T09:18:54.000Z</time>
      </trkpt>
      <trkpt lat="48.70381" lon="2.04922">
        <ele>83.199996948242</ele>
        <time>2011-04-18T09:19:01.000Z</time>
      </trkpt>
      <trkpt lat="48.70372" lon="2.04944">
        <ele>83.800003051758</ele>
        <time>2011-04-18T09:19:14.000Z</time>
      </trkpt>
      <trkpt lat="48.70367" lon="2.04956">
        <ele>83.800003051758</ele>
        <time>2011-04-18T09:19:21.000Z</time>
      </trkpt>
      <trkpt lat="48.70362" lon="2.04973">
        <ele>84.199996948242</ele>
        <time>2011-04-18T09:19:31.000Z</time>
      </trkpt>
      <trkpt lat="48.7036" lon="2.04981">
        <ele>84.800003051758</ele>
        <time>2011-04-18T09:19:37.000Z</time>
      </trkpt>
      <trkpt lat="48.70356" lon="2.04995">
        <ele>84.800003051758</ele>
        <time>2011-04-18T09:19:45.000Z</time>
      </trkpt>
      <trkpt lat="48.70351" lon="2.05012">
        <ele>85.199996948242</ele>
        <time>2011-04-18T09:19:54.000Z</time>
      </trkpt>
      <trkpt lat="48.70345" lon="2.05032">
        <ele>85.599998474121</ele>
        <time>2011-04-18T09:20:06.000Z</time>
      </trkpt>
      <trkpt lat="48.7034" lon="2.05043">
        <ele>85.599998474121</ele>
        <time>2011-04-18T09:20:13.000Z</time>
      </trkpt>
      <trkpt lat="48.70337" lon="2.05051">
        <ele>85.599998474121</ele>
        <time>2011-04-18T09:20:19.000Z</time>
      </trkpt>
      <trkpt lat="48.70331" lon="2.05064">
        <ele>86.199996948242</ele>
        <time>2011-04-18T09:20:28.000Z</time>
      </trkpt>
      <trkpt lat="48.70325" lon="2.05076">
        <ele>86.199996948242</ele>
        <time>2011-04-18T09:20:36.000Z</time>
      </trkpt>
      <trkpt lat="48.7032" lon="2.05087">
        <ele>85.599998474121</ele>
        <time>2011-04-18T09:20:43.000Z</time>
      </trkpt>
      <trkpt lat="48.70316" lon="2.05096">
        <ele>85.599998474121</ele>
        <time>2011-04-18T09:20:49.000Z</time>
      </trkpt>
      <trkpt lat="48.70311" lon="2.0511">
        <ele>85.599998474121</ele>
        <time>2011-04-18T09:20:57.000Z</time>
      </trkpt>
      <trkpt lat="48.70308" lon="2.05121">
        <ele>85.599998474121</ele>
        <time>2011-04-18T09:21:04.000Z</time>
      </trkpt>
      <trkpt lat="48.70306" lon="2.05136">
        <ele>86.599998474121</ele>
        <time>2011-04-18T09:21:12.000Z</time>
      </trkpt>
      <trkpt lat="48.703" lon="2.0515">
        <ele>87.199996948242</ele>
        <time>2011-04-18T09:21:20.000Z</time>
      </trkpt>
      <trkpt lat="48.70298" lon="2.05159">
        <ele>87.599998474121</ele>
        <time>2011-04-18T09:21:25.000Z</time>
      </trkpt>
      <trkpt lat="48.70293" lon="2.05171">
        <ele>87.199996948242</ele>
        <time>2011-04-18T09:21:33.000Z</time>
      </trkpt>
      <trkpt lat="48.7029" lon="2.05182">
        <ele>86.199996948242</ele>
        <time>2011-04-18T09:21:40.000Z</time>
      </trkpt>
      <trkpt lat="48.70284" lon="2.05192">
        <ele>86.199996948242</ele>
        <time>2011-04-18T09:21:46.000Z</time>
      </trkpt>
      <trkpt lat="48.70277" lon="2.05202">
        <ele>85.199996948242</ele>
        <time>2011-04-18T09:21:53.000Z</time>
      </trkpt>
      <trkpt lat="48.7027" lon="2.05213">
        <ele>84.800003051758</ele>
        <time>2011-04-18T09:22:01.000Z</time>
      </trkpt>
      <trkpt lat="48.70262" lon="2.05225">
        <ele>85.599998474121</ele>
        <time>2011-04-18T09:22:10.000Z</time>
      </trkpt>
      <trkpt lat="48.70256" lon="2.05234">
        <ele>84.800003051758</ele>
        <time>2011-04-18T09:22:17.000Z</time>
      </trkpt>
      <trkpt lat="48.70252" lon="2.05244">
        <ele>84.800003051758</ele>
        <time>2011-04-18T09:22:23.000Z</time>
      </trkpt>
      <trkpt lat="48.70247" lon="2.05258">
        <ele>85.199996948242</ele>
        <time>2011-04-18T09:22:31.000Z</time>
      </trkpt>
      <trkpt lat="48.7024" lon="2.05274">
        <ele>84.199996948242</ele>
        <time>2011-04-18T09:22:41.000Z</time>
      </trkpt>
      <trkpt lat="48.70234" lon="2.05287">
        <ele>83.800003051758</ele>
        <time>2011-04-18T09:22:49.000Z</time>
      </trkpt>
      <trkpt lat="48.70225" lon="2.05299">
        <ele>83.800003051758</ele>
        <time>2011-04-18T09:22:58.000Z</time>
      </trkpt>
      <trkpt lat="48.70219" lon="2.05301">
        <ele>83.800003051758</ele>
        <time>2011-04-18T09:23:04.000Z</time>
      </trkpt>
      <trkpt lat="48.70212" lon="2.05305">
        <ele>82.800003051758</ele>
        <time>2011-04-18T09:23:11.000Z</time>
      </trkpt>
      <trkpt lat="48.7021" lon="2.05307">
        <ele>82.800003051758</ele>
        <time>2011-04-18T09:23:13.000Z</time>
      </trkpt>
      <trkpt lat="48.70208" lon="2.05316">
        <ele>82.800003051758</ele>
        <time>2011-04-18T09:23:17.000Z</time>
      </trkpt>
      <trkpt lat="48.70205" lon="2.05336">
        <ele>82.800003051758</ele>
        <time>2011-04-18T09:23:26.000Z</time>
      </trkpt>
      <trkpt lat="48.70204" lon="2.05355">
        <ele>82.800003051758</ele>
        <time>2011-04-18T09:23:35.000Z</time>
      </trkpt>
      <trkpt lat="48.70204" lon="2.05369">
        <ele>82.800003051758</ele>
        <time>2011-04-18T09:23:42.000Z</time>
      </trkpt>
      <trkpt lat="48.70205" lon="2.05389">
        <ele>82.400001525879</ele>
        <time>2011-04-18T09:23:51.000Z</time>
      </trkpt>
      <trkpt lat="48.70206" lon="2.05407">
        <ele>82.400001525879</ele>
        <time>2011-04-18T09:24:00.000Z</time>
      </trkpt>
      <trkpt lat="48.70208" lon="2.05426">
        <ele>81.800003051758</ele>
        <time>2011-04-18T09:24:09.000Z</time>
      </trkpt>
      <trkpt lat="48.70211" lon="2.05441">
        <ele>81.400001525879</ele>
        <time>2011-04-18T09:24:16.000Z</time>
      </trkpt>
      <trkpt lat="48.70212" lon="2.05462">
        <ele>80.800003051758</ele>
        <time>2011-04-18T09:24:26.000Z</time>
      </trkpt>
      <trkpt lat="48.70213" lon="2.05476">
        <ele>80.800003051758</ele>
        <time>2011-04-18T09:24:33.000Z</time>
      </trkpt>
      <trkpt lat="48.70215" lon="2.05497">
        <ele>80.400001525879</ele>
        <time>2011-04-18T09:24:43.000Z</time>
      </trkpt>
      <trkpt lat="48.70218" lon="2.05519">
        <ele>80</ele>
        <time>2011-04-18T09:24:53.000Z</time>
      </trkpt>
      <trkpt lat="48.70223" lon="2.05533">
        <ele>79.400001525879</ele>
        <time>2011-04-18T09:25:00.000Z</time>
      </trkpt>
      <trkpt lat="48.70226" lon="2.05543">
        <ele>79</ele>
        <time>2011-04-18T09:25:05.000Z</time>
      </trkpt>
      <trkpt lat="48.70229" lon="2.05559">
        <ele>79</ele>
        <time>2011-04-18T09:25:12.000Z</time>
      </trkpt>
      <trkpt lat="48.70232" lon="2.05574">
        <ele>79</ele>
        <time>2011-04-18T09:25:19.000Z</time>
      </trkpt>
      <trkpt lat="48.70234" lon="2.05589">
        <ele>80</ele>
        <time>2011-04-18T09:25:26.000Z</time>
      </trkpt>
      <trkpt lat="48.70237" lon="2.05611">
        <ele>80</ele>
        <time>2011-04-18T09:25:36.000Z</time>
      </trkpt>
      <trkpt lat="48.70238" lon="2.05628">
        <ele>80</ele>
        <time>2011-04-18T09:25:44.000Z</time>
      </trkpt>
      <trkpt lat="48.70242" lon="2.05647">
        <ele>80</ele>
        <time>2011-04-18T09:25:54.000Z</time>
      </trkpt>
      <trkpt lat="48.70246" lon="2.05662">
        <ele>79.400001525879</ele>
        <time>2011-04-18T09:26:02.000Z</time>
      </trkpt>
      <trkpt lat="48.7025" lon="2.05667">
        <ele>80</ele>
        <time>2011-04-18T09:26:08.000Z</time>
      </trkpt>
      <trkpt lat="48.7025" lon="2.05678">
        <ele>80.400001525879</ele>
        <time>2011-04-18T09:26:22.000Z</time>
      </trkpt>
      <trkpt lat="48.70251" lon="2.05684">
        <ele>80</ele>
        <time>2011-04-18T09:26:24.000Z</time>
      </trkpt>
      <trkpt lat="48.70254" lon="2.05703">
        <ele>80.400001525879</ele>
        <time>2011-04-18T09:26:33.000Z</time>
      </trkpt>
      <trkpt lat="48.70257" lon="2.05722">
        <ele>80.400001525879</ele>
        <time>2011-04-18T09:26:43.000Z</time>
      </trkpt>
      <trkpt lat="48.70262" lon="2.05745">
        <ele>80.400001525879</ele>
        <time>2011-04-18T09:26:55.000Z</time>
      </trkpt>
      <trkpt lat="48.70263" lon="2.05765">
        <ele>80</ele>
        <time>2011-04-18T09:27:05.000Z</time>
      </trkpt>
      <trkpt lat="48.70264" lon="2.05779">
        <ele>79.400001525879</ele>
        <time>2011-04-18T09:27:12.000Z</time>
      </trkpt>
      <trkpt lat="48.70266" lon="2.05793">
        <ele>79.400001525879</ele>
        <time>2011-04-18T09:27:19.000Z</time>
      </trkpt>
      <trkpt lat="48.70265" lon="2.05807">
        <ele>79.400001525879</ele>
        <time>2011-04-18T09:27:26.000Z</time>
      </trkpt>
      <trkpt lat="48.70265" lon="2.05824">
        <ele>80</ele>
        <time>2011-04-18T09:27:34.000Z</time>
      </trkpt>
      <trkpt lat="48.70265" lon="2.0585">
        <ele>80.400001525879</ele>
        <time>2011-04-18T09:27:46.000Z</time>
      </trkpt>
      <trkpt lat="48.70264" lon="2.0587">
        <ele>80.400001525879</ele>
        <time>2011-04-18T09:27:56.000Z</time>
      </trkpt>
      <trkpt lat="48.70264" lon="2.05894">
        <ele>80.800003051758</ele>
        <time>2011-04-18T09:28:08.000Z</time>
      </trkpt>
      <trkpt lat="48.70263" lon="2.05917">
        <ele>81.400001525879</ele>
        <time>2011-04-18T09:28:19.000Z</time>
      </trkpt>
      <trkpt lat="48.70262" lon="2.05933">
        <ele>81.400001525879</ele>
        <time>2011-04-18T09:28:27.000Z</time>
      </trkpt>
      <trkpt lat="48.70262" lon="2.05949">
        <ele>81.400001525879</ele>
        <time>2011-04-18T09:28:35.000Z</time>
      </trkpt>
      <trkpt lat="48.70261" lon="2.05961">
        <ele>81.400001525879</ele>
        <time>2011-04-18T09:28:41.000Z</time>
      </trkpt>
      <trkpt lat="48.70261" lon="2.05983">
        <ele>81.400001525879</ele>
        <time>2011-04-18T09:28:51.000Z</time>
      </trkpt>
      <trkpt lat="48.7026" lon="2.06002">
        <ele>81.400001525879</ele>
        <time>2011-04-18T09:29:00.000Z</time>
      </trkpt>
      <trkpt lat="48.70261" lon="2.06005">
        <ele>81.400001525879</ele>
        <time>2011-04-18T09:29:04.000Z</time>
      </trkpt>
      <trkpt lat="48.7026" lon="2.06022">
        <ele>80.800003051758</ele>
        <time>2011-04-18T09:30:02.000Z</time>
      </trkpt>
      <trkpt lat="48.7026" lon="2.06033">
        <ele>80.800003051758</ele>
        <time>2011-04-18T09:30:07.000Z</time>
      </trkpt>
      <trkpt lat="48.7026" lon="2.06051">
        <ele>81.400001525879</ele>
        <time>2011-04-18T09:30:16.000Z</time>
      </trkpt>
      <trkpt lat="48.70259" lon="2.06063">
        <ele>81.400001525879</ele>
        <time>2011-04-18T09:30:22.000Z</time>
      </trkpt>
      <trkpt lat="48.70258" lon="2.06077">
        <ele>81.400001525879</ele>
        <time>2011-04-18T09:30:29.000Z</time>
      </trkpt>
      <trkpt lat="48.70256" lon="2.06097">
        <ele>81.400001525879</ele>
        <time>2011-04-18T09:30:39.000Z</time>
      </trkpt>
      <trkpt lat="48.70256" lon="2.06114">
        <ele>80.800003051758</ele>
        <time>2011-04-18T09:30:47.000Z</time>
      </trkpt>
      <trkpt lat="48.70255" lon="2.06137">
        <ele>80.400001525879</ele>
        <time>2011-04-18T09:30:57.000Z</time>
      </trkpt>
      <trkpt lat="48.70255" lon="2.06158">
        <ele>80</ele>
        <time>2011-04-18T09:31:07.000Z</time>
      </trkpt>
      <trkpt lat="48.70254" lon="2.06175">
        <ele>80</ele>
        <time>2011-04-18T09:31:15.000Z</time>
      </trkpt>
      <trkpt lat="48.70253" lon="2.06195">
        <ele>79.400001525879</ele>
        <time>2011-04-18T09:31:25.000Z</time>
      </trkpt>
      <trkpt lat="48.70248" lon="2.06223">
        <ele>80</ele>
        <time>2011-04-18T09:31:39.000Z</time>
      </trkpt>
      <trkpt lat="48.70246" lon="2.06226">
        <ele>80</ele>
        <time>2011-04-18T09:31:41.000Z</time>
      </trkpt>
      <trkpt lat="48.70244" lon="2.06237">
        <ele>80</ele>
        <time>2011-04-18T09:31:47.000Z</time>
      </trkpt>
      <trkpt lat="48.70242" lon="2.06245">
        <ele>80</ele>
        <time>2011-04-18T09:31:52.000Z</time>
      </trkpt>
      <trkpt lat="48.70242" lon="2.06247">
        <ele>80</ele>
        <time>2011-04-18T09:31:55.000Z</time>
      </trkpt>
      <trkpt lat="48.70239" lon="2.06258">
        <ele>80</ele>
        <time>2011-04-18T09:32:11.000Z</time>
      </trkpt>
      <trkpt lat="48.70237" lon="2.06264">
        <ele>80.400001525879</ele>
        <time>2011-04-18T09:32:16.000Z</time>
      </trkpt>
      <trkpt lat="48.70232" lon="2.06279">
        <ele>80.800003051758</ele>
        <time>2011-04-18T09:32:58.000Z</time>
      </trkpt>
      <trkpt lat="48.7023" lon="2.06297">
        <ele>80.400001525879</ele>
        <time>2011-04-18T09:33:06.000Z</time>
      </trkpt>
      <trkpt lat="48.70228" lon="2.06318">
        <ele>80.400001525879</ele>
        <time>2011-04-18T09:33:16.000Z</time>
      </trkpt>
      <trkpt lat="48.70227" lon="2.0633">
        <ele>80</ele>
        <time>2011-04-18T09:33:23.000Z</time>
      </trkpt>
      <trkpt lat="48.70227" lon="2.06338">
        <ele>79</ele>
        <time>2011-04-18T09:33:27.000Z</time>
      </trkpt>
      <trkpt lat="48.70226" lon="2.06353">
        <ele>79</ele>
        <time>2011-04-18T09:33:34.000Z</time>
      </trkpt>
      <trkpt lat="48.70226" lon="2.06371">
        <ele>78.400001525879</ele>
        <time>2011-04-18T09:33:43.000Z</time>
      </trkpt>
      <trkpt lat="48.70226" lon="2.06388">
        <ele>78.400001525879</ele>
        <time>2011-04-18T09:33:51.000Z</time>
      </trkpt>
      <trkpt lat="48.70225" lon="2.06401">
        <ele>78.400001525879</ele>
        <time>2011-04-18T09:33:58.000Z</time>
      </trkpt>
      <trkpt lat="48.70225" lon="2.06412">
        <ele>78</ele>
        <time>2011-04-18T09:34:04.000Z</time>
      </trkpt>
      <trkpt lat="48.70225" lon="2.06414">
        <ele>78.400001525879</ele>
        <time>2011-04-18T09:34:07.000Z</time>
      </trkpt>
      <trkpt lat="48.70225" lon="2.06424">
        <ele>77.599998474121</ele>
        <time>2011-04-18T09:34:15.000Z</time>
      </trkpt>
      <trkpt lat="48.70225" lon="2.06434">
        <ele>77</ele>
        <time>2011-04-18T09:34:19.000Z</time>
      </trkpt>
      <trkpt lat="48.70225" lon="2.06447">
        <ele>76.599998474121</ele>
        <time>2011-04-18T09:34:26.000Z</time>
      </trkpt>
      <trkpt lat="48.70223" lon="2.06461">
        <ele>76.599998474121</ele>
        <time>2011-04-18T09:34:33.000Z</time>
      </trkpt>
      <trkpt lat="48.70222" lon="2.0648">
        <ele>76.599998474121</ele>
        <time>2011-04-18T09:34:42.000Z</time>
      </trkpt>
      <trkpt lat="48.70221" lon="2.06495">
        <ele>76</ele>
        <time>2011-04-18T09:34:49.000Z</time>
      </trkpt>
      <trkpt lat="48.70221" lon="2.06513">
        <ele>75.599998474121</ele>
        <time>2011-04-18T09:34:58.000Z</time>
      </trkpt>
      <trkpt lat="48.7022" lon="2.06526">
        <ele>75.599998474121</ele>
        <time>2011-04-18T09:35:04.000Z</time>
      </trkpt>
      <trkpt lat="48.70221" lon="2.06539">
        <ele>75.599998474121</ele>
        <time>2011-04-18T09:35:10.000Z</time>
      </trkpt>
      <trkpt lat="48.70224" lon="2.06555">
        <ele>76.599998474121</ele>
        <time>2011-04-18T09:35:17.000Z</time>
      </trkpt>
      <trkpt lat="48.70227" lon="2.06574">
        <ele>76.599998474121</ele>
        <time>2011-04-18T09:35:26.000Z</time>
      </trkpt>
      <trkpt lat="48.7023" lon="2.06589">
        <ele>76.599998474121</ele>
        <time>2011-04-18T09:35:33.000Z</time>
      </trkpt>
      <trkpt lat="48.70233" lon="2.06608">
        <ele>76.599998474121</ele>
        <time>2011-04-18T09:35:42.000Z</time>
      </trkpt>
      <trkpt lat="48.70238" lon="2.06632">
        <ele>77</ele>
        <time>2011-04-18T09:35:54.000Z</time>
      </trkpt>
      <trkpt lat="48.70243" lon="2.06654">
        <ele>77.599998474121</ele>
        <time>2011-04-18T09:36:05.000Z</time>
      </trkpt>
      <trkpt lat="48.70248" lon="2.06679">
        <ele>77.599998474121</ele>
        <time>2011-04-18T09:36:17.000Z</time>
      </trkpt>
      <trkpt lat="48.70253" lon="2.06703">
        <ele>77</ele>
        <time>2011-04-18T09:36:29.000Z</time>
      </trkpt>
      <trkpt lat="48.70255" lon="2.06714">
        <ele>77.599998474121</ele>
        <time>2011-04-18T09:36:36.000Z</time>
      </trkpt>
      <trkpt lat="48.70255" lon="2.06714">
        <ele>77.599998474121</ele>
        <time>2011-04-18T09:36:38.000Z</time>
      </trkpt>
      <trkpt lat="48.70253" lon="2.06707">
        <ele>77.599998474121</ele>
        <time>2011-04-18T09:37:14.000Z</time>
      </trkpt>
      <trkpt lat="48.70248" lon="2.0669">
        <ele>78</ele>
        <time>2011-04-18T09:37:21.000Z</time>
      </trkpt>
      <trkpt lat="48.70245" lon="2.0667">
        <ele>79</ele>
        <time>2011-04-18T09:37:30.000Z</time>
      </trkpt>
      <trkpt lat="48.70242" lon="2.0665">
        <ele>80.400001525879</ele>
        <time>2011-04-18T09:37:39.000Z</time>
      </trkpt>
      <trkpt lat="48.70237" lon="2.06634">
        <ele>81.800003051758</ele>
        <time>2011-04-18T09:37:47.000Z</time>
      </trkpt>
      <trkpt lat="48.70232" lon="2.06613">
        <ele>82.400001525879</ele>
        <time>2011-04-18T09:37:57.000Z</time>
      </trkpt>
      <trkpt lat="48.70227" lon="2.06589">
        <ele>82.400001525879</ele>
        <time>2011-04-18T09:38:08.000Z</time>
      </trkpt>
      <trkpt lat="48.70224" lon="2.06569">
        <ele>81.800003051758</ele>
        <time>2011-04-18T09:38:17.000Z</time>
      </trkpt>
      <trkpt lat="48.70224" lon="2.06551">
        <ele>82.800003051758</ele>
        <time>2011-04-18T09:38:26.000Z</time>
      </trkpt>
      <trkpt lat="48.70224" lon="2.0655">
        <ele>82.400001525879</ele>
        <time>2011-04-18T09:38:28.000Z</time>
      </trkpt>
      <trkpt lat="48.70218" lon="2.06552">
        <ele>81.800003051758</ele>
        <time>2011-04-18T09:38:38.000Z</time>
      </trkpt>
      <trkpt lat="48.70208" lon="2.06545">
        <ele>80.800003051758</ele>
        <time>2011-04-18T09:38:45.000Z</time>
      </trkpt>
      <trkpt lat="48.70204" lon="2.06538">
        <ele>80.800003051758</ele>
        <time>2011-04-18T09:38:50.000Z</time>
      </trkpt>
      <trkpt lat="48.70203" lon="2.06524">
        <ele>82.400001525879</ele>
        <time>2011-04-18T09:38:57.000Z</time>
      </trkpt>
      <trkpt lat="48.70201" lon="2.06513">
        <ele>83.199996948242</ele>
        <time>2011-04-18T09:39:03.000Z</time>
      </trkpt>
      <trkpt lat="48.70192" lon="2.06503">
        <ele>86.199996948242</ele>
        <time>2011-04-18T09:39:11.000Z</time>
      </trkpt>
      <trkpt lat="48.7019" lon="2.065">
        <ele>87.199996948242</ele>
        <time>2011-04-18T09:39:13.000Z</time>
      </trkpt>
      <trkpt lat="48.70188" lon="2.06499">
        <ele>88.599998474121</ele>
        <time>2011-04-18T09:39:17.000Z</time>
      </trkpt>
      <trkpt lat="48.70176" lon="2.06503">
        <ele>89.599998474121</ele>
        <time>2011-04-18T09:39:36.000Z</time>
      </trkpt>
      <trkpt lat="48.70175" lon="2.06506">
        <ele>89</ele>
        <time>2011-04-18T09:39:37.000Z</time>
      </trkpt>
      <trkpt lat="48.70169" lon="2.06508">
        <ele>89</ele>
        <time>2011-04-18T09:39:39.000Z</time>
      </trkpt>
      <trkpt lat="48.70167" lon="2.06511">
        <ele>88.599998474121</ele>
        <time>2011-04-18T09:39:42.000Z</time>
      </trkpt>
      <trkpt lat="48.70159" lon="2.06518">
        <ele>86.599998474121</ele>
        <time>2011-04-18T09:39:50.000Z</time>
      </trkpt>
      <trkpt lat="48.70153" lon="2.06518">
        <ele>86.599998474121</ele>
        <time>2011-04-18T09:39:55.000Z</time>
      </trkpt>
      <trkpt lat="48.70149" lon="2.06517">
        <ele>85.599998474121</ele>
        <time>2011-04-18T09:39:59.000Z</time>
      </trkpt>
      <trkpt lat="48.70143" lon="2.0652">
        <ele>86.599998474121</ele>
        <time>2011-04-18T09:40:04.000Z</time>
      </trkpt>
      <trkpt lat="48.70128" lon="2.06522">
        <ele>84.199996948242</ele>
        <time>2011-04-18T09:40:14.000Z</time>
      </trkpt>
      <trkpt lat="48.70123" lon="2.06522">
        <ele>83.199996948242</ele>
        <time>2011-04-18T09:40:18.000Z</time>
      </trkpt>
      <trkpt lat="48.70116" lon="2.06516">
        <ele>82.800003051758</ele>
        <time>2011-04-18T09:40:24.000Z</time>
      </trkpt>
      <trkpt lat="48.70115" lon="2.06514">
        <ele>82.800003051758</ele>
        <time>2011-04-18T09:40:25.000Z</time>
      </trkpt>
      <trkpt lat="48.70107" lon="2.06495">
        <ele>82.400001525879</ele>
        <time>2011-04-18T09:40:36.000Z</time>
      </trkpt>
      <trkpt lat="48.70103" lon="2.06482">
        <ele>83.199996948242</ele>
        <time>2011-04-18T09:40:43.000Z</time>
      </trkpt>
      <trkpt lat="48.70095" lon="2.06463">
        <ele>83.199996948242</ele>
        <time>2011-04-18T09:40:54.000Z</time>
      </trkpt>
      <trkpt lat="48.70087" lon="2.06446">
        <ele>83.199996948242</ele>
        <time>2011-04-18T09:41:04.000Z</time>
      </trkpt>
      <trkpt lat="48.70078" lon="2.06429">
        <ele>83.800003051758</ele>
        <time>2011-04-18T09:41:14.000Z</time>
      </trkpt>
      <trkpt lat="48.70069" lon="2.06415">
        <ele>85.199996948242</ele>
        <time>2011-04-18T09:41:23.000Z</time>
      </trkpt>
      <trkpt lat="48.70061" lon="2.06401">
        <ele>84.800003051758</ele>
        <time>2011-04-18T09:41:32.000Z</time>
      </trkpt>
      <trkpt lat="48.70053" lon="2.06385">
        <ele>84.800003051758</ele>
        <time>2011-04-18T09:41:41.000Z</time>
      </trkpt>
      <trkpt lat="48.70049" lon="2.06376">
        <ele>84.199996948242</ele>
        <time>2011-04-18T09:41:46.000Z</time>
      </trkpt>
      <trkpt lat="48.7004" lon="2.0636">
        <ele>83.800003051758</ele>
        <time>2011-04-18T09:41:56.000Z</time>
      </trkpt>
      <trkpt lat="48.70034" lon="2.06347">
        <ele>83.800003051758</ele>
        <time>2011-04-18T09:42:04.000Z</time>
      </trkpt>
      <trkpt lat="48.70026" lon="2.06338">
        <ele>84.199996948242</ele>
        <time>2011-04-18T09:42:11.000Z</time>
      </trkpt>
      <trkpt lat="48.70015" lon="2.06323">
        <ele>84.800003051758</ele>
        <time>2011-04-18T09:42:21.000Z</time>
      </trkpt>
      <trkpt lat="48.70008" lon="2.06313">
        <ele>86.199996948242</ele>
        <time>2011-04-18T09:42:28.000Z</time>
      </trkpt>
      <trkpt lat="48.69998" lon="2.063">
        <ele>87.199996948242</ele>
        <time>2011-04-18T09:42:37.000Z</time>
      </trkpt>
      <trkpt lat="48.69986" lon="2.06287">
        <ele>88.599998474121</ele>
        <time>2011-04-18T09:42:47.000Z</time>
      </trkpt>
      <trkpt lat="48.69978" lon="2.06277">
        <ele>88.599998474121</ele>
        <time>2011-04-18T09:42:54.000Z</time>
      </trkpt>
      <trkpt lat="48.69969" lon="2.06267">
        <ele>90</ele>
        <time>2011-04-18T09:43:02.000Z</time>
      </trkpt>
      <trkpt lat="48.69958" lon="2.06255">
        <ele>90.599998474121</ele>
        <time>2011-04-18T09:43:12.000Z</time>
      </trkpt>
      <trkpt lat="48.69947" lon="2.06244">
        <ele>91</ele>
        <time>2011-04-18T09:43:21.000Z</time>
      </trkpt>
      <trkpt lat="48.69935" lon="2.06232">
        <ele>92</ele>
        <time>2011-04-18T09:43:31.000Z</time>
      </trkpt>
      <trkpt lat="48.69927" lon="2.06225">
        <ele>92.400001525879</ele>
        <time>2011-04-18T09:43:38.000Z</time>
      </trkpt>
      <trkpt lat="48.69918" lon="2.06216">
        <ele>93.400001525879</ele>
        <time>2011-04-18T09:43:47.000Z</time>
      </trkpt>
      <trkpt lat="48.6991" lon="2.06206">
        <ele>94.800003051758</ele>
        <time>2011-04-18T09:43:56.000Z</time>
      </trkpt>
      <trkpt lat="48.69902" lon="2.06202">
        <ele>96.800003051758</ele>
        <time>2011-04-18T09:44:01.000Z</time>
      </trkpt>
      <trkpt lat="48.69894" lon="2.06195">
        <ele>96.199996948242</ele>
        <time>2011-04-18T09:44:07.000Z</time>
      </trkpt>
      <trkpt lat="48.69883" lon="2.06187">
        <ele>96.800003051758</ele>
        <time>2011-04-18T09:44:15.000Z</time>
      </trkpt>
      <trkpt lat="48.69873" lon="2.0618">
        <ele>97.800003051758</ele>
        <time>2011-04-18T09:44:23.000Z</time>
      </trkpt>
      <trkpt lat="48.69861" lon="2.06171">
        <ele>98.599998474121</ele>
        <time>2011-04-18T09:44:33.000Z</time>
      </trkpt>
      <trkpt lat="48.69852" lon="2.06165">
        <ele>99.199996948242</ele>
        <time>2011-04-18T09:44:40.000Z</time>
      </trkpt>
      <trkpt lat="48.69839" lon="2.06158">
        <ele>100.59999847412</ele>
        <time>2011-04-18T09:44:50.000Z</time>
      </trkpt>
      <trkpt lat="48.69827" lon="2.06152">
        <ele>99.599998474121</ele>
        <time>2011-04-18T09:44:58.000Z</time>
      </trkpt>
      <trkpt lat="48.69816" lon="2.06145">
        <ele>99.199996948242</ele>
        <time>2011-04-18T09:45:06.000Z</time>
      </trkpt>
      <trkpt lat="48.69803" lon="2.0614">
        <ele>100.19999694824</ele>
        <time>2011-04-18T09:45:15.000Z</time>
      </trkpt>
      <trkpt lat="48.6979" lon="2.06135">
        <ele>101</ele>
        <time>2011-04-18T09:45:24.000Z</time>
      </trkpt>
      <trkpt lat="48.69777" lon="2.0613">
        <ele>101.59999847412</ele>
        <time>2011-04-18T09:45:34.000Z</time>
      </trkpt>
      <trkpt lat="48.69763" lon="2.06124">
        <ele>101</ele>
        <time>2011-04-18T09:45:44.000Z</time>
      </trkpt>
      <trkpt lat="48.69751" lon="2.06115">
        <ele>102.59999847412</ele>
        <time>2011-04-18T09:45:53.000Z</time>
      </trkpt>
      <trkpt lat="48.69751" lon="2.06101">
        <ele>103</ele>
        <time>2011-04-18T09:45:59.000Z</time>
      </trkpt>
      <trkpt lat="48.69755" lon="2.06077">
        <ele>102.59999847412</ele>
        <time>2011-04-18T09:46:10.000Z</time>
      </trkpt>
      <trkpt lat="48.69759" lon="2.06057">
        <ele>102.59999847412</ele>
        <time>2011-04-18T09:46:19.000Z</time>
      </trkpt>
      <trkpt lat="48.69763" lon="2.06039">
        <ele>102.59999847412</ele>
        <time>2011-04-18T09:46:27.000Z</time>
      </trkpt>
      <trkpt lat="48.69768" lon="2.06014">
        <ele>105</ele>
        <time>2011-04-18T09:46:38.000Z</time>
      </trkpt>
      <trkpt lat="48.69771" lon="2.06001">
        <ele>106.80000305176</ele>
        <time>2011-04-18T09:46:45.000Z</time>
      </trkpt>
      <trkpt lat="48.69772" lon="2.05999">
        <ele>106.80000305176</ele>
        <time>2011-04-18T09:46:49.000Z</time>
      </trkpt>
      <trkpt lat="48.69772" lon="2.05981">
        <ele>109.19999694824</ele>
        <time>2011-04-18T09:47:06.000Z</time>
      </trkpt>
      <trkpt lat="48.69773" lon="2.05975">
        <ele>109.80000305176</ele>
        <time>2011-04-18T09:47:08.000Z</time>
      </trkpt>
      <trkpt lat="48.69775" lon="2.05964">
        <ele>108.80000305176</ele>
        <time>2011-04-18T09:47:14.000Z</time>
      </trkpt>
      <trkpt lat="48.6977" lon="2.05956">
        <ele>110.19999694824</ele>
        <time>2011-04-18T09:47:21.000Z</time>
      </trkpt>
      <trkpt lat="48.69768" lon="2.05955">
        <ele>110.59999847412</ele>
        <time>2011-04-18T09:47:22.000Z</time>
      </trkpt>
      <trkpt lat="48.69766" lon="2.05954">
        <ele>110.59999847412</ele>
        <time>2011-04-18T09:47:24.000Z</time>
      </trkpt>
      <trkpt lat="48.69762" lon="2.05952">
        <ele>111.19999694824</ele>
        <time>2011-04-18T09:47:28.000Z</time>
      </trkpt>
      <trkpt lat="48.69748" lon="2.05946">
        <ele>110.59999847412</ele>
        <time>2011-04-18T09:47:40.000Z</time>
      </trkpt>
      <trkpt lat="48.69741" lon="2.05943">
        <ele>111.19999694824</ele>
        <time>2011-04-18T09:47:46.000Z</time>
      </trkpt>
      <trkpt lat="48.69736" lon="2.05941">
        <ele>111.59999847412</ele>
        <time>2011-04-18T09:47:50.000Z</time>
      </trkpt>
      <trkpt lat="48.69729" lon="2.05938">
        <ele>112.19999694824</ele>
        <time>2011-04-18T09:47:56.000Z</time>
      </trkpt>
      <trkpt lat="48.69727" lon="2.05938">
        <ele>112.19999694824</ele>
        <time>2011-04-18T09:47:57.000Z</time>
      </trkpt>
      <trkpt lat="48.69719" lon="2.05935">
        <ele>111.59999847412</ele>
        <time>2011-04-18T09:48:03.000Z</time>
      </trkpt>
      <trkpt lat="48.6971" lon="2.05933">
        <ele>113</ele>
        <time>2011-04-18T09:48:09.000Z</time>
      </trkpt>
      <trkpt lat="48.69709" lon="2.05932">
        <ele>113.59999847412</ele>
        <time>2011-04-18T09:48:10.000Z</time>
      </trkpt>
      <trkpt lat="48.69701" lon="2.05929">
        <ele>113.59999847412</ele>
        <time>2011-04-18T09:48:15.000Z</time>
      </trkpt>
      <trkpt lat="48.69692" lon="2.05926">
        <ele>112.59999847412</ele>
        <time>2011-04-18T09:48:20.000Z</time>
      </trkpt>
      <trkpt lat="48.69686" lon="2.05922">
        <ele>111.19999694824</ele>
        <time>2011-04-18T09:48:26.000Z</time>
      </trkpt>
      <trkpt lat="48.69676" lon="2.05921">
        <ele>112.19999694824</ele>
        <time>2011-04-18T09:48:32.000Z</time>
      </trkpt>
      <trkpt lat="48.69668" lon="2.05921">
        <ele>115.40000152588</ele>
        <time>2011-04-18T09:48:38.000Z</time>
      </trkpt>
      <trkpt lat="48.69661" lon="2.05918">
        <ele>114</ele>
        <time>2011-04-18T09:48:42.000Z</time>
      </trkpt>
      <trkpt lat="48.69649" lon="2.05914">
        <ele>111.19999694824</ele>
        <time>2011-04-18T09:48:49.000Z</time>
      </trkpt>
      <trkpt lat="48.69638" lon="2.0591">
        <ele>109.80000305176</ele>
        <time>2011-04-18T09:48:55.000Z</time>
      </trkpt>
      <trkpt lat="48.69627" lon="2.05907">
        <ele>110.19999694824</ele>
        <time>2011-04-18T09:49:03.000Z</time>
      </trkpt>
      <trkpt lat="48.69618" lon="2.05905">
        <ele>110.59999847412</ele>
        <time>2011-04-18T09:49:10.000Z</time>
      </trkpt>
      <trkpt lat="48.69611" lon="2.05903">
        <ele>110.19999694824</ele>
        <time>2011-04-18T09:49:15.000Z</time>
      </trkpt>
      <trkpt lat="48.69602" lon="2.05902">
        <ele>110.19999694824</ele>
        <time>2011-04-18T09:49:20.000Z</time>
      </trkpt>
      <trkpt lat="48.69594" lon="2.05897">
        <ele>107.80000305176</ele>
        <time>2011-04-18T09:49:26.000Z</time>
      </trkpt>
      <trkpt lat="48.69592" lon="2.05896">
        <ele>107.80000305176</ele>
        <time>2011-04-18T09:49:27.000Z</time>
      </trkpt>
      <trkpt lat="48.69587" lon="2.05894">
        <ele>107.80000305176</ele>
        <time>2011-04-18T09:49:32.000Z</time>
      </trkpt>
      <trkpt lat="48.69587" lon="2.05894">
        <ele>108.19999694824</ele>
        <time>2011-04-18T09:49:34.000Z</time>
      </trkpt>
      <trkpt lat="48.69577" lon="2.05894">
        <ele>112.19999694824</ele>
        <time>2011-04-18T09:49:45.000Z</time>
      </trkpt>
      <trkpt lat="48.69575" lon="2.05893">
        <ele>112.19999694824</ele>
        <time>2011-04-18T09:49:46.000Z</time>
      </trkpt>
      <trkpt lat="48.69567" lon="2.05894">
        <ele>113</ele>
        <time>2011-04-18T09:49:52.000Z</time>
      </trkpt>
      <trkpt lat="48.69557" lon="2.05893">
        <ele>113</ele>
        <time>2011-04-18T09:49:58.000Z</time>
      </trkpt>
      <trkpt lat="48.69542" lon="2.05891">
        <ele>107.80000305176</ele>
        <time>2011-04-18T09:50:07.000Z</time>
      </trkpt>
      <trkpt lat="48.69533" lon="2.05893">
        <ele>109.80000305176</ele>
        <time>2011-04-18T09:50:13.000Z</time>
      </trkpt>
      <trkpt lat="48.69526" lon="2.05892">
        <ele>109.19999694824</ele>
        <time>2011-04-18T09:50:19.000Z</time>
      </trkpt>
      <trkpt lat="48.69517" lon="2.05893">
        <ele>110.59999847412</ele>
        <time>2011-04-18T09:50:25.000Z</time>
      </trkpt>
      <trkpt lat="48.69508" lon="2.05895">
        <ele>110.19999694824</ele>
        <time>2011-04-18T09:50:31.000Z</time>
      </trkpt>
      <trkpt lat="48.69505" lon="2.05897">
        <ele>112.19999694824</ele>
        <time>2011-04-18T09:50:37.000Z</time>
      </trkpt>
      <trkpt lat="48.69502" lon="2.05908">
        <ele>111.19999694824</ele>
        <time>2011-04-18T09:50:52.000Z</time>
      </trkpt>
      <trkpt lat="48.69496" lon="2.05916">
        <ele>111.19999694824</ele>
        <time>2011-04-18T09:50:57.000Z</time>
      </trkpt>
      <trkpt lat="48.6949" lon="2.05917">
        <ele>111.19999694824</ele>
        <time>2011-04-18T09:51:01.000Z</time>
      </trkpt>
      <trkpt lat="48.6948" lon="2.05922">
        <ele>113</ele>
        <time>2011-04-18T09:51:08.000Z</time>
      </trkpt>
      <trkpt lat="48.69472" lon="2.05924">
        <ele>113.59999847412</ele>
        <time>2011-04-18T09:51:14.000Z</time>
      </trkpt>
      <trkpt lat="48.69465" lon="2.05927">
        <ele>113.59999847412</ele>
        <time>2011-04-18T09:51:19.000Z</time>
      </trkpt>
      <trkpt lat="48.69455" lon="2.0593">
        <ele>112.59999847412</ele>
        <time>2011-04-18T09:51:26.000Z</time>
      </trkpt>
      <trkpt lat="48.69444" lon="2.05933">
        <ele>113</ele>
        <time>2011-04-18T09:51:34.000Z</time>
      </trkpt>
      <trkpt lat="48.69439" lon="2.05935">
        <ele>113</ele>
        <time>2011-04-18T09:51:37.000Z</time>
      </trkpt>
      <trkpt lat="48.69428" lon="2.05939">
        <ele>112.19999694824</ele>
        <time>2011-04-18T09:51:45.000Z</time>
      </trkpt>
      <trkpt lat="48.69419" lon="2.05945">
        <ele>112.59999847412</ele>
        <time>2011-04-18T09:51:53.000Z</time>
      </trkpt>
      <trkpt lat="48.69412" lon="2.05952">
        <ele>113</ele>
        <time>2011-04-18T09:52:00.000Z</time>
      </trkpt>
      <trkpt lat="48.69404" lon="2.05956">
        <ele>113</ele>
        <time>2011-04-18T09:52:06.000Z</time>
      </trkpt>
      <trkpt lat="48.694" lon="2.0596">
        <ele>114</ele>
        <time>2011-04-18T09:52:11.000Z</time>
      </trkpt>
      <trkpt lat="48.69393" lon="2.05967">
        <ele>116</ele>
        <time>2011-04-18T09:52:18.000Z</time>
      </trkpt>
      <trkpt lat="48.69383" lon="2.05973">
        <ele>119.40000152588</ele>
        <time>2011-04-18T09:52:25.000Z</time>
      </trkpt>
      <trkpt lat="48.69373" lon="2.0598">
        <ele>122.80000305176</ele>
        <time>2011-04-18T09:52:31.000Z</time>
      </trkpt>
      <trkpt lat="48.69366" lon="2.05984">
        <ele>124.19999694824</ele>
        <time>2011-04-18T09:52:36.000Z</time>
      </trkpt>
      <trkpt lat="48.69358" lon="2.05988">
        <ele>122.19999694824</ele>
        <time>2011-04-18T09:52:41.000Z</time>
      </trkpt>
      <trkpt lat="48.6935" lon="2.05992">
        <ele>123.19999694824</ele>
        <time>2011-04-18T09:52:48.000Z</time>
      </trkpt>
      <trkpt lat="48.69342" lon="2.05997">
        <ele>123.59999847412</ele>
        <time>2011-04-18T09:52:55.000Z</time>
      </trkpt>
      <trkpt lat="48.69337" lon="2.05999">
        <ele>125.19999694824</ele>
        <time>2011-04-18T09:52:58.000Z</time>
      </trkpt>
      <trkpt lat="48.69326" lon="2.06005">
        <ele>124.59999847412</ele>
        <time>2011-04-18T09:53:05.000Z</time>
      </trkpt>
      <trkpt lat="48.69319" lon="2.06009">
        <ele>124.19999694824</ele>
        <time>2011-04-18T09:53:10.000Z</time>
      </trkpt>
      <trkpt lat="48.69316" lon="2.0601">
        <ele>122.80000305176</ele>
        <time>2011-04-18T09:53:14.000Z</time>
      </trkpt>
      <trkpt lat="48.6931" lon="2.06013">
        <ele>124.19999694824</ele>
        <time>2011-04-18T09:53:19.000Z</time>
      </trkpt>
      <trkpt lat="48.69307" lon="2.06015">
        <ele>125.59999847412</ele>
        <time>2011-04-18T09:53:21.000Z</time>
      </trkpt>
      <trkpt lat="48.69299" lon="2.0602">
        <ele>129.39999389648</ele>
        <time>2011-04-18T09:53:28.000Z</time>
      </trkpt>
      <trkpt lat="48.69289" lon="2.06027">
        <ele>130.80000305176</ele>
        <time>2011-04-18T09:53:35.000Z</time>
      </trkpt>
      <trkpt lat="48.69277" lon="2.06031">
        <ele>127.59999847412</ele>
        <time>2011-04-18T09:53:42.000Z</time>
      </trkpt>
      <trkpt lat="48.69271" lon="2.06036">
        <ele>129</ele>
        <time>2011-04-18T09:53:48.000Z</time>
      </trkpt>
      <trkpt lat="48.6926" lon="2.06042">
        <ele>128</ele>
        <time>2011-04-18T09:53:55.000Z</time>
      </trkpt>
      <trkpt lat="48.69254" lon="2.06045">
        <ele>127</ele>
        <time>2011-04-18T09:53:59.000Z</time>
      </trkpt>
      <trkpt lat="48.69252" lon="2.06044">
        <ele>125.19999694824</ele>
        <time>2011-04-18T09:54:01.000Z</time>
      </trkpt>
      <trkpt lat="48.69247" lon="2.06049">
        <ele>127.59999847412</ele>
        <time>2011-04-18T09:54:05.000Z</time>
      </trkpt>
      <trkpt lat="48.69242" lon="2.06054">
        <ele>128.39999389648</ele>
        <time>2011-04-18T09:54:09.000Z</time>
      </trkpt>
      <trkpt lat="48.69238" lon="2.06057">
        <ele>130.39999389648</ele>
        <time>2011-04-18T09:54:12.000Z</time>
      </trkpt>
      <trkpt lat="48.69231" lon="2.06059">
        <ele>129</ele>
        <time>2011-04-18T09:54:18.000Z</time>
      </trkpt>
      <trkpt lat="48.69227" lon="2.06062">
        <ele>128</ele>
        <time>2011-04-18T09:54:21.000Z</time>
      </trkpt>
      <trkpt lat="48.6922" lon="2.06065">
        <ele>125.19999694824</ele>
        <time>2011-04-18T09:54:26.000Z</time>
      </trkpt>
      <trkpt lat="48.69211" lon="2.06068">
        <ele>124.59999847412</ele>
        <time>2011-04-18T09:54:30.000Z</time>
      </trkpt>
      <trkpt lat="48.69206" lon="2.06072">
        <ele>127</ele>
        <time>2011-04-18T09:54:34.000Z</time>
      </trkpt>
      <trkpt lat="48.69196" lon="2.06081">
        <ele>131.39999389648</ele>
        <time>2011-04-18T09:54:41.000Z</time>
      </trkpt>
      <trkpt lat="48.69195" lon="2.06081">
        <ele>131.39999389648</ele>
        <time>2011-04-18T09:54:42.000Z</time>
      </trkpt>
      <trkpt lat="48.6919" lon="2.06081">
        <ele>130</ele>
        <time>2011-04-18T09:54:46.000Z</time>
      </trkpt>
      <trkpt lat="48.69177" lon="2.06087">
        <ele>125.19999694824</ele>
        <time>2011-04-18T09:54:54.000Z</time>
      </trkpt>
      <trkpt lat="48.69175" lon="2.06088">
        <ele>125.19999694824</ele>
        <time>2011-04-18T09:54:55.000Z</time>
      </trkpt>
      <trkpt lat="48.69167" lon="2.06091">
        <ele>129</ele>
        <time>2011-04-18T09:55:01.000Z</time>
      </trkpt>
      <trkpt lat="48.6916" lon="2.06095">
        <ele>130.39999389648</ele>
        <time>2011-04-18T09:55:06.000Z</time>
      </trkpt>
      <trkpt lat="48.69151" lon="2.06096">
        <ele>129.39999389648</ele>
        <time>2011-04-18T09:55:13.000Z</time>
      </trkpt>
      <trkpt lat="48.69145" lon="2.06099">
        <ele>130.39999389648</ele>
        <time>2011-04-18T09:55:17.000Z</time>
      </trkpt>
      <trkpt lat="48.69137" lon="2.06101">
        <ele>131.39999389648</ele>
        <time>2011-04-18T09:55:22.000Z</time>
      </trkpt>
      <trkpt lat="48.69135" lon="2.061">
        <ele>130</ele>
        <time>2011-04-18T09:55:26.000Z</time>
      </trkpt>
      <trkpt lat="48.69129" lon="2.06104">
        <ele>130.39999389648</ele>
        <time>2011-04-18T09:55:32.000Z</time>
      </trkpt>
      <trkpt lat="48.69123" lon="2.06104">
        <ele>128.39999389648</ele>
        <time>2011-04-18T09:55:38.000Z</time>
      </trkpt>
      <trkpt lat="48.69118" lon="2.06104">
        <ele>128.39999389648</ele>
        <time>2011-04-18T09:55:43.000Z</time>
      </trkpt>
      <trkpt lat="48.69108" lon="2.06104">
        <ele>126.59999847412</ele>
        <time>2011-04-18T09:55:48.000Z</time>
      </trkpt>
      <trkpt lat="48.69096" lon="2.06105">
        <ele>124.59999847412</ele>
        <time>2011-04-18T09:55:55.000Z</time>
      </trkpt>
      <trkpt lat="48.69086" lon="2.06105">
        <ele>121.80000305176</ele>
        <time>2011-04-18T09:56:02.000Z</time>
      </trkpt>
      <trkpt lat="48.69076" lon="2.06103">
        <ele>116</ele>
        <time>2011-04-18T09:56:10.000Z</time>
      </trkpt>
      <trkpt lat="48.69062" lon="2.06105">
        <ele>118.80000305176</ele>
        <time>2011-04-18T09:56:18.000Z</time>
      </trkpt>
      <trkpt lat="48.69052" lon="2.06105">
        <ele>119.40000152588</ele>
        <time>2011-04-18T09:56:26.000Z</time>
      </trkpt>
      <trkpt lat="48.69041" lon="2.06105">
        <ele>118.40000152588</ele>
        <time>2011-04-18T09:56:34.000Z</time>
      </trkpt>
      <trkpt lat="48.6904" lon="2.06104">
        <ele>117.40000152588</ele>
        <time>2011-04-18T09:56:35.000Z</time>
      </trkpt>
      <trkpt lat="48.69028" lon="2.06108">
        <ele>121.80000305176</ele>
        <time>2011-04-18T09:56:42.000Z</time>
      </trkpt>
      <trkpt lat="48.69019" lon="2.06111">
        <ele>121.80000305176</ele>
        <time>2011-04-18T09:56:48.000Z</time>
      </trkpt>
      <trkpt lat="48.69011" lon="2.06111">
        <ele>120.40000152588</ele>
        <time>2011-04-18T09:56:55.000Z</time>
      </trkpt>
      <trkpt lat="48.6901" lon="2.06112">
        <ele>120.40000152588</ele>
        <time>2011-04-18T09:56:56.000Z</time>
      </trkpt>
      <trkpt lat="48.69003" lon="2.06112">
        <ele>119.80000305176</ele>
        <time>2011-04-18T09:57:01.000Z</time>
      </trkpt>
      <trkpt lat="48.68995" lon="2.06112">
        <ele>119.80000305176</ele>
        <time>2011-04-18T09:57:07.000Z</time>
      </trkpt>
      <trkpt lat="48.68988" lon="2.06112">
        <ele>120.40000152588</ele>
        <time>2011-04-18T09:57:12.000Z</time>
      </trkpt>
      <trkpt lat="48.68983" lon="2.06112">
        <ele>120.40000152588</ele>
        <time>2011-04-18T09:57:15.000Z</time>
      </trkpt>
      <trkpt lat="48.68975" lon="2.06112">
        <ele>122.80000305176</ele>
        <time>2011-04-18T09:57:20.000Z</time>
      </trkpt>
      <trkpt lat="48.68969" lon="2.06114">
        <ele>124.19999694824</ele>
        <time>2011-04-18T09:57:25.000Z</time>
      </trkpt>
      <trkpt lat="48.68964" lon="2.06115">
        <ele>125.19999694824</ele>
        <time>2011-04-18T09:57:28.000Z</time>
      </trkpt>
      <trkpt lat="48.68951" lon="2.06116">
        <ele>124.19999694824</ele>
        <time>2011-04-18T09:57:37.000Z</time>
      </trkpt>
      <trkpt lat="48.68945" lon="2.06115">
        <ele>121.19999694824</ele>
        <time>2011-04-18T09:57:43.000Z</time>
      </trkpt>
      <trkpt lat="48.68938" lon="2.06114">
        <ele>119.80000305176</ele>
        <time>2011-04-18T09:57:48.000Z</time>
      </trkpt>
      <trkpt lat="48.68936" lon="2.06114">
        <ele>119.80000305176</ele>
        <time>2011-04-18T09:57:49.000Z</time>
      </trkpt>
      <trkpt lat="48.68929" lon="2.06115">
        <ele>120.40000152588</ele>
        <time>2011-04-18T09:57:53.000Z</time>
      </trkpt>
      <trkpt lat="48.68918" lon="2.06117">
        <ele>121.80000305176</ele>
        <time>2011-04-18T09:58:01.000Z</time>
      </trkpt>
      <trkpt lat="48.68912" lon="2.06117">
        <ele>121.19999694824</ele>
        <time>2011-04-18T09:58:04.000Z</time>
      </trkpt>
      <trkpt lat="48.68902" lon="2.06116">
        <ele>121.19999694824</ele>
        <time>2011-04-18T09:58:11.000Z</time>
      </trkpt>
      <trkpt lat="48.68893" lon="2.06117">
        <ele>119.80000305176</ele>
        <time>2011-04-18T09:58:17.000Z</time>
      </trkpt>
      <trkpt lat="48.68891" lon="2.06117">
        <ele>119.40000152588</ele>
        <time>2011-04-18T09:58:18.000Z</time>
      </trkpt>
      <trkpt lat="48.68881" lon="2.06117">
        <ele>117</ele>
        <time>2011-04-18T09:58:25.000Z</time>
      </trkpt>
      <trkpt lat="48.68875" lon="2.06119">
        <ele>117.80000305176</ele>
        <time>2011-04-18T09:58:28.000Z</time>
      </trkpt>
      <trkpt lat="48.68861" lon="2.06122">
        <ele>117.40000152588</ele>
        <time>2011-04-18T09:58:37.000Z</time>
      </trkpt>
      <trkpt lat="48.68852" lon="2.06123">
        <ele>115</ele>
        <time>2011-04-18T09:58:44.000Z</time>
      </trkpt>
      <trkpt lat="48.68842" lon="2.06125">
        <ele>114.59999847412</ele>
        <time>2011-04-18T09:58:51.000Z</time>
      </trkpt>
      <trkpt lat="48.68833" lon="2.06129">
        <ele>116</ele>
        <time>2011-04-18T09:58:58.000Z</time>
      </trkpt>
      <trkpt lat="48.68826" lon="2.06134">
        <ele>118.80000305176</ele>
        <time>2011-04-18T09:59:03.000Z</time>
      </trkpt>
      <trkpt lat="48.68816" lon="2.06136">
        <ele>121.19999694824</ele>
        <time>2011-04-18T09:59:10.000Z</time>
      </trkpt>
      <trkpt lat="48.68814" lon="2.06137">
        <ele>122.19999694824</ele>
        <time>2011-04-18T09:59:11.000Z</time>
      </trkpt>
      <trkpt lat="48.68804" lon="2.06141">
        <ele>124.59999847412</ele>
        <time>2011-04-18T09:59:18.000Z</time>
      </trkpt>
      <trkpt lat="48.688" lon="2.06142">
        <ele>124.19999694824</ele>
        <time>2011-04-18T09:59:21.000Z</time>
      </trkpt>
      <trkpt lat="48.68786" lon="2.06147">
        <ele>124.19999694824</ele>
        <time>2011-04-18T09:59:31.000Z</time>
      </trkpt>
      <trkpt lat="48.68783" lon="2.06149">
        <ele>125.19999694824</ele>
        <time>2011-04-18T09:59:33.000Z</time>
      </trkpt>
      <trkpt lat="48.68771" lon="2.06152">
        <ele>124.19999694824</ele>
        <time>2011-04-18T09:59:42.000Z</time>
      </trkpt>
      <trkpt lat="48.68769" lon="2.06153">
        <ele>124.19999694824</ele>
        <time>2011-04-18T09:59:44.000Z</time>
      </trkpt>
      <trkpt lat="48.68764" lon="2.06152">
        <ele>122.19999694824</ele>
        <time>2011-04-18T09:59:52.000Z</time>
      </trkpt>
      <trkpt lat="48.68756" lon="2.06156">
        <ele>124.19999694824</ele>
        <time>2011-04-18T10:00:07.000Z</time>
      </trkpt>
      <trkpt lat="48.68752" lon="2.06156">
        <ele>123.59999847412</ele>
        <time>2011-04-18T10:00:08.000Z</time>
      </trkpt>
      <trkpt lat="48.68745" lon="2.0616">
        <ele>120.80000305176</ele>
        <time>2011-04-18T10:00:16.000Z</time>
      </trkpt>
      <trkpt lat="48.68737" lon="2.06164">
        <ele>121.80000305176</ele>
        <time>2011-04-18T10:00:22.000Z</time>
      </trkpt>
      <trkpt lat="48.68732" lon="2.06167">
        <ele>120.80000305176</ele>
        <time>2011-04-18T10:00:26.000Z</time>
      </trkpt>
      <trkpt lat="48.68721" lon="2.06169">
        <ele>119.80000305176</ele>
        <time>2011-04-18T10:00:35.000Z</time>
      </trkpt>
      <trkpt lat="48.68713" lon="2.06172">
        <ele>120.40000152588</ele>
        <time>2011-04-18T10:00:40.000Z</time>
      </trkpt>
      <trkpt lat="48.68705" lon="2.06176">
        <ele>120.40000152588</ele>
        <time>2011-04-18T10:00:46.000Z</time>
      </trkpt>
      <trkpt lat="48.68699" lon="2.06177">
        <ele>121.19999694824</ele>
        <time>2011-04-18T10:00:51.000Z</time>
      </trkpt>
      <trkpt lat="48.6869" lon="2.06178">
        <ele>119.40000152588</ele>
        <time>2011-04-18T10:00:59.000Z</time>
      </trkpt>
      <trkpt lat="48.6868" lon="2.0618">
        <ele>118.80000305176</ele>
        <time>2011-04-18T10:01:07.000Z</time>
      </trkpt>
      <trkpt lat="48.68671" lon="2.06182">
        <ele>120.40000152588</ele>
        <time>2011-04-18T10:01:13.000Z</time>
      </trkpt>
      <trkpt lat="48.6866" lon="2.06186">
        <ele>123.19999694824</ele>
        <time>2011-04-18T10:01:20.000Z</time>
      </trkpt>
      <trkpt lat="48.68646" lon="2.06191">
        <ele>128</ele>
        <time>2011-04-18T10:01:31.000Z</time>
      </trkpt>
      <trkpt lat="48.6864" lon="2.06191">
        <ele>127</ele>
        <time>2011-04-18T10:01:37.000Z</time>
      </trkpt>
      <trkpt lat="48.68634" lon="2.06192">
        <ele>128.39999389648</ele>
        <time>2011-04-18T10:01:42.000Z</time>
      </trkpt>
      <trkpt lat="48.68628" lon="2.06192">
        <ele>130.39999389648</ele>
        <time>2011-04-18T10:01:47.000Z</time>
      </trkpt>
      <trkpt lat="48.6862" lon="2.06194">
        <ele>132.80000305176</ele>
        <time>2011-04-18T10:01:53.000Z</time>
      </trkpt>
      <trkpt lat="48.68614" lon="2.06194">
        <ele>132.80000305176</ele>
        <time>2011-04-18T10:01:58.000Z</time>
      </trkpt>
      <trkpt lat="48.68602" lon="2.06195">
        <ele>132.39999389648</ele>
        <time>2011-04-18T10:02:06.000Z</time>
      </trkpt>
      <trkpt lat="48.68592" lon="2.06195">
        <ele>130.80000305176</ele>
        <time>2011-04-18T10:02:13.000Z</time>
      </trkpt>
      <trkpt lat="48.68583" lon="2.06195">
        <ele>135.19999694824</ele>
        <time>2011-04-18T10:02:19.000Z</time>
      </trkpt>
      <trkpt lat="48.68572" lon="2.06196">
        <ele>140.39999389648</ele>
        <time>2011-04-18T10:02:25.000Z</time>
      </trkpt>
      <trkpt lat="48.68564" lon="2.06194">
        <ele>138.60000610352</ele>
        <time>2011-04-18T10:02:31.000Z</time>
      </trkpt>
      <trkpt lat="48.68557" lon="2.06192">
        <ele>138</ele>
        <time>2011-04-18T10:02:37.000Z</time>
      </trkpt>
      <trkpt lat="48.68549" lon="2.06191">
        <ele>140.39999389648</ele>
        <time>2011-04-18T10:02:43.000Z</time>
      </trkpt>
      <trkpt lat="48.6854" lon="2.0619">
        <ele>144.39999389648</ele>
        <time>2011-04-18T10:02:50.000Z</time>
      </trkpt>
      <trkpt lat="48.68531" lon="2.06186">
        <ele>144.80000305176</ele>
        <time>2011-04-18T10:02:57.000Z</time>
      </trkpt>
      <trkpt lat="48.68524" lon="2.06181">
        <ele>142</ele>
        <time>2011-04-18T10:03:03.000Z</time>
      </trkpt>
      <trkpt lat="48.68522" lon="2.06179">
        <ele>141.39999389648</ele>
        <time>2011-04-18T10:03:05.000Z</time>
      </trkpt>
      <trkpt lat="48.68517" lon="2.06177">
        <ele>140</ele>
        <time>2011-04-18T10:03:09.000Z</time>
      </trkpt>
      <trkpt lat="48.68512" lon="2.06174">
        <ele>140</ele>
        <time>2011-04-18T10:03:12.000Z</time>
      </trkpt>
      <trkpt lat="48.68504" lon="2.06171">
        <ele>141</ele>
        <time>2011-04-18T10:03:17.000Z</time>
      </trkpt>
      <trkpt lat="48.68491" lon="2.06166">
        <ele>143.39999389648</ele>
        <time>2011-04-18T10:03:25.000Z</time>
      </trkpt>
      <trkpt lat="48.68478" lon="2.06159">
        <ele>145.19999694824</ele>
        <time>2011-04-18T10:03:33.000Z</time>
      </trkpt>
      <trkpt lat="48.68465" lon="2.06156">
        <ele>150.60000610352</ele>
        <time>2011-04-18T10:03:41.000Z</time>
      </trkpt>
      <trkpt lat="48.68458" lon="2.0615">
        <ele>150.60000610352</ele>
        <time>2011-04-18T10:03:48.000Z</time>
      </trkpt>
      <trkpt lat="48.68449" lon="2.06148">
        <ele>149.60000610352</ele>
        <time>2011-04-18T10:03:55.000Z</time>
      </trkpt>
      <trkpt lat="48.68439" lon="2.06134">
        <ele>148.19999694824</ele>
        <time>2011-04-18T10:04:05.000Z</time>
      </trkpt>
      <trkpt lat="48.68433" lon="2.06127">
        <ele>148.19999694824</ele>
        <time>2011-04-18T10:04:12.000Z</time>
      </trkpt>
      <trkpt lat="48.68421" lon="2.06119">
        <ele>151.60000610352</ele>
        <time>2011-04-18T10:04:20.000Z</time>
      </trkpt>
      <trkpt lat="48.68411" lon="2.06102">
        <ele>147.60000610352</ele>
        <time>2011-04-18T10:04:31.000Z</time>
      </trkpt>
      <trkpt lat="48.68405" lon="2.0609">
        <ele>143.39999389648</ele>
        <time>2011-04-18T10:04:38.000Z</time>
      </trkpt>
      <trkpt lat="48.68403" lon="2.06084">
        <ele>141.39999389648</ele>
        <time>2011-04-18T10:04:41.000Z</time>
      </trkpt>
      <trkpt lat="48.684" lon="2.06075">
        <ele>139</ele>
        <time>2011-04-18T10:04:47.000Z</time>
      </trkpt>
      <trkpt lat="48.684" lon="2.06073">
        <ele>139</ele>
        <time>2011-04-18T10:04:51.000Z</time>
      </trkpt>
      <trkpt lat="48.68371" lon="2.06028">
        <ele>135.60000610352</ele>
        <time>2011-04-18T10:09:16.000Z</time>
      </trkpt>
      <trkpt lat="48.68369" lon="2.06022">
        <ele>135.60000610352</ele>
        <time>2011-04-18T10:09:20.000Z</time>
      </trkpt>
      <trkpt lat="48.68367" lon="2.06019">
        <ele>135.60000610352</ele>
        <time>2011-04-18T10:09:26.000Z</time>
      </trkpt>
      <trkpt lat="48.68363" lon="2.0601">
        <ele>134.80000305176</ele>
        <time>2011-04-18T10:09:37.000Z</time>
      </trkpt>
      <trkpt lat="48.68355" lon="2.05994">
        <ele>134.80000305176</ele>
        <time>2011-04-18T10:09:46.000Z</time>
      </trkpt>
      <trkpt lat="48.68349" lon="2.05979">
        <ele>134.19999694824</ele>
        <time>2011-04-18T10:09:54.000Z</time>
      </trkpt>
      <trkpt lat="48.68341" lon="2.05963">
        <ele>135.19999694824</ele>
        <time>2011-04-18T10:10:03.000Z</time>
      </trkpt>
      <trkpt lat="48.68336" lon="2.05948">
        <ele>135.19999694824</ele>
        <time>2011-04-18T10:10:11.000Z</time>
      </trkpt>
      <trkpt lat="48.68333" lon="2.05938">
        <ele>135.19999694824</ele>
        <time>2011-04-18T10:10:16.000Z</time>
      </trkpt>
      <trkpt lat="48.68331" lon="2.05931">
        <ele>133.80000305176</ele>
        <time>2011-04-18T10:10:19.000Z</time>
      </trkpt>
      <trkpt lat="48.68327" lon="2.0592">
        <ele>133.80000305176</ele>
        <time>2011-04-18T10:10:24.000Z</time>
      </trkpt>
      <trkpt lat="48.6832" lon="2.05903">
        <ele>133.80000305176</ele>
        <time>2011-04-18T10:10:33.000Z</time>
      </trkpt>
      <trkpt lat="48.68313" lon="2.05885">
        <ele>134.19999694824</ele>
        <time>2011-04-18T10:10:42.000Z</time>
      </trkpt>
      <trkpt lat="48.68306" lon="2.05873">
        <ele>137.19999694824</ele>
        <time>2011-04-18T10:10:49.000Z</time>
      </trkpt>
      <trkpt lat="48.68301" lon="2.0586">
        <ele>139</ele>
        <time>2011-04-18T10:10:57.000Z</time>
      </trkpt>
      <trkpt lat="48.68297" lon="2.05844">
        <ele>138</ele>
        <time>2011-04-18T10:11:05.000Z</time>
      </trkpt>
      <trkpt lat="48.68293" lon="2.05832">
        <ele>138.60000610352</ele>
        <time>2011-04-18T10:11:11.000Z</time>
      </trkpt>
      <trkpt lat="48.68288" lon="2.05816">
        <ele>138.60000610352</ele>
        <time>2011-04-18T10:11:18.000Z</time>
      </trkpt>
      <trkpt lat="48.68282" lon="2.05798">
        <ele>137.19999694824</ele>
        <time>2011-04-18T10:11:28.000Z</time>
      </trkpt>
      <trkpt lat="48.68276" lon="2.05782">
        <ele>137.19999694824</ele>
        <time>2011-04-18T10:11:37.000Z</time>
      </trkpt>
      <trkpt lat="48.68271" lon="2.05768">
        <ele>137.19999694824</ele>
        <time>2011-04-18T10:11:45.000Z</time>
      </trkpt>
      <trkpt lat="48.68266" lon="2.05755">
        <ele>137.60000610352</ele>
        <time>2011-04-18T10:11:52.000Z</time>
      </trkpt>
      <trkpt lat="48.68264" lon="2.0575">
        <ele>137.19999694824</ele>
        <time>2011-04-18T10:11:55.000Z</time>
      </trkpt>
      <trkpt lat="48.68261" lon="2.0574">
        <ele>138.60000610352</ele>
        <time>2011-04-18T10:12:01.000Z</time>
      </trkpt>
      <trkpt lat="48.68255" lon="2.05725">
        <ele>140</ele>
        <time>2011-04-18T10:12:09.000Z</time>
      </trkpt>
      <trkpt lat="48.6825" lon="2.05708">
        <ele>137.60000610352</ele>
        <time>2011-04-18T10:12:17.000Z</time>
      </trkpt>
      <trkpt lat="48.68245" lon="2.05696">
        <ele>139</ele>
        <time>2011-04-18T10:12:24.000Z</time>
      </trkpt>
      <trkpt lat="48.6824" lon="2.05683">
        <ele>139</ele>
        <time>2011-04-18T10:12:32.000Z</time>
      </trkpt>
      <trkpt lat="48.68236" lon="2.05671">
        <ele>139.60000610352</ele>
        <time>2011-04-18T10:12:39.000Z</time>
      </trkpt>
      <trkpt lat="48.68233" lon="2.05667">
        <ele>141</ele>
        <time>2011-04-18T10:12:45.000Z</time>
      </trkpt>
      <trkpt lat="48.68233" lon="2.05667">
        <ele>142</ele>
        <time>2011-04-18T10:12:47.000Z</time>
      </trkpt>
      <trkpt lat="48.68225" lon="2.0565">
        <ele>149.19999694824</ele>
        <time>2011-04-18T10:15:10.000Z</time>
      </trkpt>
      <trkpt lat="48.6822" lon="2.05642">
        <ele>151.60000610352</ele>
        <time>2011-04-18T10:15:15.000Z</time>
      </trkpt>
      <trkpt lat="48.68214" lon="2.05631">
        <ele>152</ele>
        <time>2011-04-18T10:15:22.000Z</time>
      </trkpt>
      <trkpt lat="48.68205" lon="2.05614">
        <ele>149.60000610352</ele>
        <time>2011-04-18T10:15:32.000Z</time>
      </trkpt>
      <trkpt lat="48.682" lon="2.05605">
        <ele>150.19999694824</ele>
        <time>2011-04-18T10:15:38.000Z</time>
      </trkpt>
      <trkpt lat="48.68193" lon="2.05595">
        <ele>150.19999694824</ele>
        <time>2011-04-18T10:15:45.000Z</time>
      </trkpt>
      <trkpt lat="48.68187" lon="2.05587">
        <ele>150.19999694824</ele>
        <time>2011-04-18T10:15:52.000Z</time>
      </trkpt>
      <trkpt lat="48.68182" lon="2.05577">
        <ele>149.60000610352</ele>
        <time>2011-04-18T10:15:58.000Z</time>
      </trkpt>
      <trkpt lat="48.68176" lon="2.05566">
        <ele>147.60000610352</ele>
        <time>2011-04-18T10:16:05.000Z</time>
      </trkpt>
      <trkpt lat="48.68171" lon="2.05558">
        <ele>147.60000610352</ele>
        <time>2011-04-18T10:16:11.000Z</time>
      </trkpt>
      <trkpt lat="48.68165" lon="2.0555">
        <ele>147.60000610352</ele>
        <time>2011-04-18T10:16:18.000Z</time>
      </trkpt>
      <trkpt lat="48.68164" lon="2.05549">
        <ele>147.60000610352</ele>
        <time>2011-04-18T10:16:19.000Z</time>
      </trkpt>
      <trkpt lat="48.68156" lon="2.05539">
        <ele>147.60000610352</ele>
        <time>2011-04-18T10:16:27.000Z</time>
      </trkpt>
      <trkpt lat="48.68148" lon="2.05528">
        <ele>145.19999694824</ele>
        <time>2011-04-18T10:16:35.000Z</time>
      </trkpt>
      <trkpt lat="48.68141" lon="2.05521">
        <ele>145.80000305176</ele>
        <time>2011-04-18T10:16:42.000Z</time>
      </trkpt>
      <trkpt lat="48.68132" lon="2.05511">
        <ele>146.80000305176</ele>
        <time>2011-04-18T10:16:50.000Z</time>
      </trkpt>
      <trkpt lat="48.68125" lon="2.05502">
        <ele>144.39999389648</ele>
        <time>2011-04-18T10:16:57.000Z</time>
      </trkpt>
      <trkpt lat="48.68116" lon="2.05494">
        <ele>144.80000305176</ele>
        <time>2011-04-18T10:17:05.000Z</time>
      </trkpt>
      <trkpt lat="48.68105" lon="2.05487">
        <ele>147.19999694824</ele>
        <time>2011-04-18T10:17:14.000Z</time>
      </trkpt>
      <trkpt lat="48.68095" lon="2.05482">
        <ele>149.19999694824</ele>
        <time>2011-04-18T10:17:21.000Z</time>
      </trkpt>
      <trkpt lat="48.68091" lon="2.0548">
        <ele>151</ele>
        <time>2011-04-18T10:17:25.000Z</time>
      </trkpt>
      <trkpt lat="48.68083" lon="2.05474">
        <ele>150.60000610352</ele>
        <time>2011-04-18T10:17:31.000Z</time>
      </trkpt>
      <trkpt lat="48.68072" lon="2.05469">
        <ele>152</ele>
        <time>2011-04-18T10:17:39.000Z</time>
      </trkpt>
      <trkpt lat="48.68065" lon="2.05464">
        <ele>152.60000610352</ele>
        <time>2011-04-18T10:17:45.000Z</time>
      </trkpt>
      <trkpt lat="48.68057" lon="2.05457">
        <ele>151</ele>
        <time>2011-04-18T10:17:52.000Z</time>
      </trkpt>
      <trkpt lat="48.68047" lon="2.0545">
        <ele>153</ele>
        <time>2011-04-18T10:17:59.000Z</time>
      </trkpt>
      <trkpt lat="48.68036" lon="2.05442">
        <ele>151.60000610352</ele>
        <time>2011-04-18T10:18:08.000Z</time>
      </trkpt>
      <trkpt lat="48.6803" lon="2.05437">
        <ele>152</ele>
        <time>2011-04-18T10:18:13.000Z</time>
      </trkpt>
      <trkpt lat="48.68025" lon="2.05436">
        <ele>151</ele>
        <time>2011-04-18T10:18:19.000Z</time>
      </trkpt>
      <trkpt lat="48.68025" lon="2.05435">
        <ele>150.19999694824</ele>
        <time>2011-04-18T10:18:22.000Z</time>
      </trkpt>
      <trkpt lat="48.6802" lon="2.05426">
        <ele>146.80000305176</ele>
        <time>2011-04-18T10:18:37.000Z</time>
      </trkpt>
      <trkpt lat="48.68015" lon="2.05423">
        <ele>146.80000305176</ele>
        <time>2011-04-18T10:18:40.000Z</time>
      </trkpt>
      <trkpt lat="48.68005" lon="2.05414">
        <ele>146.19999694824</ele>
        <time>2011-04-18T10:18:49.000Z</time>
      </trkpt>
      <trkpt lat="48.67998" lon="2.05409">
        <ele>144.80000305176</ele>
        <time>2011-04-18T10:18:54.000Z</time>
      </trkpt>
      <trkpt lat="48.67992" lon="2.05404">
        <ele>144.39999389648</ele>
        <time>2011-04-18T10:19:00.000Z</time>
      </trkpt>
      <trkpt lat="48.67982" lon="2.05398">
        <ele>144.39999389648</ele>
        <time>2011-04-18T10:19:08.000Z</time>
      </trkpt>
      <trkpt lat="48.67973" lon="2.05392">
        <ele>144.39999389648</ele>
        <time>2011-04-18T10:19:16.000Z</time>
      </trkpt>
      <trkpt lat="48.67973" lon="2.05391">
        <ele>144.39999389648</ele>
        <time>2011-04-18T10:19:18.000Z</time>
      </trkpt>
      <trkpt lat="48.67954" lon="2.05385">
        <ele>153</ele>
        <time>2011-04-18T10:20:33.000Z</time>
      </trkpt>
      <trkpt lat="48.67947" lon="2.0538">
        <ele>156.39999389648</ele>
        <time>2011-04-18T10:20:39.000Z</time>
      </trkpt>
      <trkpt lat="48.67936" lon="2.05375">
        <ele>158.80000305176</ele>
        <time>2011-04-18T10:20:47.000Z</time>
      </trkpt>
      <trkpt lat="48.67926" lon="2.05367">
        <ele>158.19999694824</ele>
        <time>2011-04-18T10:20:55.000Z</time>
      </trkpt>
      <trkpt lat="48.67919" lon="2.05362">
        <ele>158.80000305176</ele>
        <time>2011-04-18T10:21:01.000Z</time>
      </trkpt>
      <trkpt lat="48.6791" lon="2.05354">
        <ele>157.80000305176</ele>
        <time>2011-04-18T10:21:08.000Z</time>
      </trkpt>
      <trkpt lat="48.67902" lon="2.05346">
        <ele>155.39999389648</ele>
        <time>2011-04-18T10:21:15.000Z</time>
      </trkpt>
      <trkpt lat="48.679" lon="2.05344">
        <ele>154.39999389648</ele>
        <time>2011-04-18T10:21:17.000Z</time>
      </trkpt>
      <trkpt lat="48.67891" lon="2.05337">
        <ele>154</ele>
        <time>2011-04-18T10:21:25.000Z</time>
      </trkpt>
      <trkpt lat="48.67886" lon="2.05334">
        <ele>154.39999389648</ele>
        <time>2011-04-18T10:21:29.000Z</time>
      </trkpt>
      <trkpt lat="48.67884" lon="2.05331">
        <ele>154</ele>
        <time>2011-04-18T10:21:31.000Z</time>
      </trkpt>
      <trkpt lat="48.67877" lon="2.05324">
        <ele>150.19999694824</ele>
        <time>2011-04-18T10:21:37.000Z</time>
      </trkpt>
      <trkpt lat="48.67872" lon="2.05318">
        <ele>149.19999694824</ele>
        <time>2011-04-18T10:21:42.000Z</time>
      </trkpt>
      <trkpt lat="48.67863" lon="2.05311">
        <ele>151</ele>
        <time>2011-04-18T10:21:50.000Z</time>
      </trkpt>
      <trkpt lat="48.6786" lon="2.05307">
        <ele>150.19999694824</ele>
        <time>2011-04-18T10:21:56.000Z</time>
      </trkpt>
      <trkpt lat="48.67858" lon="2.05306">
        <ele>149.19999694824</ele>
        <time>2011-04-18T10:22:00.000Z</time>
      </trkpt>
      <trkpt lat="48.67853" lon="2.05303">
        <ele>148.60000610352</ele>
        <time>2011-04-18T10:22:03.000Z</time>
      </trkpt>
      <trkpt lat="48.67848" lon="2.05298">
        <ele>150.19999694824</ele>
        <time>2011-04-18T10:22:08.000Z</time>
      </trkpt>
      <trkpt lat="48.67838" lon="2.05291">
        <ele>151</ele>
        <time>2011-04-18T10:22:16.000Z</time>
      </trkpt>
      <trkpt lat="48.67829" lon="2.05286">
        <ele>153.39999389648</ele>
        <time>2011-04-18T10:22:23.000Z</time>
      </trkpt>
      <trkpt lat="48.67824" lon="2.05284">
        <ele>153.39999389648</ele>
        <time>2011-04-18T10:22:28.000Z</time>
      </trkpt>
      <trkpt lat="48.67824" lon="2.05284">
        <ele>154</ele>
        <time>2011-04-18T10:22:29.000Z</time>
      </trkpt>
      <trkpt lat="48.67828" lon="2.05282">
        <ele>153</ele>
        <time>2011-04-18T10:24:17.000Z</time>
      </trkpt>
      <trkpt lat="48.67833" lon="2.05283">
        <ele>149.60000610352</ele>
        <time>2011-04-18T10:24:20.000Z</time>
      </trkpt>
      <trkpt lat="48.67831" lon="2.05283">
        <ele>147.60000610352</ele>
        <time>2011-04-18T10:24:25.000Z</time>
      </trkpt>
      <trkpt lat="48.67828" lon="2.05281">
        <ele>147.60000610352</ele>
        <time>2011-04-18T10:24:28.000Z</time>
      </trkpt>
      <trkpt lat="48.67827" lon="2.05284">
        <ele>147.60000610352</ele>
        <time>2011-04-18T10:24:35.000Z</time>
      </trkpt>
      <trkpt lat="48.67824" lon="2.05286">
        <ele>148.19999694824</ele>
        <time>2011-04-18T10:24:40.000Z</time>
      </trkpt>
      <trkpt lat="48.67824" lon="2.05286">
        <ele>148.19999694824</ele>
        <time>2011-04-18T10:24:42.000Z</time>
      </trkpt>
      <trkpt lat="48.67819" lon="2.05282">
        <ele>156.39999389648</ele>
        <time>2011-04-18T10:55:27.000Z</time>
      </trkpt>
      <trkpt lat="48.67819" lon="2.05282">
        <ele>155.39999389648</ele>
        <time>2011-04-18T10:55:28.000Z</time>
      </trkpt>
      <trkpt lat="48.67797" lon="2.05261">
        <ele>148.19999694824</ele>
        <time>2011-04-18T10:56:02.000Z</time>
      </trkpt>
      <trkpt lat="48.67791" lon="2.05258">
        <ele>148.60000610352</ele>
        <time>2011-04-18T10:56:06.000Z</time>
      </trkpt>
      <trkpt lat="48.67789" lon="2.05257">
        <ele>150.19999694824</ele>
        <time>2011-04-18T10:56:08.000Z</time>
      </trkpt>
      <trkpt lat="48.67785" lon="2.05256">
        <ele>148.60000610352</ele>
        <time>2011-04-18T10:56:12.000Z</time>
      </trkpt>
      <trkpt lat="48.67779" lon="2.05252">
        <ele>146.80000305176</ele>
        <time>2011-04-18T10:56:18.000Z</time>
      </trkpt>
      <trkpt lat="48.67774" lon="2.05247">
        <ele>144.80000305176</ele>
        <time>2011-04-18T10:56:24.000Z</time>
      </trkpt>
      <trkpt lat="48.6777" lon="2.05243">
        <ele>146.80000305176</ele>
        <time>2011-04-18T10:56:30.000Z</time>
      </trkpt>
      <trkpt lat="48.6777" lon="2.05243">
        <ele>148.60000610352</ele>
        <time>2011-04-18T10:56:36.000Z</time>
      </trkpt>
      <trkpt lat="48.67756" lon="2.05239">
        <ele>150.19999694824</ele>
        <time>2011-04-18T10:59:00.000Z</time>
      </trkpt>
      <trkpt lat="48.67755" lon="2.05239">
        <ele>148.60000610352</ele>
        <time>2011-04-18T10:59:01.000Z</time>
      </trkpt>
      <trkpt lat="48.67744" lon="2.05232">
        <ele>148.19999694824</ele>
        <time>2011-04-18T10:59:09.000Z</time>
      </trkpt>
      <trkpt lat="48.67732" lon="2.05228">
        <ele>148.19999694824</ele>
        <time>2011-04-18T10:59:20.000Z</time>
      </trkpt>
      <trkpt lat="48.67724" lon="2.05227">
        <ele>148.19999694824</ele>
        <time>2011-04-18T10:59:27.000Z</time>
      </trkpt>
      <trkpt lat="48.67715" lon="2.05225">
        <ele>148.60000610352</ele>
        <time>2011-04-18T10:59:35.000Z</time>
      </trkpt>
      <trkpt lat="48.67707" lon="2.05222">
        <ele>147.19999694824</ele>
        <time>2011-04-18T10:59:42.000Z</time>
      </trkpt>
      <trkpt lat="48.677" lon="2.0522">
        <ele>147.19999694824</ele>
        <time>2011-04-18T10:59:49.000Z</time>
      </trkpt>
      <trkpt lat="48.67697" lon="2.05221">
        <ele>147.19999694824</ele>
        <time>2011-04-18T10:59:55.000Z</time>
      </trkpt>
      <trkpt lat="48.67674" lon="2.05214">
        <ele>149.60000610352</ele>
        <time>2011-04-18T11:00:20.000Z</time>
      </trkpt>
      <trkpt lat="48.67664" lon="2.05214">
        <ele>153</ele>
        <time>2011-04-18T11:00:27.000Z</time>
      </trkpt>
      <trkpt lat="48.6765" lon="2.05214">
        <ele>157.80000305176</ele>
        <time>2011-04-18T11:00:37.000Z</time>
      </trkpt>
      <trkpt lat="48.67642" lon="2.05215">
        <ele>159.80000305176</ele>
        <time>2011-04-18T11:00:44.000Z</time>
      </trkpt>
      <trkpt lat="48.67638" lon="2.05214">
        <ele>159.80000305176</ele>
        <time>2011-04-18T11:00:48.000Z</time>
      </trkpt>
      <trkpt lat="48.67628" lon="2.05215">
        <ele>160.19999694824</ele>
        <time>2011-04-18T11:00:57.000Z</time>
      </trkpt>
      <trkpt lat="48.67616" lon="2.05214">
        <ele>159.19999694824</ele>
        <time>2011-04-18T11:01:07.000Z</time>
      </trkpt>
      <trkpt lat="48.67604" lon="2.05217">
        <ele>158.80000305176</ele>
        <time>2011-04-18T11:01:17.000Z</time>
      </trkpt>
      <trkpt lat="48.67594" lon="2.05219">
        <ele>158.19999694824</ele>
        <time>2011-04-18T11:01:26.000Z</time>
      </trkpt>
      <trkpt lat="48.67584" lon="2.0522">
        <ele>157.80000305176</ele>
        <time>2011-04-18T11:01:35.000Z</time>
      </trkpt>
      <trkpt lat="48.67578" lon="2.05222">
        <ele>156.39999389648</ele>
        <time>2011-04-18T11:01:41.000Z</time>
      </trkpt>
      <trkpt lat="48.67571" lon="2.05225">
        <ele>156.80000305176</ele>
        <time>2011-04-18T11:01:47.000Z</time>
      </trkpt>
      <trkpt lat="48.67567" lon="2.05228">
        <ele>157.39999389648</ele>
        <time>2011-04-18T11:01:50.000Z</time>
      </trkpt>
      <trkpt lat="48.67557" lon="2.05233">
        <ele>159.80000305176</ele>
        <time>2011-04-18T11:01:58.000Z</time>
      </trkpt>
      <trkpt lat="48.67549" lon="2.05234">
        <ele>161.19999694824</ele>
        <time>2011-04-18T11:02:05.000Z</time>
      </trkpt>
      <trkpt lat="48.6754" lon="2.05237">
        <ele>161.60000610352</ele>
        <time>2011-04-18T11:02:13.000Z</time>
      </trkpt>
      <trkpt lat="48.67538" lon="2.05239">
        <ele>162.60000610352</ele>
        <time>2011-04-18T11:02:15.000Z</time>
      </trkpt>
      <trkpt lat="48.67537" lon="2.05241">
        <ele>163.60000610352</ele>
        <time>2011-04-18T11:02:19.000Z</time>
      </trkpt>
      <trkpt lat="48.6753" lon="2.05246">
        <ele>161.19999694824</ele>
        <time>2011-04-18T11:02:28.000Z</time>
      </trkpt>
      <trkpt lat="48.67528" lon="2.05248">
        <ele>160.19999694824</ele>
        <time>2011-04-18T11:02:29.000Z</time>
      </trkpt>
      <trkpt lat="48.67525" lon="2.0525">
        <ele>160.19999694824</ele>
        <time>2011-04-18T11:02:33.000Z</time>
      </trkpt>
      <trkpt lat="48.67519" lon="2.05253">
        <ele>159.19999694824</ele>
        <time>2011-04-18T11:02:38.000Z</time>
      </trkpt>
      <trkpt lat="48.67516" lon="2.05249">
        <ele>161.19999694824</ele>
        <time>2011-04-18T11:02:44.000Z</time>
      </trkpt>
      <trkpt lat="48.67516" lon="2.05248">
        <ele>160.60000610352</ele>
        <time>2011-04-18T11:02:48.000Z</time>
      </trkpt>
      <trkpt lat="48.67503" lon="2.05257">
        <ele>158.80000305176</ele>
        <time>2011-04-18T11:03:04.000Z</time>
      </trkpt>
      <trkpt lat="48.67498" lon="2.05261">
        <ele>159.19999694824</ele>
        <time>2011-04-18T11:03:07.000Z</time>
      </trkpt>
      <trkpt lat="48.6749" lon="2.05266">
        <ele>159.80000305176</ele>
        <time>2011-04-18T11:03:13.000Z</time>
      </trkpt>
      <trkpt lat="48.67482" lon="2.0527">
        <ele>160.19999694824</ele>
        <time>2011-04-18T11:03:20.000Z</time>
      </trkpt>
      <trkpt lat="48.67477" lon="2.05275">
        <ele>162.60000610352</ele>
        <time>2011-04-18T11:03:25.000Z</time>
      </trkpt>
      <trkpt lat="48.67466" lon="2.05281">
        <ele>163</ele>
        <time>2011-04-18T11:03:33.000Z</time>
      </trkpt>
      <trkpt lat="48.6746" lon="2.05286">
        <ele>164.60000610352</ele>
        <time>2011-04-18T11:03:38.000Z</time>
      </trkpt>
      <trkpt lat="48.67453" lon="2.0529">
        <ele>165.39999389648</ele>
        <time>2011-04-18T11:03:44.000Z</time>
      </trkpt>
      <trkpt lat="48.67448" lon="2.05291">
        <ele>165</ele>
        <time>2011-04-18T11:03:49.000Z</time>
      </trkpt>
      <trkpt lat="48.67447" lon="2.05292">
        <ele>165</ele>
        <time>2011-04-18T11:03:50.000Z</time>
      </trkpt>
      <trkpt lat="48.67443" lon="2.05291">
        <ele>164</ele>
        <time>2011-04-18T11:03:53.000Z</time>
      </trkpt>
      <trkpt lat="48.67438" lon="2.05294">
        <ele>165</ele>
        <time>2011-04-18T11:03:58.000Z</time>
      </trkpt>
      <trkpt lat="48.67431" lon="2.05296">
        <ele>165.39999389648</ele>
        <time>2011-04-18T11:04:05.000Z</time>
      </trkpt>
      <trkpt lat="48.67429" lon="2.05298">
        <ele>167</ele>
        <time>2011-04-18T11:04:07.000Z</time>
      </trkpt>
      <trkpt lat="48.67424" lon="2.05301">
        <ele>165</ele>
        <time>2011-04-18T11:04:11.000Z</time>
      </trkpt>
      <trkpt lat="48.6742" lon="2.05307">
        <ele>166.39999389648</ele>
        <time>2011-04-18T11:04:14.000Z</time>
      </trkpt>
      <trkpt lat="48.6741" lon="2.0531">
        <ele>166</ele>
        <time>2011-04-18T11:04:22.000Z</time>
      </trkpt>
      <trkpt lat="48.67409" lon="2.05311">
        <ele>166</ele>
        <time>2011-04-18T11:04:23.000Z</time>
      </trkpt>
      <trkpt lat="48.67405" lon="2.05313">
        <ele>164.60000610352</ele>
        <time>2011-04-18T11:04:27.000Z</time>
      </trkpt>
      <trkpt lat="48.674" lon="2.05316">
        <ele>166</ele>
        <time>2011-04-18T11:04:33.000Z</time>
      </trkpt>
      <trkpt lat="48.67392" lon="2.05319">
        <ele>165.39999389648</ele>
        <time>2011-04-18T11:04:39.000Z</time>
      </trkpt>
      <trkpt lat="48.67384" lon="2.05322">
        <ele>166.39999389648</ele>
        <time>2011-04-18T11:04:45.000Z</time>
      </trkpt>
      <trkpt lat="48.67381" lon="2.05325">
        <ele>167.39999389648</ele>
        <time>2011-04-18T11:04:48.000Z</time>
      </trkpt>
      <trkpt lat="48.67374" lon="2.05326">
        <ele>165.39999389648</ele>
        <time>2011-04-18T11:04:55.000Z</time>
      </trkpt>
      <trkpt lat="48.67367" lon="2.05328">
        <ele>166.39999389648</ele>
        <time>2011-04-18T11:05:01.000Z</time>
      </trkpt>
      <trkpt lat="48.67366" lon="2.05328">
        <ele>166</ele>
        <time>2011-04-18T11:05:02.000Z</time>
      </trkpt>
      <trkpt lat="48.6736" lon="2.05331">
        <ele>166.39999389648</ele>
        <time>2011-04-18T11:05:08.000Z</time>
      </trkpt>
      <trkpt lat="48.67358" lon="2.05333">
        <ele>166.39999389648</ele>
        <time>2011-04-18T11:05:10.000Z</time>
      </trkpt>
      <trkpt lat="48.67354" lon="2.05334">
        <ele>168.39999389648</ele>
        <time>2011-04-18T11:05:13.000Z</time>
      </trkpt>
      <trkpt lat="48.67346" lon="2.05336">
        <ele>167</ele>
        <time>2011-04-18T11:05:22.000Z</time>
      </trkpt>
      <trkpt lat="48.67336" lon="2.05339">
        <ele>162.60000610352</ele>
        <time>2011-04-18T11:05:31.000Z</time>
      </trkpt>
      <trkpt lat="48.67332" lon="2.05341">
        <ele>161.60000610352</ele>
        <time>2011-04-18T11:05:35.000Z</time>
      </trkpt>
      <trkpt lat="48.67323" lon="2.05345">
        <ele>160.19999694824</ele>
        <time>2011-04-18T11:05:43.000Z</time>
      </trkpt>
      <trkpt lat="48.67315" lon="2.05345">
        <ele>158.80000305176</ele>
        <time>2011-04-18T11:05:50.000Z</time>
      </trkpt>
      <trkpt lat="48.67307" lon="2.05348">
        <ele>157.80000305176</ele>
        <time>2011-04-18T11:05:57.000Z</time>
      </trkpt>
      <trkpt lat="48.67304" lon="2.0535">
        <ele>157.39999389648</ele>
        <time>2011-04-18T11:06:00.000Z</time>
      </trkpt>
      <trkpt lat="48.67303" lon="2.05347">
        <ele>155.39999389648</ele>
        <time>2011-04-18T11:06:07.000Z</time>
      </trkpt>
      <trkpt lat="48.67303" lon="2.05346">
        <ele>155.39999389648</ele>
        <time>2011-04-18T11:06:08.000Z</time>
      </trkpt>
      <trkpt lat="48.67302" lon="2.05345">
        <ele>150.60000610352</ele>
        <time>2011-04-18T11:06:26.000Z</time>
      </trkpt>
      <trkpt lat="48.67293" lon="2.05346">
        <ele>156.80000305176</ele>
        <time>2011-04-18T11:06:32.000Z</time>
      </trkpt>
      <trkpt lat="48.67283" lon="2.05348">
        <ele>157.39999389648</ele>
        <time>2011-04-18T11:06:40.000Z</time>
      </trkpt>
      <trkpt lat="48.67273" lon="2.0535">
        <ele>159.19999694824</ele>
        <time>2011-04-18T11:06:48.000Z</time>
      </trkpt>
      <trkpt lat="48.67263" lon="2.05352">
        <ele>158.80000305176</ele>
        <time>2011-04-18T11:06:56.000Z</time>
      </trkpt>
      <trkpt lat="48.67255" lon="2.05352">
        <ele>160.60000610352</ele>
        <time>2011-04-18T11:07:02.000Z</time>
      </trkpt>
      <trkpt lat="48.67251" lon="2.05355">
        <ele>162.60000610352</ele>
        <time>2011-04-18T11:07:06.000Z</time>
      </trkpt>
      <trkpt lat="48.67246" lon="2.05355">
        <ele>163.60000610352</ele>
        <time>2011-04-18T11:07:10.000Z</time>
      </trkpt>
      <trkpt lat="48.67242" lon="2.05355">
        <ele>162.60000610352</ele>
        <time>2011-04-18T11:07:14.000Z</time>
      </trkpt>
      <trkpt lat="48.67234" lon="2.05358">
        <ele>165</ele>
        <time>2011-04-18T11:07:20.000Z</time>
      </trkpt>
      <trkpt lat="48.6723" lon="2.0536">
        <ele>166</ele>
        <time>2011-04-18T11:07:24.000Z</time>
      </trkpt>
      <trkpt lat="48.67225" lon="2.05359">
        <ele>165</ele>
        <time>2011-04-18T11:07:29.000Z</time>
      </trkpt>
      <trkpt lat="48.67222" lon="2.05359">
        <ele>164.60000610352</ele>
        <time>2011-04-18T11:07:31.000Z</time>
      </trkpt>
      <trkpt lat="48.67221" lon="2.05356">
        <ele>165</ele>
        <time>2011-04-18T11:07:35.000Z</time>
      </trkpt>
      <trkpt lat="48.67216" lon="2.05355">
        <ele>164.60000610352</ele>
        <time>2011-04-18T11:07:39.000Z</time>
      </trkpt>
      <trkpt lat="48.67205" lon="2.05354">
        <ele>165</ele>
        <time>2011-04-18T11:07:48.000Z</time>
      </trkpt>
      <trkpt lat="48.67204" lon="2.05353">
        <ele>164</ele>
        <time>2011-04-18T11:07:49.000Z</time>
      </trkpt>
      <trkpt lat="48.67199" lon="2.0535">
        <ele>158.80000305176</ele>
        <time>2011-04-18T11:07:56.000Z</time>
      </trkpt>
      <trkpt lat="48.67196" lon="2.05345">
        <ele>162.19999694824</ele>
        <time>2011-04-18T11:08:02.000Z</time>
      </trkpt>
      <trkpt lat="48.67192" lon="2.05341">
        <ele>167.39999389648</ele>
        <time>2011-04-18T11:11:03.000Z</time>
      </trkpt>
      <trkpt lat="48.67191" lon="2.05341">
        <ele>167</ele>
        <time>2011-04-18T11:11:04.000Z</time>
      </trkpt>
      <trkpt lat="48.67183" lon="2.05342">
        <ele>167.39999389648</ele>
        <time>2011-04-18T11:11:10.000Z</time>
      </trkpt>
      <trkpt lat="48.67175" lon="2.05342">
        <ele>166</ele>
        <time>2011-04-18T11:11:16.000Z</time>
      </trkpt>
      <trkpt lat="48.67165" lon="2.05341">
        <ele>165</ele>
        <time>2011-04-18T11:11:23.000Z</time>
      </trkpt>
      <trkpt lat="48.67164" lon="2.05341">
        <ele>165.39999389648</ele>
        <time>2011-04-18T11:11:24.000Z</time>
      </trkpt>
      <trkpt lat="48.67156" lon="2.05338">
        <ele>166.39999389648</ele>
        <time>2011-04-18T11:11:30.000Z</time>
      </trkpt>
      <trkpt lat="48.67148" lon="2.05337">
        <ele>168.39999389648</ele>
        <time>2011-04-18T11:11:37.000Z</time>
      </trkpt>
      <trkpt lat="48.67139" lon="2.05336">
        <ele>167.39999389648</ele>
        <time>2011-04-18T11:11:44.000Z</time>
      </trkpt>
      <trkpt lat="48.67134" lon="2.05335">
        <ele>167.80000305176</ele>
        <time>2011-04-18T11:11:48.000Z</time>
      </trkpt>
      <trkpt lat="48.67126" lon="2.05332">
        <ele>167.39999389648</ele>
        <time>2011-04-18T11:11:55.000Z</time>
      </trkpt>
      <trkpt lat="48.67119" lon="2.05326">
        <ele>163.60000610352</ele>
        <time>2011-04-18T11:12:03.000Z</time>
      </trkpt>
      <trkpt lat="48.67111" lon="2.05322">
        <ele>161.19999694824</ele>
        <time>2011-04-18T11:12:10.000Z</time>
      </trkpt>
      <trkpt lat="48.67102" lon="2.05322">
        <ele>161.19999694824</ele>
        <time>2011-04-18T11:12:16.000Z</time>
      </trkpt>
      <trkpt lat="48.67094" lon="2.05317">
        <ele>160.19999694824</ele>
        <time>2011-04-18T11:12:23.000Z</time>
      </trkpt>
      <trkpt lat="48.67092" lon="2.05316">
        <ele>159.80000305176</ele>
        <time>2011-04-18T11:12:25.000Z</time>
      </trkpt>
      <trkpt lat="48.67087" lon="2.05314">
        <ele>160.19999694824</ele>
        <time>2011-04-18T11:12:30.000Z</time>
      </trkpt>
      <trkpt lat="48.67082" lon="2.0531">
        <ele>163</ele>
        <time>2011-04-18T11:12:36.000Z</time>
      </trkpt>
      <trkpt lat="48.67082" lon="2.0531">
        <ele>163</ele>
        <time>2011-04-18T11:12:37.000Z</time>
      </trkpt>
      <trkpt lat="48.67088" lon="2.05304">
        <ele>160.19999694824</ele>
        <time>2011-04-18T11:14:02.000Z</time>
      </trkpt>
      <trkpt lat="48.67087" lon="2.05301">
        <ele>162.19999694824</ele>
        <time>2011-04-18T11:14:06.000Z</time>
      </trkpt>
      <trkpt lat="48.6709" lon="2.05299">
        <ele>162.60000610352</ele>
        <time>2011-04-18T11:14:10.000Z</time>
      </trkpt>
      <trkpt lat="48.67092" lon="2.05299">
        <ele>165.39999389648</ele>
        <time>2011-04-18T11:14:15.000Z</time>
      </trkpt>
      <trkpt lat="48.67091" lon="2.053">
        <ele>166.39999389648</ele>
        <time>2011-04-18T11:14:16.000Z</time>
      </trkpt>
      <trkpt lat="48.67088" lon="2.05303">
        <ele>171.80000305176</ele>
        <time>2011-04-18T11:14:31.000Z</time>
      </trkpt>
      <trkpt lat="48.67084" lon="2.05303">
        <ele>169.80000305176</ele>
        <time>2011-04-18T11:14:33.000Z</time>
      </trkpt>
      <trkpt lat="48.67082" lon="2.05306">
        <ele>169.39999389648</ele>
        <time>2011-04-18T11:14:38.000Z</time>
      </trkpt>
      <trkpt lat="48.67079" lon="2.05311">
        <ele>170.80000305176</ele>
        <time>2011-04-18T11:14:42.000Z</time>
      </trkpt>
      <trkpt lat="48.67075" lon="2.05306">
        <ele>167</ele>
        <time>2011-04-18T11:14:48.000Z</time>
      </trkpt>
      <trkpt lat="48.67072" lon="2.05304">
        <ele>164</ele>
        <time>2011-04-18T11:14:52.000Z</time>
      </trkpt>
      <trkpt lat="48.67064" lon="2.05299">
        <ele>161.60000610352</ele>
        <time>2011-04-18T11:14:59.000Z</time>
      </trkpt>
      <trkpt lat="48.67058" lon="2.05295">
        <ele>161.60000610352</ele>
        <time>2011-04-18T11:15:05.000Z</time>
      </trkpt>
      <trkpt lat="48.67054" lon="2.05293">
        <ele>164</ele>
        <time>2011-04-18T11:15:08.000Z</time>
      </trkpt>
      <trkpt lat="48.67046" lon="2.05285">
        <ele>164</ele>
        <time>2011-04-18T11:15:16.000Z</time>
      </trkpt>
      <trkpt lat="48.6704" lon="2.0528">
        <ele>164</ele>
        <time>2011-04-18T11:15:22.000Z</time>
      </trkpt>
      <trkpt lat="48.67034" lon="2.05275">
        <ele>162.19999694824</ele>
        <time>2011-04-18T11:15:28.000Z</time>
      </trkpt>
      <trkpt lat="48.67027" lon="2.05269">
        <ele>159.19999694824</ele>
        <time>2011-04-18T11:15:35.000Z</time>
      </trkpt>
      <trkpt lat="48.67024" lon="2.05267">
        <ele>158.80000305176</ele>
        <time>2011-04-18T11:15:38.000Z</time>
      </trkpt>
      <trkpt lat="48.67018" lon="2.05262">
        <ele>160.19999694824</ele>
        <time>2011-04-18T11:15:43.000Z</time>
      </trkpt>
      <trkpt lat="48.67009" lon="2.05256">
        <ele>162.60000610352</ele>
        <time>2011-04-18T11:15:51.000Z</time>
      </trkpt>
      <trkpt lat="48.67001" lon="2.05249">
        <ele>161.60000610352</ele>
        <time>2011-04-18T11:15:58.000Z</time>
      </trkpt>
      <trkpt lat="48.66991" lon="2.05242">
        <ele>160.60000610352</ele>
        <time>2011-04-18T11:16:07.000Z</time>
      </trkpt>
      <trkpt lat="48.66985" lon="2.05238">
        <ele>161.19999694824</ele>
        <time>2011-04-18T11:16:12.000Z</time>
      </trkpt>
      <trkpt lat="48.66977" lon="2.05229">
        <ele>161.19999694824</ele>
        <time>2011-04-18T11:16:20.000Z</time>
      </trkpt>
      <trkpt lat="48.66968" lon="2.0522">
        <ele>160.60000610352</ele>
        <time>2011-04-18T11:16:28.000Z</time>
      </trkpt>
      <trkpt lat="48.66955" lon="2.05207">
        <ele>165</ele>
        <time>2011-04-18T11:16:39.000Z</time>
      </trkpt>
      <trkpt lat="48.66944" lon="2.05199">
        <ele>164.60000610352</ele>
        <time>2011-04-18T11:16:48.000Z</time>
      </trkpt>
      <trkpt lat="48.66936" lon="2.05193">
        <ele>164</ele>
        <time>2011-04-18T11:16:55.000Z</time>
      </trkpt>
      <trkpt lat="48.66924" lon="2.05181">
        <ele>165</ele>
        <time>2011-04-18T11:17:06.000Z</time>
      </trkpt>
      <trkpt lat="48.66915" lon="2.05173">
        <ele>164.60000610352</ele>
        <time>2011-04-18T11:17:14.000Z</time>
      </trkpt>
      <trkpt lat="48.66905" lon="2.05166">
        <ele>164</ele>
        <time>2011-04-18T11:17:24.000Z</time>
      </trkpt>
      <trkpt lat="48.66905" lon="2.05166">
        <ele>163.60000610352</ele>
        <time>2011-04-18T11:17:26.000Z</time>
      </trkpt>
      <trkpt lat="48.66902" lon="2.0517">
        <ele>170.80000305176</ele>
        <time>2011-04-18T11:19:53.000Z</time>
      </trkpt>
      <trkpt lat="48.66902" lon="2.0517">
        <ele>170.19999694824</ele>
        <time>2011-04-18T11:19:54.000Z</time>
      </trkpt>
      <trkpt lat="48.66878" lon="2.0519">
        <ele>167.39999389648</ele>
        <time>2011-04-18T11:22:50.000Z</time>
      </trkpt>
      <trkpt lat="48.66872" lon="2.05202">
        <ele>167.80000305176</ele>
        <time>2011-04-18T11:22:57.000Z</time>
      </trkpt>
      <trkpt lat="48.66867" lon="2.05216">
        <ele>167.80000305176</ele>
        <time>2011-04-18T11:23:05.000Z</time>
      </trkpt>
      <trkpt lat="48.66861" lon="2.05233">
        <ele>167</ele>
        <time>2011-04-18T11:23:15.000Z</time>
      </trkpt>
      <trkpt lat="48.66856" lon="2.05253">
        <ele>167</ele>
        <time>2011-04-18T11:23:26.000Z</time>
      </trkpt>
      <trkpt lat="48.66852" lon="2.05269">
        <ele>167</ele>
        <time>2011-04-18T11:23:35.000Z</time>
      </trkpt>
      <trkpt lat="48.66852" lon="2.0527">
        <ele>167</ele>
        <time>2011-04-18T11:23:38.000Z</time>
      </trkpt>
      <trkpt lat="48.66842" lon="2.05278">
        <ele>169.39999389648</ele>
        <time>2011-04-18T11:24:58.000Z</time>
      </trkpt>
      <trkpt lat="48.66833" lon="2.05282">
        <ele>168.80000305176</ele>
        <time>2011-04-18T11:25:05.000Z</time>
      </trkpt>
      <trkpt lat="48.66822" lon="2.05283">
        <ele>167.39999389648</ele>
        <time>2011-04-18T11:25:13.000Z</time>
      </trkpt>
      <trkpt lat="48.66805" lon="2.05283">
        <ele>167.80000305176</ele>
        <time>2011-04-18T11:25:25.000Z</time>
      </trkpt>
      <trkpt lat="48.66793" lon="2.05281">
        <ele>168.39999389648</ele>
        <time>2011-04-18T11:25:34.000Z</time>
      </trkpt>
      <trkpt lat="48.6679" lon="2.0528">
        <ele>168.39999389648</ele>
        <time>2011-04-18T11:25:36.000Z</time>
      </trkpt>
      <trkpt lat="48.6678" lon="2.05279">
        <ele>169.39999389648</ele>
        <time>2011-04-18T11:25:43.000Z</time>
      </trkpt>
      <trkpt lat="48.66771" lon="2.05277">
        <ele>168.80000305176</ele>
        <time>2011-04-18T11:25:51.000Z</time>
      </trkpt>
      <trkpt lat="48.66757" lon="2.05275">
        <ele>167.80000305176</ele>
        <time>2011-04-18T11:26:02.000Z</time>
      </trkpt>
      <trkpt lat="48.66745" lon="2.05276">
        <ele>167.80000305176</ele>
        <time>2011-04-18T11:26:12.000Z</time>
      </trkpt>
      <trkpt lat="48.66735" lon="2.05278">
        <ele>167.39999389648</ele>
        <time>2011-04-18T11:26:21.000Z</time>
      </trkpt>
      <trkpt lat="48.66728" lon="2.05278">
        <ele>167.39999389648</ele>
        <time>2011-04-18T11:26:27.000Z</time>
      </trkpt>
      <trkpt lat="48.66719" lon="2.05283">
        <ele>167.39999389648</ele>
        <time>2011-04-18T11:26:34.000Z</time>
      </trkpt>
      <trkpt lat="48.66709" lon="2.0529">
        <ele>167.39999389648</ele>
        <time>2011-04-18T11:26:43.000Z</time>
      </trkpt>
      <trkpt lat="48.66697" lon="2.05299">
        <ele>167.39999389648</ele>
        <time>2011-04-18T11:26:53.000Z</time>
      </trkpt>
      <trkpt lat="48.66691" lon="2.05303">
        <ele>168.39999389648</ele>
        <time>2011-04-18T11:26:59.000Z</time>
      </trkpt>
      <trkpt lat="48.66681" lon="2.05309">
        <ele>167.80000305176</ele>
        <time>2011-04-18T11:27:07.000Z</time>
      </trkpt>
      <trkpt lat="48.66671" lon="2.05316">
        <ele>167.80000305176</ele>
        <time>2011-04-18T11:27:15.000Z</time>
      </trkpt>
      <trkpt lat="48.66662" lon="2.05322">
        <ele>168.39999389648</ele>
        <time>2011-04-18T11:27:23.000Z</time>
      </trkpt>
      <trkpt lat="48.66651" lon="2.05331">
        <ele>168.39999389648</ele>
        <time>2011-04-18T11:27:33.000Z</time>
      </trkpt>
      <trkpt lat="48.66643" lon="2.05337">
        <ele>168.80000305176</ele>
        <time>2011-04-18T11:27:40.000Z</time>
      </trkpt>
      <trkpt lat="48.66635" lon="2.05343">
        <ele>168.80000305176</ele>
        <time>2011-04-18T11:27:47.000Z</time>
      </trkpt>
      <trkpt lat="48.66628" lon="2.05348">
        <ele>168.80000305176</ele>
        <time>2011-04-18T11:27:53.000Z</time>
      </trkpt>
      <trkpt lat="48.66618" lon="2.05355">
        <ele>168.80000305176</ele>
        <time>2011-04-18T11:28:01.000Z</time>
      </trkpt>
      <trkpt lat="48.66606" lon="2.05361">
        <ele>169.80000305176</ele>
        <time>2011-04-18T11:28:11.000Z</time>
      </trkpt>
      <trkpt lat="48.66593" lon="2.05368">
        <ele>169.39999389648</ele>
        <time>2011-04-18T11:28:21.000Z</time>
      </trkpt>
      <trkpt lat="48.66581" lon="2.05374">
        <ele>169.39999389648</ele>
        <time>2011-04-18T11:28:31.000Z</time>
      </trkpt>
      <trkpt lat="48.66569" lon="2.05378">
        <ele>169.39999389648</ele>
        <time>2011-04-18T11:28:40.000Z</time>
      </trkpt>
      <trkpt lat="48.66559" lon="2.05381">
        <ele>168.39999389648</ele>
        <time>2011-04-18T11:28:48.000Z</time>
      </trkpt>
      <trkpt lat="48.66551" lon="2.05383">
        <ele>168.39999389648</ele>
        <time>2011-04-18T11:28:54.000Z</time>
      </trkpt>
      <trkpt lat="48.66539" lon="2.05387">
        <ele>168.39999389648</ele>
        <time>2011-04-18T11:29:04.000Z</time>
      </trkpt>
      <trkpt lat="48.66529" lon="2.0539">
        <ele>168.80000305176</ele>
        <time>2011-04-18T11:29:11.000Z</time>
      </trkpt>
      <trkpt lat="48.66522" lon="2.05393">
        <ele>168.39999389648</ele>
        <time>2011-04-18T11:29:18.000Z</time>
      </trkpt>
      <trkpt lat="48.66509" lon="2.05395">
        <ele>168.80000305176</ele>
        <time>2011-04-18T11:29:27.000Z</time>
      </trkpt>
      <trkpt lat="48.66499" lon="2.05396">
        <ele>168.80000305176</ele>
        <time>2011-04-18T11:29:35.000Z</time>
      </trkpt>
      <trkpt lat="48.66489" lon="2.05396">
        <ele>168.80000305176</ele>
        <time>2011-04-18T11:29:43.000Z</time>
      </trkpt>
      <trkpt lat="48.66476" lon="2.05398">
        <ele>168.80000305176</ele>
        <time>2011-04-18T11:29:53.000Z</time>
      </trkpt>
      <trkpt lat="48.66464" lon="2.054">
        <ele>168.80000305176</ele>
        <time>2011-04-18T11:30:03.000Z</time>
      </trkpt>
      <trkpt lat="48.66455" lon="2.05401">
        <ele>168.80000305176</ele>
        <time>2011-04-18T11:30:09.000Z</time>
      </trkpt>
      <trkpt lat="48.66434" lon="2.05404">
        <ele>168.39999389648</ele>
        <time>2011-04-18T11:30:16.000Z</time>
      </trkpt>
      <trkpt lat="48.66423" lon="2.05406">
        <ele>168.80000305176</ele>
        <time>2011-04-18T11:30:22.000Z</time>
      </trkpt>
      <trkpt lat="48.66418" lon="2.05406">
        <ele>168.39999389648</ele>
        <time>2011-04-18T11:30:27.000Z</time>
      </trkpt>
      <trkpt lat="48.66411" lon="2.05407">
        <ele>168.39999389648</ele>
        <time>2011-04-18T11:30:33.000Z</time>
      </trkpt>
      <trkpt lat="48.66408" lon="2.05408">
        <ele>167.80000305176</ele>
        <time>2011-04-18T11:30:35.000Z</time>
      </trkpt>
      <trkpt lat="48.66395" lon="2.0541">
        <ele>168.39999389648</ele>
        <time>2011-04-18T11:30:44.000Z</time>
      </trkpt>
      <trkpt lat="48.66386" lon="2.05411">
        <ele>168.39999389648</ele>
        <time>2011-04-18T11:30:51.000Z</time>
      </trkpt>
      <trkpt lat="48.66374" lon="2.05412">
        <ele>167.80000305176</ele>
        <time>2011-04-18T11:31:00.000Z</time>
      </trkpt>
      <trkpt lat="48.66363" lon="2.05415">
        <ele>167.80000305176</ele>
        <time>2011-04-18T11:31:08.000Z</time>
      </trkpt>
      <trkpt lat="48.66355" lon="2.05415">
        <ele>167.80000305176</ele>
        <time>2011-04-18T11:31:14.000Z</time>
      </trkpt>
      <trkpt lat="48.66344" lon="2.05416">
        <ele>167.80000305176</ele>
        <time>2011-04-18T11:31:22.000Z</time>
      </trkpt>
      <trkpt lat="48.66328" lon="2.05418">
        <ele>167.80000305176</ele>
        <time>2011-04-18T11:31:33.000Z</time>
      </trkpt>
      <trkpt lat="48.66316" lon="2.0542">
        <ele>168.39999389648</ele>
        <time>2011-04-18T11:31:42.000Z</time>
      </trkpt>
      <trkpt lat="48.66303" lon="2.05422">
        <ele>168.39999389648</ele>
        <time>2011-04-18T11:31:52.000Z</time>
      </trkpt>
      <trkpt lat="48.66293" lon="2.05422">
        <ele>168.39999389648</ele>
        <time>2011-04-18T11:31:59.000Z</time>
      </trkpt>
      <trkpt lat="48.66285" lon="2.05422">
        <ele>168.39999389648</ele>
        <time>2011-04-18T11:32:05.000Z</time>
      </trkpt>
      <trkpt lat="48.6627" lon="2.05424">
        <ele>168.39999389648</ele>
        <time>2011-04-18T11:32:16.000Z</time>
      </trkpt>
      <trkpt lat="48.66261" lon="2.05427">
        <ele>167.80000305176</ele>
        <time>2011-04-18T11:32:22.000Z</time>
      </trkpt>
      <trkpt lat="48.66251" lon="2.05427">
        <ele>168.39999389648</ele>
        <time>2011-04-18T11:32:30.000Z</time>
      </trkpt>
      <trkpt lat="48.66244" lon="2.05426">
        <ele>168.39999389648</ele>
        <time>2011-04-18T11:32:35.000Z</time>
      </trkpt>
      <trkpt lat="48.66234" lon="2.05427">
        <ele>167.80000305176</ele>
        <time>2011-04-18T11:32:42.000Z</time>
      </trkpt>
      <trkpt lat="48.66223" lon="2.05428">
        <ele>167.80000305176</ele>
        <time>2011-04-18T11:32:50.000Z</time>
      </trkpt>
      <trkpt lat="48.66209" lon="2.05429">
        <ele>167.80000305176</ele>
        <time>2011-04-18T11:33:00.000Z</time>
      </trkpt>
      <trkpt lat="48.66195" lon="2.05429">
        <ele>167.80000305176</ele>
        <time>2011-04-18T11:33:10.000Z</time>
      </trkpt>
      <trkpt lat="48.66185" lon="2.05432">
        <ele>167.80000305176</ele>
        <time>2011-04-18T11:33:18.000Z</time>
      </trkpt>
      <trkpt lat="48.66176" lon="2.05433">
        <ele>168.39999389648</ele>
        <time>2011-04-18T11:33:24.000Z</time>
      </trkpt>
      <trkpt lat="48.66158" lon="2.05431">
        <ele>168.80000305176</ele>
        <time>2011-04-18T11:33:37.000Z</time>
      </trkpt>
      <trkpt lat="48.66144" lon="2.05429">
        <ele>168.80000305176</ele>
        <time>2011-04-18T11:33:48.000Z</time>
      </trkpt>
      <trkpt lat="48.66131" lon="2.05427">
        <ele>168.80000305176</ele>
        <time>2011-04-18T11:33:58.000Z</time>
      </trkpt>
      <trkpt lat="48.66121" lon="2.05425">
        <ele>169.39999389648</ele>
        <time>2011-04-18T11:34:06.000Z</time>
      </trkpt>
      <trkpt lat="48.66108" lon="2.05421">
        <ele>169.39999389648</ele>
        <time>2011-04-18T11:34:16.000Z</time>
      </trkpt>
      <trkpt lat="48.66096" lon="2.05419">
        <ele>169.39999389648</ele>
        <time>2011-04-18T11:34:24.000Z</time>
      </trkpt>
      <trkpt lat="48.66086" lon="2.05417">
        <ele>169.39999389648</ele>
        <time>2011-04-18T11:34:31.000Z</time>
      </trkpt>
      <trkpt lat="48.66074" lon="2.05415">
        <ele>169.39999389648</ele>
        <time>2011-04-18T11:34:40.000Z</time>
      </trkpt>
      <trkpt lat="48.66064" lon="2.05415">
        <ele>169.39999389648</ele>
        <time>2011-04-18T11:34:47.000Z</time>
      </trkpt>
      <trkpt lat="48.66052" lon="2.05412">
        <ele>169.39999389648</ele>
        <time>2011-04-18T11:34:56.000Z</time>
      </trkpt>
      <trkpt lat="48.66041" lon="2.05409">
        <ele>168.80000305176</ele>
        <time>2011-04-18T11:35:05.000Z</time>
      </trkpt>
      <trkpt lat="48.66026" lon="2.05406">
        <ele>168.80000305176</ele>
        <time>2011-04-18T11:35:16.000Z</time>
      </trkpt>
      <trkpt lat="48.66014" lon="2.05405">
        <ele>169.39999389648</ele>
        <time>2011-04-18T11:35:25.000Z</time>
      </trkpt>
      <trkpt lat="48.66" lon="2.05404">
        <ele>169.80000305176</ele>
        <time>2011-04-18T11:35:35.000Z</time>
      </trkpt>
      <trkpt lat="48.65989" lon="2.05401">
        <ele>169.80000305176</ele>
        <time>2011-04-18T11:35:43.000Z</time>
      </trkpt>
      <trkpt lat="48.65975" lon="2.05398">
        <ele>169.80000305176</ele>
        <time>2011-04-18T11:35:54.000Z</time>
      </trkpt>
      <trkpt lat="48.65957" lon="2.05396">
        <ele>169.80000305176</ele>
        <time>2011-04-18T11:36:07.000Z</time>
      </trkpt>
      <trkpt lat="48.65945" lon="2.05394">
        <ele>170.80000305176</ele>
        <time>2011-04-18T11:36:17.000Z</time>
      </trkpt>
      <trkpt lat="48.6594" lon="2.05398">
        <ele>170.80000305176</ele>
        <time>2011-04-18T11:36:24.000Z</time>
      </trkpt>
      <trkpt lat="48.6594" lon="2.05399">
        <ele>170.80000305176</ele>
        <time>2011-04-18T11:36:27.000Z</time>
      </trkpt>
      <trkpt lat="48.65935" lon="2.054">
        <ele>171.80000305176</ele>
        <time>2011-04-18T11:36:52.000Z</time>
      </trkpt>
      <trkpt lat="48.65929" lon="2.05399">
        <ele>171.19999694824</ele>
        <time>2011-04-18T11:36:57.000Z</time>
      </trkpt>
      <trkpt lat="48.6593" lon="2.05399">
        <ele>171.19999694824</ele>
        <time>2011-04-18T11:36:58.000Z</time>
      </trkpt>
      <trkpt lat="48.6592" lon="2.05397">
        <ele>171.19999694824</ele>
        <time>2011-04-18T11:37:14.000Z</time>
      </trkpt>
      <trkpt lat="48.65909" lon="2.05393">
        <ele>171.19999694824</ele>
        <time>2011-04-18T11:37:22.000Z</time>
      </trkpt>
      <trkpt lat="48.65899" lon="2.05389">
        <ele>171.19999694824</ele>
        <time>2011-04-18T11:37:30.000Z</time>
      </trkpt>
      <trkpt lat="48.65888" lon="2.05384">
        <ele>170.80000305176</ele>
        <time>2011-04-18T11:37:39.000Z</time>
      </trkpt>
      <trkpt lat="48.65875" lon="2.05378">
        <ele>170.19999694824</ele>
        <time>2011-04-18T11:37:49.000Z</time>
      </trkpt>
      <trkpt lat="48.65865" lon="2.05374">
        <ele>170.19999694824</ele>
        <time>2011-04-18T11:37:57.000Z</time>
      </trkpt>
      <trkpt lat="48.65848" lon="2.05367">
        <ele>170.19999694824</ele>
        <time>2011-04-18T11:38:10.000Z</time>
      </trkpt>
      <trkpt lat="48.65834" lon="2.0536">
        <ele>170.19999694824</ele>
        <time>2011-04-18T11:38:21.000Z</time>
      </trkpt>
      <trkpt lat="48.65822" lon="2.05355">
        <ele>170.19999694824</ele>
        <time>2011-04-18T11:38:30.000Z</time>
      </trkpt>
      <trkpt lat="48.65811" lon="2.0535">
        <ele>170.19999694824</ele>
        <time>2011-04-18T11:38:39.000Z</time>
      </trkpt>
      <trkpt lat="48.65799" lon="2.05344">
        <ele>170.19999694824</ele>
        <time>2011-04-18T11:38:49.000Z</time>
      </trkpt>
      <trkpt lat="48.65783" lon="2.05337">
        <ele>170.19999694824</ele>
        <time>2011-04-18T11:39:01.000Z</time>
      </trkpt>
      <trkpt lat="48.6577" lon="2.05331">
        <ele>170.19999694824</ele>
        <time>2011-04-18T11:39:11.000Z</time>
      </trkpt>
      <trkpt lat="48.65756" lon="2.05324">
        <ele>169.80000305176</ele>
        <time>2011-04-18T11:39:22.000Z</time>
      </trkpt>
      <trkpt lat="48.65745" lon="2.05318">
        <ele>169.39999389648</ele>
        <time>2011-04-18T11:39:30.000Z</time>
      </trkpt>
      <trkpt lat="48.65743" lon="2.05317">
        <ele>169.39999389648</ele>
        <time>2011-04-18T11:39:34.000Z</time>
      </trkpt>
      <trkpt lat="48.65738" lon="2.05314">
        <ele>169.39999389648</ele>
        <time>2011-04-18T11:39:40.000Z</time>
      </trkpt>
      <trkpt lat="48.65726" lon="2.05307">
        <ele>169.39999389648</ele>
        <time>2011-04-18T11:39:49.000Z</time>
      </trkpt>
      <trkpt lat="48.65716" lon="2.053">
        <ele>170.19999694824</ele>
        <time>2011-04-18T11:39:58.000Z</time>
      </trkpt>
      <trkpt lat="48.6571" lon="2.05296">
        <ele>170.19999694824</ele>
        <time>2011-04-18T11:40:04.000Z</time>
      </trkpt>
      <trkpt lat="48.65699" lon="2.05287">
        <ele>170.80000305176</ele>
        <time>2011-04-18T11:40:13.000Z</time>
      </trkpt>
      <trkpt lat="48.65688" lon="2.05279">
        <ele>170.80000305176</ele>
        <time>2011-04-18T11:40:22.000Z</time>
      </trkpt>
      <trkpt lat="48.65677" lon="2.05271">
        <ele>170.80000305176</ele>
        <time>2011-04-18T11:40:31.000Z</time>
      </trkpt>
      <trkpt lat="48.65666" lon="2.05262">
        <ele>170.80000305176</ele>
        <time>2011-04-18T11:40:39.000Z</time>
      </trkpt>
      <trkpt lat="48.65657" lon="2.05254">
        <ele>170.80000305176</ele>
        <time>2011-04-18T11:40:47.000Z</time>
      </trkpt>
      <trkpt lat="48.65651" lon="2.0525">
        <ele>170.80000305176</ele>
        <time>2011-04-18T11:40:53.000Z</time>
      </trkpt>
      <trkpt lat="48.65641" lon="2.05244">
        <ele>171.19999694824</ele>
        <time>2011-04-18T11:41:01.000Z</time>
      </trkpt>
      <trkpt lat="48.65633" lon="2.05239">
        <ele>171.80000305176</ele>
        <time>2011-04-18T11:41:08.000Z</time>
      </trkpt>
      <trkpt lat="48.65623" lon="2.05231">
        <ele>171.19999694824</ele>
        <time>2011-04-18T11:41:16.000Z</time>
      </trkpt>
      <trkpt lat="48.65613" lon="2.05225">
        <ele>171.80000305176</ele>
        <time>2011-04-18T11:41:24.000Z</time>
      </trkpt>
      <trkpt lat="48.656" lon="2.05218">
        <ele>171.80000305176</ele>
        <time>2011-04-18T11:41:34.000Z</time>
      </trkpt>
      <trkpt lat="48.65589" lon="2.05211">
        <ele>171.80000305176</ele>
        <time>2011-04-18T11:41:42.000Z</time>
      </trkpt>
      <trkpt lat="48.6558" lon="2.05203">
        <ele>172.60000610352</ele>
        <time>2011-04-18T11:41:49.000Z</time>
      </trkpt>
      <trkpt lat="48.65569" lon="2.05195">
        <ele>172.19999694824</ele>
        <time>2011-04-18T11:41:58.000Z</time>
      </trkpt>
      <trkpt lat="48.6556" lon="2.05191">
        <ele>172.19999694824</ele>
        <time>2011-04-18T11:42:05.000Z</time>
      </trkpt>
      <trkpt lat="48.6555" lon="2.0519">
        <ele>172.19999694824</ele>
        <time>2011-04-18T11:42:13.000Z</time>
      </trkpt>
      <trkpt lat="48.65534" lon="2.05183">
        <ele>172.19999694824</ele>
        <time>2011-04-18T11:42:25.000Z</time>
      </trkpt>
      <trkpt lat="48.65518" lon="2.05176">
        <ele>172.19999694824</ele>
        <time>2011-04-18T11:42:37.000Z</time>
      </trkpt>
      <trkpt lat="48.65501" lon="2.05169">
        <ele>171.80000305176</ele>
        <time>2011-04-18T11:42:50.000Z</time>
      </trkpt>
      <trkpt lat="48.65489" lon="2.05162">
        <ele>171.19999694824</ele>
        <time>2011-04-18T11:43:00.000Z</time>
      </trkpt>
      <trkpt lat="48.65478" lon="2.05155">
        <ele>170.80000305176</ele>
        <time>2011-04-18T11:43:09.000Z</time>
      </trkpt>
      <trkpt lat="48.65465" lon="2.05149">
        <ele>171.19999694824</ele>
        <time>2011-04-18T11:43:19.000Z</time>
      </trkpt>
      <trkpt lat="48.65459" lon="2.05145">
        <ele>170.80000305176</ele>
        <time>2011-04-18T11:43:25.000Z</time>
      </trkpt>
      <trkpt lat="48.65459" lon="2.05144">
        <ele>170.80000305176</ele>
        <time>2011-04-18T11:43:26.000Z</time>
      </trkpt>
      <trkpt lat="48.65458" lon="2.05143">
        <ele>170.80000305176</ele>
        <time>2011-04-18T11:43:29.000Z</time>
      </trkpt>
      <trkpt lat="48.65453" lon="2.05139">
        <ele>170.19999694824</ele>
        <time>2011-04-18T11:43:36.000Z</time>
      </trkpt>
      <trkpt lat="48.65444" lon="2.05131">
        <ele>169.80000305176</ele>
        <time>2011-04-18T11:43:43.000Z</time>
      </trkpt>
      <trkpt lat="48.6544" lon="2.05129">
        <ele>170.19999694824</ele>
        <time>2011-04-18T11:43:46.000Z</time>
      </trkpt>
      <trkpt lat="48.65439" lon="2.05128">
        <ele>170.19999694824</ele>
        <time>2011-04-18T11:43:50.000Z</time>
      </trkpt>
      <trkpt lat="48.65435" lon="2.05125">
        <ele>170.80000305176</ele>
        <time>2011-04-18T11:43:56.000Z</time>
      </trkpt>
      <trkpt lat="48.65424" lon="2.05115">
        <ele>171.19999694824</ele>
        <time>2011-04-18T11:44:04.000Z</time>
      </trkpt>
      <trkpt lat="48.65416" lon="2.05108">
        <ele>170.80000305176</ele>
        <time>2011-04-18T11:44:11.000Z</time>
      </trkpt>
      <trkpt lat="48.65406" lon="2.05097">
        <ele>170.80000305176</ele>
        <time>2011-04-18T11:44:20.000Z</time>
      </trkpt>
      <trkpt lat="48.65392" lon="2.05081">
        <ele>170.19999694824</ele>
        <time>2011-04-18T11:44:33.000Z</time>
      </trkpt>
      <trkpt lat="48.65383" lon="2.0507">
        <ele>170.80000305176</ele>
        <time>2011-04-18T11:44:42.000Z</time>
      </trkpt>
      <trkpt lat="48.65381" lon="2.05068">
        <ele>170.80000305176</ele>
        <time>2011-04-18T11:44:44.000Z</time>
      </trkpt>
      <trkpt lat="48.65373" lon="2.05058">
        <ele>170.80000305176</ele>
        <time>2011-04-18T11:44:52.000Z</time>
      </trkpt>
      <trkpt lat="48.65363" lon="2.05043">
        <ele>171.19999694824</ele>
        <time>2011-04-18T11:45:02.000Z</time>
      </trkpt>
      <trkpt lat="48.65356" lon="2.05034">
        <ele>171.19999694824</ele>
        <time>2011-04-18T11:45:08.000Z</time>
      </trkpt>
      <trkpt lat="48.65351" lon="2.0503">
        <ele>171.80000305176</ele>
        <time>2011-04-18T11:45:13.000Z</time>
      </trkpt>
      <trkpt lat="48.65345" lon="2.05021">
        <ele>171.19999694824</ele>
        <time>2011-04-18T11:45:20.000Z</time>
      </trkpt>
      <trkpt lat="48.65337" lon="2.05007">
        <ele>170.80000305176</ele>
        <time>2011-04-18T11:45:29.000Z</time>
      </trkpt>
      <trkpt lat="48.65328" lon="2.04995">
        <ele>170.19999694824</ele>
        <time>2011-04-18T11:45:37.000Z</time>
      </trkpt>
      <trkpt lat="48.65314" lon="2.04974">
        <ele>169.39999389648</ele>
        <time>2011-04-18T11:45:51.000Z</time>
      </trkpt>
      <trkpt lat="48.65307" lon="2.0496">
        <ele>168.80000305176</ele>
        <time>2011-04-18T11:46:00.000Z</time>
      </trkpt>
      <trkpt lat="48.65299" lon="2.04949">
        <ele>168.80000305176</ele>
        <time>2011-04-18T11:46:08.000Z</time>
      </trkpt>
      <trkpt lat="48.65289" lon="2.04936">
        <ele>168.39999389648</ele>
        <time>2011-04-18T11:46:17.000Z</time>
      </trkpt>
      <trkpt lat="48.65282" lon="2.04925">
        <ele>168.80000305176</ele>
        <time>2011-04-18T11:46:25.000Z</time>
      </trkpt>
      <trkpt lat="48.65275" lon="2.04915">
        <ele>169.39999389648</ele>
        <time>2011-04-18T11:46:32.000Z</time>
      </trkpt>
      <trkpt lat="48.65267" lon="2.04904">
        <ele>169.39999389648</ele>
        <time>2011-04-18T11:46:39.000Z</time>
      </trkpt>
      <trkpt lat="48.6526" lon="2.04894">
        <ele>169.39999389648</ele>
        <time>2011-04-18T11:46:46.000Z</time>
      </trkpt>
      <trkpt lat="48.65253" lon="2.04882">
        <ele>169.39999389648</ele>
        <time>2011-04-18T11:46:54.000Z</time>
      </trkpt>
      <trkpt lat="48.65246" lon="2.04875">
        <ele>168.80000305176</ele>
        <time>2011-04-18T11:47:00.000Z</time>
      </trkpt>
      <trkpt lat="48.65239" lon="2.04867">
        <ele>168.39999389648</ele>
        <time>2011-04-18T11:47:07.000Z</time>
      </trkpt>
      <trkpt lat="48.65231" lon="2.04856">
        <ele>167.80000305176</ele>
        <time>2011-04-18T11:47:15.000Z</time>
      </trkpt>
      <trkpt lat="48.65221" lon="2.04845">
        <ele>167.80000305176</ele>
        <time>2011-04-18T11:47:23.000Z</time>
      </trkpt>
      <trkpt lat="48.65213" lon="2.04834">
        <ele>167</ele>
        <time>2011-04-18T11:47:31.000Z</time>
      </trkpt>
      <trkpt lat="48.65207" lon="2.04827">
        <ele>167</ele>
        <time>2011-04-18T11:47:37.000Z</time>
      </trkpt>
      <trkpt lat="48.65197" lon="2.04815">
        <ele>167</ele>
        <time>2011-04-18T11:47:46.000Z</time>
      </trkpt>
      <trkpt lat="48.6519" lon="2.04807">
        <ele>166.39999389648</ele>
        <time>2011-04-18T11:47:52.000Z</time>
      </trkpt>
      <trkpt lat="48.65185" lon="2.04801">
        <ele>166</ele>
        <time>2011-04-18T11:47:58.000Z</time>
      </trkpt>
      <trkpt lat="48.65184" lon="2.04801">
        <ele>166.39999389648</ele>
        <time>2011-04-18T11:48:01.000Z</time>
      </trkpt>
      <trkpt lat="48.65165" lon="2.04774">
        <ele>159.19999694824</ele>
        <time>2011-04-18T11:48:46.000Z</time>
      </trkpt>
      <trkpt lat="48.6516" lon="2.04769">
        <ele>156.80000305176</ele>
        <time>2011-04-18T11:48:49.000Z</time>
      </trkpt>
      <trkpt lat="48.65147" lon="2.04764">
        <ele>155.39999389648</ele>
        <time>2011-04-18T11:48:58.000Z</time>
      </trkpt>
      <trkpt lat="48.65141" lon="2.0476">
        <ele>155.39999389648</ele>
        <time>2011-04-18T11:49:04.000Z</time>
      </trkpt>
      <trkpt lat="48.65139" lon="2.04757">
        <ele>155.80000305176</ele>
        <time>2011-04-18T11:49:06.000Z</time>
      </trkpt>
      <trkpt lat="48.65135" lon="2.04754">
        <ele>155.80000305176</ele>
        <time>2011-04-18T11:49:10.000Z</time>
      </trkpt>
      <trkpt lat="48.65123" lon="2.04753">
        <ele>156.39999389648</ele>
        <time>2011-04-18T11:49:18.000Z</time>
      </trkpt>
      <trkpt lat="48.65121" lon="2.04755">
        <ele>156.80000305176</ele>
        <time>2011-04-18T11:49:20.000Z</time>
      </trkpt>
      <trkpt lat="48.65111" lon="2.0476">
        <ele>158.19999694824</ele>
        <time>2011-04-18T11:49:28.000Z</time>
      </trkpt>
      <trkpt lat="48.65104" lon="2.04762">
        <ele>158.19999694824</ele>
        <time>2011-04-18T11:49:35.000Z</time>
      </trkpt>
      <trkpt lat="48.65097" lon="2.04762">
        <ele>158.80000305176</ele>
        <time>2011-04-18T11:49:40.000Z</time>
      </trkpt>
      <trkpt lat="48.65089" lon="2.04758">
        <ele>158.80000305176</ele>
        <time>2011-04-18T11:49:46.000Z</time>
      </trkpt>
      <trkpt lat="48.65082" lon="2.04758">
        <ele>157.80000305176</ele>
        <time>2011-04-18T11:49:51.000Z</time>
      </trkpt>
      <trkpt lat="48.65074" lon="2.04759">
        <ele>156.39999389648</ele>
        <time>2011-04-18T11:49:57.000Z</time>
      </trkpt>
      <trkpt lat="48.65073" lon="2.04759">
        <ele>156.39999389648</ele>
        <time>2011-04-18T11:49:58.000Z</time>
      </trkpt>
      <trkpt lat="48.65063" lon="2.04765">
        <ele>159.80000305176</ele>
        <time>2011-04-18T11:50:06.000Z</time>
      </trkpt>
      <trkpt lat="48.65054" lon="2.04766">
        <ele>158.19999694824</ele>
        <time>2011-04-18T11:50:11.000Z</time>
      </trkpt>
      <trkpt lat="48.65044" lon="2.0477">
        <ele>160.19999694824</ele>
        <time>2011-04-18T11:50:18.000Z</time>
      </trkpt>
      <trkpt lat="48.65037" lon="2.04776">
        <ele>161.60000610352</ele>
        <time>2011-04-18T11:50:26.000Z</time>
      </trkpt>
      <trkpt lat="48.65036" lon="2.0478">
        <ele>161.60000610352</ele>
        <time>2011-04-18T11:50:29.000Z</time>
      </trkpt>
      <trkpt lat="48.65027" lon="2.04795">
        <ele>161.60000610352</ele>
        <time>2011-04-18T11:50:38.000Z</time>
      </trkpt>
      <trkpt lat="48.6502" lon="2.04798">
        <ele>159.19999694824</ele>
        <time>2011-04-18T11:50:45.000Z</time>
      </trkpt>
      <trkpt lat="48.65019" lon="2.04798">
        <ele>158.80000305176</ele>
        <time>2011-04-18T11:50:46.000Z</time>
      </trkpt>
      <trkpt lat="48.65005" lon="2.04784">
        <ele>154.39999389648</ele>
        <time>2011-04-18T11:53:09.000Z</time>
      </trkpt>
      <trkpt lat="48.64999" lon="2.04777">
        <ele>152</ele>
        <time>2011-04-18T11:53:15.000Z</time>
      </trkpt>
      <trkpt lat="48.64996" lon="2.04769">
        <ele>153</ele>
        <time>2011-04-18T11:53:20.000Z</time>
      </trkpt>
      <trkpt lat="48.6499" lon="2.04761">
        <ele>154</ele>
        <time>2011-04-18T11:53:27.000Z</time>
      </trkpt>
      <trkpt lat="48.64983" lon="2.04756">
        <ele>154.39999389648</ele>
        <time>2011-04-18T11:53:34.000Z</time>
      </trkpt>
      <trkpt lat="48.64982" lon="2.04756">
        <ele>154.39999389648</ele>
        <time>2011-04-18T11:53:35.000Z</time>
      </trkpt>
      <trkpt lat="48.64977" lon="2.04752">
        <ele>155</ele>
        <time>2011-04-18T11:53:39.000Z</time>
      </trkpt>
      <trkpt lat="48.64968" lon="2.04747">
        <ele>155.39999389648</ele>
        <time>2011-04-18T11:53:47.000Z</time>
      </trkpt>
      <trkpt lat="48.64958" lon="2.04741">
        <ele>155.80000305176</ele>
        <time>2011-04-18T11:53:55.000Z</time>
      </trkpt>
      <trkpt lat="48.64951" lon="2.04737">
        <ele>155.80000305176</ele>
        <time>2011-04-18T11:54:00.000Z</time>
      </trkpt>
      <trkpt lat="48.6495" lon="2.04736">
        <ele>155.80000305176</ele>
        <time>2011-04-18T11:54:03.000Z</time>
      </trkpt>
      <trkpt lat="48.64944" lon="2.04739">
        <ele>156.80000305176</ele>
        <time>2011-04-18T11:54:15.000Z</time>
      </trkpt>
      <trkpt lat="48.64936" lon="2.04733">
        <ele>157.80000305176</ele>
        <time>2011-04-18T11:54:21.000Z</time>
      </trkpt>
      <trkpt lat="48.64925" lon="2.04725">
        <ele>158.19999694824</ele>
        <time>2011-04-18T11:54:31.000Z</time>
      </trkpt>
      <trkpt lat="48.64917" lon="2.04721">
        <ele>158.80000305176</ele>
        <time>2011-04-18T11:54:38.000Z</time>
      </trkpt>
      <trkpt lat="48.64902" lon="2.04712">
        <ele>159.19999694824</ele>
        <time>2011-04-18T11:54:50.000Z</time>
      </trkpt>
      <trkpt lat="48.64887" lon="2.04703">
        <ele>159.80000305176</ele>
        <time>2011-04-18T11:55:02.000Z</time>
      </trkpt>
      <trkpt lat="48.64885" lon="2.04702">
        <ele>159.80000305176</ele>
        <time>2011-04-18T11:55:04.000Z</time>
      </trkpt>
      <trkpt lat="48.64882" lon="2.04699">
        <ele>160.19999694824</ele>
        <time>2011-04-18T11:55:08.000Z</time>
      </trkpt>
      <trkpt lat="48.64879" lon="2.04697">
        <ele>160.19999694824</ele>
        <time>2011-04-18T11:55:11.000Z</time>
      </trkpt>
      <trkpt lat="48.64871" lon="2.04691">
        <ele>160.60000610352</ele>
        <time>2011-04-18T11:55:18.000Z</time>
      </trkpt>
      <trkpt lat="48.64868" lon="2.0469">
        <ele>160.60000610352</ele>
        <time>2011-04-18T11:55:20.000Z</time>
      </trkpt>
      <trkpt lat="48.6486" lon="2.0469">
        <ele>161.60000610352</ele>
        <time>2011-04-18T11:55:27.000Z</time>
      </trkpt>
      <trkpt lat="48.64852" lon="2.04683">
        <ele>162.19999694824</ele>
        <time>2011-04-18T11:55:34.000Z</time>
      </trkpt>
      <trkpt lat="48.64852" lon="2.04682">
        <ele>162.19999694824</ele>
        <time>2011-04-18T11:55:37.000Z</time>
      </trkpt>
      <trkpt lat="48.6485" lon="2.04678">
        <ele>161.60000610352</ele>
        <time>2011-04-18T12:04:00.000Z</time>
      </trkpt>
      <trkpt lat="48.64839" lon="2.04676">
        <ele>163</ele>
        <time>2011-04-18T12:04:08.000Z</time>
      </trkpt>
      <trkpt lat="48.64831" lon="2.04675">
        <ele>163.60000610352</ele>
        <time>2011-04-18T12:04:15.000Z</time>
      </trkpt>
      <trkpt lat="48.64831" lon="2.04673">
        <ele>164.60000610352</ele>
        <time>2011-04-18T12:04:19.000Z</time>
      </trkpt>
      <trkpt lat="48.64825" lon="2.0467">
        <ele>165</ele>
        <time>2011-04-18T12:04:53.000Z</time>
      </trkpt>
      <trkpt lat="48.6482" lon="2.04667">
        <ele>165.39999389648</ele>
        <time>2011-04-18T12:04:56.000Z</time>
      </trkpt>
      <trkpt lat="48.64809" lon="2.04661">
        <ele>165.39999389648</ele>
        <time>2011-04-18T12:05:04.000Z</time>
      </trkpt>
      <trkpt lat="48.64801" lon="2.04656">
        <ele>166</ele>
        <time>2011-04-18T12:05:10.000Z</time>
      </trkpt>
      <trkpt lat="48.64792" lon="2.04649">
        <ele>167</ele>
        <time>2011-04-18T12:05:17.000Z</time>
      </trkpt>
      <trkpt lat="48.64785" lon="2.0464">
        <ele>167.39999389648</ele>
        <time>2011-04-18T12:05:24.000Z</time>
      </trkpt>
      <trkpt lat="48.64778" lon="2.04635">
        <ele>167</ele>
        <time>2011-04-18T12:05:30.000Z</time>
      </trkpt>
      <trkpt lat="48.64768" lon="2.04632">
        <ele>167</ele>
        <time>2011-04-18T12:05:38.000Z</time>
      </trkpt>
      <trkpt lat="48.64757" lon="2.0463">
        <ele>167</ele>
        <time>2011-04-18T12:05:46.000Z</time>
      </trkpt>
      <trkpt lat="48.64748" lon="2.04628">
        <ele>167</ele>
        <time>2011-04-18T12:05:53.000Z</time>
      </trkpt>
      <trkpt lat="48.64732" lon="2.04626">
        <ele>167</ele>
        <time>2011-04-18T12:06:06.000Z</time>
      </trkpt>
      <trkpt lat="48.64715" lon="2.04621">
        <ele>167</ele>
        <time>2011-04-18T12:06:19.000Z</time>
      </trkpt>
      <trkpt lat="48.64708" lon="2.04618">
        <ele>166.39999389648</ele>
        <time>2011-04-18T12:06:26.000Z</time>
      </trkpt>
      <trkpt lat="48.64702" lon="2.04619">
        <ele>166.39999389648</ele>
        <time>2011-04-18T12:06:32.000Z</time>
      </trkpt>
      <trkpt lat="48.64695" lon="2.04634">
        <ele>166.39999389648</ele>
        <time>2011-04-18T12:06:42.000Z</time>
      </trkpt>
      <trkpt lat="48.64691" lon="2.04648">
        <ele>166</ele>
        <time>2011-04-18T12:06:50.000Z</time>
      </trkpt>
      <trkpt lat="48.64686" lon="2.04671">
        <ele>166</ele>
        <time>2011-04-18T12:07:03.000Z</time>
      </trkpt>
      <trkpt lat="48.64683" lon="2.04682">
        <ele>165.39999389648</ele>
        <time>2011-04-18T12:07:09.000Z</time>
      </trkpt>
      <trkpt lat="48.6468" lon="2.04697">
        <ele>165</ele>
        <time>2011-04-18T12:07:17.000Z</time>
      </trkpt>
      <trkpt lat="48.64677" lon="2.04705">
        <ele>166</ele>
        <time>2011-04-18T12:07:21.000Z</time>
      </trkpt>
      <trkpt lat="48.64674" lon="2.0472">
        <ele>167</ele>
        <time>2011-04-18T12:07:29.000Z</time>
      </trkpt>
      <trkpt lat="48.6467" lon="2.04737">
        <ele>167.80000305176</ele>
        <time>2011-04-18T12:07:38.000Z</time>
      </trkpt>
      <trkpt lat="48.64665" lon="2.04751">
        <ele>167.39999389648</ele>
        <time>2011-04-18T12:07:46.000Z</time>
      </trkpt>
      <trkpt lat="48.64665" lon="2.04753">
        <ele>167.39999389648</ele>
        <time>2011-04-18T12:07:47.000Z</time>
      </trkpt>
      <trkpt lat="48.64664" lon="2.0476">
        <ele>167.39999389648</ele>
        <time>2011-04-18T12:07:51.000Z</time>
      </trkpt>
      <trkpt lat="48.64659" lon="2.04779">
        <ele>167</ele>
        <time>2011-04-18T12:08:01.000Z</time>
      </trkpt>
      <trkpt lat="48.64655" lon="2.04798">
        <ele>167.39999389648</ele>
        <time>2011-04-18T12:08:11.000Z</time>
      </trkpt>
      <trkpt lat="48.64655" lon="2.0481">
        <ele>169.39999389648</ele>
        <time>2011-04-18T12:08:17.000Z</time>
      </trkpt>
      <trkpt lat="48.64654" lon="2.04826">
        <ele>168.39999389648</ele>
        <time>2011-04-18T12:08:25.000Z</time>
      </trkpt>
      <trkpt lat="48.64647" lon="2.0484">
        <ele>167.80000305176</ele>
        <time>2011-04-18T12:08:33.000Z</time>
      </trkpt>
      <trkpt lat="48.64642" lon="2.04849">
        <ele>167.39999389648</ele>
        <time>2011-04-18T12:08:39.000Z</time>
      </trkpt>
      <trkpt lat="48.64635" lon="2.04863">
        <ele>168.80000305176</ele>
        <time>2011-04-18T12:08:48.000Z</time>
      </trkpt>
      <trkpt lat="48.64633" lon="2.04866">
        <ele>168.80000305176</ele>
        <time>2011-04-18T12:08:50.000Z</time>
      </trkpt>
      <trkpt lat="48.64627" lon="2.04875">
        <ele>168.39999389648</ele>
        <time>2011-04-18T12:08:57.000Z</time>
      </trkpt>
      <trkpt lat="48.64619" lon="2.04892">
        <ele>168.80000305176</ele>
        <time>2011-04-18T12:09:08.000Z</time>
      </trkpt>
      <trkpt lat="48.64613" lon="2.04903">
        <ele>169.39999389648</ele>
        <time>2011-04-18T12:09:15.000Z</time>
      </trkpt>
      <trkpt lat="48.64604" lon="2.04918">
        <ele>168.39999389648</ele>
        <time>2011-04-18T12:09:25.000Z</time>
      </trkpt>
      <trkpt lat="48.646" lon="2.04926">
        <ele>168.39999389648</ele>
        <time>2011-04-18T12:09:31.000Z</time>
      </trkpt>
      <trkpt lat="48.64595" lon="2.04936">
        <ele>167.80000305176</ele>
        <time>2011-04-18T12:09:37.000Z</time>
      </trkpt>
      <trkpt lat="48.6459" lon="2.04945">
        <ele>167.80000305176</ele>
        <time>2011-04-18T12:09:42.000Z</time>
      </trkpt>
      <trkpt lat="48.64588" lon="2.04949">
        <ele>167.39999389648</ele>
        <time>2011-04-18T12:09:45.000Z</time>
      </trkpt>
      <trkpt lat="48.64583" lon="2.04957">
        <ele>167</ele>
        <time>2011-04-18T12:09:51.000Z</time>
      </trkpt>
      <trkpt lat="48.64574" lon="2.04971">
        <ele>167</ele>
        <time>2011-04-18T12:10:00.000Z</time>
      </trkpt>
      <trkpt lat="48.64569" lon="2.0498">
        <ele>166.39999389648</ele>
        <time>2011-04-18T12:10:07.000Z</time>
      </trkpt>
      <trkpt lat="48.64561" lon="2.04993">
        <ele>165</ele>
        <time>2011-04-18T12:10:16.000Z</time>
      </trkpt>
      <trkpt lat="48.64553" lon="2.05005">
        <ele>165.39999389648</ele>
        <time>2011-04-18T12:10:25.000Z</time>
      </trkpt>
      <trkpt lat="48.64548" lon="2.05014">
        <ele>167.39999389648</ele>
        <time>2011-04-18T12:10:30.000Z</time>
      </trkpt>
      <trkpt lat="48.64543" lon="2.05026">
        <ele>169.80000305176</ele>
        <time>2011-04-18T12:10:38.000Z</time>
      </trkpt>
      <trkpt lat="48.64542" lon="2.05027">
        <ele>170.19999694824</ele>
        <time>2011-04-18T12:10:39.000Z</time>
      </trkpt>
      <trkpt lat="48.64534" lon="2.05037">
        <ele>169.39999389648</ele>
        <time>2011-04-18T12:10:46.000Z</time>
      </trkpt>
      <trkpt lat="48.64528" lon="2.05047">
        <ele>169.80000305176</ele>
        <time>2011-04-18T12:10:53.000Z</time>
      </trkpt>
      <trkpt lat="48.6452" lon="2.05059">
        <ele>169.39999389648</ele>
        <time>2011-04-18T12:11:01.000Z</time>
      </trkpt>
      <trkpt lat="48.64516" lon="2.05067">
        <ele>169.39999389648</ele>
        <time>2011-04-18T12:11:06.000Z</time>
      </trkpt>
      <trkpt lat="48.6451" lon="2.05076">
        <ele>168.39999389648</ele>
        <time>2011-04-18T12:11:12.000Z</time>
      </trkpt>
      <trkpt lat="48.64509" lon="2.05078">
        <ele>168.39999389648</ele>
        <time>2011-04-18T12:11:13.000Z</time>
      </trkpt>
      <trkpt lat="48.64502" lon="2.05088">
        <ele>168.39999389648</ele>
        <time>2011-04-18T12:11:20.000Z</time>
      </trkpt>
      <trkpt lat="48.64497" lon="2.05096">
        <ele>168.39999389648</ele>
        <time>2011-04-18T12:11:26.000Z</time>
      </trkpt>
      <trkpt lat="48.6449" lon="2.05107">
        <ele>167.80000305176</ele>
        <time>2011-04-18T12:11:34.000Z</time>
      </trkpt>
      <trkpt lat="48.64482" lon="2.05121">
        <ele>168.80000305176</ele>
        <time>2011-04-18T12:11:43.000Z</time>
      </trkpt>
      <trkpt lat="48.64476" lon="2.0513">
        <ele>169.39999389648</ele>
        <time>2011-04-18T12:11:49.000Z</time>
      </trkpt>
      <trkpt lat="48.64468" lon="2.05134">
        <ele>168.80000305176</ele>
        <time>2011-04-18T12:11:56.000Z</time>
      </trkpt>
      <trkpt lat="48.64462" lon="2.05142">
        <ele>167.80000305176</ele>
        <time>2011-04-18T12:12:02.000Z</time>
      </trkpt>
      <trkpt lat="48.64455" lon="2.05152">
        <ele>168.80000305176</ele>
        <time>2011-04-18T12:12:09.000Z</time>
      </trkpt>
      <trkpt lat="48.64445" lon="2.05164">
        <ele>168.80000305176</ele>
        <time>2011-04-18T12:12:18.000Z</time>
      </trkpt>
      <trkpt lat="48.64434" lon="2.05176">
        <ele>168.39999389648</ele>
        <time>2011-04-18T12:12:28.000Z</time>
      </trkpt>
      <trkpt lat="48.64426" lon="2.05183">
        <ele>168.80000305176</ele>
        <time>2011-04-18T12:12:34.000Z</time>
      </trkpt>
      <trkpt lat="48.6442" lon="2.05189">
        <ele>169.39999389648</ele>
        <time>2011-04-18T12:12:40.000Z</time>
      </trkpt>
      <trkpt lat="48.64414" lon="2.05196">
        <ele>169.80000305176</ele>
        <time>2011-04-18T12:12:46.000Z</time>
      </trkpt>
      <trkpt lat="48.64401" lon="2.0521">
        <ele>170.19999694824</ele>
        <time>2011-04-18T12:12:57.000Z</time>
      </trkpt>
      <trkpt lat="48.64392" lon="2.05221">
        <ele>170.80000305176</ele>
        <time>2011-04-18T12:13:05.000Z</time>
      </trkpt>
      <trkpt lat="48.64384" lon="2.05231">
        <ele>171.19999694824</ele>
        <time>2011-04-18T12:13:14.000Z</time>
      </trkpt>
      <trkpt lat="48.64383" lon="2.05232">
        <ele>170.80000305176</ele>
        <time>2011-04-18T12:13:15.000Z</time>
      </trkpt>
      <trkpt lat="48.64376" lon="2.05241">
        <ele>171.19999694824</ele>
        <time>2011-04-18T12:13:22.000Z</time>
      </trkpt>
      <trkpt lat="48.64371" lon="2.05244">
        <ele>171.80000305176</ele>
        <time>2011-04-18T12:13:26.000Z</time>
      </trkpt>
      <trkpt lat="48.64365" lon="2.05258">
        <ele>171.19999694824</ele>
        <time>2011-04-18T12:13:35.000Z</time>
      </trkpt>
      <trkpt lat="48.64356" lon="2.05272">
        <ele>170.19999694824</ele>
        <time>2011-04-18T12:13:44.000Z</time>
      </trkpt>
      <trkpt lat="48.64355" lon="2.05273">
        <ele>170.19999694824</ele>
        <time>2011-04-18T12:13:45.000Z</time>
      </trkpt>
      <trkpt lat="48.64348" lon="2.05286">
        <ele>170.19999694824</ele>
        <time>2011-04-18T12:13:54.000Z</time>
      </trkpt>
      <trkpt lat="48.64342" lon="2.05299">
        <ele>170.80000305176</ele>
        <time>2011-04-18T12:14:02.000Z</time>
      </trkpt>
      <trkpt lat="48.64337" lon="2.05311">
        <ele>171.19999694824</ele>
        <time>2011-04-18T12:14:11.000Z</time>
      </trkpt>
      <trkpt lat="48.64337" lon="2.05312">
        <ele>171.80000305176</ele>
        <time>2011-04-18T12:14:13.000Z</time>
      </trkpt>
      <trkpt lat="48.64334" lon="2.0532">
        <ele>171.80000305176</ele>
        <time>2011-04-18T12:14:19.000Z</time>
      </trkpt>
      <trkpt lat="48.64333" lon="2.05321">
        <ele>171.80000305176</ele>
        <time>2011-04-18T12:14:20.000Z</time>
      </trkpt>
      <trkpt lat="48.64327" lon="2.0534">
        <ele>170.80000305176</ele>
        <time>2011-04-18T12:14:30.000Z</time>
      </trkpt>
      <trkpt lat="48.64322" lon="2.05351">
        <ele>171.19999694824</ele>
        <time>2011-04-18T12:14:37.000Z</time>
      </trkpt>
      <trkpt lat="48.64316" lon="2.05366">
        <ele>171.19999694824</ele>
        <time>2011-04-18T12:14:46.000Z</time>
      </trkpt>
      <trkpt lat="48.64309" lon="2.05383">
        <ele>171.19999694824</ele>
        <time>2011-04-18T12:14:56.000Z</time>
      </trkpt>
      <trkpt lat="48.64305" lon="2.05395">
        <ele>170.80000305176</ele>
        <time>2011-04-18T12:15:03.000Z</time>
      </trkpt>
      <trkpt lat="48.64299" lon="2.0541">
        <ele>171.19999694824</ele>
        <time>2011-04-18T12:15:13.000Z</time>
      </trkpt>
      <trkpt lat="48.64297" lon="2.05415">
        <ele>171.80000305176</ele>
        <time>2011-04-18T12:15:18.000Z</time>
      </trkpt>
      <trkpt lat="48.64292" lon="2.0543">
        <ele>171.19999694824</ele>
        <time>2011-04-18T12:15:28.000Z</time>
      </trkpt>
      <trkpt lat="48.6429" lon="2.05434">
        <ele>171.19999694824</ele>
        <time>2011-04-18T12:15:33.000Z</time>
      </trkpt>
      <trkpt lat="48.64287" lon="2.05445">
        <ele>170.80000305176</ele>
        <time>2011-04-18T12:16:15.000Z</time>
      </trkpt>
      <trkpt lat="48.64281" lon="2.05461">
        <ele>170.19999694824</ele>
        <time>2011-04-18T12:16:24.000Z</time>
      </trkpt>
      <trkpt lat="48.64273" lon="2.0548">
        <ele>169.80000305176</ele>
        <time>2011-04-18T12:16:35.000Z</time>
      </trkpt>
      <trkpt lat="48.64263" lon="2.055">
        <ele>170.19999694824</ele>
        <time>2011-04-18T12:16:48.000Z</time>
      </trkpt>
      <trkpt lat="48.64254" lon="2.05517">
        <ele>169.80000305176</ele>
        <time>2011-04-18T12:16:59.000Z</time>
      </trkpt>
      <trkpt lat="48.64244" lon="2.05536">
        <ele>169.80000305176</ele>
        <time>2011-04-18T12:17:11.000Z</time>
      </trkpt>
      <trkpt lat="48.64239" lon="2.05544">
        <ele>169.39999389648</ele>
        <time>2011-04-18T12:17:18.000Z</time>
      </trkpt>
      <trkpt lat="48.64233" lon="2.05555">
        <ele>169.39999389648</ele>
        <time>2011-04-18T12:17:26.000Z</time>
      </trkpt>
      <trkpt lat="48.64221" lon="2.05576">
        <ele>169.39999389648</ele>
        <time>2011-04-18T12:17:39.000Z</time>
      </trkpt>
      <trkpt lat="48.64218" lon="2.05582">
        <ele>169.39999389648</ele>
        <time>2011-04-18T12:17:45.000Z</time>
      </trkpt>
      <trkpt lat="48.64214" lon="2.05589">
        <ele>169.39999389648</ele>
        <time>2011-04-18T12:17:56.000Z</time>
      </trkpt>
      <trkpt lat="48.64203" lon="2.05607">
        <ele>168.80000305176</ele>
        <time>2011-04-18T12:18:07.000Z</time>
      </trkpt>
      <trkpt lat="48.64193" lon="2.05626">
        <ele>168.80000305176</ele>
        <time>2011-04-18T12:18:19.000Z</time>
      </trkpt>
      <trkpt lat="48.64183" lon="2.05643">
        <ele>168.80000305176</ele>
        <time>2011-04-18T12:18:30.000Z</time>
      </trkpt>
      <trkpt lat="48.64176" lon="2.05656">
        <ele>168.80000305176</ele>
        <time>2011-04-18T12:18:39.000Z</time>
      </trkpt>
      <trkpt lat="48.64168" lon="2.0567">
        <ele>169.39999389648</ele>
        <time>2011-04-18T12:18:48.000Z</time>
      </trkpt>
      <trkpt lat="48.6416" lon="2.05683">
        <ele>169.39999389648</ele>
        <time>2011-04-18T12:18:57.000Z</time>
      </trkpt>
      <trkpt lat="48.64155" lon="2.05694">
        <ele>168.80000305176</ele>
        <time>2011-04-18T12:19:04.000Z</time>
      </trkpt>
      <trkpt lat="48.64149" lon="2.05704">
        <ele>168.80000305176</ele>
        <time>2011-04-18T12:19:11.000Z</time>
      </trkpt>
      <trkpt lat="48.64141" lon="2.057">
        <ele>168.39999389648</ele>
        <time>2011-04-18T12:19:18.000Z</time>
      </trkpt>
      <trkpt lat="48.64132" lon="2.05693">
        <ele>167.80000305176</ele>
        <time>2011-04-18T12:19:26.000Z</time>
      </trkpt>
      <trkpt lat="48.64125" lon="2.0568">
        <ele>168.39999389648</ele>
        <time>2011-04-18T12:19:34.000Z</time>
      </trkpt>
      <trkpt lat="48.64117" lon="2.05666">
        <ele>167.80000305176</ele>
        <time>2011-04-18T12:19:43.000Z</time>
      </trkpt>
      <trkpt lat="48.64111" lon="2.05656">
        <ele>167.80000305176</ele>
        <time>2011-04-18T12:19:50.000Z</time>
      </trkpt>
      <trkpt lat="48.641" lon="2.05639">
        <ele>167.80000305176</ele>
        <time>2011-04-18T12:20:01.000Z</time>
      </trkpt>
      <trkpt lat="48.64093" lon="2.05628">
        <ele>167.80000305176</ele>
        <time>2011-04-18T12:20:08.000Z</time>
      </trkpt>
      <trkpt lat="48.64085" lon="2.05614">
        <ele>167.39999389648</ele>
        <time>2011-04-18T12:20:17.000Z</time>
      </trkpt>
      <trkpt lat="48.64074" lon="2.05597">
        <ele>167.39999389648</ele>
        <time>2011-04-18T12:20:28.000Z</time>
      </trkpt>
      <trkpt lat="48.64066" lon="2.05583">
        <ele>167</ele>
        <time>2011-04-18T12:20:37.000Z</time>
      </trkpt>
      <trkpt lat="48.64063" lon="2.05577">
        <ele>167</ele>
        <time>2011-04-18T12:20:42.000Z</time>
      </trkpt>
      <trkpt lat="48.64057" lon="2.05566">
        <ele>167</ele>
        <time>2011-04-18T12:20:49.000Z</time>
      </trkpt>
      <trkpt lat="48.64049" lon="2.05551">
        <ele>167</ele>
        <time>2011-04-18T12:20:58.000Z</time>
      </trkpt>
      <trkpt lat="48.64042" lon="2.05538">
        <ele>167</ele>
        <time>2011-04-18T12:21:06.000Z</time>
      </trkpt>
      <trkpt lat="48.64031" lon="2.05517">
        <ele>166.39999389648</ele>
        <time>2011-04-18T12:21:19.000Z</time>
      </trkpt>
      <trkpt lat="48.64024" lon="2.05503">
        <ele>166.39999389648</ele>
        <time>2011-04-18T12:21:27.000Z</time>
      </trkpt>
      <trkpt lat="48.64016" lon="2.05488">
        <ele>166.39999389648</ele>
        <time>2011-04-18T12:21:36.000Z</time>
      </trkpt>
      <trkpt lat="48.6401" lon="2.05479">
        <ele>167</ele>
        <time>2011-04-18T12:21:42.000Z</time>
      </trkpt>
      <trkpt lat="48.64006" lon="2.05469">
        <ele>166.39999389648</ele>
        <time>2011-04-18T12:21:47.000Z</time>
      </trkpt>
      <trkpt lat="48.63998" lon="2.05454">
        <ele>166.39999389648</ele>
        <time>2011-04-18T12:21:56.000Z</time>
      </trkpt>
      <trkpt lat="48.63995" lon="2.05443">
        <ele>167</ele>
        <time>2011-04-18T12:22:02.000Z</time>
      </trkpt>
      <trkpt lat="48.6399" lon="2.05435">
        <ele>167</ele>
        <time>2011-04-18T12:22:08.000Z</time>
      </trkpt>
      <trkpt lat="48.63987" lon="2.05432">
        <ele>166.39999389648</ele>
        <time>2011-04-18T12:22:11.000Z</time>
      </trkpt>
      <trkpt lat="48.63977" lon="2.05414">
        <ele>167</ele>
        <time>2011-04-18T12:22:22.000Z</time>
      </trkpt>
      <trkpt lat="48.63972" lon="2.05406">
        <ele>167</ele>
        <time>2011-04-18T12:22:28.000Z</time>
      </trkpt>
      <trkpt lat="48.63965" lon="2.05392">
        <ele>167</ele>
        <time>2011-04-18T12:22:36.000Z</time>
      </trkpt>
      <trkpt lat="48.63962" lon="2.05382">
        <ele>167</ele>
        <time>2011-04-18T12:22:42.000Z</time>
      </trkpt>
      <trkpt lat="48.63956" lon="2.05369">
        <ele>167</ele>
        <time>2011-04-18T12:22:51.000Z</time>
      </trkpt>
      <trkpt lat="48.63948" lon="2.05353">
        <ele>167</ele>
        <time>2011-04-18T12:23:00.000Z</time>
      </trkpt>
      <trkpt lat="48.63943" lon="2.05339">
        <ele>167</ele>
        <time>2011-04-18T12:23:08.000Z</time>
      </trkpt>
      <trkpt lat="48.63938" lon="2.05324">
        <ele>167</ele>
        <time>2011-04-18T12:23:16.000Z</time>
      </trkpt>
      <trkpt lat="48.63935" lon="2.05313">
        <ele>166.39999389648</ele>
        <time>2011-04-18T12:23:22.000Z</time>
      </trkpt>
      <trkpt lat="48.63929" lon="2.05301">
        <ele>165.39999389648</ele>
        <time>2011-04-18T12:23:30.000Z</time>
      </trkpt>
      <trkpt lat="48.63923" lon="2.05287">
        <ele>164</ele>
        <time>2011-04-18T12:23:38.000Z</time>
      </trkpt>
      <trkpt lat="48.63919" lon="2.05277">
        <ele>164</ele>
        <time>2011-04-18T12:23:43.000Z</time>
      </trkpt>
      <trkpt lat="48.63912" lon="2.05257">
        <ele>162.60000610352</ele>
        <time>2011-04-18T12:23:54.000Z</time>
      </trkpt>
      <trkpt lat="48.63911" lon="2.05255">
        <ele>162.60000610352</ele>
        <time>2011-04-18T12:23:55.000Z</time>
      </trkpt>
      <trkpt lat="48.63909" lon="2.05247">
        <ele>162.19999694824</ele>
        <time>2011-04-18T12:23:59.000Z</time>
      </trkpt>
      <trkpt lat="48.63905" lon="2.05229">
        <ele>161.60000610352</ele>
        <time>2011-04-18T12:24:09.000Z</time>
      </trkpt>
      <trkpt lat="48.63904" lon="2.05227">
        <ele>162.19999694824</ele>
        <time>2011-04-18T12:24:10.000Z</time>
      </trkpt>
      <trkpt lat="48.63899" lon="2.05211">
        <ele>162.60000610352</ele>
        <time>2011-04-18T12:24:18.000Z</time>
      </trkpt>
      <trkpt lat="48.63896" lon="2.05199">
        <ele>163</ele>
        <time>2011-04-18T12:24:24.000Z</time>
      </trkpt>
      <trkpt lat="48.63895" lon="2.05187">
        <ele>164</ele>
        <time>2011-04-18T12:24:30.000Z</time>
      </trkpt>
      <trkpt lat="48.63893" lon="2.05176">
        <ele>164</ele>
        <time>2011-04-18T12:24:35.000Z</time>
      </trkpt>
      <trkpt lat="48.6389" lon="2.05158">
        <ele>162.60000610352</ele>
        <time>2011-04-18T12:24:43.000Z</time>
      </trkpt>
      <trkpt lat="48.63885" lon="2.05143">
        <ele>159.80000305176</ele>
        <time>2011-04-18T12:24:50.000Z</time>
      </trkpt>
      <trkpt lat="48.63884" lon="2.05139">
        <ele>159.19999694824</ele>
        <time>2011-04-18T12:24:52.000Z</time>
      </trkpt>
      <trkpt lat="48.63882" lon="2.05126">
        <ele>163.60000610352</ele>
        <time>2011-04-18T12:24:58.000Z</time>
      </trkpt>
      <trkpt lat="48.6388" lon="2.05114">
        <ele>162.19999694824</ele>
        <time>2011-04-18T12:25:03.000Z</time>
      </trkpt>
      <trkpt lat="48.6388" lon="2.05109">
        <ele>161.60000610352</ele>
        <time>2011-04-18T12:25:05.000Z</time>
      </trkpt>
      <trkpt lat="48.63878" lon="2.05094">
        <ele>161.60000610352</ele>
        <time>2011-04-18T12:25:12.000Z</time>
      </trkpt>
      <trkpt lat="48.63874" lon="2.05077">
        <ele>160.19999694824</ele>
        <time>2011-04-18T12:25:20.000Z</time>
      </trkpt>
      <trkpt lat="48.63871" lon="2.05064">
        <ele>156.80000305176</ele>
        <time>2011-04-18T12:25:27.000Z</time>
      </trkpt>
      <trkpt lat="48.6387" lon="2.05047">
        <ele>152.60000610352</ele>
        <time>2011-04-18T12:25:36.000Z</time>
      </trkpt>
      <trkpt lat="48.63867" lon="2.05034">
        <ele>151</ele>
        <time>2011-04-18T12:25:42.000Z</time>
      </trkpt>
      <trkpt lat="48.63866" lon="2.05028">
        <ele>153.39999389648</ele>
        <time>2011-04-18T12:25:48.000Z</time>
      </trkpt>
      <trkpt lat="48.63863" lon="2.05013">
        <ele>155.39999389648</ele>
        <time>2011-04-18T12:25:55.000Z</time>
      </trkpt>
      <trkpt lat="48.63859" lon="2.04999">
        <ele>158.80000305176</ele>
        <time>2011-04-18T12:26:02.000Z</time>
      </trkpt>
      <trkpt lat="48.63856" lon="2.04985">
        <ele>159.19999694824</ele>
        <time>2011-04-18T12:26:08.000Z</time>
      </trkpt>
      <trkpt lat="48.63856" lon="2.0498">
        <ele>159.19999694824</ele>
        <time>2011-04-18T12:26:10.000Z</time>
      </trkpt>
      <trkpt lat="48.63852" lon="2.04974">
        <ele>157.39999389648</ele>
        <time>2011-04-18T12:26:15.000Z</time>
      </trkpt>
      <trkpt lat="48.63846" lon="2.04956">
        <ele>153.39999389648</ele>
        <time>2011-04-18T12:26:24.000Z</time>
      </trkpt>
      <trkpt lat="48.63842" lon="2.04946">
        <ele>150.60000610352</ele>
        <time>2011-04-18T12:26:29.000Z</time>
      </trkpt>
      <trkpt lat="48.63838" lon="2.04936">
        <ele>153.39999389648</ele>
        <time>2011-04-18T12:26:33.000Z</time>
      </trkpt>
      <trkpt lat="48.63829" lon="2.04915">
        <ele>158.19999694824</ele>
        <time>2011-04-18T12:26:42.000Z</time>
      </trkpt>
      <trkpt lat="48.63824" lon="2.04902">
        <ele>155.39999389648</ele>
        <time>2011-04-18T12:26:49.000Z</time>
      </trkpt>
      <trkpt lat="48.6382" lon="2.04891">
        <ele>154</ele>
        <time>2011-04-18T12:26:55.000Z</time>
      </trkpt>
      <trkpt lat="48.63813" lon="2.04875">
        <ele>148.60000610352</ele>
        <time>2011-04-18T12:27:04.000Z</time>
      </trkpt>
      <trkpt lat="48.63807" lon="2.04863">
        <ele>147.60000610352</ele>
        <time>2011-04-18T12:27:11.000Z</time>
      </trkpt>
      <trkpt lat="48.63803" lon="2.04854">
        <ele>148.19999694824</ele>
        <time>2011-04-18T12:27:16.000Z</time>
      </trkpt>
      <trkpt lat="48.63795" lon="2.04844">
        <ele>146.19999694824</ele>
        <time>2011-04-18T12:27:24.000Z</time>
      </trkpt>
      <trkpt lat="48.63795" lon="2.04843">
        <ele>145.19999694824</ele>
        <time>2011-04-18T12:27:27.000Z</time>
      </trkpt>
      <trkpt lat="48.6379" lon="2.04835">
        <ele>141.39999389648</ele>
        <time>2011-04-18T12:27:40.000Z</time>
      </trkpt>
      <trkpt lat="48.63785" lon="2.0483">
        <ele>140</ele>
        <time>2011-04-18T12:27:44.000Z</time>
      </trkpt>
      <trkpt lat="48.63781" lon="2.04825">
        <ele>138</ele>
        <time>2011-04-18T12:27:49.000Z</time>
      </trkpt>
      <trkpt lat="48.63771" lon="2.04825">
        <ele>137.19999694824</ele>
        <time>2011-04-18T12:27:56.000Z</time>
      </trkpt>
      <trkpt lat="48.63763" lon="2.04823">
        <ele>139.60000610352</ele>
        <time>2011-04-18T12:28:03.000Z</time>
      </trkpt>
      <trkpt lat="48.63755" lon="2.04823">
        <ele>140.39999389648</ele>
        <time>2011-04-18T12:28:10.000Z</time>
      </trkpt>
      <trkpt lat="48.63745" lon="2.04823">
        <ele>139</ele>
        <time>2011-04-18T12:28:18.000Z</time>
      </trkpt>
      <trkpt lat="48.63743" lon="2.04822">
        <ele>139</ele>
        <time>2011-04-18T12:28:20.000Z</time>
      </trkpt>
      <trkpt lat="48.63739" lon="2.04822">
        <ele>138.60000610352</ele>
        <time>2011-04-18T12:28:24.000Z</time>
      </trkpt>
      <trkpt lat="48.63736" lon="2.04822">
        <ele>136.60000610352</ele>
        <time>2011-04-18T12:28:29.000Z</time>
      </trkpt>
      <trkpt lat="48.63724" lon="2.04819">
        <ele>135.60000610352</ele>
        <time>2011-04-18T12:28:38.000Z</time>
      </trkpt>
      <trkpt lat="48.63717" lon="2.04816">
        <ele>135.60000610352</ele>
        <time>2011-04-18T12:28:44.000Z</time>
      </trkpt>
      <trkpt lat="48.63711" lon="2.04813">
        <ele>135.19999694824</ele>
        <time>2011-04-18T12:28:49.000Z</time>
      </trkpt>
      <trkpt lat="48.63703" lon="2.04806">
        <ele>137.19999694824</ele>
        <time>2011-04-18T12:28:56.000Z</time>
      </trkpt>
      <trkpt lat="48.63693" lon="2.04796">
        <ele>140</ele>
        <time>2011-04-18T12:29:04.000Z</time>
      </trkpt>
      <trkpt lat="48.63692" lon="2.04796">
        <ele>139.60000610352</ele>
        <time>2011-04-18T12:29:05.000Z</time>
      </trkpt>
      <trkpt lat="48.63683" lon="2.04786">
        <ele>138.60000610352</ele>
        <time>2011-04-18T12:29:12.000Z</time>
      </trkpt>
      <trkpt lat="48.63672" lon="2.04774">
        <ele>139</ele>
        <time>2011-04-18T12:29:21.000Z</time>
      </trkpt>
      <trkpt lat="48.63663" lon="2.04764">
        <ele>138.60000610352</ele>
        <time>2011-04-18T12:29:29.000Z</time>
      </trkpt>
      <trkpt lat="48.63654" lon="2.04753">
        <ele>139</ele>
        <time>2011-04-18T12:29:37.000Z</time>
      </trkpt>
      <trkpt lat="48.63648" lon="2.04745">
        <ele>139.60000610352</ele>
        <time>2011-04-18T12:29:43.000Z</time>
      </trkpt>
      <trkpt lat="48.63645" lon="2.04741">
        <ele>139.60000610352</ele>
        <time>2011-04-18T12:29:48.000Z</time>
      </trkpt>
      <trkpt lat="48.63638" lon="2.04728">
        <ele>140</ele>
        <time>2011-04-18T12:29:56.000Z</time>
      </trkpt>
      <trkpt lat="48.63629" lon="2.0471">
        <ele>140</ele>
        <time>2011-04-18T12:30:07.000Z</time>
      </trkpt>
      <trkpt lat="48.63625" lon="2.04696">
        <ele>140</ele>
        <time>2011-04-18T12:30:14.000Z</time>
      </trkpt>
      <trkpt lat="48.63623" lon="2.0469">
        <ele>140.39999389648</ele>
        <time>2011-04-18T12:30:18.000Z</time>
      </trkpt>
      <trkpt lat="48.63623" lon="2.0469">
        <ele>140.39999389648</ele>
        <time>2011-04-18T12:30:21.000Z</time>
      </trkpt>
      <trkpt lat="48.63618" lon="2.04682">
        <ele>141</ele>
        <time>2011-04-18T12:30:31.000Z</time>
      </trkpt>
      <trkpt lat="48.63613" lon="2.04666">
        <ele>141.39999389648</ele>
        <time>2011-04-18T12:30:38.000Z</time>
      </trkpt>
      <trkpt lat="48.63607" lon="2.04645">
        <ele>142</ele>
        <time>2011-04-18T12:30:48.000Z</time>
      </trkpt>
      <trkpt lat="48.63602" lon="2.04625">
        <ele>142.39999389648</ele>
        <time>2011-04-18T12:30:58.000Z</time>
      </trkpt>
      <trkpt lat="48.63599" lon="2.04609">
        <ele>142.39999389648</ele>
        <time>2011-04-18T12:31:07.000Z</time>
      </trkpt>
      <trkpt lat="48.63594" lon="2.0459">
        <ele>142.80000305176</ele>
        <time>2011-04-18T12:31:16.000Z</time>
      </trkpt>
      <trkpt lat="48.63592" lon="2.04579">
        <ele>142.80000305176</ele>
        <time>2011-04-18T12:31:22.000Z</time>
      </trkpt>
      <trkpt lat="48.63589" lon="2.04568">
        <ele>143.39999389648</ele>
        <time>2011-04-18T12:31:28.000Z</time>
      </trkpt>
      <trkpt lat="48.63585" lon="2.04556">
        <ele>142.80000305176</ele>
        <time>2011-04-18T12:31:34.000Z</time>
      </trkpt>
      <trkpt lat="48.63581" lon="2.04541">
        <ele>143.39999389648</ele>
        <time>2011-04-18T12:31:42.000Z</time>
      </trkpt>
      <trkpt lat="48.63577" lon="2.04527">
        <ele>143.80000305176</ele>
        <time>2011-04-18T12:31:49.000Z</time>
      </trkpt>
      <trkpt lat="48.63568" lon="2.04508">
        <ele>144.80000305176</ele>
        <time>2011-04-18T12:32:00.000Z</time>
      </trkpt>
      <trkpt lat="48.63563" lon="2.04497">
        <ele>145.19999694824</ele>
        <time>2011-04-18T12:32:06.000Z</time>
      </trkpt>
      <trkpt lat="48.63557" lon="2.0449">
        <ele>145.80000305176</ele>
        <time>2011-04-18T12:32:12.000Z</time>
      </trkpt>
      <trkpt lat="48.63551" lon="2.04483">
        <ele>145.19999694824</ele>
        <time>2011-04-18T12:32:19.000Z</time>
      </trkpt>
      <trkpt lat="48.63545" lon="2.04475">
        <ele>145.80000305176</ele>
        <time>2011-04-18T12:32:25.000Z</time>
      </trkpt>
      <trkpt lat="48.63538" lon="2.04467">
        <ele>145.80000305176</ele>
        <time>2011-04-18T12:32:32.000Z</time>
      </trkpt>
      <trkpt lat="48.63528" lon="2.04458">
        <ele>146.19999694824</ele>
        <time>2011-04-18T12:32:41.000Z</time>
      </trkpt>
      <trkpt lat="48.63516" lon="2.04446">
        <ele>146.80000305176</ele>
        <time>2011-04-18T12:32:52.000Z</time>
      </trkpt>
      <trkpt lat="48.63508" lon="2.04438">
        <ele>147.19999694824</ele>
        <time>2011-04-18T12:33:00.000Z</time>
      </trkpt>
      <trkpt lat="48.635" lon="2.04429">
        <ele>147.60000610352</ele>
        <time>2011-04-18T12:33:08.000Z</time>
      </trkpt>
      <trkpt lat="48.63496" lon="2.04422">
        <ele>147.60000610352</ele>
        <time>2011-04-18T12:33:13.000Z</time>
      </trkpt>
      <trkpt lat="48.63492" lon="2.04415">
        <ele>147.60000610352</ele>
        <time>2011-04-18T12:33:19.000Z</time>
      </trkpt>
      <trkpt lat="48.6349" lon="2.04413">
        <ele>148.60000610352</ele>
        <time>2011-04-18T12:33:21.000Z</time>
      </trkpt>
      <trkpt lat="48.63485" lon="2.04404">
        <ele>148.60000610352</ele>
        <time>2011-04-18T12:33:27.000Z</time>
      </trkpt>
      <trkpt lat="48.63476" lon="2.04387">
        <ele>149.19999694824</ele>
        <time>2011-04-18T12:33:38.000Z</time>
      </trkpt>
      <trkpt lat="48.6347" lon="2.04375">
        <ele>149.60000610352</ele>
        <time>2011-04-18T12:33:46.000Z</time>
      </trkpt>
      <trkpt lat="48.63463" lon="2.04361">
        <ele>150.60000610352</ele>
        <time>2011-04-18T12:33:56.000Z</time>
      </trkpt>
      <trkpt lat="48.63459" lon="2.04352">
        <ele>151</ele>
        <time>2011-04-18T12:34:03.000Z</time>
      </trkpt>
      <trkpt lat="48.63454" lon="2.0434">
        <ele>151</ele>
        <time>2011-04-18T12:34:11.000Z</time>
      </trkpt>
      <trkpt lat="48.63453" lon="2.04336">
        <ele>151.60000610352</ele>
        <time>2011-04-18T12:34:13.000Z</time>
      </trkpt>
      <trkpt lat="48.63446" lon="2.04321">
        <ele>152</ele>
        <time>2011-04-18T12:34:23.000Z</time>
      </trkpt>
      <trkpt lat="48.63442" lon="2.0431">
        <ele>153</ele>
        <time>2011-04-18T12:34:29.000Z</time>
      </trkpt>
      <trkpt lat="48.63437" lon="2.04297">
        <ele>153.39999389648</ele>
        <time>2011-04-18T12:34:37.000Z</time>
      </trkpt>
      <trkpt lat="48.63431" lon="2.04285">
        <ele>154.39999389648</ele>
        <time>2011-04-18T12:34:46.000Z</time>
      </trkpt>
      <trkpt lat="48.63428" lon="2.04278">
        <ele>155</ele>
        <time>2011-04-18T12:34:51.000Z</time>
      </trkpt>
      <trkpt lat="48.63423" lon="2.04268">
        <ele>155.39999389648</ele>
        <time>2011-04-18T12:34:58.000Z</time>
      </trkpt>
      <trkpt lat="48.63418" lon="2.0426">
        <ele>155.80000305176</ele>
        <time>2011-04-18T12:35:04.000Z</time>
      </trkpt>
      <trkpt lat="48.6341" lon="2.0424">
        <ele>156.39999389648</ele>
        <time>2011-04-18T12:35:15.000Z</time>
      </trkpt>
      <trkpt lat="48.63406" lon="2.04232">
        <ele>156.80000305176</ele>
        <time>2011-04-18T12:35:21.000Z</time>
      </trkpt>
      <trkpt lat="48.63402" lon="2.04222">
        <ele>157.39999389648</ele>
        <time>2011-04-18T12:35:27.000Z</time>
      </trkpt>
      <trkpt lat="48.63396" lon="2.04206">
        <ele>157.80000305176</ele>
        <time>2011-04-18T12:35:37.000Z</time>
      </trkpt>
      <trkpt lat="48.63391" lon="2.0419">
        <ele>158.80000305176</ele>
        <time>2011-04-18T12:35:46.000Z</time>
      </trkpt>
      <trkpt lat="48.6339" lon="2.04184">
        <ele>158.80000305176</ele>
        <time>2011-04-18T12:35:50.000Z</time>
      </trkpt>
      <trkpt lat="48.63389" lon="2.04183">
        <ele>159.19999694824</ele>
        <time>2011-04-18T12:35:53.000Z</time>
      </trkpt>
      <trkpt lat="48.63383" lon="2.04168">
        <ele>159.80000305176</ele>
        <time>2011-04-18T12:38:22.000Z</time>
      </trkpt>
      <trkpt lat="48.63378" lon="2.0415">
        <ele>160.19999694824</ele>
        <time>2011-04-18T12:38:31.000Z</time>
      </trkpt>
      <trkpt lat="48.63374" lon="2.04131">
        <ele>161.19999694824</ele>
        <time>2011-04-18T12:38:41.000Z</time>
      </trkpt>
      <trkpt lat="48.63372" lon="2.04123">
        <ele>161.19999694824</ele>
        <time>2011-04-18T12:38:46.000Z</time>
      </trkpt>
      <trkpt lat="48.63368" lon="2.04112">
        <ele>161.60000610352</ele>
        <time>2011-04-18T12:38:53.000Z</time>
      </trkpt>
      <trkpt lat="48.63367" lon="2.04111">
        <ele>161.60000610352</ele>
        <time>2011-04-18T12:38:54.000Z</time>
      </trkpt>
      <trkpt lat="48.63366" lon="2.04094">
        <ele>162.60000610352</ele>
        <time>2011-04-18T12:39:03.000Z</time>
      </trkpt>
      <trkpt lat="48.63363" lon="2.0408">
        <ele>163</ele>
        <time>2011-04-18T12:39:11.000Z</time>
      </trkpt>
      <trkpt lat="48.63358" lon="2.04056">
        <ele>164</ele>
        <time>2011-04-18T12:39:24.000Z</time>
      </trkpt>
      <trkpt lat="48.63355" lon="2.04042">
        <ele>165</ele>
        <time>2011-04-18T12:39:32.000Z</time>
      </trkpt>
      <trkpt lat="48.6335" lon="2.0402">
        <ele>165.39999389648</ele>
        <time>2011-04-18T12:39:44.000Z</time>
      </trkpt>
      <trkpt lat="48.63348" lon="2.04011">
        <ele>165.39999389648</ele>
        <time>2011-04-18T12:39:51.000Z</time>
      </trkpt>
      <trkpt lat="48.63348" lon="2.04011">
        <ele>165.39999389648</ele>
        <time>2011-04-18T12:39:52.000Z</time>
      </trkpt>
      <trkpt lat="48.63343" lon="2.04007">
        <ele>166</ele>
        <time>2011-04-18T12:40:03.000Z</time>
      </trkpt>
      <trkpt lat="48.63339" lon="2.03995">
        <ele>166.39999389648</ele>
        <time>2011-04-18T12:40:09.000Z</time>
      </trkpt>
      <trkpt lat="48.63332" lon="2.03977">
        <ele>167</ele>
        <time>2011-04-18T12:40:19.000Z</time>
      </trkpt>
      <trkpt lat="48.63325" lon="2.03959">
        <ele>167.80000305176</ele>
        <time>2011-04-18T12:40:30.000Z</time>
      </trkpt>
      <trkpt lat="48.63317" lon="2.03939">
        <ele>167.80000305176</ele>
        <time>2011-04-18T12:40:42.000Z</time>
      </trkpt>
      <trkpt lat="48.6331" lon="2.03921">
        <ele>168.39999389648</ele>
        <time>2011-04-18T12:40:54.000Z</time>
      </trkpt>
      <trkpt lat="48.63302" lon="2.039">
        <ele>168.39999389648</ele>
        <time>2011-04-18T12:41:06.000Z</time>
      </trkpt>
      <trkpt lat="48.63297" lon="2.03889">
        <ele>168.39999389648</ele>
        <time>2011-04-18T12:41:13.000Z</time>
      </trkpt>
      <trkpt lat="48.63291" lon="2.03877">
        <ele>168.39999389648</ele>
        <time>2011-04-18T12:41:21.000Z</time>
      </trkpt>
      <trkpt lat="48.63283" lon="2.03862">
        <ele>168.39999389648</ele>
        <time>2011-04-18T12:41:31.000Z</time>
      </trkpt>
      <trkpt lat="48.63272" lon="2.03844">
        <ele>168.39999389648</ele>
        <time>2011-04-18T12:41:43.000Z</time>
      </trkpt>
      <trkpt lat="48.63268" lon="2.03837">
        <ele>169.39999389648</ele>
        <time>2011-04-18T12:41:48.000Z</time>
      </trkpt>
      <trkpt lat="48.63261" lon="2.03843">
        <ele>168.80000305176</ele>
        <time>2011-04-18T12:41:56.000Z</time>
      </trkpt>
      <trkpt lat="48.63256" lon="2.03856">
        <ele>168.39999389648</ele>
        <time>2011-04-18T12:42:03.000Z</time>
      </trkpt>
      <trkpt lat="48.63255" lon="2.03865">
        <ele>168.39999389648</ele>
        <time>2011-04-18T12:42:09.000Z</time>
      </trkpt>
      <trkpt lat="48.63252" lon="2.03871">
        <ele>168.39999389648</ele>
        <time>2011-04-18T12:42:14.000Z</time>
      </trkpt>
      <trkpt lat="48.63241" lon="2.03885">
        <ele>167.80000305176</ele>
        <time>2011-04-18T12:42:24.000Z</time>
      </trkpt>
      <trkpt lat="48.63239" lon="2.03887">
        <ele>167.39999389648</ele>
        <time>2011-04-18T12:42:28.000Z</time>
      </trkpt>
      <trkpt lat="48.6323" lon="2.03898">
        <ele>167.39999389648</ele>
        <time>2011-04-18T12:43:03.000Z</time>
      </trkpt>
      <trkpt lat="48.63219" lon="2.03912">
        <ele>167</ele>
        <time>2011-04-18T12:43:13.000Z</time>
      </trkpt>
      <trkpt lat="48.63211" lon="2.03917">
        <ele>166</ele>
        <time>2011-04-18T12:43:20.000Z</time>
      </trkpt>
      <trkpt lat="48.63209" lon="2.03919">
        <ele>166</ele>
        <time>2011-04-18T12:43:22.000Z</time>
      </trkpt>
      <trkpt lat="48.63207" lon="2.03922">
        <ele>166</ele>
        <time>2011-04-18T12:43:27.000Z</time>
      </trkpt>
      <trkpt lat="48.63208" lon="2.03931">
        <ele>165.39999389648</ele>
        <time>2011-04-18T12:43:41.000Z</time>
      </trkpt>
      <trkpt lat="48.63205" lon="2.0394">
        <ele>164.60000610352</ele>
        <time>2011-04-18T12:43:45.000Z</time>
      </trkpt>
      <trkpt lat="48.63199" lon="2.03957">
        <ele>163.60000610352</ele>
        <time>2011-04-18T12:43:53.000Z</time>
      </trkpt>
      <trkpt lat="48.63193" lon="2.03981">
        <ele>162.19999694824</ele>
        <time>2011-04-18T12:44:04.000Z</time>
      </trkpt>
      <trkpt lat="48.63189" lon="2.04002">
        <ele>160.60000610352</ele>
        <time>2011-04-18T12:44:14.000Z</time>
      </trkpt>
      <trkpt lat="48.63189" lon="2.04014">
        <ele>159.80000305176</ele>
        <time>2011-04-18T12:44:20.000Z</time>
      </trkpt>
      <trkpt lat="48.63185" lon="2.04029">
        <ele>158.19999694824</ele>
        <time>2011-04-18T12:44:28.000Z</time>
      </trkpt>
      <trkpt lat="48.63184" lon="2.04039">
        <ele>157.80000305176</ele>
        <time>2011-04-18T12:44:35.000Z</time>
      </trkpt>
      <trkpt lat="48.63184" lon="2.04048">
        <ele>156.39999389648</ele>
        <time>2011-04-18T12:44:42.000Z</time>
      </trkpt>
      <trkpt lat="48.63184" lon="2.04067">
        <ele>155</ele>
        <time>2011-04-18T12:44:50.000Z</time>
      </trkpt>
      <trkpt lat="48.63182" lon="2.04086">
        <ele>153.39999389648</ele>
        <time>2011-04-18T12:44:59.000Z</time>
      </trkpt>
      <trkpt lat="48.63183" lon="2.04108">
        <ele>153</ele>
        <time>2011-04-18T12:45:09.000Z</time>
      </trkpt>
      <trkpt lat="48.63183" lon="2.04121">
        <ele>152</ele>
        <time>2011-04-18T12:45:16.000Z</time>
      </trkpt>
      <trkpt lat="48.6318" lon="2.04134">
        <ele>152</ele>
        <time>2011-04-18T12:45:23.000Z</time>
      </trkpt>
      <trkpt lat="48.63175" lon="2.0415">
        <ele>152</ele>
        <time>2011-04-18T12:45:32.000Z</time>
      </trkpt>
      <trkpt lat="48.63168" lon="2.04159">
        <ele>152.60000610352</ele>
        <time>2011-04-18T12:45:39.000Z</time>
      </trkpt>
      <trkpt lat="48.6316" lon="2.04167">
        <ele>152</ele>
        <time>2011-04-18T12:45:47.000Z</time>
      </trkpt>
      <trkpt lat="48.6315" lon="2.04171">
        <ele>152.60000610352</ele>
        <time>2011-04-18T12:45:56.000Z</time>
      </trkpt>
      <trkpt lat="48.63139" lon="2.04171">
        <ele>152.60000610352</ele>
        <time>2011-04-18T12:46:04.000Z</time>
      </trkpt>
      <trkpt lat="48.63128" lon="2.0417">
        <ele>153.39999389648</ele>
        <time>2011-04-18T12:46:13.000Z</time>
      </trkpt>
      <trkpt lat="48.63117" lon="2.04171">
        <ele>154.39999389648</ele>
        <time>2011-04-18T12:46:21.000Z</time>
      </trkpt>
      <trkpt lat="48.63105" lon="2.04175">
        <ele>155</ele>
        <time>2011-04-18T12:46:31.000Z</time>
      </trkpt>
      <trkpt lat="48.63098" lon="2.04185">
        <ele>155</ele>
        <time>2011-04-18T12:46:39.000Z</time>
      </trkpt>
      <trkpt lat="48.63091" lon="2.04196">
        <ele>155</ele>
        <time>2011-04-18T12:46:48.000Z</time>
      </trkpt>
      <trkpt lat="48.6308" lon="2.04218">
        <ele>153.39999389648</ele>
        <time>2011-04-18T12:47:02.000Z</time>
      </trkpt>
      <trkpt lat="48.63073" lon="2.04232">
        <ele>153</ele>
        <time>2011-04-18T12:47:12.000Z</time>
      </trkpt>
      <trkpt lat="48.63068" lon="2.04243">
        <ele>152.60000610352</ele>
        <time>2011-04-18T12:47:19.000Z</time>
      </trkpt>
      <trkpt lat="48.63061" lon="2.04252">
        <ele>152</ele>
        <time>2011-04-18T12:47:27.000Z</time>
      </trkpt>
      <trkpt lat="48.63055" lon="2.04263">
        <ele>152.60000610352</ele>
        <time>2011-04-18T12:47:34.000Z</time>
      </trkpt>
      <trkpt lat="48.63049" lon="2.04278">
        <ele>152</ele>
        <time>2011-04-18T12:47:42.000Z</time>
      </trkpt>
      <trkpt lat="48.63044" lon="2.04289">
        <ele>151</ele>
        <time>2011-04-18T12:47:49.000Z</time>
      </trkpt>
      <trkpt lat="48.6304" lon="2.04301">
        <ele>149.19999694824</ele>
        <time>2011-04-18T12:47:55.000Z</time>
      </trkpt>
      <trkpt lat="48.63034" lon="2.04317">
        <ele>147.60000610352</ele>
        <time>2011-04-18T12:48:04.000Z</time>
      </trkpt>
      <trkpt lat="48.63026" lon="2.04337">
        <ele>146.80000305176</ele>
        <time>2011-04-18T12:48:15.000Z</time>
      </trkpt>
      <trkpt lat="48.6302" lon="2.04351">
        <ele>144.39999389648</ele>
        <time>2011-04-18T12:48:24.000Z</time>
      </trkpt>
      <trkpt lat="48.63015" lon="2.04365">
        <ele>142.80000305176</ele>
        <time>2011-04-18T12:48:32.000Z</time>
      </trkpt>
      <trkpt lat="48.63013" lon="2.0437">
        <ele>142.39999389648</ele>
        <time>2011-04-18T12:48:35.000Z</time>
      </trkpt>
      <trkpt lat="48.63008" lon="2.04376">
        <ele>142</ele>
        <time>2011-04-18T12:48:40.000Z</time>
      </trkpt>
      <trkpt lat="48.63003" lon="2.04386">
        <ele>143.39999389648</ele>
        <time>2011-04-18T12:48:48.000Z</time>
      </trkpt>
      <trkpt lat="48.63001" lon="2.04392">
        <ele>142.39999389648</ele>
        <time>2011-04-18T12:48:51.000Z</time>
      </trkpt>
      <trkpt lat="48.62992" lon="2.04414">
        <ele>140.39999389648</ele>
        <time>2011-04-18T12:49:03.000Z</time>
      </trkpt>
      <trkpt lat="48.62985" lon="2.04431">
        <ele>141.39999389648</ele>
        <time>2011-04-18T12:49:12.000Z</time>
      </trkpt>
      <trkpt lat="48.62981" lon="2.04441">
        <ele>140</ele>
        <time>2011-04-18T12:49:19.000Z</time>
      </trkpt>
      <trkpt lat="48.62974" lon="2.04458">
        <ele>138</ele>
        <time>2011-04-18T12:49:30.000Z</time>
      </trkpt>
      <trkpt lat="48.62972" lon="2.04464">
        <ele>137.60000610352</ele>
        <time>2011-04-18T12:49:33.000Z</time>
      </trkpt>
      <trkpt lat="48.62964" lon="2.0448">
        <ele>137.19999694824</ele>
        <time>2011-04-18T12:49:43.000Z</time>
      </trkpt>
      <trkpt lat="48.62956" lon="2.04498">
        <ele>136.19999694824</ele>
        <time>2011-04-18T12:49:53.000Z</time>
      </trkpt>
      <trkpt lat="48.62952" lon="2.04511">
        <ele>135.60000610352</ele>
        <time>2011-04-18T12:50:00.000Z</time>
      </trkpt>
      <trkpt lat="48.62946" lon="2.04527">
        <ele>134.80000305176</ele>
        <time>2011-04-18T12:50:09.000Z</time>
      </trkpt>
      <trkpt lat="48.62946" lon="2.04527">
        <ele>134.80000305176</ele>
        <time>2011-04-18T12:50:12.000Z</time>
      </trkpt>
      <trkpt lat="48.62941" lon="2.0454">
        <ele>134.19999694824</ele>
        <time>2011-04-18T12:50:34.000Z</time>
      </trkpt>
      <trkpt lat="48.62934" lon="2.04562">
        <ele>132.39999389648</ele>
        <time>2011-04-18T12:50:44.000Z</time>
      </trkpt>
      <trkpt lat="48.6293" lon="2.04573">
        <ele>130.80000305176</ele>
        <time>2011-04-18T12:50:50.000Z</time>
      </trkpt>
      <trkpt lat="48.62926" lon="2.04587">
        <ele>131.39999389648</ele>
        <time>2011-04-18T12:50:56.000Z</time>
      </trkpt>
      <trkpt lat="48.62928" lon="2.04598">
        <ele>131.39999389648</ele>
        <time>2011-04-18T12:51:03.000Z</time>
      </trkpt>
      <trkpt lat="48.62926" lon="2.04611">
        <ele>131.39999389648</ele>
        <time>2011-04-18T12:51:10.000Z</time>
      </trkpt>
      <trkpt lat="48.62926" lon="2.04623">
        <ele>130</ele>
        <time>2011-04-18T12:51:16.000Z</time>
      </trkpt>
      <trkpt lat="48.62932" lon="2.04633">
        <ele>128.39999389648</ele>
        <time>2011-04-18T12:51:23.000Z</time>
      </trkpt>
      <trkpt lat="48.62937" lon="2.04639">
        <ele>128.39999389648</ele>
        <time>2011-04-18T12:51:29.000Z</time>
      </trkpt>
      <trkpt lat="48.62945" lon="2.04645">
        <ele>128</ele>
        <time>2011-04-18T12:51:36.000Z</time>
      </trkpt>
      <trkpt lat="48.62952" lon="2.0465">
        <ele>127</ele>
        <time>2011-04-18T12:51:41.000Z</time>
      </trkpt>
      <trkpt lat="48.62962" lon="2.04662">
        <ele>126.59999847412</ele>
        <time>2011-04-18T12:51:50.000Z</time>
      </trkpt>
      <trkpt lat="48.62968" lon="2.04677">
        <ele>127.59999847412</ele>
        <time>2011-04-18T12:51:59.000Z</time>
      </trkpt>
      <trkpt lat="48.62975" lon="2.04693">
        <ele>127</ele>
        <time>2011-04-18T12:52:07.000Z</time>
      </trkpt>
      <trkpt lat="48.62984" lon="2.04709">
        <ele>126.59999847412</ele>
        <time>2011-04-18T12:52:16.000Z</time>
      </trkpt>
      <trkpt lat="48.62995" lon="2.04724">
        <ele>126</ele>
        <time>2011-04-18T12:52:26.000Z</time>
      </trkpt>
      <trkpt lat="48.63005" lon="2.04739">
        <ele>126.59999847412</ele>
        <time>2011-04-18T12:52:36.000Z</time>
      </trkpt>
      <trkpt lat="48.63015" lon="2.04754">
        <ele>127</ele>
        <time>2011-04-18T12:52:46.000Z</time>
      </trkpt>
      <trkpt lat="48.63024" lon="2.0477">
        <ele>126.59999847412</ele>
        <time>2011-04-18T12:52:56.000Z</time>
      </trkpt>
      <trkpt lat="48.63036" lon="2.04788">
        <ele>126.59999847412</ele>
        <time>2011-04-18T12:53:07.000Z</time>
      </trkpt>
      <trkpt lat="48.63043" lon="2.048">
        <ele>126.59999847412</ele>
        <time>2011-04-18T12:53:15.000Z</time>
      </trkpt>
      <trkpt lat="48.63049" lon="2.04811">
        <ele>126</ele>
        <time>2011-04-18T12:53:22.000Z</time>
      </trkpt>
      <trkpt lat="48.63058" lon="2.04826">
        <ele>126</ele>
        <time>2011-04-18T12:53:31.000Z</time>
      </trkpt>
      <trkpt lat="48.63067" lon="2.04844">
        <ele>126.59999847412</ele>
        <time>2011-04-18T12:53:41.000Z</time>
      </trkpt>
      <trkpt lat="48.63077" lon="2.04866">
        <ele>126</ele>
        <time>2011-04-18T12:53:53.000Z</time>
      </trkpt>
      <trkpt lat="48.63086" lon="2.04884">
        <ele>126</ele>
        <time>2011-04-18T12:54:04.000Z</time>
      </trkpt>
      <trkpt lat="48.63094" lon="2.04898">
        <ele>126.59999847412</ele>
        <time>2011-04-18T12:54:13.000Z</time>
      </trkpt>
      <trkpt lat="48.63099" lon="2.04912">
        <ele>126</ele>
        <time>2011-04-18T12:54:21.000Z</time>
      </trkpt>
      <trkpt lat="48.63106" lon="2.04925">
        <ele>126</ele>
        <time>2011-04-18T12:54:28.000Z</time>
      </trkpt>
      <trkpt lat="48.63113" lon="2.04939">
        <ele>126.59999847412</ele>
        <time>2011-04-18T12:54:36.000Z</time>
      </trkpt>
      <trkpt lat="48.63122" lon="2.0496">
        <ele>127.59999847412</ele>
        <time>2011-04-18T12:54:48.000Z</time>
      </trkpt>
      <trkpt lat="48.63128" lon="2.04975">
        <ele>128.39999389648</ele>
        <time>2011-04-18T12:54:57.000Z</time>
      </trkpt>
      <trkpt lat="48.63136" lon="2.0499">
        <ele>129</ele>
        <time>2011-04-18T12:55:06.000Z</time>
      </trkpt>
      <trkpt lat="48.63143" lon="2.05001">
        <ele>129.39999389648</ele>
        <time>2011-04-18T12:55:12.000Z</time>
      </trkpt>
      <trkpt lat="48.63149" lon="2.0501">
        <ele>130</ele>
        <time>2011-04-18T12:55:18.000Z</time>
      </trkpt>
      <trkpt lat="48.63155" lon="2.05022">
        <ele>130.39999389648</ele>
        <time>2011-04-18T12:55:25.000Z</time>
      </trkpt>
      <trkpt lat="48.63162" lon="2.05038">
        <ele>130.39999389648</ele>
        <time>2011-04-18T12:55:34.000Z</time>
      </trkpt>
      <trkpt lat="48.63168" lon="2.05054">
        <ele>130.80000305176</ele>
        <time>2011-04-18T12:55:43.000Z</time>
      </trkpt>
      <trkpt lat="48.63169" lon="2.05056">
        <ele>130.80000305176</ele>
        <time>2011-04-18T12:55:46.000Z</time>
      </trkpt>
      <trkpt lat="48.63166" lon="2.05061">
        <ele>131.80000305176</ele>
        <time>2011-04-18T12:57:19.000Z</time>
      </trkpt>
      <trkpt lat="48.63162" lon="2.05064">
        <ele>131.80000305176</ele>
        <time>2011-04-18T12:57:24.000Z</time>
      </trkpt>
      <trkpt lat="48.63156" lon="2.05067">
        <ele>131.39999389648</ele>
        <time>2011-04-18T12:57:32.000Z</time>
      </trkpt>
      <trkpt lat="48.63149" lon="2.05069">
        <ele>130.80000305176</ele>
        <time>2011-04-18T12:57:38.000Z</time>
      </trkpt>
      <trkpt lat="48.6315" lon="2.05069">
        <ele>130.80000305176</ele>
        <time>2011-04-18T12:57:39.000Z</time>
      </trkpt>
      <trkpt lat="48.63156" lon="2.05066">
        <ele>131.39999389648</ele>
        <time>2011-04-18T12:57:57.000Z</time>
      </trkpt>
      <trkpt lat="48.63164" lon="2.05059">
        <ele>131.80000305176</ele>
        <time>2011-04-18T12:58:03.000Z</time>
      </trkpt>
      <trkpt lat="48.63171" lon="2.05062">
        <ele>131.39999389648</ele>
        <time>2011-04-18T12:58:08.000Z</time>
      </trkpt>
      <trkpt lat="48.63181" lon="2.05077">
        <ele>130.39999389648</ele>
        <time>2011-04-18T12:58:17.000Z</time>
      </trkpt>
      <trkpt lat="48.63185" lon="2.05081">
        <ele>130.39999389648</ele>
        <time>2011-04-18T12:58:19.000Z</time>
      </trkpt>
      <trkpt lat="48.63192" lon="2.05093">
        <ele>130.39999389648</ele>
        <time>2011-04-18T12:58:26.000Z</time>
      </trkpt>
      <trkpt lat="48.63196" lon="2.05099">
        <ele>130.39999389648</ele>
        <time>2011-04-18T12:58:30.000Z</time>
      </trkpt>
      <trkpt lat="48.632" lon="2.05104">
        <ele>130.39999389648</ele>
        <time>2011-04-18T12:58:34.000Z</time>
      </trkpt>
      <trkpt lat="48.63209" lon="2.05114">
        <ele>129</ele>
        <time>2011-04-18T12:58:42.000Z</time>
      </trkpt>
      <trkpt lat="48.63212" lon="2.05118">
        <ele>129</ele>
        <time>2011-04-18T12:58:47.000Z</time>
      </trkpt>
      <trkpt lat="48.63214" lon="2.0512">
        <ele>129</ele>
        <time>2011-04-18T12:58:51.000Z</time>
      </trkpt>
      <trkpt lat="48.63221" lon="2.05129">
        <ele>128</ele>
        <time>2011-04-18T12:59:00.000Z</time>
      </trkpt>
      <trkpt lat="48.63232" lon="2.05138">
        <ele>127.59999847412</ele>
        <time>2011-04-18T12:59:08.000Z</time>
      </trkpt>
      <trkpt lat="48.63242" lon="2.05148">
        <ele>127</ele>
        <time>2011-04-18T12:59:17.000Z</time>
      </trkpt>
      <trkpt lat="48.6325" lon="2.05154">
        <ele>127.59999847412</ele>
        <time>2011-04-18T12:59:24.000Z</time>
      </trkpt>
      <trkpt lat="48.63253" lon="2.05156">
        <ele>129</ele>
        <time>2011-04-18T12:59:29.000Z</time>
      </trkpt>
      <trkpt lat="48.63257" lon="2.05152">
        <ele>133.80000305176</ele>
        <time>2011-04-18T13:00:29.000Z</time>
      </trkpt>
      <trkpt lat="48.63256" lon="2.05152">
        <ele>134.19999694824</ele>
        <time>2011-04-18T13:00:30.000Z</time>
      </trkpt>
      <trkpt lat="48.63263" lon="2.05159">
        <ele>129.39999389648</ele>
        <time>2011-04-18T13:00:42.000Z</time>
      </trkpt>
      <trkpt lat="48.63274" lon="2.05167">
        <ele>129.39999389648</ele>
        <time>2011-04-18T13:00:50.000Z</time>
      </trkpt>
      <trkpt lat="48.63283" lon="2.05172">
        <ele>130</ele>
        <time>2011-04-18T13:00:57.000Z</time>
      </trkpt>
      <trkpt lat="48.63294" lon="2.05177">
        <ele>130.39999389648</ele>
        <time>2011-04-18T13:01:06.000Z</time>
      </trkpt>
      <trkpt lat="48.63303" lon="2.05179">
        <ele>131.39999389648</ele>
        <time>2011-04-18T13:01:13.000Z</time>
      </trkpt>
      <trkpt lat="48.63313" lon="2.05181">
        <ele>130.80000305176</ele>
        <time>2011-04-18T13:01:20.000Z</time>
      </trkpt>
      <trkpt lat="48.63316" lon="2.05183">
        <ele>130.80000305176</ele>
        <time>2011-04-18T13:01:23.000Z</time>
      </trkpt>
      <trkpt lat="48.63318" lon="2.05184">
        <ele>130.80000305176</ele>
        <time>2011-04-18T13:01:27.000Z</time>
      </trkpt>
      <trkpt lat="48.63287" lon="2.0517">
        <ele>127</ele>
        <time>2011-04-18T13:02:09.000Z</time>
      </trkpt>
      <trkpt lat="48.63274" lon="2.05166">
        <ele>127</ele>
        <time>2011-04-18T13:02:17.000Z</time>
      </trkpt>
      <trkpt lat="48.63268" lon="2.05163">
        <ele>127.59999847412</ele>
        <time>2011-04-18T13:02:22.000Z</time>
      </trkpt>
      <trkpt lat="48.63267" lon="2.05162">
        <ele>127.59999847412</ele>
        <time>2011-04-18T13:02:23.000Z</time>
      </trkpt>
      <trkpt lat="48.63257" lon="2.05157">
        <ele>126.59999847412</ele>
        <time>2011-04-18T13:02:30.000Z</time>
      </trkpt>
      <trkpt lat="48.63251" lon="2.05153">
        <ele>127</ele>
        <time>2011-04-18T13:02:35.000Z</time>
      </trkpt>
      <trkpt lat="48.63242" lon="2.05145">
        <ele>126.59999847412</ele>
        <time>2011-04-18T13:02:42.000Z</time>
      </trkpt>
      <trkpt lat="48.63229" lon="2.05134">
        <ele>127</ele>
        <time>2011-04-18T13:02:53.000Z</time>
      </trkpt>
      <trkpt lat="48.63218" lon="2.05123">
        <ele>128</ele>
        <time>2011-04-18T13:03:01.000Z</time>
      </trkpt>
      <trkpt lat="48.63206" lon="2.05111">
        <ele>127</ele>
        <time>2011-04-18T13:03:11.000Z</time>
      </trkpt>
      <trkpt lat="48.63199" lon="2.05102">
        <ele>128</ele>
        <time>2011-04-18T13:03:18.000Z</time>
      </trkpt>
      <trkpt lat="48.63188" lon="2.05089">
        <ele>130</ele>
        <time>2011-04-18T13:03:28.000Z</time>
      </trkpt>
      <trkpt lat="48.63181" lon="2.05075">
        <ele>130.39999389648</ele>
        <time>2011-04-18T13:03:36.000Z</time>
      </trkpt>
      <trkpt lat="48.63174" lon="2.05066">
        <ele>131.39999389648</ele>
        <time>2011-04-18T13:03:43.000Z</time>
      </trkpt>
      <trkpt lat="48.63166" lon="2.05065">
        <ele>131.80000305176</ele>
        <time>2011-04-18T13:03:50.000Z</time>
      </trkpt>
      <trkpt lat="48.63154" lon="2.05072">
        <ele>133.80000305176</ele>
        <time>2011-04-18T13:03:58.000Z</time>
      </trkpt>
      <trkpt lat="48.63144" lon="2.05075">
        <ele>135.19999694824</ele>
        <time>2011-04-18T13:04:06.000Z</time>
      </trkpt>
      <trkpt lat="48.63138" lon="2.05081">
        <ele>135.60000610352</ele>
        <time>2011-04-18T13:04:13.000Z</time>
      </trkpt>
      <trkpt lat="48.63132" lon="2.0509">
        <ele>137.19999694824</ele>
        <time>2011-04-18T13:04:19.000Z</time>
      </trkpt>
      <trkpt lat="48.63122" lon="2.05096">
        <ele>136.60000610352</ele>
        <time>2011-04-18T13:04:27.000Z</time>
      </trkpt>
      <trkpt lat="48.63112" lon="2.05098">
        <ele>136.19999694824</ele>
        <time>2011-04-18T13:04:35.000Z</time>
      </trkpt>
      <trkpt lat="48.63104" lon="2.05099">
        <ele>136.60000610352</ele>
        <time>2011-04-18T13:04:42.000Z</time>
      </trkpt>
      <trkpt lat="48.63095" lon="2.05094">
        <ele>135.19999694824</ele>
        <time>2011-04-18T13:04:50.000Z</time>
      </trkpt>
      <trkpt lat="48.63088" lon="2.05089">
        <ele>134.80000305176</ele>
        <time>2011-04-18T13:04:58.000Z</time>
      </trkpt>
      <trkpt lat="48.63081" lon="2.05084">
        <ele>134.80000305176</ele>
        <time>2011-04-18T13:05:04.000Z</time>
      </trkpt>
      <trkpt lat="48.63074" lon="2.0508">
        <ele>136.60000610352</ele>
        <time>2011-04-18T13:05:10.000Z</time>
      </trkpt>
      <trkpt lat="48.63067" lon="2.05071">
        <ele>137.60000610352</ele>
        <time>2011-04-18T13:05:16.000Z</time>
      </trkpt>
      <trkpt lat="48.63055" lon="2.0506">
        <ele>139.60000610352</ele>
        <time>2011-04-18T13:05:25.000Z</time>
      </trkpt>
      <trkpt lat="48.63045" lon="2.05053">
        <ele>141</ele>
        <time>2011-04-18T13:05:32.000Z</time>
      </trkpt>
      <trkpt lat="48.6304" lon="2.05044">
        <ele>142</ele>
        <time>2011-04-18T13:05:38.000Z</time>
      </trkpt>
      <trkpt lat="48.63032" lon="2.05033">
        <ele>142</ele>
        <time>2011-04-18T13:05:46.000Z</time>
      </trkpt>
      <trkpt lat="48.63023" lon="2.05025">
        <ele>144.39999389648</ele>
        <time>2011-04-18T13:05:54.000Z</time>
      </trkpt>
      <trkpt lat="48.63022" lon="2.05024">
        <ele>144.39999389648</ele>
        <time>2011-04-18T13:05:55.000Z</time>
      </trkpt>
      <trkpt lat="48.63019" lon="2.05024">
        <ele>145.19999694824</ele>
        <time>2011-04-18T13:05:58.000Z</time>
      </trkpt>
      <trkpt lat="48.63007" lon="2.05021">
        <ele>144.80000305176</ele>
        <time>2011-04-18T13:06:06.000Z</time>
      </trkpt>
      <trkpt lat="48.62998" lon="2.05019">
        <ele>142.39999389648</ele>
        <time>2011-04-18T13:06:13.000Z</time>
      </trkpt>
      <trkpt lat="48.62989" lon="2.05017">
        <ele>142.39999389648</ele>
        <time>2011-04-18T13:06:20.000Z</time>
      </trkpt>
      <trkpt lat="48.62989" lon="2.05017">
        <ele>142.39999389648</ele>
        <time>2011-04-18T13:06:23.000Z</time>
      </trkpt>
      <trkpt lat="48.6297" lon="2.05018">
        <ele>142.39999389648</ele>
        <time>2011-04-18T13:07:08.000Z</time>
      </trkpt>
      <trkpt lat="48.62961" lon="2.05016">
        <ele>140.39999389648</ele>
        <time>2011-04-18T13:07:15.000Z</time>
      </trkpt>
      <trkpt lat="48.62951" lon="2.05011">
        <ele>140.39999389648</ele>
        <time>2011-04-18T13:07:23.000Z</time>
      </trkpt>
      <trkpt lat="48.62939" lon="2.05004">
        <ele>140.39999389648</ele>
        <time>2011-04-18T13:07:33.000Z</time>
      </trkpt>
      <trkpt lat="48.62929" lon="2.05">
        <ele>139.60000610352</ele>
        <time>2011-04-18T13:07:41.000Z</time>
      </trkpt>
      <trkpt lat="48.62916" lon="2.04994">
        <ele>140</ele>
        <time>2011-04-18T13:07:52.000Z</time>
      </trkpt>
      <trkpt lat="48.62907" lon="2.0499">
        <ele>139.60000610352</ele>
        <time>2011-04-18T13:07:59.000Z</time>
      </trkpt>
      <trkpt lat="48.629" lon="2.04986">
        <ele>138.60000610352</ele>
        <time>2011-04-18T13:08:06.000Z</time>
      </trkpt>
      <trkpt lat="48.62896" lon="2.04985">
        <ele>138</ele>
        <time>2011-04-18T13:08:10.000Z</time>
      </trkpt>
      <trkpt lat="48.62885" lon="2.04982">
        <ele>137.19999694824</ele>
        <time>2011-04-18T13:08:19.000Z</time>
      </trkpt>
      <trkpt lat="48.62873" lon="2.0498">
        <ele>136.19999694824</ele>
        <time>2011-04-18T13:08:29.000Z</time>
      </trkpt>
      <trkpt lat="48.62862" lon="2.04978">
        <ele>135.19999694824</ele>
        <time>2011-04-18T13:08:38.000Z</time>
      </trkpt>
      <trkpt lat="48.62854" lon="2.04975">
        <ele>134.80000305176</ele>
        <time>2011-04-18T13:08:45.000Z</time>
      </trkpt>
      <trkpt lat="48.62839" lon="2.04974">
        <ele>133.80000305176</ele>
        <time>2011-04-18T13:08:57.000Z</time>
      </trkpt>
      <trkpt lat="48.62825" lon="2.04974">
        <ele>133.19999694824</ele>
        <time>2011-04-18T13:09:07.000Z</time>
      </trkpt>
      <trkpt lat="48.62823" lon="2.04974">
        <ele>133.80000305176</ele>
        <time>2011-04-18T13:09:09.000Z</time>
      </trkpt>
      <trkpt lat="48.62818" lon="2.04979">
        <ele>134.80000305176</ele>
        <time>2011-04-18T13:09:15.000Z</time>
      </trkpt>
      <trkpt lat="48.62814" lon="2.04993">
        <ele>135.19999694824</ele>
        <time>2011-04-18T13:09:23.000Z</time>
      </trkpt>
      <trkpt lat="48.62812" lon="2.0501">
        <ele>134.80000305176</ele>
        <time>2011-04-18T13:09:33.000Z</time>
      </trkpt>
      <trkpt lat="48.62809" lon="2.05027">
        <ele>135.19999694824</ele>
        <time>2011-04-18T13:09:42.000Z</time>
      </trkpt>
      <trkpt lat="48.62805" lon="2.0505">
        <ele>135.60000610352</ele>
        <time>2011-04-18T13:09:54.000Z</time>
      </trkpt>
      <trkpt lat="48.62803" lon="2.05057">
        <ele>135.60000610352</ele>
        <time>2011-04-18T13:09:58.000Z</time>
      </trkpt>
      <trkpt lat="48.62796" lon="2.05075">
        <ele>135.60000610352</ele>
        <time>2011-04-18T13:10:10.000Z</time>
      </trkpt>
      <trkpt lat="48.62791" lon="2.05087">
        <ele>136.60000610352</ele>
        <time>2011-04-18T13:10:17.000Z</time>
      </trkpt>
      <trkpt lat="48.62784" lon="2.05098">
        <ele>136.19999694824</ele>
        <time>2011-04-18T13:10:25.000Z</time>
      </trkpt>
      <trkpt lat="48.62775" lon="2.05106">
        <ele>137.19999694824</ele>
        <time>2011-04-18T13:10:33.000Z</time>
      </trkpt>
      <trkpt lat="48.62766" lon="2.05112">
        <ele>138.60000610352</ele>
        <time>2011-04-18T13:10:40.000Z</time>
      </trkpt>
      <trkpt lat="48.62761" lon="2.05115">
        <ele>139</ele>
        <time>2011-04-18T13:10:46.000Z</time>
      </trkpt>
      <trkpt lat="48.62759" lon="2.05125">
        <ele>141.39999389648</ele>
        <time>2011-04-18T13:10:53.000Z</time>
      </trkpt>
      <trkpt lat="48.62759" lon="2.05137">
        <ele>142</ele>
        <time>2011-04-18T13:10:59.000Z</time>
      </trkpt>
      <trkpt lat="48.62759" lon="2.05141">
        <ele>142</ele>
        <time>2011-04-18T13:11:01.000Z</time>
      </trkpt>
      <trkpt lat="48.6276" lon="2.05154">
        <ele>142.39999389648</ele>
        <time>2011-04-18T13:11:08.000Z</time>
      </trkpt>
      <trkpt lat="48.62761" lon="2.0517">
        <ele>142.39999389648</ele>
        <time>2011-04-18T13:11:16.000Z</time>
      </trkpt>
      <trkpt lat="48.62759" lon="2.05185">
        <ele>144.39999389648</ele>
        <time>2011-04-18T13:11:24.000Z</time>
      </trkpt>
      <trkpt lat="48.62754" lon="2.05201">
        <ele>146.19999694824</ele>
        <time>2011-04-18T13:11:33.000Z</time>
      </trkpt>
      <trkpt lat="48.62752" lon="2.05211">
        <ele>147.60000610352</ele>
        <time>2011-04-18T13:11:39.000Z</time>
      </trkpt>
      <trkpt lat="48.6275" lon="2.05224">
        <ele>147.19999694824</ele>
        <time>2011-04-18T13:11:46.000Z</time>
      </trkpt>
      <trkpt lat="48.62751" lon="2.05244">
        <ele>148.19999694824</ele>
        <time>2011-04-18T13:11:56.000Z</time>
      </trkpt>
      <trkpt lat="48.6275" lon="2.05255">
        <ele>149.19999694824</ele>
        <time>2011-04-18T13:12:02.000Z</time>
      </trkpt>
      <trkpt lat="48.62751" lon="2.05268">
        <ele>147.19999694824</ele>
        <time>2011-04-18T13:12:09.000Z</time>
      </trkpt>
      <trkpt lat="48.62754" lon="2.05284">
        <ele>145.80000305176</ele>
        <time>2011-04-18T13:12:18.000Z</time>
      </trkpt>
      <trkpt lat="48.62762" lon="2.05291">
        <ele>141</ele>
        <time>2011-04-18T13:12:26.000Z</time>
      </trkpt>
      <trkpt lat="48.62767" lon="2.05299">
        <ele>137.19999694824</ele>
        <time>2011-04-18T13:12:32.000Z</time>
      </trkpt>
      <trkpt lat="48.62767" lon="2.05306">
        <ele>139.60000610352</ele>
        <time>2011-04-18T13:12:34.000Z</time>
      </trkpt>
      <trkpt lat="48.62773" lon="2.05318">
        <ele>136.19999694824</ele>
        <time>2011-04-18T13:12:43.000Z</time>
      </trkpt>
      <trkpt lat="48.62775" lon="2.05337">
        <ele>142.80000305176</ele>
        <time>2011-04-18T13:12:50.000Z</time>
      </trkpt>
      <trkpt lat="48.62782" lon="2.05354">
        <ele>148.60000610352</ele>
        <time>2011-04-18T13:12:59.000Z</time>
      </trkpt>
      <trkpt lat="48.62786" lon="2.05365">
        <ele>151</ele>
        <time>2011-04-18T13:13:05.000Z</time>
      </trkpt>
      <trkpt lat="48.62792" lon="2.0538">
        <ele>153.39999389648</ele>
        <time>2011-04-18T13:13:13.000Z</time>
      </trkpt>
      <trkpt lat="48.62798" lon="2.05396">
        <ele>154.39999389648</ele>
        <time>2011-04-18T13:13:22.000Z</time>
      </trkpt>
      <trkpt lat="48.62803" lon="2.05408">
        <ele>155.39999389648</ele>
        <time>2011-04-18T13:13:29.000Z</time>
      </trkpt>
      <trkpt lat="48.62799" lon="2.05412">
        <ele>156.39999389648</ele>
        <time>2011-04-18T13:13:35.000Z</time>
      </trkpt>
      <trkpt lat="48.62794" lon="2.05406">
        <ele>157.39999389648</ele>
        <time>2011-04-18T13:13:40.000Z</time>
      </trkpt>
      <trkpt lat="48.62789" lon="2.05393">
        <ele>157.39999389648</ele>
        <time>2011-04-18T13:13:48.000Z</time>
      </trkpt>
      <trkpt lat="48.62783" lon="2.05382">
        <ele>156.80000305176</ele>
        <time>2011-04-18T13:13:55.000Z</time>
      </trkpt>
      <trkpt lat="48.62777" lon="2.05373">
        <ele>157.39999389648</ele>
        <time>2011-04-18T13:14:01.000Z</time>
      </trkpt>
      <trkpt lat="48.62777" lon="2.05371">
        <ele>157.39999389648</ele>
        <time>2011-04-18T13:14:04.000Z</time>
      </trkpt>
      <trkpt lat="48.62763" lon="2.05368">
        <ele>155.39999389648</ele>
        <time>2011-04-18T13:14:27.000Z</time>
      </trkpt>
      <trkpt lat="48.62762" lon="2.05376">
        <ele>155.80000305176</ele>
        <time>2011-04-18T13:14:30.000Z</time>
      </trkpt>
      <trkpt lat="48.62761" lon="2.05389">
        <ele>156.80000305176</ele>
        <time>2011-04-18T13:14:38.000Z</time>
      </trkpt>
      <trkpt lat="48.62758" lon="2.05407">
        <ele>158.19999694824</ele>
        <time>2011-04-18T13:14:47.000Z</time>
      </trkpt>
      <trkpt lat="48.62755" lon="2.05426">
        <ele>160.19999694824</ele>
        <time>2011-04-18T13:14:57.000Z</time>
      </trkpt>
      <trkpt lat="48.6275" lon="2.05443">
        <ele>161.60000610352</ele>
        <time>2011-04-18T13:15:06.000Z</time>
      </trkpt>
      <trkpt lat="48.62752" lon="2.05457">
        <ele>162.19999694824</ele>
        <time>2011-04-18T13:15:14.000Z</time>
      </trkpt>
      <trkpt lat="48.62756" lon="2.05469">
        <ele>163</ele>
        <time>2011-04-18T13:15:21.000Z</time>
      </trkpt>
      <trkpt lat="48.62759" lon="2.05487">
        <ele>163.60000610352</ele>
        <time>2011-04-18T13:15:31.000Z</time>
      </trkpt>
      <trkpt lat="48.62763" lon="2.055">
        <ele>163.60000610352</ele>
        <time>2011-04-18T13:15:38.000Z</time>
      </trkpt>
      <trkpt lat="48.62766" lon="2.05515">
        <ele>163.60000610352</ele>
        <time>2011-04-18T13:15:46.000Z</time>
      </trkpt>
      <trkpt lat="48.62768" lon="2.05532">
        <ele>164</ele>
        <time>2011-04-18T13:15:55.000Z</time>
      </trkpt>
      <trkpt lat="48.6277" lon="2.05547">
        <ele>163</ele>
        <time>2011-04-18T13:16:03.000Z</time>
      </trkpt>
      <trkpt lat="48.62771" lon="2.05555">
        <ele>163</ele>
        <time>2011-04-18T13:16:08.000Z</time>
      </trkpt>
      <trkpt lat="48.62771" lon="2.05573">
        <ele>163</ele>
        <time>2011-04-18T13:16:17.000Z</time>
      </trkpt>
      <trkpt lat="48.62768" lon="2.05586">
        <ele>163.60000610352</ele>
        <time>2011-04-18T13:16:24.000Z</time>
      </trkpt>
      <trkpt lat="48.62768" lon="2.05596">
        <ele>164</ele>
        <time>2011-04-18T13:16:29.000Z</time>
      </trkpt>
      <trkpt lat="48.62769" lon="2.05608">
        <ele>164</ele>
        <time>2011-04-18T13:16:35.000Z</time>
      </trkpt>
      <trkpt lat="48.62766" lon="2.05619">
        <ele>164.60000610352</ele>
        <time>2011-04-18T13:16:41.000Z</time>
      </trkpt>
      <trkpt lat="48.6277" lon="2.0563">
        <ele>164.60000610352</ele>
        <time>2011-04-18T13:16:48.000Z</time>
      </trkpt>
      <trkpt lat="48.6277" lon="2.05646">
        <ele>164.60000610352</ele>
        <time>2011-04-18T13:16:56.000Z</time>
      </trkpt>
      <trkpt lat="48.62763" lon="2.05664">
        <ele>163.60000610352</ele>
        <time>2011-04-18T13:17:07.000Z</time>
      </trkpt>
      <trkpt lat="48.62761" lon="2.05667">
        <ele>163.60000610352</ele>
        <time>2011-04-18T13:17:09.000Z</time>
      </trkpt>
      <trkpt lat="48.62755" lon="2.05679">
        <ele>162.60000610352</ele>
        <time>2011-04-18T13:17:17.000Z</time>
      </trkpt>
      <trkpt lat="48.6275" lon="2.05691">
        <ele>162.19999694824</ele>
        <time>2011-04-18T13:17:24.000Z</time>
      </trkpt>
      <trkpt lat="48.62745" lon="2.05713">
        <ele>162.19999694824</ele>
        <time>2011-04-18T13:17:35.000Z</time>
      </trkpt>
      <trkpt lat="48.62742" lon="2.05728">
        <ele>162.60000610352</ele>
        <time>2011-04-18T13:17:43.000Z</time>
      </trkpt>
      <trkpt lat="48.62738" lon="2.05742">
        <ele>162.60000610352</ele>
        <time>2011-04-18T13:17:51.000Z</time>
      </trkpt>
      <trkpt lat="48.62731" lon="2.05753">
        <ele>162.60000610352</ele>
        <time>2011-04-18T13:17:58.000Z</time>
      </trkpt>
      <trkpt lat="48.62719" lon="2.0577">
        <ele>163</ele>
        <time>2011-04-18T13:18:11.000Z</time>
      </trkpt>
      <trkpt lat="48.62715" lon="2.05774">
        <ele>163</ele>
        <time>2011-04-18T13:18:16.000Z</time>
      </trkpt>
      <trkpt lat="48.62705" lon="2.05789">
        <ele>163.60000610352</ele>
        <time>2011-04-18T13:18:27.000Z</time>
      </trkpt>
      <trkpt lat="48.62701" lon="2.05794">
        <ele>163.60000610352</ele>
        <time>2011-04-18T13:18:33.000Z</time>
      </trkpt>
      <trkpt lat="48.62695" lon="2.05801">
        <ele>163.60000610352</ele>
        <time>2011-04-18T13:18:55.000Z</time>
      </trkpt>
      <trkpt lat="48.62687" lon="2.0581">
        <ele>163.60000610352</ele>
        <time>2011-04-18T13:19:02.000Z</time>
      </trkpt>
      <trkpt lat="48.62683" lon="2.05814">
        <ele>163.60000610352</ele>
        <time>2011-04-18T13:19:06.000Z</time>
      </trkpt>
      <trkpt lat="48.62683" lon="2.05815">
        <ele>163.60000610352</ele>
        <time>2011-04-18T13:19:09.000Z</time>
      </trkpt>
      <trkpt lat="48.62677" lon="2.0582">
        <ele>163</ele>
        <time>2011-04-18T13:19:17.000Z</time>
      </trkpt>
      <trkpt lat="48.62668" lon="2.05829">
        <ele>163</ele>
        <time>2011-04-18T13:19:25.000Z</time>
      </trkpt>
      <trkpt lat="48.62663" lon="2.05833">
        <ele>162.60000610352</ele>
        <time>2011-04-18T13:19:30.000Z</time>
      </trkpt>
      <trkpt lat="48.62658" lon="2.05838">
        <ele>162.60000610352</ele>
        <time>2011-04-18T13:19:36.000Z</time>
      </trkpt>
      <trkpt lat="48.62647" lon="2.05848">
        <ele>162.60000610352</ele>
        <time>2011-04-18T13:19:46.000Z</time>
      </trkpt>
      <trkpt lat="48.62634" lon="2.0586">
        <ele>162.19999694824</ele>
        <time>2011-04-18T13:19:57.000Z</time>
      </trkpt>
      <trkpt lat="48.62621" lon="2.0587">
        <ele>162.19999694824</ele>
        <time>2011-04-18T13:20:07.000Z</time>
      </trkpt>
      <trkpt lat="48.62611" lon="2.05877">
        <ele>161.60000610352</ele>
        <time>2011-04-18T13:20:15.000Z</time>
      </trkpt>
      <trkpt lat="48.62604" lon="2.05882">
        <ele>161.60000610352</ele>
        <time>2011-04-18T13:20:22.000Z</time>
      </trkpt>
      <trkpt lat="48.62593" lon="2.0589">
        <ele>161.60000610352</ele>
        <time>2011-04-18T13:20:30.000Z</time>
      </trkpt>
      <trkpt lat="48.62584" lon="2.05896">
        <ele>161.60000610352</ele>
        <time>2011-04-18T13:20:35.000Z</time>
      </trkpt>
      <trkpt lat="48.62577" lon="2.05901">
        <ele>161.19999694824</ele>
        <time>2011-04-18T13:20:41.000Z</time>
      </trkpt>
      <trkpt lat="48.62576" lon="2.05901">
        <ele>161.19999694824</ele>
        <time>2011-04-18T13:20:44.000Z</time>
      </trkpt>
      <trkpt lat="48.62574" lon="2.05903">
        <ele>161.60000610352</ele>
        <time>2011-04-18T13:20:55.000Z</time>
      </trkpt>
      <trkpt lat="48.62572" lon="2.05904">
        <ele>161.60000610352</ele>
        <time>2011-04-18T13:20:58.000Z</time>
      </trkpt>
      <trkpt lat="48.62569" lon="2.05907">
        <ele>163</ele>
        <time>2011-04-18T13:21:26.000Z</time>
      </trkpt>
      <trkpt lat="48.62562" lon="2.05912">
        <ele>163</ele>
        <time>2011-04-18T13:21:33.000Z</time>
      </trkpt>
      <trkpt lat="48.62547" lon="2.05922">
        <ele>163</ele>
        <time>2011-04-18T13:22:13.000Z</time>
      </trkpt>
      <trkpt lat="48.62539" lon="2.05927">
        <ele>163</ele>
        <time>2011-04-18T13:22:19.000Z</time>
      </trkpt>
      <trkpt lat="48.62533" lon="2.0593">
        <ele>163</ele>
        <time>2011-04-18T13:22:26.000Z</time>
      </trkpt>
      <trkpt lat="48.62524" lon="2.05937">
        <ele>163</ele>
        <time>2011-04-18T13:22:34.000Z</time>
      </trkpt>
      <trkpt lat="48.62516" lon="2.05945">
        <ele>163</ele>
        <time>2011-04-18T13:22:41.000Z</time>
      </trkpt>
      <trkpt lat="48.62514" lon="2.05947">
        <ele>163</ele>
        <time>2011-04-18T13:22:45.000Z</time>
      </trkpt>
      <trkpt lat="48.62506" lon="2.05956">
        <ele>163.60000610352</ele>
        <time>2011-04-18T13:23:01.000Z</time>
      </trkpt>
      <trkpt lat="48.62499" lon="2.05961">
        <ele>163.60000610352</ele>
        <time>2011-04-18T13:23:08.000Z</time>
      </trkpt>
      <trkpt lat="48.62488" lon="2.05975">
        <ele>163.60000610352</ele>
        <time>2011-04-18T13:23:40.000Z</time>
      </trkpt>
      <trkpt lat="48.62484" lon="2.05979">
        <ele>163.60000610352</ele>
        <time>2011-04-18T13:23:43.000Z</time>
      </trkpt>
      <trkpt lat="48.62479" lon="2.05985">
        <ele>163.60000610352</ele>
        <time>2011-04-18T13:23:50.000Z</time>
      </trkpt>
      <trkpt lat="48.62471" lon="2.05994">
        <ele>163.60000610352</ele>
        <time>2011-04-18T13:23:59.000Z</time>
      </trkpt>
      <trkpt lat="48.62468" lon="2.05997">
        <ele>164</ele>
        <time>2011-04-18T13:24:02.000Z</time>
      </trkpt>
      <trkpt lat="48.62467" lon="2.05998">
        <ele>163.60000610352</ele>
        <time>2011-04-18T13:24:06.000Z</time>
      </trkpt>
      <trkpt lat="48.62465" lon="2.06001">
        <ele>163.60000610352</ele>
        <time>2011-04-18T13:24:23.000Z</time>
      </trkpt>
      <trkpt lat="48.62456" lon="2.06012">
        <ele>163.60000610352</ele>
        <time>2011-04-18T13:24:31.000Z</time>
      </trkpt>
      <trkpt lat="48.62448" lon="2.06021">
        <ele>163</ele>
        <time>2011-04-18T13:24:39.000Z</time>
      </trkpt>
      <trkpt lat="48.6244" lon="2.06029">
        <ele>163</ele>
        <time>2011-04-18T13:24:46.000Z</time>
      </trkpt>
      <trkpt lat="48.62439" lon="2.0603">
        <ele>163</ele>
        <time>2011-04-18T13:24:47.000Z</time>
      </trkpt>
      <trkpt lat="48.62434" lon="2.06034">
        <ele>163</ele>
        <time>2011-04-18T13:24:51.000Z</time>
      </trkpt>
      <trkpt lat="48.62428" lon="2.06041">
        <ele>163.60000610352</ele>
        <time>2011-04-18T13:24:58.000Z</time>
      </trkpt>
      <trkpt lat="48.62423" lon="2.06046">
        <ele>163.60000610352</ele>
        <time>2011-04-18T13:25:03.000Z</time>
      </trkpt>
      <trkpt lat="48.62415" lon="2.06052">
        <ele>163.60000610352</ele>
        <time>2011-04-18T13:25:09.000Z</time>
      </trkpt>
      <trkpt lat="48.62406" lon="2.0606">
        <ele>163.60000610352</ele>
        <time>2011-04-18T13:25:17.000Z</time>
      </trkpt>
      <trkpt lat="48.62397" lon="2.06067">
        <ele>164</ele>
        <time>2011-04-18T13:25:24.000Z</time>
      </trkpt>
      <trkpt lat="48.62385" lon="2.06076">
        <ele>164</ele>
        <time>2011-04-18T13:25:34.000Z</time>
      </trkpt>
      <trkpt lat="48.62373" lon="2.06084">
        <ele>164</ele>
        <time>2011-04-18T13:25:44.000Z</time>
      </trkpt>
      <trkpt lat="48.62364" lon="2.06092">
        <ele>164</ele>
        <time>2011-04-18T13:25:53.000Z</time>
      </trkpt>
      <trkpt lat="48.62354" lon="2.06099">
        <ele>164</ele>
        <time>2011-04-18T13:26:02.000Z</time>
      </trkpt>
      <trkpt lat="48.62343" lon="2.06102">
        <ele>164</ele>
        <time>2011-04-18T13:26:11.000Z</time>
      </trkpt>
      <trkpt lat="48.62339" lon="2.06099">
        <ele>164</ele>
        <time>2011-04-18T13:26:16.000Z</time>
      </trkpt>
      <trkpt lat="48.62334" lon="2.06086">
        <ele>165.39999389648</ele>
        <time>2011-04-18T13:26:24.000Z</time>
      </trkpt>
      <trkpt lat="48.62329" lon="2.06071">
        <ele>166.39999389648</ele>
        <time>2011-04-18T13:26:32.000Z</time>
      </trkpt>
      <trkpt lat="48.62324" lon="2.06058">
        <ele>167</ele>
        <time>2011-04-18T13:26:40.000Z</time>
      </trkpt>
      <trkpt lat="48.6232" lon="2.06046">
        <ele>167.80000305176</ele>
        <time>2011-04-18T13:26:47.000Z</time>
      </trkpt>
      <trkpt lat="48.62317" lon="2.06036">
        <ele>167.39999389648</ele>
        <time>2011-04-18T13:26:53.000Z</time>
      </trkpt>
      <trkpt lat="48.62311" lon="2.06019">
        <ele>166</ele>
        <time>2011-04-18T13:27:02.000Z</time>
      </trkpt>
      <trkpt lat="48.62307" lon="2.06007">
        <ele>166.39999389648</ele>
        <time>2011-04-18T13:27:09.000Z</time>
      </trkpt>
      <trkpt lat="48.62303" lon="2.05991">
        <ele>167</ele>
        <time>2011-04-18T13:27:17.000Z</time>
      </trkpt>
      <trkpt lat="48.62303" lon="2.05989">
        <ele>167.39999389648</ele>
        <time>2011-04-18T13:27:18.000Z</time>
      </trkpt>
      <trkpt lat="48.62297" lon="2.05976">
        <ele>167.80000305176</ele>
        <time>2011-04-18T13:27:26.000Z</time>
      </trkpt>
      <trkpt lat="48.62292" lon="2.05961">
        <ele>167.80000305176</ele>
        <time>2011-04-18T13:27:34.000Z</time>
      </trkpt>
      <trkpt lat="48.62288" lon="2.05948">
        <ele>168.39999389648</ele>
        <time>2011-04-18T13:27:41.000Z</time>
      </trkpt>
      <trkpt lat="48.62284" lon="2.05933">
        <ele>167.80000305176</ele>
        <time>2011-04-18T13:27:49.000Z</time>
      </trkpt>
      <trkpt lat="48.62283" lon="2.0593">
        <ele>167.39999389648</ele>
        <time>2011-04-18T13:27:51.000Z</time>
      </trkpt>
      <trkpt lat="48.6228" lon="2.05919">
        <ele>167</ele>
        <time>2011-04-18T13:27:57.000Z</time>
      </trkpt>
      <trkpt lat="48.62277" lon="2.05911">
        <ele>166.39999389648</ele>
        <time>2011-04-18T13:28:02.000Z</time>
      </trkpt>
      <trkpt lat="48.62273" lon="2.05896">
        <ele>166.39999389648</ele>
        <time>2011-04-18T13:28:11.000Z</time>
      </trkpt>
      <trkpt lat="48.62268" lon="2.0588">
        <ele>167</ele>
        <time>2011-04-18T13:28:19.000Z</time>
      </trkpt>
      <trkpt lat="48.62262" lon="2.05866">
        <ele>167</ele>
        <time>2011-04-18T13:28:27.000Z</time>
      </trkpt>
      <trkpt lat="48.62255" lon="2.05849">
        <ele>166</ele>
        <time>2011-04-18T13:28:36.000Z</time>
      </trkpt>
      <trkpt lat="48.62251" lon="2.05843">
        <ele>166</ele>
        <time>2011-04-18T13:28:40.000Z</time>
      </trkpt>
      <trkpt lat="48.62247" lon="2.05834">
        <ele>166.39999389648</ele>
        <time>2011-04-18T13:28:46.000Z</time>
      </trkpt>
      <trkpt lat="48.62245" lon="2.05828">
        <ele>167</ele>
        <time>2011-04-18T13:28:50.000Z</time>
      </trkpt>
      <trkpt lat="48.62238" lon="2.05815">
        <ele>167.39999389648</ele>
        <time>2011-04-18T13:28:58.000Z</time>
      </trkpt>
      <trkpt lat="48.62236" lon="2.0581">
        <ele>167.80000305176</ele>
        <time>2011-04-18T13:29:01.000Z</time>
      </trkpt>
      <trkpt lat="48.62233" lon="2.05805">
        <ele>167.80000305176</ele>
        <time>2011-04-18T13:29:05.000Z</time>
      </trkpt>
      <trkpt lat="48.62226" lon="2.05788">
        <ele>167.80000305176</ele>
        <time>2011-04-18T13:29:15.000Z</time>
      </trkpt>
      <trkpt lat="48.6222" lon="2.05778">
        <ele>167.80000305176</ele>
        <time>2011-04-18T13:29:24.000Z</time>
      </trkpt>
      <trkpt lat="48.6222" lon="2.05778">
        <ele>167.80000305176</ele>
        <time>2011-04-18T13:29:25.000Z</time>
      </trkpt>
      <trkpt lat="48.62205" lon="2.05781">
        <ele>164.60000610352</ele>
        <time>2011-04-18T13:30:15.000Z</time>
      </trkpt>
      <trkpt lat="48.62204" lon="2.05781">
        <ele>164</ele>
        <time>2011-04-18T13:30:16.000Z</time>
      </trkpt>
      <trkpt lat="48.62193" lon="2.05786">
        <ele>161.19999694824</ele>
        <time>2011-04-18T13:30:24.000Z</time>
      </trkpt>
      <trkpt lat="48.62181" lon="2.05791">
        <ele>159.80000305176</ele>
        <time>2011-04-18T13:30:33.000Z</time>
      </trkpt>
      <trkpt lat="48.6218" lon="2.05791">
        <ele>159.19999694824</ele>
        <time>2011-04-18T13:30:34.000Z</time>
      </trkpt>
      <trkpt lat="48.62175" lon="2.05795">
        <ele>158.19999694824</ele>
        <time>2011-04-18T13:30:40.000Z</time>
      </trkpt>
      <trkpt lat="48.62165" lon="2.05799">
        <ele>155.80000305176</ele>
        <time>2011-04-18T13:30:49.000Z</time>
      </trkpt>
      <trkpt lat="48.62156" lon="2.05803">
        <ele>154.39999389648</ele>
        <time>2011-04-18T13:30:56.000Z</time>
      </trkpt>
      <trkpt lat="48.62143" lon="2.05807">
        <ele>154</ele>
        <time>2011-04-18T13:31:05.000Z</time>
      </trkpt>
      <trkpt lat="48.62131" lon="2.05812">
        <ele>154</ele>
        <time>2011-04-18T13:31:13.000Z</time>
      </trkpt>
      <trkpt lat="48.62117" lon="2.05817">
        <ele>154.39999389648</ele>
        <time>2011-04-18T13:31:22.000Z</time>
      </trkpt>
      <trkpt lat="48.6211" lon="2.05821">
        <ele>153</ele>
        <time>2011-04-18T13:31:29.000Z</time>
      </trkpt>
      <trkpt lat="48.62099" lon="2.05826">
        <ele>151</ele>
        <time>2011-04-18T13:31:37.000Z</time>
      </trkpt>
      <trkpt lat="48.6209" lon="2.05828">
        <ele>149.60000610352</ele>
        <time>2011-04-18T13:31:43.000Z</time>
      </trkpt>
      <trkpt lat="48.62078" lon="2.05832">
        <ele>147.60000610352</ele>
        <time>2011-04-18T13:31:52.000Z</time>
      </trkpt>
      <trkpt lat="48.62065" lon="2.05837">
        <ele>146.19999694824</ele>
        <time>2011-04-18T13:32:01.000Z</time>
      </trkpt>
      <trkpt lat="48.62064" lon="2.05837">
        <ele>146.19999694824</ele>
        <time>2011-04-18T13:32:02.000Z</time>
      </trkpt>
      <trkpt lat="48.62057" lon="2.05839">
        <ele>146.19999694824</ele>
        <time>2011-04-18T13:32:07.000Z</time>
      </trkpt>
      <trkpt lat="48.62054" lon="2.0584">
        <ele>146.19999694824</ele>
        <time>2011-04-18T13:32:09.000Z</time>
      </trkpt>
      <trkpt lat="48.62046" lon="2.05843">
        <ele>146.80000305176</ele>
        <time>2011-04-18T13:32:14.000Z</time>
      </trkpt>
      <trkpt lat="48.62044" lon="2.05845">
        <ele>146.80000305176</ele>
        <time>2011-04-18T13:32:16.000Z</time>
      </trkpt>
      <trkpt lat="48.62034" lon="2.05848">
        <ele>148.60000610352</ele>
        <time>2011-04-18T13:32:23.000Z</time>
      </trkpt>
      <trkpt lat="48.62033" lon="2.05849">
        <ele>148.60000610352</ele>
        <time>2011-04-18T13:32:26.000Z</time>
      </trkpt>
      <trkpt lat="48.62029" lon="2.05852">
        <ele>150.19999694824</ele>
        <time>2011-04-18T13:32:39.000Z</time>
      </trkpt>
      <trkpt lat="48.62025" lon="2.05853">
        <ele>150.19999694824</ele>
        <time>2011-04-18T13:32:41.000Z</time>
      </trkpt>
      <trkpt lat="48.62017" lon="2.05856">
        <ele>149.60000610352</ele>
        <time>2011-04-18T13:32:47.000Z</time>
      </trkpt>
      <trkpt lat="48.62015" lon="2.05857">
        <ele>148.60000610352</ele>
        <time>2011-04-18T13:32:49.000Z</time>
      </trkpt>
      <trkpt lat="48.62006" lon="2.0586">
        <ele>147.60000610352</ele>
        <time>2011-04-18T13:32:56.000Z</time>
      </trkpt>
      <trkpt lat="48.62004" lon="2.05862">
        <ele>147.60000610352</ele>
        <time>2011-04-18T13:32:59.000Z</time>
      </trkpt>
      <trkpt lat="48.62003" lon="2.05863">
        <ele>149.19999694824</ele>
        <time>2011-04-18T13:33:02.000Z</time>
      </trkpt>
      <trkpt lat="48.62" lon="2.05864">
        <ele>149.60000610352</ele>
        <time>2011-04-18T13:33:05.000Z</time>
      </trkpt>
      <trkpt lat="48.61999" lon="2.05865">
        <ele>150.19999694824</ele>
        <time>2011-04-18T13:33:06.000Z</time>
      </trkpt>
      <trkpt lat="48.6199" lon="2.0587">
        <ele>148.60000610352</ele>
        <time>2011-04-18T13:33:13.000Z</time>
      </trkpt>
      <trkpt lat="48.61986" lon="2.05872">
        <ele>146.80000305176</ele>
        <time>2011-04-18T13:33:17.000Z</time>
      </trkpt>
      <trkpt lat="48.61979" lon="2.05873">
        <ele>144.39999389648</ele>
        <time>2011-04-18T13:33:24.000Z</time>
      </trkpt>
      <trkpt lat="48.61969" lon="2.0588">
        <ele>144.80000305176</ele>
        <time>2011-04-18T13:33:32.000Z</time>
      </trkpt>
      <trkpt lat="48.61968" lon="2.05882">
        <ele>145.19999694824</ele>
        <time>2011-04-18T13:33:33.000Z</time>
      </trkpt>
      <trkpt lat="48.61958" lon="2.05883">
        <ele>145.80000305176</ele>
        <time>2011-04-18T13:33:41.000Z</time>
      </trkpt>
      <trkpt lat="48.61951" lon="2.05885">
        <ele>148.19999694824</ele>
        <time>2011-04-18T13:33:46.000Z</time>
      </trkpt>
      <trkpt lat="48.61938" lon="2.05888">
        <ele>153</ele>
        <time>2011-04-18T13:33:54.000Z</time>
      </trkpt>
      <trkpt lat="48.61929" lon="2.05891">
        <ele>156.39999389648</ele>
        <time>2011-04-18T13:33:59.000Z</time>
      </trkpt>
      <trkpt lat="48.61927" lon="2.05892">
        <ele>157.39999389648</ele>
        <time>2011-04-18T13:34:02.000Z</time>
      </trkpt>
      <trkpt lat="48.61921" lon="2.05896">
        <ele>158.80000305176</ele>
        <time>2011-04-18T13:34:07.000Z</time>
      </trkpt>
      <trkpt lat="48.61915" lon="2.05898">
        <ele>160.60000610352</ele>
        <time>2011-04-18T13:34:12.000Z</time>
      </trkpt>
      <trkpt lat="48.61906" lon="2.05902">
        <ele>161.60000610352</ele>
        <time>2011-04-18T13:34:19.000Z</time>
      </trkpt>
      <trkpt lat="48.61897" lon="2.05905">
        <ele>164.60000610352</ele>
        <time>2011-04-18T13:34:26.000Z</time>
      </trkpt>
      <trkpt lat="48.61892" lon="2.05908">
        <ele>166</ele>
        <time>2011-04-18T13:34:30.000Z</time>
      </trkpt>
      <trkpt lat="48.6188" lon="2.05913">
        <ele>167</ele>
        <time>2011-04-18T13:34:40.000Z</time>
      </trkpt>
      <trkpt lat="48.61873" lon="2.05914">
        <ele>169.39999389648</ele>
        <time>2011-04-18T13:34:47.000Z</time>
      </trkpt>
      <trkpt lat="48.61868" lon="2.05916">
        <ele>169.39999389648</ele>
        <time>2011-04-18T13:34:51.000Z</time>
      </trkpt>
      <trkpt lat="48.61856" lon="2.05922">
        <ele>168.80000305176</ele>
        <time>2011-04-18T13:35:00.000Z</time>
      </trkpt>
      <trkpt lat="48.61849" lon="2.05924">
        <ele>167</ele>
        <time>2011-04-18T13:35:06.000Z</time>
      </trkpt>
      <trkpt lat="48.61845" lon="2.05926">
        <ele>166</ele>
        <time>2011-04-18T13:35:09.000Z</time>
      </trkpt>
      <trkpt lat="48.61836" lon="2.05929">
        <ele>165</ele>
        <time>2011-04-18T13:35:17.000Z</time>
      </trkpt>
      <trkpt lat="48.61824" lon="2.05933">
        <ele>164</ele>
        <time>2011-04-18T13:35:27.000Z</time>
      </trkpt>
      <trkpt lat="48.61814" lon="2.05935">
        <ele>162.60000610352</ele>
        <time>2011-04-18T13:35:36.000Z</time>
      </trkpt>
      <trkpt lat="48.61802" lon="2.05941">
        <ele>161.60000610352</ele>
        <time>2011-04-18T13:35:45.000Z</time>
      </trkpt>
      <trkpt lat="48.61793" lon="2.05945">
        <ele>159.19999694824</ele>
        <time>2011-04-18T13:35:52.000Z</time>
      </trkpt>
      <trkpt lat="48.61784" lon="2.0595">
        <ele>158.80000305176</ele>
        <time>2011-04-18T13:35:59.000Z</time>
      </trkpt>
      <trkpt lat="48.61771" lon="2.05956">
        <ele>157.80000305176</ele>
        <time>2011-04-18T13:36:09.000Z</time>
      </trkpt>
      <trkpt lat="48.6176" lon="2.05961">
        <ele>156.39999389648</ele>
        <time>2011-04-18T13:36:17.000Z</time>
      </trkpt>
      <trkpt lat="48.61748" lon="2.05966">
        <ele>153</ele>
        <time>2011-04-18T13:36:27.000Z</time>
      </trkpt>
      <trkpt lat="48.61736" lon="2.05968">
        <ele>152</ele>
        <time>2011-04-18T13:36:35.000Z</time>
      </trkpt>
      <trkpt lat="48.61725" lon="2.05972">
        <ele>150.60000610352</ele>
        <time>2011-04-18T13:36:43.000Z</time>
      </trkpt>
      <trkpt lat="48.61713" lon="2.05977">
        <ele>150.60000610352</ele>
        <time>2011-04-18T13:36:51.000Z</time>
      </trkpt>
      <trkpt lat="48.61708" lon="2.05977">
        <ele>151</ele>
        <time>2011-04-18T13:36:57.000Z</time>
      </trkpt>
      <trkpt lat="48.61696" lon="2.05987">
        <ele>152.60000610352</ele>
        <time>2011-04-18T13:37:10.000Z</time>
      </trkpt>
      <trkpt lat="48.61692" lon="2.05989">
        <ele>152.60000610352</ele>
        <time>2011-04-18T13:37:12.000Z</time>
      </trkpt>
      <trkpt lat="48.6169" lon="2.05988">
        <ele>153.39999389648</ele>
        <time>2011-04-18T13:37:16.000Z</time>
      </trkpt>
      <trkpt lat="48.61682" lon="2.0599">
        <ele>151</ele>
        <time>2011-04-18T13:38:24.000Z</time>
      </trkpt>
      <trkpt lat="48.61672" lon="2.05994">
        <ele>150.19999694824</ele>
        <time>2011-04-18T13:38:32.000Z</time>
      </trkpt>
      <trkpt lat="48.61671" lon="2.05995">
        <ele>150.19999694824</ele>
        <time>2011-04-18T13:38:33.000Z</time>
      </trkpt>
      <trkpt lat="48.61668" lon="2.05995">
        <ele>150.60000610352</ele>
        <time>2011-04-18T13:38:36.000Z</time>
      </trkpt>
      <trkpt lat="48.61659" lon="2.05999">
        <ele>150.19999694824</ele>
        <time>2011-04-18T13:38:44.000Z</time>
      </trkpt>
      <trkpt lat="48.61651" lon="2.06001">
        <ele>150.60000610352</ele>
        <time>2011-04-18T13:38:50.000Z</time>
      </trkpt>
      <trkpt lat="48.61647" lon="2.06003">
        <ele>149.60000610352</ele>
        <time>2011-04-18T13:38:53.000Z</time>
      </trkpt>
      <trkpt lat="48.61639" lon="2.06004">
        <ele>147.19999694824</ele>
        <time>2011-04-18T13:39:00.000Z</time>
      </trkpt>
      <trkpt lat="48.61631" lon="2.06008">
        <ele>145.80000305176</ele>
        <time>2011-04-18T13:39:06.000Z</time>
      </trkpt>
      <trkpt lat="48.61625" lon="2.06012">
        <ele>143.80000305176</ele>
        <time>2011-04-18T13:39:11.000Z</time>
      </trkpt>
      <trkpt lat="48.61615" lon="2.06016">
        <ele>142</ele>
        <time>2011-04-18T13:39:20.000Z</time>
      </trkpt>
      <trkpt lat="48.61605" lon="2.06021">
        <ele>143.39999389648</ele>
        <time>2011-04-18T13:39:28.000Z</time>
      </trkpt>
      <trkpt lat="48.61596" lon="2.06024">
        <ele>143.80000305176</ele>
        <time>2011-04-18T13:39:34.000Z</time>
      </trkpt>
      <trkpt lat="48.61585" lon="2.06029">
        <ele>142.80000305176</ele>
        <time>2011-04-18T13:39:42.000Z</time>
      </trkpt>
      <trkpt lat="48.61578" lon="2.06033">
        <ele>142.80000305176</ele>
        <time>2011-04-18T13:39:49.000Z</time>
      </trkpt>
      <trkpt lat="48.61568" lon="2.06037">
        <ele>144.39999389648</ele>
        <time>2011-04-18T13:39:57.000Z</time>
      </trkpt>
      <trkpt lat="48.61557" lon="2.0604">
        <ele>145.19999694824</ele>
        <time>2011-04-18T13:40:05.000Z</time>
      </trkpt>
      <trkpt lat="48.61549" lon="2.06042">
        <ele>147.19999694824</ele>
        <time>2011-04-18T13:40:12.000Z</time>
      </trkpt>
      <trkpt lat="48.61546" lon="2.06044">
        <ele>147.60000610352</ele>
        <time>2011-04-18T13:40:14.000Z</time>
      </trkpt>
      <trkpt lat="48.61537" lon="2.06048">
        <ele>150.60000610352</ele>
        <time>2011-04-18T13:40:23.000Z</time>
      </trkpt>
      <trkpt lat="48.61533" lon="2.06052">
        <ele>152</ele>
        <time>2011-04-18T13:40:29.000Z</time>
      </trkpt>
      <trkpt lat="48.61528" lon="2.06056">
        <ele>154</ele>
        <time>2011-04-18T13:40:34.000Z</time>
      </trkpt>
      <trkpt lat="48.61523" lon="2.06055">
        <ele>155</ele>
        <time>2011-04-18T13:40:39.000Z</time>
      </trkpt>
      <trkpt lat="48.6152" lon="2.06055">
        <ele>154</ele>
        <time>2011-04-18T13:40:42.000Z</time>
      </trkpt>
      <trkpt lat="48.6151" lon="2.06059">
        <ele>154.39999389648</ele>
        <time>2011-04-18T13:40:50.000Z</time>
      </trkpt>
      <trkpt lat="48.61504" lon="2.06059">
        <ele>154.39999389648</ele>
        <time>2011-04-18T13:40:56.000Z</time>
      </trkpt>
      <trkpt lat="48.61491" lon="2.06063">
        <ele>156.80000305176</ele>
        <time>2011-04-18T13:41:06.000Z</time>
      </trkpt>
      <trkpt lat="48.6148" lon="2.06066">
        <ele>157.39999389648</ele>
        <time>2011-04-18T13:41:15.000Z</time>
      </trkpt>
      <trkpt lat="48.6147" lon="2.0607">
        <ele>156.80000305176</ele>
        <time>2011-04-18T13:41:23.000Z</time>
      </trkpt>
      <trkpt lat="48.61462" lon="2.06074">
        <ele>156.39999389648</ele>
        <time>2011-04-18T13:41:30.000Z</time>
      </trkpt>
      <trkpt lat="48.61449" lon="2.06078">
        <ele>155.80000305176</ele>
        <time>2011-04-18T13:41:40.000Z</time>
      </trkpt>
      <trkpt lat="48.61439" lon="2.06083">
        <ele>155</ele>
        <time>2011-04-18T13:41:49.000Z</time>
      </trkpt>
      <trkpt lat="48.61436" lon="2.06085">
        <ele>155</ele>
        <time>2011-04-18T13:41:51.000Z</time>
      </trkpt>
      <trkpt lat="48.61428" lon="2.06089">
        <ele>155.39999389648</ele>
        <time>2011-04-18T13:41:59.000Z</time>
      </trkpt>
      <trkpt lat="48.61418" lon="2.06095">
        <ele>158.19999694824</ele>
        <time>2011-04-18T13:42:08.000Z</time>
      </trkpt>
      <trkpt lat="48.61409" lon="2.06098">
        <ele>156.39999389648</ele>
        <time>2011-04-18T13:42:15.000Z</time>
      </trkpt>
      <trkpt lat="48.61398" lon="2.06101">
        <ele>154.39999389648</ele>
        <time>2011-04-18T13:42:24.000Z</time>
      </trkpt>
      <trkpt lat="48.61388" lon="2.06106">
        <ele>154</ele>
        <time>2011-04-18T13:42:33.000Z</time>
      </trkpt>
      <trkpt lat="48.61384" lon="2.06107">
        <ele>152.60000610352</ele>
        <time>2011-04-18T13:42:37.000Z</time>
      </trkpt>
      <trkpt lat="48.61378" lon="2.0611">
        <ele>152</ele>
        <time>2011-04-18T13:42:41.000Z</time>
      </trkpt>
      <trkpt lat="48.61361" lon="2.06117">
        <ele>149.60000610352</ele>
        <time>2011-04-18T13:42:55.000Z</time>
      </trkpt>
      <trkpt lat="48.61351" lon="2.06121">
        <ele>150.60000610352</ele>
        <time>2011-04-18T13:43:03.000Z</time>
      </trkpt>
      <trkpt lat="48.61341" lon="2.06125">
        <ele>151.60000610352</ele>
        <time>2011-04-18T13:43:10.000Z</time>
      </trkpt>
      <trkpt lat="48.61337" lon="2.06126">
        <ele>150.60000610352</ele>
        <time>2011-04-18T13:43:13.000Z</time>
      </trkpt>
      <trkpt lat="48.61329" lon="2.06126">
        <ele>149.60000610352</ele>
        <time>2011-04-18T13:43:19.000Z</time>
      </trkpt>
      <trkpt lat="48.61323" lon="2.06129">
        <ele>149.19999694824</ele>
        <time>2011-04-18T13:43:24.000Z</time>
      </trkpt>
      <trkpt lat="48.61317" lon="2.0613">
        <ele>154.39999389648</ele>
        <time>2011-04-18T13:43:31.000Z</time>
      </trkpt>
      <trkpt lat="48.61316" lon="2.06132">
        <ele>156.39999389648</ele>
        <time>2011-04-18T13:43:36.000Z</time>
      </trkpt>
      <trkpt lat="48.61312" lon="2.06132">
        <ele>161.60000610352</ele>
        <time>2011-04-18T13:43:41.000Z</time>
      </trkpt>
      <trkpt lat="48.61312" lon="2.06132">
        <ele>162.19999694824</ele>
        <time>2011-04-18T13:43:42.000Z</time>
      </trkpt>
      <trkpt lat="48.61277" lon="2.06103">
        <ele>158.19999694824</ele>
        <time>2011-04-18T13:44:58.000Z</time>
      </trkpt>
      <trkpt lat="48.61273" lon="2.061">
        <ele>157.80000305176</ele>
        <time>2011-04-18T13:45:01.000Z</time>
      </trkpt>
      <trkpt lat="48.61263" lon="2.06092">
        <ele>158.19999694824</ele>
        <time>2011-04-18T13:45:09.000Z</time>
      </trkpt>
      <trkpt lat="48.61254" lon="2.06083">
        <ele>159.19999694824</ele>
        <time>2011-04-18T13:45:16.000Z</time>
      </trkpt>
      <trkpt lat="48.61247" lon="2.06075">
        <ele>156.39999389648</ele>
        <time>2011-04-18T13:45:23.000Z</time>
      </trkpt>
      <trkpt lat="48.61246" lon="2.06074">
        <ele>156.39999389648</ele>
        <time>2011-04-18T13:45:24.000Z</time>
      </trkpt>
      <trkpt lat="48.61236" lon="2.06066">
        <ele>155</ele>
        <time>2011-04-18T13:45:32.000Z</time>
      </trkpt>
      <trkpt lat="48.61228" lon="2.06056">
        <ele>153.39999389648</ele>
        <time>2011-04-18T13:45:39.000Z</time>
      </trkpt>
      <trkpt lat="48.61221" lon="2.06048">
        <ele>152</ele>
        <time>2011-04-18T13:45:46.000Z</time>
      </trkpt>
      <trkpt lat="48.61215" lon="2.06043">
        <ele>152</ele>
        <time>2011-04-18T13:45:52.000Z</time>
      </trkpt>
      <trkpt lat="48.61208" lon="2.06035">
        <ele>149.19999694824</ele>
        <time>2011-04-18T13:45:57.000Z</time>
      </trkpt>
      <trkpt lat="48.61202" lon="2.06029">
        <ele>147.19999694824</ele>
        <time>2011-04-18T13:46:02.000Z</time>
      </trkpt>
      <trkpt lat="48.61194" lon="2.06021">
        <ele>147.19999694824</ele>
        <time>2011-04-18T13:46:08.000Z</time>
      </trkpt>
      <trkpt lat="48.61186" lon="2.06012">
        <ele>146.80000305176</ele>
        <time>2011-04-18T13:46:15.000Z</time>
      </trkpt>
      <trkpt lat="48.61178" lon="2.06003">
        <ele>146.19999694824</ele>
        <time>2011-04-18T13:46:23.000Z</time>
      </trkpt>
      <trkpt lat="48.61172" lon="2.05995">
        <ele>144.39999389648</ele>
        <time>2011-04-18T13:46:29.000Z</time>
      </trkpt>
      <trkpt lat="48.61161" lon="2.05986">
        <ele>145.80000305176</ele>
        <time>2011-04-18T13:46:37.000Z</time>
      </trkpt>
      <trkpt lat="48.6115" lon="2.05973">
        <ele>141.39999389648</ele>
        <time>2011-04-18T13:46:47.000Z</time>
      </trkpt>
      <trkpt lat="48.61137" lon="2.05962">
        <ele>138.60000610352</ele>
        <time>2011-04-18T13:46:57.000Z</time>
      </trkpt>
      <trkpt lat="48.6113" lon="2.05954">
        <ele>137.60000610352</ele>
        <time>2011-04-18T13:47:04.000Z</time>
      </trkpt>
      <trkpt lat="48.6112" lon="2.05942">
        <ele>133.80000305176</ele>
        <time>2011-04-18T13:47:13.000Z</time>
      </trkpt>
      <trkpt lat="48.61113" lon="2.05933">
        <ele>133.80000305176</ele>
        <time>2011-04-18T13:47:21.000Z</time>
      </trkpt>
      <trkpt lat="48.61103" lon="2.05923">
        <ele>133.19999694824</ele>
        <time>2011-04-18T13:47:29.000Z</time>
      </trkpt>
      <trkpt lat="48.61094" lon="2.05913">
        <ele>131.80000305176</ele>
        <time>2011-04-18T13:47:37.000Z</time>
      </trkpt>
      <trkpt lat="48.61087" lon="2.05908">
        <ele>135.19999694824</ele>
        <time>2011-04-18T13:47:43.000Z</time>
      </trkpt>
      <trkpt lat="48.6108" lon="2.059">
        <ele>135.60000610352</ele>
        <time>2011-04-18T13:47:51.000Z</time>
      </trkpt>
      <trkpt lat="48.61076" lon="2.05897">
        <ele>134.80000305176</ele>
        <time>2011-04-18T13:47:55.000Z</time>
      </trkpt>
      <trkpt lat="48.6107" lon="2.05892">
        <ele>134.19999694824</ele>
        <time>2011-04-18T13:48:00.000Z</time>
      </trkpt>
      <trkpt lat="48.61059" lon="2.05885">
        <ele>133.80000305176</ele>
        <time>2011-04-18T13:48:10.000Z</time>
      </trkpt>
      <trkpt lat="48.61052" lon="2.05879">
        <ele>135.60000610352</ele>
        <time>2011-04-18T13:48:15.000Z</time>
      </trkpt>
      <trkpt lat="48.61045" lon="2.05872">
        <ele>137.19999694824</ele>
        <time>2011-04-18T13:48:22.000Z</time>
      </trkpt>
      <trkpt lat="48.61044" lon="2.0587">
        <ele>137.60000610352</ele>
        <time>2011-04-18T13:48:24.000Z</time>
      </trkpt>
      <trkpt lat="48.61039" lon="2.05862">
        <ele>138</ele>
        <time>2011-04-18T13:48:31.000Z</time>
      </trkpt>
      <trkpt lat="48.61031" lon="2.05854">
        <ele>136.19999694824</ele>
        <time>2011-04-18T13:48:39.000Z</time>
      </trkpt>
      <trkpt lat="48.61024" lon="2.05844">
        <ele>133.19999694824</ele>
        <time>2011-04-18T13:48:45.000Z</time>
      </trkpt>
      <trkpt lat="48.61015" lon="2.05833">
        <ele>130.80000305176</ele>
        <time>2011-04-18T13:48:53.000Z</time>
      </trkpt>
      <trkpt lat="48.61005" lon="2.05823">
        <ele>130</ele>
        <time>2011-04-18T13:49:02.000Z</time>
      </trkpt>
      <trkpt lat="48.60999" lon="2.05819">
        <ele>129.39999389648</ele>
        <time>2011-04-18T13:49:08.000Z</time>
      </trkpt>
      <trkpt lat="48.60991" lon="2.0581">
        <ele>130</ele>
        <time>2011-04-18T13:49:15.000Z</time>
      </trkpt>
      <trkpt lat="48.60982" lon="2.05801">
        <ele>130.39999389648</ele>
        <time>2011-04-18T13:49:22.000Z</time>
      </trkpt>
      <trkpt lat="48.60975" lon="2.05793">
        <ele>129.39999389648</ele>
        <time>2011-04-18T13:49:29.000Z</time>
      </trkpt>
      <trkpt lat="48.60968" lon="2.05783">
        <ele>128</ele>
        <time>2011-04-18T13:49:36.000Z</time>
      </trkpt>
      <trkpt lat="48.60959" lon="2.05773">
        <ele>128.39999389648</ele>
        <time>2011-04-18T13:49:45.000Z</time>
      </trkpt>
      <trkpt lat="48.60957" lon="2.05772">
        <ele>128</ele>
        <time>2011-04-18T13:49:51.000Z</time>
      </trkpt>
      <trkpt lat="48.60952" lon="2.05768">
        <ele>126</ele>
        <time>2011-04-18T13:50:08.000Z</time>
      </trkpt>
      <trkpt lat="48.60949" lon="2.05766">
        <ele>125.19999694824</ele>
        <time>2011-04-18T13:50:09.000Z</time>
      </trkpt>
      <trkpt lat="48.60949" lon="2.05765">
        <ele>124.19999694824</ele>
        <time>2011-04-18T13:50:12.000Z</time>
      </trkpt>
      <trkpt lat="48.60942" lon="2.05754">
        <ele>131.39999389648</ele>
        <time>2011-04-18T13:51:27.000Z</time>
      </trkpt>
      <trkpt lat="48.60932" lon="2.05746">
        <ele>127</ele>
        <time>2011-04-18T13:51:36.000Z</time>
      </trkpt>
      <trkpt lat="48.60927" lon="2.0574">
        <ele>125.59999847412</ele>
        <time>2011-04-18T13:51:41.000Z</time>
      </trkpt>
      <trkpt lat="48.60916" lon="2.05728">
        <ele>123.59999847412</ele>
        <time>2011-04-18T13:51:51.000Z</time>
      </trkpt>
      <trkpt lat="48.60906" lon="2.05715">
        <ele>122.80000305176</ele>
        <time>2011-04-18T13:52:00.000Z</time>
      </trkpt>
      <trkpt lat="48.60896" lon="2.05706">
        <ele>121.19999694824</ele>
        <time>2011-04-18T13:52:09.000Z</time>
      </trkpt>
      <trkpt lat="48.60892" lon="2.05702">
        <ele>121.19999694824</ele>
        <time>2011-04-18T13:52:12.000Z</time>
      </trkpt>
      <trkpt lat="48.60886" lon="2.05697">
        <ele>120.80000305176</ele>
        <time>2011-04-18T13:52:17.000Z</time>
      </trkpt>
      <trkpt lat="48.60872" lon="2.05683">
        <ele>118.80000305176</ele>
        <time>2011-04-18T13:52:30.000Z</time>
      </trkpt>
      <trkpt lat="48.60869" lon="2.05679">
        <ele>118.40000152588</ele>
        <time>2011-04-18T13:52:33.000Z</time>
      </trkpt>
      <trkpt lat="48.60861" lon="2.05671">
        <ele>117.40000152588</ele>
        <time>2011-04-18T13:52:41.000Z</time>
      </trkpt>
      <trkpt lat="48.60852" lon="2.05662">
        <ele>116</ele>
        <time>2011-04-18T13:52:49.000Z</time>
      </trkpt>
      <trkpt lat="48.60842" lon="2.05653">
        <ele>115</ele>
        <time>2011-04-18T13:52:58.000Z</time>
      </trkpt>
      <trkpt lat="48.60839" lon="2.0565">
        <ele>114</ele>
        <time>2011-04-18T13:53:00.000Z</time>
      </trkpt>
      <trkpt lat="48.60831" lon="2.0564">
        <ele>114.59999847412</ele>
        <time>2011-04-18T13:53:09.000Z</time>
      </trkpt>
      <trkpt lat="48.60824" lon="2.05634">
        <ele>114.59999847412</ele>
        <time>2011-04-18T13:53:16.000Z</time>
      </trkpt>
      <trkpt lat="48.60816" lon="2.05626">
        <ele>114.59999847412</ele>
        <time>2011-04-18T13:53:23.000Z</time>
      </trkpt>
      <trkpt lat="48.60806" lon="2.05613">
        <ele>113</ele>
        <time>2011-04-18T13:53:33.000Z</time>
      </trkpt>
      <trkpt lat="48.60798" lon="2.05604">
        <ele>111.59999847412</ele>
        <time>2011-04-18T13:53:41.000Z</time>
      </trkpt>
      <trkpt lat="48.60789" lon="2.05595">
        <ele>111.19999694824</ele>
        <time>2011-04-18T13:53:50.000Z</time>
      </trkpt>
      <trkpt lat="48.60778" lon="2.05583">
        <ele>111.19999694824</ele>
        <time>2011-04-18T13:54:01.000Z</time>
      </trkpt>
      <trkpt lat="48.6077" lon="2.05575">
        <ele>110.59999847412</ele>
        <time>2011-04-18T13:54:08.000Z</time>
      </trkpt>
      <trkpt lat="48.60757" lon="2.05561">
        <ele>110.59999847412</ele>
        <time>2011-04-18T13:54:19.000Z</time>
      </trkpt>
      <trkpt lat="48.6075" lon="2.05552">
        <ele>111.19999694824</ele>
        <time>2011-04-18T13:54:27.000Z</time>
      </trkpt>
      <trkpt lat="48.60747" lon="2.05541">
        <ele>116</ele>
        <time>2011-04-18T13:54:35.000Z</time>
      </trkpt>
      <trkpt lat="48.60745" lon="2.05529">
        <ele>116</ele>
        <time>2011-04-18T13:54:43.000Z</time>
      </trkpt>
      <trkpt lat="48.60742" lon="2.05518">
        <ele>116</ele>
        <time>2011-04-18T13:54:49.000Z</time>
      </trkpt>
      <trkpt lat="48.60738" lon="2.05506">
        <ele>116.40000152588</ele>
        <time>2011-04-18T13:54:56.000Z</time>
      </trkpt>
      <trkpt lat="48.60738" lon="2.05501">
        <ele>116</ele>
        <time>2011-04-18T13:54:59.000Z</time>
      </trkpt>
      <trkpt lat="48.60734" lon="2.05499">
        <ele>117</ele>
        <time>2011-04-18T13:55:05.000Z</time>
      </trkpt>
      <trkpt lat="48.60733" lon="2.05498">
        <ele>117</ele>
        <time>2011-04-18T13:55:08.000Z</time>
      </trkpt>
      <trkpt lat="48.60727" lon="2.05501">
        <ele>116.40000152588</ele>
        <time>2011-04-18T13:55:15.000Z</time>
      </trkpt>
      <trkpt lat="48.60725" lon="2.05501">
        <ele>116.40000152588</ele>
        <time>2011-04-18T13:55:16.000Z</time>
      </trkpt>
      <trkpt lat="48.60718" lon="2.05502">
        <ele>115</ele>
        <time>2011-04-18T13:55:22.000Z</time>
      </trkpt>
      <trkpt lat="48.60712" lon="2.05505">
        <ele>114</ele>
        <time>2011-04-18T13:55:28.000Z</time>
      </trkpt>
      <trkpt lat="48.6071" lon="2.05505">
        <ele>114</ele>
        <time>2011-04-18T13:55:30.000Z</time>
      </trkpt>
      <trkpt lat="48.60705" lon="2.05505">
        <ele>113.59999847412</ele>
        <time>2011-04-18T13:55:36.000Z</time>
      </trkpt>
      <trkpt lat="48.60699" lon="2.05507">
        <ele>114.59999847412</ele>
        <time>2011-04-18T13:55:43.000Z</time>
      </trkpt>
      <trkpt lat="48.60697" lon="2.05506">
        <ele>115</ele>
        <time>2011-04-18T13:55:49.000Z</time>
      </trkpt>
      <trkpt lat="48.60693" lon="2.05501">
        <ele>120.40000152588</ele>
        <time>2011-04-18T13:56:50.000Z</time>
      </trkpt>
      <trkpt lat="48.60688" lon="2.05498">
        <ele>118.80000305176</ele>
        <time>2011-04-18T13:56:53.000Z</time>
      </trkpt>
      <trkpt lat="48.60682" lon="2.05493">
        <ele>117.40000152588</ele>
        <time>2011-04-18T13:56:58.000Z</time>
      </trkpt>
      <trkpt lat="48.60672" lon="2.05485">
        <ele>115</ele>
        <time>2011-04-18T13:57:07.000Z</time>
      </trkpt>
      <trkpt lat="48.60666" lon="2.05481">
        <ele>115</ele>
        <time>2011-04-18T13:57:12.000Z</time>
      </trkpt>
      <trkpt lat="48.60658" lon="2.05476">
        <ele>115.40000152588</ele>
        <time>2011-04-18T13:57:19.000Z</time>
      </trkpt>
      <trkpt lat="48.60662" lon="2.05479">
        <ele>114.59999847412</ele>
        <time>2011-04-18T13:57:25.000Z</time>
      </trkpt>
      <trkpt lat="48.60665" lon="2.0548">
        <ele>114.59999847412</ele>
        <time>2011-04-18T13:57:28.000Z</time>
      </trkpt>
      <trkpt lat="48.60667" lon="2.05479">
        <ele>114.59999847412</ele>
        <time>2011-04-18T13:57:30.000Z</time>
      </trkpt>
      <trkpt lat="48.60669" lon="2.05477">
        <ele>115</ele>
        <time>2011-04-18T13:57:32.000Z</time>
      </trkpt>
      <trkpt lat="48.60676" lon="2.05474">
        <ele>114.59999847412</ele>
        <time>2011-04-18T13:57:39.000Z</time>
      </trkpt>
      <trkpt lat="48.60678" lon="2.05475">
        <ele>114</ele>
        <time>2011-04-18T13:57:43.000Z</time>
      </trkpt>
      <trkpt lat="48.6066" lon="2.05479">
        <ele>119.80000305176</ele>
        <time>2011-04-18T13:59:14.000Z</time>
      </trkpt>
      <trkpt lat="48.6065" lon="2.05471">
        <ele>119.40000152588</ele>
        <time>2011-04-18T13:59:19.000Z</time>
      </trkpt>
      <trkpt lat="48.60649" lon="2.05471">
        <ele>118.80000305176</ele>
        <time>2011-04-18T13:59:20.000Z</time>
      </trkpt>
      <trkpt lat="48.60639" lon="2.05465">
        <ele>117.80000305176</ele>
        <time>2011-04-18T13:59:28.000Z</time>
      </trkpt>
      <trkpt lat="48.60635" lon="2.05462">
        <ele>118.40000152588</ele>
        <time>2011-04-18T13:59:34.000Z</time>
      </trkpt>
      <trkpt lat="48.60626" lon="2.05456">
        <ele>115.40000152588</ele>
        <time>2011-04-18T13:59:54.000Z</time>
      </trkpt>
      <trkpt lat="48.60614" lon="2.05447">
        <ele>114.59999847412</ele>
        <time>2011-04-18T14:00:03.000Z</time>
      </trkpt>
      <trkpt lat="48.60603" lon="2.05436">
        <ele>113</ele>
        <time>2011-04-18T14:00:12.000Z</time>
      </trkpt>
      <trkpt lat="48.60594" lon="2.05431">
        <ele>113.59999847412</ele>
        <time>2011-04-18T14:00:19.000Z</time>
      </trkpt>
      <trkpt lat="48.60586" lon="2.05425">
        <ele>112.59999847412</ele>
        <time>2011-04-18T14:00:26.000Z</time>
      </trkpt>
      <trkpt lat="48.60574" lon="2.05417">
        <ele>112.59999847412</ele>
        <time>2011-04-18T14:00:36.000Z</time>
      </trkpt>
      <trkpt lat="48.60565" lon="2.0541">
        <ele>115</ele>
        <time>2011-04-18T14:00:44.000Z</time>
      </trkpt>
      <trkpt lat="48.60554" lon="2.05402">
        <ele>116</ele>
        <time>2011-04-18T14:00:53.000Z</time>
      </trkpt>
      <trkpt lat="48.60545" lon="2.05396">
        <ele>115</ele>
        <time>2011-04-18T14:01:01.000Z</time>
      </trkpt>
      <trkpt lat="48.60539" lon="2.05395">
        <ele>117</ele>
        <time>2011-04-18T14:01:06.000Z</time>
      </trkpt>
      <trkpt lat="48.60531" lon="2.05391">
        <ele>119.40000152588</ele>
        <time>2011-04-18T14:01:13.000Z</time>
      </trkpt>
      <trkpt lat="48.60523" lon="2.05385">
        <ele>120.40000152588</ele>
        <time>2011-04-18T14:01:20.000Z</time>
      </trkpt>
      <trkpt lat="48.60515" lon="2.0538">
        <ele>119.80000305176</ele>
        <time>2011-04-18T14:01:27.000Z</time>
      </trkpt>
      <trkpt lat="48.60507" lon="2.05377">
        <ele>120.80000305176</ele>
        <time>2011-04-18T14:01:35.000Z</time>
      </trkpt>
      <trkpt lat="48.60497" lon="2.05368">
        <ele>121.19999694824</ele>
        <time>2011-04-18T14:01:43.000Z</time>
      </trkpt>
      <trkpt lat="48.60491" lon="2.05363">
        <ele>121.19999694824</ele>
        <time>2011-04-18T14:01:49.000Z</time>
      </trkpt>
      <trkpt lat="48.60481" lon="2.05354">
        <ele>119.80000305176</ele>
        <time>2011-04-18T14:01:58.000Z</time>
      </trkpt>
      <trkpt lat="48.60473" lon="2.05347">
        <ele>120.40000152588</ele>
        <time>2011-04-18T14:02:06.000Z</time>
      </trkpt>
      <trkpt lat="48.60469" lon="2.05344">
        <ele>121.19999694824</ele>
        <time>2011-04-18T14:02:09.000Z</time>
      </trkpt>
      <trkpt lat="48.60464" lon="2.0534">
        <ele>121.80000305176</ele>
        <time>2011-04-18T14:02:14.000Z</time>
      </trkpt>
      <trkpt lat="48.60456" lon="2.05336">
        <ele>118.80000305176</ele>
        <time>2011-04-18T14:02:21.000Z</time>
      </trkpt>
      <trkpt lat="48.60454" lon="2.05334">
        <ele>119.80000305176</ele>
        <time>2011-04-18T14:02:23.000Z</time>
      </trkpt>
      <trkpt lat="48.60445" lon="2.05331">
        <ele>120.40000152588</ele>
        <time>2011-04-18T14:02:32.000Z</time>
      </trkpt>
      <trkpt lat="48.6044" lon="2.05332">
        <ele>123.59999847412</ele>
        <time>2011-04-18T14:02:37.000Z</time>
      </trkpt>
      <trkpt lat="48.60431" lon="2.05329">
        <ele>123.59999847412</ele>
        <time>2011-04-18T14:02:46.000Z</time>
      </trkpt>
      <trkpt lat="48.60429" lon="2.05328">
        <ele>124.19999694824</ele>
        <time>2011-04-18T14:02:48.000Z</time>
      </trkpt>
      <trkpt lat="48.60425" lon="2.05325">
        <ele>123.19999694824</ele>
        <time>2011-04-18T14:02:52.000Z</time>
      </trkpt>
      <trkpt lat="48.60418" lon="2.05315">
        <ele>123.19999694824</ele>
        <time>2011-04-18T14:03:00.000Z</time>
      </trkpt>
      <trkpt lat="48.60409" lon="2.05304">
        <ele>123.59999847412</ele>
        <time>2011-04-18T14:03:09.000Z</time>
      </trkpt>
      <trkpt lat="48.60406" lon="2.05299">
        <ele>125.19999694824</ele>
        <time>2011-04-18T14:03:13.000Z</time>
      </trkpt>
      <trkpt lat="48.60398" lon="2.05293">
        <ele>124.59999847412</ele>
        <time>2011-04-18T14:03:20.000Z</time>
      </trkpt>
      <trkpt lat="48.60396" lon="2.05286">
        <ele>125.59999847412</ele>
        <time>2011-04-18T14:03:27.000Z</time>
      </trkpt>
      <trkpt lat="48.60389" lon="2.05282">
        <ele>124.59999847412</ele>
        <time>2011-04-18T14:03:34.000Z</time>
      </trkpt>
      <trkpt lat="48.60379" lon="2.05274">
        <ele>124.19999694824</ele>
        <time>2011-04-18T14:03:43.000Z</time>
      </trkpt>
      <trkpt lat="48.6037" lon="2.05267">
        <ele>124.59999847412</ele>
        <time>2011-04-18T14:03:52.000Z</time>
      </trkpt>
      <trkpt lat="48.60361" lon="2.05259">
        <ele>125.19999694824</ele>
        <time>2011-04-18T14:04:01.000Z</time>
      </trkpt>
      <trkpt lat="48.60356" lon="2.05253">
        <ele>125.59999847412</ele>
        <time>2011-04-18T14:04:07.000Z</time>
      </trkpt>
      <trkpt lat="48.6035" lon="2.05249">
        <ele>125.59999847412</ele>
        <time>2011-04-18T14:04:12.000Z</time>
      </trkpt>
      <trkpt lat="48.60341" lon="2.05242">
        <ele>125.59999847412</ele>
        <time>2011-04-18T14:04:20.000Z</time>
      </trkpt>
      <trkpt lat="48.60329" lon="2.05232">
        <ele>124.59999847412</ele>
        <time>2011-04-18T14:04:30.000Z</time>
      </trkpt>
      <trkpt lat="48.60316" lon="2.05222">
        <ele>124.59999847412</ele>
        <time>2011-04-18T14:04:41.000Z</time>
      </trkpt>
      <trkpt lat="48.60308" lon="2.05218">
        <ele>125.19999694824</ele>
        <time>2011-04-18T14:04:50.000Z</time>
      </trkpt>
      <trkpt lat="48.60287" lon="2.05206">
        <ele>130.80000305176</ele>
        <time>2011-04-18T14:05:31.000Z</time>
      </trkpt>
      <trkpt lat="48.60276" lon="2.05197">
        <ele>128</ele>
        <time>2011-04-18T14:05:40.000Z</time>
      </trkpt>
      <trkpt lat="48.60264" lon="2.05189">
        <ele>128</ele>
        <time>2011-04-18T14:05:50.000Z</time>
      </trkpt>
      <trkpt lat="48.6025" lon="2.05179">
        <ele>127</ele>
        <time>2011-04-18T14:06:02.000Z</time>
      </trkpt>
      <trkpt lat="48.60236" lon="2.05168">
        <ele>126.59999847412</ele>
        <time>2011-04-18T14:06:15.000Z</time>
      </trkpt>
      <trkpt lat="48.60232" lon="2.05165">
        <ele>126.59999847412</ele>
        <time>2011-04-18T14:06:19.000Z</time>
      </trkpt>
      <trkpt lat="48.60223" lon="2.0516">
        <ele>126</ele>
        <time>2011-04-18T14:06:27.000Z</time>
      </trkpt>
      <trkpt lat="48.60216" lon="2.05155">
        <ele>126.59999847412</ele>
        <time>2011-04-18T14:06:34.000Z</time>
      </trkpt>
      <trkpt lat="48.60203" lon="2.05145">
        <ele>127.59999847412</ele>
        <time>2011-04-18T14:06:46.000Z</time>
      </trkpt>
      <trkpt lat="48.60198" lon="2.05143">
        <ele>127.59999847412</ele>
        <time>2011-04-18T14:06:51.000Z</time>
      </trkpt>
      <trkpt lat="48.60193" lon="2.05141">
        <ele>127.59999847412</ele>
        <time>2011-04-18T14:06:58.000Z</time>
      </trkpt>
      <trkpt lat="48.60186" lon="2.05135">
        <ele>128.39999389648</ele>
        <time>2011-04-18T14:07:06.000Z</time>
      </trkpt>
      <trkpt lat="48.60176" lon="2.05129">
        <ele>128.39999389648</ele>
        <time>2011-04-18T14:07:15.000Z</time>
      </trkpt>
      <trkpt lat="48.60167" lon="2.05123">
        <ele>129</ele>
        <time>2011-04-18T14:07:23.000Z</time>
      </trkpt>
      <trkpt lat="48.60159" lon="2.05118">
        <ele>129</ele>
        <time>2011-04-18T14:07:30.000Z</time>
      </trkpt>
      <trkpt lat="48.60156" lon="2.05116">
        <ele>129</ele>
        <time>2011-04-18T14:07:34.000Z</time>
      </trkpt>
      <trkpt lat="48.6015" lon="2.05122">
        <ele>127.59999847412</ele>
        <time>2011-04-18T14:07:43.000Z</time>
      </trkpt>
      <trkpt lat="48.6015" lon="2.05122">
        <ele>127.59999847412</ele>
        <time>2011-04-18T14:07:44.000Z</time>
      </trkpt>
      <trkpt lat="48.60145" lon="2.05113">
        <ele>128</ele>
        <time>2011-04-18T14:07:56.000Z</time>
      </trkpt>
      <trkpt lat="48.60138" lon="2.05105">
        <ele>129.39999389648</ele>
        <time>2011-04-18T14:08:02.000Z</time>
      </trkpt>
      <trkpt lat="48.60124" lon="2.05095">
        <ele>130</ele>
        <time>2011-04-18T14:08:14.000Z</time>
      </trkpt>
      <trkpt lat="48.6012" lon="2.05092">
        <ele>130</ele>
        <time>2011-04-18T14:08:18.000Z</time>
      </trkpt>
      <trkpt lat="48.6011" lon="2.05086">
        <ele>131.39999389648</ele>
        <time>2011-04-18T14:08:27.000Z</time>
      </trkpt>
      <trkpt lat="48.60103" lon="2.05081">
        <ele>132.80000305176</ele>
        <time>2011-04-18T14:08:33.000Z</time>
      </trkpt>
      <trkpt lat="48.6009" lon="2.05071">
        <ele>132.39999389648</ele>
        <time>2011-04-18T14:08:45.000Z</time>
      </trkpt>
      <trkpt lat="48.60081" lon="2.05065">
        <ele>134.19999694824</ele>
        <time>2011-04-18T14:08:54.000Z</time>
      </trkpt>
      <trkpt lat="48.60073" lon="2.05058">
        <ele>134.19999694824</ele>
        <time>2011-04-18T14:09:02.000Z</time>
      </trkpt>
      <trkpt lat="48.6007" lon="2.05055">
        <ele>134.19999694824</ele>
        <time>2011-04-18T14:09:05.000Z</time>
      </trkpt>
      <trkpt lat="48.60062" lon="2.05054">
        <ele>133.80000305176</ele>
        <time>2011-04-18T14:09:12.000Z</time>
      </trkpt>
      <trkpt lat="48.60061" lon="2.05053">
        <ele>133.80000305176</ele>
        <time>2011-04-18T14:09:13.000Z</time>
      </trkpt>
      <trkpt lat="48.6005" lon="2.05048">
        <ele>134.19999694824</ele>
        <time>2011-04-18T14:09:22.000Z</time>
      </trkpt>
      <trkpt lat="48.60041" lon="2.05044">
        <ele>134.19999694824</ele>
        <time>2011-04-18T14:09:30.000Z</time>
      </trkpt>
      <trkpt lat="48.60031" lon="2.05038">
        <ele>133.19999694824</ele>
        <time>2011-04-18T14:09:39.000Z</time>
      </trkpt>
      <trkpt lat="48.60023" lon="2.05034">
        <ele>132.80000305176</ele>
        <time>2011-04-18T14:09:45.000Z</time>
      </trkpt>
      <trkpt lat="48.60014" lon="2.0503">
        <ele>133.19999694824</ele>
        <time>2011-04-18T14:09:52.000Z</time>
      </trkpt>
      <trkpt lat="48.60013" lon="2.05029">
        <ele>133.19999694824</ele>
        <time>2011-04-18T14:09:53.000Z</time>
      </trkpt>
      <trkpt lat="48.60007" lon="2.05024">
        <ele>133.19999694824</ele>
        <time>2011-04-18T14:09:58.000Z</time>
      </trkpt>
      <trkpt lat="48.59995" lon="2.05016">
        <ele>134.80000305176</ele>
        <time>2011-04-18T14:10:08.000Z</time>
      </trkpt>
      <trkpt lat="48.59986" lon="2.05012">
        <ele>135.19999694824</ele>
        <time>2011-04-18T14:10:18.000Z</time>
      </trkpt>
      <trkpt lat="48.59975" lon="2.05003">
        <ele>135.19999694824</ele>
        <time>2011-04-18T14:10:28.000Z</time>
      </trkpt>
      <trkpt lat="48.59962" lon="2.04994">
        <ele>135.60000610352</ele>
        <time>2011-04-18T14:10:40.000Z</time>
      </trkpt>
      <trkpt lat="48.59954" lon="2.04988">
        <ele>136.19999694824</ele>
        <time>2011-04-18T14:10:47.000Z</time>
      </trkpt>
      <trkpt lat="48.59943" lon="2.04983">
        <ele>138.60000610352</ele>
        <time>2011-04-18T14:10:56.000Z</time>
      </trkpt>
      <trkpt lat="48.59933" lon="2.04975">
        <ele>139</ele>
        <time>2011-04-18T14:11:06.000Z</time>
      </trkpt>
      <trkpt lat="48.59928" lon="2.04971">
        <ele>138</ele>
        <time>2011-04-18T14:11:12.000Z</time>
      </trkpt>
      <trkpt lat="48.59922" lon="2.04968">
        <ele>138.60000610352</ele>
        <time>2011-04-18T14:11:18.000Z</time>
      </trkpt>
      <trkpt lat="48.59917" lon="2.04965">
        <ele>139.60000610352</ele>
        <time>2011-04-18T14:11:23.000Z</time>
      </trkpt>
      <trkpt lat="48.59911" lon="2.04961">
        <ele>139</ele>
        <time>2011-04-18T14:11:29.000Z</time>
      </trkpt>
      <trkpt lat="48.59904" lon="2.04958">
        <ele>141.39999389648</ele>
        <time>2011-04-18T14:11:36.000Z</time>
      </trkpt>
      <trkpt lat="48.59896" lon="2.04954">
        <ele>139.60000610352</ele>
        <time>2011-04-18T14:11:44.000Z</time>
      </trkpt>
      <trkpt lat="48.59887" lon="2.04949">
        <ele>138</ele>
        <time>2011-04-18T14:11:51.000Z</time>
      </trkpt>
      <trkpt lat="48.59878" lon="2.04944">
        <ele>141.39999389648</ele>
        <time>2011-04-18T14:11:58.000Z</time>
      </trkpt>
      <trkpt lat="48.59869" lon="2.04936">
        <ele>142</ele>
        <time>2011-04-18T14:12:06.000Z</time>
      </trkpt>
      <trkpt lat="48.59861" lon="2.0493">
        <ele>141</ele>
        <time>2011-04-18T14:12:12.000Z</time>
      </trkpt>
      <trkpt lat="48.59854" lon="2.04925">
        <ele>142</ele>
        <time>2011-04-18T14:12:18.000Z</time>
      </trkpt>
      <trkpt lat="48.59841" lon="2.04916">
        <ele>141</ele>
        <time>2011-04-18T14:12:29.000Z</time>
      </trkpt>
      <trkpt lat="48.59837" lon="2.04912">
        <ele>143.39999389648</ele>
        <time>2011-04-18T14:12:33.000Z</time>
      </trkpt>
      <trkpt lat="48.59829" lon="2.04909">
        <ele>145.80000305176</ele>
        <time>2011-04-18T14:12:40.000Z</time>
      </trkpt>
      <trkpt lat="48.59821" lon="2.04904">
        <ele>148.19999694824</ele>
        <time>2011-04-18T14:12:47.000Z</time>
      </trkpt>
      <trkpt lat="48.5981" lon="2.04903">
        <ele>154</ele>
        <time>2011-04-18T14:12:54.000Z</time>
      </trkpt>
      <trkpt lat="48.59807" lon="2.04901">
        <ele>155.80000305176</ele>
        <time>2011-04-18T14:12:56.000Z</time>
      </trkpt>
      <trkpt lat="48.59797" lon="2.04896">
        <ele>154.39999389648</ele>
        <time>2011-04-18T14:13:03.000Z</time>
      </trkpt>
      <trkpt lat="48.59796" lon="2.04894">
        <ele>154.39999389648</ele>
        <time>2011-04-18T14:13:04.000Z</time>
      </trkpt>
      <trkpt lat="48.59792" lon="2.04889">
        <ele>156.80000305176</ele>
        <time>2011-04-18T14:13:08.000Z</time>
      </trkpt>
      <trkpt lat="48.59782" lon="2.04884">
        <ele>155.80000305176</ele>
        <time>2011-04-18T14:13:15.000Z</time>
      </trkpt>
      <trkpt lat="48.59777" lon="2.04881">
        <ele>158.80000305176</ele>
        <time>2011-04-18T14:13:19.000Z</time>
      </trkpt>
      <trkpt lat="48.59772" lon="2.04875">
        <ele>156.80000305176</ele>
        <time>2011-04-18T14:13:26.000Z</time>
      </trkpt>
      <trkpt lat="48.59769" lon="2.0487">
        <ele>156.80000305176</ele>
        <time>2011-04-18T14:13:29.000Z</time>
      </trkpt>
      <trkpt lat="48.59761" lon="2.04862">
        <ele>154.39999389648</ele>
        <time>2011-04-18T14:13:36.000Z</time>
      </trkpt>
      <trkpt lat="48.59759" lon="2.0486">
        <ele>153.39999389648</ele>
        <time>2011-04-18T14:13:38.000Z</time>
      </trkpt>
      <trkpt lat="48.59748" lon="2.04854">
        <ele>155.39999389648</ele>
        <time>2011-04-18T14:13:46.000Z</time>
      </trkpt>
      <trkpt lat="48.59742" lon="2.04851">
        <ele>152</ele>
        <time>2011-04-18T14:13:50.000Z</time>
      </trkpt>
      <trkpt lat="48.59734" lon="2.04847">
        <ele>155.80000305176</ele>
        <time>2011-04-18T14:13:57.000Z</time>
      </trkpt>
      <trkpt lat="48.59732" lon="2.04846">
        <ele>155</ele>
        <time>2011-04-18T14:13:59.000Z</time>
      </trkpt>
      <trkpt lat="48.5973" lon="2.04842">
        <ele>154</ele>
        <time>2011-04-18T14:14:03.000Z</time>
      </trkpt>
      <trkpt lat="48.59722" lon="2.04835">
        <ele>153</ele>
        <time>2011-04-18T14:14:09.000Z</time>
      </trkpt>
      <trkpt lat="48.59721" lon="2.04834">
        <ele>153</ele>
        <time>2011-04-18T14:14:10.000Z</time>
      </trkpt>
      <trkpt lat="48.5971" lon="2.04827">
        <ele>155</ele>
        <time>2011-04-18T14:14:19.000Z</time>
      </trkpt>
      <trkpt lat="48.59703" lon="2.04824">
        <ele>156.39999389648</ele>
        <time>2011-04-18T14:14:25.000Z</time>
      </trkpt>
      <trkpt lat="48.59695" lon="2.04819">
        <ele>156.39999389648</ele>
        <time>2011-04-18T14:14:32.000Z</time>
      </trkpt>
      <trkpt lat="48.59693" lon="2.04817">
        <ele>155</ele>
        <time>2011-04-18T14:14:34.000Z</time>
      </trkpt>
      <trkpt lat="48.59683" lon="2.04808">
        <ele>156.80000305176</ele>
        <time>2011-04-18T14:14:43.000Z</time>
      </trkpt>
      <trkpt lat="48.59675" lon="2.04805">
        <ele>159.19999694824</ele>
        <time>2011-04-18T14:14:50.000Z</time>
      </trkpt>
      <trkpt lat="48.59669" lon="2.04801">
        <ele>160.19999694824</ele>
        <time>2011-04-18T14:14:55.000Z</time>
      </trkpt>
      <trkpt lat="48.59664" lon="2.04796">
        <ele>161.19999694824</ele>
        <time>2011-04-18T14:15:01.000Z</time>
      </trkpt>
      <trkpt lat="48.59662" lon="2.04794">
        <ele>160.60000610352</ele>
        <time>2011-04-18T14:15:03.000Z</time>
      </trkpt>
      <trkpt lat="48.59655" lon="2.0479">
        <ele>161.19999694824</ele>
        <time>2011-04-18T14:15:10.000Z</time>
      </trkpt>
      <trkpt lat="48.59646" lon="2.04783">
        <ele>162.19999694824</ele>
        <time>2011-04-18T14:15:18.000Z</time>
      </trkpt>
      <trkpt lat="48.59638" lon="2.04778">
        <ele>163</ele>
        <time>2011-04-18T14:15:25.000Z</time>
      </trkpt>
      <trkpt lat="48.59629" lon="2.04772">
        <ele>164.60000610352</ele>
        <time>2011-04-18T14:15:33.000Z</time>
      </trkpt>
      <trkpt lat="48.5962" lon="2.04766">
        <ele>164.60000610352</ele>
        <time>2011-04-18T14:15:41.000Z</time>
      </trkpt>
      <trkpt lat="48.59609" lon="2.04761">
        <ele>162.19999694824</ele>
        <time>2011-04-18T14:15:50.000Z</time>
      </trkpt>
      <trkpt lat="48.59601" lon="2.04757">
        <ele>160.19999694824</ele>
        <time>2011-04-18T14:15:57.000Z</time>
      </trkpt>
      <trkpt lat="48.59593" lon="2.04748">
        <ele>161.19999694824</ele>
        <time>2011-04-18T14:16:05.000Z</time>
      </trkpt>
      <trkpt lat="48.59589" lon="2.04744">
        <ele>162.19999694824</ele>
        <time>2011-04-18T14:16:12.000Z</time>
      </trkpt>
      <trkpt lat="48.59589" lon="2.04728">
        <ele>157.39999389648</ele>
        <time>2011-04-18T14:16:37.000Z</time>
      </trkpt>
      <trkpt lat="48.5959" lon="2.04716">
        <ele>160.19999694824</ele>
        <time>2011-04-18T14:16:44.000Z</time>
      </trkpt>
      <trkpt lat="48.5959" lon="2.04712">
        <ele>160.60000610352</ele>
        <time>2011-04-18T14:16:46.000Z</time>
      </trkpt>
      <trkpt lat="48.5959" lon="2.04701">
        <ele>159.80000305176</ele>
        <time>2011-04-18T14:16:52.000Z</time>
      </trkpt>
      <trkpt lat="48.59589" lon="2.04697">
        <ele>161.19999694824</ele>
        <time>2011-04-18T14:16:54.000Z</time>
      </trkpt>
      <trkpt lat="48.5959" lon="2.04686">
        <ele>160.60000610352</ele>
        <time>2011-04-18T14:17:00.000Z</time>
      </trkpt>
      <trkpt lat="48.59592" lon="2.04674">
        <ele>159.19999694824</ele>
        <time>2011-04-18T14:17:06.000Z</time>
      </trkpt>
      <trkpt lat="48.59591" lon="2.04662">
        <ele>164</ele>
        <time>2011-04-18T14:17:12.000Z</time>
      </trkpt>
      <trkpt lat="48.59591" lon="2.04651">
        <ele>164.60000610352</ele>
        <time>2011-04-18T14:17:18.000Z</time>
      </trkpt>
      <trkpt lat="48.59592" lon="2.04643">
        <ele>164</ele>
        <time>2011-04-18T14:17:22.000Z</time>
      </trkpt>
      <trkpt lat="48.59592" lon="2.04634">
        <ele>163</ele>
        <time>2011-04-18T14:17:27.000Z</time>
      </trkpt>
      <trkpt lat="48.59594" lon="2.04618">
        <ele>161.19999694824</ele>
        <time>2011-04-18T14:17:35.000Z</time>
      </trkpt>
      <trkpt lat="48.59595" lon="2.04609">
        <ele>160.19999694824</ele>
        <time>2011-04-18T14:17:40.000Z</time>
      </trkpt>
      <trkpt lat="48.59593" lon="2.04596">
        <ele>167.80000305176</ele>
        <time>2011-04-18T14:17:47.000Z</time>
      </trkpt>
      <trkpt lat="48.59596" lon="2.04588">
        <ele>169.39999389648</ele>
        <time>2011-04-18T14:17:51.000Z</time>
      </trkpt>
      <trkpt lat="48.59596" lon="2.04579">
        <ele>168.39999389648</ele>
        <time>2011-04-18T14:17:55.000Z</time>
      </trkpt>
      <trkpt lat="48.59598" lon="2.04563">
        <ele>167</ele>
        <time>2011-04-18T14:18:03.000Z</time>
      </trkpt>
      <trkpt lat="48.59599" lon="2.04548">
        <ele>164.60000610352</ele>
        <time>2011-04-18T14:18:10.000Z</time>
      </trkpt>
      <trkpt lat="48.596" lon="2.04532">
        <ele>163.60000610352</ele>
        <time>2011-04-18T14:18:18.000Z</time>
      </trkpt>
      <trkpt lat="48.59601" lon="2.04521">
        <ele>161.60000610352</ele>
        <time>2011-04-18T14:18:24.000Z</time>
      </trkpt>
      <trkpt lat="48.59602" lon="2.0451">
        <ele>161.19999694824</ele>
        <time>2011-04-18T14:18:30.000Z</time>
      </trkpt>
      <trkpt lat="48.59604" lon="2.04502">
        <ele>159.80000305176</ele>
        <time>2011-04-18T14:18:34.000Z</time>
      </trkpt>
      <trkpt lat="48.59606" lon="2.04486">
        <ele>158.80000305176</ele>
        <time>2011-04-18T14:18:42.000Z</time>
      </trkpt>
      <trkpt lat="48.59608" lon="2.0447">
        <ele>156.80000305176</ele>
        <time>2011-04-18T14:18:50.000Z</time>
      </trkpt>
      <trkpt lat="48.59608" lon="2.04456">
        <ele>157.80000305176</ele>
        <time>2011-04-18T14:18:57.000Z</time>
      </trkpt>
      <trkpt lat="48.59609" lon="2.04446">
        <ele>157.39999389648</ele>
        <time>2011-04-18T14:19:02.000Z</time>
      </trkpt>
      <trkpt lat="48.59611" lon="2.04427">
        <ele>156.39999389648</ele>
        <time>2011-04-18T14:19:11.000Z</time>
      </trkpt>
      <trkpt lat="48.59612" lon="2.04412">
        <ele>155.39999389648</ele>
        <time>2011-04-18T14:19:19.000Z</time>
      </trkpt>
      <trkpt lat="48.59612" lon="2.044">
        <ele>155.39999389648</ele>
        <time>2011-04-18T14:19:25.000Z</time>
      </trkpt>
      <trkpt lat="48.59613" lon="2.04392">
        <ele>155.80000305176</ele>
        <time>2011-04-18T14:19:29.000Z</time>
      </trkpt>
      <trkpt lat="48.59612" lon="2.04385">
        <ele>157.39999389648</ele>
        <time>2011-04-18T14:19:33.000Z</time>
      </trkpt>
      <trkpt lat="48.59612" lon="2.04371">
        <ele>159.19999694824</ele>
        <time>2011-04-18T14:19:41.000Z</time>
      </trkpt>
      <trkpt lat="48.59614" lon="2.04356">
        <ele>159.80000305176</ele>
        <time>2011-04-18T14:19:48.000Z</time>
      </trkpt>
      <trkpt lat="48.59616" lon="2.04347">
        <ele>159.19999694824</ele>
        <time>2011-04-18T14:19:53.000Z</time>
      </trkpt>
      <trkpt lat="48.59617" lon="2.04339">
        <ele>159.19999694824</ele>
        <time>2011-04-18T14:19:57.000Z</time>
      </trkpt>
      <trkpt lat="48.59619" lon="2.04321">
        <ele>161.19999694824</ele>
        <time>2011-04-18T14:20:05.000Z</time>
      </trkpt>
      <trkpt lat="48.5962" lon="2.04307">
        <ele>161.19999694824</ele>
        <time>2011-04-18T14:20:13.000Z</time>
      </trkpt>
      <trkpt lat="48.59619" lon="2.04294">
        <ele>160.60000610352</ele>
        <time>2011-04-18T14:20:20.000Z</time>
      </trkpt>
      <trkpt lat="48.59619" lon="2.04281">
        <ele>159.80000305176</ele>
        <time>2011-04-18T14:20:27.000Z</time>
      </trkpt>
      <trkpt lat="48.59619" lon="2.04275">
        <ele>160.19999694824</ele>
        <time>2011-04-18T14:20:30.000Z</time>
      </trkpt>
      <trkpt lat="48.59617" lon="2.04263">
        <ele>160.60000610352</ele>
        <time>2011-04-18T14:20:36.000Z</time>
      </trkpt>
      <trkpt lat="48.59617" lon="2.04261">
        <ele>161.19999694824</ele>
        <time>2011-04-18T14:20:37.000Z</time>
      </trkpt>
      <trkpt lat="48.59615" lon="2.04242">
        <ele>162.19999694824</ele>
        <time>2011-04-18T14:20:46.000Z</time>
      </trkpt>
      <trkpt lat="48.59615" lon="2.04224">
        <ele>160.60000610352</ele>
        <time>2011-04-18T14:20:54.000Z</time>
      </trkpt>
      <trkpt lat="48.59615" lon="2.04213">
        <ele>158.80000305176</ele>
        <time>2011-04-18T14:21:00.000Z</time>
      </trkpt>
      <trkpt lat="48.59614" lon="2.04198">
        <ele>159.80000305176</ele>
        <time>2011-04-18T14:21:07.000Z</time>
      </trkpt>
      <trkpt lat="48.59613" lon="2.04185">
        <ele>159.80000305176</ele>
        <time>2011-04-18T14:21:12.000Z</time>
      </trkpt>
      <trkpt lat="48.59612" lon="2.04177">
        <ele>161.19999694824</ele>
        <time>2011-04-18T14:21:19.000Z</time>
      </trkpt>
      <trkpt lat="48.59612" lon="2.04177">
        <ele>160.60000610352</ele>
        <time>2011-04-18T14:21:20.000Z</time>
      </trkpt>
      <trkpt lat="48.59611" lon="2.04171">
        <ele>157.80000305176</ele>
        <time>2011-04-18T14:21:28.000Z</time>
      </trkpt>
      <trkpt lat="48.59612" lon="2.04163">
        <ele>155.39999389648</ele>
        <time>2011-04-18T14:21:31.000Z</time>
      </trkpt>
      <trkpt lat="48.5961" lon="2.04145">
        <ele>153.39999389648</ele>
        <time>2011-04-18T14:21:40.000Z</time>
      </trkpt>
      <trkpt lat="48.5961" lon="2.04142">
        <ele>152</ele>
        <time>2011-04-18T14:21:42.000Z</time>
      </trkpt>
      <trkpt lat="48.5961" lon="2.04135">
        <ele>151.60000610352</ele>
        <time>2011-04-18T14:21:46.000Z</time>
      </trkpt>
      <trkpt lat="48.59609" lon="2.04121">
        <ele>149.60000610352</ele>
        <time>2011-04-18T14:21:53.000Z</time>
      </trkpt>
      <trkpt lat="48.59607" lon="2.04106">
        <ele>149.19999694824</ele>
        <time>2011-04-18T14:22:01.000Z</time>
      </trkpt>
      <trkpt lat="48.59607" lon="2.04104">
        <ele>150.19999694824</ele>
        <time>2011-04-18T14:22:02.000Z</time>
      </trkpt>
      <trkpt lat="48.59608" lon="2.04091">
        <ele>153.39999389648</ele>
        <time>2011-04-18T14:22:09.000Z</time>
      </trkpt>
      <trkpt lat="48.59608" lon="2.04088">
        <ele>153.39999389648</ele>
        <time>2011-04-18T14:22:10.000Z</time>
      </trkpt>
      <trkpt lat="48.59608" lon="2.0407">
        <ele>155</ele>
        <time>2011-04-18T14:22:18.000Z</time>
      </trkpt>
      <trkpt lat="48.59605" lon="2.04057">
        <ele>156.80000305176</ele>
        <time>2011-04-18T14:22:26.000Z</time>
      </trkpt>
      <trkpt lat="48.59604" lon="2.04044">
        <ele>155</ele>
        <time>2011-04-18T14:22:32.000Z</time>
      </trkpt>
      <trkpt lat="48.59603" lon="2.04029">
        <ele>155</ele>
        <time>2011-04-18T14:22:39.000Z</time>
      </trkpt>
      <trkpt lat="48.59602" lon="2.04012">
        <ele>155.39999389648</ele>
        <time>2011-04-18T14:22:48.000Z</time>
      </trkpt>
      <trkpt lat="48.59602" lon="2.03996">
        <ele>156.80000305176</ele>
        <time>2011-04-18T14:22:57.000Z</time>
      </trkpt>
      <trkpt lat="48.59607" lon="2.03982">
        <ele>157.80000305176</ele>
        <time>2011-04-18T14:23:05.000Z</time>
      </trkpt>
      <trkpt lat="48.59608" lon="2.0398">
        <ele>157.80000305176</ele>
        <time>2011-04-18T14:23:06.000Z</time>
      </trkpt>
      <trkpt lat="48.59611" lon="2.03974">
        <ele>157.39999389648</ele>
        <time>2011-04-18T14:23:10.000Z</time>
      </trkpt>
      <trkpt lat="48.59615" lon="2.03965">
        <ele>157.39999389648</ele>
        <time>2011-04-18T14:23:15.000Z</time>
      </trkpt>
      <trkpt lat="48.59619" lon="2.03959">
        <ele>156.80000305176</ele>
        <time>2011-04-18T14:23:20.000Z</time>
      </trkpt>
      <trkpt lat="48.59621" lon="2.03953">
        <ele>156.39999389648</ele>
        <time>2011-04-18T14:23:23.000Z</time>
      </trkpt>
      <trkpt lat="48.59628" lon="2.0394">
        <ele>155.80000305176</ele>
        <time>2011-04-18T14:23:30.000Z</time>
      </trkpt>
      <trkpt lat="48.59632" lon="2.03933">
        <ele>153.39999389648</ele>
        <time>2011-04-18T14:23:35.000Z</time>
      </trkpt>
      <trkpt lat="48.59637" lon="2.0392">
        <ele>152</ele>
        <time>2011-04-18T14:23:42.000Z</time>
      </trkpt>
      <trkpt lat="48.59637" lon="2.03915">
        <ele>151.60000610352</ele>
        <time>2011-04-18T14:23:44.000Z</time>
      </trkpt>
      <trkpt lat="48.59641" lon="2.039">
        <ele>152</ele>
        <time>2011-04-18T14:23:51.000Z</time>
      </trkpt>
      <trkpt lat="48.59646" lon="2.03893">
        <ele>153</ele>
        <time>2011-04-18T14:23:56.000Z</time>
      </trkpt>
      <trkpt lat="48.59651" lon="2.03883">
        <ele>153.39999389648</ele>
        <time>2011-04-18T14:24:02.000Z</time>
      </trkpt>
      <trkpt lat="48.59657" lon="2.03872">
        <ele>151.60000610352</ele>
        <time>2011-04-18T14:24:09.000Z</time>
      </trkpt>
      <trkpt lat="48.59663" lon="2.03858">
        <ele>150.19999694824</ele>
        <time>2011-04-18T14:24:17.000Z</time>
      </trkpt>
      <trkpt lat="48.59669" lon="2.03845">
        <ele>150.60000610352</ele>
        <time>2011-04-18T14:24:24.000Z</time>
      </trkpt>
      <trkpt lat="48.59673" lon="2.03839">
        <ele>149.60000610352</ele>
        <time>2011-04-18T14:24:28.000Z</time>
      </trkpt>
      <trkpt lat="48.59682" lon="2.03825">
        <ele>150.19999694824</ele>
        <time>2011-04-18T14:24:38.000Z</time>
      </trkpt>
      <trkpt lat="48.59682" lon="2.03824">
        <ele>151</ele>
        <time>2011-04-18T14:24:39.000Z</time>
      </trkpt>
      <trkpt lat="48.59688" lon="2.0381">
        <ele>151.60000610352</ele>
        <time>2011-04-18T14:24:48.000Z</time>
      </trkpt>
      <trkpt lat="48.59689" lon="2.03808">
        <ele>151</ele>
        <time>2011-04-18T14:24:49.000Z</time>
      </trkpt>
      <trkpt lat="48.59696" lon="2.03794">
        <ele>151</ele>
        <time>2011-04-18T14:24:57.000Z</time>
      </trkpt>
      <trkpt lat="48.59699" lon="2.03787">
        <ele>150.60000610352</ele>
        <time>2011-04-18T14:25:01.000Z</time>
      </trkpt>
      <trkpt lat="48.59705" lon="2.03776">
        <ele>150.19999694824</ele>
        <time>2011-04-18T14:25:08.000Z</time>
      </trkpt>
      <trkpt lat="48.59706" lon="2.03775">
        <ele>149.60000610352</ele>
        <time>2011-04-18T14:25:09.000Z</time>
      </trkpt>
      <trkpt lat="48.5971" lon="2.03763">
        <ele>148.19999694824</ele>
        <time>2011-04-18T14:25:17.000Z</time>
      </trkpt>
      <trkpt lat="48.59711" lon="2.03761">
        <ele>148.19999694824</ele>
        <time>2011-04-18T14:25:18.000Z</time>
      </trkpt>
      <trkpt lat="48.59714" lon="2.03751">
        <ele>150.60000610352</ele>
        <time>2011-04-18T14:25:25.000Z</time>
      </trkpt>
      <trkpt lat="48.59718" lon="2.0374">
        <ele>153</ele>
        <time>2011-04-18T14:25:31.000Z</time>
      </trkpt>
      <trkpt lat="48.59719" lon="2.03738">
        <ele>153</ele>
        <time>2011-04-18T14:25:32.000Z</time>
      </trkpt>
      <trkpt lat="48.59726" lon="2.0372">
        <ele>153</ele>
        <time>2011-04-18T14:25:41.000Z</time>
      </trkpt>
      <trkpt lat="48.59729" lon="2.03709">
        <ele>152.60000610352</ele>
        <time>2011-04-18T14:25:46.000Z</time>
      </trkpt>
      <trkpt lat="48.59733" lon="2.03701">
        <ele>152.60000610352</ele>
        <time>2011-04-18T14:25:51.000Z</time>
      </trkpt>
      <trkpt lat="48.59739" lon="2.0369">
        <ele>152.60000610352</ele>
        <time>2011-04-18T14:25:58.000Z</time>
      </trkpt>
      <trkpt lat="48.59742" lon="2.03684">
        <ele>151.60000610352</ele>
        <time>2011-04-18T14:26:01.000Z</time>
      </trkpt>
      <trkpt lat="48.59747" lon="2.03675">
        <ele>151.60000610352</ele>
        <time>2011-04-18T14:26:07.000Z</time>
      </trkpt>
      <trkpt lat="48.5975" lon="2.0367">
        <ele>150.19999694824</ele>
        <time>2011-04-18T14:26:12.000Z</time>
      </trkpt>
      <trkpt lat="48.59747" lon="2.03664">
        <ele>150.60000610352</ele>
        <time>2011-04-18T14:26:20.000Z</time>
      </trkpt>
      <trkpt lat="48.59737" lon="2.03658">
        <ele>150.19999694824</ele>
        <time>2011-04-18T14:26:30.000Z</time>
      </trkpt>
      <trkpt lat="48.59729" lon="2.03655">
        <ele>150.19999694824</ele>
        <time>2011-04-18T14:26:37.000Z</time>
      </trkpt>
      <trkpt lat="48.59717" lon="2.03654">
        <ele>154.39999389648</ele>
        <time>2011-04-18T14:26:48.000Z</time>
      </trkpt>
      <trkpt lat="48.5971" lon="2.03656">
        <ele>157.80000305176</ele>
        <time>2011-04-18T14:26:55.000Z</time>
      </trkpt>
      <trkpt lat="48.59699" lon="2.03654">
        <ele>161.60000610352</ele>
        <time>2011-04-18T14:27:03.000Z</time>
      </trkpt>
      <trkpt lat="48.5969" lon="2.0365">
        <ele>158.80000305176</ele>
        <time>2011-04-18T14:27:10.000Z</time>
      </trkpt>
      <trkpt lat="48.5968" lon="2.03647">
        <ele>160.19999694824</ele>
        <time>2011-04-18T14:27:18.000Z</time>
      </trkpt>
      <trkpt lat="48.59676" lon="2.03646">
        <ele>156.80000305176</ele>
        <time>2011-04-18T14:27:25.000Z</time>
      </trkpt>
      <trkpt lat="48.59671" lon="2.03644">
        <ele>158.80000305176</ele>
        <time>2011-04-18T14:27:32.000Z</time>
      </trkpt>
      <trkpt lat="48.59663" lon="2.03643">
        <ele>159.80000305176</ele>
        <time>2011-04-18T14:27:38.000Z</time>
      </trkpt>
      <trkpt lat="48.59653" lon="2.0364">
        <ele>159.19999694824</ele>
        <time>2011-04-18T14:27:46.000Z</time>
      </trkpt>
      <trkpt lat="48.59643" lon="2.03637">
        <ele>155.80000305176</ele>
        <time>2011-04-18T14:27:54.000Z</time>
      </trkpt>
      <trkpt lat="48.59641" lon="2.03638">
        <ele>155.80000305176</ele>
        <time>2011-04-18T14:27:56.000Z</time>
      </trkpt>
      <trkpt lat="48.59636" lon="2.03635">
        <ele>156.80000305176</ele>
        <time>2011-04-18T14:28:02.000Z</time>
      </trkpt>
      <trkpt lat="48.5963" lon="2.0363">
        <ele>156.80000305176</ele>
        <time>2011-04-18T14:28:09.000Z</time>
      </trkpt>
      <trkpt lat="48.5963" lon="2.0363">
        <ele>157.39999389648</ele>
        <time>2011-04-18T14:28:10.000Z</time>
      </trkpt>
      <trkpt lat="48.5961" lon="2.03624">
        <ele>164</ele>
        <time>2011-04-18T14:28:41.000Z</time>
      </trkpt>
      <trkpt lat="48.596" lon="2.03623">
        <ele>166</ele>
        <time>2011-04-18T14:28:48.000Z</time>
      </trkpt>
      <trkpt lat="48.59598" lon="2.03623">
        <ele>167.80000305176</ele>
        <time>2011-04-18T14:28:50.000Z</time>
      </trkpt>
      <trkpt lat="48.5959" lon="2.03624">
        <ele>168.39999389648</ele>
        <time>2011-04-18T14:28:57.000Z</time>
      </trkpt>
      <trkpt lat="48.59584" lon="2.03622">
        <ele>169.80000305176</ele>
        <time>2011-04-18T14:29:01.000Z</time>
      </trkpt>
      <trkpt lat="48.59576" lon="2.03621">
        <ele>167.80000305176</ele>
        <time>2011-04-18T14:29:07.000Z</time>
      </trkpt>
      <trkpt lat="48.59568" lon="2.03617">
        <ele>168.39999389648</ele>
        <time>2011-04-18T14:29:14.000Z</time>
      </trkpt>
      <trkpt lat="48.59563" lon="2.03616">
        <ele>166</ele>
        <time>2011-04-18T14:29:18.000Z</time>
      </trkpt>
      <trkpt lat="48.59551" lon="2.03615">
        <ele>162.60000610352</ele>
        <time>2011-04-18T14:29:27.000Z</time>
      </trkpt>
      <trkpt lat="48.59544" lon="2.03612">
        <ele>163</ele>
        <time>2011-04-18T14:29:33.000Z</time>
      </trkpt>
      <trkpt lat="48.59541" lon="2.03612">
        <ele>161.60000610352</ele>
        <time>2011-04-18T14:29:37.000Z</time>
      </trkpt>
      <trkpt lat="48.59531" lon="2.03612">
        <ele>162.60000610352</ele>
        <time>2011-04-18T14:29:45.000Z</time>
      </trkpt>
      <trkpt lat="48.59522" lon="2.03612">
        <ele>163.60000610352</ele>
        <time>2011-04-18T14:29:52.000Z</time>
      </trkpt>
      <trkpt lat="48.59511" lon="2.0361">
        <ele>167.39999389648</ele>
        <time>2011-04-18T14:30:01.000Z</time>
      </trkpt>
      <trkpt lat="48.59505" lon="2.03609">
        <ele>169.80000305176</ele>
        <time>2011-04-18T14:30:05.000Z</time>
      </trkpt>
      <trkpt lat="48.59497" lon="2.03607">
        <ele>169.80000305176</ele>
        <time>2011-04-18T14:30:11.000Z</time>
      </trkpt>
      <trkpt lat="48.59489" lon="2.03606">
        <ele>168.39999389648</ele>
        <time>2011-04-18T14:30:18.000Z</time>
      </trkpt>
      <trkpt lat="48.59486" lon="2.03603">
        <ele>167</ele>
        <time>2011-04-18T14:30:21.000Z</time>
      </trkpt>
      <trkpt lat="48.59482" lon="2.03601">
        <ele>164.60000610352</ele>
        <time>2011-04-18T14:30:25.000Z</time>
      </trkpt>
      <trkpt lat="48.59477" lon="2.036">
        <ele>163</ele>
        <time>2011-04-18T14:30:30.000Z</time>
      </trkpt>
      <trkpt lat="48.59473" lon="2.03598">
        <ele>164</ele>
        <time>2011-04-18T14:30:34.000Z</time>
      </trkpt>
      <trkpt lat="48.59461" lon="2.03596">
        <ele>166.39999389648</ele>
        <time>2011-04-18T14:30:43.000Z</time>
      </trkpt>
      <trkpt lat="48.59453" lon="2.03595">
        <ele>165</ele>
        <time>2011-04-18T14:30:50.000Z</time>
      </trkpt>
      <trkpt lat="48.59446" lon="2.0359">
        <ele>162.60000610352</ele>
        <time>2011-04-18T14:30:57.000Z</time>
      </trkpt>
      <trkpt lat="48.59437" lon="2.03589">
        <ele>162.60000610352</ele>
        <time>2011-04-18T14:31:05.000Z</time>
      </trkpt>
      <trkpt lat="48.59429" lon="2.0359">
        <ele>162.19999694824</ele>
        <time>2011-04-18T14:31:12.000Z</time>
      </trkpt>
      <trkpt lat="48.5942" lon="2.03586">
        <ele>162.19999694824</ele>
        <time>2011-04-18T14:31:20.000Z</time>
      </trkpt>
      <trkpt lat="48.5941" lon="2.03584">
        <ele>160.19999694824</ele>
        <time>2011-04-18T14:31:28.000Z</time>
      </trkpt>
      <trkpt lat="48.594" lon="2.03581">
        <ele>159.19999694824</ele>
        <time>2011-04-18T14:31:36.000Z</time>
      </trkpt>
      <trkpt lat="48.59397" lon="2.03578">
        <ele>157.80000305176</ele>
        <time>2011-04-18T14:31:41.000Z</time>
      </trkpt>
      <trkpt lat="48.59397" lon="2.03578">
        <ele>157.39999389648</ele>
        <time>2011-04-18T14:31:42.000Z</time>
      </trkpt>
      <trkpt lat="48.59369" lon="2.03573">
        <ele>158.80000305176</ele>
        <time>2011-04-18T14:32:18.000Z</time>
      </trkpt>
      <trkpt lat="48.59366" lon="2.03571">
        <ele>157.39999389648</ele>
        <time>2011-04-18T14:32:22.000Z</time>
      </trkpt>
      <trkpt lat="48.59357" lon="2.03573">
        <ele>159.80000305176</ele>
        <time>2011-04-18T14:32:29.000Z</time>
      </trkpt>
      <trkpt lat="48.59349" lon="2.03574">
        <ele>157.80000305176</ele>
        <time>2011-04-18T14:32:35.000Z</time>
      </trkpt>
      <trkpt lat="48.59348" lon="2.03574">
        <ele>157.39999389648</ele>
        <time>2011-04-18T14:32:38.000Z</time>
      </trkpt>
      <trkpt lat="48.59332" lon="2.03579">
        <ele>151</ele>
        <time>2011-04-18T14:32:54.000Z</time>
      </trkpt>
      <trkpt lat="48.59325" lon="2.03581">
        <ele>147.60000610352</ele>
        <time>2011-04-18T14:33:00.000Z</time>
      </trkpt>
      <trkpt lat="48.59317" lon="2.03582">
        <ele>145.80000305176</ele>
        <time>2011-04-18T14:33:06.000Z</time>
      </trkpt>
      <trkpt lat="48.59313" lon="2.03582">
        <ele>143.80000305176</ele>
        <time>2011-04-18T14:33:13.000Z</time>
      </trkpt>
      <trkpt lat="48.59307" lon="2.03584">
        <ele>142.80000305176</ele>
        <time>2011-04-18T14:33:21.000Z</time>
      </trkpt>
      <trkpt lat="48.59297" lon="2.03583">
        <ele>142.80000305176</ele>
        <time>2011-04-18T14:33:28.000Z</time>
      </trkpt>
      <trkpt lat="48.59286" lon="2.03582">
        <ele>140.39999389648</ele>
        <time>2011-04-18T14:33:36.000Z</time>
      </trkpt>
      <trkpt lat="48.59275" lon="2.03582">
        <ele>138.60000610352</ele>
        <time>2011-04-18T14:33:44.000Z</time>
      </trkpt>
      <trkpt lat="48.59268" lon="2.03581">
        <ele>137.19999694824</ele>
        <time>2011-04-18T14:33:49.000Z</time>
      </trkpt>
      <trkpt lat="48.59262" lon="2.03581">
        <ele>135.60000610352</ele>
        <time>2011-04-18T14:33:53.000Z</time>
      </trkpt>
      <trkpt lat="48.5925" lon="2.03577">
        <ele>135.19999694824</ele>
        <time>2011-04-18T14:34:01.000Z</time>
      </trkpt>
      <trkpt lat="48.59242" lon="2.03573">
        <ele>133.80000305176</ele>
        <time>2011-04-18T14:34:07.000Z</time>
      </trkpt>
      <trkpt lat="48.59227" lon="2.03574">
        <ele>131.39999389648</ele>
        <time>2011-04-18T14:34:18.000Z</time>
      </trkpt>
      <trkpt lat="48.59222" lon="2.03579">
        <ele>130</ele>
        <time>2011-04-18T14:34:23.000Z</time>
      </trkpt>
      <trkpt lat="48.5922" lon="2.03579">
        <ele>130</ele>
        <time>2011-04-18T14:34:24.000Z</time>
      </trkpt>
      <trkpt lat="48.59211" lon="2.03583">
        <ele>130</ele>
        <time>2011-04-18T14:34:31.000Z</time>
      </trkpt>
      <trkpt lat="48.59206" lon="2.03585">
        <ele>129</ele>
        <time>2011-04-18T14:34:36.000Z</time>
      </trkpt>
      <trkpt lat="48.59204" lon="2.03587">
        <ele>128</ele>
        <time>2011-04-18T14:34:38.000Z</time>
      </trkpt>
      <trkpt lat="48.59194" lon="2.03593">
        <ele>127</ele>
        <time>2011-04-18T14:34:46.000Z</time>
      </trkpt>
      <trkpt lat="48.59188" lon="2.03601">
        <ele>125.19999694824</ele>
        <time>2011-04-18T14:34:53.000Z</time>
      </trkpt>
      <trkpt lat="48.59181" lon="2.03599">
        <ele>123.19999694824</ele>
        <time>2011-04-18T14:35:00.000Z</time>
      </trkpt>
      <trkpt lat="48.59179" lon="2.03594">
        <ele>121.19999694824</ele>
        <time>2011-04-18T14:35:03.000Z</time>
      </trkpt>
      <trkpt lat="48.59179" lon="2.03586">
        <ele>118.80000305176</ele>
        <time>2011-04-18T14:35:08.000Z</time>
      </trkpt>
      <trkpt lat="48.59177" lon="2.03568">
        <ele>118.40000152588</ele>
        <time>2011-04-18T14:35:17.000Z</time>
      </trkpt>
      <trkpt lat="48.59178" lon="2.03556">
        <ele>117</ele>
        <time>2011-04-18T14:35:23.000Z</time>
      </trkpt>
      <trkpt lat="48.59177" lon="2.03548">
        <ele>116</ele>
        <time>2011-04-18T14:35:27.000Z</time>
      </trkpt>
      <trkpt lat="48.59177" lon="2.03534">
        <ele>114</ele>
        <time>2011-04-18T14:35:34.000Z</time>
      </trkpt>
      <trkpt lat="48.59177" lon="2.03517">
        <ele>112.19999694824</ele>
        <time>2011-04-18T14:35:43.000Z</time>
      </trkpt>
      <trkpt lat="48.59176" lon="2.03503">
        <ele>111.59999847412</ele>
        <time>2011-04-18T14:35:50.000Z</time>
      </trkpt>
      <trkpt lat="48.59175" lon="2.03485">
        <ele>113</ele>
        <time>2011-04-18T14:35:58.000Z</time>
      </trkpt>
      <trkpt lat="48.59175" lon="2.03468">
        <ele>114</ele>
        <time>2011-04-18T14:36:06.000Z</time>
      </trkpt>
      <trkpt lat="48.59172" lon="2.03452">
        <ele>115</ele>
        <time>2011-04-18T14:36:14.000Z</time>
      </trkpt>
      <trkpt lat="48.59169" lon="2.03438">
        <ele>116.40000152588</ele>
        <time>2011-04-18T14:36:21.000Z</time>
      </trkpt>
      <trkpt lat="48.59167" lon="2.03424">
        <ele>116.40000152588</ele>
        <time>2011-04-18T14:36:28.000Z</time>
      </trkpt>
      <trkpt lat="48.59165" lon="2.03407">
        <ele>116.40000152588</ele>
        <time>2011-04-18T14:36:37.000Z</time>
      </trkpt>
      <trkpt lat="48.59163" lon="2.03394">
        <ele>116.40000152588</ele>
        <time>2011-04-18T14:36:44.000Z</time>
      </trkpt>
      <trkpt lat="48.59163" lon="2.03373">
        <ele>117.80000305176</ele>
        <time>2011-04-18T14:36:54.000Z</time>
      </trkpt>
      <trkpt lat="48.59162" lon="2.03359">
        <ele>119.80000305176</ele>
        <time>2011-04-18T14:37:01.000Z</time>
      </trkpt>
      <trkpt lat="48.59161" lon="2.03345">
        <ele>121.19999694824</ele>
        <time>2011-04-18T14:37:09.000Z</time>
      </trkpt>
      <trkpt lat="48.59161" lon="2.0334">
        <ele>121.19999694824</ele>
        <time>2011-04-18T14:37:12.000Z</time>
      </trkpt>
      <trkpt lat="48.59159" lon="2.03326">
        <ele>121.19999694824</ele>
        <time>2011-04-18T14:37:20.000Z</time>
      </trkpt>
      <trkpt lat="48.59159" lon="2.03308">
        <ele>121.19999694824</ele>
        <time>2011-04-18T14:37:29.000Z</time>
      </trkpt>
      <trkpt lat="48.59158" lon="2.03292">
        <ele>120.40000152588</ele>
        <time>2011-04-18T14:37:37.000Z</time>
      </trkpt>
      <trkpt lat="48.59158" lon="2.03276">
        <ele>119.40000152588</ele>
        <time>2011-04-18T14:37:45.000Z</time>
      </trkpt>
      <trkpt lat="48.59156" lon="2.03263">
        <ele>117.40000152588</ele>
        <time>2011-04-18T14:37:52.000Z</time>
      </trkpt>
      <trkpt lat="48.59156" lon="2.03246">
        <ele>116.40000152588</ele>
        <time>2011-04-18T14:38:00.000Z</time>
      </trkpt>
      <trkpt lat="48.59155" lon="2.03233">
        <ele>116.40000152588</ele>
        <time>2011-04-18T14:38:06.000Z</time>
      </trkpt>
      <trkpt lat="48.59155" lon="2.03222">
        <ele>117</ele>
        <time>2011-04-18T14:38:11.000Z</time>
      </trkpt>
      <trkpt lat="48.59155" lon="2.03203">
        <ele>116.40000152588</ele>
        <time>2011-04-18T14:38:21.000Z</time>
      </trkpt>
      <trkpt lat="48.59156" lon="2.03191">
        <ele>115.40000152588</ele>
        <time>2011-04-18T14:38:28.000Z</time>
      </trkpt>
      <trkpt lat="48.59154" lon="2.0319">
        <ele>115</ele>
        <time>2011-04-18T14:38:34.000Z</time>
      </trkpt>
      <trkpt lat="48.59154" lon="2.03185">
        <ele>114.59999847412</ele>
        <time>2011-04-18T14:38:41.000Z</time>
      </trkpt>
      <trkpt lat="48.59155" lon="2.03175">
        <ele>115</ele>
        <time>2011-04-18T14:38:47.000Z</time>
      </trkpt>
      <trkpt lat="48.59155" lon="2.03162">
        <ele>115.40000152588</ele>
        <time>2011-04-18T14:38:54.000Z</time>
      </trkpt>
      <trkpt lat="48.59156" lon="2.03145">
        <ele>115.40000152588</ele>
        <time>2011-04-18T14:39:03.000Z</time>
      </trkpt>
      <trkpt lat="48.59156" lon="2.03126">
        <ele>116.40000152588</ele>
        <time>2011-04-18T14:39:12.000Z</time>
      </trkpt>
      <trkpt lat="48.59155" lon="2.03113">
        <ele>117</ele>
        <time>2011-04-18T14:39:18.000Z</time>
      </trkpt>
      <trkpt lat="48.59157" lon="2.03105">
        <ele>117</ele>
        <time>2011-04-18T14:39:23.000Z</time>
      </trkpt>
      <trkpt lat="48.59156" lon="2.03092">
        <ele>117.80000305176</ele>
        <time>2011-04-18T14:39:30.000Z</time>
      </trkpt>
      <trkpt lat="48.59156" lon="2.0309">
        <ele>117.80000305176</ele>
        <time>2011-04-18T14:39:31.000Z</time>
      </trkpt>
      <trkpt lat="48.59154" lon="2.03073">
        <ele>118.40000152588</ele>
        <time>2011-04-18T14:39:39.000Z</time>
      </trkpt>
      <trkpt lat="48.59154" lon="2.03071">
        <ele>118.40000152588</ele>
        <time>2011-04-18T14:39:42.000Z</time>
      </trkpt>
      <trkpt lat="48.59153" lon="2.03064">
        <ele>118.80000305176</ele>
        <time>2011-04-18T14:39:54.000Z</time>
      </trkpt>
      <trkpt lat="48.59151" lon="2.0305">
        <ele>118.80000305176</ele>
        <time>2011-04-18T14:40:00.000Z</time>
      </trkpt>
      <trkpt lat="48.59149" lon="2.03033">
        <ele>118.80000305176</ele>
        <time>2011-04-18T14:40:09.000Z</time>
      </trkpt>
      <trkpt lat="48.59148" lon="2.03024">
        <ele>119.40000152588</ele>
        <time>2011-04-18T14:40:14.000Z</time>
      </trkpt>
      <trkpt lat="48.59148" lon="2.03011">
        <ele>118.80000305176</ele>
        <time>2011-04-18T14:40:20.000Z</time>
      </trkpt>
      <trkpt lat="48.59148" lon="2.02995">
        <ele>118.40000152588</ele>
        <time>2011-04-18T14:40:28.000Z</time>
      </trkpt>
      <trkpt lat="48.59147" lon="2.02977">
        <ele>118.40000152588</ele>
        <time>2011-04-18T14:40:37.000Z</time>
      </trkpt>
      <trkpt lat="48.59147" lon="2.02969">
        <ele>117</ele>
        <time>2011-04-18T14:40:42.000Z</time>
      </trkpt>
      <trkpt lat="48.59146" lon="2.02958">
        <ele>117</ele>
        <time>2011-04-18T14:40:48.000Z</time>
      </trkpt>
      <trkpt lat="48.59145" lon="2.02934">
        <ele>116.40000152588</ele>
        <time>2011-04-18T14:41:00.000Z</time>
      </trkpt>
      <trkpt lat="48.59142" lon="2.02914">
        <ele>117</ele>
        <time>2011-04-18T14:41:10.000Z</time>
      </trkpt>
      <trkpt lat="48.59141" lon="2.02896">
        <ele>117</ele>
        <time>2011-04-18T14:41:19.000Z</time>
      </trkpt>
      <trkpt lat="48.59141" lon="2.02873">
        <ele>117</ele>
        <time>2011-04-18T14:41:30.000Z</time>
      </trkpt>
      <trkpt lat="48.59139" lon="2.02856">
        <ele>117.40000152588</ele>
        <time>2011-04-18T14:41:39.000Z</time>
      </trkpt>
      <trkpt lat="48.59139" lon="2.02842">
        <ele>117.40000152588</ele>
        <time>2011-04-18T14:41:46.000Z</time>
      </trkpt>
      <trkpt lat="48.5914" lon="2.02825">
        <ele>118.80000305176</ele>
        <time>2011-04-18T14:41:55.000Z</time>
      </trkpt>
      <trkpt lat="48.5914" lon="2.02812">
        <ele>118.80000305176</ele>
        <time>2011-04-18T14:42:02.000Z</time>
      </trkpt>
      <trkpt lat="48.59143" lon="2.02797">
        <ele>118.80000305176</ele>
        <time>2011-04-18T14:42:10.000Z</time>
      </trkpt>
      <trkpt lat="48.59144" lon="2.02786">
        <ele>117</ele>
        <time>2011-04-18T14:42:17.000Z</time>
      </trkpt>
      <trkpt lat="48.59145" lon="2.02776">
        <ele>117.80000305176</ele>
        <time>2011-04-18T14:42:22.000Z</time>
      </trkpt>
      <trkpt lat="48.59146" lon="2.02764">
        <ele>115.40000152588</ele>
        <time>2011-04-18T14:42:29.000Z</time>
      </trkpt>
      <trkpt lat="48.59147" lon="2.02761">
        <ele>114.59999847412</ele>
        <time>2011-04-18T14:42:31.000Z</time>
      </trkpt>
      <trkpt lat="48.59148" lon="2.02753">
        <ele>113</ele>
        <time>2011-04-18T14:42:36.000Z</time>
      </trkpt>
      <trkpt lat="48.5915" lon="2.02738">
        <ele>112.19999694824</ele>
        <time>2011-04-18T14:42:44.000Z</time>
      </trkpt>
      <trkpt lat="48.59151" lon="2.02727">
        <ele>112.19999694824</ele>
        <time>2011-04-18T14:42:50.000Z</time>
      </trkpt>
      <trkpt lat="48.59152" lon="2.02716">
        <ele>111.59999847412</ele>
        <time>2011-04-18T14:42:56.000Z</time>
      </trkpt>
      <trkpt lat="48.59153" lon="2.02704">
        <ele>113</ele>
        <time>2011-04-18T14:43:03.000Z</time>
      </trkpt>
      <trkpt lat="48.59153" lon="2.02702">
        <ele>113</ele>
        <time>2011-04-18T14:43:04.000Z</time>
      </trkpt>
      <trkpt lat="48.59154" lon="2.02693">
        <ele>113</ele>
        <time>2011-04-18T14:43:08.000Z</time>
      </trkpt>
      <trkpt lat="48.59156" lon="2.02673">
        <ele>114</ele>
        <time>2011-04-18T14:43:17.000Z</time>
      </trkpt>
      <trkpt lat="48.59157" lon="2.02658">
        <ele>113.59999847412</ele>
        <time>2011-04-18T14:43:24.000Z</time>
      </trkpt>
      <trkpt lat="48.59158" lon="2.02647">
        <ele>114.59999847412</ele>
        <time>2011-04-18T14:43:29.000Z</time>
      </trkpt>
      <trkpt lat="48.59159" lon="2.02636">
        <ele>114.59999847412</ele>
        <time>2011-04-18T14:43:34.000Z</time>
      </trkpt>
      <trkpt lat="48.5916" lon="2.02622">
        <ele>113.59999847412</ele>
        <time>2011-04-18T14:43:41.000Z</time>
      </trkpt>
      <trkpt lat="48.5916" lon="2.02619">
        <ele>113</ele>
        <time>2011-04-18T14:43:42.000Z</time>
      </trkpt>
      <trkpt lat="48.5916" lon="2.02606">
        <ele>115</ele>
        <time>2011-04-18T14:43:48.000Z</time>
      </trkpt>
      <trkpt lat="48.5916" lon="2.02593">
        <ele>116</ele>
        <time>2011-04-18T14:43:54.000Z</time>
      </trkpt>
      <trkpt lat="48.59161" lon="2.02583">
        <ele>114</ele>
        <time>2011-04-18T14:43:59.000Z</time>
      </trkpt>
      <trkpt lat="48.59163" lon="2.02576">
        <ele>111.59999847412</ele>
        <time>2011-04-18T14:44:02.000Z</time>
      </trkpt>
      <trkpt lat="48.59164" lon="2.02564">
        <ele>109.80000305176</ele>
        <time>2011-04-18T14:44:08.000Z</time>
      </trkpt>
      <trkpt lat="48.59166" lon="2.02546">
        <ele>107.40000152588</ele>
        <time>2011-04-18T14:44:17.000Z</time>
      </trkpt>
      <trkpt lat="48.59166" lon="2.02527">
        <ele>111.19999694824</ele>
        <time>2011-04-18T14:44:24.000Z</time>
      </trkpt>
      <trkpt lat="48.59168" lon="2.02509">
        <ele>109.19999694824</ele>
        <time>2011-04-18T14:44:33.000Z</time>
      </trkpt>
      <trkpt lat="48.59169" lon="2.02492">
        <ele>108.80000305176</ele>
        <time>2011-04-18T14:44:41.000Z</time>
      </trkpt>
      <trkpt lat="48.5917" lon="2.02476">
        <ele>109.80000305176</ele>
        <time>2011-04-18T14:44:48.000Z</time>
      </trkpt>
      <trkpt lat="48.59171" lon="2.02462">
        <ele>107.80000305176</ele>
        <time>2011-04-18T14:44:55.000Z</time>
      </trkpt>
      <trkpt lat="48.59172" lon="2.02443">
        <ele>107.80000305176</ele>
        <time>2011-04-18T14:45:03.000Z</time>
      </trkpt>
      <trkpt lat="48.59171" lon="2.02427">
        <ele>108.80000305176</ele>
        <time>2011-04-18T14:45:10.000Z</time>
      </trkpt>
      <trkpt lat="48.5917" lon="2.02412">
        <ele>108.19999694824</ele>
        <time>2011-04-18T14:45:18.000Z</time>
      </trkpt>
      <trkpt lat="48.59168" lon="2.02393">
        <ele>110.59999847412</ele>
        <time>2011-04-18T14:45:26.000Z</time>
      </trkpt>
      <trkpt lat="48.59168" lon="2.02384">
        <ele>108.80000305176</ele>
        <time>2011-04-18T14:45:31.000Z</time>
      </trkpt>
      <trkpt lat="48.59167" lon="2.02364">
        <ele>110.19999694824</ele>
        <time>2011-04-18T14:45:40.000Z</time>
      </trkpt>
      <trkpt lat="48.59167" lon="2.0235">
        <ele>109.80000305176</ele>
        <time>2011-04-18T14:45:47.000Z</time>
      </trkpt>
      <trkpt lat="48.59167" lon="2.02335">
        <ele>107.80000305176</ele>
        <time>2011-04-18T14:45:54.000Z</time>
      </trkpt>
      <trkpt lat="48.59167" lon="2.0232">
        <ele>107.40000152588</ele>
        <time>2011-04-18T14:46:01.000Z</time>
      </trkpt>
      <trkpt lat="48.59166" lon="2.02306">
        <ele>106.80000305176</ele>
        <time>2011-04-18T14:46:08.000Z</time>
      </trkpt>
      <trkpt lat="48.59166" lon="2.0229">
        <ele>107.40000152588</ele>
        <time>2011-04-18T14:46:15.000Z</time>
      </trkpt>
      <trkpt lat="48.59166" lon="2.02281">
        <ele>106.80000305176</ele>
        <time>2011-04-18T14:46:19.000Z</time>
      </trkpt>
      <trkpt lat="48.59168" lon="2.02273">
        <ele>110.19999694824</ele>
        <time>2011-04-18T14:46:28.000Z</time>
      </trkpt>
      <trkpt lat="48.59167" lon="2.02262">
        <ele>110.59999847412</ele>
        <time>2011-04-18T14:46:34.000Z</time>
      </trkpt>
      <trkpt lat="48.59168" lon="2.02241">
        <ele>107.80000305176</ele>
        <time>2011-04-18T14:46:45.000Z</time>
      </trkpt>
      <trkpt lat="48.59168" lon="2.02223">
        <ele>107.80000305176</ele>
        <time>2011-04-18T14:46:53.000Z</time>
      </trkpt>
      <trkpt lat="48.59168" lon="2.02213">
        <ele>106.80000305176</ele>
        <time>2011-04-18T14:46:59.000Z</time>
      </trkpt>
      <trkpt lat="48.59168" lon="2.02209">
        <ele>109.19999694824</ele>
        <time>2011-04-18T14:47:06.000Z</time>
      </trkpt>
      <trkpt lat="48.59166" lon="2.02204">
        <ele>112.59999847412</ele>
        <time>2011-04-18T14:47:22.000Z</time>
      </trkpt>
      <trkpt lat="48.59167" lon="2.02194">
        <ele>113.59999847412</ele>
        <time>2011-04-18T14:47:28.000Z</time>
      </trkpt>
      <trkpt lat="48.59167" lon="2.0218">
        <ele>111.59999847412</ele>
        <time>2011-04-18T14:47:36.000Z</time>
      </trkpt>
      <trkpt lat="48.59168" lon="2.02165">
        <ele>108.80000305176</ele>
        <time>2011-04-18T14:47:44.000Z</time>
      </trkpt>
      <trkpt lat="48.59168" lon="2.0215">
        <ele>108.80000305176</ele>
        <time>2011-04-18T14:47:51.000Z</time>
      </trkpt>
      <trkpt lat="48.59166" lon="2.02136">
        <ele>106.80000305176</ele>
        <time>2011-04-18T14:47:58.000Z</time>
      </trkpt>
      <trkpt lat="48.59164" lon="2.02122">
        <ele>106.40000152588</ele>
        <time>2011-04-18T14:48:06.000Z</time>
      </trkpt>
      <trkpt lat="48.59162" lon="2.02108">
        <ele>105.80000305176</ele>
        <time>2011-04-18T14:48:13.000Z</time>
      </trkpt>
      <trkpt lat="48.59162" lon="2.02101">
        <ele>105</ele>
        <time>2011-04-18T14:48:17.000Z</time>
      </trkpt>
      <trkpt lat="48.59161" lon="2.0209">
        <ele>104</ele>
        <time>2011-04-18T14:48:23.000Z</time>
      </trkpt>
      <trkpt lat="48.59161" lon="2.02087">
        <ele>103.40000152588</ele>
        <time>2011-04-18T14:48:25.000Z</time>
      </trkpt>
      <trkpt lat="48.5916" lon="2.02084">
        <ele>103</ele>
        <time>2011-04-18T14:48:27.000Z</time>
      </trkpt>
      <trkpt lat="48.59158" lon="2.02075">
        <ele>101.59999847412</ele>
        <time>2011-04-18T14:48:32.000Z</time>
      </trkpt>
      <trkpt lat="48.59156" lon="2.02058">
        <ele>100.59999847412</ele>
        <time>2011-04-18T14:48:40.000Z</time>
      </trkpt>
      <trkpt lat="48.59154" lon="2.02047">
        <ele>99.199996948242</ele>
        <time>2011-04-18T14:48:46.000Z</time>
      </trkpt>
      <trkpt lat="48.59153" lon="2.0204">
        <ele>99.599998474121</ele>
        <time>2011-04-18T14:48:49.000Z</time>
      </trkpt>
      <trkpt lat="48.59147" lon="2.02018">
        <ele>102.59999847412</ele>
        <time>2011-04-18T14:48:59.000Z</time>
      </trkpt>
      <trkpt lat="48.59143" lon="2.02001">
        <ele>101</ele>
        <time>2011-04-18T14:49:07.000Z</time>
      </trkpt>
      <trkpt lat="48.5914" lon="2.01987">
        <ele>99.199996948242</ele>
        <time>2011-04-18T14:49:14.000Z</time>
      </trkpt>
      <trkpt lat="48.59138" lon="2.01972">
        <ele>98.199996948242</ele>
        <time>2011-04-18T14:49:21.000Z</time>
      </trkpt>
      <trkpt lat="48.59137" lon="2.01958">
        <ele>98.199996948242</ele>
        <time>2011-04-18T14:49:28.000Z</time>
      </trkpt>
      <trkpt lat="48.59135" lon="2.01946">
        <ele>98.599998474121</ele>
        <time>2011-04-18T14:49:34.000Z</time>
      </trkpt>
      <trkpt lat="48.59129" lon="2.01931">
        <ele>99.599998474121</ele>
        <time>2011-04-18T14:49:42.000Z</time>
      </trkpt>
      <trkpt lat="48.59128" lon="2.01928">
        <ele>100.19999694824</ele>
        <time>2011-04-18T14:49:44.000Z</time>
      </trkpt>
      <trkpt lat="48.59124" lon="2.01922">
        <ele>99.599998474121</ele>
        <time>2011-04-18T14:49:51.000Z</time>
      </trkpt>
      <trkpt lat="48.59126" lon="2.01905">
        <ele>99.599998474121</ele>
        <time>2011-04-18T14:50:25.000Z</time>
      </trkpt>
      <trkpt lat="48.59132" lon="2.01884">
        <ele>98.599998474121</ele>
        <time>2011-04-18T14:50:35.000Z</time>
      </trkpt>
      <trkpt lat="48.59135" lon="2.01869">
        <ele>98.599998474121</ele>
        <time>2011-04-18T14:50:42.000Z</time>
      </trkpt>
      <trkpt lat="48.59139" lon="2.01857">
        <ele>98.199996948242</ele>
        <time>2011-04-18T14:50:48.000Z</time>
      </trkpt>
      <trkpt lat="48.59145" lon="2.0184">
        <ele>98.199996948242</ele>
        <time>2011-04-18T14:50:57.000Z</time>
      </trkpt>
      <trkpt lat="48.59149" lon="2.01828">
        <ele>95.800003051758</ele>
        <time>2011-04-18T14:51:04.000Z</time>
      </trkpt>
      <trkpt lat="48.5915" lon="2.0181">
        <ele>93</ele>
        <time>2011-04-18T14:51:14.000Z</time>
      </trkpt>
      <trkpt lat="48.59149" lon="2.01807">
        <ele>93</ele>
        <time>2011-04-18T14:51:17.000Z</time>
      </trkpt>
      <trkpt lat="48.59147" lon="2.018">
        <ele>93.400001525879</ele>
        <time>2011-04-18T14:51:21.000Z</time>
      </trkpt>
      <trkpt lat="48.59143" lon="2.01784">
        <ele>94.400001525879</ele>
        <time>2011-04-18T14:51:29.000Z</time>
      </trkpt>
      <trkpt lat="48.5914" lon="2.01775">
        <ele>94.800003051758</ele>
        <time>2011-04-18T14:51:35.000Z</time>
      </trkpt>
      <trkpt lat="48.59138" lon="2.0177">
        <ele>94.800003051758</ele>
        <time>2011-04-18T14:51:38.000Z</time>
      </trkpt>
      <trkpt lat="48.59131" lon="2.01754">
        <ele>94.800003051758</ele>
        <time>2011-04-18T14:51:48.000Z</time>
      </trkpt>
      <trkpt lat="48.59126" lon="2.0174">
        <ele>95.400001525879</ele>
        <time>2011-04-18T14:51:57.000Z</time>
      </trkpt>
      <trkpt lat="48.59121" lon="2.01725">
        <ele>94.400001525879</ele>
        <time>2011-04-18T14:52:06.000Z</time>
      </trkpt>
      <trkpt lat="48.59111" lon="2.01708">
        <ele>94.400001525879</ele>
        <time>2011-04-18T14:52:17.000Z</time>
      </trkpt>
      <trkpt lat="48.59104" lon="2.01692">
        <ele>93</ele>
        <time>2011-04-18T14:52:27.000Z</time>
      </trkpt>
      <trkpt lat="48.59096" lon="2.01678">
        <ele>92</ele>
        <time>2011-04-18T14:52:36.000Z</time>
      </trkpt>
      <trkpt lat="48.59091" lon="2.01668">
        <ele>91.400001525879</ele>
        <time>2011-04-18T14:52:42.000Z</time>
      </trkpt>
      <trkpt lat="48.59089" lon="2.0166">
        <ele>91.400001525879</ele>
        <time>2011-04-18T14:52:46.000Z</time>
      </trkpt>
      <trkpt lat="48.59081" lon="2.01645">
        <ele>90.599998474121</ele>
        <time>2011-04-18T14:52:55.000Z</time>
      </trkpt>
      <trkpt lat="48.59073" lon="2.01626">
        <ele>89</ele>
        <time>2011-04-18T14:53:06.000Z</time>
      </trkpt>
      <trkpt lat="48.59068" lon="2.01608">
        <ele>88</ele>
        <time>2011-04-18T14:53:16.000Z</time>
      </trkpt>
      <trkpt lat="48.59068" lon="2.01604">
        <ele>88.599998474121</ele>
        <time>2011-04-18T14:53:21.000Z</time>
      </trkpt>
      <trkpt lat="48.59061" lon="2.01589">
        <ele>89</ele>
        <time>2011-04-18T14:53:42.000Z</time>
      </trkpt>
      <trkpt lat="48.59055" lon="2.01578">
        <ele>88</ele>
        <time>2011-04-18T14:53:49.000Z</time>
      </trkpt>
      <trkpt lat="48.59048" lon="2.01564">
        <ele>87.599998474121</ele>
        <time>2011-04-18T14:53:58.000Z</time>
      </trkpt>
      <trkpt lat="48.59043" lon="2.01555">
        <ele>87.599998474121</ele>
        <time>2011-04-18T14:54:06.000Z</time>
      </trkpt>
      <trkpt lat="48.59036" lon="2.01543">
        <ele>86.599998474121</ele>
        <time>2011-04-18T14:54:14.000Z</time>
      </trkpt>
      <trkpt lat="48.59028" lon="2.01525">
        <ele>84.199996948242</ele>
        <time>2011-04-18T14:54:24.000Z</time>
      </trkpt>
      <trkpt lat="48.59021" lon="2.01501">
        <ele>82.400001525879</ele>
        <time>2011-04-18T14:54:36.000Z</time>
      </trkpt>
      <trkpt lat="48.59018" lon="2.01484">
        <ele>81.400001525879</ele>
        <time>2011-04-18T14:54:44.000Z</time>
      </trkpt>
      <trkpt lat="48.59015" lon="2.01466">
        <ele>80.400001525879</ele>
        <time>2011-04-18T14:54:53.000Z</time>
      </trkpt>
      <trkpt lat="48.59011" lon="2.01446">
        <ele>79.400001525879</ele>
        <time>2011-04-18T14:55:03.000Z</time>
      </trkpt>
      <trkpt lat="48.59007" lon="2.01423">
        <ele>79.400001525879</ele>
        <time>2011-04-18T14:55:15.000Z</time>
      </trkpt>
      <trkpt lat="48.59005" lon="2.01411">
        <ele>80</ele>
        <time>2011-04-18T14:55:21.000Z</time>
      </trkpt>
      <trkpt lat="48.59002" lon="2.01391">
        <ele>80.800003051758</ele>
        <time>2011-04-18T14:55:31.000Z</time>
      </trkpt>
      <trkpt lat="48.58999" lon="2.01376">
        <ele>80.800003051758</ele>
        <time>2011-04-18T14:55:39.000Z</time>
      </trkpt>
      <trkpt lat="48.58995" lon="2.01356">
        <ele>81.400001525879</ele>
        <time>2011-04-18T14:55:49.000Z</time>
      </trkpt>
      <trkpt lat="48.58993" lon="2.01342">
        <ele>81.800003051758</ele>
        <time>2011-04-18T14:55:56.000Z</time>
      </trkpt>
      <trkpt lat="48.5899" lon="2.01322">
        <ele>82.400001525879</ele>
        <time>2011-04-18T14:56:06.000Z</time>
      </trkpt>
      <trkpt lat="48.58986" lon="2.01304">
        <ele>83.800003051758</ele>
        <time>2011-04-18T14:56:15.000Z</time>
      </trkpt>
      <trkpt lat="48.58983" lon="2.01288">
        <ele>83.800003051758</ele>
        <time>2011-04-18T14:56:23.000Z</time>
      </trkpt>
      <trkpt lat="48.58981" lon="2.01272">
        <ele>84.199996948242</ele>
        <time>2011-04-18T14:56:32.000Z</time>
      </trkpt>
      <trkpt lat="48.58976" lon="2.0125">
        <ele>85.199996948242</ele>
        <time>2011-04-18T14:56:43.000Z</time>
      </trkpt>
      <trkpt lat="48.58973" lon="2.01237">
        <ele>84.800003051758</ele>
        <time>2011-04-18T14:56:50.000Z</time>
      </trkpt>
      <trkpt lat="48.58972" lon="2.01223">
        <ele>85.199996948242</ele>
        <time>2011-04-18T14:56:57.000Z</time>
      </trkpt>
      <trkpt lat="48.58971" lon="2.01207">
        <ele>84.800003051758</ele>
        <time>2011-04-18T14:57:05.000Z</time>
      </trkpt>
      <trkpt lat="48.58967" lon="2.01186">
        <ele>85.199996948242</ele>
        <time>2011-04-18T14:57:15.000Z</time>
      </trkpt>
      <trkpt lat="48.58962" lon="2.0116">
        <ele>85.599998474121</ele>
        <time>2011-04-18T14:57:27.000Z</time>
      </trkpt>
      <trkpt lat="48.58958" lon="2.01138">
        <ele>85.199996948242</ele>
        <time>2011-04-18T14:57:38.000Z</time>
      </trkpt>
      <trkpt lat="48.58956" lon="2.01125">
        <ele>87.199996948242</ele>
        <time>2011-04-18T14:57:45.000Z</time>
      </trkpt>
      <trkpt lat="48.58955" lon="2.01121">
        <ele>87.599998474121</ele>
        <time>2011-04-18T14:57:47.000Z</time>
      </trkpt>
      <trkpt lat="48.58952" lon="2.01103">
        <ele>89.599998474121</ele>
        <time>2011-04-18T14:57:56.000Z</time>
      </trkpt>
      <trkpt lat="48.5895" lon="2.01092">
        <ele>90</ele>
        <time>2011-04-18T14:58:01.000Z</time>
      </trkpt>
      <trkpt lat="48.58948" lon="2.01079">
        <ele>91</ele>
        <time>2011-04-18T14:58:07.000Z</time>
      </trkpt>
      <trkpt lat="48.58945" lon="2.01062">
        <ele>90</ele>
        <time>2011-04-18T14:58:15.000Z</time>
      </trkpt>
      <trkpt lat="48.58944" lon="2.01058">
        <ele>89.599998474121</ele>
        <time>2011-04-18T14:58:17.000Z</time>
      </trkpt>
      <trkpt lat="48.58942" lon="2.01043">
        <ele>91</ele>
        <time>2011-04-18T14:58:25.000Z</time>
      </trkpt>
      <trkpt lat="48.5894" lon="2.01027">
        <ele>91</ele>
        <time>2011-04-18T14:58:33.000Z</time>
      </trkpt>
      <trkpt lat="48.5894" lon="2.01026">
        <ele>91</ele>
        <time>2011-04-18T14:58:34.000Z</time>
      </trkpt>
      <trkpt lat="48.58942" lon="2.01021">
        <ele>90.599998474121</ele>
        <time>2011-04-18T14:58:40.000Z</time>
      </trkpt>
      <trkpt lat="48.58952" lon="2.01029">
        <ele>87.599998474121</ele>
        <time>2011-04-18T14:58:47.000Z</time>
      </trkpt>
      <trkpt lat="48.58962" lon="2.01032">
        <ele>87.199996948242</ele>
        <time>2011-04-18T14:58:54.000Z</time>
      </trkpt>
      <trkpt lat="48.58969" lon="2.01033">
        <ele>87.199996948242</ele>
        <time>2011-04-18T14:58:59.000Z</time>
      </trkpt>
      <trkpt lat="48.58977" lon="2.01037">
        <ele>87.599998474121</ele>
        <time>2011-04-18T14:59:05.000Z</time>
      </trkpt>
      <trkpt lat="48.58987" lon="2.01038">
        <ele>91</ele>
        <time>2011-04-18T14:59:13.000Z</time>
      </trkpt>
      <trkpt lat="48.58997" lon="2.01037">
        <ele>90</ele>
        <time>2011-04-18T14:59:20.000Z</time>
      </trkpt>
      <trkpt lat="48.5901" lon="2.01034">
        <ele>89</ele>
        <time>2011-04-18T14:59:28.000Z</time>
      </trkpt>
      <trkpt lat="48.5902" lon="2.01031">
        <ele>90</ele>
        <time>2011-04-18T14:59:35.000Z</time>
      </trkpt>
      <trkpt lat="48.59028" lon="2.01026">
        <ele>93</ele>
        <time>2011-04-18T14:59:42.000Z</time>
      </trkpt>
      <trkpt lat="48.59035" lon="2.0102">
        <ele>97.800003051758</ele>
        <time>2011-04-18T14:59:49.000Z</time>
      </trkpt>
      <trkpt lat="48.59046" lon="2.01016">
        <ele>98.599998474121</ele>
        <time>2011-04-18T14:59:57.000Z</time>
      </trkpt>
      <trkpt lat="48.59051" lon="2.01011">
        <ele>102</ele>
        <time>2011-04-18T15:00:03.000Z</time>
      </trkpt>
      <trkpt lat="48.59063" lon="2.01004">
        <ele>105</ele>
        <time>2011-04-18T15:00:10.000Z</time>
      </trkpt>
      <trkpt lat="48.5907" lon="2.00999">
        <ele>106.80000305176</ele>
        <time>2011-04-18T15:00:15.000Z</time>
      </trkpt>
      <trkpt lat="48.59076" lon="2.00995">
        <ele>108.19999694824</ele>
        <time>2011-04-18T15:00:20.000Z</time>
      </trkpt>
      <trkpt lat="48.59086" lon="2.00992">
        <ele>103</ele>
        <time>2011-04-18T15:00:26.000Z</time>
      </trkpt>
      <trkpt lat="48.59102" lon="2.00984">
        <ele>97.800003051758</ele>
        <time>2011-04-18T15:00:36.000Z</time>
      </trkpt>
      <trkpt lat="48.5911" lon="2.00981">
        <ele>96.800003051758</ele>
        <time>2011-04-18T15:00:42.000Z</time>
      </trkpt>
      <trkpt lat="48.5912" lon="2.0098">
        <ele>96.800003051758</ele>
        <time>2011-04-18T15:00:49.000Z</time>
      </trkpt>
      <trkpt lat="48.59128" lon="2.00981">
        <ele>93.400001525879</ele>
        <time>2011-04-18T15:00:55.000Z</time>
      </trkpt>
      <trkpt lat="48.5914" lon="2.00982">
        <ele>92.400001525879</ele>
        <time>2011-04-18T15:01:01.000Z</time>
      </trkpt>
      <trkpt lat="48.59148" lon="2.00983">
        <ele>91</ele>
        <time>2011-04-18T15:01:07.000Z</time>
      </trkpt>
      <trkpt lat="48.59159" lon="2.00984">
        <ele>90</ele>
        <time>2011-04-18T15:01:15.000Z</time>
      </trkpt>
      <trkpt lat="48.59166" lon="2.00983">
        <ele>91.400001525879</ele>
        <time>2011-04-18T15:01:20.000Z</time>
      </trkpt>
      <trkpt lat="48.59178" lon="2.00985">
        <ele>91</ele>
        <time>2011-04-18T15:01:28.000Z</time>
      </trkpt>
      <trkpt lat="48.59186" lon="2.00985">
        <ele>92.400001525879</ele>
        <time>2011-04-18T15:01:34.000Z</time>
      </trkpt>
      <trkpt lat="48.59197" lon="2.00984">
        <ele>94.400001525879</ele>
        <time>2011-04-18T15:01:42.000Z</time>
      </trkpt>
      <trkpt lat="48.59207" lon="2.0098">
        <ele>96.199996948242</ele>
        <time>2011-04-18T15:01:49.000Z</time>
      </trkpt>
      <trkpt lat="48.59211" lon="2.00979">
        <ele>97.800003051758</ele>
        <time>2011-04-18T15:01:54.000Z</time>
      </trkpt>
      <trkpt lat="48.5922" lon="2.00974">
        <ele>101</ele>
        <time>2011-04-18T15:02:02.000Z</time>
      </trkpt>
      <trkpt lat="48.59228" lon="2.00972">
        <ele>99.599998474121</ele>
        <time>2011-04-18T15:02:08.000Z</time>
      </trkpt>
      <trkpt lat="48.59237" lon="2.00964">
        <ele>102</ele>
        <time>2011-04-18T15:02:16.000Z</time>
      </trkpt>
      <trkpt lat="48.59245" lon="2.00959">
        <ele>103</ele>
        <time>2011-04-18T15:02:22.000Z</time>
      </trkpt>
      <trkpt lat="48.59253" lon="2.00953">
        <ele>105</ele>
        <time>2011-04-18T15:02:28.000Z</time>
      </trkpt>
      <trkpt lat="48.59256" lon="2.00951">
        <ele>103.40000152588</ele>
        <time>2011-04-18T15:02:30.000Z</time>
      </trkpt>
      <trkpt lat="48.59265" lon="2.00948">
        <ele>98.199996948242</ele>
        <time>2011-04-18T15:02:36.000Z</time>
      </trkpt>
      <trkpt lat="48.5927" lon="2.00943">
        <ele>97.199996948242</ele>
        <time>2011-04-18T15:02:40.000Z</time>
      </trkpt>
      <trkpt lat="48.59275" lon="2.00934">
        <ele>101.59999847412</ele>
        <time>2011-04-18T15:02:45.000Z</time>
      </trkpt>
      <trkpt lat="48.59277" lon="2.00932">
        <ele>102</ele>
        <time>2011-04-18T15:02:47.000Z</time>
      </trkpt>
      <trkpt lat="48.59284" lon="2.00924">
        <ele>104</ele>
        <time>2011-04-18T15:02:54.000Z</time>
      </trkpt>
      <trkpt lat="48.5929" lon="2.00915">
        <ele>105.80000305176</ele>
        <time>2011-04-18T15:03:00.000Z</time>
      </trkpt>
      <trkpt lat="48.59299" lon="2.00902">
        <ele>106.80000305176</ele>
        <time>2011-04-18T15:03:09.000Z</time>
      </trkpt>
      <trkpt lat="48.59301" lon="2.00898">
        <ele>106.80000305176</ele>
        <time>2011-04-18T15:03:11.000Z</time>
      </trkpt>
      <trkpt lat="48.59307" lon="2.00887">
        <ele>106.40000152588</ele>
        <time>2011-04-18T15:03:18.000Z</time>
      </trkpt>
      <trkpt lat="48.59308" lon="2.00886">
        <ele>105.80000305176</ele>
        <time>2011-04-18T15:03:19.000Z</time>
      </trkpt>
      <trkpt lat="48.59313" lon="2.00879">
        <ele>105</ele>
        <time>2011-04-18T15:03:24.000Z</time>
      </trkpt>
      <trkpt lat="48.59321" lon="2.00868">
        <ele>104</ele>
        <time>2011-04-18T15:03:32.000Z</time>
      </trkpt>
      <trkpt lat="48.59327" lon="2.00858">
        <ele>104.40000152588</ele>
        <time>2011-04-18T15:03:38.000Z</time>
      </trkpt>
      <trkpt lat="48.59332" lon="2.00848">
        <ele>104.40000152588</ele>
        <time>2011-04-18T15:03:45.000Z</time>
      </trkpt>
      <trkpt lat="48.59334" lon="2.00841">
        <ele>106.40000152588</ele>
        <time>2011-04-18T15:03:49.000Z</time>
      </trkpt>
      <trkpt lat="48.59339" lon="2.00829">
        <ele>103</ele>
        <time>2011-04-18T15:03:57.000Z</time>
      </trkpt>
      <trkpt lat="48.59347" lon="2.00819">
        <ele>101.59999847412</ele>
        <time>2011-04-18T15:04:03.000Z</time>
      </trkpt>
      <trkpt lat="48.59349" lon="2.00811">
        <ele>103</ele>
        <time>2011-04-18T15:04:08.000Z</time>
      </trkpt>
      <trkpt lat="48.59353" lon="2.008">
        <ele>105</ele>
        <time>2011-04-18T15:04:14.000Z</time>
      </trkpt>
      <trkpt lat="48.59357" lon="2.00791">
        <ele>104.40000152588</ele>
        <time>2011-04-18T15:04:19.000Z</time>
      </trkpt>
      <trkpt lat="48.59363" lon="2.00778">
        <ele>104.40000152588</ele>
        <time>2011-04-18T15:04:27.000Z</time>
      </trkpt>
      <trkpt lat="48.59368" lon="2.00771">
        <ele>105</ele>
        <time>2011-04-18T15:04:32.000Z</time>
      </trkpt>
      <trkpt lat="48.59372" lon="2.00763">
        <ele>105.40000152588</ele>
        <time>2011-04-18T15:04:37.000Z</time>
      </trkpt>
      <trkpt lat="48.59378" lon="2.00749">
        <ele>105.40000152588</ele>
        <time>2011-04-18T15:04:45.000Z</time>
      </trkpt>
      <trkpt lat="48.59385" lon="2.00738">
        <ele>105.80000305176</ele>
        <time>2011-04-18T15:04:51.000Z</time>
      </trkpt>
      <trkpt lat="48.59389" lon="2.00729">
        <ele>105.40000152588</ele>
        <time>2011-04-18T15:04:57.000Z</time>
      </trkpt>
      <trkpt lat="48.59394" lon="2.00714">
        <ele>105.40000152588</ele>
        <time>2011-04-18T15:05:05.000Z</time>
      </trkpt>
      <trkpt lat="48.59397" lon="2.00705">
        <ele>105</ele>
        <time>2011-04-18T15:05:11.000Z</time>
      </trkpt>
      <trkpt lat="48.59399" lon="2.00698">
        <ele>102</ele>
        <time>2011-04-18T15:05:18.000Z</time>
      </trkpt>
      <trkpt lat="48.59399" lon="2.00673">
        <ele>97.800003051758</ele>
        <time>2011-04-18T15:05:53.000Z</time>
      </trkpt>
      <trkpt lat="48.59396" lon="2.00656">
        <ele>97.800003051758</ele>
        <time>2011-04-18T15:06:01.000Z</time>
      </trkpt>
      <trkpt lat="48.59392" lon="2.00639">
        <ele>98.199996948242</ele>
        <time>2011-04-18T15:06:10.000Z</time>
      </trkpt>
      <trkpt lat="48.59387" lon="2.00624">
        <ele>96.800003051758</ele>
        <time>2011-04-18T15:06:19.000Z</time>
      </trkpt>
      <trkpt lat="48.59384" lon="2.00609">
        <ele>97.199996948242</ele>
        <time>2011-04-18T15:06:27.000Z</time>
      </trkpt>
      <trkpt lat="48.59381" lon="2.006">
        <ele>96.199996948242</ele>
        <time>2011-04-18T15:06:34.000Z</time>
      </trkpt>
      <trkpt lat="48.59381" lon="2.006">
        <ele>96.800003051758</ele>
        <time>2011-04-18T15:06:35.000Z</time>
      </trkpt>
      <trkpt lat="48.59378" lon="2.00583">
        <ele>99.199996948242</ele>
        <time>2011-04-18T15:06:53.000Z</time>
      </trkpt>
      <trkpt lat="48.59375" lon="2.00569">
        <ele>99.599998474121</ele>
        <time>2011-04-18T15:07:00.000Z</time>
      </trkpt>
      <trkpt lat="48.59371" lon="2.00555">
        <ele>101</ele>
        <time>2011-04-18T15:07:08.000Z</time>
      </trkpt>
      <trkpt lat="48.59367" lon="2.00546">
        <ele>102</ele>
        <time>2011-04-18T15:07:14.000Z</time>
      </trkpt>
      <trkpt lat="48.59365" lon="2.00536">
        <ele>101</ele>
        <time>2011-04-18T15:07:20.000Z</time>
      </trkpt>
      <trkpt lat="48.59367" lon="2.00538">
        <ele>101.59999847412</ele>
        <time>2011-04-18T15:07:26.000Z</time>
      </trkpt>
      <trkpt lat="48.59369" lon="2.00547">
        <ele>99.599998474121</ele>
        <time>2011-04-18T15:07:31.000Z</time>
      </trkpt>
      <trkpt lat="48.59373" lon="2.00556">
        <ele>97.199996948242</ele>
        <time>2011-04-18T15:07:36.000Z</time>
      </trkpt>
      <trkpt lat="48.59377" lon="2.00573">
        <ele>97.800003051758</ele>
        <time>2011-04-18T15:07:44.000Z</time>
      </trkpt>
      <trkpt lat="48.5938" lon="2.00582">
        <ele>96.800003051758</ele>
        <time>2011-04-18T15:07:48.000Z</time>
      </trkpt>
      <trkpt lat="48.59383" lon="2.00595">
        <ele>96.199996948242</ele>
        <time>2011-04-18T15:07:55.000Z</time>
      </trkpt>
      <trkpt lat="48.59387" lon="2.00608">
        <ele>96.199996948242</ele>
        <time>2011-04-18T15:08:02.000Z</time>
      </trkpt>
      <trkpt lat="48.59389" lon="2.0062">
        <ele>94.800003051758</ele>
        <time>2011-04-18T15:08:07.000Z</time>
      </trkpt>
      <trkpt lat="48.59394" lon="2.00634">
        <ele>94.800003051758</ele>
        <time>2011-04-18T15:08:14.000Z</time>
      </trkpt>
      <trkpt lat="48.59397" lon="2.0065">
        <ele>93.800003051758</ele>
        <time>2011-04-18T15:08:22.000Z</time>
      </trkpt>
      <trkpt lat="48.59401" lon="2.00662">
        <ele>92.400001525879</ele>
        <time>2011-04-18T15:08:28.000Z</time>
      </trkpt>
      <trkpt lat="48.59406" lon="2.00672">
        <ele>92.400001525879</ele>
        <time>2011-04-18T15:08:33.000Z</time>
      </trkpt>
      <trkpt lat="48.59407" lon="2.00684">
        <ele>90</ele>
        <time>2011-04-18T15:08:40.000Z</time>
      </trkpt>
      <trkpt lat="48.59409" lon="2.00687">
        <ele>90.599998474121</ele>
        <time>2011-04-18T15:08:42.000Z</time>
      </trkpt>
      <trkpt lat="48.59411" lon="2.00688">
        <ele>90.599998474121</ele>
        <time>2011-04-18T15:08:45.000Z</time>
      </trkpt>
      <trkpt lat="48.59413" lon="2.00686">
        <ele>91.400001525879</ele>
        <time>2011-04-18T15:08:49.000Z</time>
      </trkpt>
      <trkpt lat="48.5942" lon="2.00685">
        <ele>91.400001525879</ele>
        <time>2011-04-18T15:08:56.000Z</time>
      </trkpt>
      <trkpt lat="48.59422" lon="2.0068">
        <ele>93.800003051758</ele>
        <time>2011-04-18T15:09:01.000Z</time>
      </trkpt>
      <trkpt lat="48.59426" lon="2.00674">
        <ele>93</ele>
        <time>2011-04-18T15:09:07.000Z</time>
      </trkpt>
      <trkpt lat="48.59432" lon="2.00666">
        <ele>93</ele>
        <time>2011-04-18T15:09:13.000Z</time>
      </trkpt>
      <trkpt lat="48.59441" lon="2.00656">
        <ele>93.400001525879</ele>
        <time>2011-04-18T15:09:20.000Z</time>
      </trkpt>
      <trkpt lat="48.59453" lon="2.00644">
        <ele>92.400001525879</ele>
        <time>2011-04-18T15:09:30.000Z</time>
      </trkpt>
      <trkpt lat="48.59461" lon="2.00633">
        <ele>93.400001525879</ele>
        <time>2011-04-18T15:09:38.000Z</time>
      </trkpt>
      <trkpt lat="48.59467" lon="2.0062">
        <ele>95.400001525879</ele>
        <time>2011-04-18T15:09:46.000Z</time>
      </trkpt>
      <trkpt lat="48.59474" lon="2.00606">
        <ele>98.599998474121</ele>
        <time>2011-04-18T15:09:54.000Z</time>
      </trkpt>
      <trkpt lat="48.59474" lon="2.00605">
        <ele>99.599998474121</ele>
        <time>2011-04-18T15:09:55.000Z</time>
      </trkpt>
      <trkpt lat="48.59476" lon="2.00605">
        <ele>100.19999694824</ele>
        <time>2011-04-18T15:09:57.000Z</time>
      </trkpt>
      <trkpt lat="48.59477" lon="2.00604">
        <ele>100.59999847412</ele>
        <time>2011-04-18T15:10:00.000Z</time>
      </trkpt>
      <trkpt lat="48.59481" lon="2.00592">
        <ele>100.59999847412</ele>
        <time>2011-04-18T15:10:07.000Z</time>
      </trkpt>
      <trkpt lat="48.59486" lon="2.0058">
        <ele>101</ele>
        <time>2011-04-18T15:10:14.000Z</time>
      </trkpt>
      <trkpt lat="48.59487" lon="2.00576">
        <ele>101</ele>
        <time>2011-04-18T15:10:16.000Z</time>
      </trkpt>
      <trkpt lat="48.59492" lon="2.00556">
        <ele>102.59999847412</ele>
        <time>2011-04-18T15:10:26.000Z</time>
      </trkpt>
      <trkpt lat="48.59493" lon="2.00547">
        <ele>104.40000152588</ele>
        <time>2011-04-18T15:10:30.000Z</time>
      </trkpt>
      <trkpt lat="48.59496" lon="2.0053">
        <ele>107.40000152588</ele>
        <time>2011-04-18T15:10:38.000Z</time>
      </trkpt>
      <trkpt lat="48.59502" lon="2.00513">
        <ele>104</ele>
        <time>2011-04-18T15:10:48.000Z</time>
      </trkpt>
      <trkpt lat="48.59508" lon="2.00501">
        <ele>99.599998474121</ele>
        <time>2011-04-18T15:10:56.000Z</time>
      </trkpt>
      <trkpt lat="48.59512" lon="2.00489">
        <ele>99.199996948242</ele>
        <time>2011-04-18T15:11:03.000Z</time>
      </trkpt>
      <trkpt lat="48.59516" lon="2.00478">
        <ele>96.800003051758</ele>
        <time>2011-04-18T15:11:10.000Z</time>
      </trkpt>
      <trkpt lat="48.59522" lon="2.00461">
        <ele>97.199996948242</ele>
        <time>2011-04-18T15:11:19.000Z</time>
      </trkpt>
      <trkpt lat="48.59522" lon="2.00458">
        <ele>97.199996948242</ele>
        <time>2011-04-18T15:11:21.000Z</time>
      </trkpt>
      <trkpt lat="48.59525" lon="2.00452">
        <ele>97.199996948242</ele>
        <time>2011-04-18T15:11:25.000Z</time>
      </trkpt>
      <trkpt lat="48.59531" lon="2.00432">
        <ele>95.400001525879</ele>
        <time>2011-04-18T15:11:36.000Z</time>
      </trkpt>
      <trkpt lat="48.59534" lon="2.0042">
        <ele>94.800003051758</ele>
        <time>2011-04-18T15:11:43.000Z</time>
      </trkpt>
      <trkpt lat="48.5954" lon="2.00406">
        <ele>94.800003051758</ele>
        <time>2011-04-18T15:11:51.000Z</time>
      </trkpt>
      <trkpt lat="48.59542" lon="2.00404">
        <ele>94.800003051758</ele>
        <time>2011-04-18T15:11:53.000Z</time>
      </trkpt>
      <trkpt lat="48.59549" lon="2.00405">
        <ele>94.400001525879</ele>
        <time>2011-04-18T15:12:00.000Z</time>
      </trkpt>
      <trkpt lat="48.59551" lon="2.00407">
        <ele>94.400001525879</ele>
        <time>2011-04-18T15:12:01.000Z</time>
      </trkpt>
      <trkpt lat="48.59562" lon="2.00422">
        <ele>93</ele>
        <time>2011-04-18T15:12:11.000Z</time>
      </trkpt>
      <trkpt lat="48.59568" lon="2.00428">
        <ele>92.400001525879</ele>
        <time>2011-04-18T15:12:16.000Z</time>
      </trkpt>
      <trkpt lat="48.59575" lon="2.00437">
        <ele>92</ele>
        <time>2011-04-18T15:12:22.000Z</time>
      </trkpt>
      <trkpt lat="48.59578" lon="2.00445">
        <ele>91.400001525879</ele>
        <time>2011-04-18T15:12:27.000Z</time>
      </trkpt>
      <trkpt lat="48.59586" lon="2.00457">
        <ele>92</ele>
        <time>2011-04-18T15:12:35.000Z</time>
      </trkpt>
      <trkpt lat="48.59593" lon="2.00466">
        <ele>93</ele>
        <time>2011-04-18T15:12:41.000Z</time>
      </trkpt>
      <trkpt lat="48.596" lon="2.00474">
        <ele>93.400001525879</ele>
        <time>2011-04-18T15:12:47.000Z</time>
      </trkpt>
      <trkpt lat="48.5961" lon="2.00486">
        <ele>93</ele>
        <time>2011-04-18T15:12:56.000Z</time>
      </trkpt>
      <trkpt lat="48.59619" lon="2.00494">
        <ele>92</ele>
        <time>2011-04-18T15:13:04.000Z</time>
      </trkpt>
      <trkpt lat="48.59627" lon="2.00504">
        <ele>91.400001525879</ele>
        <time>2011-04-18T15:13:12.000Z</time>
      </trkpt>
      <trkpt lat="48.59631" lon="2.00513">
        <ele>91</ele>
        <time>2011-04-18T15:13:19.000Z</time>
      </trkpt>
      <trkpt lat="48.59637" lon="2.00523">
        <ele>91</ele>
        <time>2011-04-18T15:13:27.000Z</time>
      </trkpt>
      <trkpt lat="48.59649" lon="2.00538">
        <ele>91</ele>
        <time>2011-04-18T15:13:38.000Z</time>
      </trkpt>
      <trkpt lat="48.59662" lon="2.0055">
        <ele>91</ele>
        <time>2011-04-18T15:13:49.000Z</time>
      </trkpt>
      <trkpt lat="48.59672" lon="2.0056">
        <ele>91</ele>
        <time>2011-04-18T15:13:57.000Z</time>
      </trkpt>
      <trkpt lat="48.59686" lon="2.00575">
        <ele>91</ele>
        <time>2011-04-18T15:14:08.000Z</time>
      </trkpt>
      <trkpt lat="48.59695" lon="2.0058">
        <ele>91</ele>
        <time>2011-04-18T15:14:15.000Z</time>
      </trkpt>
      <trkpt lat="48.59707" lon="2.00585">
        <ele>90</ele>
        <time>2011-04-18T15:14:24.000Z</time>
      </trkpt>
      <trkpt lat="48.59709" lon="2.00586">
        <ele>89.599998474121</ele>
        <time>2011-04-18T15:14:28.000Z</time>
      </trkpt>
      <trkpt lat="48.59714" lon="2.00597">
        <ele>87.199996948242</ele>
        <time>2011-04-18T15:15:32.000Z</time>
      </trkpt>
      <trkpt lat="48.59713" lon="2.00601">
        <ele>86.599998474121</ele>
        <time>2011-04-18T15:15:33.000Z</time>
      </trkpt>
      <trkpt lat="48.60288" lon="2.01063">
        <ele>102</ele>
        <time>2011-04-19T06:55:11.000Z</time>
      </trkpt>
      <trkpt lat="48.60288" lon="2.01063">
        <ele>102</ele>
        <time>2011-04-19T06:55:11.000Z</time>
      </trkpt>
      <trkpt lat="48.60285" lon="2.01059">
        <ele>101.59999847412</ele>
        <time>2011-04-19T06:55:14.000Z</time>
      </trkpt>
      <trkpt lat="48.60284" lon="2.01056">
        <ele>101.59999847412</ele>
        <time>2011-04-19T06:55:16.000Z</time>
      </trkpt>
      <trkpt lat="48.60278" lon="2.01048">
        <ele>104</ele>
        <time>2011-04-19T06:55:22.000Z</time>
      </trkpt>
      <trkpt lat="48.60276" lon="2.01046">
        <ele>105</ele>
        <time>2011-04-19T06:55:25.000Z</time>
      </trkpt>
      <trkpt lat="48.60269" lon="2.01036">
        <ele>105.80000305176</ele>
        <time>2011-04-19T06:55:32.000Z</time>
      </trkpt>
      <trkpt lat="48.60266" lon="2.01028">
        <ele>105.40000152588</ele>
        <time>2011-04-19T06:55:39.000Z</time>
      </trkpt>
      <trkpt lat="48.60265" lon="2.01028">
        <ele>105.80000305176</ele>
        <time>2011-04-19T06:55:40.000Z</time>
      </trkpt>
      <trkpt lat="48.60255" lon="2.01021">
        <ele>111.19999694824</ele>
        <time>2011-04-19T06:55:49.000Z</time>
      </trkpt>
      <trkpt lat="48.60251" lon="2.01017">
        <ele>113</ele>
        <time>2011-04-19T06:55:54.000Z</time>
      </trkpt>
      <trkpt lat="48.60247" lon="2.0101">
        <ele>116</ele>
        <time>2011-04-19T06:55:59.000Z</time>
      </trkpt>
      <trkpt lat="48.60242" lon="2.01003">
        <ele>113</ele>
        <time>2011-04-19T06:56:06.000Z</time>
      </trkpt>
      <trkpt lat="48.60237" lon="2.00996">
        <ele>111.59999847412</ele>
        <time>2011-04-19T06:56:12.000Z</time>
      </trkpt>
      <trkpt lat="48.60231" lon="2.00999">
        <ele>110.59999847412</ele>
        <time>2011-04-19T06:56:19.000Z</time>
      </trkpt>
      <trkpt lat="48.60229" lon="2.01003">
        <ele>109.19999694824</ele>
        <time>2011-04-19T06:56:22.000Z</time>
      </trkpt>
      <trkpt lat="48.60226" lon="2.01006">
        <ele>107.40000152588</ele>
        <time>2011-04-19T06:56:25.000Z</time>
      </trkpt>
      <trkpt lat="48.6022" lon="2.01012">
        <ele>108.80000305176</ele>
        <time>2011-04-19T06:56:30.000Z</time>
      </trkpt>
      <trkpt lat="48.60217" lon="2.01019">
        <ele>104.40000152588</ele>
        <time>2011-04-19T06:56:36.000Z</time>
      </trkpt>
      <trkpt lat="48.60215" lon="2.01016">
        <ele>103.40000152588</ele>
        <time>2011-04-19T06:56:42.000Z</time>
      </trkpt>
      <trkpt lat="48.60212" lon="2.01018">
        <ele>105</ele>
        <time>2011-04-19T06:56:48.000Z</time>
      </trkpt>
      <trkpt lat="48.60209" lon="2.01011">
        <ele>105.80000305176</ele>
        <time>2011-04-19T06:56:53.000Z</time>
      </trkpt>
      <trkpt lat="48.60211" lon="2.01008">
        <ele>107.40000152588</ele>
        <time>2011-04-19T06:57:05.000Z</time>
      </trkpt>
      <trkpt lat="48.60207" lon="2.01001">
        <ele>106.40000152588</ele>
        <time>2011-04-19T06:57:11.000Z</time>
      </trkpt>
      <trkpt lat="48.60203" lon="2.00993">
        <ele>105</ele>
        <time>2011-04-19T06:57:19.000Z</time>
      </trkpt>
      <trkpt lat="48.602" lon="2.00986">
        <ele>103</ele>
        <time>2011-04-19T06:57:25.000Z</time>
      </trkpt>
      <trkpt lat="48.602" lon="2.00983">
        <ele>102</ele>
        <time>2011-04-19T06:57:29.000Z</time>
      </trkpt>
      <trkpt lat="48.602" lon="2.00981">
        <ele>101.59999847412</ele>
        <time>2011-04-19T06:57:33.000Z</time>
      </trkpt>
      <trkpt lat="48.60196" lon="2.00974">
        <ele>100.59999847412</ele>
        <time>2011-04-19T06:57:43.000Z</time>
      </trkpt>
      <trkpt lat="48.60191" lon="2.00963">
        <ele>99.599998474121</ele>
        <time>2011-04-19T06:57:49.000Z</time>
      </trkpt>
      <trkpt lat="48.60189" lon="2.0096">
        <ele>99.599998474121</ele>
        <time>2011-04-19T06:57:51.000Z</time>
      </trkpt>
      <trkpt lat="48.60184" lon="2.00951">
        <ele>99.599998474121</ele>
        <time>2011-04-19T06:57:57.000Z</time>
      </trkpt>
      <trkpt lat="48.60178" lon="2.00941">
        <ele>100.59999847412</ele>
        <time>2011-04-19T06:58:04.000Z</time>
      </trkpt>
      <trkpt lat="48.60177" lon="2.00935">
        <ele>99.599998474121</ele>
        <time>2011-04-19T06:58:07.000Z</time>
      </trkpt>
      <trkpt lat="48.60174" lon="2.00928">
        <ele>98.599998474121</ele>
        <time>2011-04-19T06:58:11.000Z</time>
      </trkpt>
      <trkpt lat="48.60167" lon="2.00917">
        <ele>99.599998474121</ele>
        <time>2011-04-19T06:58:19.000Z</time>
      </trkpt>
      <trkpt lat="48.60162" lon="2.00906">
        <ele>101</ele>
        <time>2011-04-19T06:58:26.000Z</time>
      </trkpt>
      <trkpt lat="48.60155" lon="2.00893">
        <ele>104</ele>
        <time>2011-04-19T06:58:34.000Z</time>
      </trkpt>
      <trkpt lat="48.6015" lon="2.00884">
        <ele>105.40000152588</ele>
        <time>2011-04-19T06:58:40.000Z</time>
      </trkpt>
      <trkpt lat="48.60147" lon="2.00879">
        <ele>105.80000305176</ele>
        <time>2011-04-19T06:58:43.000Z</time>
      </trkpt>
      <trkpt lat="48.60144" lon="2.00876">
        <ele>106.40000152588</ele>
        <time>2011-04-19T06:58:46.000Z</time>
      </trkpt>
      <trkpt lat="48.60137" lon="2.00864">
        <ele>105.40000152588</ele>
        <time>2011-04-19T06:58:54.000Z</time>
      </trkpt>
      <trkpt lat="48.60133" lon="2.00857">
        <ele>105.80000305176</ele>
        <time>2011-04-19T06:59:00.000Z</time>
      </trkpt>
      <trkpt lat="48.60128" lon="2.00847">
        <ele>106.40000152588</ele>
        <time>2011-04-19T06:59:07.000Z</time>
      </trkpt>
      <trkpt lat="48.60124" lon="2.00837">
        <ele>105.80000305176</ele>
        <time>2011-04-19T06:59:14.000Z</time>
      </trkpt>
      <trkpt lat="48.6012" lon="2.00827">
        <ele>102.59999847412</ele>
        <time>2011-04-19T06:59:21.000Z</time>
      </trkpt>
      <trkpt lat="48.60117" lon="2.0082">
        <ele>101.59999847412</ele>
        <time>2011-04-19T06:59:27.000Z</time>
      </trkpt>
      <trkpt lat="48.60113" lon="2.00811">
        <ele>101.59999847412</ele>
        <time>2011-04-19T06:59:32.000Z</time>
      </trkpt>
      <trkpt lat="48.60111" lon="2.00803">
        <ele>100.19999694824</ele>
        <time>2011-04-19T06:59:37.000Z</time>
      </trkpt>
      <trkpt lat="48.60109" lon="2.008">
        <ele>99.599998474121</ele>
        <time>2011-04-19T06:59:39.000Z</time>
      </trkpt>
      <trkpt lat="48.60102" lon="2.00795">
        <ele>99.599998474121</ele>
        <time>2011-04-19T06:59:46.000Z</time>
      </trkpt>
      <trkpt lat="48.60096" lon="2.00795">
        <ele>99.199996948242</ele>
        <time>2011-04-19T06:59:52.000Z</time>
      </trkpt>
      <trkpt lat="48.60088" lon="2.00794">
        <ele>97.800003051758</ele>
        <time>2011-04-19T06:59:59.000Z</time>
      </trkpt>
      <trkpt lat="48.60085" lon="2.00795">
        <ele>95.800003051758</ele>
        <time>2011-04-19T07:00:04.000Z</time>
      </trkpt>
      <trkpt lat="48.60081" lon="2.00799">
        <ele>97.800003051758</ele>
        <time>2011-04-19T07:00:07.000Z</time>
      </trkpt>
      <trkpt lat="48.60075" lon="2.00806">
        <ele>96.199996948242</ele>
        <time>2011-04-19T07:00:13.000Z</time>
      </trkpt>
      <trkpt lat="48.60069" lon="2.00812">
        <ele>95.800003051758</ele>
        <time>2011-04-19T07:00:19.000Z</time>
      </trkpt>
      <trkpt lat="48.60065" lon="2.00819">
        <ele>96.199996948242</ele>
        <time>2011-04-19T07:00:23.000Z</time>
      </trkpt>
      <trkpt lat="48.60062" lon="2.00829">
        <ele>97.800003051758</ele>
        <time>2011-04-19T07:00:29.000Z</time>
      </trkpt>
      <trkpt lat="48.60056" lon="2.00835">
        <ele>98.199996948242</ele>
        <time>2011-04-19T07:00:34.000Z</time>
      </trkpt>
      <trkpt lat="48.60056" lon="2.00835">
        <ele>97.800003051758</ele>
        <time>2011-04-19T07:00:35.000Z</time>
      </trkpt>
      <trkpt lat="48.60051" lon="2.00836">
        <ele>96.199996948242</ele>
        <time>2011-04-19T07:00:43.000Z</time>
      </trkpt>
      <trkpt lat="48.60049" lon="2.00836">
        <ele>95.800003051758</ele>
        <time>2011-04-19T07:00:44.000Z</time>
      </trkpt>
      <trkpt lat="48.6004" lon="2.00845">
        <ele>96.800003051758</ele>
        <time>2011-04-19T07:00:49.000Z</time>
      </trkpt>
      <trkpt lat="48.60033" lon="2.00852">
        <ele>95.400001525879</ele>
        <time>2011-04-19T07:00:56.000Z</time>
      </trkpt>
      <trkpt lat="48.60025" lon="2.00857">
        <ele>95.400001525879</ele>
        <time>2011-04-19T07:01:03.000Z</time>
      </trkpt>
      <trkpt lat="48.60016" lon="2.00862">
        <ele>94.800003051758</ele>
        <time>2011-04-19T07:01:11.000Z</time>
      </trkpt>
      <trkpt lat="48.60016" lon="2.00861">
        <ele>94.800003051758</ele>
        <time>2011-04-19T07:01:15.000Z</time>
      </trkpt>
      <trkpt lat="48.60016" lon="2.00861">
        <ele>94.800003051758</ele>
        <time>2011-04-19T07:01:16.000Z</time>
      </trkpt>
      <trkpt lat="48.60005" lon="2.00852">
        <ele>96.199996948242</ele>
        <time>2011-04-19T07:01:42.000Z</time>
      </trkpt>
      <trkpt lat="48.60002" lon="2.00848">
        <ele>97.800003051758</ele>
        <time>2011-04-19T07:01:44.000Z</time>
      </trkpt>
      <trkpt lat="48.59995" lon="2.00839">
        <ele>97.800003051758</ele>
        <time>2011-04-19T07:01:51.000Z</time>
      </trkpt>
      <trkpt lat="48.5999" lon="2.00832">
        <ele>101.59999847412</ele>
        <time>2011-04-19T07:01:56.000Z</time>
      </trkpt>
      <trkpt lat="48.59987" lon="2.00825">
        <ele>99.599998474121</ele>
        <time>2011-04-19T07:02:00.000Z</time>
      </trkpt>
      <trkpt lat="48.59982" lon="2.00816">
        <ele>95.800003051758</ele>
        <time>2011-04-19T07:02:06.000Z</time>
      </trkpt>
      <trkpt lat="48.59981" lon="2.00814">
        <ele>95.400001525879</ele>
        <time>2011-04-19T07:02:07.000Z</time>
      </trkpt>
      <trkpt lat="48.59978" lon="2.00809">
        <ele>94.800003051758</ele>
        <time>2011-04-19T07:02:12.000Z</time>
      </trkpt>
      <trkpt lat="48.59974" lon="2.00803">
        <ele>92.400001525879</ele>
        <time>2011-04-19T07:02:17.000Z</time>
      </trkpt>
      <trkpt lat="48.5997" lon="2.00795">
        <ele>90.599998474121</ele>
        <time>2011-04-19T07:02:23.000Z</time>
      </trkpt>
      <trkpt lat="48.59968" lon="2.00794">
        <ele>90.599998474121</ele>
        <time>2011-04-19T07:02:25.000Z</time>
      </trkpt>
      <trkpt lat="48.59961" lon="2.00788">
        <ele>92</ele>
        <time>2011-04-19T07:02:30.000Z</time>
      </trkpt>
      <trkpt lat="48.5996" lon="2.00787">
        <ele>92</ele>
        <time>2011-04-19T07:02:31.000Z</time>
      </trkpt>
      <trkpt lat="48.59955" lon="2.00784">
        <ele>92</ele>
        <time>2011-04-19T07:02:35.000Z</time>
      </trkpt>
      <trkpt lat="48.59948" lon="2.00785">
        <ele>90.599998474121</ele>
        <time>2011-04-19T07:02:41.000Z</time>
      </trkpt>
      <trkpt lat="48.59943" lon="2.00783">
        <ele>89.599998474121</ele>
        <time>2011-04-19T07:02:45.000Z</time>
      </trkpt>
      <trkpt lat="48.59932" lon="2.00781">
        <ele>88.599998474121</ele>
        <time>2011-04-19T07:02:54.000Z</time>
      </trkpt>
      <trkpt lat="48.59924" lon="2.00783">
        <ele>89</ele>
        <time>2011-04-19T07:03:00.000Z</time>
      </trkpt>
      <trkpt lat="48.59915" lon="2.00784">
        <ele>90.599998474121</ele>
        <time>2011-04-19T07:03:06.000Z</time>
      </trkpt>
      <trkpt lat="48.59909" lon="2.0078">
        <ele>91</ele>
        <time>2011-04-19T07:03:11.000Z</time>
      </trkpt>
      <trkpt lat="48.59905" lon="2.00772">
        <ele>88.599998474121</ele>
        <time>2011-04-19T07:03:16.000Z</time>
      </trkpt>
      <trkpt lat="48.59901" lon="2.00767">
        <ele>88.599998474121</ele>
        <time>2011-04-19T07:03:20.000Z</time>
      </trkpt>
      <trkpt lat="48.59894" lon="2.00759">
        <ele>86.599998474121</ele>
        <time>2011-04-19T07:03:28.000Z</time>
      </trkpt>
      <trkpt lat="48.59887" lon="2.00753">
        <ele>83.800003051758</ele>
        <time>2011-04-19T07:03:35.000Z</time>
      </trkpt>
      <trkpt lat="48.59876" lon="2.00745">
        <ele>85.199996948242</ele>
        <time>2011-04-19T07:03:44.000Z</time>
      </trkpt>
      <trkpt lat="48.59874" lon="2.00738">
        <ele>86.199996948242</ele>
        <time>2011-04-19T07:03:48.000Z</time>
      </trkpt>
      <trkpt lat="48.59871" lon="2.00727">
        <ele>87.199996948242</ele>
        <time>2011-04-19T07:03:54.000Z</time>
      </trkpt>
      <trkpt lat="48.5987" lon="2.00721">
        <ele>87.199996948242</ele>
        <time>2011-04-19T07:03:57.000Z</time>
      </trkpt>
      <trkpt lat="48.59866" lon="2.00714">
        <ele>89</ele>
        <time>2011-04-19T07:04:02.000Z</time>
      </trkpt>
      <trkpt lat="48.59862" lon="2.00705">
        <ele>90</ele>
        <time>2011-04-19T07:04:08.000Z</time>
      </trkpt>
      <trkpt lat="48.59856" lon="2.00702">
        <ele>91.400001525879</ele>
        <time>2011-04-19T07:04:13.000Z</time>
      </trkpt>
      <trkpt lat="48.59846" lon="2.00696">
        <ele>92.400001525879</ele>
        <time>2011-04-19T07:04:21.000Z</time>
      </trkpt>
      <trkpt lat="48.59838" lon="2.00691">
        <ele>91.400001525879</ele>
        <time>2011-04-19T07:04:27.000Z</time>
      </trkpt>
      <trkpt lat="48.59834" lon="2.00689">
        <ele>90.599998474121</ele>
        <time>2011-04-19T07:04:31.000Z</time>
      </trkpt>
      <trkpt lat="48.59832" lon="2.00686">
        <ele>89</ele>
        <time>2011-04-19T07:04:35.000Z</time>
      </trkpt>
      <trkpt lat="48.59826" lon="2.00681">
        <ele>90</ele>
        <time>2011-04-19T07:04:41.000Z</time>
      </trkpt>
      <trkpt lat="48.59821" lon="2.00681">
        <ele>92.400001525879</ele>
        <time>2011-04-19T07:04:45.000Z</time>
      </trkpt>
      <trkpt lat="48.59817" lon="2.00677">
        <ele>92</ele>
        <time>2011-04-19T07:04:49.000Z</time>
      </trkpt>
      <trkpt lat="48.59808" lon="2.00673">
        <ele>92.400001525879</ele>
        <time>2011-04-19T07:04:56.000Z</time>
      </trkpt>
      <trkpt lat="48.59802" lon="2.00672">
        <ele>93.400001525879</ele>
        <time>2011-04-19T07:05:02.000Z</time>
      </trkpt>
      <trkpt lat="48.59795" lon="2.00665">
        <ele>92</ele>
        <time>2011-04-19T07:05:08.000Z</time>
      </trkpt>
      <trkpt lat="48.59791" lon="2.00662">
        <ele>89.599998474121</ele>
        <time>2011-04-19T07:05:12.000Z</time>
      </trkpt>
      <trkpt lat="48.59787" lon="2.0066">
        <ele>89</ele>
        <time>2011-04-19T07:05:16.000Z</time>
      </trkpt>
      <trkpt lat="48.59778" lon="2.00655">
        <ele>90</ele>
        <time>2011-04-19T07:05:24.000Z</time>
      </trkpt>
      <trkpt lat="48.59774" lon="2.00654">
        <ele>90</ele>
        <time>2011-04-19T07:05:27.000Z</time>
      </trkpt>
      <trkpt lat="48.59764" lon="2.00651">
        <ele>90</ele>
        <time>2011-04-19T07:05:35.000Z</time>
      </trkpt>
      <trkpt lat="48.59757" lon="2.0065">
        <ele>90.599998474121</ele>
        <time>2011-04-19T07:05:40.000Z</time>
      </trkpt>
      <trkpt lat="48.59753" lon="2.00652">
        <ele>90</ele>
        <time>2011-04-19T07:05:44.000Z</time>
      </trkpt>
      <trkpt lat="48.59745" lon="2.0065">
        <ele>91.400001525879</ele>
        <time>2011-04-19T07:05:50.000Z</time>
      </trkpt>
      <trkpt lat="48.59737" lon="2.0064">
        <ele>93</ele>
        <time>2011-04-19T07:05:58.000Z</time>
      </trkpt>
      <trkpt lat="48.59734" lon="2.00633">
        <ele>92</ele>
        <time>2011-04-19T07:06:02.000Z</time>
      </trkpt>
      <trkpt lat="48.59729" lon="2.00625">
        <ele>92</ele>
        <time>2011-04-19T07:06:08.000Z</time>
      </trkpt>
      <trkpt lat="48.59726" lon="2.00619">
        <ele>90.599998474121</ele>
        <time>2011-04-19T07:06:14.000Z</time>
      </trkpt>
      <trkpt lat="48.59721" lon="2.00609">
        <ele>90.599998474121</ele>
        <time>2011-04-19T07:06:47.000Z</time>
      </trkpt>
      <trkpt lat="48.59713" lon="2.00601">
        <ele>92.400001525879</ele>
        <time>2011-04-19T07:06:54.000Z</time>
      </trkpt>
      <trkpt lat="48.59707" lon="2.00595">
        <ele>93</ele>
        <time>2011-04-19T07:07:01.000Z</time>
      </trkpt>
      <trkpt lat="48.59697" lon="2.0059">
        <ele>93</ele>
        <time>2011-04-19T07:07:10.000Z</time>
      </trkpt>
      <trkpt lat="48.5969" lon="2.00589">
        <ele>93</ele>
        <time>2011-04-19T07:07:16.000Z</time>
      </trkpt>
      <trkpt lat="48.59684" lon="2.00589">
        <ele>93.400001525879</ele>
        <time>2011-04-19T07:07:20.000Z</time>
      </trkpt>
      <trkpt lat="48.59677" lon="2.00584">
        <ele>93</ele>
        <time>2011-04-19T07:07:27.000Z</time>
      </trkpt>
      <trkpt lat="48.59672" lon="2.00578">
        <ele>90.599998474121</ele>
        <time>2011-04-19T07:07:33.000Z</time>
      </trkpt>
      <trkpt lat="48.59667" lon="2.0057">
        <ele>89.599998474121</ele>
        <time>2011-04-19T07:07:38.000Z</time>
      </trkpt>
      <trkpt lat="48.59663" lon="2.00562">
        <ele>90</ele>
        <time>2011-04-19T07:07:43.000Z</time>
      </trkpt>
      <trkpt lat="48.59661" lon="2.00561">
        <ele>91</ele>
        <time>2011-04-19T07:07:45.000Z</time>
      </trkpt>
      <trkpt lat="48.59655" lon="2.00549">
        <ele>92</ele>
        <time>2011-04-19T07:07:53.000Z</time>
      </trkpt>
      <trkpt lat="48.59653" lon="2.00546">
        <ele>92.400001525879</ele>
        <time>2011-04-19T07:07:55.000Z</time>
      </trkpt>
      <trkpt lat="48.59646" lon="2.0054">
        <ele>93.800003051758</ele>
        <time>2011-04-19T07:08:02.000Z</time>
      </trkpt>
      <trkpt lat="48.59641" lon="2.00532">
        <ele>94.800003051758</ele>
        <time>2011-04-19T07:08:08.000Z</time>
      </trkpt>
      <trkpt lat="48.59639" lon="2.0053">
        <ele>95.400001525879</ele>
        <time>2011-04-19T07:08:10.000Z</time>
      </trkpt>
      <trkpt lat="48.59637" lon="2.00527">
        <ele>95.800003051758</ele>
        <time>2011-04-19T07:08:12.000Z</time>
      </trkpt>
      <trkpt lat="48.59632" lon="2.00521">
        <ele>95.800003051758</ele>
        <time>2011-04-19T07:08:17.000Z</time>
      </trkpt>
      <trkpt lat="48.59622" lon="2.00508">
        <ele>95.400001525879</ele>
        <time>2011-04-19T07:08:28.000Z</time>
      </trkpt>
      <trkpt lat="48.59615" lon="2.00497">
        <ele>94.800003051758</ele>
        <time>2011-04-19T07:08:36.000Z</time>
      </trkpt>
      <trkpt lat="48.59609" lon="2.00491">
        <ele>95.800003051758</ele>
        <time>2011-04-19T07:08:42.000Z</time>
      </trkpt>
      <trkpt lat="48.59602" lon="2.00482">
        <ele>96.800003051758</ele>
        <time>2011-04-19T07:08:50.000Z</time>
      </trkpt>
      <trkpt lat="48.59596" lon="2.00475">
        <ele>97.800003051758</ele>
        <time>2011-04-19T07:08:56.000Z</time>
      </trkpt>
      <trkpt lat="48.59592" lon="2.0047">
        <ele>99.199996948242</ele>
        <time>2011-04-19T07:09:00.000Z</time>
      </trkpt>
      <trkpt lat="48.59589" lon="2.00466">
        <ele>99.199996948242</ele>
        <time>2011-04-19T07:09:04.000Z</time>
      </trkpt>
      <trkpt lat="48.59583" lon="2.00455">
        <ele>98.599998474121</ele>
        <time>2011-04-19T07:09:12.000Z</time>
      </trkpt>
      <trkpt lat="48.59578" lon="2.00445">
        <ele>99.199996948242</ele>
        <time>2011-04-19T07:09:19.000Z</time>
      </trkpt>
      <trkpt lat="48.59572" lon="2.00437">
        <ele>99.199996948242</ele>
        <time>2011-04-19T07:09:26.000Z</time>
      </trkpt>
      <trkpt lat="48.59569" lon="2.00435">
        <ele>99.599998474121</ele>
        <time>2011-04-19T07:09:29.000Z</time>
      </trkpt>
      <trkpt lat="48.59566" lon="2.00429">
        <ele>99.199996948242</ele>
        <time>2011-04-19T07:09:34.000Z</time>
      </trkpt>
      <trkpt lat="48.5956" lon="2.00422">
        <ele>99.599998474121</ele>
        <time>2011-04-19T07:09:41.000Z</time>
      </trkpt>
      <trkpt lat="48.59556" lon="2.00415">
        <ele>100.59999847412</ele>
        <time>2011-04-19T07:09:47.000Z</time>
      </trkpt>
      <trkpt lat="48.59551" lon="2.00409">
        <ele>101</ele>
        <time>2011-04-19T07:09:52.000Z</time>
      </trkpt>
      <trkpt lat="48.59546" lon="2.00404">
        <ele>102.59999847412</ele>
        <time>2011-04-19T07:09:58.000Z</time>
      </trkpt>
      <trkpt lat="48.59541" lon="2.00402">
        <ele>102</ele>
        <time>2011-04-19T07:10:03.000Z</time>
      </trkpt>
      <trkpt lat="48.5954" lon="2.00408">
        <ele>99.599998474121</ele>
        <time>2011-04-19T07:10:08.000Z</time>
      </trkpt>
      <trkpt lat="48.59538" lon="2.00412">
        <ele>100.59999847412</ele>
        <time>2011-04-19T07:10:11.000Z</time>
      </trkpt>
      <trkpt lat="48.59534" lon="2.00423">
        <ele>99.199996948242</ele>
        <time>2011-04-19T07:10:19.000Z</time>
      </trkpt>
      <trkpt lat="48.59532" lon="2.00429">
        <ele>98.599998474121</ele>
        <time>2011-04-19T07:10:23.000Z</time>
      </trkpt>
      <trkpt lat="48.59531" lon="2.00433">
        <ele>98.199996948242</ele>
        <time>2011-04-19T07:10:28.000Z</time>
      </trkpt>
      <trkpt lat="48.59529" lon="2.00441">
        <ele>98.599998474121</ele>
        <time>2011-04-19T07:10:35.000Z</time>
      </trkpt>
      <trkpt lat="48.59526" lon="2.00451">
        <ele>99.599998474121</ele>
        <time>2011-04-19T07:10:40.000Z</time>
      </trkpt>
      <trkpt lat="48.59522" lon="2.00461">
        <ele>98.199996948242</ele>
        <time>2011-04-19T07:10:46.000Z</time>
      </trkpt>
      <trkpt lat="48.5952" lon="2.00472">
        <ele>97.800003051758</ele>
        <time>2011-04-19T07:10:53.000Z</time>
      </trkpt>
      <trkpt lat="48.59515" lon="2.00486">
        <ele>95.800003051758</ele>
        <time>2011-04-19T07:11:02.000Z</time>
      </trkpt>
      <trkpt lat="48.59511" lon="2.00499">
        <ele>96.800003051758</ele>
        <time>2011-04-19T07:11:09.000Z</time>
      </trkpt>
      <trkpt lat="48.5951" lon="2.00503">
        <ele>97.199996948242</ele>
        <time>2011-04-19T07:11:11.000Z</time>
      </trkpt>
      <trkpt lat="48.59508" lon="2.00515">
        <ele>96.800003051758</ele>
        <time>2011-04-19T07:11:18.000Z</time>
      </trkpt>
      <trkpt lat="48.59507" lon="2.00523">
        <ele>97.199996948242</ele>
        <time>2011-04-19T07:11:23.000Z</time>
      </trkpt>
      <trkpt lat="48.59506" lon="2.00532">
        <ele>98.199996948242</ele>
        <time>2011-04-19T07:11:29.000Z</time>
      </trkpt>
      <trkpt lat="48.59501" lon="2.00546">
        <ele>99.199996948242</ele>
        <time>2011-04-19T07:11:36.000Z</time>
      </trkpt>
      <trkpt lat="48.59497" lon="2.00559">
        <ele>97.199996948242</ele>
        <time>2011-04-19T07:11:45.000Z</time>
      </trkpt>
      <trkpt lat="48.59492" lon="2.00573">
        <ele>95.400001525879</ele>
        <time>2011-04-19T07:11:53.000Z</time>
      </trkpt>
      <trkpt lat="48.59488" lon="2.00586">
        <ele>96.800003051758</ele>
        <time>2011-04-19T07:12:00.000Z</time>
      </trkpt>
      <trkpt lat="48.59485" lon="2.00598">
        <ele>94.800003051758</ele>
        <time>2011-04-19T07:12:07.000Z</time>
      </trkpt>
      <trkpt lat="48.59478" lon="2.00613">
        <ele>94.800003051758</ele>
        <time>2011-04-19T07:12:16.000Z</time>
      </trkpt>
      <trkpt lat="48.59472" lon="2.00623">
        <ele>94.400001525879</ele>
        <time>2011-04-19T07:12:23.000Z</time>
      </trkpt>
      <trkpt lat="48.59465" lon="2.00634">
        <ele>94.400001525879</ele>
        <time>2011-04-19T07:12:31.000Z</time>
      </trkpt>
      <trkpt lat="48.59456" lon="2.00643">
        <ele>92.400001525879</ele>
        <time>2011-04-19T07:12:39.000Z</time>
      </trkpt>
      <trkpt lat="48.59448" lon="2.00652">
        <ele>93</ele>
        <time>2011-04-19T07:12:47.000Z</time>
      </trkpt>
      <trkpt lat="48.59441" lon="2.0066">
        <ele>92</ele>
        <time>2011-04-19T07:12:54.000Z</time>
      </trkpt>
      <trkpt lat="48.59436" lon="2.00667">
        <ele>91.400001525879</ele>
        <time>2011-04-19T07:13:00.000Z</time>
      </trkpt>
      <trkpt lat="48.59429" lon="2.00674">
        <ele>90</ele>
        <time>2011-04-19T07:13:07.000Z</time>
      </trkpt>
      <trkpt lat="48.59426" lon="2.00679">
        <ele>91</ele>
        <time>2011-04-19T07:13:11.000Z</time>
      </trkpt>
      <trkpt lat="48.59422" lon="2.00684">
        <ele>90</ele>
        <time>2011-04-19T07:13:15.000Z</time>
      </trkpt>
      <trkpt lat="48.59421" lon="2.00687">
        <ele>91.400001525879</ele>
        <time>2011-04-19T07:13:17.000Z</time>
      </trkpt>
      <trkpt lat="48.59417" lon="2.00687">
        <ele>91.400001525879</ele>
        <time>2011-04-19T07:13:23.000Z</time>
      </trkpt>
      <trkpt lat="48.59408" lon="2.00709">
        <ele>94.800003051758</ele>
        <time>2011-04-19T07:13:53.000Z</time>
      </trkpt>
      <trkpt lat="48.59403" lon="2.00716">
        <ele>93.800003051758</ele>
        <time>2011-04-19T07:13:57.000Z</time>
      </trkpt>
      <trkpt lat="48.59398" lon="2.00726">
        <ele>91.400001525879</ele>
        <time>2011-04-19T07:14:03.000Z</time>
      </trkpt>
      <trkpt lat="48.59396" lon="2.00732">
        <ele>92</ele>
        <time>2011-04-19T07:14:06.000Z</time>
      </trkpt>
      <trkpt lat="48.59394" lon="2.00739">
        <ele>91</ele>
        <time>2011-04-19T07:14:09.000Z</time>
      </trkpt>
      <trkpt lat="48.5939" lon="2.00741">
        <ele>89</ele>
        <time>2011-04-19T07:14:13.000Z</time>
      </trkpt>
      <trkpt lat="48.59385" lon="2.00749">
        <ele>85.599998474121</ele>
        <time>2011-04-19T07:14:20.000Z</time>
      </trkpt>
      <trkpt lat="48.59383" lon="2.00753">
        <ele>85.599998474121</ele>
        <time>2011-04-19T07:14:23.000Z</time>
      </trkpt>
      <trkpt lat="48.59375" lon="2.0077">
        <ele>89.599998474121</ele>
        <time>2011-04-19T07:14:30.000Z</time>
      </trkpt>
      <trkpt lat="48.59372" lon="2.00777">
        <ele>90</ele>
        <time>2011-04-19T07:14:35.000Z</time>
      </trkpt>
      <trkpt lat="48.59368" lon="2.0079">
        <ele>92.400001525879</ele>
        <time>2011-04-19T07:14:41.000Z</time>
      </trkpt>
      <trkpt lat="48.59363" lon="2.00798">
        <ele>91.400001525879</ele>
        <time>2011-04-19T07:14:47.000Z</time>
      </trkpt>
      <trkpt lat="48.59362" lon="2.00803">
        <ele>91.400001525879</ele>
        <time>2011-04-19T07:14:51.000Z</time>
      </trkpt>
      <trkpt lat="48.5936" lon="2.00806">
        <ele>91.400001525879</ele>
        <time>2011-04-19T07:14:53.000Z</time>
      </trkpt>
      <trkpt lat="48.59357" lon="2.00816">
        <ele>94.800003051758</ele>
        <time>2011-04-19T07:14:56.000Z</time>
      </trkpt>
      <trkpt lat="48.59354" lon="2.00823">
        <ele>95.800003051758</ele>
        <time>2011-04-19T07:15:01.000Z</time>
      </trkpt>
      <trkpt lat="48.59353" lon="2.00827">
        <ele>95.800003051758</ele>
        <time>2011-04-19T07:15:03.000Z</time>
      </trkpt>
      <trkpt lat="48.59354" lon="2.0083">
        <ele>94.800003051758</ele>
        <time>2011-04-19T07:15:06.000Z</time>
      </trkpt>
      <trkpt lat="48.59348" lon="2.00837">
        <ele>92.400001525879</ele>
        <time>2011-04-19T07:15:12.000Z</time>
      </trkpt>
      <trkpt lat="48.59344" lon="2.00842">
        <ele>91</ele>
        <time>2011-04-19T07:15:17.000Z</time>
      </trkpt>
      <trkpt lat="48.59342" lon="2.00845">
        <ele>90</ele>
        <time>2011-04-19T07:15:19.000Z</time>
      </trkpt>
      <trkpt lat="48.59339" lon="2.00852">
        <ele>89</ele>
        <time>2011-04-19T07:15:24.000Z</time>
      </trkpt>
      <trkpt lat="48.59337" lon="2.00855">
        <ele>89.599998474121</ele>
        <time>2011-04-19T07:15:26.000Z</time>
      </trkpt>
      <trkpt lat="48.59336" lon="2.00855">
        <ele>89.599998474121</ele>
        <time>2011-04-19T07:15:30.000Z</time>
      </trkpt>
      <trkpt lat="48.5933" lon="2.00853">
        <ele>93.800003051758</ele>
        <time>2011-04-19T07:15:50.000Z</time>
      </trkpt>
      <trkpt lat="48.59327" lon="2.00861">
        <ele>94.400001525879</ele>
        <time>2011-04-19T07:15:53.000Z</time>
      </trkpt>
      <trkpt lat="48.59323" lon="2.00877">
        <ele>95.800003051758</ele>
        <time>2011-04-19T07:16:02.000Z</time>
      </trkpt>
      <trkpt lat="48.59319" lon="2.00884">
        <ele>96.199996948242</ele>
        <time>2011-04-19T07:16:06.000Z</time>
      </trkpt>
      <trkpt lat="48.59319" lon="2.00886">
        <ele>96.199996948242</ele>
        <time>2011-04-19T07:16:07.000Z</time>
      </trkpt>
      <trkpt lat="48.59318" lon="2.0089">
        <ele>96.800003051758</ele>
        <time>2011-04-19T07:16:09.000Z</time>
      </trkpt>
      <trkpt lat="48.59314" lon="2.00896">
        <ele>94.800003051758</ele>
        <time>2011-04-19T07:16:14.000Z</time>
      </trkpt>
      <trkpt lat="48.59312" lon="2.009">
        <ele>93.800003051758</ele>
        <time>2011-04-19T07:16:17.000Z</time>
      </trkpt>
      <trkpt lat="48.59306" lon="2.00903">
        <ele>91</ele>
        <time>2011-04-19T07:16:22.000Z</time>
      </trkpt>
      <trkpt lat="48.59305" lon="2.00907">
        <ele>90</ele>
        <time>2011-04-19T07:16:25.000Z</time>
      </trkpt>
      <trkpt lat="48.59298" lon="2.00917">
        <ele>93</ele>
        <time>2011-04-19T07:16:32.000Z</time>
      </trkpt>
      <trkpt lat="48.59289" lon="2.00933">
        <ele>94.400001525879</ele>
        <time>2011-04-19T07:16:39.000Z</time>
      </trkpt>
      <trkpt lat="48.59284" lon="2.0094">
        <ele>93</ele>
        <time>2011-04-19T07:16:45.000Z</time>
      </trkpt>
      <trkpt lat="48.59275" lon="2.00949">
        <ele>93.400001525879</ele>
        <time>2011-04-19T07:16:53.000Z</time>
      </trkpt>
      <trkpt lat="48.59274" lon="2.0095">
        <ele>93</ele>
        <time>2011-04-19T07:16:54.000Z</time>
      </trkpt>
      <trkpt lat="48.59268" lon="2.00953">
        <ele>90.599998474121</ele>
        <time>2011-04-19T07:17:00.000Z</time>
      </trkpt>
      <trkpt lat="48.59264" lon="2.00956">
        <ele>90.599998474121</ele>
        <time>2011-04-19T07:17:04.000Z</time>
      </trkpt>
      <trkpt lat="48.59259" lon="2.00959">
        <ele>90</ele>
        <time>2011-04-19T07:17:08.000Z</time>
      </trkpt>
      <trkpt lat="48.59255" lon="2.00964">
        <ele>89</ele>
        <time>2011-04-19T07:17:14.000Z</time>
      </trkpt>
      <trkpt lat="48.59251" lon="2.00967">
        <ele>90.599998474121</ele>
        <time>2011-04-19T07:17:17.000Z</time>
      </trkpt>
      <trkpt lat="48.59247" lon="2.00971">
        <ele>90</ele>
        <time>2011-04-19T07:17:22.000Z</time>
      </trkpt>
      <trkpt lat="48.59241" lon="2.00979">
        <ele>93.400001525879</ele>
        <time>2011-04-19T07:17:27.000Z</time>
      </trkpt>
      <trkpt lat="48.59231" lon="2.00987">
        <ele>94.400001525879</ele>
        <time>2011-04-19T07:17:35.000Z</time>
      </trkpt>
      <trkpt lat="48.59226" lon="2.00989">
        <ele>93</ele>
        <time>2011-04-19T07:17:40.000Z</time>
      </trkpt>
      <trkpt lat="48.59223" lon="2.00989">
        <ele>91</ele>
        <time>2011-04-19T07:17:43.000Z</time>
      </trkpt>
      <trkpt lat="48.59218" lon="2.00992">
        <ele>89</ele>
        <time>2011-04-19T07:17:49.000Z</time>
      </trkpt>
      <trkpt lat="48.59215" lon="2.00994">
        <ele>89.599998474121</ele>
        <time>2011-04-19T07:17:51.000Z</time>
      </trkpt>
      <trkpt lat="48.59211" lon="2.00995">
        <ele>91.400001525879</ele>
        <time>2011-04-19T07:17:57.000Z</time>
      </trkpt>
      <trkpt lat="48.59184" lon="2.00993">
        <ele>90.599998474121</ele>
        <time>2011-04-19T07:18:28.000Z</time>
      </trkpt>
      <trkpt lat="48.59182" lon="2.00991">
        <ele>88.599998474121</ele>
        <time>2011-04-19T07:18:30.000Z</time>
      </trkpt>
      <trkpt lat="48.59176" lon="2.00991">
        <ele>86.199996948242</ele>
        <time>2011-04-19T07:18:35.000Z</time>
      </trkpt>
      <trkpt lat="48.59167" lon="2.0099">
        <ele>84.800003051758</ele>
        <time>2011-04-19T07:18:43.000Z</time>
      </trkpt>
      <trkpt lat="48.59155" lon="2.00987">
        <ele>87.199996948242</ele>
        <time>2011-04-19T07:18:53.000Z</time>
      </trkpt>
      <trkpt lat="48.59147" lon="2.00988">
        <ele>88.599998474121</ele>
        <time>2011-04-19T07:19:00.000Z</time>
      </trkpt>
      <trkpt lat="48.59144" lon="2.00987">
        <ele>88</ele>
        <time>2011-04-19T07:19:05.000Z</time>
      </trkpt>
      <trkpt lat="48.59138" lon="2.00989">
        <ele>91.400001525879</ele>
        <time>2011-04-19T07:19:24.000Z</time>
      </trkpt>
      <trkpt lat="48.59133" lon="2.00991">
        <ele>91</ele>
        <time>2011-04-19T07:19:28.000Z</time>
      </trkpt>
      <trkpt lat="48.59126" lon="2.00996">
        <ele>93.400001525879</ele>
        <time>2011-04-19T07:19:35.000Z</time>
      </trkpt>
      <trkpt lat="48.5912" lon="2.00992">
        <ele>93</ele>
        <time>2011-04-19T07:19:41.000Z</time>
      </trkpt>
      <trkpt lat="48.59117" lon="2.00991">
        <ele>92.400001525879</ele>
        <time>2011-04-19T07:19:43.000Z</time>
      </trkpt>
      <trkpt lat="48.59112" lon="2.00989">
        <ele>91.400001525879</ele>
        <time>2011-04-19T07:19:47.000Z</time>
      </trkpt>
      <trkpt lat="48.59103" lon="2.00994">
        <ele>91</ele>
        <time>2011-04-19T07:19:55.000Z</time>
      </trkpt>
      <trkpt lat="48.591" lon="2.00997">
        <ele>92</ele>
        <time>2011-04-19T07:19:58.000Z</time>
      </trkpt>
      <trkpt lat="48.59094" lon="2.01">
        <ele>93</ele>
        <time>2011-04-19T07:20:04.000Z</time>
      </trkpt>
      <trkpt lat="48.59093" lon="2.01002">
        <ele>94.400001525879</ele>
        <time>2011-04-19T07:20:05.000Z</time>
      </trkpt>
      <trkpt lat="48.59087" lon="2.01006">
        <ele>93</ele>
        <time>2011-04-19T07:20:13.000Z</time>
      </trkpt>
      <trkpt lat="48.59083" lon="2.0101">
        <ele>94.800003051758</ele>
        <time>2011-04-19T07:20:18.000Z</time>
      </trkpt>
      <trkpt lat="48.59079" lon="2.01012">
        <ele>96.800003051758</ele>
        <time>2011-04-19T07:20:22.000Z</time>
      </trkpt>
      <trkpt lat="48.59073" lon="2.01013">
        <ele>96.199996948242</ele>
        <time>2011-04-19T07:20:27.000Z</time>
      </trkpt>
      <trkpt lat="48.59069" lon="2.01012">
        <ele>94.400001525879</ele>
        <time>2011-04-19T07:20:30.000Z</time>
      </trkpt>
      <trkpt lat="48.59064" lon="2.01015">
        <ele>91.400001525879</ele>
        <time>2011-04-19T07:20:34.000Z</time>
      </trkpt>
      <trkpt lat="48.59055" lon="2.01021">
        <ele>93</ele>
        <time>2011-04-19T07:20:41.000Z</time>
      </trkpt>
      <trkpt lat="48.59053" lon="2.01021">
        <ele>93</ele>
        <time>2011-04-19T07:20:43.000Z</time>
      </trkpt>
      <trkpt lat="48.59048" lon="2.01021">
        <ele>93</ele>
        <time>2011-04-19T07:20:46.000Z</time>
      </trkpt>
      <trkpt lat="48.59043" lon="2.01025">
        <ele>94.400001525879</ele>
        <time>2011-04-19T07:20:52.000Z</time>
      </trkpt>
      <trkpt lat="48.59035" lon="2.0103">
        <ele>97.800003051758</ele>
        <time>2011-04-19T07:20:59.000Z</time>
      </trkpt>
      <trkpt lat="48.59029" lon="2.01033">
        <ele>95.800003051758</ele>
        <time>2011-04-19T07:21:05.000Z</time>
      </trkpt>
      <trkpt lat="48.59026" lon="2.01035">
        <ele>96.199996948242</ele>
        <time>2011-04-19T07:21:07.000Z</time>
      </trkpt>
      <trkpt lat="48.59017" lon="2.01038">
        <ele>98.199996948242</ele>
        <time>2011-04-19T07:21:14.000Z</time>
      </trkpt>
      <trkpt lat="48.59014" lon="2.01038">
        <ele>98.599998474121</ele>
        <time>2011-04-19T07:21:16.000Z</time>
      </trkpt>
      <trkpt lat="48.59006" lon="2.01042">
        <ele>100.59999847412</ele>
        <time>2011-04-19T07:21:22.000Z</time>
      </trkpt>
      <trkpt lat="48.59004" lon="2.01043">
        <ele>99.599998474121</ele>
        <time>2011-04-19T07:21:24.000Z</time>
      </trkpt>
      <trkpt lat="48.58999" lon="2.01046">
        <ele>100.59999847412</ele>
        <time>2011-04-19T07:21:29.000Z</time>
      </trkpt>
      <trkpt lat="48.58997" lon="2.01047">
        <ele>98.599998474121</ele>
        <time>2011-04-19T07:21:32.000Z</time>
      </trkpt>
      <trkpt lat="48.58989" lon="2.01047">
        <ele>98.599998474121</ele>
        <time>2011-04-19T07:21:38.000Z</time>
      </trkpt>
      <trkpt lat="48.58984" lon="2.01045">
        <ele>97.800003051758</ele>
        <time>2011-04-19T07:21:42.000Z</time>
      </trkpt>
      <trkpt lat="48.58981" lon="2.01045">
        <ele>97.199996948242</ele>
        <time>2011-04-19T07:21:44.000Z</time>
      </trkpt>
      <trkpt lat="48.58976" lon="2.01042">
        <ele>95.400001525879</ele>
        <time>2011-04-19T07:21:48.000Z</time>
      </trkpt>
      <trkpt lat="48.58973" lon="2.0104">
        <ele>93.800003051758</ele>
        <time>2011-04-19T07:21:54.000Z</time>
      </trkpt>
      <trkpt lat="48.58963" lon="2.01033">
        <ele>90.599998474121</ele>
        <time>2011-04-19T07:22:39.000Z</time>
      </trkpt>
      <trkpt lat="48.58955" lon="2.01032">
        <ele>91</ele>
        <time>2011-04-19T07:22:44.000Z</time>
      </trkpt>
      <trkpt lat="48.58948" lon="2.01027">
        <ele>91.400001525879</ele>
        <time>2011-04-19T07:22:49.000Z</time>
      </trkpt>
      <trkpt lat="48.58943" lon="2.01025">
        <ele>90.599998474121</ele>
        <time>2011-04-19T07:22:54.000Z</time>
      </trkpt>
      <trkpt lat="48.58939" lon="2.01023">
        <ele>92.400001525879</ele>
        <time>2011-04-19T07:23:00.000Z</time>
      </trkpt>
      <trkpt lat="48.58934" lon="2.01022">
        <ele>92.400001525879</ele>
        <time>2011-04-19T07:23:04.000Z</time>
      </trkpt>
      <trkpt lat="48.5893" lon="2.01019">
        <ele>92</ele>
        <time>2011-04-19T07:23:08.000Z</time>
      </trkpt>
      <trkpt lat="48.58927" lon="2.01018">
        <ele>92</ele>
        <time>2011-04-19T07:23:11.000Z</time>
      </trkpt>
      <trkpt lat="48.58922" lon="2.01017">
        <ele>91</ele>
        <time>2011-04-19T07:23:16.000Z</time>
      </trkpt>
      <trkpt lat="48.58917" lon="2.01017">
        <ele>91</ele>
        <time>2011-04-19T07:23:20.000Z</time>
      </trkpt>
      <trkpt lat="48.58915" lon="2.01015">
        <ele>91</ele>
        <time>2011-04-19T07:23:23.000Z</time>
      </trkpt>
      <trkpt lat="48.5891" lon="2.01015">
        <ele>91</ele>
        <time>2011-04-19T07:23:29.000Z</time>
      </trkpt>
      <trkpt lat="48.58905" lon="2.01011">
        <ele>90.599998474121</ele>
        <time>2011-04-19T07:23:35.000Z</time>
      </trkpt>
      <trkpt lat="48.58901" lon="2.01011">
        <ele>90.599998474121</ele>
        <time>2011-04-19T07:23:38.000Z</time>
      </trkpt>
      <trkpt lat="48.589" lon="2.01008">
        <ele>90</ele>
        <time>2011-04-19T07:23:42.000Z</time>
      </trkpt>
      <trkpt lat="48.58885" lon="2.01003">
        <ele>94.800003051758</ele>
        <time>2011-04-19T07:24:42.000Z</time>
      </trkpt>
      <trkpt lat="48.58882" lon="2.01001">
        <ele>95.400001525879</ele>
        <time>2011-04-19T07:24:44.000Z</time>
      </trkpt>
      <trkpt lat="48.58871" lon="2.01001">
        <ele>97.199996948242</ele>
        <time>2011-04-19T07:24:53.000Z</time>
      </trkpt>
      <trkpt lat="48.58868" lon="2.01002">
        <ele>96.199996948242</ele>
        <time>2011-04-19T07:24:56.000Z</time>
      </trkpt>
      <trkpt lat="48.58862" lon="2.01002">
        <ele>95.800003051758</ele>
        <time>2011-04-19T07:25:01.000Z</time>
      </trkpt>
      <trkpt lat="48.5886" lon="2.01002">
        <ele>96.199996948242</ele>
        <time>2011-04-19T07:25:03.000Z</time>
      </trkpt>
      <trkpt lat="48.58855" lon="2.01003">
        <ele>96.199996948242</ele>
        <time>2011-04-19T07:25:07.000Z</time>
      </trkpt>
      <trkpt lat="48.58846" lon="2.01008">
        <ele>97.199996948242</ele>
        <time>2011-04-19T07:25:14.000Z</time>
      </trkpt>
      <trkpt lat="48.58839" lon="2.01009">
        <ele>95.400001525879</ele>
        <time>2011-04-19T07:25:20.000Z</time>
      </trkpt>
      <trkpt lat="48.58835" lon="2.0101">
        <ele>95.800003051758</ele>
        <time>2011-04-19T07:25:24.000Z</time>
      </trkpt>
      <trkpt lat="48.58828" lon="2.01015">
        <ele>94.800003051758</ele>
        <time>2011-04-19T07:25:32.000Z</time>
      </trkpt>
      <trkpt lat="48.58826" lon="2.01016">
        <ele>94.800003051758</ele>
        <time>2011-04-19T07:25:34.000Z</time>
      </trkpt>
      <trkpt lat="48.58818" lon="2.01023">
        <ele>94.800003051758</ele>
        <time>2011-04-19T07:25:43.000Z</time>
      </trkpt>
      <trkpt lat="48.5881" lon="2.01027">
        <ele>93.400001525879</ele>
        <time>2011-04-19T07:25:51.000Z</time>
      </trkpt>
      <trkpt lat="48.58802" lon="2.01032">
        <ele>93.800003051758</ele>
        <time>2011-04-19T07:25:58.000Z</time>
      </trkpt>
      <trkpt lat="48.58801" lon="2.01032">
        <ele>93.800003051758</ele>
        <time>2011-04-19T07:25:59.000Z</time>
      </trkpt>
      <trkpt lat="48.58798" lon="2.01036">
        <ele>94.400001525879</ele>
        <time>2011-04-19T07:26:04.000Z</time>
      </trkpt>
      <trkpt lat="48.58792" lon="2.01041">
        <ele>94.400001525879</ele>
        <time>2011-04-19T07:26:10.000Z</time>
      </trkpt>
      <trkpt lat="48.58789" lon="2.01042">
        <ele>93.400001525879</ele>
        <time>2011-04-19T07:26:14.000Z</time>
      </trkpt>
      <trkpt lat="48.58786" lon="2.01043">
        <ele>93.400001525879</ele>
        <time>2011-04-19T07:26:16.000Z</time>
      </trkpt>
      <trkpt lat="48.58781" lon="2.01046">
        <ele>91.400001525879</ele>
        <time>2011-04-19T07:26:20.000Z</time>
      </trkpt>
      <trkpt lat="48.58775" lon="2.01049">
        <ele>90.599998474121</ele>
        <time>2011-04-19T07:26:25.000Z</time>
      </trkpt>
      <trkpt lat="48.5877" lon="2.01053">
        <ele>90.599998474121</ele>
        <time>2011-04-19T07:26:29.000Z</time>
      </trkpt>
      <trkpt lat="48.58765" lon="2.01058">
        <ele>90.599998474121</ele>
        <time>2011-04-19T07:26:34.000Z</time>
      </trkpt>
      <trkpt lat="48.58764" lon="2.01059">
        <ele>90.599998474121</ele>
        <time>2011-04-19T07:26:35.000Z</time>
      </trkpt>
      <trkpt lat="48.58757" lon="2.01064">
        <ele>89</ele>
        <time>2011-04-19T07:26:40.000Z</time>
      </trkpt>
      <trkpt lat="48.5875" lon="2.0107">
        <ele>89.599998474121</ele>
        <time>2011-04-19T07:26:46.000Z</time>
      </trkpt>
      <trkpt lat="48.58749" lon="2.01071">
        <ele>89.599998474121</ele>
        <time>2011-04-19T07:26:47.000Z</time>
      </trkpt>
      <trkpt lat="48.58745" lon="2.01074">
        <ele>90</ele>
        <time>2011-04-19T07:26:51.000Z</time>
      </trkpt>
      <trkpt lat="48.58736" lon="2.0108">
        <ele>89.599998474121</ele>
        <time>2011-04-19T07:27:01.000Z</time>
      </trkpt>
      <trkpt lat="48.58736" lon="2.01081">
        <ele>89.599998474121</ele>
        <time>2011-04-19T07:27:02.000Z</time>
      </trkpt>
      <trkpt lat="48.58732" lon="2.01085">
        <ele>89.599998474121</ele>
        <time>2011-04-19T07:27:06.000Z</time>
      </trkpt>
      <trkpt lat="48.58722" lon="2.01094">
        <ele>88</ele>
        <time>2011-04-19T07:27:16.000Z</time>
      </trkpt>
      <trkpt lat="48.58721" lon="2.01097">
        <ele>88.599998474121</ele>
        <time>2011-04-19T07:27:18.000Z</time>
      </trkpt>
      <trkpt lat="48.58717" lon="2.01101">
        <ele>89</ele>
        <time>2011-04-19T07:27:23.000Z</time>
      </trkpt>
      <trkpt lat="48.5871" lon="2.01112">
        <ele>89.599998474121</ele>
        <time>2011-04-19T07:27:31.000Z</time>
      </trkpt>
      <trkpt lat="48.58709" lon="2.01112">
        <ele>89</ele>
        <time>2011-04-19T07:27:32.000Z</time>
      </trkpt>
      <trkpt lat="48.58705" lon="2.01117">
        <ele>88</ele>
        <time>2011-04-19T07:27:38.000Z</time>
      </trkpt>
      <trkpt lat="48.587" lon="2.0112">
        <ele>86.599998474121</ele>
        <time>2011-04-19T07:27:42.000Z</time>
      </trkpt>
      <trkpt lat="48.58694" lon="2.01127">
        <ele>84.800003051758</ele>
        <time>2011-04-19T07:27:48.000Z</time>
      </trkpt>
      <trkpt lat="48.58693" lon="2.01127">
        <ele>84.800003051758</ele>
        <time>2011-04-19T07:27:49.000Z</time>
      </trkpt>
      <trkpt lat="48.58686" lon="2.01126">
        <ele>86.599998474121</ele>
        <time>2011-04-19T07:27:54.000Z</time>
      </trkpt>
      <trkpt lat="48.58681" lon="2.0112">
        <ele>88</ele>
        <time>2011-04-19T07:27:59.000Z</time>
      </trkpt>
      <trkpt lat="48.58675" lon="2.01113">
        <ele>89</ele>
        <time>2011-04-19T07:28:05.000Z</time>
      </trkpt>
      <trkpt lat="48.58668" lon="2.01108">
        <ele>91</ele>
        <time>2011-04-19T07:28:11.000Z</time>
      </trkpt>
      <trkpt lat="48.58658" lon="2.01102">
        <ele>91</ele>
        <time>2011-04-19T07:28:19.000Z</time>
      </trkpt>
      <trkpt lat="48.58652" lon="2.01097">
        <ele>91</ele>
        <time>2011-04-19T07:28:24.000Z</time>
      </trkpt>
      <trkpt lat="48.58645" lon="2.01089">
        <ele>91.400001525879</ele>
        <time>2011-04-19T07:28:31.000Z</time>
      </trkpt>
      <trkpt lat="48.58636" lon="2.01077">
        <ele>90.599998474121</ele>
        <time>2011-04-19T07:28:41.000Z</time>
      </trkpt>
      <trkpt lat="48.58629" lon="2.01069">
        <ele>93.800003051758</ele>
        <time>2011-04-19T07:28:47.000Z</time>
      </trkpt>
      <trkpt lat="48.58623" lon="2.01061">
        <ele>93</ele>
        <time>2011-04-19T07:28:54.000Z</time>
      </trkpt>
      <trkpt lat="48.58614" lon="2.01056">
        <ele>95.800003051758</ele>
        <time>2011-04-19T07:29:01.000Z</time>
      </trkpt>
      <trkpt lat="48.5861" lon="2.0105">
        <ele>96.199996948242</ele>
        <time>2011-04-19T07:29:06.000Z</time>
      </trkpt>
      <trkpt lat="48.58604" lon="2.01044">
        <ele>95.800003051758</ele>
        <time>2011-04-19T07:29:12.000Z</time>
      </trkpt>
      <trkpt lat="48.58598" lon="2.01039">
        <ele>94.800003051758</ele>
        <time>2011-04-19T07:29:17.000Z</time>
      </trkpt>
      <trkpt lat="48.58594" lon="2.01033">
        <ele>94.400001525879</ele>
        <time>2011-04-19T07:29:22.000Z</time>
      </trkpt>
      <trkpt lat="48.58591" lon="2.01028">
        <ele>92.400001525879</ele>
        <time>2011-04-19T07:29:26.000Z</time>
      </trkpt>
      <trkpt lat="48.58586" lon="2.01021">
        <ele>90.599998474121</ele>
        <time>2011-04-19T07:29:31.000Z</time>
      </trkpt>
      <trkpt lat="48.58585" lon="2.01018">
        <ele>89</ele>
        <time>2011-04-19T07:29:33.000Z</time>
      </trkpt>
      <trkpt lat="48.58581" lon="2.01014">
        <ele>88.599998474121</ele>
        <time>2011-04-19T07:29:37.000Z</time>
      </trkpt>
      <trkpt lat="48.58576" lon="2.01006">
        <ele>86.599998474121</ele>
        <time>2011-04-19T07:29:43.000Z</time>
      </trkpt>
      <trkpt lat="48.58571" lon="2.01001">
        <ele>85.199996948242</ele>
        <time>2011-04-19T07:29:48.000Z</time>
      </trkpt>
      <trkpt lat="48.58566" lon="2.00995">
        <ele>87.199996948242</ele>
        <time>2011-04-19T07:29:52.000Z</time>
      </trkpt>
      <trkpt lat="48.58561" lon="2.0099">
        <ele>90</ele>
        <time>2011-04-19T07:29:57.000Z</time>
      </trkpt>
      <trkpt lat="48.58559" lon="2.00988">
        <ele>91</ele>
        <time>2011-04-19T07:29:59.000Z</time>
      </trkpt>
      <trkpt lat="48.58553" lon="2.00982">
        <ele>94.400001525879</ele>
        <time>2011-04-19T07:30:04.000Z</time>
      </trkpt>
      <trkpt lat="48.58546" lon="2.00974">
        <ele>95.400001525879</ele>
        <time>2011-04-19T07:30:11.000Z</time>
      </trkpt>
      <trkpt lat="48.58543" lon="2.00972">
        <ele>94.800003051758</ele>
        <time>2011-04-19T07:30:14.000Z</time>
      </trkpt>
      <trkpt lat="48.58537" lon="2.00964">
        <ele>89</ele>
        <time>2011-04-19T07:30:21.000Z</time>
      </trkpt>
      <trkpt lat="48.58531" lon="2.00958">
        <ele>86.599998474121</ele>
        <time>2011-04-19T07:30:26.000Z</time>
      </trkpt>
      <trkpt lat="48.58528" lon="2.00955">
        <ele>88</ele>
        <time>2011-04-19T07:30:29.000Z</time>
      </trkpt>
      <trkpt lat="48.58522" lon="2.00947">
        <ele>89.599998474121</ele>
        <time>2011-04-19T07:30:35.000Z</time>
      </trkpt>
      <trkpt lat="48.58515" lon="2.0094">
        <ele>90.599998474121</ele>
        <time>2011-04-19T07:30:41.000Z</time>
      </trkpt>
      <trkpt lat="48.58509" lon="2.00934">
        <ele>93.800003051758</ele>
        <time>2011-04-19T07:30:46.000Z</time>
      </trkpt>
      <trkpt lat="48.58502" lon="2.00927">
        <ele>95.400001525879</ele>
        <time>2011-04-19T07:30:53.000Z</time>
      </trkpt>
      <trkpt lat="48.58501" lon="2.00927">
        <ele>95.800003051758</ele>
        <time>2011-04-19T07:30:54.000Z</time>
      </trkpt>
      <trkpt lat="48.58497" lon="2.00922">
        <ele>95.400001525879</ele>
        <time>2011-04-19T07:30:58.000Z</time>
      </trkpt>
      <trkpt lat="48.58494" lon="2.00916">
        <ele>93.800003051758</ele>
        <time>2011-04-19T07:31:02.000Z</time>
      </trkpt>
      <trkpt lat="48.58488" lon="2.00909">
        <ele>94.400001525879</ele>
        <time>2011-04-19T07:31:09.000Z</time>
      </trkpt>
      <trkpt lat="48.58483" lon="2.00904">
        <ele>95.800003051758</ele>
        <time>2011-04-19T07:31:14.000Z</time>
      </trkpt>
      <trkpt lat="48.58478" lon="2.00895">
        <ele>93</ele>
        <time>2011-04-19T07:31:20.000Z</time>
      </trkpt>
      <trkpt lat="48.58475" lon="2.00892">
        <ele>92.400001525879</ele>
        <time>2011-04-19T07:31:23.000Z</time>
      </trkpt>
      <trkpt lat="48.5847" lon="2.00887">
        <ele>91.400001525879</ele>
        <time>2011-04-19T07:31:28.000Z</time>
      </trkpt>
      <trkpt lat="48.58465" lon="2.00881">
        <ele>89.599998474121</ele>
        <time>2011-04-19T07:31:33.000Z</time>
      </trkpt>
      <trkpt lat="48.58463" lon="2.00878">
        <ele>88.599998474121</ele>
        <time>2011-04-19T07:31:35.000Z</time>
      </trkpt>
      <trkpt lat="48.58457" lon="2.0087">
        <ele>88.599998474121</ele>
        <time>2011-04-19T07:31:40.000Z</time>
      </trkpt>
      <trkpt lat="48.58453" lon="2.00864">
        <ele>89</ele>
        <time>2011-04-19T07:31:44.000Z</time>
      </trkpt>
      <trkpt lat="48.5845" lon="2.0086">
        <ele>89.599998474121</ele>
        <time>2011-04-19T07:31:47.000Z</time>
      </trkpt>
      <trkpt lat="48.58448" lon="2.00858">
        <ele>88.599998474121</ele>
        <time>2011-04-19T07:31:50.000Z</time>
      </trkpt>
      <trkpt lat="48.58443" lon="2.00849">
        <ele>87.199996948242</ele>
        <time>2011-04-19T07:31:56.000Z</time>
      </trkpt>
      <trkpt lat="48.58439" lon="2.00843">
        <ele>89</ele>
        <time>2011-04-19T07:32:00.000Z</time>
      </trkpt>
      <trkpt lat="48.58434" lon="2.00836">
        <ele>90.599998474121</ele>
        <time>2011-04-19T07:32:05.000Z</time>
      </trkpt>
      <trkpt lat="48.5843" lon="2.0083">
        <ele>90</ele>
        <time>2011-04-19T07:32:10.000Z</time>
      </trkpt>
      <trkpt lat="48.58424" lon="2.00821">
        <ele>92</ele>
        <time>2011-04-19T07:32:17.000Z</time>
      </trkpt>
      <trkpt lat="48.58418" lon="2.0081">
        <ele>93.400001525879</ele>
        <time>2011-04-19T07:32:24.000Z</time>
      </trkpt>
      <trkpt lat="48.58413" lon="2.00801">
        <ele>94.800003051758</ele>
        <time>2011-04-19T07:32:30.000Z</time>
      </trkpt>
      <trkpt lat="48.58411" lon="2.00798">
        <ele>96.199996948242</ele>
        <time>2011-04-19T07:32:32.000Z</time>
      </trkpt>
      <trkpt lat="48.58405" lon="2.00786">
        <ele>97.199996948242</ele>
        <time>2011-04-19T07:32:39.000Z</time>
      </trkpt>
      <trkpt lat="48.58402" lon="2.0078">
        <ele>97.800003051758</ele>
        <time>2011-04-19T07:32:44.000Z</time>
      </trkpt>
      <trkpt lat="48.584" lon="2.00777">
        <ele>98.199996948242</ele>
        <time>2011-04-19T07:32:46.000Z</time>
      </trkpt>
      <trkpt lat="48.58398" lon="2.00774">
        <ele>99.199996948242</ele>
        <time>2011-04-19T07:32:49.000Z</time>
      </trkpt>
      <trkpt lat="48.58394" lon="2.00767">
        <ele>101</ele>
        <time>2011-04-19T07:32:54.000Z</time>
      </trkpt>
      <trkpt lat="48.58389" lon="2.00758">
        <ele>100.19999694824</ele>
        <time>2011-04-19T07:33:00.000Z</time>
      </trkpt>
      <trkpt lat="48.58386" lon="2.00746">
        <ele>96.800003051758</ele>
        <time>2011-04-19T07:33:07.000Z</time>
      </trkpt>
      <trkpt lat="48.58382" lon="2.00738">
        <ele>95.800003051758</ele>
        <time>2011-04-19T07:33:12.000Z</time>
      </trkpt>
      <trkpt lat="48.58382" lon="2.00737">
        <ele>95.400001525879</ele>
        <time>2011-04-19T07:33:13.000Z</time>
      </trkpt>
      <trkpt lat="48.58375" lon="2.00725">
        <ele>91</ele>
        <time>2011-04-19T07:33:22.000Z</time>
      </trkpt>
      <trkpt lat="48.5837" lon="2.00715">
        <ele>91.400001525879</ele>
        <time>2011-04-19T07:33:28.000Z</time>
      </trkpt>
      <trkpt lat="48.58366" lon="2.0071">
        <ele>92.400001525879</ele>
        <time>2011-04-19T07:33:32.000Z</time>
      </trkpt>
      <trkpt lat="48.58361" lon="2.00701">
        <ele>92</ele>
        <time>2011-04-19T07:33:38.000Z</time>
      </trkpt>
      <trkpt lat="48.58357" lon="2.00694">
        <ele>96.800003051758</ele>
        <time>2011-04-19T07:33:43.000Z</time>
      </trkpt>
      <trkpt lat="48.58355" lon="2.0069">
        <ele>97.800003051758</ele>
        <time>2011-04-19T07:33:45.000Z</time>
      </trkpt>
      <trkpt lat="48.58347" lon="2.00681">
        <ele>99.599998474121</ele>
        <time>2011-04-19T07:33:51.000Z</time>
      </trkpt>
      <trkpt lat="48.58345" lon="2.00674">
        <ele>98.599998474121</ele>
        <time>2011-04-19T07:33:55.000Z</time>
      </trkpt>
      <trkpt lat="48.58338" lon="2.00665">
        <ele>97.800003051758</ele>
        <time>2011-04-19T07:34:02.000Z</time>
      </trkpt>
      <trkpt lat="48.58331" lon="2.00657">
        <ele>95.400001525879</ele>
        <time>2011-04-19T07:34:09.000Z</time>
      </trkpt>
      <trkpt lat="48.58326" lon="2.00648">
        <ele>97.199996948242</ele>
        <time>2011-04-19T07:34:15.000Z</time>
      </trkpt>
      <trkpt lat="48.58322" lon="2.00644">
        <ele>97.800003051758</ele>
        <time>2011-04-19T07:34:18.000Z</time>
      </trkpt>
      <trkpt lat="48.58319" lon="2.0064">
        <ele>97.800003051758</ele>
        <time>2011-04-19T07:34:21.000Z</time>
      </trkpt>
      <trkpt lat="48.58313" lon="2.00633">
        <ele>98.599998474121</ele>
        <time>2011-04-19T07:34:28.000Z</time>
      </trkpt>
      <trkpt lat="48.58305" lon="2.00621">
        <ele>97.800003051758</ele>
        <time>2011-04-19T07:34:36.000Z</time>
      </trkpt>
      <trkpt lat="48.58299" lon="2.0061">
        <ele>98.599998474121</ele>
        <time>2011-04-19T07:34:43.000Z</time>
      </trkpt>
      <trkpt lat="48.58291" lon="2.00602">
        <ele>98.199996948242</ele>
        <time>2011-04-19T07:34:50.000Z</time>
      </trkpt>
      <trkpt lat="48.5829" lon="2.00602">
        <ele>98.599998474121</ele>
        <time>2011-04-19T07:34:51.000Z</time>
      </trkpt>
      <trkpt lat="48.58284" lon="2.0059">
        <ele>96.800003051758</ele>
        <time>2011-04-19T07:34:59.000Z</time>
      </trkpt>
      <trkpt lat="48.5828" lon="2.00586">
        <ele>97.199996948242</ele>
        <time>2011-04-19T07:35:04.000Z</time>
      </trkpt>
      <trkpt lat="48.58276" lon="2.00579">
        <ele>95.800003051758</ele>
        <time>2011-04-19T07:35:10.000Z</time>
      </trkpt>
      <trkpt lat="48.58273" lon="2.00575">
        <ele>96.199996948242</ele>
        <time>2011-04-19T07:35:13.000Z</time>
      </trkpt>
      <trkpt lat="48.58268" lon="2.00569">
        <ele>96.800003051758</ele>
        <time>2011-04-19T07:35:17.000Z</time>
      </trkpt>
      <trkpt lat="48.58259" lon="2.00558">
        <ele>100.19999694824</ele>
        <time>2011-04-19T07:35:25.000Z</time>
      </trkpt>
      <trkpt lat="48.58251" lon="2.00549">
        <ele>105</ele>
        <time>2011-04-19T07:35:33.000Z</time>
      </trkpt>
      <trkpt lat="48.58248" lon="2.00544">
        <ele>105.40000152588</ele>
        <time>2011-04-19T07:35:36.000Z</time>
      </trkpt>
      <trkpt lat="48.58239" lon="2.00532">
        <ele>105.80000305176</ele>
        <time>2011-04-19T07:35:45.000Z</time>
      </trkpt>
      <trkpt lat="48.58237" lon="2.0053">
        <ele>105.80000305176</ele>
        <time>2011-04-19T07:35:47.000Z</time>
      </trkpt>
      <trkpt lat="48.58235" lon="2.00526">
        <ele>104</ele>
        <time>2011-04-19T07:35:51.000Z</time>
      </trkpt>
      <trkpt lat="48.5823" lon="2.0052">
        <ele>102</ele>
        <time>2011-04-19T07:35:56.000Z</time>
      </trkpt>
      <trkpt lat="48.58225" lon="2.00513">
        <ele>98.599998474121</ele>
        <time>2011-04-19T07:36:02.000Z</time>
      </trkpt>
      <trkpt lat="48.58225" lon="2.00512">
        <ele>98.199996948242</ele>
        <time>2011-04-19T07:36:03.000Z</time>
      </trkpt>
      <trkpt lat="48.58222" lon="2.00508">
        <ele>97.199996948242</ele>
        <time>2011-04-19T07:36:07.000Z</time>
      </trkpt>
      <trkpt lat="48.58218" lon="2.00501">
        <ele>97.800003051758</ele>
        <time>2011-04-19T07:36:12.000Z</time>
      </trkpt>
      <trkpt lat="48.58213" lon="2.00493">
        <ele>97.800003051758</ele>
        <time>2011-04-19T07:36:18.000Z</time>
      </trkpt>
      <trkpt lat="48.58206" lon="2.00482">
        <ele>97.800003051758</ele>
        <time>2011-04-19T07:36:26.000Z</time>
      </trkpt>
      <trkpt lat="48.58198" lon="2.00472">
        <ele>100.59999847412</ele>
        <time>2011-04-19T07:36:34.000Z</time>
      </trkpt>
      <trkpt lat="48.5819" lon="2.00463">
        <ele>103.40000152588</ele>
        <time>2011-04-19T07:36:42.000Z</time>
      </trkpt>
      <trkpt lat="48.58183" lon="2.00452">
        <ele>102</ele>
        <time>2011-04-19T07:36:50.000Z</time>
      </trkpt>
      <trkpt lat="48.58177" lon="2.00444">
        <ele>102.59999847412</ele>
        <time>2011-04-19T07:36:55.000Z</time>
      </trkpt>
      <trkpt lat="48.58172" lon="2.00437">
        <ele>103</ele>
        <time>2011-04-19T07:37:00.000Z</time>
      </trkpt>
      <trkpt lat="48.58164" lon="2.00429">
        <ele>107.40000152588</ele>
        <time>2011-04-19T07:37:09.000Z</time>
      </trkpt>
      <trkpt lat="48.58154" lon="2.00422">
        <ele>111.59999847412</ele>
        <time>2011-04-19T07:37:18.000Z</time>
      </trkpt>
      <trkpt lat="48.58152" lon="2.00419">
        <ele>112.19999694824</ele>
        <time>2011-04-19T07:37:20.000Z</time>
      </trkpt>
      <trkpt lat="48.58145" lon="2.00407">
        <ele>109.80000305176</ele>
        <time>2011-04-19T07:37:28.000Z</time>
      </trkpt>
      <trkpt lat="48.58143" lon="2.00404">
        <ele>108.80000305176</ele>
        <time>2011-04-19T07:37:30.000Z</time>
      </trkpt>
      <trkpt lat="48.5814" lon="2.00401">
        <ele>108.80000305176</ele>
        <time>2011-04-19T07:37:33.000Z</time>
      </trkpt>
      <trkpt lat="48.58135" lon="2.00395">
        <ele>107.40000152588</ele>
        <time>2011-04-19T07:37:38.000Z</time>
      </trkpt>
      <trkpt lat="48.58135" lon="2.00392">
        <ele>104.40000152588</ele>
        <time>2011-04-19T07:37:40.000Z</time>
      </trkpt>
      <trkpt lat="48.5813" lon="2.00384">
        <ele>106.80000305176</ele>
        <time>2011-04-19T07:37:46.000Z</time>
      </trkpt>
      <trkpt lat="48.58124" lon="2.00374">
        <ele>107.80000305176</ele>
        <time>2011-04-19T07:37:52.000Z</time>
      </trkpt>
      <trkpt lat="48.58121" lon="2.00369">
        <ele>107.40000152588</ele>
        <time>2011-04-19T07:37:56.000Z</time>
      </trkpt>
      <trkpt lat="48.58116" lon="2.00361">
        <ele>106.40000152588</ele>
        <time>2011-04-19T07:38:01.000Z</time>
      </trkpt>
      <trkpt lat="48.5811" lon="2.0035">
        <ele>105</ele>
        <time>2011-04-19T07:38:08.000Z</time>
      </trkpt>
      <trkpt lat="48.58106" lon="2.00342">
        <ele>104</ele>
        <time>2011-04-19T07:38:14.000Z</time>
      </trkpt>
      <trkpt lat="48.58099" lon="2.0033">
        <ele>105</ele>
        <time>2011-04-19T07:38:22.000Z</time>
      </trkpt>
      <trkpt lat="48.58096" lon="2.00327">
        <ele>105</ele>
        <time>2011-04-19T07:38:25.000Z</time>
      </trkpt>
      <trkpt lat="48.58092" lon="2.0032">
        <ele>106.40000152588</ele>
        <time>2011-04-19T07:38:30.000Z</time>
      </trkpt>
      <trkpt lat="48.58086" lon="2.00306">
        <ele>105.80000305176</ele>
        <time>2011-04-19T07:38:39.000Z</time>
      </trkpt>
      <trkpt lat="48.58083" lon="2.00302">
        <ele>107.40000152588</ele>
        <time>2011-04-19T07:38:42.000Z</time>
      </trkpt>
      <trkpt lat="48.58075" lon="2.00289">
        <ele>107.80000305176</ele>
        <time>2011-04-19T07:38:50.000Z</time>
      </trkpt>
      <trkpt lat="48.58074" lon="2.00288">
        <ele>108.80000305176</ele>
        <time>2011-04-19T07:38:51.000Z</time>
      </trkpt>
      <trkpt lat="48.58069" lon="2.00276">
        <ele>108.80000305176</ele>
        <time>2011-04-19T07:38:58.000Z</time>
      </trkpt>
      <trkpt lat="48.58068" lon="2.00273">
        <ele>107.80000305176</ele>
        <time>2011-04-19T07:39:00.000Z</time>
      </trkpt>
      <trkpt lat="48.5806" lon="2.00257">
        <ele>104</ele>
        <time>2011-04-19T07:39:09.000Z</time>
      </trkpt>
      <trkpt lat="48.58054" lon="2.00247">
        <ele>102.59999847412</ele>
        <time>2011-04-19T07:39:15.000Z</time>
      </trkpt>
      <trkpt lat="48.58052" lon="2.00242">
        <ele>102</ele>
        <time>2011-04-19T07:39:18.000Z</time>
      </trkpt>
      <trkpt lat="48.58044" lon="2.00232">
        <ele>105</ele>
        <time>2011-04-19T07:39:26.000Z</time>
      </trkpt>
      <trkpt lat="48.5804" lon="2.00227">
        <ele>106.80000305176</ele>
        <time>2011-04-19T07:39:30.000Z</time>
      </trkpt>
      <trkpt lat="48.58037" lon="2.00221">
        <ele>106.40000152588</ele>
        <time>2011-04-19T07:39:35.000Z</time>
      </trkpt>
      <trkpt lat="48.58037" lon="2.00219">
        <ele>105.80000305176</ele>
        <time>2011-04-19T07:39:36.000Z</time>
      </trkpt>
      <trkpt lat="48.58033" lon="2.00209">
        <ele>104</ele>
        <time>2011-04-19T07:39:42.000Z</time>
      </trkpt>
      <trkpt lat="48.58029" lon="2.00204">
        <ele>104.40000152588</ele>
        <time>2011-04-19T07:39:46.000Z</time>
      </trkpt>
      <trkpt lat="48.58023" lon="2.00193">
        <ele>104</ele>
        <time>2011-04-19T07:39:53.000Z</time>
      </trkpt>
      <trkpt lat="48.58021" lon="2.00187">
        <ele>102.59999847412</ele>
        <time>2011-04-19T07:39:57.000Z</time>
      </trkpt>
      <trkpt lat="48.58013" lon="2.00175">
        <ele>98.599998474121</ele>
        <time>2011-04-19T07:40:06.000Z</time>
      </trkpt>
      <trkpt lat="48.58008" lon="2.00167">
        <ele>97.800003051758</ele>
        <time>2011-04-19T07:40:11.000Z</time>
      </trkpt>
      <trkpt lat="48.58006" lon="2.00162">
        <ele>96.800003051758</ele>
        <time>2011-04-19T07:40:15.000Z</time>
      </trkpt>
      <trkpt lat="48.58" lon="2.0015">
        <ele>96.199996948242</ele>
        <time>2011-04-19T07:40:22.000Z</time>
      </trkpt>
      <trkpt lat="48.57997" lon="2.00143">
        <ele>95.800003051758</ele>
        <time>2011-04-19T07:40:26.000Z</time>
      </trkpt>
      <trkpt lat="48.57993" lon="2.00135">
        <ele>94.400001525879</ele>
        <time>2011-04-19T07:40:32.000Z</time>
      </trkpt>
      <trkpt lat="48.57991" lon="2.00132">
        <ele>94.400001525879</ele>
        <time>2011-04-19T07:40:34.000Z</time>
      </trkpt>
      <trkpt lat="48.57986" lon="2.00122">
        <ele>95.800003051758</ele>
        <time>2011-04-19T07:40:41.000Z</time>
      </trkpt>
      <trkpt lat="48.57984" lon="2.00119">
        <ele>96.199996948242</ele>
        <time>2011-04-19T07:40:43.000Z</time>
      </trkpt>
      <trkpt lat="48.57979" lon="2.0011">
        <ele>96.199996948242</ele>
        <time>2011-04-19T07:40:49.000Z</time>
      </trkpt>
      <trkpt lat="48.57977" lon="2.00107">
        <ele>96.199996948242</ele>
        <time>2011-04-19T07:40:51.000Z</time>
      </trkpt>
      <trkpt lat="48.57973" lon="2.001">
        <ele>96.199996948242</ele>
        <time>2011-04-19T07:40:57.000Z</time>
      </trkpt>
      <trkpt lat="48.57967" lon="2.0009">
        <ele>97.199996948242</ele>
        <time>2011-04-19T07:41:05.000Z</time>
      </trkpt>
      <trkpt lat="48.57966" lon="2.00087">
        <ele>96.800003051758</ele>
        <time>2011-04-19T07:41:06.000Z</time>
      </trkpt>
      <trkpt lat="48.57963" lon="2.00079">
        <ele>95.400001525879</ele>
        <time>2011-04-19T07:41:11.000Z</time>
      </trkpt>
      <trkpt lat="48.57957" lon="2.00066">
        <ele>93</ele>
        <time>2011-04-19T07:41:19.000Z</time>
      </trkpt>
      <trkpt lat="48.57955" lon="2.00059">
        <ele>90.599998474121</ele>
        <time>2011-04-19T07:41:23.000Z</time>
      </trkpt>
      <trkpt lat="48.57951" lon="2.0005">
        <ele>87.199996948242</ele>
        <time>2011-04-19T07:41:29.000Z</time>
      </trkpt>
      <trkpt lat="48.57947" lon="2.00043">
        <ele>87.199996948242</ele>
        <time>2011-04-19T07:41:33.000Z</time>
      </trkpt>
      <trkpt lat="48.57945" lon="2.00035">
        <ele>87.199996948242</ele>
        <time>2011-04-19T07:41:38.000Z</time>
      </trkpt>
      <trkpt lat="48.57943" lon="2.00031">
        <ele>86.599998474121</ele>
        <time>2011-04-19T07:41:41.000Z</time>
      </trkpt>
      <trkpt lat="48.5794" lon="2.00022">
        <ele>84.199996948242</ele>
        <time>2011-04-19T07:41:47.000Z</time>
      </trkpt>
      <trkpt lat="48.57939" lon="2.00018">
        <ele>84.800003051758</ele>
        <time>2011-04-19T07:41:49.000Z</time>
      </trkpt>
      <trkpt lat="48.57936" lon="2.00004">
        <ele>85.199996948242</ele>
        <time>2011-04-19T07:41:56.000Z</time>
      </trkpt>
      <trkpt lat="48.57934" lon="1.99998">
        <ele>85.599998474121</ele>
        <time>2011-04-19T07:41:59.000Z</time>
      </trkpt>
      <trkpt lat="48.57932" lon="1.9999">
        <ele>85.599998474121</ele>
        <time>2011-04-19T07:42:04.000Z</time>
      </trkpt>
      <trkpt lat="48.57925" lon="1.9998">
        <ele>87.199996948242</ele>
        <time>2011-04-19T07:42:10.000Z</time>
      </trkpt>
      <trkpt lat="48.57919" lon="1.99968">
        <ele>89</ele>
        <time>2011-04-19T07:42:17.000Z</time>
      </trkpt>
      <trkpt lat="48.57915" lon="1.99953">
        <ele>89</ele>
        <time>2011-04-19T07:42:25.000Z</time>
      </trkpt>
      <trkpt lat="48.57913" lon="1.99948">
        <ele>89</ele>
        <time>2011-04-19T07:42:28.000Z</time>
      </trkpt>
      <trkpt lat="48.5791" lon="1.99937">
        <ele>88</ele>
        <time>2011-04-19T07:42:34.000Z</time>
      </trkpt>
      <trkpt lat="48.57908" lon="1.99929">
        <ele>88</ele>
        <time>2011-04-19T07:42:39.000Z</time>
      </trkpt>
      <trkpt lat="48.57905" lon="1.99918">
        <ele>87.599998474121</ele>
        <time>2011-04-19T07:42:45.000Z</time>
      </trkpt>
      <trkpt lat="48.57901" lon="1.99908">
        <ele>88.599998474121</ele>
        <time>2011-04-19T07:42:51.000Z</time>
      </trkpt>
      <trkpt lat="48.57898" lon="1.999">
        <ele>88</ele>
        <time>2011-04-19T07:42:56.000Z</time>
      </trkpt>
      <trkpt lat="48.57893" lon="1.99887">
        <ele>87.199996948242</ele>
        <time>2011-04-19T07:43:03.000Z</time>
      </trkpt>
      <trkpt lat="48.5789" lon="1.99876">
        <ele>88</ele>
        <time>2011-04-19T07:43:09.000Z</time>
      </trkpt>
      <trkpt lat="48.57887" lon="1.9987">
        <ele>88</ele>
        <time>2011-04-19T07:43:12.000Z</time>
      </trkpt>
      <trkpt lat="48.57884" lon="1.9986">
        <ele>86.599998474121</ele>
        <time>2011-04-19T07:43:18.000Z</time>
      </trkpt>
      <trkpt lat="48.57881" lon="1.99853">
        <ele>87.199996948242</ele>
        <time>2011-04-19T07:43:22.000Z</time>
      </trkpt>
      <trkpt lat="48.57881" lon="1.9985">
        <ele>86.599998474121</ele>
        <time>2011-04-19T07:43:24.000Z</time>
      </trkpt>
      <trkpt lat="48.57878" lon="1.99838">
        <ele>87.599998474121</ele>
        <time>2011-04-19T07:43:31.000Z</time>
      </trkpt>
      <trkpt lat="48.57874" lon="1.99826">
        <ele>88.599998474121</ele>
        <time>2011-04-19T07:43:38.000Z</time>
      </trkpt>
      <trkpt lat="48.57871" lon="1.99814">
        <ele>89</ele>
        <time>2011-04-19T07:43:43.000Z</time>
      </trkpt>
      <trkpt lat="48.57869" lon="1.99801">
        <ele>88.599998474121</ele>
        <time>2011-04-19T07:43:50.000Z</time>
      </trkpt>
      <trkpt lat="48.57866" lon="1.9979">
        <ele>88</ele>
        <time>2011-04-19T07:43:56.000Z</time>
      </trkpt>
      <trkpt lat="48.57866" lon="1.99788">
        <ele>87.599998474121</ele>
        <time>2011-04-19T07:43:57.000Z</time>
      </trkpt>
      <trkpt lat="48.57865" lon="1.99784">
        <ele>87.599998474121</ele>
        <time>2011-04-19T07:43:59.000Z</time>
      </trkpt>
      <trkpt lat="48.57862" lon="1.9977">
        <ele>88</ele>
        <time>2011-04-19T07:44:06.000Z</time>
      </trkpt>
      <trkpt lat="48.57859" lon="1.99755">
        <ele>89</ele>
        <time>2011-04-19T07:44:13.000Z</time>
      </trkpt>
      <trkpt lat="48.57858" lon="1.99746">
        <ele>90</ele>
        <time>2011-04-19T07:44:18.000Z</time>
      </trkpt>
      <trkpt lat="48.57856" lon="1.99732">
        <ele>90.599998474121</ele>
        <time>2011-04-19T07:44:25.000Z</time>
      </trkpt>
      <trkpt lat="48.57855" lon="1.99719">
        <ele>91</ele>
        <time>2011-04-19T07:44:31.000Z</time>
      </trkpt>
      <trkpt lat="48.57854" lon="1.9971">
        <ele>91.400001525879</ele>
        <time>2011-04-19T07:44:36.000Z</time>
      </trkpt>
      <trkpt lat="48.57854" lon="1.99693">
        <ele>93</ele>
        <time>2011-04-19T07:44:44.000Z</time>
      </trkpt>
      <trkpt lat="48.57853" lon="1.99674">
        <ele>93.800003051758</ele>
        <time>2011-04-19T07:44:53.000Z</time>
      </trkpt>
      <trkpt lat="48.57851" lon="1.99661">
        <ele>94.400001525879</ele>
        <time>2011-04-19T07:45:00.000Z</time>
      </trkpt>
      <trkpt lat="48.5785" lon="1.99646">
        <ele>93.800003051758</ele>
        <time>2011-04-19T07:45:07.000Z</time>
      </trkpt>
      <trkpt lat="48.57851" lon="1.99627">
        <ele>93.800003051758</ele>
        <time>2011-04-19T07:45:17.000Z</time>
      </trkpt>
      <trkpt lat="48.57851" lon="1.99612">
        <ele>94.800003051758</ele>
        <time>2011-04-19T07:45:25.000Z</time>
      </trkpt>
      <trkpt lat="48.57851" lon="1.99601">
        <ele>94.800003051758</ele>
        <time>2011-04-19T07:45:31.000Z</time>
      </trkpt>
      <trkpt lat="48.57851" lon="1.99599">
        <ele>94.800003051758</ele>
        <time>2011-04-19T07:45:32.000Z</time>
      </trkpt>
      <trkpt lat="48.57851" lon="1.99589">
        <ele>93.800003051758</ele>
        <time>2011-04-19T07:45:37.000Z</time>
      </trkpt>
      <trkpt lat="48.57852" lon="1.99571">
        <ele>93.800003051758</ele>
        <time>2011-04-19T07:45:46.000Z</time>
      </trkpt>
      <trkpt lat="48.57853" lon="1.99556">
        <ele>93.400001525879</ele>
        <time>2011-04-19T07:45:54.000Z</time>
      </trkpt>
      <trkpt lat="48.57853" lon="1.99543">
        <ele>93</ele>
        <time>2011-04-19T07:46:01.000Z</time>
      </trkpt>
      <trkpt lat="48.57852" lon="1.99537">
        <ele>95.400001525879</ele>
        <time>2011-04-19T07:46:04.000Z</time>
      </trkpt>
      <trkpt lat="48.57852" lon="1.99521">
        <ele>97.800003051758</ele>
        <time>2011-04-19T07:46:12.000Z</time>
      </trkpt>
      <trkpt lat="48.57852" lon="1.99519">
        <ele>98.199996948242</ele>
        <time>2011-04-19T07:46:13.000Z</time>
      </trkpt>
      <trkpt lat="48.57853" lon="1.9951">
        <ele>98.599998474121</ele>
        <time>2011-04-19T07:46:19.000Z</time>
      </trkpt>
      <trkpt lat="48.57854" lon="1.99508">
        <ele>98.599998474121</ele>
        <time>2011-04-19T07:46:20.000Z</time>
      </trkpt>
      <trkpt lat="48.57854" lon="1.995">
        <ele>98.599998474121</ele>
        <time>2011-04-19T07:46:25.000Z</time>
      </trkpt>
      <trkpt lat="48.57854" lon="1.99496">
        <ele>99.199996948242</ele>
        <time>2011-04-19T07:46:27.000Z</time>
      </trkpt>
      <trkpt lat="48.57853" lon="1.99487">
        <ele>99.199996948242</ele>
        <time>2011-04-19T07:46:32.000Z</time>
      </trkpt>
      <trkpt lat="48.57853" lon="1.99483">
        <ele>99.599998474121</ele>
        <time>2011-04-19T07:46:35.000Z</time>
      </trkpt>
      <trkpt lat="48.57852" lon="1.99471">
        <ele>100.19999694824</ele>
        <time>2011-04-19T07:46:41.000Z</time>
      </trkpt>
      <trkpt lat="48.57852" lon="1.99461">
        <ele>101</ele>
        <time>2011-04-19T07:46:46.000Z</time>
      </trkpt>
      <trkpt lat="48.57852" lon="1.99453">
        <ele>102.59999847412</ele>
        <time>2011-04-19T07:46:50.000Z</time>
      </trkpt>
      <trkpt lat="48.57851" lon="1.99437">
        <ele>104</ele>
        <time>2011-04-19T07:46:58.000Z</time>
      </trkpt>
      <trkpt lat="48.57851" lon="1.99424">
        <ele>104.40000152588</ele>
        <time>2011-04-19T07:47:04.000Z</time>
      </trkpt>
      <trkpt lat="48.57851" lon="1.99413">
        <ele>105</ele>
        <time>2011-04-19T07:47:10.000Z</time>
      </trkpt>
      <trkpt lat="48.57851" lon="1.99405">
        <ele>104.40000152588</ele>
        <time>2011-04-19T07:47:15.000Z</time>
      </trkpt>
      <trkpt lat="48.57852" lon="1.99392">
        <ele>103.40000152588</ele>
        <time>2011-04-19T07:47:22.000Z</time>
      </trkpt>
      <trkpt lat="48.57852" lon="1.99388">
        <ele>103.40000152588</ele>
        <time>2011-04-19T07:47:24.000Z</time>
      </trkpt>
      <trkpt lat="48.57852" lon="1.99378">
        <ele>103</ele>
        <time>2011-04-19T07:47:29.000Z</time>
      </trkpt>
      <trkpt lat="48.57852" lon="1.99376">
        <ele>103</ele>
        <time>2011-04-19T07:47:30.000Z</time>
      </trkpt>
      <trkpt lat="48.57853" lon="1.99354">
        <ele>103</ele>
        <time>2011-04-19T07:47:41.000Z</time>
      </trkpt>
      <trkpt lat="48.57855" lon="1.99341">
        <ele>102</ele>
        <time>2011-04-19T07:47:47.000Z</time>
      </trkpt>
      <trkpt lat="48.57853" lon="1.99325">
        <ele>103.40000152588</ele>
        <time>2011-04-19T07:47:55.000Z</time>
      </trkpt>
      <trkpt lat="48.57854" lon="1.99309">
        <ele>104</ele>
        <time>2011-04-19T07:48:03.000Z</time>
      </trkpt>
      <trkpt lat="48.57854" lon="1.99295">
        <ele>104</ele>
        <time>2011-04-19T07:48:09.000Z</time>
      </trkpt>
      <trkpt lat="48.57855" lon="1.99286">
        <ele>102.59999847412</ele>
        <time>2011-04-19T07:48:14.000Z</time>
      </trkpt>
      <trkpt lat="48.57855" lon="1.99283">
        <ele>101.59999847412</ele>
        <time>2011-04-19T07:48:18.000Z</time>
      </trkpt>
      <trkpt lat="48.57852" lon="1.99283">
        <ele>100.19999694824</ele>
        <time>2011-04-19T07:48:49.000Z</time>
      </trkpt>
      <trkpt lat="48.5785" lon="1.99281">
        <ele>99.599998474121</ele>
        <time>2011-04-19T07:48:52.000Z</time>
      </trkpt>
      <trkpt lat="48.57857" lon="1.99266">
        <ele>98.599998474121</ele>
        <time>2011-04-19T07:51:54.000Z</time>
      </trkpt>
      <trkpt lat="48.57858" lon="1.99242">
        <ele>98.199996948242</ele>
        <time>2011-04-19T07:52:05.000Z</time>
      </trkpt>
      <trkpt lat="48.57859" lon="1.99232">
        <ele>98.199996948242</ele>
        <time>2011-04-19T07:52:10.000Z</time>
      </trkpt>
      <trkpt lat="48.57859" lon="1.99217">
        <ele>98.199996948242</ele>
        <time>2011-04-19T07:52:18.000Z</time>
      </trkpt>
      <trkpt lat="48.57859" lon="1.99202">
        <ele>97.199996948242</ele>
        <time>2011-04-19T07:52:25.000Z</time>
      </trkpt>
      <trkpt lat="48.5786" lon="1.99184">
        <ele>95.800003051758</ele>
        <time>2011-04-19T07:52:34.000Z</time>
      </trkpt>
      <trkpt lat="48.57859" lon="1.99167">
        <ele>95.400001525879</ele>
        <time>2011-04-19T07:52:43.000Z</time>
      </trkpt>
      <trkpt lat="48.57858" lon="1.99154">
        <ele>94.800003051758</ele>
        <time>2011-04-19T07:52:51.000Z</time>
      </trkpt>
      <trkpt lat="48.57855" lon="1.9914">
        <ele>94.800003051758</ele>
        <time>2011-04-19T07:53:00.000Z</time>
      </trkpt>
      <trkpt lat="48.57853" lon="1.99132">
        <ele>94.400001525879</ele>
        <time>2011-04-19T07:53:06.000Z</time>
      </trkpt>
      <trkpt lat="48.57848" lon="1.99115">
        <ele>94.400001525879</ele>
        <time>2011-04-19T07:53:15.000Z</time>
      </trkpt>
      <trkpt lat="48.57844" lon="1.99102">
        <ele>95.800003051758</ele>
        <time>2011-04-19T07:53:22.000Z</time>
      </trkpt>
      <trkpt lat="48.5784" lon="1.99085">
        <ele>97.199996948242</ele>
        <time>2011-04-19T07:53:31.000Z</time>
      </trkpt>
      <trkpt lat="48.57836" lon="1.99069">
        <ele>97.199996948242</ele>
        <time>2011-04-19T07:53:40.000Z</time>
      </trkpt>
      <trkpt lat="48.57836" lon="1.99067">
        <ele>97.199996948242</ele>
        <time>2011-04-19T07:53:41.000Z</time>
      </trkpt>
      <trkpt lat="48.57833" lon="1.99054">
        <ele>97.199996948242</ele>
        <time>2011-04-19T07:53:49.000Z</time>
      </trkpt>
      <trkpt lat="48.57832" lon="1.99041">
        <ele>96.199996948242</ele>
        <time>2011-04-19T07:53:55.000Z</time>
      </trkpt>
      <trkpt lat="48.57831" lon="1.99023">
        <ele>95.800003051758</ele>
        <time>2011-04-19T07:54:03.000Z</time>
      </trkpt>
      <trkpt lat="48.57829" lon="1.98999">
        <ele>96.199996948242</ele>
        <time>2011-04-19T07:54:14.000Z</time>
      </trkpt>
      <trkpt lat="48.57826" lon="1.98978">
        <ele>96.199996948242</ele>
        <time>2011-04-19T07:54:24.000Z</time>
      </trkpt>
      <trkpt lat="48.57828" lon="1.98955">
        <ele>97.199996948242</ele>
        <time>2011-04-19T07:54:35.000Z</time>
      </trkpt>
      <trkpt lat="48.57832" lon="1.98934">
        <ele>97.800003051758</ele>
        <time>2011-04-19T07:54:45.000Z</time>
      </trkpt>
      <trkpt lat="48.57833" lon="1.98912">
        <ele>98.599998474121</ele>
        <time>2011-04-19T07:54:55.000Z</time>
      </trkpt>
      <trkpt lat="48.57831" lon="1.98886">
        <ele>98.599998474121</ele>
        <time>2011-04-19T07:55:07.000Z</time>
      </trkpt>
      <trkpt lat="48.57831" lon="1.98869">
        <ele>99.199996948242</ele>
        <time>2011-04-19T07:55:15.000Z</time>
      </trkpt>
      <trkpt lat="48.57828" lon="1.98853">
        <ele>98.599998474121</ele>
        <time>2011-04-19T07:55:23.000Z</time>
      </trkpt>
      <trkpt lat="48.57828" lon="1.98846">
        <ele>99.199996948242</ele>
        <time>2011-04-19T07:55:26.000Z</time>
      </trkpt>
      <trkpt lat="48.57828" lon="1.98842">
        <ele>99.199996948242</ele>
        <time>2011-04-19T07:55:28.000Z</time>
      </trkpt>
      <trkpt lat="48.57831" lon="1.98831">
        <ele>99.599998474121</ele>
        <time>2011-04-19T07:55:35.000Z</time>
      </trkpt>
      <trkpt lat="48.57831" lon="1.98824">
        <ele>99.599998474121</ele>
        <time>2011-04-19T07:55:38.000Z</time>
      </trkpt>
      <trkpt lat="48.57828" lon="1.98798">
        <ele>100.19999694824</ele>
        <time>2011-04-19T07:55:50.000Z</time>
      </trkpt>
      <trkpt lat="48.57825" lon="1.98781">
        <ele>100.19999694824</ele>
        <time>2011-04-19T07:55:58.000Z</time>
      </trkpt>
      <trkpt lat="48.57822" lon="1.98757">
        <ele>100.59999847412</ele>
        <time>2011-04-19T07:56:09.000Z</time>
      </trkpt>
      <trkpt lat="48.57819" lon="1.98733">
        <ele>100.19999694824</ele>
        <time>2011-04-19T07:56:20.000Z</time>
      </trkpt>
      <trkpt lat="48.57815" lon="1.98717">
        <ele>100.19999694824</ele>
        <time>2011-04-19T07:56:29.000Z</time>
      </trkpt>
      <trkpt lat="48.57811" lon="1.98709">
        <ele>99.599998474121</ele>
        <time>2011-04-19T07:56:36.000Z</time>
      </trkpt>
      <trkpt lat="48.5781" lon="1.98699">
        <ele>99.199996948242</ele>
        <time>2011-04-19T07:56:43.000Z</time>
      </trkpt>
      <trkpt lat="48.57811" lon="1.98696">
        <ele>99.199996948242</ele>
        <time>2011-04-19T07:56:45.000Z</time>
      </trkpt>
      <trkpt lat="48.5781" lon="1.98684">
        <ele>99.599998474121</ele>
        <time>2011-04-19T07:56:51.000Z</time>
      </trkpt>
      <trkpt lat="48.57807" lon="1.98665">
        <ele>99.599998474121</ele>
        <time>2011-04-19T07:57:01.000Z</time>
      </trkpt>
      <trkpt lat="48.57805" lon="1.98648">
        <ele>99.599998474121</ele>
        <time>2011-04-19T07:57:10.000Z</time>
      </trkpt>
      <trkpt lat="48.57805" lon="1.98647">
        <ele>99.599998474121</ele>
        <time>2011-04-19T07:57:12.000Z</time>
      </trkpt>
      <trkpt lat="48.57803" lon="1.98639">
        <ele>99.599998474121</ele>
        <time>2011-04-19T07:57:24.000Z</time>
      </trkpt>
      <trkpt lat="48.578" lon="1.98614">
        <ele>99.599998474121</ele>
        <time>2011-04-19T07:57:35.000Z</time>
      </trkpt>
      <trkpt lat="48.57798" lon="1.98593">
        <ele>100.19999694824</ele>
        <time>2011-04-19T07:57:45.000Z</time>
      </trkpt>
      <trkpt lat="48.57796" lon="1.98569">
        <ele>99.599998474121</ele>
        <time>2011-04-19T07:57:56.000Z</time>
      </trkpt>
      <trkpt lat="48.57794" lon="1.98548">
        <ele>99.199996948242</ele>
        <time>2011-04-19T07:58:06.000Z</time>
      </trkpt>
      <trkpt lat="48.57794" lon="1.98534">
        <ele>98.599998474121</ele>
        <time>2011-04-19T07:58:13.000Z</time>
      </trkpt>
      <trkpt lat="48.57792" lon="1.98513">
        <ele>98.199996948242</ele>
        <time>2011-04-19T07:58:23.000Z</time>
      </trkpt>
      <trkpt lat="48.57792" lon="1.98494">
        <ele>98.199996948242</ele>
        <time>2011-04-19T07:58:32.000Z</time>
      </trkpt>
      <trkpt lat="48.57791" lon="1.98476">
        <ele>97.800003051758</ele>
        <time>2011-04-19T07:58:41.000Z</time>
      </trkpt>
      <trkpt lat="48.57791" lon="1.98457">
        <ele>98.599998474121</ele>
        <time>2011-04-19T07:58:50.000Z</time>
      </trkpt>
      <trkpt lat="48.57789" lon="1.98444">
        <ele>100.59999847412</ele>
        <time>2011-04-19T07:58:56.000Z</time>
      </trkpt>
      <trkpt lat="48.57788" lon="1.98429">
        <ele>101</ele>
        <time>2011-04-19T07:59:03.000Z</time>
      </trkpt>
      <trkpt lat="48.57788" lon="1.98409">
        <ele>99.599998474121</ele>
        <time>2011-04-19T07:59:12.000Z</time>
      </trkpt>
      <trkpt lat="48.57788" lon="1.98398">
        <ele>99.599998474121</ele>
        <time>2011-04-19T07:59:17.000Z</time>
      </trkpt>
      <trkpt lat="48.57787" lon="1.98378">
        <ele>98.599998474121</ele>
        <time>2011-04-19T07:59:26.000Z</time>
      </trkpt>
      <trkpt lat="48.57784" lon="1.98364">
        <ele>98.199996948242</ele>
        <time>2011-04-19T07:59:33.000Z</time>
      </trkpt>
      <trkpt lat="48.57784" lon="1.98355">
        <ele>98.599998474121</ele>
        <time>2011-04-19T07:59:37.000Z</time>
      </trkpt>
      <trkpt lat="48.57783" lon="1.98336">
        <ele>99.199996948242</ele>
        <time>2011-04-19T07:59:46.000Z</time>
      </trkpt>
      <trkpt lat="48.57784" lon="1.9832">
        <ele>99.199996948242</ele>
        <time>2011-04-19T07:59:54.000Z</time>
      </trkpt>
      <trkpt lat="48.57783" lon="1.9831">
        <ele>98.599998474121</ele>
        <time>2011-04-19T07:59:58.000Z</time>
      </trkpt>
      <trkpt lat="48.57783" lon="1.983">
        <ele>98.199996948242</ele>
        <time>2011-04-19T08:00:03.000Z</time>
      </trkpt>
      <trkpt lat="48.57783" lon="1.98298">
        <ele>98.199996948242</ele>
        <time>2011-04-19T08:00:04.000Z</time>
      </trkpt>
      <trkpt lat="48.57783" lon="1.98286">
        <ele>98.599998474121</ele>
        <time>2011-04-19T08:00:09.000Z</time>
      </trkpt>
      <trkpt lat="48.57783" lon="1.98274">
        <ele>98.599998474121</ele>
        <time>2011-04-19T08:00:15.000Z</time>
      </trkpt>
      <trkpt lat="48.57783" lon="1.98268">
        <ele>98.599998474121</ele>
        <time>2011-04-19T08:00:18.000Z</time>
      </trkpt>
      <trkpt lat="48.57783" lon="1.98266">
        <ele>98.599998474121</ele>
        <time>2011-04-19T08:00:22.000Z</time>
      </trkpt>
      <trkpt lat="48.57785" lon="1.98247">
        <ele>100.59999847412</ele>
        <time>2011-04-19T08:01:11.000Z</time>
      </trkpt>
      <trkpt lat="48.57784" lon="1.98234">
        <ele>100.19999694824</ele>
        <time>2011-04-19T08:01:17.000Z</time>
      </trkpt>
      <trkpt lat="48.57783" lon="1.98224">
        <ele>100.19999694824</ele>
        <time>2011-04-19T08:01:22.000Z</time>
      </trkpt>
      <trkpt lat="48.57782" lon="1.9821">
        <ele>99.599998474121</ele>
        <time>2011-04-19T08:01:29.000Z</time>
      </trkpt>
      <trkpt lat="48.57781" lon="1.98202">
        <ele>100.59999847412</ele>
        <time>2011-04-19T08:01:33.000Z</time>
      </trkpt>
      <trkpt lat="48.5778" lon="1.982">
        <ele>101</ele>
        <time>2011-04-19T08:01:34.000Z</time>
      </trkpt>
      <trkpt lat="48.57779" lon="1.98187">
        <ele>102</ele>
        <time>2011-04-19T08:01:41.000Z</time>
      </trkpt>
      <trkpt lat="48.57778" lon="1.98178">
        <ele>103</ele>
        <time>2011-04-19T08:01:48.000Z</time>
      </trkpt>
      <trkpt lat="48.57777" lon="1.98147">
        <ele>104.40000152588</ele>
        <time>2011-04-19T08:03:05.000Z</time>
      </trkpt>
      <trkpt lat="48.57774" lon="1.98134">
        <ele>104</ele>
        <time>2011-04-19T08:03:11.000Z</time>
      </trkpt>
      <trkpt lat="48.57773" lon="1.9812">
        <ele>104</ele>
        <time>2011-04-19T08:03:18.000Z</time>
      </trkpt>
      <trkpt lat="48.57772" lon="1.98103">
        <ele>104.40000152588</ele>
        <time>2011-04-19T08:03:27.000Z</time>
      </trkpt>
      <trkpt lat="48.57772" lon="1.98096">
        <ele>104.40000152588</ele>
        <time>2011-04-19T08:03:34.000Z</time>
      </trkpt>
      <trkpt lat="48.57771" lon="1.98084">
        <ele>102.59999847412</ele>
        <time>2011-04-19T08:03:50.000Z</time>
      </trkpt>
      <trkpt lat="48.57769" lon="1.98072">
        <ele>103</ele>
        <time>2011-04-19T08:03:56.000Z</time>
      </trkpt>
      <trkpt lat="48.57768" lon="1.98058">
        <ele>102.59999847412</ele>
        <time>2011-04-19T08:04:04.000Z</time>
      </trkpt>
      <trkpt lat="48.57767" lon="1.98045">
        <ele>102.59999847412</ele>
        <time>2011-04-19T08:04:11.000Z</time>
      </trkpt>
      <trkpt lat="48.57766" lon="1.98026">
        <ele>102</ele>
        <time>2011-04-19T08:04:20.000Z</time>
      </trkpt>
      <trkpt lat="48.57766" lon="1.98008">
        <ele>102.59999847412</ele>
        <time>2011-04-19T08:04:29.000Z</time>
      </trkpt>
      <trkpt lat="48.57766" lon="1.97995">
        <ele>103</ele>
        <time>2011-04-19T08:04:36.000Z</time>
      </trkpt>
      <trkpt lat="48.57768" lon="1.97978">
        <ele>103.40000152588</ele>
        <time>2011-04-19T08:04:45.000Z</time>
      </trkpt>
      <trkpt lat="48.57769" lon="1.97956">
        <ele>104.40000152588</ele>
        <time>2011-04-19T08:04:55.000Z</time>
      </trkpt>
      <trkpt lat="48.5777" lon="1.97941">
        <ele>104.40000152588</ele>
        <time>2011-04-19T08:05:02.000Z</time>
      </trkpt>
      <trkpt lat="48.57771" lon="1.97929">
        <ele>105</ele>
        <time>2011-04-19T08:05:09.000Z</time>
      </trkpt>
      <trkpt lat="48.57773" lon="1.97913">
        <ele>105</ele>
        <time>2011-04-19T08:05:17.000Z</time>
      </trkpt>
      <trkpt lat="48.57775" lon="1.97892">
        <ele>104.40000152588</ele>
        <time>2011-04-19T08:05:27.000Z</time>
      </trkpt>
      <trkpt lat="48.57778" lon="1.97876">
        <ele>104.40000152588</ele>
        <time>2011-04-19T08:05:36.000Z</time>
      </trkpt>
      <trkpt lat="48.5778" lon="1.9786">
        <ele>103.40000152588</ele>
        <time>2011-04-19T08:05:44.000Z</time>
      </trkpt>
      <trkpt lat="48.57782" lon="1.97846">
        <ele>102</ele>
        <time>2011-04-19T08:05:50.000Z</time>
      </trkpt>
      <trkpt lat="48.57785" lon="1.97826">
        <ele>102.59999847412</ele>
        <time>2011-04-19T08:05:58.000Z</time>
      </trkpt>
      <trkpt lat="48.57787" lon="1.97811">
        <ele>102.59999847412</ele>
        <time>2011-04-19T08:06:04.000Z</time>
      </trkpt>
      <trkpt lat="48.5779" lon="1.97798">
        <ele>103.40000152588</ele>
        <time>2011-04-19T08:06:09.000Z</time>
      </trkpt>
      <trkpt lat="48.57794" lon="1.97783">
        <ele>100.59999847412</ele>
        <time>2011-04-19T08:06:16.000Z</time>
      </trkpt>
      <trkpt lat="48.57797" lon="1.97767">
        <ele>99.199996948242</ele>
        <time>2011-04-19T08:06:23.000Z</time>
      </trkpt>
      <trkpt lat="48.578" lon="1.97749">
        <ele>98.599998474121</ele>
        <time>2011-04-19T08:06:30.000Z</time>
      </trkpt>
      <trkpt lat="48.57802" lon="1.97731">
        <ele>99.199996948242</ele>
        <time>2011-04-19T08:06:38.000Z</time>
      </trkpt>
      <trkpt lat="48.57802" lon="1.97716">
        <ele>102.59999847412</ele>
        <time>2011-04-19T08:06:45.000Z</time>
      </trkpt>
      <trkpt lat="48.57802" lon="1.977">
        <ele>104</ele>
        <time>2011-04-19T08:06:52.000Z</time>
      </trkpt>
      <trkpt lat="48.57801" lon="1.97686">
        <ele>104.40000152588</ele>
        <time>2011-04-19T08:07:00.000Z</time>
      </trkpt>
      <trkpt lat="48.57801" lon="1.97678">
        <ele>105</ele>
        <time>2011-04-19T08:07:05.000Z</time>
      </trkpt>
      <trkpt lat="48.578" lon="1.97653">
        <ele>105.40000152588</ele>
        <time>2011-04-19T08:07:16.000Z</time>
      </trkpt>
      <trkpt lat="48.57799" lon="1.97632">
        <ele>105.80000305176</ele>
        <time>2011-04-19T08:07:25.000Z</time>
      </trkpt>
      <trkpt lat="48.57799" lon="1.97608">
        <ele>105.80000305176</ele>
        <time>2011-04-19T08:07:36.000Z</time>
      </trkpt>
      <trkpt lat="48.57798" lon="1.97593">
        <ele>105.80000305176</ele>
        <time>2011-04-19T08:07:43.000Z</time>
      </trkpt>
      <trkpt lat="48.57797" lon="1.97577">
        <ele>105.80000305176</ele>
        <time>2011-04-19T08:07:51.000Z</time>
      </trkpt>
      <trkpt lat="48.57796" lon="1.97567">
        <ele>103.40000152588</ele>
        <time>2011-04-19T08:07:57.000Z</time>
      </trkpt>
      <trkpt lat="48.57793" lon="1.97548">
        <ele>103.40000152588</ele>
        <time>2011-04-19T08:08:06.000Z</time>
      </trkpt>
      <trkpt lat="48.57793" lon="1.97533">
        <ele>102.59999847412</ele>
        <time>2011-04-19T08:08:13.000Z</time>
      </trkpt>
      <trkpt lat="48.57794" lon="1.97518">
        <ele>101</ele>
        <time>2011-04-19T08:08:20.000Z</time>
      </trkpt>
      <trkpt lat="48.5779" lon="1.97499">
        <ele>105</ele>
        <time>2011-04-19T08:08:28.000Z</time>
      </trkpt>
      <trkpt lat="48.57788" lon="1.97475">
        <ele>107.40000152588</ele>
        <time>2011-04-19T08:08:39.000Z</time>
      </trkpt>
      <trkpt lat="48.57786" lon="1.9746">
        <ele>107.40000152588</ele>
        <time>2011-04-19T08:08:46.000Z</time>
      </trkpt>
      <trkpt lat="48.57783" lon="1.97446">
        <ele>107.40000152588</ele>
        <time>2011-04-19T08:08:54.000Z</time>
      </trkpt>
      <trkpt lat="48.57782" lon="1.97439">
        <ele>106.80000305176</ele>
        <time>2011-04-19T08:08:58.000Z</time>
      </trkpt>
      <trkpt lat="48.57781" lon="1.97431">
        <ele>106.40000152588</ele>
        <time>2011-04-19T08:09:02.000Z</time>
      </trkpt>
      <trkpt lat="48.57778" lon="1.97411">
        <ele>105.80000305176</ele>
        <time>2011-04-19T08:09:11.000Z</time>
      </trkpt>
      <trkpt lat="48.57775" lon="1.97393">
        <ele>106.80000305176</ele>
        <time>2011-04-19T08:09:19.000Z</time>
      </trkpt>
      <trkpt lat="48.57772" lon="1.97377">
        <ele>108.19999694824</ele>
        <time>2011-04-19T08:09:26.000Z</time>
      </trkpt>
      <trkpt lat="48.57767" lon="1.9736">
        <ele>109.19999694824</ele>
        <time>2011-04-19T08:09:35.000Z</time>
      </trkpt>
      <trkpt lat="48.57765" lon="1.97337">
        <ele>108.19999694824</ele>
        <time>2011-04-19T08:09:46.000Z</time>
      </trkpt>
      <trkpt lat="48.57764" lon="1.97323">
        <ele>109.19999694824</ele>
        <time>2011-04-19T08:09:53.000Z</time>
      </trkpt>
      <trkpt lat="48.57762" lon="1.97311">
        <ele>108.80000305176</ele>
        <time>2011-04-19T08:10:01.000Z</time>
      </trkpt>
      <trkpt lat="48.57759" lon="1.97295">
        <ele>108.19999694824</ele>
        <time>2011-04-19T08:10:09.000Z</time>
      </trkpt>
      <trkpt lat="48.57756" lon="1.97275">
        <ele>108.19999694824</ele>
        <time>2011-04-19T08:10:19.000Z</time>
      </trkpt>
      <trkpt lat="48.57756" lon="1.97258">
        <ele>108.19999694824</ele>
        <time>2011-04-19T08:10:27.000Z</time>
      </trkpt>
      <trkpt lat="48.57754" lon="1.97239">
        <ele>107.80000305176</ele>
        <time>2011-04-19T08:10:36.000Z</time>
      </trkpt>
      <trkpt lat="48.57754" lon="1.97233">
        <ele>107.80000305176</ele>
        <time>2011-04-19T08:10:39.000Z</time>
      </trkpt>
      <trkpt lat="48.57751" lon="1.97224">
        <ele>107.80000305176</ele>
        <time>2011-04-19T08:10:45.000Z</time>
      </trkpt>
      <trkpt lat="48.57747" lon="1.97212">
        <ele>108.19999694824</ele>
        <time>2011-04-19T08:10:52.000Z</time>
      </trkpt>
      <trkpt lat="48.57744" lon="1.97195">
        <ele>108.19999694824</ele>
        <time>2011-04-19T08:11:00.000Z</time>
      </trkpt>
      <trkpt lat="48.57742" lon="1.97179">
        <ele>108.19999694824</ele>
        <time>2011-04-19T08:11:08.000Z</time>
      </trkpt>
      <trkpt lat="48.5774" lon="1.97165">
        <ele>108.19999694824</ele>
        <time>2011-04-19T08:11:15.000Z</time>
      </trkpt>
      <trkpt lat="48.57737" lon="1.97147">
        <ele>107.80000305176</ele>
        <time>2011-04-19T08:11:24.000Z</time>
      </trkpt>
      <trkpt lat="48.57734" lon="1.97129">
        <ele>107.80000305176</ele>
        <time>2011-04-19T08:11:33.000Z</time>
      </trkpt>
      <trkpt lat="48.57731" lon="1.97113">
        <ele>107.40000152588</ele>
        <time>2011-04-19T08:11:41.000Z</time>
      </trkpt>
      <trkpt lat="48.57728" lon="1.97093">
        <ele>106.80000305176</ele>
        <time>2011-04-19T08:11:51.000Z</time>
      </trkpt>
      <trkpt lat="48.57724" lon="1.97074">
        <ele>106.80000305176</ele>
        <time>2011-04-19T08:12:01.000Z</time>
      </trkpt>
      <trkpt lat="48.57721" lon="1.97059">
        <ele>106.40000152588</ele>
        <time>2011-04-19T08:12:08.000Z</time>
      </trkpt>
      <trkpt lat="48.57715" lon="1.97041">
        <ele>106.40000152588</ele>
        <time>2011-04-19T08:12:16.000Z</time>
      </trkpt>
      <trkpt lat="48.5771" lon="1.97027">
        <ele>107.40000152588</ele>
        <time>2011-04-19T08:12:23.000Z</time>
      </trkpt>
      <trkpt lat="48.57704" lon="1.97008">
        <ele>106.80000305176</ele>
        <time>2011-04-19T08:12:33.000Z</time>
      </trkpt>
      <trkpt lat="48.57697" lon="1.96991">
        <ele>106.40000152588</ele>
        <time>2011-04-19T08:12:42.000Z</time>
      </trkpt>
      <trkpt lat="48.57689" lon="1.96968">
        <ele>105.80000305176</ele>
        <time>2011-04-19T08:12:54.000Z</time>
      </trkpt>
      <trkpt lat="48.57683" lon="1.9695">
        <ele>105.40000152588</ele>
        <time>2011-04-19T08:13:04.000Z</time>
      </trkpt>
      <trkpt lat="48.57683" lon="1.9695">
        <ele>105.40000152588</ele>
        <time>2011-04-19T08:13:05.000Z</time>
      </trkpt>
      <trkpt lat="48.57682" lon="1.96942">
        <ele>106.40000152588</ele>
        <time>2011-04-19T08:13:15.000Z</time>
      </trkpt>
      <trkpt lat="48.5768" lon="1.9694">
        <ele>105.80000305176</ele>
        <time>2011-04-19T08:13:18.000Z</time>
      </trkpt>
      <trkpt lat="48.57677" lon="1.96931">
        <ele>105.80000305176</ele>
        <time>2011-04-19T08:13:42.000Z</time>
      </trkpt>
      <trkpt lat="48.57674" lon="1.9692">
        <ele>105.40000152588</ele>
        <time>2011-04-19T08:13:47.000Z</time>
      </trkpt>
      <trkpt lat="48.57673" lon="1.96907">
        <ele>105.80000305176</ele>
        <time>2011-04-19T08:13:54.000Z</time>
      </trkpt>
      <trkpt lat="48.57672" lon="1.96896">
        <ele>105.80000305176</ele>
        <time>2011-04-19T08:14:01.000Z</time>
      </trkpt>
      <trkpt lat="48.57669" lon="1.96881">
        <ele>105.80000305176</ele>
        <time>2011-04-19T08:14:09.000Z</time>
      </trkpt>
      <trkpt lat="48.57665" lon="1.96866">
        <ele>105.80000305176</ele>
        <time>2011-04-19T08:14:17.000Z</time>
      </trkpt>
      <trkpt lat="48.57661" lon="1.96848">
        <ele>105.80000305176</ele>
        <time>2011-04-19T08:14:27.000Z</time>
      </trkpt>
      <trkpt lat="48.57657" lon="1.96834">
        <ele>106.40000152588</ele>
        <time>2011-04-19T08:14:34.000Z</time>
      </trkpt>
      <trkpt lat="48.57652" lon="1.96815">
        <ele>106.40000152588</ele>
        <time>2011-04-19T08:14:44.000Z</time>
      </trkpt>
      <trkpt lat="48.5765" lon="1.96799">
        <ele>106.40000152588</ele>
        <time>2011-04-19T08:14:52.000Z</time>
      </trkpt>
      <trkpt lat="48.57648" lon="1.96784">
        <ele>106.40000152588</ele>
        <time>2011-04-19T08:15:00.000Z</time>
      </trkpt>
      <trkpt lat="48.57645" lon="1.96767">
        <ele>106.40000152588</ele>
        <time>2011-04-19T08:15:09.000Z</time>
      </trkpt>
      <trkpt lat="48.57643" lon="1.96755">
        <ele>106.40000152588</ele>
        <time>2011-04-19T08:15:16.000Z</time>
      </trkpt>
      <trkpt lat="48.57643" lon="1.96736">
        <ele>106.40000152588</ele>
        <time>2011-04-19T08:15:26.000Z</time>
      </trkpt>
      <trkpt lat="48.5764" lon="1.96721">
        <ele>106.80000305176</ele>
        <time>2011-04-19T08:15:35.000Z</time>
      </trkpt>
      <trkpt lat="48.57636" lon="1.96708">
        <ele>106.80000305176</ele>
        <time>2011-04-19T08:15:43.000Z</time>
      </trkpt>
      <trkpt lat="48.57633" lon="1.96688">
        <ele>106.40000152588</ele>
        <time>2011-04-19T08:15:54.000Z</time>
      </trkpt>
      <trkpt lat="48.57633" lon="1.9667">
        <ele>106.80000305176</ele>
        <time>2011-04-19T08:16:04.000Z</time>
      </trkpt>
      <trkpt lat="48.5763" lon="1.96653">
        <ele>107.40000152588</ele>
        <time>2011-04-19T08:16:13.000Z</time>
      </trkpt>
      <trkpt lat="48.57627" lon="1.96637">
        <ele>108.19999694824</ele>
        <time>2011-04-19T08:16:22.000Z</time>
      </trkpt>
      <trkpt lat="48.57624" lon="1.96624">
        <ele>108.19999694824</ele>
        <time>2011-04-19T08:16:30.000Z</time>
      </trkpt>
      <trkpt lat="48.57619" lon="1.96606">
        <ele>107.80000305176</ele>
        <time>2011-04-19T08:16:41.000Z</time>
      </trkpt>
      <trkpt lat="48.57617" lon="1.96595">
        <ele>107.80000305176</ele>
        <time>2011-04-19T08:16:48.000Z</time>
      </trkpt>
      <trkpt lat="48.57616" lon="1.96582">
        <ele>108.80000305176</ele>
        <time>2011-04-19T08:16:55.000Z</time>
      </trkpt>
      <trkpt lat="48.57615" lon="1.96573">
        <ele>108.80000305176</ele>
        <time>2011-04-19T08:17:02.000Z</time>
      </trkpt>
      <trkpt lat="48.57614" lon="1.96564">
        <ele>109.19999694824</ele>
        <time>2011-04-19T08:17:17.000Z</time>
      </trkpt>
      <trkpt lat="48.57612" lon="1.96558">
        <ele>109.19999694824</ele>
        <time>2011-04-19T08:17:21.000Z</time>
      </trkpt>
      <trkpt lat="48.57612" lon="1.96555">
        <ele>109.19999694824</ele>
        <time>2011-04-19T08:17:25.000Z</time>
      </trkpt>
      <trkpt lat="48.57611" lon="1.96546">
        <ele>108.80000305176</ele>
        <time>2011-04-19T08:17:34.000Z</time>
      </trkpt>
      <trkpt lat="48.57609" lon="1.96525">
        <ele>108.19999694824</ele>
        <time>2011-04-19T08:17:44.000Z</time>
      </trkpt>
      <trkpt lat="48.57608" lon="1.9651">
        <ele>108.19999694824</ele>
        <time>2011-04-19T08:17:53.000Z</time>
      </trkpt>
      <trkpt lat="48.57606" lon="1.96488">
        <ele>108.19999694824</ele>
        <time>2011-04-19T08:18:05.000Z</time>
      </trkpt>
      <trkpt lat="48.57605" lon="1.9648">
        <ele>108.19999694824</ele>
        <time>2011-04-19T08:18:10.000Z</time>
      </trkpt>
      <trkpt lat="48.57604" lon="1.96462">
        <ele>108.19999694824</ele>
        <time>2011-04-19T08:18:19.000Z</time>
      </trkpt>
      <trkpt lat="48.57603" lon="1.96444">
        <ele>108.19999694824</ele>
        <time>2011-04-19T08:18:28.000Z</time>
      </trkpt>
      <trkpt lat="48.57602" lon="1.96424">
        <ele>108.19999694824</ele>
        <time>2011-04-19T08:18:38.000Z</time>
      </trkpt>
      <trkpt lat="48.57602" lon="1.96405">
        <ele>107.80000305176</ele>
        <time>2011-04-19T08:18:47.000Z</time>
      </trkpt>
      <trkpt lat="48.57602" lon="1.96386">
        <ele>107.40000152588</ele>
        <time>2011-04-19T08:18:56.000Z</time>
      </trkpt>
      <trkpt lat="48.57602" lon="1.9637">
        <ele>107.80000305176</ele>
        <time>2011-04-19T08:19:04.000Z</time>
      </trkpt>
      <trkpt lat="48.57602" lon="1.96362">
        <ele>106.80000305176</ele>
        <time>2011-04-19T08:19:08.000Z</time>
      </trkpt>
      <trkpt lat="48.57603" lon="1.96342">
        <ele>107.80000305176</ele>
        <time>2011-04-19T08:19:18.000Z</time>
      </trkpt>
      <trkpt lat="48.57604" lon="1.96328">
        <ele>108.19999694824</ele>
        <time>2011-04-19T08:19:25.000Z</time>
      </trkpt>
      <trkpt lat="48.57604" lon="1.96314">
        <ele>107.40000152588</ele>
        <time>2011-04-19T08:19:32.000Z</time>
      </trkpt>
      <trkpt lat="48.57601" lon="1.96298">
        <ele>108.80000305176</ele>
        <time>2011-04-19T08:19:40.000Z</time>
      </trkpt>
      <trkpt lat="48.57599" lon="1.96282">
        <ele>109.19999694824</ele>
        <time>2011-04-19T08:19:48.000Z</time>
      </trkpt>
      <trkpt lat="48.57598" lon="1.96268">
        <ele>109.80000305176</ele>
        <time>2011-04-19T08:19:55.000Z</time>
      </trkpt>
      <trkpt lat="48.57595" lon="1.96249">
        <ele>110.19999694824</ele>
        <time>2011-04-19T08:20:04.000Z</time>
      </trkpt>
      <trkpt lat="48.57594" lon="1.96233">
        <ele>109.80000305176</ele>
        <time>2011-04-19T08:20:12.000Z</time>
      </trkpt>
      <trkpt lat="48.57593" lon="1.96212">
        <ele>108.80000305176</ele>
        <time>2011-04-19T08:20:22.000Z</time>
      </trkpt>
      <trkpt lat="48.57591" lon="1.96191">
        <ele>108.19999694824</ele>
        <time>2011-04-19T08:20:32.000Z</time>
      </trkpt>
      <trkpt lat="48.57589" lon="1.96173">
        <ele>107.80000305176</ele>
        <time>2011-04-19T08:20:41.000Z</time>
      </trkpt>
      <trkpt lat="48.57587" lon="1.96155">
        <ele>107.80000305176</ele>
        <time>2011-04-19T08:20:49.000Z</time>
      </trkpt>
      <trkpt lat="48.57584" lon="1.9613">
        <ele>108.19999694824</ele>
        <time>2011-04-19T08:21:01.000Z</time>
      </trkpt>
      <trkpt lat="48.57582" lon="1.96104">
        <ele>108.19999694824</ele>
        <time>2011-04-19T08:21:13.000Z</time>
      </trkpt>
      <trkpt lat="48.5758" lon="1.96084">
        <ele>108.80000305176</ele>
        <time>2011-04-19T08:21:23.000Z</time>
      </trkpt>
      <trkpt lat="48.57579" lon="1.96065">
        <ele>109.19999694824</ele>
        <time>2011-04-19T08:21:32.000Z</time>
      </trkpt>
      <trkpt lat="48.57578" lon="1.96049">
        <ele>109.80000305176</ele>
        <time>2011-04-19T08:21:41.000Z</time>
      </trkpt>
      <trkpt lat="48.57578" lon="1.96031">
        <ele>109.80000305176</ele>
        <time>2011-04-19T08:21:50.000Z</time>
      </trkpt>
      <trkpt lat="48.57577" lon="1.96012">
        <ele>110.19999694824</ele>
        <time>2011-04-19T08:21:59.000Z</time>
      </trkpt>
      <trkpt lat="48.57578" lon="1.95993">
        <ele>110.59999847412</ele>
        <time>2011-04-19T08:22:08.000Z</time>
      </trkpt>
      <trkpt lat="48.57578" lon="1.95979">
        <ele>111.19999694824</ele>
        <time>2011-04-19T08:22:15.000Z</time>
      </trkpt>
      <trkpt lat="48.57579" lon="1.95954">
        <ele>111.19999694824</ele>
        <time>2011-04-19T08:22:27.000Z</time>
      </trkpt>
      <trkpt lat="48.57579" lon="1.95953">
        <ele>111.19999694824</ele>
        <time>2011-04-19T08:22:28.000Z</time>
      </trkpt>
      <trkpt lat="48.57581" lon="1.95946">
        <ele>111.59999847412</ele>
        <time>2011-04-19T08:22:32.000Z</time>
      </trkpt>
      <trkpt lat="48.57583" lon="1.95931">
        <ele>112.19999694824</ele>
        <time>2011-04-19T08:22:40.000Z</time>
      </trkpt>
      <trkpt lat="48.57585" lon="1.95909">
        <ele>113</ele>
        <time>2011-04-19T08:22:52.000Z</time>
      </trkpt>
      <trkpt lat="48.57589" lon="1.95888">
        <ele>114</ele>
        <time>2011-04-19T08:23:03.000Z</time>
      </trkpt>
      <trkpt lat="48.57593" lon="1.9587">
        <ele>115</ele>
        <time>2011-04-19T08:23:13.000Z</time>
      </trkpt>
      <trkpt lat="48.57599" lon="1.9585">
        <ele>115.40000152588</ele>
        <time>2011-04-19T08:23:24.000Z</time>
      </trkpt>
      <trkpt lat="48.57602" lon="1.95834">
        <ele>117</ele>
        <time>2011-04-19T08:23:33.000Z</time>
      </trkpt>
      <trkpt lat="48.57603" lon="1.95823">
        <ele>117.40000152588</ele>
        <time>2011-04-19T08:23:39.000Z</time>
      </trkpt>
      <trkpt lat="48.57604" lon="1.95818">
        <ele>117.40000152588</ele>
        <time>2011-04-19T08:23:44.000Z</time>
      </trkpt>
      <trkpt lat="48.57603" lon="1.9581">
        <ele>117</ele>
        <time>2011-04-19T08:23:53.000Z</time>
      </trkpt>
      <trkpt lat="48.57604" lon="1.95803">
        <ele>116</ele>
        <time>2011-04-19T08:23:56.000Z</time>
      </trkpt>
      <trkpt lat="48.57606" lon="1.95799">
        <ele>116</ele>
        <time>2011-04-19T08:23:58.000Z</time>
      </trkpt>
      <trkpt lat="48.5761" lon="1.95796">
        <ele>116</ele>
        <time>2011-04-19T08:24:02.000Z</time>
      </trkpt>
      <trkpt lat="48.57612" lon="1.95782">
        <ele>115.40000152588</ele>
        <time>2011-04-19T08:24:09.000Z</time>
      </trkpt>
      <trkpt lat="48.57609" lon="1.95769">
        <ele>114.59999847412</ele>
        <time>2011-04-19T08:24:15.000Z</time>
      </trkpt>
      <trkpt lat="48.57607" lon="1.95757">
        <ele>113.59999847412</ele>
        <time>2011-04-19T08:24:21.000Z</time>
      </trkpt>
      <trkpt lat="48.57605" lon="1.95745">
        <ele>113.59999847412</ele>
        <time>2011-04-19T08:24:27.000Z</time>
      </trkpt>
      <trkpt lat="48.57604" lon="1.95733">
        <ele>112.59999847412</ele>
        <time>2011-04-19T08:24:33.000Z</time>
      </trkpt>
      <trkpt lat="48.57603" lon="1.95729">
        <ele>112.59999847412</ele>
        <time>2011-04-19T08:24:35.000Z</time>
      </trkpt>
      <trkpt lat="48.57602" lon="1.95729">
        <ele>113.59999847412</ele>
        <time>2011-04-19T08:24:38.000Z</time>
      </trkpt>
      <trkpt lat="48.576" lon="1.95722">
        <ele>114</ele>
        <time>2011-04-19T08:24:43.000Z</time>
      </trkpt>
      <trkpt lat="48.57597" lon="1.95708">
        <ele>114</ele>
        <time>2011-04-19T08:24:48.000Z</time>
      </trkpt>
      <trkpt lat="48.57597" lon="1.95706">
        <ele>114</ele>
        <time>2011-04-19T08:24:49.000Z</time>
      </trkpt>
      <trkpt lat="48.57595" lon="1.95689">
        <ele>113.59999847412</ele>
        <time>2011-04-19T08:24:56.000Z</time>
      </trkpt>
      <trkpt lat="48.57589" lon="1.95672">
        <ele>113.59999847412</ele>
        <time>2011-04-19T08:25:04.000Z</time>
      </trkpt>
      <trkpt lat="48.57584" lon="1.95651">
        <ele>113</ele>
        <time>2011-04-19T08:25:13.000Z</time>
      </trkpt>
      <trkpt lat="48.57581" lon="1.95631">
        <ele>112.59999847412</ele>
        <time>2011-04-19T08:25:22.000Z</time>
      </trkpt>
      <trkpt lat="48.57576" lon="1.95607">
        <ele>112.19999694824</ele>
        <time>2011-04-19T08:25:33.000Z</time>
      </trkpt>
      <trkpt lat="48.57571" lon="1.95584">
        <ele>112.19999694824</ele>
        <time>2011-04-19T08:25:44.000Z</time>
      </trkpt>
      <trkpt lat="48.57569" lon="1.95574">
        <ele>112.19999694824</ele>
        <time>2011-04-19T08:25:49.000Z</time>
      </trkpt>
      <trkpt lat="48.57563" lon="1.95544">
        <ele>112.19999694824</ele>
        <time>2011-04-19T08:26:03.000Z</time>
      </trkpt>
      <trkpt lat="48.57559" lon="1.95525">
        <ele>112.19999694824</ele>
        <time>2011-04-19T08:26:12.000Z</time>
      </trkpt>
      <trkpt lat="48.57555" lon="1.95511">
        <ele>111.59999847412</ele>
        <time>2011-04-19T08:26:19.000Z</time>
      </trkpt>
      <trkpt lat="48.57552" lon="1.95494">
        <ele>111.59999847412</ele>
        <time>2011-04-19T08:26:27.000Z</time>
      </trkpt>
      <trkpt lat="48.57547" lon="1.95469">
        <ele>111.59999847412</ele>
        <time>2011-04-19T08:26:39.000Z</time>
      </trkpt>
      <trkpt lat="48.57543" lon="1.95447">
        <ele>112.19999694824</ele>
        <time>2011-04-19T08:26:49.000Z</time>
      </trkpt>
      <trkpt lat="48.57541" lon="1.95433">
        <ele>112.19999694824</ele>
        <time>2011-04-19T08:26:56.000Z</time>
      </trkpt>
      <trkpt lat="48.57539" lon="1.95423">
        <ele>111.59999847412</ele>
        <time>2011-04-19T08:27:04.000Z</time>
      </trkpt>
      <trkpt lat="48.57544" lon="1.95419">
        <ele>112.19999694824</ele>
        <time>2011-04-19T08:27:11.000Z</time>
      </trkpt>
      <trkpt lat="48.57549" lon="1.95429">
        <ele>112.19999694824</ele>
        <time>2011-04-19T08:27:16.000Z</time>
      </trkpt>
      <trkpt lat="48.57554" lon="1.95442">
        <ele>111.59999847412</ele>
        <time>2011-04-19T08:27:23.000Z</time>
      </trkpt>
      <trkpt lat="48.57554" lon="1.95444">
        <ele>111.59999847412</ele>
        <time>2011-04-19T08:27:24.000Z</time>
      </trkpt>
      <trkpt lat="48.57557" lon="1.95446">
        <ele>112.19999694824</ele>
        <time>2011-04-19T08:27:29.000Z</time>
      </trkpt>
      <trkpt lat="48.57558" lon="1.95451">
        <ele>111.19999694824</ele>
        <time>2011-04-19T08:28:50.000Z</time>
      </trkpt>
      <trkpt lat="48.57557" lon="1.95436">
        <ele>111.19999694824</ele>
        <time>2011-04-19T08:28:57.000Z</time>
      </trkpt>
      <trkpt lat="48.57554" lon="1.95428">
        <ele>111.19999694824</ele>
        <time>2011-04-19T08:29:04.000Z</time>
      </trkpt>
      <trkpt lat="48.57549" lon="1.95417">
        <ele>111.19999694824</ele>
        <time>2011-04-19T08:29:11.000Z</time>
      </trkpt>
      <trkpt lat="48.57542" lon="1.95404">
        <ele>111.19999694824</ele>
        <time>2011-04-19T08:29:20.000Z</time>
      </trkpt>
      <trkpt lat="48.57537" lon="1.95395">
        <ele>111.19999694824</ele>
        <time>2011-04-19T08:29:26.000Z</time>
      </trkpt>
      <trkpt lat="48.57535" lon="1.95379">
        <ele>112.19999694824</ele>
        <time>2011-04-19T08:29:34.000Z</time>
      </trkpt>
      <trkpt lat="48.57531" lon="1.95361">
        <ele>112.19999694824</ele>
        <time>2011-04-19T08:29:43.000Z</time>
      </trkpt>
      <trkpt lat="48.57526" lon="1.95337">
        <ele>112.19999694824</ele>
        <time>2011-04-19T08:29:55.000Z</time>
      </trkpt>
      <trkpt lat="48.57522" lon="1.95318">
        <ele>112.19999694824</ele>
        <time>2011-04-19T08:30:05.000Z</time>
      </trkpt>
      <trkpt lat="48.57517" lon="1.95293">
        <ele>112.19999694824</ele>
        <time>2011-04-19T08:30:17.000Z</time>
      </trkpt>
      <trkpt lat="48.57516" lon="1.95285">
        <ele>112.19999694824</ele>
        <time>2011-04-19T08:30:21.000Z</time>
      </trkpt>
      <trkpt lat="48.57512" lon="1.95263">
        <ele>111.19999694824</ele>
        <time>2011-04-19T08:30:31.000Z</time>
      </trkpt>
      <trkpt lat="48.57512" lon="1.95261">
        <ele>111.59999847412</ele>
        <time>2011-04-19T08:30:34.000Z</time>
      </trkpt>
      <trkpt lat="48.57517" lon="1.95251">
        <ele>113</ele>
        <time>2011-04-19T08:31:03.000Z</time>
      </trkpt>
      <trkpt lat="48.57526" lon="1.95243">
        <ele>113.59999847412</ele>
        <time>2011-04-19T08:31:10.000Z</time>
      </trkpt>
      <trkpt lat="48.57536" lon="1.95238">
        <ele>115</ele>
        <time>2011-04-19T08:31:18.000Z</time>
      </trkpt>
      <trkpt lat="48.57546" lon="1.95234">
        <ele>116</ele>
        <time>2011-04-19T08:31:26.000Z</time>
      </trkpt>
      <trkpt lat="48.57561" lon="1.95229">
        <ele>117</ele>
        <time>2011-04-19T08:31:37.000Z</time>
      </trkpt>
      <trkpt lat="48.57578" lon="1.9522">
        <ele>117.40000152588</ele>
        <time>2011-04-19T08:31:50.000Z</time>
      </trkpt>
      <trkpt lat="48.57586" lon="1.95216">
        <ele>117.40000152588</ele>
        <time>2011-04-19T08:31:56.000Z</time>
      </trkpt>
      <trkpt lat="48.57599" lon="1.95209">
        <ele>116</ele>
        <time>2011-04-19T08:32:06.000Z</time>
      </trkpt>
      <trkpt lat="48.57608" lon="1.95206">
        <ele>116</ele>
        <time>2011-04-19T08:32:13.000Z</time>
      </trkpt>
      <trkpt lat="48.57618" lon="1.95203">
        <ele>116</ele>
        <time>2011-04-19T08:32:20.000Z</time>
      </trkpt>
      <trkpt lat="48.57628" lon="1.95198">
        <ele>115.40000152588</ele>
        <time>2011-04-19T08:32:28.000Z</time>
      </trkpt>
      <trkpt lat="48.57638" lon="1.95191">
        <ele>117</ele>
        <time>2011-04-19T08:32:35.000Z</time>
      </trkpt>
      <trkpt lat="48.57652" lon="1.95183">
        <ele>117.40000152588</ele>
        <time>2011-04-19T08:32:46.000Z</time>
      </trkpt>
      <trkpt lat="48.57666" lon="1.95177">
        <ele>117.80000305176</ele>
        <time>2011-04-19T08:32:56.000Z</time>
      </trkpt>
      <trkpt lat="48.57678" lon="1.95171">
        <ele>118.40000152588</ele>
        <time>2011-04-19T08:33:05.000Z</time>
      </trkpt>
      <trkpt lat="48.5769" lon="1.9516">
        <ele>118.80000305176</ele>
        <time>2011-04-19T08:33:15.000Z</time>
      </trkpt>
      <trkpt lat="48.57711" lon="1.9515">
        <ele>118.80000305176</ele>
        <time>2011-04-19T08:33:30.000Z</time>
      </trkpt>
      <trkpt lat="48.57729" lon="1.95141">
        <ele>119.40000152588</ele>
        <time>2011-04-19T08:33:43.000Z</time>
      </trkpt>
      <trkpt lat="48.57738" lon="1.95135">
        <ele>118.80000305176</ele>
        <time>2011-04-19T08:33:50.000Z</time>
      </trkpt>
      <trkpt lat="48.57745" lon="1.95126">
        <ele>118.40000152588</ele>
        <time>2011-04-19T08:33:57.000Z</time>
      </trkpt>
      <trkpt lat="48.57748" lon="1.95112">
        <ele>117.40000152588</ele>
        <time>2011-04-19T08:34:05.000Z</time>
      </trkpt>
      <trkpt lat="48.57746" lon="1.95093">
        <ele>117</ele>
        <time>2011-04-19T08:34:14.000Z</time>
      </trkpt>
      <trkpt lat="48.57742" lon="1.95068">
        <ele>117.40000152588</ele>
        <time>2011-04-19T08:34:26.000Z</time>
      </trkpt>
      <trkpt lat="48.57738" lon="1.9505">
        <ele>117.40000152588</ele>
        <time>2011-04-19T08:34:35.000Z</time>
      </trkpt>
      <trkpt lat="48.57738" lon="1.95047">
        <ele>117.40000152588</ele>
        <time>2011-04-19T08:34:36.000Z</time>
      </trkpt>
      <trkpt lat="48.57737" lon="1.95039">
        <ele>117.80000305176</ele>
        <time>2011-04-19T08:34:40.000Z</time>
      </trkpt>
      <trkpt lat="48.57736" lon="1.95029">
        <ele>117.40000152588</ele>
        <time>2011-04-19T08:34:45.000Z</time>
      </trkpt>
      <trkpt lat="48.57735" lon="1.95016">
        <ele>117.40000152588</ele>
        <time>2011-04-19T08:34:51.000Z</time>
      </trkpt>
      <trkpt lat="48.57735" lon="1.95008">
        <ele>117.40000152588</ele>
        <time>2011-04-19T08:34:55.000Z</time>
      </trkpt>
      <trkpt lat="48.57738" lon="1.94992">
        <ele>117.80000305176</ele>
        <time>2011-04-19T08:35:03.000Z</time>
      </trkpt>
      <trkpt lat="48.57741" lon="1.94984">
        <ele>118.40000152588</ele>
        <time>2011-04-19T08:35:08.000Z</time>
      </trkpt>
      <trkpt lat="48.57742" lon="1.9497">
        <ele>118.40000152588</ele>
        <time>2011-04-19T08:35:15.000Z</time>
      </trkpt>
      <trkpt lat="48.57743" lon="1.9496">
        <ele>118.40000152588</ele>
        <time>2011-04-19T08:35:20.000Z</time>
      </trkpt>
      <trkpt lat="48.57749" lon="1.94937">
        <ele>118.40000152588</ele>
        <time>2011-04-19T08:35:32.000Z</time>
      </trkpt>
      <trkpt lat="48.57754" lon="1.94915">
        <ele>118.80000305176</ele>
        <time>2011-04-19T08:35:43.000Z</time>
      </trkpt>
      <trkpt lat="48.57758" lon="1.949">
        <ele>118.80000305176</ele>
        <time>2011-04-19T08:35:51.000Z</time>
      </trkpt>
      <trkpt lat="48.57761" lon="1.94888">
        <ele>118.80000305176</ele>
        <time>2011-04-19T08:35:58.000Z</time>
      </trkpt>
      <trkpt lat="48.5776" lon="1.94883">
        <ele>118.80000305176</ele>
        <time>2011-04-19T08:36:01.000Z</time>
      </trkpt>
      <trkpt lat="48.5776" lon="1.94869">
        <ele>118.40000152588</ele>
        <time>2011-04-19T08:36:08.000Z</time>
      </trkpt>
      <trkpt lat="48.57765" lon="1.94858">
        <ele>118.40000152588</ele>
        <time>2011-04-19T08:36:15.000Z</time>
      </trkpt>
      <trkpt lat="48.57775" lon="1.94847">
        <ele>119.40000152588</ele>
        <time>2011-04-19T08:36:23.000Z</time>
      </trkpt>
      <trkpt lat="48.5778" lon="1.94841">
        <ele>119.80000305176</ele>
        <time>2011-04-19T08:36:28.000Z</time>
      </trkpt>
      <trkpt lat="48.57784" lon="1.94827">
        <ele>120.80000305176</ele>
        <time>2011-04-19T08:36:36.000Z</time>
      </trkpt>
      <trkpt lat="48.57783" lon="1.94815">
        <ele>120.80000305176</ele>
        <time>2011-04-19T08:36:43.000Z</time>
      </trkpt>
      <trkpt lat="48.57778" lon="1.94796">
        <ele>120.80000305176</ele>
        <time>2011-04-19T08:36:53.000Z</time>
      </trkpt>
      <trkpt lat="48.57774" lon="1.94783">
        <ele>121.19999694824</ele>
        <time>2011-04-19T08:37:01.000Z</time>
      </trkpt>
      <trkpt lat="48.57773" lon="1.94779">
        <ele>121.19999694824</ele>
        <time>2011-04-19T08:37:04.000Z</time>
      </trkpt>
      <trkpt lat="48.57767" lon="1.94764">
        <ele>120.80000305176</ele>
        <time>2011-04-19T08:37:14.000Z</time>
      </trkpt>
      <trkpt lat="48.57766" lon="1.94757">
        <ele>119.80000305176</ele>
        <time>2011-04-19T08:37:18.000Z</time>
      </trkpt>
      <trkpt lat="48.57763" lon="1.94747">
        <ele>119.40000152588</ele>
        <time>2011-04-19T08:37:24.000Z</time>
      </trkpt>
      <trkpt lat="48.57759" lon="1.94742">
        <ele>120.40000152588</ele>
        <time>2011-04-19T08:37:27.000Z</time>
      </trkpt>
      <trkpt lat="48.5775" lon="1.94728">
        <ele>123.19999694824</ele>
        <time>2011-04-19T08:37:36.000Z</time>
      </trkpt>
      <trkpt lat="48.57746" lon="1.94713">
        <ele>123.19999694824</ele>
        <time>2011-04-19T08:37:43.000Z</time>
      </trkpt>
      <trkpt lat="48.57743" lon="1.947">
        <ele>123.59999847412</ele>
        <time>2011-04-19T08:37:50.000Z</time>
      </trkpt>
      <trkpt lat="48.57741" lon="1.94697">
        <ele>123.19999694824</ele>
        <time>2011-04-19T08:37:55.000Z</time>
      </trkpt>
      <trkpt lat="48.57739" lon="1.94688">
        <ele>122.80000305176</ele>
        <time>2011-04-19T08:38:03.000Z</time>
      </trkpt>
      <trkpt lat="48.57736" lon="1.94679">
        <ele>122.80000305176</ele>
        <time>2011-04-19T08:38:08.000Z</time>
      </trkpt>
      <trkpt lat="48.57731" lon="1.94662">
        <ele>122.19999694824</ele>
        <time>2011-04-19T08:38:17.000Z</time>
      </trkpt>
      <trkpt lat="48.5773" lon="1.94655">
        <ele>122.19999694824</ele>
        <time>2011-04-19T08:38:21.000Z</time>
      </trkpt>
      <trkpt lat="48.57727" lon="1.94647">
        <ele>123.19999694824</ele>
        <time>2011-04-19T08:38:26.000Z</time>
      </trkpt>
      <trkpt lat="48.57721" lon="1.94631">
        <ele>124.59999847412</ele>
        <time>2011-04-19T08:38:35.000Z</time>
      </trkpt>
      <trkpt lat="48.57718" lon="1.94618">
        <ele>123.59999847412</ele>
        <time>2011-04-19T08:38:42.000Z</time>
      </trkpt>
      <trkpt lat="48.57714" lon="1.94607">
        <ele>123.59999847412</ele>
        <time>2011-04-19T08:38:49.000Z</time>
      </trkpt>
      <trkpt lat="48.57713" lon="1.94604">
        <ele>123.59999847412</ele>
        <time>2011-04-19T08:38:51.000Z</time>
      </trkpt>
      <trkpt lat="48.57711" lon="1.94596">
        <ele>123.59999847412</ele>
        <time>2011-04-19T08:38:55.000Z</time>
      </trkpt>
      <trkpt lat="48.57705" lon="1.9458">
        <ele>124.19999694824</ele>
        <time>2011-04-19T08:39:04.000Z</time>
      </trkpt>
      <trkpt lat="48.57701" lon="1.94569">
        <ele>124.19999694824</ele>
        <time>2011-04-19T08:39:11.000Z</time>
      </trkpt>
      <trkpt lat="48.57696" lon="1.94557">
        <ele>123.59999847412</ele>
        <time>2011-04-19T08:39:18.000Z</time>
      </trkpt>
      <trkpt lat="48.57695" lon="1.94553">
        <ele>124.19999694824</ele>
        <time>2011-04-19T08:39:20.000Z</time>
      </trkpt>
      <trkpt lat="48.57689" lon="1.94543">
        <ele>125.59999847412</ele>
        <time>2011-04-19T08:39:26.000Z</time>
      </trkpt>
      <trkpt lat="48.57685" lon="1.94529">
        <ele>125.59999847412</ele>
        <time>2011-04-19T08:39:34.000Z</time>
      </trkpt>
      <trkpt lat="48.57679" lon="1.94514">
        <ele>127</ele>
        <time>2011-04-19T08:39:43.000Z</time>
      </trkpt>
      <trkpt lat="48.57675" lon="1.94506">
        <ele>127</ele>
        <time>2011-04-19T08:39:48.000Z</time>
      </trkpt>
      <trkpt lat="48.57672" lon="1.945">
        <ele>127.59999847412</ele>
        <time>2011-04-19T08:39:52.000Z</time>
      </trkpt>
      <trkpt lat="48.57669" lon="1.94495">
        <ele>127</ele>
        <time>2011-04-19T08:39:57.000Z</time>
      </trkpt>
      <trkpt lat="48.57663" lon="1.94485">
        <ele>127</ele>
        <time>2011-04-19T08:40:04.000Z</time>
      </trkpt>
      <trkpt lat="48.57659" lon="1.94477">
        <ele>126</ele>
        <time>2011-04-19T08:40:09.000Z</time>
      </trkpt>
      <trkpt lat="48.57653" lon="1.94464">
        <ele>126.59999847412</ele>
        <time>2011-04-19T08:40:17.000Z</time>
      </trkpt>
      <trkpt lat="48.57649" lon="1.94454">
        <ele>126.59999847412</ele>
        <time>2011-04-19T08:40:22.000Z</time>
      </trkpt>
      <trkpt lat="48.57643" lon="1.9444">
        <ele>125.19999694824</ele>
        <time>2011-04-19T08:40:30.000Z</time>
      </trkpt>
      <trkpt lat="48.57637" lon="1.94427">
        <ele>124.19999694824</ele>
        <time>2011-04-19T08:40:38.000Z</time>
      </trkpt>
      <trkpt lat="48.57634" lon="1.94412">
        <ele>122.19999694824</ele>
        <time>2011-04-19T08:40:46.000Z</time>
      </trkpt>
      <trkpt lat="48.5763" lon="1.944">
        <ele>123.19999694824</ele>
        <time>2011-04-19T08:40:52.000Z</time>
      </trkpt>
      <trkpt lat="48.57625" lon="1.94387">
        <ele>124.59999847412</ele>
        <time>2011-04-19T08:40:59.000Z</time>
      </trkpt>
      <trkpt lat="48.57623" lon="1.94382">
        <ele>125.19999694824</ele>
        <time>2011-04-19T08:41:02.000Z</time>
      </trkpt>
      <trkpt lat="48.57614" lon="1.9437">
        <ele>125.59999847412</ele>
        <time>2011-04-19T08:41:10.000Z</time>
      </trkpt>
      <trkpt lat="48.57606" lon="1.94357">
        <ele>125.59999847412</ele>
        <time>2011-04-19T08:41:18.000Z</time>
      </trkpt>
      <trkpt lat="48.57599" lon="1.94342">
        <ele>125.19999694824</ele>
        <time>2011-04-19T08:41:26.000Z</time>
      </trkpt>
      <trkpt lat="48.57595" lon="1.94327">
        <ele>125.19999694824</ele>
        <time>2011-04-19T08:41:33.000Z</time>
      </trkpt>
      <trkpt lat="48.57591" lon="1.94317">
        <ele>125.19999694824</ele>
        <time>2011-04-19T08:41:39.000Z</time>
      </trkpt>
      <trkpt lat="48.57585" lon="1.94305">
        <ele>126</ele>
        <time>2011-04-19T08:41:46.000Z</time>
      </trkpt>
      <trkpt lat="48.57582" lon="1.94295">
        <ele>126.59999847412</ele>
        <time>2011-04-19T08:41:51.000Z</time>
      </trkpt>
      <trkpt lat="48.57576" lon="1.94284">
        <ele>125.59999847412</ele>
        <time>2011-04-19T08:41:58.000Z</time>
      </trkpt>
      <trkpt lat="48.57567" lon="1.94272">
        <ele>125.59999847412</ele>
        <time>2011-04-19T08:42:06.000Z</time>
      </trkpt>
      <trkpt lat="48.57561" lon="1.94263">
        <ele>125.19999694824</ele>
        <time>2011-04-19T08:42:12.000Z</time>
      </trkpt>
      <trkpt lat="48.57557" lon="1.94253">
        <ele>125.19999694824</ele>
        <time>2011-04-19T08:42:18.000Z</time>
      </trkpt>
      <trkpt lat="48.57551" lon="1.9424">
        <ele>126</ele>
        <time>2011-04-19T08:42:26.000Z</time>
      </trkpt>
      <trkpt lat="48.57546" lon="1.94228">
        <ele>126</ele>
        <time>2011-04-19T08:42:33.000Z</time>
      </trkpt>
      <trkpt lat="48.57543" lon="1.94223">
        <ele>126</ele>
        <time>2011-04-19T08:42:38.000Z</time>
      </trkpt>
      <trkpt lat="48.57539" lon="1.94212">
        <ele>126</ele>
        <time>2011-04-19T08:42:45.000Z</time>
      </trkpt>
      <trkpt lat="48.57539" lon="1.94212">
        <ele>126</ele>
        <time>2011-04-19T08:42:46.000Z</time>
      </trkpt>
      <trkpt lat="48.5754" lon="1.94194">
        <ele>126</ele>
        <time>2011-04-19T08:43:06.000Z</time>
      </trkpt>
      <trkpt lat="48.57539" lon="1.9419">
        <ele>125.59999847412</ele>
        <time>2011-04-19T08:43:07.000Z</time>
      </trkpt>
      <trkpt lat="48.57535" lon="1.94176">
        <ele>126.59999847412</ele>
        <time>2011-04-19T08:43:14.000Z</time>
      </trkpt>
      <trkpt lat="48.57529" lon="1.94161">
        <ele>126</ele>
        <time>2011-04-19T08:43:23.000Z</time>
      </trkpt>
      <trkpt lat="48.57525" lon="1.94151">
        <ele>126</ele>
        <time>2011-04-19T08:43:30.000Z</time>
      </trkpt>
      <trkpt lat="48.57518" lon="1.9414">
        <ele>126</ele>
        <time>2011-04-19T08:43:37.000Z</time>
      </trkpt>
      <trkpt lat="48.57512" lon="1.94128">
        <ele>126.59999847412</ele>
        <time>2011-04-19T08:43:44.000Z</time>
      </trkpt>
      <trkpt lat="48.57508" lon="1.9412">
        <ele>126</ele>
        <time>2011-04-19T08:43:49.000Z</time>
      </trkpt>
      <trkpt lat="48.57506" lon="1.94108">
        <ele>125.59999847412</ele>
        <time>2011-04-19T08:43:56.000Z</time>
      </trkpt>
      <trkpt lat="48.57502" lon="1.94102">
        <ele>125.59999847412</ele>
        <time>2011-04-19T08:44:00.000Z</time>
      </trkpt>
      <trkpt lat="48.57499" lon="1.94094">
        <ele>126</ele>
        <time>2011-04-19T08:44:05.000Z</time>
      </trkpt>
      <trkpt lat="48.57498" lon="1.94091">
        <ele>126</ele>
        <time>2011-04-19T08:44:07.000Z</time>
      </trkpt>
      <trkpt lat="48.57494" lon="1.94079">
        <ele>125.59999847412</ele>
        <time>2011-04-19T08:44:13.000Z</time>
      </trkpt>
      <trkpt lat="48.57492" lon="1.94076">
        <ele>125.59999847412</ele>
        <time>2011-04-19T08:44:17.000Z</time>
      </trkpt>
      <trkpt lat="48.57488" lon="1.94071">
        <ele>126.59999847412</ele>
        <time>2011-04-19T08:44:24.000Z</time>
      </trkpt>
      <trkpt lat="48.57483" lon="1.94064">
        <ele>127</ele>
        <time>2011-04-19T08:44:28.000Z</time>
      </trkpt>
      <trkpt lat="48.57478" lon="1.94047">
        <ele>127</ele>
        <time>2011-04-19T08:44:37.000Z</time>
      </trkpt>
      <trkpt lat="48.57478" lon="1.94045">
        <ele>127</ele>
        <time>2011-04-19T08:44:38.000Z</time>
      </trkpt>
      <trkpt lat="48.57476" lon="1.94036">
        <ele>127</ele>
        <time>2011-04-19T08:44:43.000Z</time>
      </trkpt>
      <trkpt lat="48.57471" lon="1.94021">
        <ele>127</ele>
        <time>2011-04-19T08:44:51.000Z</time>
      </trkpt>
      <trkpt lat="48.57463" lon="1.94006">
        <ele>127</ele>
        <time>2011-04-19T08:45:00.000Z</time>
      </trkpt>
      <trkpt lat="48.57457" lon="1.93994">
        <ele>128</ele>
        <time>2011-04-19T08:45:08.000Z</time>
      </trkpt>
      <trkpt lat="48.57449" lon="1.9398">
        <ele>128.39999389648</ele>
        <time>2011-04-19T08:45:18.000Z</time>
      </trkpt>
      <trkpt lat="48.57443" lon="1.93969">
        <ele>128.39999389648</ele>
        <time>2011-04-19T08:45:25.000Z</time>
      </trkpt>
      <trkpt lat="48.57438" lon="1.93951">
        <ele>129</ele>
        <time>2011-04-19T08:45:35.000Z</time>
      </trkpt>
      <trkpt lat="48.57436" lon="1.93938">
        <ele>129.39999389648</ele>
        <time>2011-04-19T08:45:42.000Z</time>
      </trkpt>
      <trkpt lat="48.57434" lon="1.93924">
        <ele>130.39999389648</ele>
        <time>2011-04-19T08:45:50.000Z</time>
      </trkpt>
      <trkpt lat="48.57436" lon="1.93914">
        <ele>130.80000305176</ele>
        <time>2011-04-19T08:45:55.000Z</time>
      </trkpt>
      <trkpt lat="48.57442" lon="1.939">
        <ele>131.39999389648</ele>
        <time>2011-04-19T08:46:04.000Z</time>
      </trkpt>
      <trkpt lat="48.57444" lon="1.93893">
        <ele>131.80000305176</ele>
        <time>2011-04-19T08:46:08.000Z</time>
      </trkpt>
      <trkpt lat="48.57443" lon="1.93879">
        <ele>132.39999389648</ele>
        <time>2011-04-19T08:46:15.000Z</time>
      </trkpt>
      <trkpt lat="48.57445" lon="1.93865">
        <ele>132.39999389648</ele>
        <time>2011-04-19T08:46:22.000Z</time>
      </trkpt>
      <trkpt lat="48.57447" lon="1.9385">
        <ele>132.80000305176</ele>
        <time>2011-04-19T08:46:30.000Z</time>
      </trkpt>
      <trkpt lat="48.5745" lon="1.93835">
        <ele>132.80000305176</ele>
        <time>2011-04-19T08:46:38.000Z</time>
      </trkpt>
      <trkpt lat="48.57453" lon="1.93827">
        <ele>132.80000305176</ele>
        <time>2011-04-19T08:46:45.000Z</time>
      </trkpt>
      <trkpt lat="48.57455" lon="1.93816">
        <ele>133.80000305176</ele>
        <time>2011-04-19T08:47:33.000Z</time>
      </trkpt>
      <trkpt lat="48.57456" lon="1.93814">
        <ele>133.80000305176</ele>
        <time>2011-04-19T08:47:34.000Z</time>
      </trkpt>
      <trkpt lat="48.5746" lon="1.93805">
        <ele>133.80000305176</ele>
        <time>2011-04-19T08:47:38.000Z</time>
      </trkpt>
      <trkpt lat="48.57466" lon="1.93788">
        <ele>133.19999694824</ele>
        <time>2011-04-19T08:47:47.000Z</time>
      </trkpt>
      <trkpt lat="48.57468" lon="1.93784">
        <ele>132.80000305176</ele>
        <time>2011-04-19T08:47:52.000Z</time>
      </trkpt>
      <trkpt lat="48.57469" lon="1.93778">
        <ele>132.80000305176</ele>
        <time>2011-04-19T08:47:59.000Z</time>
      </trkpt>
      <trkpt lat="48.57472" lon="1.93764">
        <ele>133.19999694824</ele>
        <time>2011-04-19T08:48:05.000Z</time>
      </trkpt>
      <trkpt lat="48.57476" lon="1.93748">
        <ele>133.80000305176</ele>
        <time>2011-04-19T08:48:13.000Z</time>
      </trkpt>
      <trkpt lat="48.57477" lon="1.93742">
        <ele>133.19999694824</ele>
        <time>2011-04-19T08:48:19.000Z</time>
      </trkpt>
      <trkpt lat="48.57479" lon="1.93729">
        <ele>130.80000305176</ele>
        <time>2011-04-19T08:48:30.000Z</time>
      </trkpt>
      <trkpt lat="48.57481" lon="1.93708">
        <ele>132.80000305176</ele>
        <time>2011-04-19T08:48:39.000Z</time>
      </trkpt>
      <trkpt lat="48.57482" lon="1.93692">
        <ele>134.80000305176</ele>
        <time>2011-04-19T08:48:47.000Z</time>
      </trkpt>
      <trkpt lat="48.57483" lon="1.93683">
        <ele>133.19999694824</ele>
        <time>2011-04-19T08:48:53.000Z</time>
      </trkpt>
      <trkpt lat="48.57483" lon="1.93682">
        <ele>132.80000305176</ele>
        <time>2011-04-19T08:48:56.000Z</time>
      </trkpt>
      <trkpt lat="48.57483" lon="1.93656">
        <ele>129.39999389648</ele>
        <time>2011-04-19T08:49:13.000Z</time>
      </trkpt>
      <trkpt lat="48.57484" lon="1.93641">
        <ele>126</ele>
        <time>2011-04-19T08:49:20.000Z</time>
      </trkpt>
      <trkpt lat="48.57484" lon="1.93639">
        <ele>126</ele>
        <time>2011-04-19T08:49:21.000Z</time>
      </trkpt>
      <trkpt lat="48.57485" lon="1.93628">
        <ele>124.59999847412</ele>
        <time>2011-04-19T08:49:27.000Z</time>
      </trkpt>
      <trkpt lat="48.57486" lon="1.93619">
        <ele>123.59999847412</ele>
        <time>2011-04-19T08:49:32.000Z</time>
      </trkpt>
      <trkpt lat="48.57488" lon="1.93613">
        <ele>126</ele>
        <time>2011-04-19T08:49:35.000Z</time>
      </trkpt>
      <trkpt lat="48.57489" lon="1.93599">
        <ele>126.59999847412</ele>
        <time>2011-04-19T08:49:42.000Z</time>
      </trkpt>
      <trkpt lat="48.5749" lon="1.93588">
        <ele>131.39999389648</ele>
        <time>2011-04-19T08:49:47.000Z</time>
      </trkpt>
      <trkpt lat="48.57492" lon="1.93575">
        <ele>132.39999389648</ele>
        <time>2011-04-19T08:49:54.000Z</time>
      </trkpt>
      <trkpt lat="48.57494" lon="1.9356">
        <ele>129.39999389648</ele>
        <time>2011-04-19T08:50:02.000Z</time>
      </trkpt>
      <trkpt lat="48.57497" lon="1.93549">
        <ele>125.19999694824</ele>
        <time>2011-04-19T08:50:09.000Z</time>
      </trkpt>
      <trkpt lat="48.57501" lon="1.93541">
        <ele>122.80000305176</ele>
        <time>2011-04-19T08:50:15.000Z</time>
      </trkpt>
      <trkpt lat="48.57502" lon="1.93536">
        <ele>120.80000305176</ele>
        <time>2011-04-19T08:50:18.000Z</time>
      </trkpt>
      <trkpt lat="48.57505" lon="1.9353">
        <ele>117.40000152588</ele>
        <time>2011-04-19T08:50:22.000Z</time>
      </trkpt>
      <trkpt lat="48.5751" lon="1.93517">
        <ele>111.59999847412</ele>
        <time>2011-04-19T08:50:30.000Z</time>
      </trkpt>
      <trkpt lat="48.57514" lon="1.93512">
        <ele>113</ele>
        <time>2011-04-19T08:50:34.000Z</time>
      </trkpt>
      <trkpt lat="48.57521" lon="1.93493">
        <ele>119.40000152588</ele>
        <time>2011-04-19T08:50:44.000Z</time>
      </trkpt>
      <trkpt lat="48.57526" lon="1.93484">
        <ele>117.40000152588</ele>
        <time>2011-04-19T08:50:50.000Z</time>
      </trkpt>
      <trkpt lat="48.57529" lon="1.93476">
        <ele>117.40000152588</ele>
        <time>2011-04-19T08:50:54.000Z</time>
      </trkpt>
      <trkpt lat="48.57535" lon="1.93463">
        <ele>115.40000152588</ele>
        <time>2011-04-19T08:51:02.000Z</time>
      </trkpt>
      <trkpt lat="48.57541" lon="1.9345">
        <ele>118.40000152588</ele>
        <time>2011-04-19T08:51:09.000Z</time>
      </trkpt>
      <trkpt lat="48.57547" lon="1.93436">
        <ele>124.59999847412</ele>
        <time>2011-04-19T08:51:17.000Z</time>
      </trkpt>
      <trkpt lat="48.57553" lon="1.93424">
        <ele>129</ele>
        <time>2011-04-19T08:51:24.000Z</time>
      </trkpt>
      <trkpt lat="48.57557" lon="1.9341">
        <ele>134.19999694824</ele>
        <time>2011-04-19T08:51:32.000Z</time>
      </trkpt>
      <trkpt lat="48.57564" lon="1.93396">
        <ele>136.19999694824</ele>
        <time>2011-04-19T08:51:41.000Z</time>
      </trkpt>
      <trkpt lat="48.57564" lon="1.93396">
        <ele>136.19999694824</ele>
        <time>2011-04-19T08:51:42.000Z</time>
      </trkpt>
      <trkpt lat="48.57567" lon="1.9339">
        <ele>135.19999694824</ele>
        <time>2011-04-19T08:51:46.000Z</time>
      </trkpt>
      <trkpt lat="48.57577" lon="1.93375">
        <ele>132.80000305176</ele>
        <time>2011-04-19T08:51:57.000Z</time>
      </trkpt>
      <trkpt lat="48.57586" lon="1.93366">
        <ele>132.39999389648</ele>
        <time>2011-04-19T08:52:05.000Z</time>
      </trkpt>
      <trkpt lat="48.57591" lon="1.93359">
        <ele>133.19999694824</ele>
        <time>2011-04-19T08:52:11.000Z</time>
      </trkpt>
      <trkpt lat="48.57596" lon="1.93354">
        <ele>136.60000610352</ele>
        <time>2011-04-19T08:52:16.000Z</time>
      </trkpt>
      <trkpt lat="48.57605" lon="1.93342">
        <ele>139.60000610352</ele>
        <time>2011-04-19T08:52:24.000Z</time>
      </trkpt>
      <trkpt lat="48.57617" lon="1.93328">
        <ele>142.80000305176</ele>
        <time>2011-04-19T08:52:34.000Z</time>
      </trkpt>
      <trkpt lat="48.57625" lon="1.93316">
        <ele>147.60000610352</ele>
        <time>2011-04-19T08:52:42.000Z</time>
      </trkpt>
      <trkpt lat="48.57626" lon="1.93316">
        <ele>148.19999694824</ele>
        <time>2011-04-19T08:52:43.000Z</time>
      </trkpt>
      <trkpt lat="48.57634" lon="1.93314">
        <ele>150.19999694824</ele>
        <time>2011-04-19T08:52:49.000Z</time>
      </trkpt>
      <trkpt lat="48.57638" lon="1.9331">
        <ele>151.60000610352</ele>
        <time>2011-04-19T08:52:52.000Z</time>
      </trkpt>
      <trkpt lat="48.57651" lon="1.93297">
        <ele>155.39999389648</ele>
        <time>2011-04-19T08:53:02.000Z</time>
      </trkpt>
      <trkpt lat="48.57661" lon="1.93285">
        <ele>157.80000305176</ele>
        <time>2011-04-19T08:53:11.000Z</time>
      </trkpt>
      <trkpt lat="48.5767" lon="1.93274">
        <ele>159.19999694824</ele>
        <time>2011-04-19T08:53:19.000Z</time>
      </trkpt>
      <trkpt lat="48.57681" lon="1.93263">
        <ele>160.19999694824</ele>
        <time>2011-04-19T08:53:28.000Z</time>
      </trkpt>
      <trkpt lat="48.57693" lon="1.93251">
        <ele>161.60000610352</ele>
        <time>2011-04-19T08:53:38.000Z</time>
      </trkpt>
      <trkpt lat="48.57705" lon="1.9324">
        <ele>162.19999694824</ele>
        <time>2011-04-19T08:53:48.000Z</time>
      </trkpt>
      <trkpt lat="48.57714" lon="1.93231">
        <ele>162.60000610352</ele>
        <time>2011-04-19T08:53:56.000Z</time>
      </trkpt>
      <trkpt lat="48.57725" lon="1.93221">
        <ele>163</ele>
        <time>2011-04-19T08:54:05.000Z</time>
      </trkpt>
      <trkpt lat="48.57735" lon="1.93211">
        <ele>163</ele>
        <time>2011-04-19T08:54:14.000Z</time>
      </trkpt>
      <trkpt lat="48.57736" lon="1.9321">
        <ele>163</ele>
        <time>2011-04-19T08:54:15.000Z</time>
      </trkpt>
      <trkpt lat="48.57745" lon="1.93201">
        <ele>163.60000610352</ele>
        <time>2011-04-19T08:54:24.000Z</time>
      </trkpt>
      <trkpt lat="48.57753" lon="1.93194">
        <ele>163.60000610352</ele>
        <time>2011-04-19T08:54:31.000Z</time>
      </trkpt>
      <trkpt lat="48.57764" lon="1.93183">
        <ele>163.60000610352</ele>
        <time>2011-04-19T08:54:41.000Z</time>
      </trkpt>
      <trkpt lat="48.57773" lon="1.93174">
        <ele>163</ele>
        <time>2011-04-19T08:54:50.000Z</time>
      </trkpt>
      <trkpt lat="48.57782" lon="1.93166">
        <ele>162.60000610352</ele>
        <time>2011-04-19T08:54:58.000Z</time>
      </trkpt>
      <trkpt lat="48.57793" lon="1.93156">
        <ele>162.19999694824</ele>
        <time>2011-04-19T08:55:09.000Z</time>
      </trkpt>
      <trkpt lat="48.578" lon="1.9315">
        <ele>161.60000610352</ele>
        <time>2011-04-19T08:55:15.000Z</time>
      </trkpt>
      <trkpt lat="48.57808" lon="1.93143">
        <ele>161.60000610352</ele>
        <time>2011-04-19T08:55:22.000Z</time>
      </trkpt>
      <trkpt lat="48.57817" lon="1.93134">
        <ele>161.60000610352</ele>
        <time>2011-04-19T08:55:30.000Z</time>
      </trkpt>
      <trkpt lat="48.57829" lon="1.93123">
        <ele>161.60000610352</ele>
        <time>2011-04-19T08:55:40.000Z</time>
      </trkpt>
      <trkpt lat="48.57835" lon="1.93116">
        <ele>161.60000610352</ele>
        <time>2011-04-19T08:55:46.000Z</time>
      </trkpt>
      <trkpt lat="48.57842" lon="1.93105">
        <ele>161.60000610352</ele>
        <time>2011-04-19T08:55:54.000Z</time>
      </trkpt>
      <trkpt lat="48.57851" lon="1.93101">
        <ele>161.60000610352</ele>
        <time>2011-04-19T08:56:01.000Z</time>
      </trkpt>
      <trkpt lat="48.57857" lon="1.93096">
        <ele>161.60000610352</ele>
        <time>2011-04-19T08:56:07.000Z</time>
      </trkpt>
      <trkpt lat="48.57867" lon="1.93086">
        <ele>162.19999694824</ele>
        <time>2011-04-19T08:56:16.000Z</time>
      </trkpt>
      <trkpt lat="48.57878" lon="1.93076">
        <ele>162.60000610352</ele>
        <time>2011-04-19T08:56:25.000Z</time>
      </trkpt>
      <trkpt lat="48.57885" lon="1.9307">
        <ele>162.60000610352</ele>
        <time>2011-04-19T08:56:33.000Z</time>
      </trkpt>
      <trkpt lat="48.57888" lon="1.93067">
        <ele>163</ele>
        <time>2011-04-19T08:56:51.000Z</time>
      </trkpt>
      <trkpt lat="48.57901" lon="1.93055">
        <ele>163</ele>
        <time>2011-04-19T08:57:01.000Z</time>
      </trkpt>
      <trkpt lat="48.5791" lon="1.93046">
        <ele>164</ele>
        <time>2011-04-19T08:57:10.000Z</time>
      </trkpt>
      <trkpt lat="48.5792" lon="1.93038">
        <ele>164</ele>
        <time>2011-04-19T08:57:19.000Z</time>
      </trkpt>
      <trkpt lat="48.57929" lon="1.93031">
        <ele>164</ele>
        <time>2011-04-19T08:57:27.000Z</time>
      </trkpt>
      <trkpt lat="48.57939" lon="1.93024">
        <ele>164</ele>
        <time>2011-04-19T08:57:35.000Z</time>
      </trkpt>
      <trkpt lat="48.57953" lon="1.93015">
        <ele>164</ele>
        <time>2011-04-19T08:57:46.000Z</time>
      </trkpt>
      <trkpt lat="48.57966" lon="1.93008">
        <ele>163.60000610352</ele>
        <time>2011-04-19T08:57:57.000Z</time>
      </trkpt>
      <trkpt lat="48.57972" lon="1.93003">
        <ele>163.60000610352</ele>
        <time>2011-04-19T08:58:03.000Z</time>
      </trkpt>
      <trkpt lat="48.57984" lon="1.92997">
        <ele>164</ele>
        <time>2011-04-19T08:58:12.000Z</time>
      </trkpt>
      <trkpt lat="48.57994" lon="1.92991">
        <ele>163.60000610352</ele>
        <time>2011-04-19T08:58:20.000Z</time>
      </trkpt>
      <trkpt lat="48.58003" lon="1.92986">
        <ele>163</ele>
        <time>2011-04-19T08:58:27.000Z</time>
      </trkpt>
      <trkpt lat="48.58015" lon="1.9298">
        <ele>162.19999694824</ele>
        <time>2011-04-19T08:58:36.000Z</time>
      </trkpt>
      <trkpt lat="48.58026" lon="1.92974">
        <ele>162.19999694824</ele>
        <time>2011-04-19T08:58:45.000Z</time>
      </trkpt>
      <trkpt lat="48.58038" lon="1.92967">
        <ele>161.60000610352</ele>
        <time>2011-04-19T08:58:54.000Z</time>
      </trkpt>
      <trkpt lat="48.58048" lon="1.92962">
        <ele>161.19999694824</ele>
        <time>2011-04-19T08:59:02.000Z</time>
      </trkpt>
      <trkpt lat="48.58057" lon="1.92957">
        <ele>161.19999694824</ele>
        <time>2011-04-19T08:59:08.000Z</time>
      </trkpt>
      <trkpt lat="48.5806" lon="1.92954">
        <ele>161.19999694824</ele>
        <time>2011-04-19T08:59:12.000Z</time>
      </trkpt>
      <trkpt lat="48.58073" lon="1.92948">
        <ele>158.19999694824</ele>
        <time>2011-04-19T08:59:23.000Z</time>
      </trkpt>
      <trkpt lat="48.58084" lon="1.92942">
        <ele>155.80000305176</ele>
        <time>2011-04-19T08:59:33.000Z</time>
      </trkpt>
      <trkpt lat="48.58093" lon="1.92937">
        <ele>155.39999389648</ele>
        <time>2011-04-19T08:59:41.000Z</time>
      </trkpt>
      <trkpt lat="48.58105" lon="1.92929">
        <ele>156.80000305176</ele>
        <time>2011-04-19T08:59:50.000Z</time>
      </trkpt>
      <trkpt lat="48.58116" lon="1.92924">
        <ele>156.80000305176</ele>
        <time>2011-04-19T08:59:58.000Z</time>
      </trkpt>
      <trkpt lat="48.58124" lon="1.9292">
        <ele>156.80000305176</ele>
        <time>2011-04-19T09:00:04.000Z</time>
      </trkpt>
      <trkpt lat="48.58132" lon="1.92915">
        <ele>157.80000305176</ele>
        <time>2011-04-19T09:00:11.000Z</time>
      </trkpt>
      <trkpt lat="48.58137" lon="1.92911">
        <ele>157.39999389648</ele>
        <time>2011-04-19T09:00:15.000Z</time>
      </trkpt>
      <trkpt lat="48.58146" lon="1.92909">
        <ele>157.39999389648</ele>
        <time>2011-04-19T09:00:21.000Z</time>
      </trkpt>
      <trkpt lat="48.58156" lon="1.92905">
        <ele>156.39999389648</ele>
        <time>2011-04-19T09:00:29.000Z</time>
      </trkpt>
      <trkpt lat="48.58165" lon="1.929">
        <ele>158.80000305176</ele>
        <time>2011-04-19T09:00:37.000Z</time>
      </trkpt>
      <trkpt lat="48.5817" lon="1.92898">
        <ele>160.60000610352</ele>
        <time>2011-04-19T09:00:40.000Z</time>
      </trkpt>
      <trkpt lat="48.58178" lon="1.92894">
        <ele>163.60000610352</ele>
        <time>2011-04-19T09:00:46.000Z</time>
      </trkpt>
      <trkpt lat="48.58185" lon="1.92888">
        <ele>163.60000610352</ele>
        <time>2011-04-19T09:00:52.000Z</time>
      </trkpt>
      <trkpt lat="48.58191" lon="1.92882">
        <ele>164</ele>
        <time>2011-04-19T09:00:57.000Z</time>
      </trkpt>
      <trkpt lat="48.582" lon="1.92878">
        <ele>166</ele>
        <time>2011-04-19T09:01:03.000Z</time>
      </trkpt>
      <trkpt lat="48.58204" lon="1.92872">
        <ele>166</ele>
        <time>2011-04-19T09:01:07.000Z</time>
      </trkpt>
      <trkpt lat="48.5821" lon="1.92864">
        <ele>166</ele>
        <time>2011-04-19T09:01:12.000Z</time>
      </trkpt>
      <trkpt lat="48.58218" lon="1.92856">
        <ele>165</ele>
        <time>2011-04-19T09:01:19.000Z</time>
      </trkpt>
      <trkpt lat="48.58224" lon="1.92849">
        <ele>163.60000610352</ele>
        <time>2011-04-19T09:01:25.000Z</time>
      </trkpt>
      <trkpt lat="48.58227" lon="1.92844">
        <ele>164</ele>
        <time>2011-04-19T09:01:28.000Z</time>
      </trkpt>
      <trkpt lat="48.58232" lon="1.92836">
        <ele>165</ele>
        <time>2011-04-19T09:01:34.000Z</time>
      </trkpt>
      <trkpt lat="48.58242" lon="1.92821">
        <ele>165.39999389648</ele>
        <time>2011-04-19T09:01:43.000Z</time>
      </trkpt>
      <trkpt lat="48.58247" lon="1.92809">
        <ele>163.60000610352</ele>
        <time>2011-04-19T09:01:50.000Z</time>
      </trkpt>
      <trkpt lat="48.58253" lon="1.92799">
        <ele>163</ele>
        <time>2011-04-19T09:01:56.000Z</time>
      </trkpt>
      <trkpt lat="48.58258" lon="1.92785">
        <ele>160.60000610352</ele>
        <time>2011-04-19T09:02:04.000Z</time>
      </trkpt>
      <trkpt lat="48.5826" lon="1.92781">
        <ele>160.19999694824</ele>
        <time>2011-04-19T09:02:06.000Z</time>
      </trkpt>
      <trkpt lat="48.58268" lon="1.92771">
        <ele>158.80000305176</ele>
        <time>2011-04-19T09:02:13.000Z</time>
      </trkpt>
      <trkpt lat="48.58273" lon="1.9276">
        <ele>160.19999694824</ele>
        <time>2011-04-19T09:02:19.000Z</time>
      </trkpt>
      <trkpt lat="48.58274" lon="1.92756">
        <ele>159.80000305176</ele>
        <time>2011-04-19T09:02:21.000Z</time>
      </trkpt>
      <trkpt lat="48.58282" lon="1.92739">
        <ele>160.19999694824</ele>
        <time>2011-04-19T09:02:30.000Z</time>
      </trkpt>
      <trkpt lat="48.58287" lon="1.92726">
        <ele>158.19999694824</ele>
        <time>2011-04-19T09:02:37.000Z</time>
      </trkpt>
      <trkpt lat="48.58292" lon="1.92715">
        <ele>157.80000305176</ele>
        <time>2011-04-19T09:02:43.000Z</time>
      </trkpt>
      <trkpt lat="48.58295" lon="1.9271">
        <ele>157.80000305176</ele>
        <time>2011-04-19T09:02:46.000Z</time>
      </trkpt>
      <trkpt lat="48.583" lon="1.92702">
        <ele>156.39999389648</ele>
        <time>2011-04-19T09:02:51.000Z</time>
      </trkpt>
      <trkpt lat="48.58307" lon="1.92693">
        <ele>154.39999389648</ele>
        <time>2011-04-19T09:02:57.000Z</time>
      </trkpt>
      <trkpt lat="48.58312" lon="1.92682">
        <ele>155.39999389648</ele>
        <time>2011-04-19T09:03:06.000Z</time>
      </trkpt>
      <trkpt lat="48.58318" lon="1.92677">
        <ele>156.39999389648</ele>
        <time>2011-04-19T09:03:13.000Z</time>
      </trkpt>
      <trkpt lat="48.58321" lon="1.92674">
        <ele>157.39999389648</ele>
        <time>2011-04-19T09:03:16.000Z</time>
      </trkpt>
      <trkpt lat="48.58325" lon="1.92671">
        <ele>157.80000305176</ele>
        <time>2011-04-19T09:03:19.000Z</time>
      </trkpt>
      <trkpt lat="48.58335" lon="1.92663">
        <ele>157.39999389648</ele>
        <time>2011-04-19T09:03:26.000Z</time>
      </trkpt>
      <trkpt lat="48.58345" lon="1.92655">
        <ele>157.39999389648</ele>
        <time>2011-04-19T09:03:33.000Z</time>
      </trkpt>
      <trkpt lat="48.58353" lon="1.92651">
        <ele>157.39999389648</ele>
        <time>2011-04-19T09:03:39.000Z</time>
      </trkpt>
      <trkpt lat="48.58361" lon="1.92643">
        <ele>160.19999694824</ele>
        <time>2011-04-19T09:03:46.000Z</time>
      </trkpt>
      <trkpt lat="48.58366" lon="1.92637">
        <ele>161.19999694824</ele>
        <time>2011-04-19T09:03:51.000Z</time>
      </trkpt>
      <trkpt lat="48.58372" lon="1.92627">
        <ele>162.19999694824</ele>
        <time>2011-04-19T09:03:57.000Z</time>
      </trkpt>
      <trkpt lat="48.58374" lon="1.92625">
        <ele>162.60000610352</ele>
        <time>2011-04-19T09:03:58.000Z</time>
      </trkpt>
      <trkpt lat="48.58383" lon="1.92614">
        <ele>164</ele>
        <time>2011-04-19T09:04:06.000Z</time>
      </trkpt>
      <trkpt lat="48.58393" lon="1.92597">
        <ele>163.60000610352</ele>
        <time>2011-04-19T09:04:16.000Z</time>
      </trkpt>
      <trkpt lat="48.58399" lon="1.92588">
        <ele>162.60000610352</ele>
        <time>2011-04-19T09:04:22.000Z</time>
      </trkpt>
      <trkpt lat="48.58406" lon="1.92577">
        <ele>160.60000610352</ele>
        <time>2011-04-19T09:04:29.000Z</time>
      </trkpt>
      <trkpt lat="48.58407" lon="1.92574">
        <ele>160.60000610352</ele>
        <time>2011-04-19T09:04:30.000Z</time>
      </trkpt>
      <trkpt lat="48.58416" lon="1.92558">
        <ele>161.60000610352</ele>
        <time>2011-04-19T09:04:40.000Z</time>
      </trkpt>
      <trkpt lat="48.58417" lon="1.92555">
        <ele>161.60000610352</ele>
        <time>2011-04-19T09:04:42.000Z</time>
      </trkpt>
      <trkpt lat="48.58424" lon="1.92542">
        <ele>162.19999694824</ele>
        <time>2011-04-19T09:04:50.000Z</time>
      </trkpt>
      <trkpt lat="48.58431" lon="1.92533">
        <ele>162.19999694824</ele>
        <time>2011-04-19T09:04:57.000Z</time>
      </trkpt>
      <trkpt lat="48.58435" lon="1.92527">
        <ele>161.60000610352</ele>
        <time>2011-04-19T09:05:02.000Z</time>
      </trkpt>
      <trkpt lat="48.58444" lon="1.9252">
        <ele>161.19999694824</ele>
        <time>2011-04-19T09:05:10.000Z</time>
      </trkpt>
      <trkpt lat="48.58448" lon="1.92517">
        <ele>161.19999694824</ele>
        <time>2011-04-19T09:05:13.000Z</time>
      </trkpt>
      <trkpt lat="48.58455" lon="1.92512">
        <ele>161.19999694824</ele>
        <time>2011-04-19T09:05:19.000Z</time>
      </trkpt>
      <trkpt lat="48.58459" lon="1.9251">
        <ele>159.80000305176</ele>
        <time>2011-04-19T09:05:22.000Z</time>
      </trkpt>
      <trkpt lat="48.58471" lon="1.925">
        <ele>158.19999694824</ele>
        <time>2011-04-19T09:05:32.000Z</time>
      </trkpt>
      <trkpt lat="48.58479" lon="1.92491">
        <ele>160.60000610352</ele>
        <time>2011-04-19T09:05:39.000Z</time>
      </trkpt>
      <trkpt lat="48.58487" lon="1.92482">
        <ele>161.19999694824</ele>
        <time>2011-04-19T09:05:47.000Z</time>
      </trkpt>
      <trkpt lat="48.58489" lon="1.92481">
        <ele>159.19999694824</ele>
        <time>2011-04-19T09:05:49.000Z</time>
      </trkpt>
      <trkpt lat="48.58494" lon="1.92475">
        <ele>158.19999694824</ele>
        <time>2011-04-19T09:05:54.000Z</time>
      </trkpt>
      <trkpt lat="48.58497" lon="1.92474">
        <ele>157.80000305176</ele>
        <time>2011-04-19T09:05:56.000Z</time>
      </trkpt>
      <trkpt lat="48.58503" lon="1.92468">
        <ele>158.80000305176</ele>
        <time>2011-04-19T09:06:01.000Z</time>
      </trkpt>
      <trkpt lat="48.58512" lon="1.92458">
        <ele>158.80000305176</ele>
        <time>2011-04-19T09:06:09.000Z</time>
      </trkpt>
      <trkpt lat="48.58518" lon="1.92454">
        <ele>158.19999694824</ele>
        <time>2011-04-19T09:06:15.000Z</time>
      </trkpt>
      <trkpt lat="48.58522" lon="1.9245">
        <ele>157.80000305176</ele>
        <time>2011-04-19T09:06:18.000Z</time>
      </trkpt>
      <trkpt lat="48.58531" lon="1.92435">
        <ele>158.19999694824</ele>
        <time>2011-04-19T09:06:28.000Z</time>
      </trkpt>
      <trkpt lat="48.58534" lon="1.9243">
        <ele>157.80000305176</ele>
        <time>2011-04-19T09:06:32.000Z</time>
      </trkpt>
      <trkpt lat="48.58534" lon="1.92424">
        <ele>157.80000305176</ele>
        <time>2011-04-19T09:06:36.000Z</time>
      </trkpt>
      <trkpt lat="48.5854" lon="1.92415">
        <ele>158.19999694824</ele>
        <time>2011-04-19T09:06:41.000Z</time>
      </trkpt>
      <trkpt lat="48.58544" lon="1.92408">
        <ele>158.80000305176</ele>
        <time>2011-04-19T09:06:45.000Z</time>
      </trkpt>
      <trkpt lat="48.5855" lon="1.92392">
        <ele>160.19999694824</ele>
        <time>2011-04-19T09:06:53.000Z</time>
      </trkpt>
      <trkpt lat="48.58552" lon="1.92387">
        <ele>160.19999694824</ele>
        <time>2011-04-19T09:06:56.000Z</time>
      </trkpt>
      <trkpt lat="48.58559" lon="1.92373">
        <ele>162.19999694824</ele>
        <time>2011-04-19T09:07:03.000Z</time>
      </trkpt>
      <trkpt lat="48.58563" lon="1.92363">
        <ele>162.19999694824</ele>
        <time>2011-04-19T09:07:08.000Z</time>
      </trkpt>
      <trkpt lat="48.58567" lon="1.92351">
        <ele>162.19999694824</ele>
        <time>2011-04-19T09:07:15.000Z</time>
      </trkpt>
      <trkpt lat="48.58572" lon="1.92337">
        <ele>158.80000305176</ele>
        <time>2011-04-19T09:07:22.000Z</time>
      </trkpt>
      <trkpt lat="48.58577" lon="1.9233">
        <ele>156.80000305176</ele>
        <time>2011-04-19T09:07:27.000Z</time>
      </trkpt>
      <trkpt lat="48.58584" lon="1.92317">
        <ele>158.19999694824</ele>
        <time>2011-04-19T09:07:34.000Z</time>
      </trkpt>
      <trkpt lat="48.58588" lon="1.92308">
        <ele>159.19999694824</ele>
        <time>2011-04-19T09:07:38.000Z</time>
      </trkpt>
      <trkpt lat="48.58596" lon="1.9229">
        <ele>158.80000305176</ele>
        <time>2011-04-19T09:07:48.000Z</time>
      </trkpt>
      <trkpt lat="48.58599" lon="1.92282">
        <ele>158.19999694824</ele>
        <time>2011-04-19T09:07:52.000Z</time>
      </trkpt>
      <trkpt lat="48.58602" lon="1.92266">
        <ele>159.19999694824</ele>
        <time>2011-04-19T09:08:00.000Z</time>
      </trkpt>
      <trkpt lat="48.58607" lon="1.92255">
        <ele>158.19999694824</ele>
        <time>2011-04-19T09:08:07.000Z</time>
      </trkpt>
      <trkpt lat="48.58614" lon="1.92243">
        <ele>159.19999694824</ele>
        <time>2011-04-19T09:08:15.000Z</time>
      </trkpt>
      <trkpt lat="48.58622" lon="1.92229">
        <ele>161.19999694824</ele>
        <time>2011-04-19T09:08:23.000Z</time>
      </trkpt>
      <trkpt lat="48.58629" lon="1.92214">
        <ele>161.60000610352</ele>
        <time>2011-04-19T09:08:31.000Z</time>
      </trkpt>
      <trkpt lat="48.58634" lon="1.92203">
        <ele>161.19999694824</ele>
        <time>2011-04-19T09:08:38.000Z</time>
      </trkpt>
      <trkpt lat="48.58639" lon="1.92192">
        <ele>162.19999694824</ele>
        <time>2011-04-19T09:08:45.000Z</time>
      </trkpt>
      <trkpt lat="48.58645" lon="1.9218">
        <ele>160.19999694824</ele>
        <time>2011-04-19T09:08:52.000Z</time>
      </trkpt>
      <trkpt lat="48.5865" lon="1.92167">
        <ele>161.19999694824</ele>
        <time>2011-04-19T09:08:59.000Z</time>
      </trkpt>
      <trkpt lat="48.58654" lon="1.92157">
        <ele>161.19999694824</ele>
        <time>2011-04-19T09:09:04.000Z</time>
      </trkpt>
      <trkpt lat="48.58658" lon="1.92146">
        <ele>161.19999694824</ele>
        <time>2011-04-19T09:09:10.000Z</time>
      </trkpt>
      <trkpt lat="48.58664" lon="1.92133">
        <ele>159.19999694824</ele>
        <time>2011-04-19T09:09:18.000Z</time>
      </trkpt>
      <trkpt lat="48.5867" lon="1.92118">
        <ele>159.80000305176</ele>
        <time>2011-04-19T09:09:26.000Z</time>
      </trkpt>
      <trkpt lat="48.58675" lon="1.92104">
        <ele>159.80000305176</ele>
        <time>2011-04-19T09:09:34.000Z</time>
      </trkpt>
      <trkpt lat="48.58679" lon="1.92091">
        <ele>161.60000610352</ele>
        <time>2011-04-19T09:09:40.000Z</time>
      </trkpt>
      <trkpt lat="48.58685" lon="1.92079">
        <ele>159.80000305176</ele>
        <time>2011-04-19T09:09:47.000Z</time>
      </trkpt>
      <trkpt lat="48.58692" lon="1.92065">
        <ele>159.80000305176</ele>
        <time>2011-04-19T09:09:56.000Z</time>
      </trkpt>
      <trkpt lat="48.58694" lon="1.92061">
        <ele>160.19999694824</ele>
        <time>2011-04-19T09:09:58.000Z</time>
      </trkpt>
      <trkpt lat="48.58701" lon="1.92041">
        <ele>164</ele>
        <time>2011-04-19T09:10:09.000Z</time>
      </trkpt>
      <trkpt lat="48.58708" lon="1.92026">
        <ele>166</ele>
        <time>2011-04-19T09:10:18.000Z</time>
      </trkpt>
      <trkpt lat="48.58712" lon="1.92013">
        <ele>169.39999389648</ele>
        <time>2011-04-19T09:10:25.000Z</time>
      </trkpt>
      <trkpt lat="48.58718" lon="1.92">
        <ele>168.39999389648</ele>
        <time>2011-04-19T09:10:33.000Z</time>
      </trkpt>
      <trkpt lat="48.58725" lon="1.91986">
        <ele>167.39999389648</ele>
        <time>2011-04-19T09:10:42.000Z</time>
      </trkpt>
      <trkpt lat="48.58733" lon="1.9197">
        <ele>168.39999389648</ele>
        <time>2011-04-19T09:10:51.000Z</time>
      </trkpt>
      <trkpt lat="48.58741" lon="1.91957">
        <ele>169.80000305176</ele>
        <time>2011-04-19T09:10:59.000Z</time>
      </trkpt>
      <trkpt lat="48.58746" lon="1.91945">
        <ele>170.80000305176</ele>
        <time>2011-04-19T09:11:06.000Z</time>
      </trkpt>
      <trkpt lat="48.5875" lon="1.91935">
        <ele>169.80000305176</ele>
        <time>2011-04-19T09:11:12.000Z</time>
      </trkpt>
      <trkpt lat="48.58756" lon="1.91925">
        <ele>169.39999389648</ele>
        <time>2011-04-19T09:11:19.000Z</time>
      </trkpt>
      <trkpt lat="48.58763" lon="1.91912">
        <ele>168.80000305176</ele>
        <time>2011-04-19T09:11:27.000Z</time>
      </trkpt>
      <trkpt lat="48.58769" lon="1.91899">
        <ele>167.80000305176</ele>
        <time>2011-04-19T09:11:35.000Z</time>
      </trkpt>
      <trkpt lat="48.58777" lon="1.91886">
        <ele>167.39999389648</ele>
        <time>2011-04-19T09:11:44.000Z</time>
      </trkpt>
      <trkpt lat="48.58782" lon="1.91873">
        <ele>168.39999389648</ele>
        <time>2011-04-19T09:11:51.000Z</time>
      </trkpt>
      <trkpt lat="48.58787" lon="1.9186">
        <ele>167.80000305176</ele>
        <time>2011-04-19T09:11:58.000Z</time>
      </trkpt>
      <trkpt lat="48.58792" lon="1.91839">
        <ele>166.39999389648</ele>
        <time>2011-04-19T09:12:09.000Z</time>
      </trkpt>
      <trkpt lat="48.58794" lon="1.91829">
        <ele>164.60000610352</ele>
        <time>2011-04-19T09:12:14.000Z</time>
      </trkpt>
      <trkpt lat="48.58797" lon="1.91815">
        <ele>163</ele>
        <time>2011-04-19T09:12:22.000Z</time>
      </trkpt>
      <trkpt lat="48.58798" lon="1.9181">
        <ele>163</ele>
        <time>2011-04-19T09:12:25.000Z</time>
      </trkpt>
      <trkpt lat="48.58801" lon="1.91796">
        <ele>165</ele>
        <time>2011-04-19T09:12:32.000Z</time>
      </trkpt>
      <trkpt lat="48.58803" lon="1.9179">
        <ele>165.39999389648</ele>
        <time>2011-04-19T09:12:35.000Z</time>
      </trkpt>
      <trkpt lat="48.58804" lon="1.91782">
        <ele>164.60000610352</ele>
        <time>2011-04-19T09:12:40.000Z</time>
      </trkpt>
      <trkpt lat="48.58806" lon="1.91775">
        <ele>164</ele>
        <time>2011-04-19T09:12:44.000Z</time>
      </trkpt>
      <trkpt lat="48.58809" lon="1.91762">
        <ele>163.60000610352</ele>
        <time>2011-04-19T09:12:49.000Z</time>
      </trkpt>
      <trkpt lat="48.5881" lon="1.91751">
        <ele>162.60000610352</ele>
        <time>2011-04-19T09:12:53.000Z</time>
      </trkpt>
      <trkpt lat="48.58814" lon="1.91731">
        <ele>161.60000610352</ele>
        <time>2011-04-19T09:13:03.000Z</time>
      </trkpt>
      <trkpt lat="48.58819" lon="1.91715">
        <ele>161.19999694824</ele>
        <time>2011-04-19T09:13:12.000Z</time>
      </trkpt>
      <trkpt lat="48.58822" lon="1.91704">
        <ele>160.19999694824</ele>
        <time>2011-04-19T09:13:18.000Z</time>
      </trkpt>
      <trkpt lat="48.58825" lon="1.91685">
        <ele>158.19999694824</ele>
        <time>2011-04-19T09:13:27.000Z</time>
      </trkpt>
      <trkpt lat="48.58828" lon="1.91672">
        <ele>156.39999389648</ele>
        <time>2011-04-19T09:13:34.000Z</time>
      </trkpt>
      <trkpt lat="48.58831" lon="1.91657">
        <ele>157.39999389648</ele>
        <time>2011-04-19T09:13:42.000Z</time>
      </trkpt>
      <trkpt lat="48.58837" lon="1.91639">
        <ele>159.19999694824</ele>
        <time>2011-04-19T09:13:51.000Z</time>
      </trkpt>
      <trkpt lat="48.58842" lon="1.91615">
        <ele>160.60000610352</ele>
        <time>2011-04-19T09:14:02.000Z</time>
      </trkpt>
      <trkpt lat="48.58845" lon="1.91599">
        <ele>161.60000610352</ele>
        <time>2011-04-19T09:14:09.000Z</time>
      </trkpt>
      <trkpt lat="48.58846" lon="1.91583">
        <ele>161.19999694824</ele>
        <time>2011-04-19T09:14:16.000Z</time>
      </trkpt>
      <trkpt lat="48.58849" lon="1.91576">
        <ele>160.60000610352</ele>
        <time>2011-04-19T09:14:20.000Z</time>
      </trkpt>
      <trkpt lat="48.5885" lon="1.91569">
        <ele>164.60000610352</ele>
        <time>2011-04-19T09:14:24.000Z</time>
      </trkpt>
      <trkpt lat="48.5885" lon="1.91564">
        <ele>167.39999389648</ele>
        <time>2011-04-19T09:14:30.000Z</time>
      </trkpt>
      <trkpt lat="48.58855" lon="1.91547">
        <ele>166</ele>
        <time>2011-04-19T09:14:48.000Z</time>
      </trkpt>
      <trkpt lat="48.58859" lon="1.9153">
        <ele>166.39999389648</ele>
        <time>2011-04-19T09:14:54.000Z</time>
      </trkpt>
      <trkpt lat="48.58866" lon="1.91519">
        <ele>165</ele>
        <time>2011-04-19T09:15:01.000Z</time>
      </trkpt>
      <trkpt lat="48.58873" lon="1.91504">
        <ele>164</ele>
        <time>2011-04-19T09:15:10.000Z</time>
      </trkpt>
      <trkpt lat="48.58878" lon="1.9149">
        <ele>165</ele>
        <time>2011-04-19T09:15:17.000Z</time>
      </trkpt>
      <trkpt lat="48.58883" lon="1.91476">
        <ele>166</ele>
        <time>2011-04-19T09:15:25.000Z</time>
      </trkpt>
      <trkpt lat="48.58888" lon="1.91464">
        <ele>166.39999389648</ele>
        <time>2011-04-19T09:15:32.000Z</time>
      </trkpt>
      <trkpt lat="48.58894" lon="1.9145">
        <ele>165</ele>
        <time>2011-04-19T09:15:41.000Z</time>
      </trkpt>
      <trkpt lat="48.589" lon="1.91442">
        <ele>164</ele>
        <time>2011-04-19T09:15:47.000Z</time>
      </trkpt>
      <trkpt lat="48.58907" lon="1.91429">
        <ele>160.60000610352</ele>
        <time>2011-04-19T09:15:56.000Z</time>
      </trkpt>
      <trkpt lat="48.58909" lon="1.91426">
        <ele>161.19999694824</ele>
        <time>2011-04-19T09:15:58.000Z</time>
      </trkpt>
      <trkpt lat="48.58909" lon="1.91422">
        <ele>163</ele>
        <time>2011-04-19T09:16:01.000Z</time>
      </trkpt>
      <trkpt lat="48.58908" lon="1.91418">
        <ele>166</ele>
        <time>2011-04-19T09:16:04.000Z</time>
      </trkpt>
      <trkpt lat="48.58908" lon="1.91416">
        <ele>167</ele>
        <time>2011-04-19T09:16:07.000Z</time>
      </trkpt>
      <trkpt lat="48.58915" lon="1.91406">
        <ele>167</ele>
        <time>2011-04-19T09:16:17.000Z</time>
      </trkpt>
      <trkpt lat="48.58924" lon="1.91394">
        <ele>167.80000305176</ele>
        <time>2011-04-19T09:16:24.000Z</time>
      </trkpt>
      <trkpt lat="48.58935" lon="1.91381">
        <ele>167</ele>
        <time>2011-04-19T09:16:34.000Z</time>
      </trkpt>
      <trkpt lat="48.58946" lon="1.91365">
        <ele>165</ele>
        <time>2011-04-19T09:16:46.000Z</time>
      </trkpt>
      <trkpt lat="48.58947" lon="1.91364">
        <ele>165.39999389648</ele>
        <time>2011-04-19T09:16:47.000Z</time>
      </trkpt>
      <trkpt lat="48.58958" lon="1.91351">
        <ele>166</ele>
        <time>2011-04-19T09:16:57.000Z</time>
      </trkpt>
      <trkpt lat="48.58967" lon="1.91338">
        <ele>166.39999389648</ele>
        <time>2011-04-19T09:17:06.000Z</time>
      </trkpt>
      <trkpt lat="48.58973" lon="1.91325">
        <ele>168.39999389648</ele>
        <time>2011-04-19T09:17:13.000Z</time>
      </trkpt>
      <trkpt lat="48.58981" lon="1.91308">
        <ele>170.19999694824</ele>
        <time>2011-04-19T09:17:23.000Z</time>
      </trkpt>
      <trkpt lat="48.58988" lon="1.91296">
        <ele>170.80000305176</ele>
        <time>2011-04-19T09:17:30.000Z</time>
      </trkpt>
      <trkpt lat="48.58996" lon="1.91282">
        <ele>169.39999389648</ele>
        <time>2011-04-19T09:17:39.000Z</time>
      </trkpt>
      <trkpt lat="48.59004" lon="1.91269">
        <ele>168.39999389648</ele>
        <time>2011-04-19T09:17:48.000Z</time>
      </trkpt>
      <trkpt lat="48.59008" lon="1.91262">
        <ele>167.39999389648</ele>
        <time>2011-04-19T09:17:53.000Z</time>
      </trkpt>
      <trkpt lat="48.59016" lon="1.91248">
        <ele>168.39999389648</ele>
        <time>2011-04-19T09:18:01.000Z</time>
      </trkpt>
      <trkpt lat="48.59023" lon="1.91234">
        <ele>169.80000305176</ele>
        <time>2011-04-19T09:18:09.000Z</time>
      </trkpt>
      <trkpt lat="48.59029" lon="1.9122">
        <ele>171.19999694824</ele>
        <time>2011-04-19T09:18:17.000Z</time>
      </trkpt>
      <trkpt lat="48.59037" lon="1.91208">
        <ele>169.39999389648</ele>
        <time>2011-04-19T09:18:26.000Z</time>
      </trkpt>
      <trkpt lat="48.59038" lon="1.91204">
        <ele>169.39999389648</ele>
        <time>2011-04-19T09:18:31.000Z</time>
      </trkpt>
      <trkpt lat="48.59038" lon="1.91202">
        <ele>169.39999389648</ele>
        <time>2011-04-19T09:18:34.000Z</time>
      </trkpt>
      <trkpt lat="48.59041" lon="1.91191">
        <ele>170.19999694824</ele>
        <time>2011-04-19T09:19:41.000Z</time>
      </trkpt>
      <trkpt lat="48.59044" lon="1.91186">
        <ele>171.80000305176</ele>
        <time>2011-04-19T09:19:43.000Z</time>
      </trkpt>
      <trkpt lat="48.59049" lon="1.91175">
        <ele>171.19999694824</ele>
        <time>2011-04-19T09:19:51.000Z</time>
      </trkpt>
      <trkpt lat="48.59057" lon="1.91166">
        <ele>172.19999694824</ele>
        <time>2011-04-19T09:19:58.000Z</time>
      </trkpt>
      <trkpt lat="48.59061" lon="1.91159">
        <ele>171.80000305176</ele>
        <time>2011-04-19T09:20:05.000Z</time>
      </trkpt>
      <trkpt lat="48.59063" lon="1.91156">
        <ele>171.19999694824</ele>
        <time>2011-04-19T09:20:09.000Z</time>
      </trkpt>
      <trkpt lat="48.59065" lon="1.91147">
        <ele>171.19999694824</ele>
        <time>2011-04-19T09:20:22.000Z</time>
      </trkpt>
      <trkpt lat="48.59069" lon="1.91141">
        <ele>171.19999694824</ele>
        <time>2011-04-19T09:20:25.000Z</time>
      </trkpt>
      <trkpt lat="48.59069" lon="1.91138">
        <ele>171.19999694824</ele>
        <time>2011-04-19T09:20:27.000Z</time>
      </trkpt>
      <trkpt lat="48.5907" lon="1.91134">
        <ele>171.19999694824</ele>
        <time>2011-04-19T09:20:29.000Z</time>
      </trkpt>
      <trkpt lat="48.59074" lon="1.91123">
        <ele>171.19999694824</ele>
        <time>2011-04-19T09:20:36.000Z</time>
      </trkpt>
      <trkpt lat="48.59078" lon="1.91113">
        <ele>171.80000305176</ele>
        <time>2011-04-19T09:20:42.000Z</time>
      </trkpt>
      <trkpt lat="48.59083" lon="1.91103">
        <ele>170.80000305176</ele>
        <time>2011-04-19T09:20:48.000Z</time>
      </trkpt>
      <trkpt lat="48.59085" lon="1.91094">
        <ele>170.80000305176</ele>
        <time>2011-04-19T09:20:53.000Z</time>
      </trkpt>
      <trkpt lat="48.59089" lon="1.91085">
        <ele>169.39999389648</ele>
        <time>2011-04-19T09:20:59.000Z</time>
      </trkpt>
      <trkpt lat="48.59094" lon="1.91074">
        <ele>168.80000305176</ele>
        <time>2011-04-19T09:21:06.000Z</time>
      </trkpt>
      <trkpt lat="48.59095" lon="1.91067">
        <ele>169.80000305176</ele>
        <time>2011-04-19T09:21:10.000Z</time>
      </trkpt>
      <trkpt lat="48.59101" lon="1.91055">
        <ele>169.80000305176</ele>
        <time>2011-04-19T09:21:17.000Z</time>
      </trkpt>
      <trkpt lat="48.59101" lon="1.91054">
        <ele>170.19999694824</ele>
        <time>2011-04-19T09:21:18.000Z</time>
      </trkpt>
      <trkpt lat="48.59104" lon="1.91047">
        <ele>170.19999694824</ele>
        <time>2011-04-19T09:21:22.000Z</time>
      </trkpt>
      <trkpt lat="48.5911" lon="1.91035">
        <ele>168.39999389648</ele>
        <time>2011-04-19T09:21:31.000Z</time>
      </trkpt>
      <trkpt lat="48.59117" lon="1.9102">
        <ele>167.39999389648</ele>
        <time>2011-04-19T09:21:41.000Z</time>
      </trkpt>
      <trkpt lat="48.5912" lon="1.91005">
        <ele>167.39999389648</ele>
        <time>2011-04-19T09:21:48.000Z</time>
      </trkpt>
      <trkpt lat="48.59125" lon="1.90992">
        <ele>165.39999389648</ele>
        <time>2011-04-19T09:21:56.000Z</time>
      </trkpt>
      <trkpt lat="48.59126" lon="1.90988">
        <ele>166</ele>
        <time>2011-04-19T09:21:58.000Z</time>
      </trkpt>
      <trkpt lat="48.59129" lon="1.90981">
        <ele>165</ele>
        <time>2011-04-19T09:22:02.000Z</time>
      </trkpt>
      <trkpt lat="48.59134" lon="1.90969">
        <ele>164</ele>
        <time>2011-04-19T09:22:10.000Z</time>
      </trkpt>
      <trkpt lat="48.5914" lon="1.90957">
        <ele>164.60000610352</ele>
        <time>2011-04-19T09:22:17.000Z</time>
      </trkpt>
      <trkpt lat="48.59144" lon="1.90947">
        <ele>163.60000610352</ele>
        <time>2011-04-19T09:22:24.000Z</time>
      </trkpt>
      <trkpt lat="48.59145" lon="1.90944">
        <ele>162.60000610352</ele>
        <time>2011-04-19T09:22:26.000Z</time>
      </trkpt>
      <trkpt lat="48.5915" lon="1.90928">
        <ele>164.60000610352</ele>
        <time>2011-04-19T09:22:34.000Z</time>
      </trkpt>
      <trkpt lat="48.59154" lon="1.90917">
        <ele>166</ele>
        <time>2011-04-19T09:22:40.000Z</time>
      </trkpt>
      <trkpt lat="48.5916" lon="1.90908">
        <ele>169.80000305176</ele>
        <time>2011-04-19T09:22:51.000Z</time>
      </trkpt>
      <trkpt lat="48.59166" lon="1.90896">
        <ele>168.80000305176</ele>
        <time>2011-04-19T09:22:58.000Z</time>
      </trkpt>
      <trkpt lat="48.59167" lon="1.90894">
        <ele>168.39999389648</ele>
        <time>2011-04-19T09:22:59.000Z</time>
      </trkpt>
      <trkpt lat="48.59172" lon="1.90885">
        <ele>166.39999389648</ele>
        <time>2011-04-19T09:23:05.000Z</time>
      </trkpt>
      <trkpt lat="48.5918" lon="1.9087">
        <ele>164</ele>
        <time>2011-04-19T09:23:15.000Z</time>
      </trkpt>
      <trkpt lat="48.59182" lon="1.90862">
        <ele>162.60000610352</ele>
        <time>2011-04-19T09:23:19.000Z</time>
      </trkpt>
      <trkpt lat="48.59188" lon="1.9085">
        <ele>160.19999694824</ele>
        <time>2011-04-19T09:23:26.000Z</time>
      </trkpt>
      <trkpt lat="48.59188" lon="1.90848">
        <ele>160.19999694824</ele>
        <time>2011-04-19T09:23:27.000Z</time>
      </trkpt>
      <trkpt lat="48.59196" lon="1.90832">
        <ele>159.80000305176</ele>
        <time>2011-04-19T09:23:37.000Z</time>
      </trkpt>
      <trkpt lat="48.59202" lon="1.90817">
        <ele>160.19999694824</ele>
        <time>2011-04-19T09:23:45.000Z</time>
      </trkpt>
      <trkpt lat="48.59208" lon="1.90803">
        <ele>162.19999694824</ele>
        <time>2011-04-19T09:23:54.000Z</time>
      </trkpt>
      <trkpt lat="48.59214" lon="1.90794">
        <ele>163.60000610352</ele>
        <time>2011-04-19T09:24:01.000Z</time>
      </trkpt>
      <trkpt lat="48.59223" lon="1.9078">
        <ele>164.60000610352</ele>
        <time>2011-04-19T09:24:10.000Z</time>
      </trkpt>
      <trkpt lat="48.59228" lon="1.9077">
        <ele>167.80000305176</ele>
        <time>2011-04-19T09:24:16.000Z</time>
      </trkpt>
      <trkpt lat="48.59234" lon="1.90764">
        <ele>168.39999389648</ele>
        <time>2011-04-19T09:24:22.000Z</time>
      </trkpt>
      <trkpt lat="48.59237" lon="1.9076">
        <ele>171.19999694824</ele>
        <time>2011-04-19T09:24:26.000Z</time>
      </trkpt>
      <trkpt lat="48.59242" lon="1.90754">
        <ele>173.60000610352</ele>
        <time>2011-04-19T09:24:31.000Z</time>
      </trkpt>
      <trkpt lat="48.59248" lon="1.90749">
        <ele>172.19999694824</ele>
        <time>2011-04-19T09:24:38.000Z</time>
      </trkpt>
      <trkpt lat="48.59251" lon="1.90744">
        <ele>171.80000305176</ele>
        <time>2011-04-19T09:24:43.000Z</time>
      </trkpt>
      <trkpt lat="48.59253" lon="1.90736">
        <ele>175</ele>
        <time>2011-04-19T09:24:49.000Z</time>
      </trkpt>
      <trkpt lat="48.59257" lon="1.90728">
        <ele>176.60000610352</ele>
        <time>2011-04-19T09:24:58.000Z</time>
      </trkpt>
      <trkpt lat="48.59264" lon="1.90722">
        <ele>176</ele>
        <time>2011-04-19T09:25:04.000Z</time>
      </trkpt>
      <trkpt lat="48.59272" lon="1.90713">
        <ele>176</ele>
        <time>2011-04-19T09:25:11.000Z</time>
      </trkpt>
      <trkpt lat="48.59275" lon="1.90711">
        <ele>175.60000610352</ele>
        <time>2011-04-19T09:25:14.000Z</time>
      </trkpt>
      <trkpt lat="48.59281" lon="1.90706">
        <ele>174.19999694824</ele>
        <time>2011-04-19T09:25:20.000Z</time>
      </trkpt>
      <trkpt lat="48.59284" lon="1.90705">
        <ele>172.60000610352</ele>
        <time>2011-04-19T09:25:22.000Z</time>
      </trkpt>
      <trkpt lat="48.59294" lon="1.90697">
        <ele>171.19999694824</ele>
        <time>2011-04-19T09:25:30.000Z</time>
      </trkpt>
      <trkpt lat="48.593" lon="1.9069">
        <ele>171.80000305176</ele>
        <time>2011-04-19T09:25:36.000Z</time>
      </trkpt>
      <trkpt lat="48.59306" lon="1.90683">
        <ele>171.80000305176</ele>
        <time>2011-04-19T09:25:42.000Z</time>
      </trkpt>
      <trkpt lat="48.59311" lon="1.90673">
        <ele>174.19999694824</ele>
        <time>2011-04-19T09:25:48.000Z</time>
      </trkpt>
      <trkpt lat="48.59317" lon="1.90666">
        <ele>173.60000610352</ele>
        <time>2011-04-19T09:25:54.000Z</time>
      </trkpt>
      <trkpt lat="48.59326" lon="1.90661">
        <ele>173.60000610352</ele>
        <time>2011-04-19T09:26:02.000Z</time>
      </trkpt>
      <trkpt lat="48.59329" lon="1.90657">
        <ele>176.60000610352</ele>
        <time>2011-04-19T09:26:06.000Z</time>
      </trkpt>
      <trkpt lat="48.59333" lon="1.90652">
        <ele>178.39999389648</ele>
        <time>2011-04-19T09:26:12.000Z</time>
      </trkpt>
      <trkpt lat="48.59342" lon="1.90644">
        <ele>178.39999389648</ele>
        <time>2011-04-19T09:26:20.000Z</time>
      </trkpt>
      <trkpt lat="48.5935" lon="1.90637">
        <ele>176</ele>
        <time>2011-04-19T09:26:27.000Z</time>
      </trkpt>
      <trkpt lat="48.59357" lon="1.90631">
        <ele>174.19999694824</ele>
        <time>2011-04-19T09:26:33.000Z</time>
      </trkpt>
      <trkpt lat="48.59361" lon="1.90628">
        <ele>172.19999694824</ele>
        <time>2011-04-19T09:26:36.000Z</time>
      </trkpt>
      <trkpt lat="48.59364" lon="1.90623">
        <ele>171.19999694824</ele>
        <time>2011-04-19T09:26:40.000Z</time>
      </trkpt>
      <trkpt lat="48.59366" lon="1.9062">
        <ele>169.80000305176</ele>
        <time>2011-04-19T09:26:43.000Z</time>
      </trkpt>
      <trkpt lat="48.59368" lon="1.90618">
        <ele>169.39999389648</ele>
        <time>2011-04-19T09:26:45.000Z</time>
      </trkpt>
      <trkpt lat="48.59375" lon="1.90614">
        <ele>168.39999389648</ele>
        <time>2011-04-19T09:26:50.000Z</time>
      </trkpt>
      <trkpt lat="48.5938" lon="1.90607">
        <ele>167.80000305176</ele>
        <time>2011-04-19T09:26:55.000Z</time>
      </trkpt>
      <trkpt lat="48.59389" lon="1.90596">
        <ele>167.80000305176</ele>
        <time>2011-04-19T09:27:03.000Z</time>
      </trkpt>
      <trkpt lat="48.59396" lon="1.90586">
        <ele>167.39999389648</ele>
        <time>2011-04-19T09:27:10.000Z</time>
      </trkpt>
      <trkpt lat="48.59403" lon="1.90577">
        <ele>165.39999389648</ele>
        <time>2011-04-19T09:27:16.000Z</time>
      </trkpt>
      <trkpt lat="48.59412" lon="1.90572">
        <ele>163</ele>
        <time>2011-04-19T09:27:23.000Z</time>
      </trkpt>
      <trkpt lat="48.59413" lon="1.90571">
        <ele>163</ele>
        <time>2011-04-19T09:27:24.000Z</time>
      </trkpt>
      <trkpt lat="48.59423" lon="1.9056">
        <ele>163</ele>
        <time>2011-04-19T09:27:33.000Z</time>
      </trkpt>
      <trkpt lat="48.59432" lon="1.90549">
        <ele>164</ele>
        <time>2011-04-19T09:27:41.000Z</time>
      </trkpt>
      <trkpt lat="48.59442" lon="1.90536">
        <ele>166</ele>
        <time>2011-04-19T09:27:50.000Z</time>
      </trkpt>
      <trkpt lat="48.59451" lon="1.90528">
        <ele>166.39999389648</ele>
        <time>2011-04-19T09:27:57.000Z</time>
      </trkpt>
      <trkpt lat="48.59462" lon="1.90511">
        <ele>169.39999389648</ele>
        <time>2011-04-19T09:28:06.000Z</time>
      </trkpt>
      <trkpt lat="48.5947" lon="1.90503">
        <ele>171.19999694824</ele>
        <time>2011-04-19T09:28:12.000Z</time>
      </trkpt>
      <trkpt lat="48.59479" lon="1.90492">
        <ele>173.60000610352</ele>
        <time>2011-04-19T09:28:19.000Z</time>
      </trkpt>
      <trkpt lat="48.59491" lon="1.90479">
        <ele>175</ele>
        <time>2011-04-19T09:28:29.000Z</time>
      </trkpt>
      <trkpt lat="48.59499" lon="1.90472">
        <ele>174.60000610352</ele>
        <time>2011-04-19T09:28:36.000Z</time>
      </trkpt>
      <trkpt lat="48.59507" lon="1.90462">
        <ele>174.60000610352</ele>
        <time>2011-04-19T09:28:43.000Z</time>
      </trkpt>
      <trkpt lat="48.59516" lon="1.90454">
        <ele>173.60000610352</ele>
        <time>2011-04-19T09:28:51.000Z</time>
      </trkpt>
      <trkpt lat="48.59525" lon="1.90448">
        <ele>172.60000610352</ele>
        <time>2011-04-19T09:28:59.000Z</time>
      </trkpt>
      <trkpt lat="48.5953" lon="1.90444">
        <ele>173.60000610352</ele>
        <time>2011-04-19T09:29:03.000Z</time>
      </trkpt>
      <trkpt lat="48.59534" lon="1.90437">
        <ele>172.60000610352</ele>
        <time>2011-04-19T09:29:09.000Z</time>
      </trkpt>
      <trkpt lat="48.5954" lon="1.9043">
        <ele>172.60000610352</ele>
        <time>2011-04-19T09:29:15.000Z</time>
      </trkpt>
      <trkpt lat="48.59549" lon="1.90425">
        <ele>172.19999694824</ele>
        <time>2011-04-19T09:29:22.000Z</time>
      </trkpt>
      <trkpt lat="48.59554" lon="1.90421">
        <ele>172.19999694824</ele>
        <time>2011-04-19T09:29:26.000Z</time>
      </trkpt>
      <trkpt lat="48.59563" lon="1.90408">
        <ele>173.19999694824</ele>
        <time>2011-04-19T09:29:35.000Z</time>
      </trkpt>
      <trkpt lat="48.59571" lon="1.90399">
        <ele>172.60000610352</ele>
        <time>2011-04-19T09:29:42.000Z</time>
      </trkpt>
      <trkpt lat="48.59581" lon="1.90387">
        <ele>172.60000610352</ele>
        <time>2011-04-19T09:29:51.000Z</time>
      </trkpt>
      <trkpt lat="48.5959" lon="1.90379">
        <ele>173.19999694824</ele>
        <time>2011-04-19T09:29:58.000Z</time>
      </trkpt>
      <trkpt lat="48.59602" lon="1.90366">
        <ele>171.80000305176</ele>
        <time>2011-04-19T09:30:08.000Z</time>
      </trkpt>
      <trkpt lat="48.59605" lon="1.90362">
        <ele>172.60000610352</ele>
        <time>2011-04-19T09:30:13.000Z</time>
      </trkpt>
      <trkpt lat="48.59609" lon="1.90358">
        <ele>172.19999694824</ele>
        <time>2011-04-19T09:30:17.000Z</time>
      </trkpt>
      <trkpt lat="48.59619" lon="1.90348">
        <ele>172.19999694824</ele>
        <time>2011-04-19T09:30:25.000Z</time>
      </trkpt>
      <trkpt lat="48.59629" lon="1.90335">
        <ele>171.80000305176</ele>
        <time>2011-04-19T09:30:34.000Z</time>
      </trkpt>
      <trkpt lat="48.59638" lon="1.90324">
        <ele>171.80000305176</ele>
        <time>2011-04-19T09:30:42.000Z</time>
      </trkpt>
      <trkpt lat="48.59649" lon="1.90313">
        <ele>170.80000305176</ele>
        <time>2011-04-19T09:30:51.000Z</time>
      </trkpt>
      <trkpt lat="48.5966" lon="1.903">
        <ele>172.19999694824</ele>
        <time>2011-04-19T09:31:00.000Z</time>
      </trkpt>
      <trkpt lat="48.59669" lon="1.90292">
        <ele>173.19999694824</ele>
        <time>2011-04-19T09:31:07.000Z</time>
      </trkpt>
      <trkpt lat="48.59677" lon="1.9028">
        <ele>174.60000610352</ele>
        <time>2011-04-19T09:31:14.000Z</time>
      </trkpt>
      <trkpt lat="48.59683" lon="1.90275">
        <ele>174.60000610352</ele>
        <time>2011-04-19T09:31:18.000Z</time>
      </trkpt>
      <trkpt lat="48.59684" lon="1.90274">
        <ele>174.60000610352</ele>
        <time>2011-04-19T09:31:19.000Z</time>
      </trkpt>
      <trkpt lat="48.59693" lon="1.90262">
        <ele>174.60000610352</ele>
        <time>2011-04-19T09:31:27.000Z</time>
      </trkpt>
      <trkpt lat="48.59701" lon="1.90253">
        <ele>175.60000610352</ele>
        <time>2011-04-19T09:31:33.000Z</time>
      </trkpt>
      <trkpt lat="48.59712" lon="1.90242">
        <ele>177</ele>
        <time>2011-04-19T09:31:41.000Z</time>
      </trkpt>
      <trkpt lat="48.59721" lon="1.9023">
        <ele>180.39999389648</ele>
        <time>2011-04-19T09:31:48.000Z</time>
      </trkpt>
      <trkpt lat="48.5973" lon="1.9022">
        <ele>182.80000305176</ele>
        <time>2011-04-19T09:31:55.000Z</time>
      </trkpt>
      <trkpt lat="48.59739" lon="1.90209">
        <ele>181.80000305176</ele>
        <time>2011-04-19T09:32:03.000Z</time>
      </trkpt>
      <trkpt lat="48.5975" lon="1.90199">
        <ele>181.39999389648</ele>
        <time>2011-04-19T09:32:11.000Z</time>
      </trkpt>
      <trkpt lat="48.59757" lon="1.90191">
        <ele>180.39999389648</ele>
        <time>2011-04-19T09:32:18.000Z</time>
      </trkpt>
      <trkpt lat="48.59764" lon="1.90179">
        <ele>179.39999389648</ele>
        <time>2011-04-19T09:32:25.000Z</time>
      </trkpt>
      <trkpt lat="48.59774" lon="1.90161">
        <ele>179</ele>
        <time>2011-04-19T09:32:36.000Z</time>
      </trkpt>
      <trkpt lat="48.59778" lon="1.90158">
        <ele>179.39999389648</ele>
        <time>2011-04-19T09:32:39.000Z</time>
      </trkpt>
      <trkpt lat="48.59787" lon="1.90151">
        <ele>177</ele>
        <time>2011-04-19T09:32:47.000Z</time>
      </trkpt>
      <trkpt lat="48.598" lon="1.90137">
        <ele>178.39999389648</ele>
        <time>2011-04-19T09:32:57.000Z</time>
      </trkpt>
      <trkpt lat="48.59807" lon="1.90131">
        <ele>177.60000610352</ele>
        <time>2011-04-19T09:33:03.000Z</time>
      </trkpt>
      <trkpt lat="48.59814" lon="1.9012">
        <ele>177.60000610352</ele>
        <time>2011-04-19T09:33:10.000Z</time>
      </trkpt>
      <trkpt lat="48.5982" lon="1.90116">
        <ele>177</ele>
        <time>2011-04-19T09:33:15.000Z</time>
      </trkpt>
      <trkpt lat="48.5983" lon="1.90106">
        <ele>176.60000610352</ele>
        <time>2011-04-19T09:33:24.000Z</time>
      </trkpt>
      <trkpt lat="48.59838" lon="1.90099">
        <ele>176</ele>
        <time>2011-04-19T09:33:31.000Z</time>
      </trkpt>
      <trkpt lat="48.59847" lon="1.90091">
        <ele>176</ele>
        <time>2011-04-19T09:33:38.000Z</time>
      </trkpt>
      <trkpt lat="48.59857" lon="1.90084">
        <ele>179</ele>
        <time>2011-04-19T09:33:45.000Z</time>
      </trkpt>
      <trkpt lat="48.59859" lon="1.90081">
        <ele>178.39999389648</ele>
        <time>2011-04-19T09:33:47.000Z</time>
      </trkpt>
      <trkpt lat="48.59865" lon="1.90075">
        <ele>179.39999389648</ele>
        <time>2011-04-19T09:33:52.000Z</time>
      </trkpt>
      <trkpt lat="48.59874" lon="1.90066">
        <ele>180</ele>
        <time>2011-04-19T09:34:00.000Z</time>
      </trkpt>
      <trkpt lat="48.59881" lon="1.90055">
        <ele>178.39999389648</ele>
        <time>2011-04-19T09:34:08.000Z</time>
      </trkpt>
      <trkpt lat="48.59888" lon="1.90047">
        <ele>177</ele>
        <time>2011-04-19T09:34:15.000Z</time>
      </trkpt>
      <trkpt lat="48.5989" lon="1.90042">
        <ele>177</ele>
        <time>2011-04-19T09:34:18.000Z</time>
      </trkpt>
      <trkpt lat="48.59897" lon="1.90034">
        <ele>172.60000610352</ele>
        <time>2011-04-19T09:34:26.000Z</time>
      </trkpt>
      <trkpt lat="48.59908" lon="1.90021">
        <ele>176.60000610352</ele>
        <time>2011-04-19T09:34:34.000Z</time>
      </trkpt>
      <trkpt lat="48.59914" lon="1.90016">
        <ele>177.60000610352</ele>
        <time>2011-04-19T09:34:39.000Z</time>
      </trkpt>
      <trkpt lat="48.59923" lon="1.90011">
        <ele>178</ele>
        <time>2011-04-19T09:34:46.000Z</time>
      </trkpt>
      <trkpt lat="48.59934" lon="1.9">
        <ele>179</ele>
        <time>2011-04-19T09:34:55.000Z</time>
      </trkpt>
      <trkpt lat="48.59942" lon="1.89992">
        <ele>177.60000610352</ele>
        <time>2011-04-19T09:35:02.000Z</time>
      </trkpt>
      <trkpt lat="48.5995" lon="1.89981">
        <ele>174.60000610352</ele>
        <time>2011-04-19T09:35:11.000Z</time>
      </trkpt>
      <trkpt lat="48.59957" lon="1.89973">
        <ele>174.19999694824</ele>
        <time>2011-04-19T09:35:17.000Z</time>
      </trkpt>
      <trkpt lat="48.59959" lon="1.89969">
        <ele>173.60000610352</ele>
        <time>2011-04-19T09:35:19.000Z</time>
      </trkpt>
      <trkpt lat="48.59969" lon="1.89958">
        <ele>173.19999694824</ele>
        <time>2011-04-19T09:35:28.000Z</time>
      </trkpt>
      <trkpt lat="48.5998" lon="1.89944">
        <ele>178</ele>
        <time>2011-04-19T09:35:36.000Z</time>
      </trkpt>
      <trkpt lat="48.59988" lon="1.89933">
        <ele>180.39999389648</ele>
        <time>2011-04-19T09:35:43.000Z</time>
      </trkpt>
      <trkpt lat="48.59993" lon="1.89924">
        <ele>179.39999389648</ele>
        <time>2011-04-19T09:35:49.000Z</time>
      </trkpt>
      <trkpt lat="48.60001" lon="1.89912">
        <ele>176</ele>
        <time>2011-04-19T09:35:59.000Z</time>
      </trkpt>
      <trkpt lat="48.60009" lon="1.89902">
        <ele>170.80000305176</ele>
        <time>2011-04-19T09:36:08.000Z</time>
      </trkpt>
      <trkpt lat="48.60018" lon="1.89886">
        <ele>171.19999694824</ele>
        <time>2011-04-19T09:36:17.000Z</time>
      </trkpt>
      <trkpt lat="48.60028" lon="1.89876">
        <ele>174.60000610352</ele>
        <time>2011-04-19T09:36:24.000Z</time>
      </trkpt>
      <trkpt lat="48.60038" lon="1.89869">
        <ele>173.19999694824</ele>
        <time>2011-04-19T09:36:32.000Z</time>
      </trkpt>
      <trkpt lat="48.60048" lon="1.89858">
        <ele>171.19999694824</ele>
        <time>2011-04-19T09:36:41.000Z</time>
      </trkpt>
      <trkpt lat="48.60057" lon="1.89842">
        <ele>174.60000610352</ele>
        <time>2011-04-19T09:36:49.000Z</time>
      </trkpt>
      <trkpt lat="48.60069" lon="1.89829">
        <ele>175.60000610352</ele>
        <time>2011-04-19T09:36:58.000Z</time>
      </trkpt>
      <trkpt lat="48.60078" lon="1.89816">
        <ele>173.19999694824</ele>
        <time>2011-04-19T09:37:07.000Z</time>
      </trkpt>
      <trkpt lat="48.60088" lon="1.89804">
        <ele>170.19999694824</ele>
        <time>2011-04-19T09:37:17.000Z</time>
      </trkpt>
      <trkpt lat="48.60095" lon="1.89794">
        <ele>170.80000305176</ele>
        <time>2011-04-19T09:37:24.000Z</time>
      </trkpt>
      <trkpt lat="48.60098" lon="1.89787">
        <ele>171.19999694824</ele>
        <time>2011-04-19T09:37:29.000Z</time>
      </trkpt>
      <trkpt lat="48.60105" lon="1.89776">
        <ele>170.80000305176</ele>
        <time>2011-04-19T09:37:36.000Z</time>
      </trkpt>
      <trkpt lat="48.60112" lon="1.8977">
        <ele>170.80000305176</ele>
        <time>2011-04-19T09:37:42.000Z</time>
      </trkpt>
      <trkpt lat="48.60118" lon="1.89758">
        <ele>167.80000305176</ele>
        <time>2011-04-19T09:37:50.000Z</time>
      </trkpt>
      <trkpt lat="48.60121" lon="1.89752">
        <ele>167.39999389648</ele>
        <time>2011-04-19T09:37:54.000Z</time>
      </trkpt>
      <trkpt lat="48.60128" lon="1.89741">
        <ele>167.39999389648</ele>
        <time>2011-04-19T09:38:01.000Z</time>
      </trkpt>
      <trkpt lat="48.60131" lon="1.89738">
        <ele>167.39999389648</ele>
        <time>2011-04-19T09:38:03.000Z</time>
      </trkpt>
      <trkpt lat="48.60139" lon="1.8972">
        <ele>163</ele>
        <time>2011-04-19T09:38:14.000Z</time>
      </trkpt>
      <trkpt lat="48.60145" lon="1.8971">
        <ele>161.19999694824</ele>
        <time>2011-04-19T09:38:21.000Z</time>
      </trkpt>
      <trkpt lat="48.60155" lon="1.89697">
        <ele>164</ele>
        <time>2011-04-19T09:38:29.000Z</time>
      </trkpt>
      <trkpt lat="48.60163" lon="1.89688">
        <ele>164</ele>
        <time>2011-04-19T09:38:37.000Z</time>
      </trkpt>
      <trkpt lat="48.60165" lon="1.89687">
        <ele>164</ele>
        <time>2011-04-19T09:38:38.000Z</time>
      </trkpt>
      <trkpt lat="48.6017" lon="1.8968">
        <ele>161.60000610352</ele>
        <time>2011-04-19T09:38:45.000Z</time>
      </trkpt>
      <trkpt lat="48.60177" lon="1.89667">
        <ele>161.19999694824</ele>
        <time>2011-04-19T09:38:54.000Z</time>
      </trkpt>
      <trkpt lat="48.60182" lon="1.89657">
        <ele>162.19999694824</ele>
        <time>2011-04-19T09:39:00.000Z</time>
      </trkpt>
      <trkpt lat="48.60189" lon="1.89647">
        <ele>162.60000610352</ele>
        <time>2011-04-19T09:39:07.000Z</time>
      </trkpt>
      <trkpt lat="48.60191" lon="1.89644">
        <ele>162.60000610352</ele>
        <time>2011-04-19T09:39:09.000Z</time>
      </trkpt>
      <trkpt lat="48.60199" lon="1.89633">
        <ele>161.19999694824</ele>
        <time>2011-04-19T09:39:18.000Z</time>
      </trkpt>
      <trkpt lat="48.60206" lon="1.89624">
        <ele>159.80000305176</ele>
        <time>2011-04-19T09:39:26.000Z</time>
      </trkpt>
      <trkpt lat="48.60211" lon="1.89615">
        <ele>159.19999694824</ele>
        <time>2011-04-19T09:39:33.000Z</time>
      </trkpt>
      <trkpt lat="48.60213" lon="1.89612">
        <ele>159.19999694824</ele>
        <time>2011-04-19T09:39:35.000Z</time>
      </trkpt>
      <trkpt lat="48.60216" lon="1.89607">
        <ele>159.19999694824</ele>
        <time>2011-04-19T09:39:38.000Z</time>
      </trkpt>
      <trkpt lat="48.60219" lon="1.89601">
        <ele>159.19999694824</ele>
        <time>2011-04-19T09:39:42.000Z</time>
      </trkpt>
      <trkpt lat="48.60227" lon="1.89588">
        <ele>158.19999694824</ele>
        <time>2011-04-19T09:39:51.000Z</time>
      </trkpt>
      <trkpt lat="48.60235" lon="1.89577">
        <ele>157.80000305176</ele>
        <time>2011-04-19T09:39:59.000Z</time>
      </trkpt>
      <trkpt lat="48.60246" lon="1.89562">
        <ele>158.19999694824</ele>
        <time>2011-04-19T09:40:08.000Z</time>
      </trkpt>
      <trkpt lat="48.60254" lon="1.89551">
        <ele>157.39999389648</ele>
        <time>2011-04-19T09:40:16.000Z</time>
      </trkpt>
      <trkpt lat="48.60259" lon="1.89543">
        <ele>157.39999389648</ele>
        <time>2011-04-19T09:40:21.000Z</time>
      </trkpt>
      <trkpt lat="48.60265" lon="1.89532">
        <ele>157.80000305176</ele>
        <time>2011-04-19T09:40:28.000Z</time>
      </trkpt>
      <trkpt lat="48.60266" lon="1.89531">
        <ele>157.80000305176</ele>
        <time>2011-04-19T09:40:29.000Z</time>
      </trkpt>
      <trkpt lat="48.60275" lon="1.89517">
        <ele>158.80000305176</ele>
        <time>2011-04-19T09:40:38.000Z</time>
      </trkpt>
      <trkpt lat="48.60283" lon="1.89504">
        <ele>158.19999694824</ele>
        <time>2011-04-19T09:40:46.000Z</time>
      </trkpt>
      <trkpt lat="48.60286" lon="1.89501">
        <ele>158.80000305176</ele>
        <time>2011-04-19T09:40:48.000Z</time>
      </trkpt>
      <trkpt lat="48.60294" lon="1.89491">
        <ele>159.19999694824</ele>
        <time>2011-04-19T09:40:56.000Z</time>
      </trkpt>
      <trkpt lat="48.60301" lon="1.89479">
        <ele>159.80000305176</ele>
        <time>2011-04-19T09:41:03.000Z</time>
      </trkpt>
      <trkpt lat="48.60308" lon="1.89466">
        <ele>160.60000610352</ele>
        <time>2011-04-19T09:41:11.000Z</time>
      </trkpt>
      <trkpt lat="48.60312" lon="1.89459">
        <ele>160.19999694824</ele>
        <time>2011-04-19T09:41:16.000Z</time>
      </trkpt>
      <trkpt lat="48.60319" lon="1.89448">
        <ele>160.60000610352</ele>
        <time>2011-04-19T09:41:23.000Z</time>
      </trkpt>
      <trkpt lat="48.60326" lon="1.89439">
        <ele>158.80000305176</ele>
        <time>2011-04-19T09:41:30.000Z</time>
      </trkpt>
      <trkpt lat="48.60332" lon="1.89431">
        <ele>157.39999389648</ele>
        <time>2011-04-19T09:41:36.000Z</time>
      </trkpt>
      <trkpt lat="48.60339" lon="1.89421">
        <ele>157.39999389648</ele>
        <time>2011-04-19T09:41:43.000Z</time>
      </trkpt>
      <trkpt lat="48.60345" lon="1.89412">
        <ele>157.80000305176</ele>
        <time>2011-04-19T09:41:49.000Z</time>
      </trkpt>
      <trkpt lat="48.60351" lon="1.89402">
        <ele>158.80000305176</ele>
        <time>2011-04-19T09:41:55.000Z</time>
      </trkpt>
      <trkpt lat="48.60357" lon="1.89393">
        <ele>158.19999694824</ele>
        <time>2011-04-19T09:42:01.000Z</time>
      </trkpt>
      <trkpt lat="48.60363" lon="1.89383">
        <ele>158.80000305176</ele>
        <time>2011-04-19T09:42:07.000Z</time>
      </trkpt>
      <trkpt lat="48.60367" lon="1.89377">
        <ele>158.19999694824</ele>
        <time>2011-04-19T09:42:12.000Z</time>
      </trkpt>
      <trkpt lat="48.60374" lon="1.89367">
        <ele>159.80000305176</ele>
        <time>2011-04-19T09:42:18.000Z</time>
      </trkpt>
      <trkpt lat="48.6038" lon="1.89359">
        <ele>160.19999694824</ele>
        <time>2011-04-19T09:42:24.000Z</time>
      </trkpt>
      <trkpt lat="48.60384" lon="1.8935">
        <ele>162.19999694824</ele>
        <time>2011-04-19T09:42:29.000Z</time>
      </trkpt>
      <trkpt lat="48.60391" lon="1.8934">
        <ele>165</ele>
        <time>2011-04-19T09:42:35.000Z</time>
      </trkpt>
      <trkpt lat="48.604" lon="1.89327">
        <ele>164</ele>
        <time>2011-04-19T09:42:43.000Z</time>
      </trkpt>
      <trkpt lat="48.60403" lon="1.89322">
        <ele>166</ele>
        <time>2011-04-19T09:42:46.000Z</time>
      </trkpt>
      <trkpt lat="48.60406" lon="1.89316">
        <ele>165</ele>
        <time>2011-04-19T09:42:50.000Z</time>
      </trkpt>
      <trkpt lat="48.60414" lon="1.89303">
        <ele>164</ele>
        <time>2011-04-19T09:42:59.000Z</time>
      </trkpt>
      <trkpt lat="48.60415" lon="1.89302">
        <ele>164</ele>
        <time>2011-04-19T09:43:00.000Z</time>
      </trkpt>
      <trkpt lat="48.60421" lon="1.8929">
        <ele>163.60000610352</ele>
        <time>2011-04-19T09:43:07.000Z</time>
      </trkpt>
      <trkpt lat="48.6043" lon="1.89276">
        <ele>163</ele>
        <time>2011-04-19T09:43:17.000Z</time>
      </trkpt>
      <trkpt lat="48.60433" lon="1.89271">
        <ele>163</ele>
        <time>2011-04-19T09:43:20.000Z</time>
      </trkpt>
      <trkpt lat="48.60439" lon="1.89263">
        <ele>161.19999694824</ele>
        <time>2011-04-19T09:43:26.000Z</time>
      </trkpt>
      <trkpt lat="48.60447" lon="1.89248">
        <ele>160.60000610352</ele>
        <time>2011-04-19T09:43:34.000Z</time>
      </trkpt>
      <trkpt lat="48.60451" lon="1.89236">
        <ele>164</ele>
        <time>2011-04-19T09:43:39.000Z</time>
      </trkpt>
      <trkpt lat="48.60453" lon="1.89231">
        <ele>166.39999389648</ele>
        <time>2011-04-19T09:43:46.000Z</time>
      </trkpt>
      <trkpt lat="48.60458" lon="1.89225">
        <ele>167.39999389648</ele>
        <time>2011-04-19T09:43:53.000Z</time>
      </trkpt>
      <trkpt lat="48.60461" lon="1.89219">
        <ele>167.39999389648</ele>
        <time>2011-04-19T09:43:56.000Z</time>
      </trkpt>
      <trkpt lat="48.6047" lon="1.89197">
        <ele>172.60000610352</ele>
        <time>2011-04-19T09:44:06.000Z</time>
      </trkpt>
      <trkpt lat="48.60473" lon="1.89188">
        <ele>175.60000610352</ele>
        <time>2011-04-19T09:44:10.000Z</time>
      </trkpt>
      <trkpt lat="48.60477" lon="1.89184">
        <ele>177.60000610352</ele>
        <time>2011-04-19T09:44:14.000Z</time>
      </trkpt>
      <trkpt lat="48.60488" lon="1.89175">
        <ele>180.80000305176</ele>
        <time>2011-04-19T09:44:22.000Z</time>
      </trkpt>
      <trkpt lat="48.60493" lon="1.89164">
        <ele>182.80000305176</ele>
        <time>2011-04-19T09:44:28.000Z</time>
      </trkpt>
      <trkpt lat="48.60498" lon="1.89152">
        <ele>180</ele>
        <time>2011-04-19T09:44:36.000Z</time>
      </trkpt>
      <trkpt lat="48.60502" lon="1.8914">
        <ele>175</ele>
        <time>2011-04-19T09:44:45.000Z</time>
      </trkpt>
      <trkpt lat="48.60508" lon="1.89125">
        <ele>173.19999694824</ele>
        <time>2011-04-19T09:44:54.000Z</time>
      </trkpt>
      <trkpt lat="48.60515" lon="1.89108">
        <ele>170.19999694824</ele>
        <time>2011-04-19T09:45:05.000Z</time>
      </trkpt>
      <trkpt lat="48.60519" lon="1.89098">
        <ele>168.39999389648</ele>
        <time>2011-04-19T09:45:13.000Z</time>
      </trkpt>
      <trkpt lat="48.60525" lon="1.89085">
        <ele>169.39999389648</ele>
        <time>2011-04-19T09:45:20.000Z</time>
      </trkpt>
      <trkpt lat="48.60535" lon="1.89072">
        <ele>176</ele>
        <time>2011-04-19T09:45:28.000Z</time>
      </trkpt>
      <trkpt lat="48.60544" lon="1.89056">
        <ele>184.19999694824</ele>
        <time>2011-04-19T09:45:36.000Z</time>
      </trkpt>
      <trkpt lat="48.60547" lon="1.89044">
        <ele>181.39999389648</ele>
        <time>2011-04-19T09:45:43.000Z</time>
      </trkpt>
      <trkpt lat="48.60551" lon="1.89034">
        <ele>178.39999389648</ele>
        <time>2011-04-19T09:45:50.000Z</time>
      </trkpt>
      <trkpt lat="48.60555" lon="1.89029">
        <ele>179</ele>
        <time>2011-04-19T09:45:54.000Z</time>
      </trkpt>
      <trkpt lat="48.60559" lon="1.89021">
        <ele>179</ele>
        <time>2011-04-19T09:46:00.000Z</time>
      </trkpt>
      <trkpt lat="48.60559" lon="1.89017">
        <ele>175</ele>
        <time>2011-04-19T09:46:04.000Z</time>
      </trkpt>
      <trkpt lat="48.60566" lon="1.89001">
        <ele>172.60000610352</ele>
        <time>2011-04-19T09:46:14.000Z</time>
      </trkpt>
      <trkpt lat="48.60567" lon="1.88999">
        <ele>171.19999694824</ele>
        <time>2011-04-19T09:46:16.000Z</time>
      </trkpt>
      <trkpt lat="48.60572" lon="1.8899">
        <ele>168.80000305176</ele>
        <time>2011-04-19T09:46:24.000Z</time>
      </trkpt>
      <trkpt lat="48.60576" lon="1.88984">
        <ele>168.80000305176</ele>
        <time>2011-04-19T09:46:29.000Z</time>
      </trkpt>
      <trkpt lat="48.6058" lon="1.88975">
        <ele>169.80000305176</ele>
        <time>2011-04-19T09:46:35.000Z</time>
      </trkpt>
      <trkpt lat="48.60583" lon="1.8897">
        <ele>168.80000305176</ele>
        <time>2011-04-19T09:46:39.000Z</time>
      </trkpt>
      <trkpt lat="48.60585" lon="1.88965">
        <ele>168.39999389648</ele>
        <time>2011-04-19T09:46:43.000Z</time>
      </trkpt>
      <trkpt lat="48.6059" lon="1.88955">
        <ele>167</ele>
        <time>2011-04-19T09:46:51.000Z</time>
      </trkpt>
      <trkpt lat="48.60596" lon="1.88943">
        <ele>164.60000610352</ele>
        <time>2011-04-19T09:47:00.000Z</time>
      </trkpt>
      <trkpt lat="48.60598" lon="1.88935">
        <ele>164.60000610352</ele>
        <time>2011-04-19T09:47:05.000Z</time>
      </trkpt>
      <trkpt lat="48.60603" lon="1.88927">
        <ele>165</ele>
        <time>2011-04-19T09:47:11.000Z</time>
      </trkpt>
      <trkpt lat="48.60606" lon="1.88915">
        <ele>163</ele>
        <time>2011-04-19T09:47:18.000Z</time>
      </trkpt>
      <trkpt lat="48.60615" lon="1.88897">
        <ele>163</ele>
        <time>2011-04-19T09:47:30.000Z</time>
      </trkpt>
      <trkpt lat="48.60616" lon="1.88895">
        <ele>163</ele>
        <time>2011-04-19T09:47:31.000Z</time>
      </trkpt>
      <trkpt lat="48.60623" lon="1.88883">
        <ele>164.60000610352</ele>
        <time>2011-04-19T09:47:39.000Z</time>
      </trkpt>
      <trkpt lat="48.60631" lon="1.8887">
        <ele>167.80000305176</ele>
        <time>2011-04-19T09:47:47.000Z</time>
      </trkpt>
      <trkpt lat="48.60636" lon="1.88864">
        <ele>168.39999389648</ele>
        <time>2011-04-19T09:47:52.000Z</time>
      </trkpt>
      <trkpt lat="48.60641" lon="1.88854">
        <ele>167.80000305176</ele>
        <time>2011-04-19T09:47:59.000Z</time>
      </trkpt>
      <trkpt lat="48.60644" lon="1.88843">
        <ele>166.39999389648</ele>
        <time>2011-04-19T09:48:06.000Z</time>
      </trkpt>
      <trkpt lat="48.60653" lon="1.88827">
        <ele>166.39999389648</ele>
        <time>2011-04-19T09:48:16.000Z</time>
      </trkpt>
      <trkpt lat="48.60661" lon="1.88813">
        <ele>168.39999389648</ele>
        <time>2011-04-19T09:48:24.000Z</time>
      </trkpt>
      <trkpt lat="48.60666" lon="1.88803">
        <ele>166.39999389648</ele>
        <time>2011-04-19T09:48:32.000Z</time>
      </trkpt>
      <trkpt lat="48.60668" lon="1.888">
        <ele>166</ele>
        <time>2011-04-19T09:48:35.000Z</time>
      </trkpt>
      <trkpt lat="48.60673" lon="1.8879">
        <ele>167</ele>
        <time>2011-04-19T09:48:43.000Z</time>
      </trkpt>
      <trkpt lat="48.60677" lon="1.88783">
        <ele>170.19999694824</ele>
        <time>2011-04-19T09:48:47.000Z</time>
      </trkpt>
      <trkpt lat="48.60683" lon="1.88775">
        <ele>173.19999694824</ele>
        <time>2011-04-19T09:48:53.000Z</time>
      </trkpt>
      <trkpt lat="48.60687" lon="1.8876">
        <ele>176</ele>
        <time>2011-04-19T09:49:00.000Z</time>
      </trkpt>
      <trkpt lat="48.60691" lon="1.88749">
        <ele>174.60000610352</ele>
        <time>2011-04-19T09:49:07.000Z</time>
      </trkpt>
      <trkpt lat="48.60696" lon="1.88739">
        <ele>173.60000610352</ele>
        <time>2011-04-19T09:49:14.000Z</time>
      </trkpt>
      <trkpt lat="48.607" lon="1.88729">
        <ele>174.60000610352</ele>
        <time>2011-04-19T09:49:21.000Z</time>
      </trkpt>
      <trkpt lat="48.60702" lon="1.88723">
        <ele>173.19999694824</ele>
        <time>2011-04-19T09:49:27.000Z</time>
      </trkpt>
      <trkpt lat="48.60705" lon="1.88715">
        <ele>173.60000610352</ele>
        <time>2011-04-19T09:49:32.000Z</time>
      </trkpt>
      <trkpt lat="48.60711" lon="1.88706">
        <ele>174.60000610352</ele>
        <time>2011-04-19T09:49:39.000Z</time>
      </trkpt>
      <trkpt lat="48.60712" lon="1.88705">
        <ele>175.60000610352</ele>
        <time>2011-04-19T09:49:40.000Z</time>
      </trkpt>
      <trkpt lat="48.60719" lon="1.88691">
        <ele>178.39999389648</ele>
        <time>2011-04-19T09:49:49.000Z</time>
      </trkpt>
      <trkpt lat="48.60721" lon="1.88684">
        <ele>180</ele>
        <time>2011-04-19T09:49:53.000Z</time>
      </trkpt>
      <trkpt lat="48.60724" lon="1.88672">
        <ele>174.19999694824</ele>
        <time>2011-04-19T09:50:02.000Z</time>
      </trkpt>
      <trkpt lat="48.60723" lon="1.8866">
        <ele>168.80000305176</ele>
        <time>2011-04-19T09:50:10.000Z</time>
      </trkpt>
      <trkpt lat="48.60724" lon="1.88656">
        <ele>168.80000305176</ele>
        <time>2011-04-19T09:50:14.000Z</time>
      </trkpt>
      <trkpt lat="48.60718" lon="1.88652">
        <ele>164</ele>
        <time>2011-04-19T09:50:21.000Z</time>
      </trkpt>
      <trkpt lat="48.60714" lon="1.88646">
        <ele>157.80000305176</ele>
        <time>2011-04-19T09:50:29.000Z</time>
      </trkpt>
      <trkpt lat="48.60716" lon="1.88641">
        <ele>157.39999389648</ele>
        <time>2011-04-19T09:50:34.000Z</time>
      </trkpt>
      <trkpt lat="48.60718" lon="1.88632">
        <ele>158.80000305176</ele>
        <time>2011-04-19T09:50:40.000Z</time>
      </trkpt>
      <trkpt lat="48.60723" lon="1.88621">
        <ele>162.19999694824</ele>
        <time>2011-04-19T09:50:49.000Z</time>
      </trkpt>
      <trkpt lat="48.60724" lon="1.88619">
        <ele>162.60000610352</ele>
        <time>2011-04-19T09:50:50.000Z</time>
      </trkpt>
      <trkpt lat="48.60729" lon="1.88609">
        <ele>163</ele>
        <time>2011-04-19T09:50:55.000Z</time>
      </trkpt>
      <trkpt lat="48.60734" lon="1.88592">
        <ele>167.39999389648</ele>
        <time>2011-04-19T09:51:03.000Z</time>
      </trkpt>
      <trkpt lat="48.60739" lon="1.88578">
        <ele>170.19999694824</ele>
        <time>2011-04-19T09:51:10.000Z</time>
      </trkpt>
      <trkpt lat="48.60741" lon="1.88569">
        <ele>171.19999694824</ele>
        <time>2011-04-19T09:51:15.000Z</time>
      </trkpt>
      <trkpt lat="48.60743" lon="1.88567">
        <ele>171.19999694824</ele>
        <time>2011-04-19T09:51:17.000Z</time>
      </trkpt>
      <trkpt lat="48.6075" lon="1.88558">
        <ele>175</ele>
        <time>2011-04-19T09:51:25.000Z</time>
      </trkpt>
      <trkpt lat="48.60753" lon="1.88557">
        <ele>178</ele>
        <time>2011-04-19T09:51:33.000Z</time>
      </trkpt>
      <trkpt lat="48.60756" lon="1.88535">
        <ele>177</ele>
        <time>2011-04-19T09:51:59.000Z</time>
      </trkpt>
      <trkpt lat="48.60756" lon="1.88529">
        <ele>174.60000610352</ele>
        <time>2011-04-19T09:52:02.000Z</time>
      </trkpt>
      <trkpt lat="48.60755" lon="1.88525">
        <ele>171.19999694824</ele>
        <time>2011-04-19T09:52:05.000Z</time>
      </trkpt>
      <trkpt lat="48.60755" lon="1.88521">
        <ele>171.19999694824</ele>
        <time>2011-04-19T09:52:07.000Z</time>
      </trkpt>
      <trkpt lat="48.60756" lon="1.88518">
        <ele>170.80000305176</ele>
        <time>2011-04-19T09:52:09.000Z</time>
      </trkpt>
      <trkpt lat="48.60756" lon="1.88514">
        <ele>169.39999389648</ele>
        <time>2011-04-19T09:52:12.000Z</time>
      </trkpt>
      <trkpt lat="48.60756" lon="1.8851">
        <ele>167.39999389648</ele>
        <time>2011-04-19T09:52:15.000Z</time>
      </trkpt>
      <trkpt lat="48.60755" lon="1.88504">
        <ele>164</ele>
        <time>2011-04-19T09:52:19.000Z</time>
      </trkpt>
      <trkpt lat="48.60758" lon="1.88497">
        <ele>162.19999694824</ele>
        <time>2011-04-19T09:52:24.000Z</time>
      </trkpt>
      <trkpt lat="48.6076" lon="1.88494">
        <ele>164</ele>
        <time>2011-04-19T09:52:26.000Z</time>
      </trkpt>
      <trkpt lat="48.60764" lon="1.88485">
        <ele>169.39999389648</ele>
        <time>2011-04-19T09:52:33.000Z</time>
      </trkpt>
      <trkpt lat="48.60769" lon="1.88484">
        <ele>172.19999694824</ele>
        <time>2011-04-19T09:52:42.000Z</time>
      </trkpt>
      <trkpt lat="48.60771" lon="1.88484">
        <ele>172.60000610352</ele>
        <time>2011-04-19T09:52:45.000Z</time>
      </trkpt>
      <trkpt lat="48.60773" lon="1.88478">
        <ele>173.19999694824</ele>
        <time>2011-04-19T09:52:49.000Z</time>
      </trkpt>
      <trkpt lat="48.60777" lon="1.88466">
        <ele>174.60000610352</ele>
        <time>2011-04-19T09:52:57.000Z</time>
      </trkpt>
      <trkpt lat="48.60779" lon="1.88455">
        <ele>173.19999694824</ele>
        <time>2011-04-19T09:53:03.000Z</time>
      </trkpt>
      <trkpt lat="48.60781" lon="1.88444">
        <ele>174.60000610352</ele>
        <time>2011-04-19T09:53:09.000Z</time>
      </trkpt>
      <trkpt lat="48.60781" lon="1.88441">
        <ele>173.19999694824</ele>
        <time>2011-04-19T09:53:14.000Z</time>
      </trkpt>
      <trkpt lat="48.60783" lon="1.88435">
        <ele>171.80000305176</ele>
        <time>2011-04-19T09:53:19.000Z</time>
      </trkpt>
      <trkpt lat="48.60782" lon="1.88425">
        <ele>169.80000305176</ele>
        <time>2011-04-19T09:53:26.000Z</time>
      </trkpt>
      <trkpt lat="48.60783" lon="1.88418">
        <ele>168.80000305176</ele>
        <time>2011-04-19T09:53:30.000Z</time>
      </trkpt>
      <trkpt lat="48.60786" lon="1.88412">
        <ele>168.80000305176</ele>
        <time>2011-04-19T09:53:34.000Z</time>
      </trkpt>
      <trkpt lat="48.60787" lon="1.88406">
        <ele>168.39999389648</ele>
        <time>2011-04-19T09:53:37.000Z</time>
      </trkpt>
      <trkpt lat="48.60788" lon="1.88404">
        <ele>168.39999389648</ele>
        <time>2011-04-19T09:53:38.000Z</time>
      </trkpt>
      <trkpt lat="48.60793" lon="1.88397">
        <ele>171.19999694824</ele>
        <time>2011-04-19T09:53:42.000Z</time>
      </trkpt>
      <trkpt lat="48.60796" lon="1.88383">
        <ele>175.60000610352</ele>
        <time>2011-04-19T09:53:48.000Z</time>
      </trkpt>
      <trkpt lat="48.60796" lon="1.88376">
        <ele>174.19999694824</ele>
        <time>2011-04-19T09:53:53.000Z</time>
      </trkpt>
      <trkpt lat="48.60796" lon="1.88373">
        <ele>174.60000610352</ele>
        <time>2011-04-19T09:53:54.000Z</time>
      </trkpt>
      <trkpt lat="48.608" lon="1.88363">
        <ele>177.60000610352</ele>
        <time>2011-04-19T09:54:00.000Z</time>
      </trkpt>
      <trkpt lat="48.60803" lon="1.8836">
        <ele>175.60000610352</ele>
        <time>2011-04-19T09:54:06.000Z</time>
      </trkpt>
      <trkpt lat="48.60803" lon="1.88359">
        <ele>174.60000610352</ele>
        <time>2011-04-19T09:54:07.000Z</time>
      </trkpt>
      <trkpt lat="48.60805" lon="1.88348">
        <ele>174.60000610352</ele>
        <time>2011-04-19T09:54:13.000Z</time>
      </trkpt>
      <trkpt lat="48.60807" lon="1.88346">
        <ele>175</ele>
        <time>2011-04-19T09:54:15.000Z</time>
      </trkpt>
      <trkpt lat="48.60806" lon="1.88344">
        <ele>172.60000610352</ele>
        <time>2011-04-19T09:54:17.000Z</time>
      </trkpt>
      <trkpt lat="48.60808" lon="1.88339">
        <ele>169.80000305176</ele>
        <time>2011-04-19T09:54:23.000Z</time>
      </trkpt>
      <trkpt lat="48.60811" lon="1.88332">
        <ele>168.80000305176</ele>
        <time>2011-04-19T09:54:29.000Z</time>
      </trkpt>
      <trkpt lat="48.60813" lon="1.88325">
        <ele>166.39999389648</ele>
        <time>2011-04-19T09:54:37.000Z</time>
      </trkpt>
      <trkpt lat="48.60815" lon="1.88321">
        <ele>165.39999389648</ele>
        <time>2011-04-19T09:54:42.000Z</time>
      </trkpt>
      <trkpt lat="48.60819" lon="1.88315">
        <ele>166</ele>
        <time>2011-04-19T09:54:47.000Z</time>
      </trkpt>
      <trkpt lat="48.60821" lon="1.88311">
        <ele>164.60000610352</ele>
        <time>2011-04-19T09:54:54.000Z</time>
      </trkpt>
      <trkpt lat="48.60821" lon="1.88311">
        <ele>163.60000610352</ele>
        <time>2011-04-19T09:54:56.000Z</time>
      </trkpt>
      <trkpt lat="48.60828" lon="1.88303">
        <ele>165</ele>
        <time>2011-04-19T09:55:07.000Z</time>
      </trkpt>
      <trkpt lat="48.60832" lon="1.88298">
        <ele>166</ele>
        <time>2011-04-19T09:55:10.000Z</time>
      </trkpt>
      <trkpt lat="48.6084" lon="1.88289">
        <ele>170.80000305176</ele>
        <time>2011-04-19T09:55:16.000Z</time>
      </trkpt>
      <trkpt lat="48.6084" lon="1.88285">
        <ele>172.60000610352</ele>
        <time>2011-04-19T09:55:21.000Z</time>
      </trkpt>
      <trkpt lat="48.60842" lon="1.88283">
        <ele>172.60000610352</ele>
        <time>2011-04-19T09:55:26.000Z</time>
      </trkpt>
      <trkpt lat="48.60845" lon="1.8828">
        <ele>175</ele>
        <time>2011-04-19T09:55:30.000Z</time>
      </trkpt>
      <trkpt lat="48.60848" lon="1.88277">
        <ele>176</ele>
        <time>2011-04-19T09:55:33.000Z</time>
      </trkpt>
      <trkpt lat="48.60851" lon="1.88266">
        <ele>178</ele>
        <time>2011-04-19T09:55:39.000Z</time>
      </trkpt>
      <trkpt lat="48.60856" lon="1.88254">
        <ele>180</ele>
        <time>2011-04-19T09:55:47.000Z</time>
      </trkpt>
      <trkpt lat="48.60861" lon="1.88252">
        <ele>180</ele>
        <time>2011-04-19T09:55:51.000Z</time>
      </trkpt>
      <trkpt lat="48.60861" lon="1.8825">
        <ele>177</ele>
        <time>2011-04-19T09:55:54.000Z</time>
      </trkpt>
      <trkpt lat="48.60875" lon="1.88241">
        <ele>171.19999694824</ele>
        <time>2011-04-19T09:56:34.000Z</time>
      </trkpt>
      <trkpt lat="48.60878" lon="1.88233">
        <ele>168.39999389648</ele>
        <time>2011-04-19T09:56:39.000Z</time>
      </trkpt>
      <trkpt lat="48.60883" lon="1.88227">
        <ele>169.80000305176</ele>
        <time>2011-04-19T09:56:43.000Z</time>
      </trkpt>
      <trkpt lat="48.60888" lon="1.88219">
        <ele>172.19999694824</ele>
        <time>2011-04-19T09:56:48.000Z</time>
      </trkpt>
      <trkpt lat="48.60893" lon="1.88216">
        <ele>174.60000610352</ele>
        <time>2011-04-19T09:56:51.000Z</time>
      </trkpt>
      <trkpt lat="48.60899" lon="1.88206">
        <ele>177.60000610352</ele>
        <time>2011-04-19T09:56:58.000Z</time>
      </trkpt>
      <trkpt lat="48.60903" lon="1.88202">
        <ele>176.60000610352</ele>
        <time>2011-04-19T09:57:02.000Z</time>
      </trkpt>
      <trkpt lat="48.60904" lon="1.88198">
        <ele>175.60000610352</ele>
        <time>2011-04-19T09:57:06.000Z</time>
      </trkpt>
      <trkpt lat="48.60907" lon="1.88195">
        <ele>176.60000610352</ele>
        <time>2011-04-19T09:57:09.000Z</time>
      </trkpt>
      <trkpt lat="48.60914" lon="1.88191">
        <ele>176.60000610352</ele>
        <time>2011-04-19T09:57:15.000Z</time>
      </trkpt>
      <trkpt lat="48.60917" lon="1.88187">
        <ele>175.60000610352</ele>
        <time>2011-04-19T09:57:18.000Z</time>
      </trkpt>
      <trkpt lat="48.60923" lon="1.88185">
        <ele>173.60000610352</ele>
        <time>2011-04-19T09:57:23.000Z</time>
      </trkpt>
      <trkpt lat="48.60928" lon="1.8818">
        <ele>170.19999694824</ele>
        <time>2011-04-19T09:57:29.000Z</time>
      </trkpt>
      <trkpt lat="48.60932" lon="1.88175">
        <ele>172.60000610352</ele>
        <time>2011-04-19T09:57:33.000Z</time>
      </trkpt>
      <trkpt lat="48.60935" lon="1.88168">
        <ele>174.60000610352</ele>
        <time>2011-04-19T09:57:38.000Z</time>
      </trkpt>
      <trkpt lat="48.60941" lon="1.88163">
        <ele>175.60000610352</ele>
        <time>2011-04-19T09:57:42.000Z</time>
      </trkpt>
      <trkpt lat="48.60946" lon="1.88155">
        <ele>174.19999694824</ele>
        <time>2011-04-19T09:57:49.000Z</time>
      </trkpt>
      <trkpt lat="48.6095" lon="1.8815">
        <ele>176.60000610352</ele>
        <time>2011-04-19T09:57:52.000Z</time>
      </trkpt>
      <trkpt lat="48.60959" lon="1.88139">
        <ele>182.80000305176</ele>
        <time>2011-04-19T09:57:58.000Z</time>
      </trkpt>
      <trkpt lat="48.6096" lon="1.88137">
        <ele>183.80000305176</ele>
        <time>2011-04-19T09:57:59.000Z</time>
      </trkpt>
      <trkpt lat="48.60964" lon="1.88133">
        <ele>183.19999694824</ele>
        <time>2011-04-19T09:58:04.000Z</time>
      </trkpt>
      <trkpt lat="48.60969" lon="1.88126">
        <ele>180.39999389648</ele>
        <time>2011-04-19T09:58:10.000Z</time>
      </trkpt>
      <trkpt lat="48.60974" lon="1.88118">
        <ele>179</ele>
        <time>2011-04-19T09:58:16.000Z</time>
      </trkpt>
      <trkpt lat="48.60979" lon="1.88111">
        <ele>177.60000610352</ele>
        <time>2011-04-19T09:58:21.000Z</time>
      </trkpt>
      <trkpt lat="48.60979" lon="1.88108">
        <ele>176.60000610352</ele>
        <time>2011-04-19T09:58:23.000Z</time>
      </trkpt>
      <trkpt lat="48.60986" lon="1.881">
        <ele>178.39999389648</ele>
        <time>2011-04-19T09:58:28.000Z</time>
      </trkpt>
      <trkpt lat="48.60987" lon="1.88097">
        <ele>179.39999389648</ele>
        <time>2011-04-19T09:58:29.000Z</time>
      </trkpt>
      <trkpt lat="48.6099" lon="1.8809">
        <ele>181.39999389648</ele>
        <time>2011-04-19T09:58:34.000Z</time>
      </trkpt>
      <trkpt lat="48.60995" lon="1.88088">
        <ele>182.80000305176</ele>
        <time>2011-04-19T09:58:38.000Z</time>
      </trkpt>
      <trkpt lat="48.60999" lon="1.88083">
        <ele>181.39999389648</ele>
        <time>2011-04-19T09:58:43.000Z</time>
      </trkpt>
      <trkpt lat="48.61004" lon="1.88075">
        <ele>182.80000305176</ele>
        <time>2011-04-19T09:58:49.000Z</time>
      </trkpt>
      <trkpt lat="48.61008" lon="1.8807">
        <ele>180.80000305176</ele>
        <time>2011-04-19T09:58:55.000Z</time>
      </trkpt>
      <trkpt lat="48.6101" lon="1.88066">
        <ele>180.80000305176</ele>
        <time>2011-04-19T09:59:02.000Z</time>
      </trkpt>
      <trkpt lat="48.61016" lon="1.88056">
        <ele>179</ele>
        <time>2011-04-19T09:59:11.000Z</time>
      </trkpt>
      <trkpt lat="48.61018" lon="1.88051">
        <ele>178</ele>
        <time>2011-04-19T09:59:14.000Z</time>
      </trkpt>
      <trkpt lat="48.6102" lon="1.88049">
        <ele>175</ele>
        <time>2011-04-19T09:59:17.000Z</time>
      </trkpt>
      <trkpt lat="48.61023" lon="1.88044">
        <ele>171.19999694824</ele>
        <time>2011-04-19T09:59:21.000Z</time>
      </trkpt>
      <trkpt lat="48.61026" lon="1.8804">
        <ele>167.39999389648</ele>
        <time>2011-04-19T09:59:26.000Z</time>
      </trkpt>
      <trkpt lat="48.6103" lon="1.88034">
        <ele>167.39999389648</ele>
        <time>2011-04-19T09:59:30.000Z</time>
      </trkpt>
      <trkpt lat="48.61033" lon="1.88028">
        <ele>165</ele>
        <time>2011-04-19T09:59:34.000Z</time>
      </trkpt>
      <trkpt lat="48.61037" lon="1.8802">
        <ele>163.60000610352</ele>
        <time>2011-04-19T09:59:40.000Z</time>
      </trkpt>
      <trkpt lat="48.61045" lon="1.88011">
        <ele>169.39999389648</ele>
        <time>2011-04-19T09:59:46.000Z</time>
      </trkpt>
      <trkpt lat="48.61047" lon="1.88007">
        <ele>170.19999694824</ele>
        <time>2011-04-19T09:59:48.000Z</time>
      </trkpt>
      <trkpt lat="48.61061" lon="1.87996">
        <ele>180.80000305176</ele>
        <time>2011-04-19T09:59:55.000Z</time>
      </trkpt>
      <trkpt lat="48.61063" lon="1.87991">
        <ele>173.60000610352</ele>
        <time>2011-04-19T10:00:01.000Z</time>
      </trkpt>
      <trkpt lat="48.61066" lon="1.87981">
        <ele>172.60000610352</ele>
        <time>2011-04-19T10:00:06.000Z</time>
      </trkpt>
      <trkpt lat="48.61069" lon="1.87978">
        <ele>174.60000610352</ele>
        <time>2011-04-19T10:00:08.000Z</time>
      </trkpt>
      <trkpt lat="48.61071" lon="1.87972">
        <ele>173.19999694824</ele>
        <time>2011-04-19T10:00:12.000Z</time>
      </trkpt>
      <trkpt lat="48.61081" lon="1.87958">
        <ele>173.60000610352</ele>
        <time>2011-04-19T10:00:22.000Z</time>
      </trkpt>
      <trkpt lat="48.61086" lon="1.87951">
        <ele>171.80000305176</ele>
        <time>2011-04-19T10:00:28.000Z</time>
      </trkpt>
      <trkpt lat="48.61089" lon="1.87945">
        <ele>172.19999694824</ele>
        <time>2011-04-19T10:00:32.000Z</time>
      </trkpt>
      <trkpt lat="48.61097" lon="1.87937">
        <ele>178</ele>
        <time>2011-04-19T10:00:38.000Z</time>
      </trkpt>
      <trkpt lat="48.61101" lon="1.87933">
        <ele>179.39999389648</ele>
        <time>2011-04-19T10:00:41.000Z</time>
      </trkpt>
      <trkpt lat="48.61103" lon="1.87928">
        <ele>173.19999694824</ele>
        <time>2011-04-19T10:00:47.000Z</time>
      </trkpt>
      <trkpt lat="48.61106" lon="1.87926">
        <ele>168.39999389648</ele>
        <time>2011-04-19T10:00:52.000Z</time>
      </trkpt>
      <trkpt lat="48.61109" lon="1.87924">
        <ele>167</ele>
        <time>2011-04-19T10:00:56.000Z</time>
      </trkpt>
      <trkpt lat="48.61112" lon="1.87921">
        <ele>167.39999389648</ele>
        <time>2011-04-19T10:01:01.000Z</time>
      </trkpt>
      <trkpt lat="48.61114" lon="1.87914">
        <ele>167.80000305176</ele>
        <time>2011-04-19T10:01:06.000Z</time>
      </trkpt>
      <trkpt lat="48.61115" lon="1.87911">
        <ele>167</ele>
        <time>2011-04-19T10:01:09.000Z</time>
      </trkpt>
      <trkpt lat="48.61117" lon="1.87899">
        <ele>167.39999389648</ele>
        <time>2011-04-19T10:01:16.000Z</time>
      </trkpt>
      <trkpt lat="48.61121" lon="1.87888">
        <ele>169.39999389648</ele>
        <time>2011-04-19T10:01:22.000Z</time>
      </trkpt>
      <trkpt lat="48.61132" lon="1.87881">
        <ele>174.60000610352</ele>
        <time>2011-04-19T10:01:28.000Z</time>
      </trkpt>
      <trkpt lat="48.61134" lon="1.8788">
        <ele>173.60000610352</ele>
        <time>2011-04-19T10:01:30.000Z</time>
      </trkpt>
      <trkpt lat="48.6114" lon="1.87874">
        <ele>172.19999694824</ele>
        <time>2011-04-19T10:01:36.000Z</time>
      </trkpt>
      <trkpt lat="48.61145" lon="1.87867">
        <ele>175</ele>
        <time>2011-04-19T10:01:41.000Z</time>
      </trkpt>
      <trkpt lat="48.61149" lon="1.87857">
        <ele>174.19999694824</ele>
        <time>2011-04-19T10:01:47.000Z</time>
      </trkpt>
      <trkpt lat="48.6115" lon="1.87846">
        <ele>170.80000305176</ele>
        <time>2011-04-19T10:01:53.000Z</time>
      </trkpt>
      <trkpt lat="48.61153" lon="1.87843">
        <ele>171.80000305176</ele>
        <time>2011-04-19T10:01:56.000Z</time>
      </trkpt>
      <trkpt lat="48.61155" lon="1.8784">
        <ele>172.19999694824</ele>
        <time>2011-04-19T10:01:58.000Z</time>
      </trkpt>
      <trkpt lat="48.61153" lon="1.87831">
        <ele>172.19999694824</ele>
        <time>2011-04-19T10:02:02.000Z</time>
      </trkpt>
      <trkpt lat="48.61154" lon="1.8783">
        <ele>171.80000305176</ele>
        <time>2011-04-19T10:02:03.000Z</time>
      </trkpt>
      <trkpt lat="48.61156" lon="1.87824">
        <ele>168.39999389648</ele>
        <time>2011-04-19T10:02:08.000Z</time>
      </trkpt>
      <trkpt lat="48.61157" lon="1.8782">
        <ele>170.80000305176</ele>
        <time>2011-04-19T10:02:10.000Z</time>
      </trkpt>
      <trkpt lat="48.61159" lon="1.87816">
        <ele>171.19999694824</ele>
        <time>2011-04-19T10:02:12.000Z</time>
      </trkpt>
      <trkpt lat="48.61164" lon="1.87809">
        <ele>172.60000610352</ele>
        <time>2011-04-19T10:02:17.000Z</time>
      </trkpt>
      <trkpt lat="48.61166" lon="1.87807">
        <ele>173.19999694824</ele>
        <time>2011-04-19T10:02:18.000Z</time>
      </trkpt>
      <trkpt lat="48.61165" lon="1.87803">
        <ele>175.60000610352</ele>
        <time>2011-04-19T10:02:20.000Z</time>
      </trkpt>
      <trkpt lat="48.61169" lon="1.87794">
        <ele>173.19999694824</ele>
        <time>2011-04-19T10:02:25.000Z</time>
      </trkpt>
      <trkpt lat="48.61174" lon="1.87784">
        <ele>172.60000610352</ele>
        <time>2011-04-19T10:02:31.000Z</time>
      </trkpt>
      <trkpt lat="48.61179" lon="1.87772">
        <ele>173.60000610352</ele>
        <time>2011-04-19T10:02:35.000Z</time>
      </trkpt>
      <trkpt lat="48.6118" lon="1.87763">
        <ele>171.80000305176</ele>
        <time>2011-04-19T10:02:40.000Z</time>
      </trkpt>
      <trkpt lat="48.61181" lon="1.87757">
        <ele>171.80000305176</ele>
        <time>2011-04-19T10:02:43.000Z</time>
      </trkpt>
      <trkpt lat="48.61181" lon="1.8775">
        <ele>171.80000305176</ele>
        <time>2011-04-19T10:02:46.000Z</time>
      </trkpt>
      <trkpt lat="48.61187" lon="1.87742">
        <ele>170.19999694824</ele>
        <time>2011-04-19T10:02:51.000Z</time>
      </trkpt>
      <trkpt lat="48.61188" lon="1.87739">
        <ele>169.80000305176</ele>
        <time>2011-04-19T10:02:54.000Z</time>
      </trkpt>
      <trkpt lat="48.61191" lon="1.87736">
        <ele>170.19999694824</ele>
        <time>2011-04-19T10:02:56.000Z</time>
      </trkpt>
      <trkpt lat="48.61193" lon="1.87734">
        <ele>169.80000305176</ele>
        <time>2011-04-19T10:02:58.000Z</time>
      </trkpt>
      <trkpt lat="48.61195" lon="1.87725">
        <ele>172.19999694824</ele>
        <time>2011-04-19T10:03:02.000Z</time>
      </trkpt>
      <trkpt lat="48.61194" lon="1.87715">
        <ele>168.80000305176</ele>
        <time>2011-04-19T10:03:07.000Z</time>
      </trkpt>
      <trkpt lat="48.61198" lon="1.87709">
        <ele>167</ele>
        <time>2011-04-19T10:03:11.000Z</time>
      </trkpt>
      <trkpt lat="48.61198" lon="1.87701">
        <ele>166</ele>
        <time>2011-04-19T10:03:15.000Z</time>
      </trkpt>
      <trkpt lat="48.612" lon="1.87697">
        <ele>162.19999694824</ele>
        <time>2011-04-19T10:03:19.000Z</time>
      </trkpt>
      <trkpt lat="48.61204" lon="1.87688">
        <ele>164</ele>
        <time>2011-04-19T10:03:25.000Z</time>
      </trkpt>
      <trkpt lat="48.61208" lon="1.87681">
        <ele>167</ele>
        <time>2011-04-19T10:03:29.000Z</time>
      </trkpt>
      <trkpt lat="48.6121" lon="1.87671">
        <ele>168.39999389648</ele>
        <time>2011-04-19T10:03:34.000Z</time>
      </trkpt>
      <trkpt lat="48.61209" lon="1.87669">
        <ele>167.80000305176</ele>
        <time>2011-04-19T10:03:35.000Z</time>
      </trkpt>
      <trkpt lat="48.6121" lon="1.87656">
        <ele>164.60000610352</ele>
        <time>2011-04-19T10:03:42.000Z</time>
      </trkpt>
      <trkpt lat="48.61206" lon="1.87644">
        <ele>160.19999694824</ele>
        <time>2011-04-19T10:03:48.000Z</time>
      </trkpt>
      <trkpt lat="48.61208" lon="1.87628">
        <ele>158.19999694824</ele>
        <time>2011-04-19T10:03:56.000Z</time>
      </trkpt>
      <trkpt lat="48.61213" lon="1.87615">
        <ele>156.39999389648</ele>
        <time>2011-04-19T10:04:04.000Z</time>
      </trkpt>
      <trkpt lat="48.61216" lon="1.87608">
        <ele>155.39999389648</ele>
        <time>2011-04-19T10:04:08.000Z</time>
      </trkpt>
      <trkpt lat="48.61227" lon="1.87594">
        <ele>162.19999694824</ele>
        <time>2011-04-19T10:04:16.000Z</time>
      </trkpt>
      <trkpt lat="48.61235" lon="1.87585">
        <ele>169.39999389648</ele>
        <time>2011-04-19T10:04:21.000Z</time>
      </trkpt>
      <trkpt lat="48.61241" lon="1.87571">
        <ele>171.19999694824</ele>
        <time>2011-04-19T10:04:29.000Z</time>
      </trkpt>
      <trkpt lat="48.61247" lon="1.87565">
        <ele>169.80000305176</ele>
        <time>2011-04-19T10:04:35.000Z</time>
      </trkpt>
      <trkpt lat="48.61253" lon="1.87561">
        <ele>172.60000610352</ele>
        <time>2011-04-19T10:04:39.000Z</time>
      </trkpt>
      <trkpt lat="48.6126" lon="1.87555">
        <ele>174.19999694824</ele>
        <time>2011-04-19T10:04:44.000Z</time>
      </trkpt>
      <trkpt lat="48.6127" lon="1.87546">
        <ele>177.60000610352</ele>
        <time>2011-04-19T10:04:51.000Z</time>
      </trkpt>
      <trkpt lat="48.61276" lon="1.87539">
        <ele>173.19999694824</ele>
        <time>2011-04-19T10:04:57.000Z</time>
      </trkpt>
      <trkpt lat="48.61278" lon="1.87534">
        <ele>170.19999694824</ele>
        <time>2011-04-19T10:05:01.000Z</time>
      </trkpt>
      <trkpt lat="48.61281" lon="1.87527">
        <ele>167.39999389648</ele>
        <time>2011-04-19T10:05:06.000Z</time>
      </trkpt>
      <trkpt lat="48.61289" lon="1.87524">
        <ele>169.80000305176</ele>
        <time>2011-04-19T10:05:10.000Z</time>
      </trkpt>
      <trkpt lat="48.61295" lon="1.87517">
        <ele>172.19999694824</ele>
        <time>2011-04-19T10:05:15.000Z</time>
      </trkpt>
      <trkpt lat="48.613" lon="1.8751">
        <ele>177.60000610352</ele>
        <time>2011-04-19T10:05:19.000Z</time>
      </trkpt>
      <trkpt lat="48.61303" lon="1.87505">
        <ele>177</ele>
        <time>2011-04-19T10:05:24.000Z</time>
      </trkpt>
      <trkpt lat="48.61306" lon="1.87502">
        <ele>179</ele>
        <time>2011-04-19T10:05:26.000Z</time>
      </trkpt>
      <trkpt lat="48.61314" lon="1.87493">
        <ele>184.80000305176</ele>
        <time>2011-04-19T10:05:32.000Z</time>
      </trkpt>
      <trkpt lat="48.61317" lon="1.87489">
        <ele>176</ele>
        <time>2011-04-19T10:05:38.000Z</time>
      </trkpt>
      <trkpt lat="48.61318" lon="1.87485">
        <ele>175</ele>
        <time>2011-04-19T10:05:40.000Z</time>
      </trkpt>
      <trkpt lat="48.61325" lon="1.87475">
        <ele>177</ele>
        <time>2011-04-19T10:05:47.000Z</time>
      </trkpt>
      <trkpt lat="48.61328" lon="1.87472">
        <ele>176</ele>
        <time>2011-04-19T10:05:50.000Z</time>
      </trkpt>
      <trkpt lat="48.6134" lon="1.87471">
        <ele>183.19999694824</ele>
        <time>2011-04-19T10:05:55.000Z</time>
      </trkpt>
      <trkpt lat="48.61347" lon="1.87478">
        <ele>184.19999694824</ele>
        <time>2011-04-19T10:06:00.000Z</time>
      </trkpt>
      <trkpt lat="48.61347" lon="1.87483">
        <ele>179.39999389648</ele>
        <time>2011-04-19T10:06:03.000Z</time>
      </trkpt>
      <trkpt lat="48.61351" lon="1.87486">
        <ele>176.60000610352</ele>
        <time>2011-04-19T10:06:08.000Z</time>
      </trkpt>
      <trkpt lat="48.61353" lon="1.8749">
        <ele>172.19999694824</ele>
        <time>2011-04-19T10:06:12.000Z</time>
      </trkpt>
      <trkpt lat="48.61355" lon="1.87491">
        <ele>170.80000305176</ele>
        <time>2011-04-19T10:06:17.000Z</time>
      </trkpt>
      <trkpt lat="48.61357" lon="1.87489">
        <ele>170.80000305176</ele>
        <time>2011-04-19T10:06:19.000Z</time>
      </trkpt>
      <trkpt lat="48.61363" lon="1.87475">
        <ele>168.80000305176</ele>
        <time>2011-04-19T10:06:27.000Z</time>
      </trkpt>
      <trkpt lat="48.61366" lon="1.8747">
        <ele>168.39999389648</ele>
        <time>2011-04-19T10:06:31.000Z</time>
      </trkpt>
      <trkpt lat="48.61369" lon="1.87466">
        <ele>167</ele>
        <time>2011-04-19T10:06:34.000Z</time>
      </trkpt>
      <trkpt lat="48.61373" lon="1.87455">
        <ele>167.80000305176</ele>
        <time>2011-04-19T10:06:40.000Z</time>
      </trkpt>
      <trkpt lat="48.61376" lon="1.87444">
        <ele>166.39999389648</ele>
        <time>2011-04-19T10:06:46.000Z</time>
      </trkpt>
      <trkpt lat="48.61384" lon="1.87437">
        <ele>170.80000305176</ele>
        <time>2011-04-19T10:06:51.000Z</time>
      </trkpt>
      <trkpt lat="48.61386" lon="1.87429">
        <ele>172.60000610352</ele>
        <time>2011-04-19T10:06:56.000Z</time>
      </trkpt>
      <trkpt lat="48.61389" lon="1.87423">
        <ele>176.60000610352</ele>
        <time>2011-04-19T10:06:58.000Z</time>
      </trkpt>
      <trkpt lat="48.61392" lon="1.87415">
        <ele>174.60000610352</ele>
        <time>2011-04-19T10:07:02.000Z</time>
      </trkpt>
      <trkpt lat="48.61393" lon="1.87411">
        <ele>175.60000610352</ele>
        <time>2011-04-19T10:07:04.000Z</time>
      </trkpt>
      <trkpt lat="48.61394" lon="1.87403">
        <ele>173.19999694824</ele>
        <time>2011-04-19T10:07:08.000Z</time>
      </trkpt>
      <trkpt lat="48.61396" lon="1.87396">
        <ele>173.19999694824</ele>
        <time>2011-04-19T10:07:12.000Z</time>
      </trkpt>
      <trkpt lat="48.61397" lon="1.87392">
        <ele>175.60000610352</ele>
        <time>2011-04-19T10:07:14.000Z</time>
      </trkpt>
      <trkpt lat="48.61399" lon="1.87383">
        <ele>170.80000305176</ele>
        <time>2011-04-19T10:07:20.000Z</time>
      </trkpt>
      <trkpt lat="48.61401" lon="1.8738">
        <ele>170.80000305176</ele>
        <time>2011-04-19T10:07:22.000Z</time>
      </trkpt>
      <trkpt lat="48.61405" lon="1.87373">
        <ele>174.60000610352</ele>
        <time>2011-04-19T10:07:25.000Z</time>
      </trkpt>
      <trkpt lat="48.61408" lon="1.87368">
        <ele>176.60000610352</ele>
        <time>2011-04-19T10:07:28.000Z</time>
      </trkpt>
      <trkpt lat="48.61409" lon="1.87365">
        <ele>175.60000610352</ele>
        <time>2011-04-19T10:07:30.000Z</time>
      </trkpt>
      <trkpt lat="48.61417" lon="1.87357">
        <ele>176.60000610352</ele>
        <time>2011-04-19T10:07:36.000Z</time>
      </trkpt>
      <trkpt lat="48.61417" lon="1.87354">
        <ele>174.19999694824</ele>
        <time>2011-04-19T10:07:38.000Z</time>
      </trkpt>
      <trkpt lat="48.61419" lon="1.87344">
        <ele>177.60000610352</ele>
        <time>2011-04-19T10:07:44.000Z</time>
      </trkpt>
      <trkpt lat="48.61415" lon="1.8734">
        <ele>175.60000610352</ele>
        <time>2011-04-19T10:07:50.000Z</time>
      </trkpt>
      <trkpt lat="48.61417" lon="1.87337">
        <ele>174.19999694824</ele>
        <time>2011-04-19T10:07:52.000Z</time>
      </trkpt>
      <trkpt lat="48.61427" lon="1.87325">
        <ele>174.19999694824</ele>
        <time>2011-04-19T10:07:59.000Z</time>
      </trkpt>
      <trkpt lat="48.6143" lon="1.87317">
        <ele>174.19999694824</ele>
        <time>2011-04-19T10:08:03.000Z</time>
      </trkpt>
      <trkpt lat="48.61433" lon="1.87305">
        <ele>174.60000610352</ele>
        <time>2011-04-19T10:08:08.000Z</time>
      </trkpt>
      <trkpt lat="48.61439" lon="1.87295">
        <ele>173.60000610352</ele>
        <time>2011-04-19T10:08:14.000Z</time>
      </trkpt>
      <trkpt lat="48.6144" lon="1.87292">
        <ele>174.19999694824</ele>
        <time>2011-04-19T10:08:16.000Z</time>
      </trkpt>
      <trkpt lat="48.61444" lon="1.87284">
        <ele>178</ele>
        <time>2011-04-19T10:08:20.000Z</time>
      </trkpt>
      <trkpt lat="48.61444" lon="1.87277">
        <ele>173.60000610352</ele>
        <time>2011-04-19T10:08:24.000Z</time>
      </trkpt>
      <trkpt lat="48.61447" lon="1.8727">
        <ele>172.60000610352</ele>
        <time>2011-04-19T10:08:28.000Z</time>
      </trkpt>
      <trkpt lat="48.61452" lon="1.87261">
        <ele>172.60000610352</ele>
        <time>2011-04-19T10:08:34.000Z</time>
      </trkpt>
      <trkpt lat="48.61455" lon="1.87254">
        <ele>172.19999694824</ele>
        <time>2011-04-19T10:08:38.000Z</time>
      </trkpt>
      <trkpt lat="48.61458" lon="1.87246">
        <ele>171.80000305176</ele>
        <time>2011-04-19T10:08:43.000Z</time>
      </trkpt>
      <trkpt lat="48.61462" lon="1.87241">
        <ele>172.60000610352</ele>
        <time>2011-04-19T10:08:47.000Z</time>
      </trkpt>
      <trkpt lat="48.61465" lon="1.87232">
        <ele>169.39999389648</ele>
        <time>2011-04-19T10:08:52.000Z</time>
      </trkpt>
      <trkpt lat="48.61469" lon="1.87227">
        <ele>172.19999694824</ele>
        <time>2011-04-19T10:08:55.000Z</time>
      </trkpt>
      <trkpt lat="48.61472" lon="1.87217">
        <ele>175</ele>
        <time>2011-04-19T10:09:00.000Z</time>
      </trkpt>
      <trkpt lat="48.61474" lon="1.87213">
        <ele>175.60000610352</ele>
        <time>2011-04-19T10:09:02.000Z</time>
      </trkpt>
      <trkpt lat="48.6148" lon="1.87201">
        <ele>180</ele>
        <time>2011-04-19T10:09:09.000Z</time>
      </trkpt>
      <trkpt lat="48.61486" lon="1.87193">
        <ele>181.39999389648</ele>
        <time>2011-04-19T10:09:14.000Z</time>
      </trkpt>
      <trkpt lat="48.61488" lon="1.87181">
        <ele>174.60000610352</ele>
        <time>2011-04-19T10:09:20.000Z</time>
      </trkpt>
      <trkpt lat="48.61488" lon="1.87176">
        <ele>171.80000305176</ele>
        <time>2011-04-19T10:09:23.000Z</time>
      </trkpt>
      <trkpt lat="48.61493" lon="1.87158">
        <ele>166.39999389648</ele>
        <time>2011-04-19T10:09:34.000Z</time>
      </trkpt>
      <trkpt lat="48.61495" lon="1.87148">
        <ele>164</ele>
        <time>2011-04-19T10:09:39.000Z</time>
      </trkpt>
      <trkpt lat="48.61499" lon="1.87141">
        <ele>166.39999389648</ele>
        <time>2011-04-19T10:09:44.000Z</time>
      </trkpt>
      <trkpt lat="48.61502" lon="1.8713">
        <ele>167</ele>
        <time>2011-04-19T10:09:50.000Z</time>
      </trkpt>
      <trkpt lat="48.61505" lon="1.87123">
        <ele>170.19999694824</ele>
        <time>2011-04-19T10:09:55.000Z</time>
      </trkpt>
      <trkpt lat="48.61512" lon="1.87115">
        <ele>177.60000610352</ele>
        <time>2011-04-19T10:10:00.000Z</time>
      </trkpt>
      <trkpt lat="48.61521" lon="1.87108">
        <ele>184.19999694824</ele>
        <time>2011-04-19T10:10:04.000Z</time>
      </trkpt>
      <trkpt lat="48.61527" lon="1.871">
        <ele>188</ele>
        <time>2011-04-19T10:10:09.000Z</time>
      </trkpt>
      <trkpt lat="48.61528" lon="1.87099">
        <ele>188</ele>
        <time>2011-04-19T10:10:10.000Z</time>
      </trkpt>
      <trkpt lat="48.6153" lon="1.87086">
        <ele>189</ele>
        <time>2011-04-19T10:10:16.000Z</time>
      </trkpt>
      <trkpt lat="48.6153" lon="1.87077">
        <ele>186.60000610352</ele>
        <time>2011-04-19T10:10:19.000Z</time>
      </trkpt>
      <trkpt lat="48.6153" lon="1.87071">
        <ele>178.39999389648</ele>
        <time>2011-04-19T10:10:24.000Z</time>
      </trkpt>
      <trkpt lat="48.61532" lon="1.87058">
        <ele>174.19999694824</ele>
        <time>2011-04-19T10:10:31.000Z</time>
      </trkpt>
      <trkpt lat="48.61534" lon="1.8705">
        <ele>172.19999694824</ele>
        <time>2011-04-19T10:10:36.000Z</time>
      </trkpt>
      <trkpt lat="48.61536" lon="1.87039">
        <ele>174.19999694824</ele>
        <time>2011-04-19T10:10:41.000Z</time>
      </trkpt>
      <trkpt lat="48.61538" lon="1.87033">
        <ele>175</ele>
        <time>2011-04-19T10:10:45.000Z</time>
      </trkpt>
      <trkpt lat="48.6154" lon="1.87025">
        <ele>171.80000305176</ele>
        <time>2011-04-19T10:10:50.000Z</time>
      </trkpt>
      <trkpt lat="48.61543" lon="1.87018">
        <ele>169.80000305176</ele>
        <time>2011-04-19T10:10:54.000Z</time>
      </trkpt>
      <trkpt lat="48.61545" lon="1.87016">
        <ele>171.19999694824</ele>
        <time>2011-04-19T10:10:55.000Z</time>
      </trkpt>
      <trkpt lat="48.61554" lon="1.87003">
        <ele>180.39999389648</ele>
        <time>2011-04-19T10:11:02.000Z</time>
      </trkpt>
      <trkpt lat="48.61554" lon="1.87">
        <ele>179.39999389648</ele>
        <time>2011-04-19T10:11:04.000Z</time>
      </trkpt>
      <trkpt lat="48.61557" lon="1.86988">
        <ele>173.60000610352</ele>
        <time>2011-04-19T10:11:11.000Z</time>
      </trkpt>
      <trkpt lat="48.61562" lon="1.86979">
        <ele>172.19999694824</ele>
        <time>2011-04-19T10:11:17.000Z</time>
      </trkpt>
      <trkpt lat="48.61563" lon="1.86974">
        <ele>167</ele>
        <time>2011-04-19T10:11:22.000Z</time>
      </trkpt>
      <trkpt lat="48.61566" lon="1.86966">
        <ele>165.39999389648</ele>
        <time>2011-04-19T10:11:27.000Z</time>
      </trkpt>
      <trkpt lat="48.61569" lon="1.86962">
        <ele>167.39999389648</ele>
        <time>2011-04-19T10:11:29.000Z</time>
      </trkpt>
      <trkpt lat="48.61573" lon="1.86955">
        <ele>171.19999694824</ele>
        <time>2011-04-19T10:11:33.000Z</time>
      </trkpt>
      <trkpt lat="48.6158" lon="1.86943">
        <ele>178.39999389648</ele>
        <time>2011-04-19T10:11:39.000Z</time>
      </trkpt>
      <trkpt lat="48.61584" lon="1.86936">
        <ele>180</ele>
        <time>2011-04-19T10:11:43.000Z</time>
      </trkpt>
      <trkpt lat="48.61587" lon="1.8693">
        <ele>180.80000305176</ele>
        <time>2011-04-19T10:11:47.000Z</time>
      </trkpt>
      <trkpt lat="48.61586" lon="1.86921">
        <ele>179</ele>
        <time>2011-04-19T10:11:51.000Z</time>
      </trkpt>
      <trkpt lat="48.61587" lon="1.86917">
        <ele>174.19999694824</ele>
        <time>2011-04-19T10:11:55.000Z</time>
      </trkpt>
      <trkpt lat="48.61591" lon="1.86908">
        <ele>173.19999694824</ele>
        <time>2011-04-19T10:12:00.000Z</time>
      </trkpt>
      <trkpt lat="48.61594" lon="1.86902">
        <ele>169.80000305176</ele>
        <time>2011-04-19T10:12:05.000Z</time>
      </trkpt>
      <trkpt lat="48.61595" lon="1.86896">
        <ele>167.80000305176</ele>
        <time>2011-04-19T10:12:09.000Z</time>
      </trkpt>
      <trkpt lat="48.61596" lon="1.86894">
        <ele>167</ele>
        <time>2011-04-19T10:12:11.000Z</time>
      </trkpt>
      <trkpt lat="48.616" lon="1.86889">
        <ele>169.39999389648</ele>
        <time>2011-04-19T10:12:14.000Z</time>
      </trkpt>
      <trkpt lat="48.61602" lon="1.86886">
        <ele>169.39999389648</ele>
        <time>2011-04-19T10:12:16.000Z</time>
      </trkpt>
      <trkpt lat="48.61599" lon="1.86878">
        <ele>169.80000305176</ele>
        <time>2011-04-19T10:12:19.000Z</time>
      </trkpt>
      <trkpt lat="48.61601" lon="1.8687">
        <ele>173.19999694824</ele>
        <time>2011-04-19T10:12:22.000Z</time>
      </trkpt>
      <trkpt lat="48.61605" lon="1.86858">
        <ele>179.39999389648</ele>
        <time>2011-04-19T10:12:27.000Z</time>
      </trkpt>
      <trkpt lat="48.61611" lon="1.86849">
        <ele>180</ele>
        <time>2011-04-19T10:12:32.000Z</time>
      </trkpt>
      <trkpt lat="48.61619" lon="1.86839">
        <ele>185.19999694824</ele>
        <time>2011-04-19T10:12:38.000Z</time>
      </trkpt>
      <trkpt lat="48.6162" lon="1.86834">
        <ele>186.60000610352</ele>
        <time>2011-04-19T10:12:40.000Z</time>
      </trkpt>
      <trkpt lat="48.6162" lon="1.86833">
        <ele>186.19999694824</ele>
        <time>2011-04-19T10:12:42.000Z</time>
      </trkpt>
      <trkpt lat="48.6162" lon="1.86824">
        <ele>180.80000305176</ele>
        <time>2011-04-19T10:12:47.000Z</time>
      </trkpt>
      <trkpt lat="48.61621" lon="1.86818">
        <ele>175.60000610352</ele>
        <time>2011-04-19T10:12:51.000Z</time>
      </trkpt>
      <trkpt lat="48.61622" lon="1.86812">
        <ele>168.39999389648</ele>
        <time>2011-04-19T10:12:55.000Z</time>
      </trkpt>
      <trkpt lat="48.61625" lon="1.86806">
        <ele>167</ele>
        <time>2011-04-19T10:13:00.000Z</time>
      </trkpt>
      <trkpt lat="48.61629" lon="1.86796">
        <ele>167</ele>
        <time>2011-04-19T10:13:06.000Z</time>
      </trkpt>
      <trkpt lat="48.61632" lon="1.8679">
        <ele>168.39999389648</ele>
        <time>2011-04-19T10:13:09.000Z</time>
      </trkpt>
      <trkpt lat="48.61637" lon="1.86779">
        <ele>168.39999389648</ele>
        <time>2011-04-19T10:13:16.000Z</time>
      </trkpt>
      <trkpt lat="48.61637" lon="1.86778">
        <ele>167.80000305176</ele>
        <time>2011-04-19T10:13:17.000Z</time>
      </trkpt>
      <trkpt lat="48.61643" lon="1.86763">
        <ele>170.19999694824</ele>
        <time>2011-04-19T10:13:24.000Z</time>
      </trkpt>
      <trkpt lat="48.61644" lon="1.86759">
        <ele>172.19999694824</ele>
        <time>2011-04-19T10:13:26.000Z</time>
      </trkpt>
      <trkpt lat="48.61647" lon="1.86754">
        <ele>173.19999694824</ele>
        <time>2011-04-19T10:13:29.000Z</time>
      </trkpt>
      <trkpt lat="48.61651" lon="1.86747">
        <ele>177.60000610352</ele>
        <time>2011-04-19T10:13:33.000Z</time>
      </trkpt>
      <trkpt lat="48.61654" lon="1.8674">
        <ele>176</ele>
        <time>2011-04-19T10:13:37.000Z</time>
      </trkpt>
      <trkpt lat="48.61656" lon="1.86738">
        <ele>176</ele>
        <time>2011-04-19T10:13:39.000Z</time>
      </trkpt>
      <trkpt lat="48.61659" lon="1.86732">
        <ele>180.80000305176</ele>
        <time>2011-04-19T10:13:43.000Z</time>
      </trkpt>
      <trkpt lat="48.61662" lon="1.86725">
        <ele>179</ele>
        <time>2011-04-19T10:13:46.000Z</time>
      </trkpt>
      <trkpt lat="48.61665" lon="1.86717">
        <ele>174.60000610352</ele>
        <time>2011-04-19T10:13:51.000Z</time>
      </trkpt>
      <trkpt lat="48.6167" lon="1.8671">
        <ele>174.60000610352</ele>
        <time>2011-04-19T10:13:56.000Z</time>
      </trkpt>
      <trkpt lat="48.61676" lon="1.86701">
        <ele>177.60000610352</ele>
        <time>2011-04-19T10:14:01.000Z</time>
      </trkpt>
      <trkpt lat="48.61678" lon="1.86695">
        <ele>178</ele>
        <time>2011-04-19T10:14:05.000Z</time>
      </trkpt>
      <trkpt lat="48.61682" lon="1.86685">
        <ele>180</ele>
        <time>2011-04-19T10:14:10.000Z</time>
      </trkpt>
      <trkpt lat="48.61684" lon="1.86681">
        <ele>178</ele>
        <time>2011-04-19T10:14:14.000Z</time>
      </trkpt>
      <trkpt lat="48.61687" lon="1.86674">
        <ele>177.60000610352</ele>
        <time>2011-04-19T10:14:19.000Z</time>
      </trkpt>
      <trkpt lat="48.61687" lon="1.86664">
        <ele>177</ele>
        <time>2011-04-19T10:14:23.000Z</time>
      </trkpt>
      <trkpt lat="48.61689" lon="1.8666">
        <ele>179</ele>
        <time>2011-04-19T10:14:25.000Z</time>
      </trkpt>
      <trkpt lat="48.61696" lon="1.86651">
        <ele>181.39999389648</ele>
        <time>2011-04-19T10:14:30.000Z</time>
      </trkpt>
      <trkpt lat="48.61698" lon="1.8664">
        <ele>173.60000610352</ele>
        <time>2011-04-19T10:14:37.000Z</time>
      </trkpt>
      <trkpt lat="48.617" lon="1.86634">
        <ele>168.80000305176</ele>
        <time>2011-04-19T10:14:42.000Z</time>
      </trkpt>
      <trkpt lat="48.61702" lon="1.86627">
        <ele>167.39999389648</ele>
        <time>2011-04-19T10:14:46.000Z</time>
      </trkpt>
      <trkpt lat="48.61704" lon="1.86622">
        <ele>167.39999389648</ele>
        <time>2011-04-19T10:14:49.000Z</time>
      </trkpt>
      <trkpt lat="48.61705" lon="1.86618">
        <ele>167.39999389648</ele>
        <time>2011-04-19T10:14:51.000Z</time>
      </trkpt>
      <trkpt lat="48.61709" lon="1.86609">
        <ele>164</ele>
        <time>2011-04-19T10:14:56.000Z</time>
      </trkpt>
      <trkpt lat="48.6171" lon="1.86606">
        <ele>165.39999389648</ele>
        <time>2011-04-19T10:14:57.000Z</time>
      </trkpt>
      <trkpt lat="48.61715" lon="1.86598">
        <ele>169.39999389648</ele>
        <time>2011-04-19T10:15:02.000Z</time>
      </trkpt>
      <trkpt lat="48.61719" lon="1.86591">
        <ele>169.80000305176</ele>
        <time>2011-04-19T10:15:06.000Z</time>
      </trkpt>
      <trkpt lat="48.61724" lon="1.86577">
        <ele>172.60000610352</ele>
        <time>2011-04-19T10:15:12.000Z</time>
      </trkpt>
      <trkpt lat="48.61725" lon="1.86575">
        <ele>171.80000305176</ele>
        <time>2011-04-19T10:15:13.000Z</time>
      </trkpt>
      <trkpt lat="48.61729" lon="1.86569">
        <ele>175</ele>
        <time>2011-04-19T10:15:17.000Z</time>
      </trkpt>
      <trkpt lat="48.61733" lon="1.86563">
        <ele>179</ele>
        <time>2011-04-19T10:15:21.000Z</time>
      </trkpt>
      <trkpt lat="48.61736" lon="1.86561">
        <ele>179.39999389648</ele>
        <time>2011-04-19T10:15:23.000Z</time>
      </trkpt>
      <trkpt lat="48.61739" lon="1.86551">
        <ele>179.39999389648</ele>
        <time>2011-04-19T10:15:29.000Z</time>
      </trkpt>
      <trkpt lat="48.6174" lon="1.86544">
        <ele>181.39999389648</ele>
        <time>2011-04-19T10:15:32.000Z</time>
      </trkpt>
      <trkpt lat="48.61742" lon="1.86542">
        <ele>182.80000305176</ele>
        <time>2011-04-19T10:15:34.000Z</time>
      </trkpt>
      <trkpt lat="48.61742" lon="1.86538">
        <ele>181.80000305176</ele>
        <time>2011-04-19T10:15:36.000Z</time>
      </trkpt>
      <trkpt lat="48.61748" lon="1.8653">
        <ele>180.80000305176</ele>
        <time>2011-04-19T10:15:41.000Z</time>
      </trkpt>
      <trkpt lat="48.61752" lon="1.8652">
        <ele>178</ele>
        <time>2011-04-19T10:15:47.000Z</time>
      </trkpt>
      <trkpt lat="48.61754" lon="1.86513">
        <ele>171.80000305176</ele>
        <time>2011-04-19T10:15:53.000Z</time>
      </trkpt>
      <trkpt lat="48.61757" lon="1.86506">
        <ele>172.19999694824</ele>
        <time>2011-04-19T10:15:57.000Z</time>
      </trkpt>
      <trkpt lat="48.61758" lon="1.86502">
        <ele>172.60000610352</ele>
        <time>2011-04-19T10:15:59.000Z</time>
      </trkpt>
      <trkpt lat="48.61759" lon="1.86492">
        <ele>174.60000610352</ele>
        <time>2011-04-19T10:16:03.000Z</time>
      </trkpt>
      <trkpt lat="48.61763" lon="1.86484">
        <ele>176</ele>
        <time>2011-04-19T10:16:08.000Z</time>
      </trkpt>
      <trkpt lat="48.61766" lon="1.86476">
        <ele>177.60000610352</ele>
        <time>2011-04-19T10:16:13.000Z</time>
      </trkpt>
      <trkpt lat="48.61767" lon="1.86475">
        <ele>179</ele>
        <time>2011-04-19T10:16:14.000Z</time>
      </trkpt>
      <trkpt lat="48.61778" lon="1.86465">
        <ele>185.60000610352</ele>
        <time>2011-04-19T10:16:19.000Z</time>
      </trkpt>
      <trkpt lat="48.61773" lon="1.86458">
        <ele>181.80000305176</ele>
        <time>2011-04-19T10:16:22.000Z</time>
      </trkpt>
      <trkpt lat="48.61776" lon="1.8645">
        <ele>179</ele>
        <time>2011-04-19T10:16:27.000Z</time>
      </trkpt>
      <trkpt lat="48.61781" lon="1.8644">
        <ele>173.60000610352</ele>
        <time>2011-04-19T10:16:33.000Z</time>
      </trkpt>
      <trkpt lat="48.61782" lon="1.86437">
        <ele>172.60000610352</ele>
        <time>2011-04-19T10:16:35.000Z</time>
      </trkpt>
      <trkpt lat="48.61781" lon="1.86434">
        <ele>174.60000610352</ele>
        <time>2011-04-19T10:16:37.000Z</time>
      </trkpt>
      <trkpt lat="48.61785" lon="1.86429">
        <ele>175.60000610352</ele>
        <time>2011-04-19T10:16:40.000Z</time>
      </trkpt>
      <trkpt lat="48.61784" lon="1.86425">
        <ele>175.60000610352</ele>
        <time>2011-04-19T10:16:42.000Z</time>
      </trkpt>
      <trkpt lat="48.61788" lon="1.86411">
        <ele>175.60000610352</ele>
        <time>2011-04-19T10:16:48.000Z</time>
      </trkpt>
      <trkpt lat="48.61792" lon="1.86401">
        <ele>174.19999694824</ele>
        <time>2011-04-19T10:16:53.000Z</time>
      </trkpt>
      <trkpt lat="48.61796" lon="1.86394">
        <ele>173.60000610352</ele>
        <time>2011-04-19T10:16:58.000Z</time>
      </trkpt>
      <trkpt lat="48.61797" lon="1.86385">
        <ele>172.19999694824</ele>
        <time>2011-04-19T10:17:03.000Z</time>
      </trkpt>
      <trkpt lat="48.61798" lon="1.86383">
        <ele>170.19999694824</ele>
        <time>2011-04-19T10:17:05.000Z</time>
      </trkpt>
      <trkpt lat="48.61804" lon="1.86377">
        <ele>167.39999389648</ele>
        <time>2011-04-19T10:17:09.000Z</time>
      </trkpt>
      <trkpt lat="48.61804" lon="1.86374">
        <ele>167</ele>
        <time>2011-04-19T10:17:11.000Z</time>
      </trkpt>
      <trkpt lat="48.61806" lon="1.86362">
        <ele>167</ele>
        <time>2011-04-19T10:17:17.000Z</time>
      </trkpt>
      <trkpt lat="48.61816" lon="1.86348">
        <ele>175</ele>
        <time>2011-04-19T10:17:25.000Z</time>
      </trkpt>
      <trkpt lat="48.61817" lon="1.86346">
        <ele>175</ele>
        <time>2011-04-19T10:17:27.000Z</time>
      </trkpt>
      <trkpt lat="48.61822" lon="1.86336">
        <ele>178.39999389648</ele>
        <time>2011-04-19T10:17:31.000Z</time>
      </trkpt>
      <trkpt lat="48.61825" lon="1.86329">
        <ele>177</ele>
        <time>2011-04-19T10:17:34.000Z</time>
      </trkpt>
      <trkpt lat="48.61829" lon="1.86321">
        <ele>173.60000610352</ele>
        <time>2011-04-19T10:17:39.000Z</time>
      </trkpt>
      <trkpt lat="48.61836" lon="1.86309">
        <ele>176</ele>
        <time>2011-04-19T10:17:46.000Z</time>
      </trkpt>
      <trkpt lat="48.61837" lon="1.86302">
        <ele>173.60000610352</ele>
        <time>2011-04-19T10:17:50.000Z</time>
      </trkpt>
      <trkpt lat="48.61839" lon="1.86299">
        <ele>174.19999694824</ele>
        <time>2011-04-19T10:17:53.000Z</time>
      </trkpt>
      <trkpt lat="48.6184" lon="1.86296">
        <ele>173.60000610352</ele>
        <time>2011-04-19T10:17:55.000Z</time>
      </trkpt>
      <trkpt lat="48.61839" lon="1.86288">
        <ele>171.80000305176</ele>
        <time>2011-04-19T10:18:00.000Z</time>
      </trkpt>
      <trkpt lat="48.6184" lon="1.86281">
        <ele>172.19999694824</ele>
        <time>2011-04-19T10:18:03.000Z</time>
      </trkpt>
      <trkpt lat="48.61846" lon="1.86274">
        <ele>173.19999694824</ele>
        <time>2011-04-19T10:18:07.000Z</time>
      </trkpt>
      <trkpt lat="48.61851" lon="1.86265">
        <ele>173.60000610352</ele>
        <time>2011-04-19T10:18:12.000Z</time>
      </trkpt>
      <trkpt lat="48.61857" lon="1.86255">
        <ele>173.19999694824</ele>
        <time>2011-04-19T10:18:19.000Z</time>
      </trkpt>
      <trkpt lat="48.61858" lon="1.86248">
        <ele>177</ele>
        <time>2011-04-19T10:18:22.000Z</time>
      </trkpt>
      <trkpt lat="48.61861" lon="1.86237">
        <ele>175.60000610352</ele>
        <time>2011-04-19T10:18:26.000Z</time>
      </trkpt>
      <trkpt lat="48.61865" lon="1.86229">
        <ele>176.60000610352</ele>
        <time>2011-04-19T10:18:31.000Z</time>
      </trkpt>
      <trkpt lat="48.61869" lon="1.8622">
        <ele>175.60000610352</ele>
        <time>2011-04-19T10:18:36.000Z</time>
      </trkpt>
      <trkpt lat="48.61874" lon="1.86212">
        <ele>173.19999694824</ele>
        <time>2011-04-19T10:18:41.000Z</time>
      </trkpt>
      <trkpt lat="48.61877" lon="1.86204">
        <ele>171.19999694824</ele>
        <time>2011-04-19T10:18:46.000Z</time>
      </trkpt>
      <trkpt lat="48.61883" lon="1.86195">
        <ele>173.19999694824</ele>
        <time>2011-04-19T10:18:52.000Z</time>
      </trkpt>
      <trkpt lat="48.61883" lon="1.86193">
        <ele>172.60000610352</ele>
        <time>2011-04-19T10:18:53.000Z</time>
      </trkpt>
      <trkpt lat="48.61888" lon="1.86185">
        <ele>175</ele>
        <time>2011-04-19T10:18:59.000Z</time>
      </trkpt>
      <trkpt lat="48.61889" lon="1.86174">
        <ele>175.60000610352</ele>
        <time>2011-04-19T10:19:04.000Z</time>
      </trkpt>
      <trkpt lat="48.61893" lon="1.86162">
        <ele>178</ele>
        <time>2011-04-19T10:19:10.000Z</time>
      </trkpt>
      <trkpt lat="48.61895" lon="1.86154">
        <ele>174.60000610352</ele>
        <time>2011-04-19T10:19:16.000Z</time>
      </trkpt>
      <trkpt lat="48.61897" lon="1.86147">
        <ele>171.80000305176</ele>
        <time>2011-04-19T10:19:21.000Z</time>
      </trkpt>
      <trkpt lat="48.61902" lon="1.86137">
        <ele>169.80000305176</ele>
        <time>2011-04-19T10:19:28.000Z</time>
      </trkpt>
      <trkpt lat="48.61905" lon="1.86134">
        <ele>167.39999389648</ele>
        <time>2011-04-19T10:19:32.000Z</time>
      </trkpt>
      <trkpt lat="48.61907" lon="1.8613">
        <ele>166</ele>
        <time>2011-04-19T10:19:39.000Z</time>
      </trkpt>
      <trkpt lat="48.61913" lon="1.86118">
        <ele>170.19999694824</ele>
        <time>2011-04-19T10:20:06.000Z</time>
      </trkpt>
      <trkpt lat="48.61919" lon="1.86108">
        <ele>178.39999389648</ele>
        <time>2011-04-19T10:20:10.000Z</time>
      </trkpt>
      <trkpt lat="48.61923" lon="1.86096">
        <ele>183.19999694824</ele>
        <time>2011-04-19T10:20:15.000Z</time>
      </trkpt>
      <trkpt lat="48.61923" lon="1.8609">
        <ele>180.80000305176</ele>
        <time>2011-04-19T10:20:20.000Z</time>
      </trkpt>
      <trkpt lat="48.61924" lon="1.86089">
        <ele>181.39999389648</ele>
        <time>2011-04-19T10:20:21.000Z</time>
      </trkpt>
      <trkpt lat="48.61925" lon="1.86084">
        <ele>183.80000305176</ele>
        <time>2011-04-19T10:20:23.000Z</time>
      </trkpt>
      <trkpt lat="48.61929" lon="1.86086">
        <ele>183.19999694824</ele>
        <time>2011-04-19T10:20:30.000Z</time>
      </trkpt>
      <trkpt lat="48.61929" lon="1.86086">
        <ele>181.80000305176</ele>
        <time>2011-04-19T10:20:31.000Z</time>
      </trkpt>
      <trkpt lat="48.61937" lon="1.86071">
        <ele>174.60000610352</ele>
        <time>2011-04-19T10:20:44.000Z</time>
      </trkpt>
      <trkpt lat="48.61938" lon="1.86069">
        <ele>175</ele>
        <time>2011-04-19T10:20:45.000Z</time>
      </trkpt>
      <trkpt lat="48.6194" lon="1.86057">
        <ele>171.19999694824</ele>
        <time>2011-04-19T10:20:50.000Z</time>
      </trkpt>
      <trkpt lat="48.61943" lon="1.8605">
        <ele>170.19999694824</ele>
        <time>2011-04-19T10:20:55.000Z</time>
      </trkpt>
      <trkpt lat="48.61946" lon="1.86042">
        <ele>169.80000305176</ele>
        <time>2011-04-19T10:20:59.000Z</time>
      </trkpt>
      <trkpt lat="48.61946" lon="1.86038">
        <ele>169.80000305176</ele>
        <time>2011-04-19T10:21:01.000Z</time>
      </trkpt>
      <trkpt lat="48.61948" lon="1.86033">
        <ele>167</ele>
        <time>2011-04-19T10:21:05.000Z</time>
      </trkpt>
      <trkpt lat="48.61952" lon="1.86024">
        <ele>168.39999389648</ele>
        <time>2011-04-19T10:21:11.000Z</time>
      </trkpt>
      <trkpt lat="48.61955" lon="1.86017">
        <ele>167.80000305176</ele>
        <time>2011-04-19T10:21:16.000Z</time>
      </trkpt>
      <trkpt lat="48.6196" lon="1.85999">
        <ele>169.39999389648</ele>
        <time>2011-04-19T10:21:25.000Z</time>
      </trkpt>
      <trkpt lat="48.61961" lon="1.85995">
        <ele>170.19999694824</ele>
        <time>2011-04-19T10:21:27.000Z</time>
      </trkpt>
      <trkpt lat="48.61963" lon="1.85991">
        <ele>170.80000305176</ele>
        <time>2011-04-19T10:21:29.000Z</time>
      </trkpt>
      <trkpt lat="48.61969" lon="1.85987">
        <ele>171.80000305176</ele>
        <time>2011-04-19T10:21:32.000Z</time>
      </trkpt>
      <trkpt lat="48.61974" lon="1.85973">
        <ele>180</ele>
        <time>2011-04-19T10:21:38.000Z</time>
      </trkpt>
      <trkpt lat="48.61976" lon="1.85965">
        <ele>180</ele>
        <time>2011-04-19T10:21:42.000Z</time>
      </trkpt>
      <trkpt lat="48.61978" lon="1.85956">
        <ele>178</ele>
        <time>2011-04-19T10:21:47.000Z</time>
      </trkpt>
      <trkpt lat="48.61985" lon="1.85945">
        <ele>180.39999389648</ele>
        <time>2011-04-19T10:21:53.000Z</time>
      </trkpt>
      <trkpt lat="48.61988" lon="1.85941">
        <ele>179.39999389648</ele>
        <time>2011-04-19T10:21:57.000Z</time>
      </trkpt>
      <trkpt lat="48.61988" lon="1.8593">
        <ele>180.80000305176</ele>
        <time>2011-04-19T10:22:02.000Z</time>
      </trkpt>
      <trkpt lat="48.61995" lon="1.85919">
        <ele>187.19999694824</ele>
        <time>2011-04-19T10:22:08.000Z</time>
      </trkpt>
      <trkpt lat="48.61996" lon="1.85909">
        <ele>187.19999694824</ele>
        <time>2011-04-19T10:22:13.000Z</time>
      </trkpt>
      <trkpt lat="48.61998" lon="1.85903">
        <ele>188.60000610352</ele>
        <time>2011-04-19T10:22:17.000Z</time>
      </trkpt>
      <trkpt lat="48.62002" lon="1.8589">
        <ele>190</ele>
        <time>2011-04-19T10:22:23.000Z</time>
      </trkpt>
      <trkpt lat="48.62005" lon="1.85881">
        <ele>189</ele>
        <time>2011-04-19T10:22:27.000Z</time>
      </trkpt>
      <trkpt lat="48.62007" lon="1.85877">
        <ele>189</ele>
        <time>2011-04-19T10:22:29.000Z</time>
      </trkpt>
      <trkpt lat="48.62012" lon="1.85867">
        <ele>185.19999694824</ele>
        <time>2011-04-19T10:22:34.000Z</time>
      </trkpt>
      <trkpt lat="48.62013" lon="1.85859">
        <ele>182.39999389648</ele>
        <time>2011-04-19T10:22:38.000Z</time>
      </trkpt>
      <trkpt lat="48.62018" lon="1.85851">
        <ele>181.80000305176</ele>
        <time>2011-04-19T10:22:45.000Z</time>
      </trkpt>
      <trkpt lat="48.62019" lon="1.85848">
        <ele>179.39999389648</ele>
        <time>2011-04-19T10:22:47.000Z</time>
      </trkpt>
      <trkpt lat="48.62021" lon="1.85837">
        <ele>177</ele>
        <time>2011-04-19T10:22:53.000Z</time>
      </trkpt>
      <trkpt lat="48.62023" lon="1.85834">
        <ele>177</ele>
        <time>2011-04-19T10:22:55.000Z</time>
      </trkpt>
      <trkpt lat="48.62027" lon="1.85824">
        <ele>176.60000610352</ele>
        <time>2011-04-19T10:22:59.000Z</time>
      </trkpt>
      <trkpt lat="48.62033" lon="1.85813">
        <ele>177.60000610352</ele>
        <time>2011-04-19T10:23:05.000Z</time>
      </trkpt>
      <trkpt lat="48.62035" lon="1.85809">
        <ele>179.39999389648</ele>
        <time>2011-04-19T10:23:07.000Z</time>
      </trkpt>
      <trkpt lat="48.6204" lon="1.85801">
        <ele>173.60000610352</ele>
        <time>2011-04-19T10:23:13.000Z</time>
      </trkpt>
      <trkpt lat="48.62043" lon="1.85795">
        <ele>177</ele>
        <time>2011-04-19T10:23:17.000Z</time>
      </trkpt>
      <trkpt lat="48.62045" lon="1.85785">
        <ele>178</ele>
        <time>2011-04-19T10:23:21.000Z</time>
      </trkpt>
      <trkpt lat="48.62047" lon="1.85773">
        <ele>180</ele>
        <time>2011-04-19T10:23:27.000Z</time>
      </trkpt>
      <trkpt lat="48.62048" lon="1.85765">
        <ele>177.60000610352</ele>
        <time>2011-04-19T10:23:31.000Z</time>
      </trkpt>
      <trkpt lat="48.62054" lon="1.85752">
        <ele>177</ele>
        <time>2011-04-19T10:23:39.000Z</time>
      </trkpt>
      <trkpt lat="48.62059" lon="1.85745">
        <ele>180.80000305176</ele>
        <time>2011-04-19T10:23:44.000Z</time>
      </trkpt>
      <trkpt lat="48.62063" lon="1.85736">
        <ele>187.19999694824</ele>
        <time>2011-04-19T10:23:48.000Z</time>
      </trkpt>
      <trkpt lat="48.62066" lon="1.85725">
        <ele>187.60000610352</ele>
        <time>2011-04-19T10:23:54.000Z</time>
      </trkpt>
      <trkpt lat="48.62071" lon="1.85717">
        <ele>191</ele>
        <time>2011-04-19T10:24:00.000Z</time>
      </trkpt>
      <trkpt lat="48.62074" lon="1.8571">
        <ele>192.39999389648</ele>
        <time>2011-04-19T10:24:04.000Z</time>
      </trkpt>
      <trkpt lat="48.62077" lon="1.85702">
        <ele>192</ele>
        <time>2011-04-19T10:24:09.000Z</time>
      </trkpt>
      <trkpt lat="48.62081" lon="1.85693">
        <ele>189</ele>
        <time>2011-04-19T10:24:14.000Z</time>
      </trkpt>
      <trkpt lat="48.62085" lon="1.85683">
        <ele>189.60000610352</ele>
        <time>2011-04-19T10:24:20.000Z</time>
      </trkpt>
      <trkpt lat="48.62088" lon="1.85677">
        <ele>187.60000610352</ele>
        <time>2011-04-19T10:24:24.000Z</time>
      </trkpt>
      <trkpt lat="48.6209" lon="1.85671">
        <ele>188</ele>
        <time>2011-04-19T10:24:27.000Z</time>
      </trkpt>
      <trkpt lat="48.62093" lon="1.85663">
        <ele>184.19999694824</ele>
        <time>2011-04-19T10:24:32.000Z</time>
      </trkpt>
      <trkpt lat="48.62094" lon="1.8566">
        <ele>182.80000305176</ele>
        <time>2011-04-19T10:24:34.000Z</time>
      </trkpt>
      <trkpt lat="48.62099" lon="1.85653">
        <ele>182.39999389648</ele>
        <time>2011-04-19T10:24:38.000Z</time>
      </trkpt>
      <trkpt lat="48.62107" lon="1.85642">
        <ele>181.80000305176</ele>
        <time>2011-04-19T10:24:45.000Z</time>
      </trkpt>
      <trkpt lat="48.62108" lon="1.85636">
        <ele>182.80000305176</ele>
        <time>2011-04-19T10:24:49.000Z</time>
      </trkpt>
      <trkpt lat="48.6211" lon="1.85628">
        <ele>178.39999389648</ele>
        <time>2011-04-19T10:24:54.000Z</time>
      </trkpt>
      <trkpt lat="48.62111" lon="1.85624">
        <ele>178</ele>
        <time>2011-04-19T10:24:56.000Z</time>
      </trkpt>
      <trkpt lat="48.62113" lon="1.85617">
        <ele>177</ele>
        <time>2011-04-19T10:25:00.000Z</time>
      </trkpt>
      <trkpt lat="48.62117" lon="1.85611">
        <ele>173.19999694824</ele>
        <time>2011-04-19T10:25:05.000Z</time>
      </trkpt>
      <trkpt lat="48.62123" lon="1.85599">
        <ele>175</ele>
        <time>2011-04-19T10:25:11.000Z</time>
      </trkpt>
      <trkpt lat="48.62124" lon="1.8559">
        <ele>173.60000610352</ele>
        <time>2011-04-19T10:25:15.000Z</time>
      </trkpt>
      <trkpt lat="48.62129" lon="1.8558">
        <ele>177.60000610352</ele>
        <time>2011-04-19T10:25:21.000Z</time>
      </trkpt>
      <trkpt lat="48.6213" lon="1.85578">
        <ele>175.60000610352</ele>
        <time>2011-04-19T10:25:23.000Z</time>
      </trkpt>
      <trkpt lat="48.62136" lon="1.85565">
        <ele>172.19999694824</ele>
        <time>2011-04-19T10:25:29.000Z</time>
      </trkpt>
      <trkpt lat="48.62138" lon="1.85554">
        <ele>174.19999694824</ele>
        <time>2011-04-19T10:25:33.000Z</time>
      </trkpt>
      <trkpt lat="48.62142" lon="1.85548">
        <ele>177</ele>
        <time>2011-04-19T10:25:37.000Z</time>
      </trkpt>
      <trkpt lat="48.62149" lon="1.85537">
        <ele>177</ele>
        <time>2011-04-19T10:25:45.000Z</time>
      </trkpt>
      <trkpt lat="48.62152" lon="1.85526">
        <ele>178.39999389648</ele>
        <time>2011-04-19T10:25:51.000Z</time>
      </trkpt>
      <trkpt lat="48.62153" lon="1.85522">
        <ele>176.60000610352</ele>
        <time>2011-04-19T10:25:54.000Z</time>
      </trkpt>
      <trkpt lat="48.62159" lon="1.85512">
        <ele>173.60000610352</ele>
        <time>2011-04-19T10:26:01.000Z</time>
      </trkpt>
      <trkpt lat="48.6216" lon="1.85508">
        <ele>174.60000610352</ele>
        <time>2011-04-19T10:26:03.000Z</time>
      </trkpt>
      <trkpt lat="48.62165" lon="1.85497">
        <ele>177.60000610352</ele>
        <time>2011-04-19T10:26:09.000Z</time>
      </trkpt>
      <trkpt lat="48.62168" lon="1.85492">
        <ele>179.39999389648</ele>
        <time>2011-04-19T10:26:12.000Z</time>
      </trkpt>
      <trkpt lat="48.62172" lon="1.85482">
        <ele>180</ele>
        <time>2011-04-19T10:26:17.000Z</time>
      </trkpt>
      <trkpt lat="48.62175" lon="1.85473">
        <ele>180.80000305176</ele>
        <time>2011-04-19T10:26:22.000Z</time>
      </trkpt>
      <trkpt lat="48.62179" lon="1.85462">
        <ele>183.19999694824</ele>
        <time>2011-04-19T10:26:28.000Z</time>
      </trkpt>
      <trkpt lat="48.62182" lon="1.85452">
        <ele>183.19999694824</ele>
        <time>2011-04-19T10:26:33.000Z</time>
      </trkpt>
      <trkpt lat="48.62183" lon="1.85449">
        <ele>181.39999389648</ele>
        <time>2011-04-19T10:26:35.000Z</time>
      </trkpt>
      <trkpt lat="48.62188" lon="1.85441">
        <ele>176.60000610352</ele>
        <time>2011-04-19T10:26:41.000Z</time>
      </trkpt>
      <trkpt lat="48.62191" lon="1.8543">
        <ele>167</ele>
        <time>2011-04-19T10:26:48.000Z</time>
      </trkpt>
      <trkpt lat="48.62196" lon="1.85423">
        <ele>167.80000305176</ele>
        <time>2011-04-19T10:26:53.000Z</time>
      </trkpt>
      <trkpt lat="48.62196" lon="1.85413">
        <ele>167.39999389648</ele>
        <time>2011-04-19T10:26:58.000Z</time>
      </trkpt>
      <trkpt lat="48.62196" lon="1.8541">
        <ele>166.39999389648</ele>
        <time>2011-04-19T10:26:59.000Z</time>
      </trkpt>
      <trkpt lat="48.62198" lon="1.85405">
        <ele>166.39999389648</ele>
        <time>2011-04-19T10:27:02.000Z</time>
      </trkpt>
      <trkpt lat="48.62203" lon="1.8539">
        <ele>167</ele>
        <time>2011-04-19T10:27:10.000Z</time>
      </trkpt>
      <trkpt lat="48.62209" lon="1.85379">
        <ele>171.80000305176</ele>
        <time>2011-04-19T10:27:16.000Z</time>
      </trkpt>
      <trkpt lat="48.6221" lon="1.85375">
        <ele>172.19999694824</ele>
        <time>2011-04-19T10:27:19.000Z</time>
      </trkpt>
      <trkpt lat="48.62212" lon="1.85368">
        <ele>174.19999694824</ele>
        <time>2011-04-19T10:27:23.000Z</time>
      </trkpt>
      <trkpt lat="48.62215" lon="1.85356">
        <ele>178</ele>
        <time>2011-04-19T10:27:27.000Z</time>
      </trkpt>
      <trkpt lat="48.6222" lon="1.85344">
        <ele>182.39999389648</ele>
        <time>2011-04-19T10:27:32.000Z</time>
      </trkpt>
      <trkpt lat="48.62223" lon="1.85337">
        <ele>185.19999694824</ele>
        <time>2011-04-19T10:27:35.000Z</time>
      </trkpt>
      <trkpt lat="48.62229" lon="1.85331">
        <ele>183.80000305176</ele>
        <time>2011-04-19T10:27:40.000Z</time>
      </trkpt>
      <trkpt lat="48.62234" lon="1.85326">
        <ele>176.60000610352</ele>
        <time>2011-04-19T10:27:46.000Z</time>
      </trkpt>
      <trkpt lat="48.62239" lon="1.85318">
        <ele>175</ele>
        <time>2011-04-19T10:27:51.000Z</time>
      </trkpt>
      <trkpt lat="48.62242" lon="1.8531">
        <ele>179</ele>
        <time>2011-04-19T10:27:56.000Z</time>
      </trkpt>
      <trkpt lat="48.62244" lon="1.85306">
        <ele>182.80000305176</ele>
        <time>2011-04-19T10:27:59.000Z</time>
      </trkpt>
      <trkpt lat="48.62245" lon="1.85293">
        <ele>186.19999694824</ele>
        <time>2011-04-19T10:28:04.000Z</time>
      </trkpt>
      <trkpt lat="48.62248" lon="1.85278">
        <ele>188</ele>
        <time>2011-04-19T10:28:11.000Z</time>
      </trkpt>
      <trkpt lat="48.62252" lon="1.85271">
        <ele>182.80000305176</ele>
        <time>2011-04-19T10:28:17.000Z</time>
      </trkpt>
      <trkpt lat="48.62255" lon="1.85268">
        <ele>177.60000610352</ele>
        <time>2011-04-19T10:28:20.000Z</time>
      </trkpt>
      <trkpt lat="48.62262" lon="1.85258">
        <ele>172.60000610352</ele>
        <time>2011-04-19T10:28:27.000Z</time>
      </trkpt>
      <trkpt lat="48.62267" lon="1.8525">
        <ele>169.39999389648</ele>
        <time>2011-04-19T10:28:33.000Z</time>
      </trkpt>
      <trkpt lat="48.62268" lon="1.85249">
        <ele>169.39999389648</ele>
        <time>2011-04-19T10:28:34.000Z</time>
      </trkpt>
      <trkpt lat="48.62273" lon="1.8524">
        <ele>170.19999694824</ele>
        <time>2011-04-19T10:28:39.000Z</time>
      </trkpt>
      <trkpt lat="48.62278" lon="1.8523">
        <ele>171.80000305176</ele>
        <time>2011-04-19T10:28:44.000Z</time>
      </trkpt>
      <trkpt lat="48.62279" lon="1.85223">
        <ele>173.60000610352</ele>
        <time>2011-04-19T10:28:47.000Z</time>
      </trkpt>
      <trkpt lat="48.62285" lon="1.85218">
        <ele>170.19999694824</ele>
        <time>2011-04-19T10:28:51.000Z</time>
      </trkpt>
      <trkpt lat="48.62286" lon="1.85212">
        <ele>172.60000610352</ele>
        <time>2011-04-19T10:28:55.000Z</time>
      </trkpt>
      <trkpt lat="48.62287" lon="1.85195">
        <ele>175.60000610352</ele>
        <time>2011-04-19T10:29:00.000Z</time>
      </trkpt>
      <trkpt lat="48.62287" lon="1.85193">
        <ele>176.60000610352</ele>
        <time>2011-04-19T10:29:01.000Z</time>
      </trkpt>
      <trkpt lat="48.62293" lon="1.85182">
        <ele>177.60000610352</ele>
        <time>2011-04-19T10:29:08.000Z</time>
      </trkpt>
      <trkpt lat="48.62297" lon="1.85169">
        <ele>176</ele>
        <time>2011-04-19T10:29:15.000Z</time>
      </trkpt>
      <trkpt lat="48.62303" lon="1.8516">
        <ele>184.80000305176</ele>
        <time>2011-04-19T10:29:19.000Z</time>
      </trkpt>
      <trkpt lat="48.62304" lon="1.85155">
        <ele>184.80000305176</ele>
        <time>2011-04-19T10:29:21.000Z</time>
      </trkpt>
      <trkpt lat="48.62308" lon="1.85146">
        <ele>185.19999694824</ele>
        <time>2011-04-19T10:29:25.000Z</time>
      </trkpt>
      <trkpt lat="48.62311" lon="1.85142">
        <ele>181.80000305176</ele>
        <time>2011-04-19T10:29:29.000Z</time>
      </trkpt>
      <trkpt lat="48.62317" lon="1.85136">
        <ele>180.39999389648</ele>
        <time>2011-04-19T10:29:34.000Z</time>
      </trkpt>
      <trkpt lat="48.62318" lon="1.8513">
        <ele>176</ele>
        <time>2011-04-19T10:29:39.000Z</time>
      </trkpt>
      <trkpt lat="48.62319" lon="1.85121">
        <ele>172.19999694824</ele>
        <time>2011-04-19T10:29:44.000Z</time>
      </trkpt>
      <trkpt lat="48.62323" lon="1.85114">
        <ele>170.80000305176</ele>
        <time>2011-04-19T10:29:48.000Z</time>
      </trkpt>
      <trkpt lat="48.62323" lon="1.85111">
        <ele>173.19999694824</ele>
        <time>2011-04-19T10:29:51.000Z</time>
      </trkpt>
      <trkpt lat="48.62323" lon="1.851">
        <ele>172.60000610352</ele>
        <time>2011-04-19T10:29:54.000Z</time>
      </trkpt>
      <trkpt lat="48.62326" lon="1.85095">
        <ele>173.19999694824</ele>
        <time>2011-04-19T10:29:58.000Z</time>
      </trkpt>
      <trkpt lat="48.62329" lon="1.85088">
        <ele>174.60000610352</ele>
        <time>2011-04-19T10:30:03.000Z</time>
      </trkpt>
      <trkpt lat="48.62336" lon="1.85078">
        <ele>173.19999694824</ele>
        <time>2011-04-19T10:30:11.000Z</time>
      </trkpt>
      <trkpt lat="48.62342" lon="1.8507">
        <ele>172.60000610352</ele>
        <time>2011-04-19T10:30:17.000Z</time>
      </trkpt>
      <trkpt lat="48.62347" lon="1.85061">
        <ele>171.19999694824</ele>
        <time>2011-04-19T10:30:22.000Z</time>
      </trkpt>
      <trkpt lat="48.62349" lon="1.85049">
        <ele>166.39999389648</ele>
        <time>2011-04-19T10:30:29.000Z</time>
      </trkpt>
      <trkpt lat="48.62352" lon="1.85041">
        <ele>163.60000610352</ele>
        <time>2011-04-19T10:30:33.000Z</time>
      </trkpt>
      <trkpt lat="48.62352" lon="1.85039">
        <ele>164</ele>
        <time>2011-04-19T10:30:34.000Z</time>
      </trkpt>
      <trkpt lat="48.62355" lon="1.85031">
        <ele>164</ele>
        <time>2011-04-19T10:30:38.000Z</time>
      </trkpt>
      <trkpt lat="48.62357" lon="1.85022">
        <ele>165.39999389648</ele>
        <time>2011-04-19T10:30:43.000Z</time>
      </trkpt>
      <trkpt lat="48.62361" lon="1.85014">
        <ele>170.19999694824</ele>
        <time>2011-04-19T10:30:47.000Z</time>
      </trkpt>
      <trkpt lat="48.62363" lon="1.85009">
        <ele>167.39999389648</ele>
        <time>2011-04-19T10:30:50.000Z</time>
      </trkpt>
      <trkpt lat="48.62365" lon="1.84998">
        <ele>162.60000610352</ele>
        <time>2011-04-19T10:30:54.000Z</time>
      </trkpt>
      <trkpt lat="48.62366" lon="1.84994">
        <ele>161.60000610352</ele>
        <time>2011-04-19T10:30:55.000Z</time>
      </trkpt>
      <trkpt lat="48.6237" lon="1.84982">
        <ele>167.80000305176</ele>
        <time>2011-04-19T10:31:01.000Z</time>
      </trkpt>
      <trkpt lat="48.62373" lon="1.84974">
        <ele>173.60000610352</ele>
        <time>2011-04-19T10:31:06.000Z</time>
      </trkpt>
      <trkpt lat="48.62378" lon="1.84973">
        <ele>172.19999694824</ele>
        <time>2011-04-19T10:31:10.000Z</time>
      </trkpt>
      <trkpt lat="48.62383" lon="1.84963">
        <ele>171.19999694824</ele>
        <time>2011-04-19T10:31:16.000Z</time>
      </trkpt>
      <trkpt lat="48.62386" lon="1.84957">
        <ele>174.19999694824</ele>
        <time>2011-04-19T10:31:20.000Z</time>
      </trkpt>
      <trkpt lat="48.62386" lon="1.84955">
        <ele>174.19999694824</ele>
        <time>2011-04-19T10:31:21.000Z</time>
      </trkpt>
      <trkpt lat="48.62387" lon="1.84945">
        <ele>173.60000610352</ele>
        <time>2011-04-19T10:31:27.000Z</time>
      </trkpt>
      <trkpt lat="48.62388" lon="1.84945">
        <ele>172.60000610352</ele>
        <time>2011-04-19T10:31:29.000Z</time>
      </trkpt>
      <trkpt lat="48.62393" lon="1.84936">
        <ele>173.19999694824</ele>
        <time>2011-04-19T10:31:34.000Z</time>
      </trkpt>
      <trkpt lat="48.62394" lon="1.84931">
        <ele>174.60000610352</ele>
        <time>2011-04-19T10:31:37.000Z</time>
      </trkpt>
      <trkpt lat="48.62397" lon="1.84928">
        <ele>174.19999694824</ele>
        <time>2011-04-19T10:31:39.000Z</time>
      </trkpt>
      <trkpt lat="48.62401" lon="1.84914">
        <ele>180.39999389648</ele>
        <time>2011-04-19T10:31:44.000Z</time>
      </trkpt>
      <trkpt lat="48.62404" lon="1.84912">
        <ele>180.80000305176</ele>
        <time>2011-04-19T10:31:46.000Z</time>
      </trkpt>
      <trkpt lat="48.62408" lon="1.84904">
        <ele>187.19999694824</ele>
        <time>2011-04-19T10:31:50.000Z</time>
      </trkpt>
      <trkpt lat="48.62416" lon="1.84895">
        <ele>181.80000305176</ele>
        <time>2011-04-19T10:31:58.000Z</time>
      </trkpt>
      <trkpt lat="48.6242" lon="1.84894">
        <ele>178</ele>
        <time>2011-04-19T10:32:01.000Z</time>
      </trkpt>
      <trkpt lat="48.6242" lon="1.84885">
        <ele>172.60000610352</ele>
        <time>2011-04-19T10:32:07.000Z</time>
      </trkpt>
      <trkpt lat="48.62424" lon="1.84874">
        <ele>171.19999694824</ele>
        <time>2011-04-19T10:32:13.000Z</time>
      </trkpt>
      <trkpt lat="48.62427" lon="1.84864">
        <ele>166</ele>
        <time>2011-04-19T10:32:18.000Z</time>
      </trkpt>
      <trkpt lat="48.62428" lon="1.84861">
        <ele>165.39999389648</ele>
        <time>2011-04-19T10:32:20.000Z</time>
      </trkpt>
      <trkpt lat="48.62432" lon="1.84852">
        <ele>165</ele>
        <time>2011-04-19T10:32:25.000Z</time>
      </trkpt>
      <trkpt lat="48.62434" lon="1.84842">
        <ele>167.39999389648</ele>
        <time>2011-04-19T10:32:31.000Z</time>
      </trkpt>
      <trkpt lat="48.62436" lon="1.84837">
        <ele>170.19999694824</ele>
        <time>2011-04-19T10:32:33.000Z</time>
      </trkpt>
      <trkpt lat="48.62442" lon="1.84828">
        <ele>169.80000305176</ele>
        <time>2011-04-19T10:32:39.000Z</time>
      </trkpt>
      <trkpt lat="48.62447" lon="1.84819">
        <ele>168.80000305176</ele>
        <time>2011-04-19T10:32:45.000Z</time>
      </trkpt>
      <trkpt lat="48.62452" lon="1.84813">
        <ele>167.39999389648</ele>
        <time>2011-04-19T10:32:50.000Z</time>
      </trkpt>
      <trkpt lat="48.62459" lon="1.84798">
        <ele>174.19999694824</ele>
        <time>2011-04-19T10:32:58.000Z</time>
      </trkpt>
      <trkpt lat="48.6246" lon="1.84787">
        <ele>180</ele>
        <time>2011-04-19T10:33:03.000Z</time>
      </trkpt>
      <trkpt lat="48.62463" lon="1.84779">
        <ele>180.80000305176</ele>
        <time>2011-04-19T10:33:07.000Z</time>
      </trkpt>
      <trkpt lat="48.62466" lon="1.84768">
        <ele>182.80000305176</ele>
        <time>2011-04-19T10:33:13.000Z</time>
      </trkpt>
      <trkpt lat="48.62469" lon="1.84763">
        <ele>181.39999389648</ele>
        <time>2011-04-19T10:33:16.000Z</time>
      </trkpt>
      <trkpt lat="48.62472" lon="1.84755">
        <ele>183.19999694824</ele>
        <time>2011-04-19T10:33:21.000Z</time>
      </trkpt>
      <trkpt lat="48.62475" lon="1.84749">
        <ele>179</ele>
        <time>2011-04-19T10:33:26.000Z</time>
      </trkpt>
      <trkpt lat="48.62479" lon="1.8474">
        <ele>176.60000610352</ele>
        <time>2011-04-19T10:33:31.000Z</time>
      </trkpt>
      <trkpt lat="48.62481" lon="1.84733">
        <ele>173.60000610352</ele>
        <time>2011-04-19T10:33:35.000Z</time>
      </trkpt>
      <trkpt lat="48.62483" lon="1.8473">
        <ele>174.19999694824</ele>
        <time>2011-04-19T10:33:37.000Z</time>
      </trkpt>
      <trkpt lat="48.62487" lon="1.84718">
        <ele>173.60000610352</ele>
        <time>2011-04-19T10:33:43.000Z</time>
      </trkpt>
      <trkpt lat="48.62492" lon="1.84709">
        <ele>170.80000305176</ele>
        <time>2011-04-19T10:33:48.000Z</time>
      </trkpt>
      <trkpt lat="48.62495" lon="1.84699">
        <ele>172.60000610352</ele>
        <time>2011-04-19T10:33:53.000Z</time>
      </trkpt>
      <trkpt lat="48.62496" lon="1.84692">
        <ele>170.19999694824</ele>
        <time>2011-04-19T10:33:57.000Z</time>
      </trkpt>
      <trkpt lat="48.62501" lon="1.84682">
        <ele>174.19999694824</ele>
        <time>2011-04-19T10:34:03.000Z</time>
      </trkpt>
      <trkpt lat="48.62501" lon="1.8467">
        <ele>170.19999694824</ele>
        <time>2011-04-19T10:34:09.000Z</time>
      </trkpt>
      <trkpt lat="48.62505" lon="1.84659">
        <ele>168.80000305176</ele>
        <time>2011-04-19T10:34:15.000Z</time>
      </trkpt>
      <trkpt lat="48.62509" lon="1.84651">
        <ele>170.19999694824</ele>
        <time>2011-04-19T10:34:21.000Z</time>
      </trkpt>
      <trkpt lat="48.62511" lon="1.84646">
        <ele>172.19999694824</ele>
        <time>2011-04-19T10:34:25.000Z</time>
      </trkpt>
      <trkpt lat="48.62514" lon="1.84641">
        <ele>177</ele>
        <time>2011-04-19T10:34:28.000Z</time>
      </trkpt>
      <trkpt lat="48.62518" lon="1.84634">
        <ele>181.39999389648</ele>
        <time>2011-04-19T10:34:32.000Z</time>
      </trkpt>
      <trkpt lat="48.62523" lon="1.84622">
        <ele>184.80000305176</ele>
        <time>2011-04-19T10:34:40.000Z</time>
      </trkpt>
      <trkpt lat="48.62524" lon="1.84621">
        <ele>184.19999694824</ele>
        <time>2011-04-19T10:34:41.000Z</time>
      </trkpt>
      <trkpt lat="48.62525" lon="1.84618">
        <ele>182.80000305176</ele>
        <time>2011-04-19T10:34:44.000Z</time>
      </trkpt>
      <trkpt lat="48.62527" lon="1.84612">
        <ele>183.19999694824</ele>
        <time>2011-04-19T10:34:48.000Z</time>
      </trkpt>
      <trkpt lat="48.62533" lon="1.84599">
        <ele>185.60000610352</ele>
        <time>2011-04-19T10:34:55.000Z</time>
      </trkpt>
      <trkpt lat="48.62535" lon="1.84594">
        <ele>184.19999694824</ele>
        <time>2011-04-19T10:34:59.000Z</time>
      </trkpt>
      <trkpt lat="48.62538" lon="1.84586">
        <ele>180</ele>
        <time>2011-04-19T10:35:04.000Z</time>
      </trkpt>
      <trkpt lat="48.62539" lon="1.84578">
        <ele>176</ele>
        <time>2011-04-19T10:35:08.000Z</time>
      </trkpt>
      <trkpt lat="48.62542" lon="1.84572">
        <ele>174.19999694824</ele>
        <time>2011-04-19T10:35:12.000Z</time>
      </trkpt>
      <trkpt lat="48.62547" lon="1.84563">
        <ele>175</ele>
        <time>2011-04-19T10:35:18.000Z</time>
      </trkpt>
      <trkpt lat="48.6255" lon="1.84551">
        <ele>176.60000610352</ele>
        <time>2011-04-19T10:35:23.000Z</time>
      </trkpt>
      <trkpt lat="48.62553" lon="1.84544">
        <ele>178.39999389648</ele>
        <time>2011-04-19T10:35:27.000Z</time>
      </trkpt>
      <trkpt lat="48.62558" lon="1.84536">
        <ele>179.39999389648</ele>
        <time>2011-04-19T10:35:32.000Z</time>
      </trkpt>
      <trkpt lat="48.62563" lon="1.84526">
        <ele>180.80000305176</ele>
        <time>2011-04-19T10:35:38.000Z</time>
      </trkpt>
      <trkpt lat="48.62566" lon="1.84523">
        <ele>179</ele>
        <time>2011-04-19T10:35:41.000Z</time>
      </trkpt>
      <trkpt lat="48.62569" lon="1.84515">
        <ele>177</ele>
        <time>2011-04-19T10:35:45.000Z</time>
      </trkpt>
      <trkpt lat="48.62574" lon="1.84507">
        <ele>175.60000610352</ele>
        <time>2011-04-19T10:35:51.000Z</time>
      </trkpt>
      <trkpt lat="48.62575" lon="1.84505">
        <ele>175</ele>
        <time>2011-04-19T10:35:52.000Z</time>
      </trkpt>
      <trkpt lat="48.62576" lon="1.845">
        <ele>177.60000610352</ele>
        <time>2011-04-19T10:35:54.000Z</time>
      </trkpt>
      <trkpt lat="48.62578" lon="1.84496">
        <ele>180.39999389648</ele>
        <time>2011-04-19T10:35:58.000Z</time>
      </trkpt>
      <trkpt lat="48.62581" lon="1.84485">
        <ele>180</ele>
        <time>2011-04-19T10:36:02.000Z</time>
      </trkpt>
      <trkpt lat="48.62582" lon="1.84483">
        <ele>180.39999389648</ele>
        <time>2011-04-19T10:36:03.000Z</time>
      </trkpt>
      <trkpt lat="48.62583" lon="1.84481">
        <ele>180.80000305176</ele>
        <time>2011-04-19T10:36:05.000Z</time>
      </trkpt>
      <trkpt lat="48.62589" lon="1.84468">
        <ele>178.39999389648</ele>
        <time>2011-04-19T10:36:13.000Z</time>
      </trkpt>
      <trkpt lat="48.62592" lon="1.8446">
        <ele>174.60000610352</ele>
        <time>2011-04-19T10:36:18.000Z</time>
      </trkpt>
      <trkpt lat="48.62597" lon="1.84445">
        <ele>179</ele>
        <time>2011-04-19T10:36:26.000Z</time>
      </trkpt>
      <trkpt lat="48.626" lon="1.8444">
        <ele>179</ele>
        <time>2011-04-19T10:36:29.000Z</time>
      </trkpt>
      <trkpt lat="48.62604" lon="1.84436">
        <ele>174.19999694824</ele>
        <time>2011-04-19T10:36:34.000Z</time>
      </trkpt>
      <trkpt lat="48.62606" lon="1.84428">
        <ele>175</ele>
        <time>2011-04-19T10:36:39.000Z</time>
      </trkpt>
      <trkpt lat="48.62609" lon="1.84419">
        <ele>172.60000610352</ele>
        <time>2011-04-19T10:36:44.000Z</time>
      </trkpt>
      <trkpt lat="48.62612" lon="1.84414">
        <ele>167</ele>
        <time>2011-04-19T10:36:49.000Z</time>
      </trkpt>
      <trkpt lat="48.62615" lon="1.84403">
        <ele>165.39999389648</ele>
        <time>2011-04-19T10:36:56.000Z</time>
      </trkpt>
      <trkpt lat="48.62619" lon="1.84394">
        <ele>164</ele>
        <time>2011-04-19T10:37:01.000Z</time>
      </trkpt>
      <trkpt lat="48.6262" lon="1.84393">
        <ele>163.60000610352</ele>
        <time>2011-04-19T10:37:02.000Z</time>
      </trkpt>
      <trkpt lat="48.62624" lon="1.84392">
        <ele>162.60000610352</ele>
        <time>2011-04-19T10:37:06.000Z</time>
      </trkpt>
      <trkpt lat="48.62625" lon="1.84391">
        <ele>163.60000610352</ele>
        <time>2011-04-19T10:37:11.000Z</time>
      </trkpt>
      <trkpt lat="48.62627" lon="1.84388">
        <ele>162.19999694824</ele>
        <time>2011-04-19T10:37:21.000Z</time>
      </trkpt>
      <trkpt lat="48.62629" lon="1.84368">
        <ele>165</ele>
        <time>2011-04-19T10:37:35.000Z</time>
      </trkpt>
      <trkpt lat="48.62629" lon="1.84367">
        <ele>165.39999389648</ele>
        <time>2011-04-19T10:37:36.000Z</time>
      </trkpt>
      <trkpt lat="48.62629" lon="1.84358">
        <ele>164</ele>
        <time>2011-04-19T10:37:39.000Z</time>
      </trkpt>
      <trkpt lat="48.62634" lon="1.84345">
        <ele>167.80000305176</ele>
        <time>2011-04-19T10:37:46.000Z</time>
      </trkpt>
      <trkpt lat="48.62638" lon="1.84338">
        <ele>164</ele>
        <time>2011-04-19T10:37:51.000Z</time>
      </trkpt>
      <trkpt lat="48.62638" lon="1.84337">
        <ele>163</ele>
        <time>2011-04-19T10:37:52.000Z</time>
      </trkpt>
      <trkpt lat="48.62639" lon="1.84328">
        <ele>164</ele>
        <time>2011-04-19T10:37:56.000Z</time>
      </trkpt>
      <trkpt lat="48.62643" lon="1.84319">
        <ele>161.60000610352</ele>
        <time>2011-04-19T10:38:02.000Z</time>
      </trkpt>
      <trkpt lat="48.62643" lon="1.84317">
        <ele>161.60000610352</ele>
        <time>2011-04-19T10:38:03.000Z</time>
      </trkpt>
      <trkpt lat="48.62647" lon="1.84308">
        <ele>160.60000610352</ele>
        <time>2011-04-19T10:38:09.000Z</time>
      </trkpt>
      <trkpt lat="48.62649" lon="1.84298">
        <ele>162.60000610352</ele>
        <time>2011-04-19T10:38:14.000Z</time>
      </trkpt>
      <trkpt lat="48.62649" lon="1.84297">
        <ele>162.60000610352</ele>
        <time>2011-04-19T10:38:17.000Z</time>
      </trkpt>
      <trkpt lat="48.6266" lon="1.84298">
        <ele>163.60000610352</ele>
        <time>2011-04-19T10:38:52.000Z</time>
      </trkpt>
      <trkpt lat="48.62659" lon="1.84294">
        <ele>164.60000610352</ele>
        <time>2011-04-19T10:38:53.000Z</time>
      </trkpt>
      <trkpt lat="48.62659" lon="1.84286">
        <ele>165.39999389648</ele>
        <time>2011-04-19T10:38:58.000Z</time>
      </trkpt>
      <trkpt lat="48.62661" lon="1.84277">
        <ele>162.19999694824</ele>
        <time>2011-04-19T10:39:03.000Z</time>
      </trkpt>
      <trkpt lat="48.62664" lon="1.8427">
        <ele>160.60000610352</ele>
        <time>2011-04-19T10:39:07.000Z</time>
      </trkpt>
      <trkpt lat="48.62663" lon="1.84259">
        <ele>161.19999694824</ele>
        <time>2011-04-19T10:39:13.000Z</time>
      </trkpt>
      <trkpt lat="48.62663" lon="1.84258">
        <ele>161.19999694824</ele>
        <time>2011-04-19T10:39:14.000Z</time>
      </trkpt>
      <trkpt lat="48.62666" lon="1.84254">
        <ele>161.19999694824</ele>
        <time>2011-04-19T10:39:17.000Z</time>
      </trkpt>
      <trkpt lat="48.62666" lon="1.84251">
        <ele>160.19999694824</ele>
        <time>2011-04-19T10:39:19.000Z</time>
      </trkpt>
      <trkpt lat="48.62668" lon="1.84246">
        <ele>158.80000305176</ele>
        <time>2011-04-19T10:39:22.000Z</time>
      </trkpt>
      <trkpt lat="48.62669" lon="1.84234">
        <ele>158.19999694824</ele>
        <time>2011-04-19T10:39:28.000Z</time>
      </trkpt>
      <trkpt lat="48.62674" lon="1.84221">
        <ele>158.19999694824</ele>
        <time>2011-04-19T10:39:35.000Z</time>
      </trkpt>
      <trkpt lat="48.62676" lon="1.84214">
        <ele>159.19999694824</ele>
        <time>2011-04-19T10:39:39.000Z</time>
      </trkpt>
      <trkpt lat="48.62679" lon="1.84193">
        <ele>167.80000305176</ele>
        <time>2011-04-19T10:39:47.000Z</time>
      </trkpt>
      <trkpt lat="48.6268" lon="1.84191">
        <ele>168.39999389648</ele>
        <time>2011-04-19T10:39:48.000Z</time>
      </trkpt>
      <trkpt lat="48.62682" lon="1.84185">
        <ele>168.39999389648</ele>
        <time>2011-04-19T10:39:54.000Z</time>
      </trkpt>
      <trkpt lat="48.62682" lon="1.84184">
        <ele>168.39999389648</ele>
        <time>2011-04-19T10:39:55.000Z</time>
      </trkpt>
      <trkpt lat="48.62683" lon="1.84183">
        <ele>167.39999389648</ele>
        <time>2011-04-19T10:39:58.000Z</time>
      </trkpt>
      <trkpt lat="48.62685" lon="1.84194">
        <ele>162.60000610352</ele>
        <time>2011-04-19T10:40:19.000Z</time>
      </trkpt>
      <trkpt lat="48.62686" lon="1.84197">
        <ele>164</ele>
        <time>2011-04-19T10:40:20.000Z</time>
      </trkpt>
      <trkpt lat="48.62693" lon="1.84197">
        <ele>161.19999694824</ele>
        <time>2011-04-19T10:40:25.000Z</time>
      </trkpt>
      <trkpt lat="48.62694" lon="1.84198">
        <ele>161.19999694824</ele>
        <time>2011-04-19T10:40:26.000Z</time>
      </trkpt>
      <trkpt lat="48.62697" lon="1.84201">
        <ele>160.19999694824</ele>
        <time>2011-04-19T10:40:30.000Z</time>
      </trkpt>
      <trkpt lat="48.62701" lon="1.84202">
        <ele>160.60000610352</ele>
        <time>2011-04-19T10:40:33.000Z</time>
      </trkpt>
      <trkpt lat="48.62704" lon="1.84207">
        <ele>160.60000610352</ele>
        <time>2011-04-19T10:40:36.000Z</time>
      </trkpt>
      <trkpt lat="48.62708" lon="1.84222">
        <ele>161.60000610352</ele>
        <time>2011-04-19T10:40:45.000Z</time>
      </trkpt>
      <trkpt lat="48.6271" lon="1.84226">
        <ele>159.80000305176</ele>
        <time>2011-04-19T10:40:51.000Z</time>
      </trkpt>
      <trkpt lat="48.6271" lon="1.84226">
        <ele>159.19999694824</ele>
        <time>2011-04-19T10:40:52.000Z</time>
      </trkpt>
      <trkpt lat="48.62709" lon="1.84219">
        <ele>160.19999694824</ele>
        <time>2011-04-19T10:41:30.000Z</time>
      </trkpt>
      <trkpt lat="48.62707" lon="1.84211">
        <ele>157.80000305176</ele>
        <time>2011-04-19T10:41:33.000Z</time>
      </trkpt>
      <trkpt lat="48.62702" lon="1.84204">
        <ele>156.80000305176</ele>
        <time>2011-04-19T10:41:38.000Z</time>
      </trkpt>
      <trkpt lat="48.62692" lon="1.84202">
        <ele>162.19999694824</ele>
        <time>2011-04-19T10:41:45.000Z</time>
      </trkpt>
      <trkpt lat="48.62682" lon="1.84206">
        <ele>168.39999389648</ele>
        <time>2011-04-19T10:41:50.000Z</time>
      </trkpt>
      <trkpt lat="48.6268" lon="1.84203">
        <ele>169.80000305176</ele>
        <time>2011-04-19T10:41:53.000Z</time>
      </trkpt>
      <trkpt lat="48.62683" lon="1.84184">
        <ele>166</ele>
        <time>2011-04-19T10:42:00.000Z</time>
      </trkpt>
      <trkpt lat="48.62685" lon="1.84177">
        <ele>164.60000610352</ele>
        <time>2011-04-19T10:42:03.000Z</time>
      </trkpt>
      <trkpt lat="48.62688" lon="1.84163">
        <ele>164.60000610352</ele>
        <time>2011-04-19T10:42:10.000Z</time>
      </trkpt>
      <trkpt lat="48.6269" lon="1.84157">
        <ele>164</ele>
        <time>2011-04-19T10:42:13.000Z</time>
      </trkpt>
      <trkpt lat="48.62697" lon="1.84153">
        <ele>162.19999694824</ele>
        <time>2011-04-19T10:42:18.000Z</time>
      </trkpt>
      <trkpt lat="48.62698" lon="1.84154">
        <ele>162.19999694824</ele>
        <time>2011-04-19T10:42:19.000Z</time>
      </trkpt>
      <trkpt lat="48.62706" lon="1.84163">
        <ele>160.60000610352</ele>
        <time>2011-04-19T10:42:24.000Z</time>
      </trkpt>
      <trkpt lat="48.62709" lon="1.8417">
        <ele>160.60000610352</ele>
        <time>2011-04-19T10:42:30.000Z</time>
      </trkpt>
      <trkpt lat="48.62725" lon="1.84198">
        <ele>161.19999694824</ele>
        <time>2011-04-19T10:43:03.000Z</time>
      </trkpt>
      <trkpt lat="48.62727" lon="1.842">
        <ele>161.19999694824</ele>
        <time>2011-04-19T10:43:04.000Z</time>
      </trkpt>
      <trkpt lat="48.62727" lon="1.84205">
        <ele>160.19999694824</ele>
        <time>2011-04-19T10:43:09.000Z</time>
      </trkpt>
      <trkpt lat="48.6272" lon="1.84202">
        <ele>156.39999389648</ele>
        <time>2011-04-19T10:43:20.000Z</time>
      </trkpt>
      <trkpt lat="48.62711" lon="1.84208">
        <ele>169.80000305176</ele>
        <time>2011-04-19T10:43:34.000Z</time>
      </trkpt>
      <trkpt lat="48.62717" lon="1.84209">
        <ele>163.60000610352</ele>
        <time>2011-04-19T10:43:43.000Z</time>
      </trkpt>
      <trkpt lat="48.62721" lon="1.84214">
        <ele>163</ele>
        <time>2011-04-19T10:43:48.000Z</time>
      </trkpt>
      <trkpt lat="48.62726" lon="1.84218">
        <ele>161.19999694824</ele>
        <time>2011-04-19T10:43:52.000Z</time>
      </trkpt>
      <trkpt lat="48.62732" lon="1.84225">
        <ele>159.19999694824</ele>
        <time>2011-04-19T10:43:57.000Z</time>
      </trkpt>
      <trkpt lat="48.62734" lon="1.84228">
        <ele>159.19999694824</ele>
        <time>2011-04-19T10:44:01.000Z</time>
      </trkpt>
      <trkpt lat="48.62735" lon="1.84232">
        <ele>160.19999694824</ele>
        <time>2011-04-19T10:44:06.000Z</time>
      </trkpt>
      <trkpt lat="48.62728" lon="1.84235">
        <ele>158.19999694824</ele>
        <time>2011-04-19T11:40:04.000Z</time>
      </trkpt>
      <trkpt lat="48.62732" lon="1.84235">
        <ele>154</ele>
        <time>2011-04-19T11:40:08.000Z</time>
      </trkpt>
      <trkpt lat="48.62792" lon="1.84262">
        <ele>150.19999694824</ele>
        <time>2011-04-19T11:41:49.000Z</time>
      </trkpt>
      <trkpt lat="48.62801" lon="1.84267">
        <ele>151.60000610352</ele>
        <time>2011-04-19T11:41:54.000Z</time>
      </trkpt>
      <trkpt lat="48.62806" lon="1.8427">
        <ele>151.60000610352</ele>
        <time>2011-04-19T11:41:58.000Z</time>
      </trkpt>
      <trkpt lat="48.62812" lon="1.84277">
        <ele>153.39999389648</ele>
        <time>2011-04-19T11:42:03.000Z</time>
      </trkpt>
      <trkpt lat="48.62817" lon="1.8428">
        <ele>153.39999389648</ele>
        <time>2011-04-19T11:42:07.000Z</time>
      </trkpt>
      <trkpt lat="48.62821" lon="1.84279">
        <ele>153.39999389648</ele>
        <time>2011-04-19T11:42:13.000Z</time>
      </trkpt>
      <trkpt lat="48.62826" lon="1.84281">
        <ele>154.39999389648</ele>
        <time>2011-04-19T11:42:17.000Z</time>
      </trkpt>
      <trkpt lat="48.6283" lon="1.84284">
        <ele>154</ele>
        <time>2011-04-19T11:42:22.000Z</time>
      </trkpt>
      <trkpt lat="48.62835" lon="1.84288">
        <ele>154.39999389648</ele>
        <time>2011-04-19T11:42:28.000Z</time>
      </trkpt>
      <trkpt lat="48.62839" lon="1.84289">
        <ele>155.39999389648</ele>
        <time>2011-04-19T11:42:31.000Z</time>
      </trkpt>
      <trkpt lat="48.62848" lon="1.84289">
        <ele>157.80000305176</ele>
        <time>2011-04-19T11:42:37.000Z</time>
      </trkpt>
      <trkpt lat="48.62858" lon="1.84288">
        <ele>160.60000610352</ele>
        <time>2011-04-19T11:42:43.000Z</time>
      </trkpt>
      <trkpt lat="48.62867" lon="1.84288">
        <ele>161.60000610352</ele>
        <time>2011-04-19T11:42:49.000Z</time>
      </trkpt>
      <trkpt lat="48.62871" lon="1.84287">
        <ele>161.60000610352</ele>
        <time>2011-04-19T11:42:52.000Z</time>
      </trkpt>
      <trkpt lat="48.62878" lon="1.84282">
        <ele>161.60000610352</ele>
        <time>2011-04-19T11:42:58.000Z</time>
      </trkpt>
      <trkpt lat="48.62884" lon="1.84278">
        <ele>160.60000610352</ele>
        <time>2011-04-19T11:43:03.000Z</time>
      </trkpt>
      <trkpt lat="48.62888" lon="1.84277">
        <ele>159.80000305176</ele>
        <time>2011-04-19T11:43:07.000Z</time>
      </trkpt>
      <trkpt lat="48.62894" lon="1.84277">
        <ele>159.80000305176</ele>
        <time>2011-04-19T11:43:12.000Z</time>
      </trkpt>
      <trkpt lat="48.62902" lon="1.84271">
        <ele>156.80000305176</ele>
        <time>2011-04-19T11:43:19.000Z</time>
      </trkpt>
      <trkpt lat="48.62906" lon="1.84269">
        <ele>156.39999389648</ele>
        <time>2011-04-19T11:43:23.000Z</time>
      </trkpt>
      <trkpt lat="48.62912" lon="1.84261">
        <ele>149.19999694824</ele>
        <time>2011-04-19T11:43:30.000Z</time>
      </trkpt>
      <trkpt lat="48.62913" lon="1.8426">
        <ele>148.60000610352</ele>
        <time>2011-04-19T11:43:31.000Z</time>
      </trkpt>
      <trkpt lat="48.62921" lon="1.84255">
        <ele>150.60000610352</ele>
        <time>2011-04-19T11:43:37.000Z</time>
      </trkpt>
      <trkpt lat="48.62929" lon="1.84253">
        <ele>150.60000610352</ele>
        <time>2011-04-19T11:43:42.000Z</time>
      </trkpt>
      <trkpt lat="48.62936" lon="1.84247">
        <ele>153</ele>
        <time>2011-04-19T11:43:48.000Z</time>
      </trkpt>
      <trkpt lat="48.6294" lon="1.84244">
        <ele>152.60000610352</ele>
        <time>2011-04-19T11:43:51.000Z</time>
      </trkpt>
      <trkpt lat="48.62949" lon="1.84238">
        <ele>154</ele>
        <time>2011-04-19T11:43:58.000Z</time>
      </trkpt>
      <trkpt lat="48.62955" lon="1.84234">
        <ele>155</ele>
        <time>2011-04-19T11:44:04.000Z</time>
      </trkpt>
      <trkpt lat="48.62958" lon="1.84233">
        <ele>155.80000305176</ele>
        <time>2011-04-19T11:44:06.000Z</time>
      </trkpt>
      <trkpt lat="48.62962" lon="1.8423">
        <ele>156.80000305176</ele>
        <time>2011-04-19T11:44:10.000Z</time>
      </trkpt>
      <trkpt lat="48.62967" lon="1.84229">
        <ele>155.39999389648</ele>
        <time>2011-04-19T11:44:15.000Z</time>
      </trkpt>
      <trkpt lat="48.62974" lon="1.84225">
        <ele>159.19999694824</ele>
        <time>2011-04-19T11:44:20.000Z</time>
      </trkpt>
      <trkpt lat="48.62976" lon="1.84222">
        <ele>159.19999694824</ele>
        <time>2011-04-19T11:44:25.000Z</time>
      </trkpt>
      <trkpt lat="48.62985" lon="1.84218">
        <ele>155.80000305176</ele>
        <time>2011-04-19T11:44:36.000Z</time>
      </trkpt>
      <trkpt lat="48.62991" lon="1.84215">
        <ele>154</ele>
        <time>2011-04-19T11:44:41.000Z</time>
      </trkpt>
      <trkpt lat="48.62998" lon="1.84212">
        <ele>154</ele>
        <time>2011-04-19T11:44:46.000Z</time>
      </trkpt>
      <trkpt lat="48.63004" lon="1.84209">
        <ele>156.80000305176</ele>
        <time>2011-04-19T11:44:49.000Z</time>
      </trkpt>
      <trkpt lat="48.63013" lon="1.84208">
        <ele>156.80000305176</ele>
        <time>2011-04-19T11:44:54.000Z</time>
      </trkpt>
      <trkpt lat="48.63018" lon="1.84203">
        <ele>155.39999389648</ele>
        <time>2011-04-19T11:44:59.000Z</time>
      </trkpt>
      <trkpt lat="48.63022" lon="1.84197">
        <ele>153</ele>
        <time>2011-04-19T11:45:05.000Z</time>
      </trkpt>
      <trkpt lat="48.63023" lon="1.84198">
        <ele>151</ele>
        <time>2011-04-19T11:45:08.000Z</time>
      </trkpt>
      <trkpt lat="48.6303" lon="1.84182">
        <ele>147.19999694824</ele>
        <time>2011-04-19T11:45:23.000Z</time>
      </trkpt>
      <trkpt lat="48.63034" lon="1.84175">
        <ele>148.19999694824</ele>
        <time>2011-04-19T11:45:27.000Z</time>
      </trkpt>
      <trkpt lat="48.63042" lon="1.84161">
        <ele>152.60000610352</ele>
        <time>2011-04-19T11:45:36.000Z</time>
      </trkpt>
      <trkpt lat="48.63042" lon="1.84159">
        <ele>152.60000610352</ele>
        <time>2011-04-19T11:45:37.000Z</time>
      </trkpt>
      <trkpt lat="48.63045" lon="1.84153">
        <ele>152.60000610352</ele>
        <time>2011-04-19T11:45:41.000Z</time>
      </trkpt>
      <trkpt lat="48.63046" lon="1.84153">
        <ele>151</ele>
        <time>2011-04-19T11:45:43.000Z</time>
      </trkpt>
      <trkpt lat="48.63051" lon="1.84158">
        <ele>154</ele>
        <time>2011-04-19T11:45:50.000Z</time>
      </trkpt>
      <trkpt lat="48.63055" lon="1.84156">
        <ele>152</ele>
        <time>2011-04-19T11:45:55.000Z</time>
      </trkpt>
      <trkpt lat="48.6306" lon="1.84152">
        <ele>152.60000610352</ele>
        <time>2011-04-19T11:45:59.000Z</time>
      </trkpt>
      <trkpt lat="48.6307" lon="1.84144">
        <ele>152.60000610352</ele>
        <time>2011-04-19T11:46:08.000Z</time>
      </trkpt>
      <trkpt lat="48.63078" lon="1.8414">
        <ele>153</ele>
        <time>2011-04-19T11:46:15.000Z</time>
      </trkpt>
      <trkpt lat="48.63082" lon="1.84137">
        <ele>154</ele>
        <time>2011-04-19T11:46:19.000Z</time>
      </trkpt>
      <trkpt lat="48.63084" lon="1.84135">
        <ele>154</ele>
        <time>2011-04-19T11:46:21.000Z</time>
      </trkpt>
      <trkpt lat="48.63092" lon="1.84128">
        <ele>153</ele>
        <time>2011-04-19T11:46:29.000Z</time>
      </trkpt>
      <trkpt lat="48.63094" lon="1.84124">
        <ele>153.39999389648</ele>
        <time>2011-04-19T11:46:32.000Z</time>
      </trkpt>
      <trkpt lat="48.631" lon="1.8412">
        <ele>155</ele>
        <time>2011-04-19T11:46:37.000Z</time>
      </trkpt>
      <trkpt lat="48.63101" lon="1.84117">
        <ele>156.39999389648</ele>
        <time>2011-04-19T11:46:42.000Z</time>
      </trkpt>
      <trkpt lat="48.6311" lon="1.84079">
        <ele>160.19999694824</ele>
        <time>2011-04-19T11:49:41.000Z</time>
      </trkpt>
      <trkpt lat="48.63112" lon="1.84077">
        <ele>159.19999694824</ele>
        <time>2011-04-19T11:49:42.000Z</time>
      </trkpt>
      <trkpt lat="48.63118" lon="1.84074">
        <ele>160.19999694824</ele>
        <time>2011-04-19T11:49:47.000Z</time>
      </trkpt>
      <trkpt lat="48.63126" lon="1.84071">
        <ele>160.19999694824</ele>
        <time>2011-04-19T11:49:54.000Z</time>
      </trkpt>
      <trkpt lat="48.63134" lon="1.84071">
        <ele>158.80000305176</ele>
        <time>2011-04-19T11:50:01.000Z</time>
      </trkpt>
      <trkpt lat="48.63141" lon="1.8407">
        <ele>157.39999389648</ele>
        <time>2011-04-19T11:50:08.000Z</time>
      </trkpt>
      <trkpt lat="48.63143" lon="1.84069">
        <ele>158.19999694824</ele>
        <time>2011-04-19T11:50:10.000Z</time>
      </trkpt>
      <trkpt lat="48.63151" lon="1.84065">
        <ele>157.80000305176</ele>
        <time>2011-04-19T11:50:16.000Z</time>
      </trkpt>
      <trkpt lat="48.63156" lon="1.84062">
        <ele>157.80000305176</ele>
        <time>2011-04-19T11:50:20.000Z</time>
      </trkpt>
      <trkpt lat="48.6316" lon="1.84061">
        <ele>157.39999389648</ele>
        <time>2011-04-19T11:50:22.000Z</time>
      </trkpt>
      <trkpt lat="48.63172" lon="1.84056">
        <ele>160.19999694824</ele>
        <time>2011-04-19T11:50:32.000Z</time>
      </trkpt>
      <trkpt lat="48.63174" lon="1.84055">
        <ele>160.60000610352</ele>
        <time>2011-04-19T11:50:33.000Z</time>
      </trkpt>
      <trkpt lat="48.63181" lon="1.84048">
        <ele>162.60000610352</ele>
        <time>2011-04-19T11:50:38.000Z</time>
      </trkpt>
      <trkpt lat="48.63186" lon="1.84046">
        <ele>163</ele>
        <time>2011-04-19T11:50:43.000Z</time>
      </trkpt>
      <trkpt lat="48.63196" lon="1.84043">
        <ele>162.60000610352</ele>
        <time>2011-04-19T11:50:51.000Z</time>
      </trkpt>
      <trkpt lat="48.63205" lon="1.84044">
        <ele>161.60000610352</ele>
        <time>2011-04-19T11:50:57.000Z</time>
      </trkpt>
      <trkpt lat="48.63208" lon="1.84043">
        <ele>160.19999694824</ele>
        <time>2011-04-19T11:50:59.000Z</time>
      </trkpt>
      <trkpt lat="48.63215" lon="1.8404">
        <ele>158.80000305176</ele>
        <time>2011-04-19T11:51:05.000Z</time>
      </trkpt>
      <trkpt lat="48.63225" lon="1.84029">
        <ele>160.19999694824</ele>
        <time>2011-04-19T11:51:13.000Z</time>
      </trkpt>
      <trkpt lat="48.63227" lon="1.84027">
        <ele>161.19999694824</ele>
        <time>2011-04-19T11:51:15.000Z</time>
      </trkpt>
      <trkpt lat="48.63228" lon="1.84026">
        <ele>160.60000610352</ele>
        <time>2011-04-19T11:51:17.000Z</time>
      </trkpt>
      <trkpt lat="48.63229" lon="1.84025">
        <ele>159.80000305176</ele>
        <time>2011-04-19T11:51:20.000Z</time>
      </trkpt>
      <trkpt lat="48.63241" lon="1.84009">
        <ele>163.60000610352</ele>
        <time>2011-04-19T11:51:54.000Z</time>
      </trkpt>
      <trkpt lat="48.6325" lon="1.84005">
        <ele>161.19999694824</ele>
        <time>2011-04-19T11:51:59.000Z</time>
      </trkpt>
      <trkpt lat="48.63256" lon="1.84005">
        <ele>162.19999694824</ele>
        <time>2011-04-19T11:52:04.000Z</time>
      </trkpt>
      <trkpt lat="48.63264" lon="1.84001">
        <ele>164</ele>
        <time>2011-04-19T11:52:10.000Z</time>
      </trkpt>
      <trkpt lat="48.63272" lon="1.83999">
        <ele>163.60000610352</ele>
        <time>2011-04-19T11:52:16.000Z</time>
      </trkpt>
      <trkpt lat="48.63278" lon="1.83997">
        <ele>163</ele>
        <time>2011-04-19T11:52:21.000Z</time>
      </trkpt>
      <trkpt lat="48.63284" lon="1.83995">
        <ele>162.60000610352</ele>
        <time>2011-04-19T11:52:25.000Z</time>
      </trkpt>
      <trkpt lat="48.63288" lon="1.83999">
        <ele>160.19999694824</ele>
        <time>2011-04-19T11:52:31.000Z</time>
      </trkpt>
      <trkpt lat="48.63291" lon="1.83996">
        <ele>160.60000610352</ele>
        <time>2011-04-19T11:52:33.000Z</time>
      </trkpt>
      <trkpt lat="48.63298" lon="1.83995">
        <ele>163</ele>
        <time>2011-04-19T11:52:37.000Z</time>
      </trkpt>
      <trkpt lat="48.63305" lon="1.83989">
        <ele>166.39999389648</ele>
        <time>2011-04-19T11:52:44.000Z</time>
      </trkpt>
      <trkpt lat="48.63306" lon="1.83988">
        <ele>168.39999389648</ele>
        <time>2011-04-19T11:52:45.000Z</time>
      </trkpt>
      <trkpt lat="48.63313" lon="1.83983">
        <ele>170.80000305176</ele>
        <time>2011-04-19T11:52:51.000Z</time>
      </trkpt>
      <trkpt lat="48.63321" lon="1.83978">
        <ele>177.60000610352</ele>
        <time>2011-04-19T11:52:58.000Z</time>
      </trkpt>
      <trkpt lat="48.6333" lon="1.83977">
        <ele>176</ele>
        <time>2011-04-19T11:53:05.000Z</time>
      </trkpt>
      <trkpt lat="48.63333" lon="1.83977">
        <ele>174.60000610352</ele>
        <time>2011-04-19T11:53:07.000Z</time>
      </trkpt>
      <trkpt lat="48.63342" lon="1.83976">
        <ele>172.60000610352</ele>
        <time>2011-04-19T11:53:13.000Z</time>
      </trkpt>
      <trkpt lat="48.63352" lon="1.83971">
        <ele>172.60000610352</ele>
        <time>2011-04-19T11:53:19.000Z</time>
      </trkpt>
      <trkpt lat="48.63355" lon="1.8397">
        <ele>172.60000610352</ele>
        <time>2011-04-19T11:53:21.000Z</time>
      </trkpt>
      <trkpt lat="48.63362" lon="1.8397">
        <ele>171.19999694824</ele>
        <time>2011-04-19T11:53:27.000Z</time>
      </trkpt>
      <trkpt lat="48.63364" lon="1.8397">
        <ele>172.19999694824</ele>
        <time>2011-04-19T11:53:29.000Z</time>
      </trkpt>
      <trkpt lat="48.63369" lon="1.83968">
        <ele>170.80000305176</ele>
        <time>2011-04-19T11:53:33.000Z</time>
      </trkpt>
      <trkpt lat="48.63375" lon="1.83966">
        <ele>169.39999389648</ele>
        <time>2011-04-19T11:53:37.000Z</time>
      </trkpt>
      <trkpt lat="48.63385" lon="1.83959">
        <ele>167.39999389648</ele>
        <time>2011-04-19T11:53:44.000Z</time>
      </trkpt>
      <trkpt lat="48.63392" lon="1.83954">
        <ele>167</ele>
        <time>2011-04-19T11:53:49.000Z</time>
      </trkpt>
      <trkpt lat="48.63398" lon="1.83944">
        <ele>169.39999389648</ele>
        <time>2011-04-19T11:53:55.000Z</time>
      </trkpt>
      <trkpt lat="48.63399" lon="1.83943">
        <ele>169.39999389648</ele>
        <time>2011-04-19T11:53:56.000Z</time>
      </trkpt>
      <trkpt lat="48.63405" lon="1.83933">
        <ele>169.39999389648</ele>
        <time>2011-04-19T11:54:02.000Z</time>
      </trkpt>
      <trkpt lat="48.63409" lon="1.83924">
        <ele>168.80000305176</ele>
        <time>2011-04-19T11:54:08.000Z</time>
      </trkpt>
      <trkpt lat="48.63414" lon="1.83915">
        <ele>167.39999389648</ele>
        <time>2011-04-19T11:54:14.000Z</time>
      </trkpt>
      <trkpt lat="48.63418" lon="1.83912">
        <ele>164</ele>
        <time>2011-04-19T11:54:18.000Z</time>
      </trkpt>
      <trkpt lat="48.63428" lon="1.83903">
        <ele>166</ele>
        <time>2011-04-19T11:54:25.000Z</time>
      </trkpt>
      <trkpt lat="48.63431" lon="1.83901">
        <ele>166.39999389648</ele>
        <time>2011-04-19T11:54:27.000Z</time>
      </trkpt>
      <trkpt lat="48.63442" lon="1.83898">
        <ele>167</ele>
        <time>2011-04-19T11:54:35.000Z</time>
      </trkpt>
      <trkpt lat="48.63443" lon="1.83898">
        <ele>166.39999389648</ele>
        <time>2011-04-19T11:54:36.000Z</time>
      </trkpt>
      <trkpt lat="48.63445" lon="1.83899">
        <ele>164.60000610352</ele>
        <time>2011-04-19T11:54:38.000Z</time>
      </trkpt>
      <trkpt lat="48.63452" lon="1.83899">
        <ele>163.60000610352</ele>
        <time>2011-04-19T11:54:44.000Z</time>
      </trkpt>
      <trkpt lat="48.63458" lon="1.83896">
        <ele>166</ele>
        <time>2011-04-19T11:54:48.000Z</time>
      </trkpt>
      <trkpt lat="48.63465" lon="1.83885">
        <ele>164</ele>
        <time>2011-04-19T11:54:55.000Z</time>
      </trkpt>
      <trkpt lat="48.63467" lon="1.8388">
        <ele>163.60000610352</ele>
        <time>2011-04-19T11:54:59.000Z</time>
      </trkpt>
      <trkpt lat="48.63471" lon="1.83868">
        <ele>164.60000610352</ele>
        <time>2011-04-19T11:55:06.000Z</time>
      </trkpt>
      <trkpt lat="48.63474" lon="1.83863">
        <ele>167</ele>
        <time>2011-04-19T11:55:09.000Z</time>
      </trkpt>
      <trkpt lat="48.63479" lon="1.83854">
        <ele>165</ele>
        <time>2011-04-19T11:55:15.000Z</time>
      </trkpt>
      <trkpt lat="48.63483" lon="1.83847">
        <ele>164</ele>
        <time>2011-04-19T11:55:22.000Z</time>
      </trkpt>
      <trkpt lat="48.63484" lon="1.83849">
        <ele>163</ele>
        <time>2011-04-19T11:55:23.000Z</time>
      </trkpt>
      <trkpt lat="48.63487" lon="1.83854">
        <ele>158.80000305176</ele>
        <time>2011-04-19T11:55:29.000Z</time>
      </trkpt>
      <trkpt lat="48.63486" lon="1.83854">
        <ele>157.80000305176</ele>
        <time>2011-04-19T11:55:30.000Z</time>
      </trkpt>
      <trkpt lat="48.63484" lon="1.83848">
        <ele>156.39999389648</ele>
        <time>2011-04-19T11:55:34.000Z</time>
      </trkpt>
      <trkpt lat="48.63483" lon="1.83842">
        <ele>158.80000305176</ele>
        <time>2011-04-19T11:55:40.000Z</time>
      </trkpt>
      <trkpt lat="48.63483" lon="1.83842">
        <ele>158.19999694824</ele>
        <time>2011-04-19T11:55:41.000Z</time>
      </trkpt>
      <trkpt lat="48.63483" lon="1.83838">
        <ele>161.19999694824</ele>
        <time>2011-04-19T11:55:44.000Z</time>
      </trkpt>
      <trkpt lat="48.63483" lon="1.83833">
        <ele>161.60000610352</ele>
        <time>2011-04-19T11:55:48.000Z</time>
      </trkpt>
      <trkpt lat="48.63484" lon="1.83826">
        <ele>161.19999694824</ele>
        <time>2011-04-19T11:55:53.000Z</time>
      </trkpt>
      <trkpt lat="48.63484" lon="1.83816">
        <ele>165</ele>
        <time>2011-04-19T11:55:58.000Z</time>
      </trkpt>
      <trkpt lat="48.63486" lon="1.83805">
        <ele>168.39999389648</ele>
        <time>2011-04-19T11:56:03.000Z</time>
      </trkpt>
      <trkpt lat="48.63489" lon="1.83802">
        <ele>168.80000305176</ele>
        <time>2011-04-19T11:56:05.000Z</time>
      </trkpt>
      <trkpt lat="48.63494" lon="1.83789">
        <ele>170.80000305176</ele>
        <time>2011-04-19T11:56:11.000Z</time>
      </trkpt>
      <trkpt lat="48.635" lon="1.83778">
        <ele>175</ele>
        <time>2011-04-19T11:56:17.000Z</time>
      </trkpt>
      <trkpt lat="48.63506" lon="1.8377">
        <ele>172.60000610352</ele>
        <time>2011-04-19T11:56:22.000Z</time>
      </trkpt>
      <trkpt lat="48.63513" lon="1.83763">
        <ele>174.60000610352</ele>
        <time>2011-04-19T11:56:28.000Z</time>
      </trkpt>
      <trkpt lat="48.63522" lon="1.83758">
        <ele>172.60000610352</ele>
        <time>2011-04-19T11:56:36.000Z</time>
      </trkpt>
      <trkpt lat="48.6353" lon="1.83754">
        <ele>170.19999694824</ele>
        <time>2011-04-19T11:56:43.000Z</time>
      </trkpt>
      <trkpt lat="48.63534" lon="1.83752">
        <ele>167.39999389648</ele>
        <time>2011-04-19T11:56:46.000Z</time>
      </trkpt>
      <trkpt lat="48.63538" lon="1.8374">
        <ele>162.60000610352</ele>
        <time>2011-04-19T11:56:54.000Z</time>
      </trkpt>
      <trkpt lat="48.63539" lon="1.83738">
        <ele>162.60000610352</ele>
        <time>2011-04-19T11:56:55.000Z</time>
      </trkpt>
      <trkpt lat="48.6354" lon="1.83732">
        <ele>158.80000305176</ele>
        <time>2011-04-19T11:57:00.000Z</time>
      </trkpt>
      <trkpt lat="48.63541" lon="1.83729">
        <ele>157.39999389648</ele>
        <time>2011-04-19T11:57:02.000Z</time>
      </trkpt>
      <trkpt lat="48.63541" lon="1.83715">
        <ele>159.80000305176</ele>
        <time>2011-04-19T11:57:08.000Z</time>
      </trkpt>
      <trkpt lat="48.63541" lon="1.83705">
        <ele>158.80000305176</ele>
        <time>2011-04-19T11:57:14.000Z</time>
      </trkpt>
      <trkpt lat="48.6354" lon="1.83697">
        <ele>157.80000305176</ele>
        <time>2011-04-19T11:57:20.000Z</time>
      </trkpt>
      <trkpt lat="48.6354" lon="1.83694">
        <ele>155.80000305176</ele>
        <time>2011-04-19T11:57:22.000Z</time>
      </trkpt>
      <trkpt lat="48.63541" lon="1.83683">
        <ele>154</ele>
        <time>2011-04-19T11:57:28.000Z</time>
      </trkpt>
      <trkpt lat="48.63542" lon="1.83675">
        <ele>155.80000305176</ele>
        <time>2011-04-19T11:57:32.000Z</time>
      </trkpt>
      <trkpt lat="48.63541" lon="1.83665">
        <ele>159.19999694824</ele>
        <time>2011-04-19T11:57:36.000Z</time>
      </trkpt>
      <trkpt lat="48.63542" lon="1.8366">
        <ele>161.19999694824</ele>
        <time>2011-04-19T11:57:42.000Z</time>
      </trkpt>
      <trkpt lat="48.63542" lon="1.8366">
        <ele>161.19999694824</ele>
        <time>2011-04-19T11:57:43.000Z</time>
      </trkpt>
      <trkpt lat="48.63584" lon="1.8367">
        <ele>159.19999694824</ele>
        <time>2011-04-19T11:59:32.000Z</time>
      </trkpt>
      <trkpt lat="48.63588" lon="1.83673">
        <ele>159.80000305176</ele>
        <time>2011-04-19T11:59:35.000Z</time>
      </trkpt>
      <trkpt lat="48.63589" lon="1.83674">
        <ele>159.80000305176</ele>
        <time>2011-04-19T11:59:36.000Z</time>
      </trkpt>
      <trkpt lat="48.63592" lon="1.83676">
        <ele>159.80000305176</ele>
        <time>2011-04-19T11:59:39.000Z</time>
      </trkpt>
      <trkpt lat="48.63594" lon="1.83679">
        <ele>159.80000305176</ele>
        <time>2011-04-19T11:59:41.000Z</time>
      </trkpt>
      <trkpt lat="48.63599" lon="1.83682">
        <ele>159.80000305176</ele>
        <time>2011-04-19T11:59:45.000Z</time>
      </trkpt>
      <trkpt lat="48.63606" lon="1.83687">
        <ele>159.80000305176</ele>
        <time>2011-04-19T11:59:51.000Z</time>
      </trkpt>
      <trkpt lat="48.63618" lon="1.83697">
        <ele>159.19999694824</ele>
        <time>2011-04-19T12:00:01.000Z</time>
      </trkpt>
      <trkpt lat="48.63619" lon="1.83698">
        <ele>158.80000305176</ele>
        <time>2011-04-19T12:00:02.000Z</time>
      </trkpt>
      <trkpt lat="48.63627" lon="1.8371">
        <ele>157.39999389648</ele>
        <time>2011-04-19T12:00:11.000Z</time>
      </trkpt>
      <trkpt lat="48.63633" lon="1.8372">
        <ele>155.80000305176</ele>
        <time>2011-04-19T12:00:18.000Z</time>
      </trkpt>
      <trkpt lat="48.63637" lon="1.83726">
        <ele>156.39999389648</ele>
        <time>2011-04-19T12:00:24.000Z</time>
      </trkpt>
      <trkpt lat="48.63639" lon="1.83728">
        <ele>156.39999389648</ele>
        <time>2011-04-19T12:00:25.000Z</time>
      </trkpt>
      <trkpt lat="48.63647" lon="1.83737">
        <ele>156.80000305176</ele>
        <time>2011-04-19T12:00:32.000Z</time>
      </trkpt>
      <trkpt lat="48.63654" lon="1.83745">
        <ele>156.80000305176</ele>
        <time>2011-04-19T12:00:39.000Z</time>
      </trkpt>
      <trkpt lat="48.63659" lon="1.83754">
        <ele>156.80000305176</ele>
        <time>2011-04-19T12:00:45.000Z</time>
      </trkpt>
      <trkpt lat="48.63664" lon="1.83762">
        <ele>156.80000305176</ele>
        <time>2011-04-19T12:00:51.000Z</time>
      </trkpt>
      <trkpt lat="48.63666" lon="1.83765">
        <ele>156.39999389648</ele>
        <time>2011-04-19T12:00:53.000Z</time>
      </trkpt>
      <trkpt lat="48.63671" lon="1.83775">
        <ele>155</ele>
        <time>2011-04-19T12:01:00.000Z</time>
      </trkpt>
      <trkpt lat="48.63677" lon="1.83783">
        <ele>155.39999389648</ele>
        <time>2011-04-19T12:01:06.000Z</time>
      </trkpt>
      <trkpt lat="48.63677" lon="1.83785">
        <ele>155.80000305176</ele>
        <time>2011-04-19T12:01:07.000Z</time>
      </trkpt>
      <trkpt lat="48.63685" lon="1.83795">
        <ele>155.39999389648</ele>
        <time>2011-04-19T12:01:15.000Z</time>
      </trkpt>
      <trkpt lat="48.63691" lon="1.83805">
        <ele>156.39999389648</ele>
        <time>2011-04-19T12:01:22.000Z</time>
      </trkpt>
      <trkpt lat="48.63695" lon="1.83811">
        <ele>155.80000305176</ele>
        <time>2011-04-19T12:01:27.000Z</time>
      </trkpt>
      <trkpt lat="48.63698" lon="1.83817">
        <ele>154.39999389648</ele>
        <time>2011-04-19T12:01:32.000Z</time>
      </trkpt>
      <trkpt lat="48.63704" lon="1.83825">
        <ele>155.80000305176</ele>
        <time>2011-04-19T12:01:38.000Z</time>
      </trkpt>
      <trkpt lat="48.63707" lon="1.83829">
        <ele>156.39999389648</ele>
        <time>2011-04-19T12:01:41.000Z</time>
      </trkpt>
      <trkpt lat="48.63718" lon="1.8384">
        <ele>159.19999694824</ele>
        <time>2011-04-19T12:01:50.000Z</time>
      </trkpt>
      <trkpt lat="48.63722" lon="1.83842">
        <ele>159.80000305176</ele>
        <time>2011-04-19T12:01:54.000Z</time>
      </trkpt>
      <trkpt lat="48.63728" lon="1.83843">
        <ele>159.19999694824</ele>
        <time>2011-04-19T12:02:00.000Z</time>
      </trkpt>
      <trkpt lat="48.63729" lon="1.83843">
        <ele>159.19999694824</ele>
        <time>2011-04-19T12:02:02.000Z</time>
      </trkpt>
      <trkpt lat="48.63736" lon="1.83844">
        <ele>159.80000305176</ele>
        <time>2011-04-19T12:02:13.000Z</time>
      </trkpt>
      <trkpt lat="48.63742" lon="1.83845">
        <ele>161.19999694824</ele>
        <time>2011-04-19T12:02:18.000Z</time>
      </trkpt>
      <trkpt lat="48.63754" lon="1.83846">
        <ele>162.60000610352</ele>
        <time>2011-04-19T12:02:27.000Z</time>
      </trkpt>
      <trkpt lat="48.63767" lon="1.83848">
        <ele>162.60000610352</ele>
        <time>2011-04-19T12:02:37.000Z</time>
      </trkpt>
      <trkpt lat="48.63775" lon="1.83848">
        <ele>164.60000610352</ele>
        <time>2011-04-19T12:02:45.000Z</time>
      </trkpt>
      <trkpt lat="48.63779" lon="1.83847">
        <ele>164.60000610352</ele>
        <time>2011-04-19T12:02:50.000Z</time>
      </trkpt>
      <trkpt lat="48.63784" lon="1.8383">
        <ele>163.60000610352</ele>
        <time>2011-04-19T12:03:08.000Z</time>
      </trkpt>
      <trkpt lat="48.63786" lon="1.83826">
        <ele>163</ele>
        <time>2011-04-19T12:03:10.000Z</time>
      </trkpt>
      <trkpt lat="48.63791" lon="1.83815">
        <ele>162.19999694824</ele>
        <time>2011-04-19T12:03:17.000Z</time>
      </trkpt>
      <trkpt lat="48.63792" lon="1.83813">
        <ele>162.19999694824</ele>
        <time>2011-04-19T12:03:18.000Z</time>
      </trkpt>
      <trkpt lat="48.63794" lon="1.83811">
        <ele>160.19999694824</ele>
        <time>2011-04-19T12:03:22.000Z</time>
      </trkpt>
      <trkpt lat="48.63795" lon="1.8381">
        <ele>159.19999694824</ele>
        <time>2011-04-19T12:03:25.000Z</time>
      </trkpt>
      <trkpt lat="48.63797" lon="1.83807">
        <ele>159.19999694824</ele>
        <time>2011-04-19T12:03:26.000Z</time>
      </trkpt>
      <trkpt lat="48.638" lon="1.83798">
        <ele>158.80000305176</ele>
        <time>2011-04-19T12:03:28.000Z</time>
      </trkpt>
      <trkpt lat="48.63799" lon="1.83793">
        <ele>160.19999694824</ele>
        <time>2011-04-19T12:03:31.000Z</time>
      </trkpt>
      <trkpt lat="48.638" lon="1.8379">
        <ele>160.60000610352</ele>
        <time>2011-04-19T12:03:32.000Z</time>
      </trkpt>
      <trkpt lat="48.63805" lon="1.83785">
        <ele>160.60000610352</ele>
        <time>2011-04-19T12:03:35.000Z</time>
      </trkpt>
      <trkpt lat="48.63811" lon="1.8378">
        <ele>159.80000305176</ele>
        <time>2011-04-19T12:03:40.000Z</time>
      </trkpt>
      <trkpt lat="48.63813" lon="1.83773">
        <ele>162.60000610352</ele>
        <time>2011-04-19T12:03:45.000Z</time>
      </trkpt>
      <trkpt lat="48.63819" lon="1.83763">
        <ele>163.60000610352</ele>
        <time>2011-04-19T12:03:52.000Z</time>
      </trkpt>
      <trkpt lat="48.63819" lon="1.83766">
        <ele>163</ele>
        <time>2011-04-19T12:03:56.000Z</time>
      </trkpt>
      <trkpt lat="48.63829" lon="1.83746">
        <ele>161.60000610352</ele>
        <time>2011-04-19T12:04:29.000Z</time>
      </trkpt>
      <trkpt lat="48.63837" lon="1.8374">
        <ele>161.19999694824</ele>
        <time>2011-04-19T12:04:34.000Z</time>
      </trkpt>
      <trkpt lat="48.63847" lon="1.83735">
        <ele>162.19999694824</ele>
        <time>2011-04-19T12:04:41.000Z</time>
      </trkpt>
      <trkpt lat="48.63852" lon="1.8373">
        <ele>163.60000610352</ele>
        <time>2011-04-19T12:04:46.000Z</time>
      </trkpt>
      <trkpt lat="48.63853" lon="1.83729">
        <ele>164</ele>
        <time>2011-04-19T12:04:47.000Z</time>
      </trkpt>
      <trkpt lat="48.63854" lon="1.83721">
        <ele>164</ele>
        <time>2011-04-19T12:04:51.000Z</time>
      </trkpt>
      <trkpt lat="48.63854" lon="1.83708">
        <ele>163</ele>
        <time>2011-04-19T12:04:57.000Z</time>
      </trkpt>
      <trkpt lat="48.63854" lon="1.83706">
        <ele>163</ele>
        <time>2011-04-19T12:04:58.000Z</time>
      </trkpt>
      <trkpt lat="48.63855" lon="1.83695">
        <ele>162.60000610352</ele>
        <time>2011-04-19T12:05:03.000Z</time>
      </trkpt>
      <trkpt lat="48.63859" lon="1.8368">
        <ele>162.60000610352</ele>
        <time>2011-04-19T12:05:10.000Z</time>
      </trkpt>
      <trkpt lat="48.63865" lon="1.83669">
        <ele>163</ele>
        <time>2011-04-19T12:05:17.000Z</time>
      </trkpt>
      <trkpt lat="48.63868" lon="1.83661">
        <ele>163.60000610352</ele>
        <time>2011-04-19T12:05:22.000Z</time>
      </trkpt>
      <trkpt lat="48.63874" lon="1.83649">
        <ele>163</ele>
        <time>2011-04-19T12:05:29.000Z</time>
      </trkpt>
      <trkpt lat="48.6388" lon="1.83639">
        <ele>162.19999694824</ele>
        <time>2011-04-19T12:05:37.000Z</time>
      </trkpt>
      <trkpt lat="48.63886" lon="1.83631">
        <ele>164</ele>
        <time>2011-04-19T12:05:43.000Z</time>
      </trkpt>
      <trkpt lat="48.63887" lon="1.83623">
        <ele>163</ele>
        <time>2011-04-19T12:05:49.000Z</time>
      </trkpt>
      <trkpt lat="48.63892" lon="1.83614">
        <ele>163.60000610352</ele>
        <time>2011-04-19T12:05:55.000Z</time>
      </trkpt>
      <trkpt lat="48.63897" lon="1.83605">
        <ele>166.39999389648</ele>
        <time>2011-04-19T12:06:00.000Z</time>
      </trkpt>
      <trkpt lat="48.63898" lon="1.83603">
        <ele>167</ele>
        <time>2011-04-19T12:06:01.000Z</time>
      </trkpt>
      <trkpt lat="48.63908" lon="1.83587">
        <ele>166</ele>
        <time>2011-04-19T12:06:12.000Z</time>
      </trkpt>
      <trkpt lat="48.63914" lon="1.83581">
        <ele>166</ele>
        <time>2011-04-19T12:06:17.000Z</time>
      </trkpt>
      <trkpt lat="48.63922" lon="1.83577">
        <ele>162.60000610352</ele>
        <time>2011-04-19T12:06:24.000Z</time>
      </trkpt>
      <trkpt lat="48.63929" lon="1.83571">
        <ele>161.60000610352</ele>
        <time>2011-04-19T12:06:30.000Z</time>
      </trkpt>
      <trkpt lat="48.63933" lon="1.83566">
        <ele>161.19999694824</ele>
        <time>2011-04-19T12:06:34.000Z</time>
      </trkpt>
      <trkpt lat="48.63934" lon="1.83564">
        <ele>160.60000610352</ele>
        <time>2011-04-19T12:06:35.000Z</time>
      </trkpt>
      <trkpt lat="48.6394" lon="1.83557">
        <ele>160.19999694824</ele>
        <time>2011-04-19T12:06:41.000Z</time>
      </trkpt>
      <trkpt lat="48.63943" lon="1.83551">
        <ele>161.19999694824</ele>
        <time>2011-04-19T12:06:45.000Z</time>
      </trkpt>
      <trkpt lat="48.63949" lon="1.83545">
        <ele>161.60000610352</ele>
        <time>2011-04-19T12:06:51.000Z</time>
      </trkpt>
      <trkpt lat="48.63954" lon="1.83539">
        <ele>163</ele>
        <time>2011-04-19T12:06:55.000Z</time>
      </trkpt>
      <trkpt lat="48.63959" lon="1.83529">
        <ele>166</ele>
        <time>2011-04-19T12:07:02.000Z</time>
      </trkpt>
      <trkpt lat="48.63964" lon="1.83521">
        <ele>169.39999389648</ele>
        <time>2011-04-19T12:07:07.000Z</time>
      </trkpt>
      <trkpt lat="48.63967" lon="1.83513">
        <ele>170.80000305176</ele>
        <time>2011-04-19T12:07:11.000Z</time>
      </trkpt>
      <trkpt lat="48.63971" lon="1.835">
        <ele>177.60000610352</ele>
        <time>2011-04-19T12:07:17.000Z</time>
      </trkpt>
      <trkpt lat="48.63973" lon="1.83493">
        <ele>178.39999389648</ele>
        <time>2011-04-19T12:07:22.000Z</time>
      </trkpt>
      <trkpt lat="48.63978" lon="1.83487">
        <ele>172.60000610352</ele>
        <time>2011-04-19T12:07:28.000Z</time>
      </trkpt>
      <trkpt lat="48.63987" lon="1.8348">
        <ele>165.39999389648</ele>
        <time>2011-04-19T12:07:36.000Z</time>
      </trkpt>
      <trkpt lat="48.63995" lon="1.8347">
        <ele>164</ele>
        <time>2011-04-19T12:07:44.000Z</time>
      </trkpt>
      <trkpt lat="48.64005" lon="1.83453">
        <ele>163.60000610352</ele>
        <time>2011-04-19T12:07:55.000Z</time>
      </trkpt>
      <trkpt lat="48.64011" lon="1.83444">
        <ele>163.60000610352</ele>
        <time>2011-04-19T12:08:02.000Z</time>
      </trkpt>
      <trkpt lat="48.64018" lon="1.83432">
        <ele>167.80000305176</ele>
        <time>2011-04-19T12:08:09.000Z</time>
      </trkpt>
      <trkpt lat="48.64025" lon="1.83419">
        <ele>174.19999694824</ele>
        <time>2011-04-19T12:08:17.000Z</time>
      </trkpt>
      <trkpt lat="48.64028" lon="1.83412">
        <ele>175</ele>
        <time>2011-04-19T12:08:21.000Z</time>
      </trkpt>
      <trkpt lat="48.64034" lon="1.83405">
        <ele>172.60000610352</ele>
        <time>2011-04-19T12:08:27.000Z</time>
      </trkpt>
      <trkpt lat="48.6404" lon="1.83397">
        <ele>171.80000305176</ele>
        <time>2011-04-19T12:08:33.000Z</time>
      </trkpt>
      <trkpt lat="48.64046" lon="1.83389">
        <ele>168.39999389648</ele>
        <time>2011-04-19T12:08:40.000Z</time>
      </trkpt>
      <trkpt lat="48.64052" lon="1.8338">
        <ele>167</ele>
        <time>2011-04-19T12:08:46.000Z</time>
      </trkpt>
      <trkpt lat="48.64061" lon="1.83367">
        <ele>166</ele>
        <time>2011-04-19T12:08:55.000Z</time>
      </trkpt>
      <trkpt lat="48.64064" lon="1.83364">
        <ele>165.39999389648</ele>
        <time>2011-04-19T12:08:58.000Z</time>
      </trkpt>
      <trkpt lat="48.64071" lon="1.83352">
        <ele>164.60000610352</ele>
        <time>2011-04-19T12:09:05.000Z</time>
      </trkpt>
      <trkpt lat="48.64078" lon="1.83341">
        <ele>163</ele>
        <time>2011-04-19T12:09:13.000Z</time>
      </trkpt>
      <trkpt lat="48.64082" lon="1.83332">
        <ele>166</ele>
        <time>2011-04-19T12:09:18.000Z</time>
      </trkpt>
      <trkpt lat="48.64092" lon="1.83317">
        <ele>164.60000610352</ele>
        <time>2011-04-19T12:09:29.000Z</time>
      </trkpt>
      <trkpt lat="48.64099" lon="1.83307">
        <ele>163.60000610352</ele>
        <time>2011-04-19T12:09:36.000Z</time>
      </trkpt>
      <trkpt lat="48.64102" lon="1.83299">
        <ele>166.39999389648</ele>
        <time>2011-04-19T12:09:40.000Z</time>
      </trkpt>
      <trkpt lat="48.64109" lon="1.83288">
        <ele>166</ele>
        <time>2011-04-19T12:09:47.000Z</time>
      </trkpt>
      <trkpt lat="48.64113" lon="1.83281">
        <ele>166</ele>
        <time>2011-04-19T12:09:52.000Z</time>
      </trkpt>
      <trkpt lat="48.64114" lon="1.8328">
        <ele>166</ele>
        <time>2011-04-19T12:09:53.000Z</time>
      </trkpt>
      <trkpt lat="48.64127" lon="1.83262">
        <ele>163</ele>
        <time>2011-04-19T12:10:06.000Z</time>
      </trkpt>
      <trkpt lat="48.64134" lon="1.83249">
        <ele>161.60000610352</ele>
        <time>2011-04-19T12:10:15.000Z</time>
      </trkpt>
      <trkpt lat="48.64141" lon="1.83235">
        <ele>162.19999694824</ele>
        <time>2011-04-19T12:10:24.000Z</time>
      </trkpt>
      <trkpt lat="48.64148" lon="1.83223">
        <ele>162.19999694824</ele>
        <time>2011-04-19T12:10:31.000Z</time>
      </trkpt>
      <trkpt lat="48.64153" lon="1.83216">
        <ele>162.19999694824</ele>
        <time>2011-04-19T12:10:36.000Z</time>
      </trkpt>
      <trkpt lat="48.64152" lon="1.83199">
        <ele>178.39999389648</ele>
        <time>2011-04-19T12:10:41.000Z</time>
      </trkpt>
      <trkpt lat="48.6416" lon="1.83191">
        <ele>174.60000610352</ele>
        <time>2011-04-19T12:10:48.000Z</time>
      </trkpt>
      <trkpt lat="48.64162" lon="1.83189">
        <ele>172.60000610352</ele>
        <time>2011-04-19T12:10:50.000Z</time>
      </trkpt>
      <trkpt lat="48.6417" lon="1.83178">
        <ele>172.60000610352</ele>
        <time>2011-04-19T12:10:58.000Z</time>
      </trkpt>
      <trkpt lat="48.64176" lon="1.83172">
        <ele>164.60000610352</ele>
        <time>2011-04-19T12:11:04.000Z</time>
      </trkpt>
      <trkpt lat="48.64182" lon="1.83166">
        <ele>161.19999694824</ele>
        <time>2011-04-19T12:11:10.000Z</time>
      </trkpt>
      <trkpt lat="48.64183" lon="1.83163">
        <ele>159.80000305176</ele>
        <time>2011-04-19T12:11:12.000Z</time>
      </trkpt>
      <trkpt lat="48.64189" lon="1.83152">
        <ele>156.39999389648</ele>
        <time>2011-04-19T12:11:19.000Z</time>
      </trkpt>
      <trkpt lat="48.64192" lon="1.83148">
        <ele>155.39999389648</ele>
        <time>2011-04-19T12:11:22.000Z</time>
      </trkpt>
      <trkpt lat="48.64197" lon="1.83141">
        <ele>153</ele>
        <time>2011-04-19T12:11:27.000Z</time>
      </trkpt>
      <trkpt lat="48.64199" lon="1.83138">
        <ele>151.60000610352</ele>
        <time>2011-04-19T12:11:29.000Z</time>
      </trkpt>
      <trkpt lat="48.64201" lon="1.83135">
        <ele>151.60000610352</ele>
        <time>2011-04-19T12:11:32.000Z</time>
      </trkpt>
      <trkpt lat="48.64203" lon="1.83132">
        <ele>151.60000610352</ele>
        <time>2011-04-19T12:11:33.000Z</time>
      </trkpt>
      <trkpt lat="48.64207" lon="1.83127">
        <ele>151.60000610352</ele>
        <time>2011-04-19T12:11:36.000Z</time>
      </trkpt>
      <trkpt lat="48.6421" lon="1.8312">
        <ele>154.39999389648</ele>
        <time>2011-04-19T12:11:40.000Z</time>
      </trkpt>
      <trkpt lat="48.64216" lon="1.83112">
        <ele>155.39999389648</ele>
        <time>2011-04-19T12:11:46.000Z</time>
      </trkpt>
      <trkpt lat="48.6422" lon="1.83107">
        <ele>155.80000305176</ele>
        <time>2011-04-19T12:11:50.000Z</time>
      </trkpt>
      <trkpt lat="48.64228" lon="1.83095">
        <ele>158.80000305176</ele>
        <time>2011-04-19T12:11:57.000Z</time>
      </trkpt>
      <trkpt lat="48.64234" lon="1.83087">
        <ele>158.19999694824</ele>
        <time>2011-04-19T12:12:03.000Z</time>
      </trkpt>
      <trkpt lat="48.6424" lon="1.83079">
        <ele>158.19999694824</ele>
        <time>2011-04-19T12:12:09.000Z</time>
      </trkpt>
      <trkpt lat="48.64245" lon="1.83075">
        <ele>156.80000305176</ele>
        <time>2011-04-19T12:12:13.000Z</time>
      </trkpt>
      <trkpt lat="48.64248" lon="1.83072">
        <ele>155.80000305176</ele>
        <time>2011-04-19T12:12:16.000Z</time>
      </trkpt>
      <trkpt lat="48.64253" lon="1.83071">
        <ele>156.80000305176</ele>
        <time>2011-04-19T12:12:20.000Z</time>
      </trkpt>
      <trkpt lat="48.64259" lon="1.83074">
        <ele>157.80000305176</ele>
        <time>2011-04-19T12:12:25.000Z</time>
      </trkpt>
      <trkpt lat="48.6426" lon="1.83075">
        <ele>157.80000305176</ele>
        <time>2011-04-19T12:12:28.000Z</time>
      </trkpt>
      <trkpt lat="48.64266" lon="1.83072">
        <ele>155.80000305176</ele>
        <time>2011-04-19T12:13:08.000Z</time>
      </trkpt>
      <trkpt lat="48.64268" lon="1.83071">
        <ele>155</ele>
        <time>2011-04-19T12:13:09.000Z</time>
      </trkpt>
      <trkpt lat="48.64271" lon="1.83066">
        <ele>155</ele>
        <time>2011-04-19T12:13:13.000Z</time>
      </trkpt>
      <trkpt lat="48.64274" lon="1.83058">
        <ele>153</ele>
        <time>2011-04-19T12:13:17.000Z</time>
      </trkpt>
      <trkpt lat="48.64273" lon="1.8305">
        <ele>152</ele>
        <time>2011-04-19T12:13:22.000Z</time>
      </trkpt>
      <trkpt lat="48.64271" lon="1.83039">
        <ele>150.60000610352</ele>
        <time>2011-04-19T12:13:28.000Z</time>
      </trkpt>
      <trkpt lat="48.64269" lon="1.83031">
        <ele>148.60000610352</ele>
        <time>2011-04-19T12:13:35.000Z</time>
      </trkpt>
      <trkpt lat="48.64269" lon="1.83031">
        <ele>148.19999694824</ele>
        <time>2011-04-19T12:13:36.000Z</time>
      </trkpt>
      <trkpt lat="48.64275" lon="1.83021">
        <ele>138</ele>
        <time>2011-04-19T12:13:42.000Z</time>
      </trkpt>
      <trkpt lat="48.64279" lon="1.83004">
        <ele>135.60000610352</ele>
        <time>2011-04-19T12:13:47.000Z</time>
      </trkpt>
      <trkpt lat="48.64281" lon="1.82998">
        <ele>138.60000610352</ele>
        <time>2011-04-19T12:13:51.000Z</time>
      </trkpt>
      <trkpt lat="48.6428" lon="1.82996">
        <ele>142</ele>
        <time>2011-04-19T12:13:54.000Z</time>
      </trkpt>
      <trkpt lat="48.6428" lon="1.82993">
        <ele>146.19999694824</ele>
        <time>2011-04-19T12:13:55.000Z</time>
      </trkpt>
      <trkpt lat="48.64278" lon="1.8299">
        <ele>147.19999694824</ele>
        <time>2011-04-19T12:13:56.000Z</time>
      </trkpt>
      <trkpt lat="48.64275" lon="1.82988">
        <ele>147.19999694824</ele>
        <time>2011-04-19T12:14:00.000Z</time>
      </trkpt>
      <trkpt lat="48.64268" lon="1.82972">
        <ele>147.60000610352</ele>
        <time>2011-04-19T12:14:09.000Z</time>
      </trkpt>
      <trkpt lat="48.64265" lon="1.82954">
        <ele>148.60000610352</ele>
        <time>2011-04-19T12:14:18.000Z</time>
      </trkpt>
      <trkpt lat="48.64264" lon="1.82939">
        <ele>146.80000305176</ele>
        <time>2011-04-19T12:14:26.000Z</time>
      </trkpt>
      <trkpt lat="48.64263" lon="1.82925">
        <ele>147.19999694824</ele>
        <time>2011-04-19T12:14:33.000Z</time>
      </trkpt>
      <trkpt lat="48.64265" lon="1.82906">
        <ele>148.60000610352</ele>
        <time>2011-04-19T12:14:42.000Z</time>
      </trkpt>
      <trkpt lat="48.64265" lon="1.82897">
        <ele>153</ele>
        <time>2011-04-19T12:14:48.000Z</time>
      </trkpt>
      <trkpt lat="48.64265" lon="1.82897">
        <ele>153.39999389648</ele>
        <time>2011-04-19T12:14:49.000Z</time>
      </trkpt>
      <trkpt lat="48.64265" lon="1.82889">
        <ele>150.60000610352</ele>
        <time>2011-04-19T12:15:11.000Z</time>
      </trkpt>
      <trkpt lat="48.64265" lon="1.82878">
        <ele>149.60000610352</ele>
        <time>2011-04-19T12:15:16.000Z</time>
      </trkpt>
      <trkpt lat="48.64263" lon="1.82865">
        <ele>150.60000610352</ele>
        <time>2011-04-19T12:15:22.000Z</time>
      </trkpt>
      <trkpt lat="48.64265" lon="1.82854">
        <ele>149.60000610352</ele>
        <time>2011-04-19T12:15:29.000Z</time>
      </trkpt>
      <trkpt lat="48.64265" lon="1.82847">
        <ele>150.19999694824</ele>
        <time>2011-04-19T12:15:32.000Z</time>
      </trkpt>
      <trkpt lat="48.64264" lon="1.82834">
        <ele>148.60000610352</ele>
        <time>2011-04-19T12:15:38.000Z</time>
      </trkpt>
      <trkpt lat="48.64265" lon="1.82822">
        <ele>149.19999694824</ele>
        <time>2011-04-19T12:15:44.000Z</time>
      </trkpt>
      <trkpt lat="48.64267" lon="1.82798">
        <ele>155</ele>
        <time>2011-04-19T12:15:54.000Z</time>
      </trkpt>
      <trkpt lat="48.64271" lon="1.82786">
        <ele>156.39999389648</ele>
        <time>2011-04-19T12:16:01.000Z</time>
      </trkpt>
      <trkpt lat="48.64274" lon="1.82777">
        <ele>156.80000305176</ele>
        <time>2011-04-19T12:16:07.000Z</time>
      </trkpt>
      <trkpt lat="48.64278" lon="1.82769">
        <ele>155</ele>
        <time>2011-04-19T12:16:13.000Z</time>
      </trkpt>
      <trkpt lat="48.6428" lon="1.82763">
        <ele>156.80000305176</ele>
        <time>2011-04-19T12:16:17.000Z</time>
      </trkpt>
      <trkpt lat="48.6428" lon="1.82755">
        <ele>163.60000610352</ele>
        <time>2011-04-19T12:16:20.000Z</time>
      </trkpt>
      <trkpt lat="48.64282" lon="1.82739">
        <ele>165</ele>
        <time>2011-04-19T12:16:28.000Z</time>
      </trkpt>
      <trkpt lat="48.64284" lon="1.82728">
        <ele>163</ele>
        <time>2011-04-19T12:16:33.000Z</time>
      </trkpt>
      <trkpt lat="48.64289" lon="1.82713">
        <ele>157.39999389648</ele>
        <time>2011-04-19T12:16:41.000Z</time>
      </trkpt>
      <trkpt lat="48.64292" lon="1.82701">
        <ele>152</ele>
        <time>2011-04-19T12:16:47.000Z</time>
      </trkpt>
      <trkpt lat="48.64294" lon="1.82684">
        <ele>148.60000610352</ele>
        <time>2011-04-19T12:16:55.000Z</time>
      </trkpt>
      <trkpt lat="48.64295" lon="1.8268">
        <ele>147.60000610352</ele>
        <time>2011-04-19T12:16:57.000Z</time>
      </trkpt>
      <trkpt lat="48.64299" lon="1.8267">
        <ele>145.19999694824</ele>
        <time>2011-04-19T12:17:03.000Z</time>
      </trkpt>
      <trkpt lat="48.64301" lon="1.82656">
        <ele>145.80000305176</ele>
        <time>2011-04-19T12:17:09.000Z</time>
      </trkpt>
      <trkpt lat="48.64302" lon="1.82652">
        <ele>146.19999694824</ele>
        <time>2011-04-19T12:17:11.000Z</time>
      </trkpt>
      <trkpt lat="48.64301" lon="1.82649">
        <ele>146.19999694824</ele>
        <time>2011-04-19T12:17:16.000Z</time>
      </trkpt>
      <trkpt lat="48.64304" lon="1.82643">
        <ele>147.19999694824</ele>
        <time>2011-04-19T12:17:23.000Z</time>
      </trkpt>
      <trkpt lat="48.64305" lon="1.82635">
        <ele>148.19999694824</ele>
        <time>2011-04-19T12:17:26.000Z</time>
      </trkpt>
      <trkpt lat="48.64305" lon="1.82621">
        <ele>150.60000610352</ele>
        <time>2011-04-19T12:17:32.000Z</time>
      </trkpt>
      <trkpt lat="48.64305" lon="1.82611">
        <ele>151</ele>
        <time>2011-04-19T12:17:36.000Z</time>
      </trkpt>
      <trkpt lat="48.64305" lon="1.82602">
        <ele>151</ele>
        <time>2011-04-19T12:17:40.000Z</time>
      </trkpt>
      <trkpt lat="48.64302" lon="1.82592">
        <ele>150.19999694824</ele>
        <time>2011-04-19T12:17:46.000Z</time>
      </trkpt>
      <trkpt lat="48.64302" lon="1.82588">
        <ele>149.60000610352</ele>
        <time>2011-04-19T12:17:48.000Z</time>
      </trkpt>
      <trkpt lat="48.64301" lon="1.82578">
        <ele>147.60000610352</ele>
        <time>2011-04-19T12:17:54.000Z</time>
      </trkpt>
      <trkpt lat="48.64297" lon="1.82567">
        <ele>148.60000610352</ele>
        <time>2011-04-19T12:18:00.000Z</time>
      </trkpt>
      <trkpt lat="48.64292" lon="1.82555">
        <ele>147.60000610352</ele>
        <time>2011-04-19T12:18:08.000Z</time>
      </trkpt>
      <trkpt lat="48.6429" lon="1.82554">
        <ele>147.19999694824</ele>
        <time>2011-04-19T12:18:15.000Z</time>
      </trkpt>
      <trkpt lat="48.6429" lon="1.82554">
        <ele>147.60000610352</ele>
        <time>2011-04-19T12:18:16.000Z</time>
      </trkpt>
      <trkpt lat="48.64279" lon="1.82527">
        <ele>148.60000610352</ele>
        <time>2011-04-19T12:19:10.000Z</time>
      </trkpt>
      <trkpt lat="48.64278" lon="1.82521">
        <ele>147.19999694824</ele>
        <time>2011-04-19T12:19:13.000Z</time>
      </trkpt>
      <trkpt lat="48.64277" lon="1.82519">
        <ele>145.80000305176</ele>
        <time>2011-04-19T12:19:15.000Z</time>
      </trkpt>
      <trkpt lat="48.64275" lon="1.82504">
        <ele>147.60000610352</ele>
        <time>2011-04-19T12:19:22.000Z</time>
      </trkpt>
      <trkpt lat="48.64272" lon="1.82499">
        <ele>148.19999694824</ele>
        <time>2011-04-19T12:19:26.000Z</time>
      </trkpt>
      <trkpt lat="48.64271" lon="1.82495">
        <ele>149.60000610352</ele>
        <time>2011-04-19T12:19:28.000Z</time>
      </trkpt>
      <trkpt lat="48.64269" lon="1.8248">
        <ele>148.60000610352</ele>
        <time>2011-04-19T12:19:35.000Z</time>
      </trkpt>
      <trkpt lat="48.6427" lon="1.82474">
        <ele>148.19999694824</ele>
        <time>2011-04-19T12:19:38.000Z</time>
      </trkpt>
      <trkpt lat="48.64269" lon="1.82472">
        <ele>147.60000610352</ele>
        <time>2011-04-19T12:19:41.000Z</time>
      </trkpt>
      <trkpt lat="48.64268" lon="1.82463">
        <ele>144.39999389648</ele>
        <time>2011-04-19T12:19:51.000Z</time>
      </trkpt>
      <trkpt lat="48.64267" lon="1.82457">
        <ele>142.80000305176</ele>
        <time>2011-04-19T12:19:53.000Z</time>
      </trkpt>
      <trkpt lat="48.64267" lon="1.82454">
        <ele>142.39999389648</ele>
        <time>2011-04-19T12:19:59.000Z</time>
      </trkpt>
      <trkpt lat="48.64257" lon="1.82477">
        <ele>150.19999694824</ele>
        <time>2011-04-19T12:21:04.000Z</time>
      </trkpt>
      <trkpt lat="48.64253" lon="1.82484">
        <ele>148.19999694824</ele>
        <time>2011-04-19T12:21:09.000Z</time>
      </trkpt>
      <trkpt lat="48.64251" lon="1.82488">
        <ele>148.19999694824</ele>
        <time>2011-04-19T12:21:13.000Z</time>
      </trkpt>
      <trkpt lat="48.64244" lon="1.82497">
        <ele>147.60000610352</ele>
        <time>2011-04-19T12:21:19.000Z</time>
      </trkpt>
      <trkpt lat="48.64237" lon="1.82502">
        <ele>147.19999694824</ele>
        <time>2011-04-19T12:21:24.000Z</time>
      </trkpt>
      <trkpt lat="48.64229" lon="1.82508">
        <ele>147.60000610352</ele>
        <time>2011-04-19T12:21:31.000Z</time>
      </trkpt>
      <trkpt lat="48.6422" lon="1.82511">
        <ele>147.19999694824</ele>
        <time>2011-04-19T12:21:37.000Z</time>
      </trkpt>
      <trkpt lat="48.64208" lon="1.82513">
        <ele>147.19999694824</ele>
        <time>2011-04-19T12:21:45.000Z</time>
      </trkpt>
      <trkpt lat="48.64199" lon="1.82512">
        <ele>146.19999694824</ele>
        <time>2011-04-19T12:21:51.000Z</time>
      </trkpt>
      <trkpt lat="48.6419" lon="1.8251">
        <ele>144.80000305176</ele>
        <time>2011-04-19T12:21:58.000Z</time>
      </trkpt>
      <trkpt lat="48.64185" lon="1.82508">
        <ele>145.19999694824</ele>
        <time>2011-04-19T12:22:03.000Z</time>
      </trkpt>
      <trkpt lat="48.64184" lon="1.82507">
        <ele>145.80000305176</ele>
        <time>2011-04-19T12:22:07.000Z</time>
      </trkpt>
      <trkpt lat="48.64179" lon="1.82503">
        <ele>146.19999694824</ele>
        <time>2011-04-19T12:22:14.000Z</time>
      </trkpt>
      <trkpt lat="48.64172" lon="1.82495">
        <ele>146.80000305176</ele>
        <time>2011-04-19T12:22:20.000Z</time>
      </trkpt>
      <trkpt lat="48.64164" lon="1.82486">
        <ele>144.39999389648</ele>
        <time>2011-04-19T12:22:27.000Z</time>
      </trkpt>
      <trkpt lat="48.64157" lon="1.82476">
        <ele>146.80000305176</ele>
        <time>2011-04-19T12:22:33.000Z</time>
      </trkpt>
      <trkpt lat="48.64151" lon="1.82469">
        <ele>145.19999694824</ele>
        <time>2011-04-19T12:22:38.000Z</time>
      </trkpt>
      <trkpt lat="48.64146" lon="1.82456">
        <ele>142.80000305176</ele>
        <time>2011-04-19T12:22:46.000Z</time>
      </trkpt>
      <trkpt lat="48.64141" lon="1.82434">
        <ele>142.39999389648</ele>
        <time>2011-04-19T12:22:56.000Z</time>
      </trkpt>
      <trkpt lat="48.6414" lon="1.82416">
        <ele>142.39999389648</ele>
        <time>2011-04-19T12:23:04.000Z</time>
      </trkpt>
      <trkpt lat="48.64141" lon="1.82394">
        <ele>142.80000305176</ele>
        <time>2011-04-19T12:23:14.000Z</time>
      </trkpt>
      <trkpt lat="48.64144" lon="1.82379">
        <ele>143.80000305176</ele>
        <time>2011-04-19T12:23:21.000Z</time>
      </trkpt>
      <trkpt lat="48.64148" lon="1.82372">
        <ele>143.80000305176</ele>
        <time>2011-04-19T12:23:25.000Z</time>
      </trkpt>
      <trkpt lat="48.64153" lon="1.82354">
        <ele>142.39999389648</ele>
        <time>2011-04-19T12:23:34.000Z</time>
      </trkpt>
      <trkpt lat="48.64161" lon="1.82339">
        <ele>143.80000305176</ele>
        <time>2011-04-19T12:23:42.000Z</time>
      </trkpt>
      <trkpt lat="48.64168" lon="1.82324">
        <ele>143.39999389648</ele>
        <time>2011-04-19T12:23:50.000Z</time>
      </trkpt>
      <trkpt lat="48.64175" lon="1.82307">
        <ele>145.19999694824</ele>
        <time>2011-04-19T12:23:59.000Z</time>
      </trkpt>
      <trkpt lat="48.64181" lon="1.82295">
        <ele>143.80000305176</ele>
        <time>2011-04-19T12:24:06.000Z</time>
      </trkpt>
      <trkpt lat="48.64186" lon="1.82284">
        <ele>142.80000305176</ele>
        <time>2011-04-19T12:24:12.000Z</time>
      </trkpt>
      <trkpt lat="48.64192" lon="1.82273">
        <ele>145.19999694824</ele>
        <time>2011-04-19T12:24:19.000Z</time>
      </trkpt>
      <trkpt lat="48.64199" lon="1.82258">
        <ele>144.80000305176</ele>
        <time>2011-04-19T12:24:27.000Z</time>
      </trkpt>
      <trkpt lat="48.642" lon="1.82257">
        <ele>145.19999694824</ele>
        <time>2011-04-19T12:24:28.000Z</time>
      </trkpt>
      <trkpt lat="48.64204" lon="1.82247">
        <ele>142.80000305176</ele>
        <time>2011-04-19T12:24:33.000Z</time>
      </trkpt>
      <trkpt lat="48.64208" lon="1.82239">
        <ele>140</ele>
        <time>2011-04-19T12:24:38.000Z</time>
      </trkpt>
      <trkpt lat="48.64209" lon="1.82235">
        <ele>139</ele>
        <time>2011-04-19T12:24:41.000Z</time>
      </trkpt>
      <trkpt lat="48.6421" lon="1.82233">
        <ele>138.60000610352</ele>
        <time>2011-04-19T12:24:45.000Z</time>
      </trkpt>
      <trkpt lat="48.64208" lon="1.82224">
        <ele>139.60000610352</ele>
        <time>2011-04-19T12:24:52.000Z</time>
      </trkpt>
      <trkpt lat="48.64211" lon="1.82209">
        <ele>140.39999389648</ele>
        <time>2011-04-19T12:24:58.000Z</time>
      </trkpt>
      <trkpt lat="48.64215" lon="1.82192">
        <ele>141</ele>
        <time>2011-04-19T12:25:07.000Z</time>
      </trkpt>
      <trkpt lat="48.64217" lon="1.8218">
        <ele>141.39999389648</ele>
        <time>2011-04-19T12:25:13.000Z</time>
      </trkpt>
      <trkpt lat="48.64218" lon="1.82167">
        <ele>142.39999389648</ele>
        <time>2011-04-19T12:25:20.000Z</time>
      </trkpt>
      <trkpt lat="48.64219" lon="1.82149">
        <ele>143.80000305176</ele>
        <time>2011-04-19T12:25:29.000Z</time>
      </trkpt>
      <trkpt lat="48.64221" lon="1.82141">
        <ele>145.80000305176</ele>
        <time>2011-04-19T12:25:33.000Z</time>
      </trkpt>
      <trkpt lat="48.64224" lon="1.8213">
        <ele>148.60000610352</ele>
        <time>2011-04-19T12:25:39.000Z</time>
      </trkpt>
      <trkpt lat="48.64225" lon="1.82121">
        <ele>144.39999389648</ele>
        <time>2011-04-19T12:25:45.000Z</time>
      </trkpt>
      <trkpt lat="48.64221" lon="1.82112">
        <ele>145.19999694824</ele>
        <time>2011-04-19T12:25:52.000Z</time>
      </trkpt>
      <trkpt lat="48.64219" lon="1.82102">
        <ele>144.39999389648</ele>
        <time>2011-04-19T12:26:01.000Z</time>
      </trkpt>
      <trkpt lat="48.64219" lon="1.821">
        <ele>143.80000305176</ele>
        <time>2011-04-19T12:26:04.000Z</time>
      </trkpt>
      <trkpt lat="48.64218" lon="1.82098">
        <ele>144.39999389648</ele>
        <time>2011-04-19T12:26:07.000Z</time>
      </trkpt>
      <trkpt lat="48.64217" lon="1.82097">
        <ele>144.39999389648</ele>
        <time>2011-04-19T12:26:08.000Z</time>
      </trkpt>
      <trkpt lat="48.64209" lon="1.82081">
        <ele>144.39999389648</ele>
        <time>2011-04-19T12:26:17.000Z</time>
      </trkpt>
      <trkpt lat="48.64202" lon="1.82074">
        <ele>145.19999694824</ele>
        <time>2011-04-19T12:26:24.000Z</time>
      </trkpt>
      <trkpt lat="48.64199" lon="1.8207">
        <ele>147.19999694824</ele>
        <time>2011-04-19T12:26:31.000Z</time>
      </trkpt>
      <trkpt lat="48.64195" lon="1.82067">
        <ele>146.80000305176</ele>
        <time>2011-04-19T12:26:35.000Z</time>
      </trkpt>
      <trkpt lat="48.64182" lon="1.82052">
        <ele>144.39999389648</ele>
        <time>2011-04-19T12:26:45.000Z</time>
      </trkpt>
      <trkpt lat="48.64181" lon="1.82051">
        <ele>144.39999389648</ele>
        <time>2011-04-19T12:26:46.000Z</time>
      </trkpt>
      <trkpt lat="48.64179" lon="1.82052">
        <ele>144.80000305176</ele>
        <time>2011-04-19T12:26:51.000Z</time>
      </trkpt>
      <trkpt lat="48.64173" lon="1.82049">
        <ele>144.39999389648</ele>
        <time>2011-04-19T12:27:07.000Z</time>
      </trkpt>
      <trkpt lat="48.64172" lon="1.82047">
        <ele>143.39999389648</ele>
        <time>2011-04-19T12:27:10.000Z</time>
      </trkpt>
      <trkpt lat="48.64166" lon="1.82042">
        <ele>142.80000305176</ele>
        <time>2011-04-19T12:27:16.000Z</time>
      </trkpt>
      <trkpt lat="48.64164" lon="1.82039">
        <ele>142.80000305176</ele>
        <time>2011-04-19T12:27:17.000Z</time>
      </trkpt>
      <trkpt lat="48.64163" lon="1.82038">
        <ele>142.80000305176</ele>
        <time>2011-04-19T12:27:21.000Z</time>
      </trkpt>
      <trkpt lat="48.6416" lon="1.82033">
        <ele>144.39999389648</ele>
        <time>2011-04-19T12:27:27.000Z</time>
      </trkpt>
      <trkpt lat="48.64154" lon="1.82022">
        <ele>142.39999389648</ele>
        <time>2011-04-19T12:27:33.000Z</time>
      </trkpt>
      <trkpt lat="48.64147" lon="1.82012">
        <ele>141</ele>
        <time>2011-04-19T12:27:40.000Z</time>
      </trkpt>
      <trkpt lat="48.64142" lon="1.82006">
        <ele>142.80000305176</ele>
        <time>2011-04-19T12:27:44.000Z</time>
      </trkpt>
      <trkpt lat="48.64136" lon="1.81998">
        <ele>142.80000305176</ele>
        <time>2011-04-19T12:27:51.000Z</time>
      </trkpt>
      <trkpt lat="48.64131" lon="1.81989">
        <ele>142</ele>
        <time>2011-04-19T12:27:57.000Z</time>
      </trkpt>
      <trkpt lat="48.64126" lon="1.81981">
        <ele>141.39999389648</ele>
        <time>2011-04-19T12:28:03.000Z</time>
      </trkpt>
      <trkpt lat="48.64119" lon="1.81969">
        <ele>142.80000305176</ele>
        <time>2011-04-19T12:28:11.000Z</time>
      </trkpt>
      <trkpt lat="48.6411" lon="1.81961">
        <ele>143.80000305176</ele>
        <time>2011-04-19T12:28:18.000Z</time>
      </trkpt>
      <trkpt lat="48.641" lon="1.81948">
        <ele>143.39999389648</ele>
        <time>2011-04-19T12:28:26.000Z</time>
      </trkpt>
      <trkpt lat="48.64089" lon="1.81933">
        <ele>142</ele>
        <time>2011-04-19T12:28:36.000Z</time>
      </trkpt>
      <trkpt lat="48.64081" lon="1.81923">
        <ele>140</ele>
        <time>2011-04-19T12:28:43.000Z</time>
      </trkpt>
      <trkpt lat="48.64074" lon="1.81916">
        <ele>137.19999694824</ele>
        <time>2011-04-19T12:28:50.000Z</time>
      </trkpt>
      <trkpt lat="48.64068" lon="1.81908">
        <ele>141</ele>
        <time>2011-04-19T12:28:56.000Z</time>
      </trkpt>
      <trkpt lat="48.6406" lon="1.81897">
        <ele>142</ele>
        <time>2011-04-19T12:29:04.000Z</time>
      </trkpt>
      <trkpt lat="48.6405" lon="1.81883">
        <ele>142.39999389648</ele>
        <time>2011-04-19T12:29:12.000Z</time>
      </trkpt>
      <trkpt lat="48.64039" lon="1.81868">
        <ele>142</ele>
        <time>2011-04-19T12:29:22.000Z</time>
      </trkpt>
      <trkpt lat="48.64031" lon="1.81857">
        <ele>140.39999389648</ele>
        <time>2011-04-19T12:29:30.000Z</time>
      </trkpt>
      <trkpt lat="48.64024" lon="1.81847">
        <ele>140</ele>
        <time>2011-04-19T12:29:37.000Z</time>
      </trkpt>
      <trkpt lat="48.64014" lon="1.81834">
        <ele>140</ele>
        <time>2011-04-19T12:29:46.000Z</time>
      </trkpt>
      <trkpt lat="48.64004" lon="1.81821">
        <ele>140.39999389648</ele>
        <time>2011-04-19T12:29:54.000Z</time>
      </trkpt>
      <trkpt lat="48.63998" lon="1.81812">
        <ele>141</ele>
        <time>2011-04-19T12:30:00.000Z</time>
      </trkpt>
      <trkpt lat="48.63997" lon="1.8181">
        <ele>141</ele>
        <time>2011-04-19T12:30:04.000Z</time>
      </trkpt>
      <trkpt lat="48.63994" lon="1.81797">
        <ele>136.19999694824</ele>
        <time>2011-04-19T12:31:22.000Z</time>
      </trkpt>
      <trkpt lat="48.63993" lon="1.81797">
        <ele>136.60000610352</ele>
        <time>2011-04-19T12:31:23.000Z</time>
      </trkpt>
      <trkpt lat="48.63983" lon="1.8178">
        <ele>150.60000610352</ele>
        <time>2011-04-19T12:32:13.000Z</time>
      </trkpt>
      <trkpt lat="48.63983" lon="1.81765">
        <ele>150.19999694824</ele>
        <time>2011-04-19T12:32:20.000Z</time>
      </trkpt>
      <trkpt lat="48.63983" lon="1.8176">
        <ele>150.60000610352</ele>
        <time>2011-04-19T12:32:23.000Z</time>
      </trkpt>
      <trkpt lat="48.63985" lon="1.81754">
        <ele>150.60000610352</ele>
        <time>2011-04-19T12:32:29.000Z</time>
      </trkpt>
      <trkpt lat="48.6399" lon="1.81741">
        <ele>148.19999694824</ele>
        <time>2011-04-19T12:32:36.000Z</time>
      </trkpt>
      <trkpt lat="48.63994" lon="1.81729">
        <ele>145.80000305176</ele>
        <time>2011-04-19T12:32:43.000Z</time>
      </trkpt>
      <trkpt lat="48.64001" lon="1.8172">
        <ele>143.39999389648</ele>
        <time>2011-04-19T12:32:50.000Z</time>
      </trkpt>
      <trkpt lat="48.64007" lon="1.81707">
        <ele>142</ele>
        <time>2011-04-19T12:32:58.000Z</time>
      </trkpt>
      <trkpt lat="48.64013" lon="1.81693">
        <ele>139</ele>
        <time>2011-04-19T12:33:06.000Z</time>
      </trkpt>
      <trkpt lat="48.64018" lon="1.81682">
        <ele>136.60000610352</ele>
        <time>2011-04-19T12:33:14.000Z</time>
      </trkpt>
      <trkpt lat="48.64019" lon="1.81681">
        <ele>136.60000610352</ele>
        <time>2011-04-19T12:33:15.000Z</time>
      </trkpt>
      <trkpt lat="48.64027" lon="1.81667">
        <ele>135.19999694824</ele>
        <time>2011-04-19T12:33:23.000Z</time>
      </trkpt>
      <trkpt lat="48.64032" lon="1.81652">
        <ele>137.60000610352</ele>
        <time>2011-04-19T12:33:31.000Z</time>
      </trkpt>
      <trkpt lat="48.64034" lon="1.81644">
        <ele>138.60000610352</ele>
        <time>2011-04-19T12:33:35.000Z</time>
      </trkpt>
      <trkpt lat="48.64038" lon="1.81632">
        <ele>140.39999389648</ele>
        <time>2011-04-19T12:33:42.000Z</time>
      </trkpt>
      <trkpt lat="48.64045" lon="1.8162">
        <ele>140</ele>
        <time>2011-04-19T12:33:50.000Z</time>
      </trkpt>
      <trkpt lat="48.64052" lon="1.81607">
        <ele>139</ele>
        <time>2011-04-19T12:33:58.000Z</time>
      </trkpt>
      <trkpt lat="48.64053" lon="1.81603">
        <ele>139</ele>
        <time>2011-04-19T12:34:01.000Z</time>
      </trkpt>
      <trkpt lat="48.64057" lon="1.81596">
        <ele>138.60000610352</ele>
        <time>2011-04-19T12:34:08.000Z</time>
      </trkpt>
      <trkpt lat="48.64063" lon="1.81585">
        <ele>137.60000610352</ele>
        <time>2011-04-19T12:34:15.000Z</time>
      </trkpt>
      <trkpt lat="48.64069" lon="1.8157">
        <ele>137.19999694824</ele>
        <time>2011-04-19T12:34:23.000Z</time>
      </trkpt>
      <trkpt lat="48.6407" lon="1.81569">
        <ele>137.19999694824</ele>
        <time>2011-04-19T12:34:24.000Z</time>
      </trkpt>
      <trkpt lat="48.64074" lon="1.81558">
        <ele>138.60000610352</ele>
        <time>2011-04-19T12:34:30.000Z</time>
      </trkpt>
      <trkpt lat="48.64074" lon="1.81558">
        <ele>138.60000610352</ele>
        <time>2011-04-19T12:34:32.000Z</time>
      </trkpt>
      <trkpt lat="48.64077" lon="1.81548">
        <ele>146.19999694824</ele>
        <time>2011-04-19T12:34:46.000Z</time>
      </trkpt>
      <trkpt lat="48.64083" lon="1.81535">
        <ele>147.19999694824</ele>
        <time>2011-04-19T12:34:53.000Z</time>
      </trkpt>
      <trkpt lat="48.64087" lon="1.81527">
        <ele>144.39999389648</ele>
        <time>2011-04-19T12:35:00.000Z</time>
      </trkpt>
      <trkpt lat="48.64093" lon="1.81516">
        <ele>144.80000305176</ele>
        <time>2011-04-19T12:35:07.000Z</time>
      </trkpt>
      <trkpt lat="48.641" lon="1.81507">
        <ele>143.39999389648</ele>
        <time>2011-04-19T12:35:14.000Z</time>
      </trkpt>
      <trkpt lat="48.64107" lon="1.81498">
        <ele>140</ele>
        <time>2011-04-19T12:35:22.000Z</time>
      </trkpt>
      <trkpt lat="48.64113" lon="1.8149">
        <ele>136.60000610352</ele>
        <time>2011-04-19T12:35:28.000Z</time>
      </trkpt>
      <trkpt lat="48.64119" lon="1.81477">
        <ele>137.19999694824</ele>
        <time>2011-04-19T12:35:35.000Z</time>
      </trkpt>
      <trkpt lat="48.64122" lon="1.8147">
        <ele>136.19999694824</ele>
        <time>2011-04-19T12:35:39.000Z</time>
      </trkpt>
      <trkpt lat="48.64126" lon="1.81455">
        <ele>134.80000305176</ele>
        <time>2011-04-19T12:35:48.000Z</time>
      </trkpt>
      <trkpt lat="48.64131" lon="1.81445">
        <ele>135.60000610352</ele>
        <time>2011-04-19T12:35:54.000Z</time>
      </trkpt>
      <trkpt lat="48.64132" lon="1.81441">
        <ele>136.60000610352</ele>
        <time>2011-04-19T12:35:56.000Z</time>
      </trkpt>
      <trkpt lat="48.64137" lon="1.81425">
        <ele>136.60000610352</ele>
        <time>2011-04-19T12:36:05.000Z</time>
      </trkpt>
      <trkpt lat="48.64137" lon="1.81416">
        <ele>137.60000610352</ele>
        <time>2011-04-19T12:36:12.000Z</time>
      </trkpt>
      <trkpt lat="48.64137" lon="1.81415">
        <ele>138</ele>
        <time>2011-04-19T12:36:13.000Z</time>
      </trkpt>
      <trkpt lat="48.64138" lon="1.81393">
        <ele>142.39999389648</ele>
        <time>2011-04-19T12:36:42.000Z</time>
      </trkpt>
      <trkpt lat="48.64138" lon="1.81379">
        <ele>142</ele>
        <time>2011-04-19T12:36:48.000Z</time>
      </trkpt>
      <trkpt lat="48.64139" lon="1.81365">
        <ele>142.80000305176</ele>
        <time>2011-04-19T12:36:55.000Z</time>
      </trkpt>
      <trkpt lat="48.64144" lon="1.8135">
        <ele>142.80000305176</ele>
        <time>2011-04-19T12:37:03.000Z</time>
      </trkpt>
      <trkpt lat="48.64152" lon="1.81334">
        <ele>142.80000305176</ele>
        <time>2011-04-19T12:37:13.000Z</time>
      </trkpt>
      <trkpt lat="48.64158" lon="1.81329">
        <ele>142.80000305176</ele>
        <time>2011-04-19T12:37:18.000Z</time>
      </trkpt>
      <trkpt lat="48.64164" lon="1.81319">
        <ele>142.80000305176</ele>
        <time>2011-04-19T12:37:26.000Z</time>
      </trkpt>
      <trkpt lat="48.64175" lon="1.81312">
        <ele>142</ele>
        <time>2011-04-19T12:37:35.000Z</time>
      </trkpt>
      <trkpt lat="48.64184" lon="1.81305">
        <ele>142</ele>
        <time>2011-04-19T12:37:43.000Z</time>
      </trkpt>
      <trkpt lat="48.64197" lon="1.81295">
        <ele>142.39999389648</ele>
        <time>2011-04-19T12:37:53.000Z</time>
      </trkpt>
      <trkpt lat="48.642" lon="1.81291">
        <ele>142</ele>
        <time>2011-04-19T12:37:57.000Z</time>
      </trkpt>
      <trkpt lat="48.64204" lon="1.81283">
        <ele>141.39999389648</ele>
        <time>2011-04-19T12:38:03.000Z</time>
      </trkpt>
      <trkpt lat="48.64212" lon="1.81268">
        <ele>140.39999389648</ele>
        <time>2011-04-19T12:38:13.000Z</time>
      </trkpt>
      <trkpt lat="48.64217" lon="1.81255">
        <ele>141.39999389648</ele>
        <time>2011-04-19T12:38:21.000Z</time>
      </trkpt>
      <trkpt lat="48.64219" lon="1.81247">
        <ele>141</ele>
        <time>2011-04-19T12:38:26.000Z</time>
      </trkpt>
      <trkpt lat="48.64225" lon="1.8124">
        <ele>140.39999389648</ele>
        <time>2011-04-19T12:38:31.000Z</time>
      </trkpt>
      <trkpt lat="48.6423" lon="1.81234">
        <ele>141</ele>
        <time>2011-04-19T12:38:38.000Z</time>
      </trkpt>
      <trkpt lat="48.6423" lon="1.81233">
        <ele>141</ele>
        <time>2011-04-19T12:38:39.000Z</time>
      </trkpt>
      <trkpt lat="48.64235" lon="1.81219">
        <ele>143.80000305176</ele>
        <time>2011-04-19T12:39:09.000Z</time>
      </trkpt>
      <trkpt lat="48.64241" lon="1.8121">
        <ele>142.80000305176</ele>
        <time>2011-04-19T12:39:15.000Z</time>
      </trkpt>
      <trkpt lat="48.64242" lon="1.81209">
        <ele>142.80000305176</ele>
        <time>2011-04-19T12:39:18.000Z</time>
      </trkpt>
      <trkpt lat="48.64247" lon="1.81199">
        <ele>143.80000305176</ele>
        <time>2011-04-19T12:39:28.000Z</time>
      </trkpt>
      <trkpt lat="48.64251" lon="1.8119">
        <ele>143.39999389648</ele>
        <time>2011-04-19T12:39:33.000Z</time>
      </trkpt>
      <trkpt lat="48.64261" lon="1.81173">
        <ele>143.39999389648</ele>
        <time>2011-04-19T12:39:44.000Z</time>
      </trkpt>
      <trkpt lat="48.64267" lon="1.81157">
        <ele>143.39999389648</ele>
        <time>2011-04-19T12:39:53.000Z</time>
      </trkpt>
      <trkpt lat="48.64271" lon="1.81146">
        <ele>144.80000305176</ele>
        <time>2011-04-19T12:40:00.000Z</time>
      </trkpt>
      <trkpt lat="48.64274" lon="1.81136">
        <ele>145.80000305176</ele>
        <time>2011-04-19T12:40:06.000Z</time>
      </trkpt>
      <trkpt lat="48.64276" lon="1.81133">
        <ele>145.80000305176</ele>
        <time>2011-04-19T12:40:08.000Z</time>
      </trkpt>
      <trkpt lat="48.64281" lon="1.81121">
        <ele>145.80000305176</ele>
        <time>2011-04-19T12:40:16.000Z</time>
      </trkpt>
      <trkpt lat="48.64284" lon="1.81112">
        <ele>145.19999694824</ele>
        <time>2011-04-19T12:40:22.000Z</time>
      </trkpt>
      <trkpt lat="48.64291" lon="1.81096">
        <ele>145.80000305176</ele>
        <time>2011-04-19T12:40:32.000Z</time>
      </trkpt>
      <trkpt lat="48.64293" lon="1.8109">
        <ele>145.80000305176</ele>
        <time>2011-04-19T12:40:36.000Z</time>
      </trkpt>
      <trkpt lat="48.643" lon="1.81079">
        <ele>145.80000305176</ele>
        <time>2011-04-19T12:40:45.000Z</time>
      </trkpt>
      <trkpt lat="48.64303" lon="1.81069">
        <ele>145.80000305176</ele>
        <time>2011-04-19T12:40:51.000Z</time>
      </trkpt>
      <trkpt lat="48.64312" lon="1.81053">
        <ele>144.80000305176</ele>
        <time>2011-04-19T12:41:02.000Z</time>
      </trkpt>
      <trkpt lat="48.64317" lon="1.81043">
        <ele>144.39999389648</ele>
        <time>2011-04-19T12:41:10.000Z</time>
      </trkpt>
      <trkpt lat="48.64321" lon="1.81034">
        <ele>143.39999389648</ele>
        <time>2011-04-19T12:41:17.000Z</time>
      </trkpt>
      <trkpt lat="48.64325" lon="1.81025">
        <ele>142.80000305176</ele>
        <time>2011-04-19T12:41:23.000Z</time>
      </trkpt>
      <trkpt lat="48.64328" lon="1.8102">
        <ele>142.39999389648</ele>
        <time>2011-04-19T12:41:26.000Z</time>
      </trkpt>
      <trkpt lat="48.64333" lon="1.81009">
        <ele>141</ele>
        <time>2011-04-19T12:41:34.000Z</time>
      </trkpt>
      <trkpt lat="48.64338" lon="1.81001">
        <ele>140</ele>
        <time>2011-04-19T12:41:40.000Z</time>
      </trkpt>
      <trkpt lat="48.64342" lon="1.80993">
        <ele>140</ele>
        <time>2011-04-19T12:41:45.000Z</time>
      </trkpt>
      <trkpt lat="48.64347" lon="1.8098">
        <ele>141</ele>
        <time>2011-04-19T12:41:53.000Z</time>
      </trkpt>
      <trkpt lat="48.64353" lon="1.80971">
        <ele>140</ele>
        <time>2011-04-19T12:42:00.000Z</time>
      </trkpt>
      <trkpt lat="48.6436" lon="1.80958">
        <ele>140.39999389648</ele>
        <time>2011-04-19T12:42:09.000Z</time>
      </trkpt>
      <trkpt lat="48.64367" lon="1.80946">
        <ele>142</ele>
        <time>2011-04-19T12:42:17.000Z</time>
      </trkpt>
      <trkpt lat="48.64372" lon="1.80933">
        <ele>142.39999389648</ele>
        <time>2011-04-19T12:42:25.000Z</time>
      </trkpt>
      <trkpt lat="48.64378" lon="1.80915">
        <ele>145.80000305176</ele>
        <time>2011-04-19T12:42:35.000Z</time>
      </trkpt>
      <trkpt lat="48.64384" lon="1.80906">
        <ele>145.80000305176</ele>
        <time>2011-04-19T12:42:42.000Z</time>
      </trkpt>
      <trkpt lat="48.6439" lon="1.80896">
        <ele>144.80000305176</ele>
        <time>2011-04-19T12:42:49.000Z</time>
      </trkpt>
      <trkpt lat="48.64399" lon="1.80883">
        <ele>143.39999389648</ele>
        <time>2011-04-19T12:42:59.000Z</time>
      </trkpt>
      <trkpt lat="48.64404" lon="1.80873">
        <ele>142.39999389648</ele>
        <time>2011-04-19T12:43:06.000Z</time>
      </trkpt>
      <trkpt lat="48.6441" lon="1.8086">
        <ele>142.39999389648</ele>
        <time>2011-04-19T12:43:14.000Z</time>
      </trkpt>
      <trkpt lat="48.64411" lon="1.80858">
        <ele>142.80000305176</ele>
        <time>2011-04-19T12:43:15.000Z</time>
      </trkpt>
      <trkpt lat="48.64416" lon="1.80848">
        <ele>143.80000305176</ele>
        <time>2011-04-19T12:43:22.000Z</time>
      </trkpt>
      <trkpt lat="48.64418" lon="1.8084">
        <ele>144.80000305176</ele>
        <time>2011-04-19T12:43:26.000Z</time>
      </trkpt>
      <trkpt lat="48.64424" lon="1.80827">
        <ele>146.19999694824</ele>
        <time>2011-04-19T12:43:35.000Z</time>
      </trkpt>
      <trkpt lat="48.64429" lon="1.80817">
        <ele>144.80000305176</ele>
        <time>2011-04-19T12:43:42.000Z</time>
      </trkpt>
      <trkpt lat="48.64429" lon="1.80815">
        <ele>145.19999694824</ele>
        <time>2011-04-19T12:43:43.000Z</time>
      </trkpt>
      <trkpt lat="48.64434" lon="1.80805">
        <ele>145.19999694824</ele>
        <time>2011-04-19T12:43:51.000Z</time>
      </trkpt>
      <trkpt lat="48.64432" lon="1.80796">
        <ele>152</ele>
        <time>2011-04-19T12:43:59.000Z</time>
      </trkpt>
      <trkpt lat="48.64434" lon="1.80793">
        <ele>152</ele>
        <time>2011-04-19T12:44:02.000Z</time>
      </trkpt>
      <trkpt lat="48.64442" lon="1.80784">
        <ele>150.60000610352</ele>
        <time>2011-04-19T12:44:10.000Z</time>
      </trkpt>
      <trkpt lat="48.64446" lon="1.80781">
        <ele>150.19999694824</ele>
        <time>2011-04-19T12:44:14.000Z</time>
      </trkpt>
      <trkpt lat="48.64454" lon="1.80777">
        <ele>149.19999694824</ele>
        <time>2011-04-19T12:44:22.000Z</time>
      </trkpt>
      <trkpt lat="48.64461" lon="1.80771">
        <ele>147.60000610352</ele>
        <time>2011-04-19T12:44:30.000Z</time>
      </trkpt>
      <trkpt lat="48.64466" lon="1.8076">
        <ele>144.80000305176</ele>
        <time>2011-04-19T12:44:37.000Z</time>
      </trkpt>
      <trkpt lat="48.6447" lon="1.80749">
        <ele>145.19999694824</ele>
        <time>2011-04-19T12:44:44.000Z</time>
      </trkpt>
      <trkpt lat="48.64469" lon="1.80729">
        <ele>145.19999694824</ele>
        <time>2011-04-19T12:44:54.000Z</time>
      </trkpt>
      <trkpt lat="48.64465" lon="1.80714">
        <ele>145.80000305176</ele>
        <time>2011-04-19T12:45:03.000Z</time>
      </trkpt>
      <trkpt lat="48.64464" lon="1.807">
        <ele>146.19999694824</ele>
        <time>2011-04-19T12:45:10.000Z</time>
      </trkpt>
      <trkpt lat="48.6446" lon="1.80686">
        <ele>146.19999694824</ele>
        <time>2011-04-19T12:45:18.000Z</time>
      </trkpt>
      <trkpt lat="48.64454" lon="1.80673">
        <ele>145.80000305176</ele>
        <time>2011-04-19T12:45:25.000Z</time>
      </trkpt>
      <trkpt lat="48.64447" lon="1.80661">
        <ele>144.39999389648</ele>
        <time>2011-04-19T12:45:33.000Z</time>
      </trkpt>
      <trkpt lat="48.64442" lon="1.80645">
        <ele>143.80000305176</ele>
        <time>2011-04-19T12:45:42.000Z</time>
      </trkpt>
      <trkpt lat="48.64439" lon="1.80638">
        <ele>143.80000305176</ele>
        <time>2011-04-19T12:45:48.000Z</time>
      </trkpt>
      <trkpt lat="48.64436" lon="1.80628">
        <ele>144.39999389648</ele>
        <time>2011-04-19T12:45:54.000Z</time>
      </trkpt>
      <trkpt lat="48.64435" lon="1.80626">
        <ele>144.39999389648</ele>
        <time>2011-04-19T12:45:59.000Z</time>
      </trkpt>
      <trkpt lat="48.64433" lon="1.8062">
        <ele>144.80000305176</ele>
        <time>2011-04-19T12:46:05.000Z</time>
      </trkpt>
      <trkpt lat="48.64428" lon="1.80609">
        <ele>144.80000305176</ele>
        <time>2011-04-19T12:46:11.000Z</time>
      </trkpt>
      <trkpt lat="48.64425" lon="1.80604">
        <ele>144.80000305176</ele>
        <time>2011-04-19T12:46:17.000Z</time>
      </trkpt>
      <trkpt lat="48.64422" lon="1.80601">
        <ele>143.80000305176</ele>
        <time>2011-04-19T12:46:33.000Z</time>
      </trkpt>
      <trkpt lat="48.64414" lon="1.80584">
        <ele>143.80000305176</ele>
        <time>2011-04-19T12:46:37.000Z</time>
      </trkpt>
      <trkpt lat="48.64409" lon="1.80569">
        <ele>143.80000305176</ele>
        <time>2011-04-19T12:46:42.000Z</time>
      </trkpt>
      <trkpt lat="48.64407" lon="1.80563">
        <ele>143.80000305176</ele>
        <time>2011-04-19T12:46:46.000Z</time>
      </trkpt>
      <trkpt lat="48.64407" lon="1.80561">
        <ele>143.80000305176</ele>
        <time>2011-04-19T12:46:49.000Z</time>
      </trkpt>
      <trkpt lat="48.64383" lon="1.8051">
        <ele>147.60000610352</ele>
        <time>2011-04-19T12:50:19.000Z</time>
      </trkpt>
      <trkpt lat="48.64377" lon="1.80495">
        <ele>146.80000305176</ele>
        <time>2011-04-19T12:50:27.000Z</time>
      </trkpt>
      <trkpt lat="48.64369" lon="1.80477">
        <ele>146.19999694824</ele>
        <time>2011-04-19T12:50:35.000Z</time>
      </trkpt>
      <trkpt lat="48.64365" lon="1.80464">
        <ele>145.80000305176</ele>
        <time>2011-04-19T12:50:41.000Z</time>
      </trkpt>
      <trkpt lat="48.64356" lon="1.80443">
        <ele>145.80000305176</ele>
        <time>2011-04-19T12:50:52.000Z</time>
      </trkpt>
      <trkpt lat="48.64349" lon="1.80424">
        <ele>146.19999694824</ele>
        <time>2011-04-19T12:51:02.000Z</time>
      </trkpt>
      <trkpt lat="48.64343" lon="1.8041">
        <ele>144.39999389648</ele>
        <time>2011-04-19T12:51:10.000Z</time>
      </trkpt>
      <trkpt lat="48.64338" lon="1.80398">
        <ele>144.39999389648</ele>
        <time>2011-04-19T12:51:17.000Z</time>
      </trkpt>
      <trkpt lat="48.64333" lon="1.80385">
        <ele>144.80000305176</ele>
        <time>2011-04-19T12:51:25.000Z</time>
      </trkpt>
      <trkpt lat="48.64329" lon="1.80377">
        <ele>145.19999694824</ele>
        <time>2011-04-19T12:51:30.000Z</time>
      </trkpt>
      <trkpt lat="48.64322" lon="1.80364">
        <ele>147.19999694824</ele>
        <time>2011-04-19T12:51:37.000Z</time>
      </trkpt>
      <trkpt lat="48.64316" lon="1.80348">
        <ele>146.80000305176</ele>
        <time>2011-04-19T12:51:45.000Z</time>
      </trkpt>
      <trkpt lat="48.64308" lon="1.8033">
        <ele>146.80000305176</ele>
        <time>2011-04-19T12:51:54.000Z</time>
      </trkpt>
      <trkpt lat="48.64301" lon="1.80319">
        <ele>145.80000305176</ele>
        <time>2011-04-19T12:52:01.000Z</time>
      </trkpt>
      <trkpt lat="48.64299" lon="1.80316">
        <ele>145.80000305176</ele>
        <time>2011-04-19T12:52:03.000Z</time>
      </trkpt>
      <trkpt lat="48.64294" lon="1.80302">
        <ele>146.19999694824</ele>
        <time>2011-04-19T12:52:10.000Z</time>
      </trkpt>
      <trkpt lat="48.64292" lon="1.80295">
        <ele>146.80000305176</ele>
        <time>2011-04-19T12:52:13.000Z</time>
      </trkpt>
      <trkpt lat="48.6429" lon="1.80288">
        <ele>146.80000305176</ele>
        <time>2011-04-19T12:52:20.000Z</time>
      </trkpt>
      <trkpt lat="48.64288" lon="1.80281">
        <ele>146.19999694824</ele>
        <time>2011-04-19T12:52:27.000Z</time>
      </trkpt>
      <trkpt lat="48.64285" lon="1.80273">
        <ele>144.80000305176</ele>
        <time>2011-04-19T12:52:30.000Z</time>
      </trkpt>
      <trkpt lat="48.64278" lon="1.80258">
        <ele>145.80000305176</ele>
        <time>2011-04-19T12:52:38.000Z</time>
      </trkpt>
      <trkpt lat="48.64272" lon="1.80245">
        <ele>145.80000305176</ele>
        <time>2011-04-19T12:52:45.000Z</time>
      </trkpt>
      <trkpt lat="48.64266" lon="1.8023">
        <ele>144.80000305176</ele>
        <time>2011-04-19T12:52:53.000Z</time>
      </trkpt>
      <trkpt lat="48.6426" lon="1.80214">
        <ele>145.19999694824</ele>
        <time>2011-04-19T12:53:02.000Z</time>
      </trkpt>
      <trkpt lat="48.64255" lon="1.80201">
        <ele>145.19999694824</ele>
        <time>2011-04-19T12:53:09.000Z</time>
      </trkpt>
      <trkpt lat="48.64248" lon="1.80184">
        <ele>145.19999694824</ele>
        <time>2011-04-19T12:53:17.000Z</time>
      </trkpt>
      <trkpt lat="48.6424" lon="1.80165">
        <ele>145.80000305176</ele>
        <time>2011-04-19T12:53:27.000Z</time>
      </trkpt>
      <trkpt lat="48.64234" lon="1.80151">
        <ele>145.80000305176</ele>
        <time>2011-04-19T12:53:34.000Z</time>
      </trkpt>
      <trkpt lat="48.64225" lon="1.80127">
        <ele>145.80000305176</ele>
        <time>2011-04-19T12:53:46.000Z</time>
      </trkpt>
      <trkpt lat="48.64217" lon="1.80108">
        <ele>145.80000305176</ele>
        <time>2011-04-19T12:53:56.000Z</time>
      </trkpt>
      <trkpt lat="48.64208" lon="1.80088">
        <ele>147.19999694824</ele>
        <time>2011-04-19T12:54:07.000Z</time>
      </trkpt>
      <trkpt lat="48.64202" lon="1.80074">
        <ele>148.60000610352</ele>
        <time>2011-04-19T12:54:15.000Z</time>
      </trkpt>
      <trkpt lat="48.64196" lon="1.8006">
        <ele>149.19999694824</ele>
        <time>2011-04-19T12:54:22.000Z</time>
      </trkpt>
      <trkpt lat="48.64188" lon="1.80048">
        <ele>151.60000610352</ele>
        <time>2011-04-19T12:54:29.000Z</time>
      </trkpt>
      <trkpt lat="48.64186" lon="1.80044">
        <ele>152</ele>
        <time>2011-04-19T12:54:34.000Z</time>
      </trkpt>
      <trkpt lat="48.64182" lon="1.80034">
        <ele>151</ele>
        <time>2011-04-19T12:54:40.000Z</time>
      </trkpt>
      <trkpt lat="48.64176" lon="1.80019">
        <ele>149.60000610352</ele>
        <time>2011-04-19T12:54:48.000Z</time>
      </trkpt>
      <trkpt lat="48.6417" lon="1.80007">
        <ele>148.19999694824</ele>
        <time>2011-04-19T12:54:55.000Z</time>
      </trkpt>
      <trkpt lat="48.64169" lon="1.80006">
        <ele>148.19999694824</ele>
        <time>2011-04-19T12:54:56.000Z</time>
      </trkpt>
      <trkpt lat="48.64162" lon="1.79992">
        <ele>149.60000610352</ele>
        <time>2011-04-19T12:55:04.000Z</time>
      </trkpt>
      <trkpt lat="48.64156" lon="1.79978">
        <ele>149.60000610352</ele>
        <time>2011-04-19T12:55:12.000Z</time>
      </trkpt>
      <trkpt lat="48.64148" lon="1.79961">
        <ele>149.60000610352</ele>
        <time>2011-04-19T12:55:21.000Z</time>
      </trkpt>
      <trkpt lat="48.64141" lon="1.79947">
        <ele>150.19999694824</ele>
        <time>2011-04-19T12:55:28.000Z</time>
      </trkpt>
      <trkpt lat="48.64132" lon="1.79932">
        <ele>151</ele>
        <time>2011-04-19T12:55:37.000Z</time>
      </trkpt>
      <trkpt lat="48.64125" lon="1.79917">
        <ele>150.19999694824</ele>
        <time>2011-04-19T12:55:46.000Z</time>
      </trkpt>
      <trkpt lat="48.64118" lon="1.79903">
        <ele>150.60000610352</ele>
        <time>2011-04-19T12:55:54.000Z</time>
      </trkpt>
      <trkpt lat="48.6411" lon="1.79888">
        <ele>151</ele>
        <time>2011-04-19T12:55:59.000Z</time>
      </trkpt>
      <trkpt lat="48.64102" lon="1.79872">
        <ele>149.60000610352</ele>
        <time>2011-04-19T12:56:04.000Z</time>
      </trkpt>
      <trkpt lat="48.64096" lon="1.7986">
        <ele>148.60000610352</ele>
        <time>2011-04-19T12:56:11.000Z</time>
      </trkpt>
      <trkpt lat="48.6409" lon="1.79846">
        <ele>148.60000610352</ele>
        <time>2011-04-19T12:56:18.000Z</time>
      </trkpt>
      <trkpt lat="48.64085" lon="1.79833">
        <ele>148.19999694824</ele>
        <time>2011-04-19T12:56:26.000Z</time>
      </trkpt>
      <trkpt lat="48.64076" lon="1.79822">
        <ele>147.60000610352</ele>
        <time>2011-04-19T12:56:34.000Z</time>
      </trkpt>
      <trkpt lat="48.64071" lon="1.79812">
        <ele>147.60000610352</ele>
        <time>2011-04-19T12:56:40.000Z</time>
      </trkpt>
      <trkpt lat="48.64066" lon="1.79801">
        <ele>146.80000305176</ele>
        <time>2011-04-19T12:56:47.000Z</time>
      </trkpt>
      <trkpt lat="48.64063" lon="1.79793">
        <ele>145.19999694824</ele>
        <time>2011-04-19T12:56:53.000Z</time>
      </trkpt>
      <trkpt lat="48.64059" lon="1.79788">
        <ele>144.80000305176</ele>
        <time>2011-04-19T12:56:57.000Z</time>
      </trkpt>
      <trkpt lat="48.64052" lon="1.79776">
        <ele>145.19999694824</ele>
        <time>2011-04-19T12:57:04.000Z</time>
      </trkpt>
      <trkpt lat="48.64043" lon="1.79761">
        <ele>148.60000610352</ele>
        <time>2011-04-19T12:57:12.000Z</time>
      </trkpt>
      <trkpt lat="48.64036" lon="1.79752">
        <ele>153.39999389648</ele>
        <time>2011-04-19T12:57:19.000Z</time>
      </trkpt>
      <trkpt lat="48.64033" lon="1.79748">
        <ele>154</ele>
        <time>2011-04-19T12:57:22.000Z</time>
      </trkpt>
      <trkpt lat="48.64026" lon="1.79732">
        <ele>154</ele>
        <time>2011-04-19T12:57:31.000Z</time>
      </trkpt>
      <trkpt lat="48.64019" lon="1.79719">
        <ele>153.39999389648</ele>
        <time>2011-04-19T12:57:38.000Z</time>
      </trkpt>
      <trkpt lat="48.64017" lon="1.7971">
        <ele>152</ele>
        <time>2011-04-19T12:57:43.000Z</time>
      </trkpt>
      <trkpt lat="48.64009" lon="1.79695">
        <ele>151.60000610352</ele>
        <time>2011-04-19T12:57:52.000Z</time>
      </trkpt>
      <trkpt lat="48.64003" lon="1.79683">
        <ele>151.60000610352</ele>
        <time>2011-04-19T12:57:59.000Z</time>
      </trkpt>
      <trkpt lat="48.63996" lon="1.79668">
        <ele>150.19999694824</ele>
        <time>2011-04-19T12:58:07.000Z</time>
      </trkpt>
      <trkpt lat="48.63991" lon="1.79657">
        <ele>149.19999694824</ele>
        <time>2011-04-19T12:58:13.000Z</time>
      </trkpt>
      <trkpt lat="48.63988" lon="1.79649">
        <ele>147.60000610352</ele>
        <time>2011-04-19T12:58:19.000Z</time>
      </trkpt>
      <trkpt lat="48.63978" lon="1.79633">
        <ele>150.60000610352</ele>
        <time>2011-04-19T12:58:27.000Z</time>
      </trkpt>
      <trkpt lat="48.6397" lon="1.79616">
        <ele>149.60000610352</ele>
        <time>2011-04-19T12:58:36.000Z</time>
      </trkpt>
      <trkpt lat="48.63966" lon="1.7961">
        <ele>151</ele>
        <time>2011-04-19T12:58:40.000Z</time>
      </trkpt>
      <trkpt lat="48.6396" lon="1.796">
        <ele>152.60000610352</ele>
        <time>2011-04-19T12:58:46.000Z</time>
      </trkpt>
      <trkpt lat="48.63952" lon="1.79589">
        <ele>155.80000305176</ele>
        <time>2011-04-19T12:58:52.000Z</time>
      </trkpt>
      <trkpt lat="48.63949" lon="1.79583">
        <ele>155</ele>
        <time>2011-04-19T12:58:56.000Z</time>
      </trkpt>
      <trkpt lat="48.63943" lon="1.79577">
        <ele>154</ele>
        <time>2011-04-19T12:59:02.000Z</time>
      </trkpt>
      <trkpt lat="48.63934" lon="1.79565">
        <ele>154.39999389648</ele>
        <time>2011-04-19T12:59:11.000Z</time>
      </trkpt>
      <trkpt lat="48.63924" lon="1.79556">
        <ele>154.39999389648</ele>
        <time>2011-04-19T12:59:19.000Z</time>
      </trkpt>
      <trkpt lat="48.63917" lon="1.79542">
        <ele>151</ele>
        <time>2011-04-19T12:59:27.000Z</time>
      </trkpt>
      <trkpt lat="48.63907" lon="1.79527">
        <ele>148.19999694824</ele>
        <time>2011-04-19T12:59:35.000Z</time>
      </trkpt>
      <trkpt lat="48.63896" lon="1.79512">
        <ele>147.19999694824</ele>
        <time>2011-04-19T12:59:43.000Z</time>
      </trkpt>
      <trkpt lat="48.63886" lon="1.79499">
        <ele>146.80000305176</ele>
        <time>2011-04-19T12:59:50.000Z</time>
      </trkpt>
      <trkpt lat="48.63872" lon="1.7948">
        <ele>147.19999694824</ele>
        <time>2011-04-19T13:00:00.000Z</time>
      </trkpt>
      <trkpt lat="48.63861" lon="1.79466">
        <ele>146.80000305176</ele>
        <time>2011-04-19T13:00:08.000Z</time>
      </trkpt>
      <trkpt lat="48.63857" lon="1.79462">
        <ele>146.80000305176</ele>
        <time>2011-04-19T13:00:14.000Z</time>
      </trkpt>
      <trkpt lat="48.63849" lon="1.79453">
        <ele>149.19999694824</ele>
        <time>2011-04-19T13:00:56.000Z</time>
      </trkpt>
      <trkpt lat="48.63843" lon="1.79448">
        <ele>148.60000610352</ele>
        <time>2011-04-19T13:01:02.000Z</time>
      </trkpt>
      <trkpt lat="48.63843" lon="1.79444">
        <ele>148.60000610352</ele>
        <time>2011-04-19T13:01:04.000Z</time>
      </trkpt>
      <trkpt lat="48.63842" lon="1.79441">
        <ele>149.60000610352</ele>
        <time>2011-04-19T13:01:09.000Z</time>
      </trkpt>
      <trkpt lat="48.63825" lon="1.79426">
        <ele>146.19999694824</ele>
        <time>2011-04-19T13:03:12.000Z</time>
      </trkpt>
      <trkpt lat="48.63822" lon="1.7942">
        <ele>145.80000305176</ele>
        <time>2011-04-19T13:03:15.000Z</time>
      </trkpt>
      <trkpt lat="48.6382" lon="1.79418">
        <ele>145.80000305176</ele>
        <time>2011-04-19T13:03:17.000Z</time>
      </trkpt>
      <trkpt lat="48.63813" lon="1.79409">
        <ele>145.80000305176</ele>
        <time>2011-04-19T13:03:23.000Z</time>
      </trkpt>
      <trkpt lat="48.63806" lon="1.79404">
        <ele>145.80000305176</ele>
        <time>2011-04-19T13:03:29.000Z</time>
      </trkpt>
      <trkpt lat="48.63798" lon="1.79389">
        <ele>146.19999694824</ele>
        <time>2011-04-19T13:03:38.000Z</time>
      </trkpt>
      <trkpt lat="48.63791" lon="1.79367">
        <ele>145.80000305176</ele>
        <time>2011-04-19T13:03:48.000Z</time>
      </trkpt>
      <trkpt lat="48.63786" lon="1.79352">
        <ele>145.80000305176</ele>
        <time>2011-04-19T13:03:55.000Z</time>
      </trkpt>
      <trkpt lat="48.63781" lon="1.7934">
        <ele>145.80000305176</ele>
        <time>2011-04-19T13:04:01.000Z</time>
      </trkpt>
      <trkpt lat="48.63775" lon="1.79325">
        <ele>145.80000305176</ele>
        <time>2011-04-19T13:04:08.000Z</time>
      </trkpt>
      <trkpt lat="48.63768" lon="1.79302">
        <ele>146.80000305176</ele>
        <time>2011-04-19T13:04:18.000Z</time>
      </trkpt>
      <trkpt lat="48.63764" lon="1.79282">
        <ele>147.60000610352</ele>
        <time>2011-04-19T13:04:27.000Z</time>
      </trkpt>
      <trkpt lat="48.63757" lon="1.79262">
        <ele>147.60000610352</ele>
        <time>2011-04-19T13:04:37.000Z</time>
      </trkpt>
      <trkpt lat="48.63752" lon="1.79247">
        <ele>147.60000610352</ele>
        <time>2011-04-19T13:04:44.000Z</time>
      </trkpt>
      <trkpt lat="48.63745" lon="1.79234">
        <ele>147.19999694824</ele>
        <time>2011-04-19T13:04:51.000Z</time>
      </trkpt>
      <trkpt lat="48.63738" lon="1.79216">
        <ele>147.19999694824</ele>
        <time>2011-04-19T13:05:00.000Z</time>
      </trkpt>
      <trkpt lat="48.63734" lon="1.79201">
        <ele>147.19999694824</ele>
        <time>2011-04-19T13:05:07.000Z</time>
      </trkpt>
      <trkpt lat="48.63727" lon="1.79185">
        <ele>147.19999694824</ele>
        <time>2011-04-19T13:05:15.000Z</time>
      </trkpt>
      <trkpt lat="48.6372" lon="1.79171">
        <ele>147.60000610352</ele>
        <time>2011-04-19T13:05:23.000Z</time>
      </trkpt>
      <trkpt lat="48.63711" lon="1.79156">
        <ele>148.19999694824</ele>
        <time>2011-04-19T13:05:32.000Z</time>
      </trkpt>
      <trkpt lat="48.63702" lon="1.7914">
        <ele>149.19999694824</ele>
        <time>2011-04-19T13:05:42.000Z</time>
      </trkpt>
      <trkpt lat="48.63693" lon="1.79127">
        <ele>149.60000610352</ele>
        <time>2011-04-19T13:05:51.000Z</time>
      </trkpt>
      <trkpt lat="48.63685" lon="1.79116">
        <ele>150.19999694824</ele>
        <time>2011-04-19T13:05:59.000Z</time>
      </trkpt>
      <trkpt lat="48.63679" lon="1.79108">
        <ele>150.19999694824</ele>
        <time>2011-04-19T13:06:05.000Z</time>
      </trkpt>
      <trkpt lat="48.6367" lon="1.79098">
        <ele>150.19999694824</ele>
        <time>2011-04-19T13:06:13.000Z</time>
      </trkpt>
      <trkpt lat="48.6366" lon="1.79085">
        <ele>150.60000610352</ele>
        <time>2011-04-19T13:06:22.000Z</time>
      </trkpt>
      <trkpt lat="48.63653" lon="1.79072">
        <ele>151</ele>
        <time>2011-04-19T13:06:30.000Z</time>
      </trkpt>
      <trkpt lat="48.63647" lon="1.79061">
        <ele>151.60000610352</ele>
        <time>2011-04-19T13:06:37.000Z</time>
      </trkpt>
      <trkpt lat="48.63637" lon="1.79047">
        <ele>151.60000610352</ele>
        <time>2011-04-19T13:06:46.000Z</time>
      </trkpt>
      <trkpt lat="48.63624" lon="1.79027">
        <ele>151</ele>
        <time>2011-04-19T13:06:58.000Z</time>
      </trkpt>
      <trkpt lat="48.63616" lon="1.79015">
        <ele>150.60000610352</ele>
        <time>2011-04-19T13:07:06.000Z</time>
      </trkpt>
      <trkpt lat="48.63606" lon="1.79004">
        <ele>150.60000610352</ele>
        <time>2011-04-19T13:07:14.000Z</time>
      </trkpt>
      <trkpt lat="48.63597" lon="1.78994">
        <ele>150.60000610352</ele>
        <time>2011-04-19T13:07:23.000Z</time>
      </trkpt>
      <trkpt lat="48.63592" lon="1.78988">
        <ele>150.19999694824</ele>
        <time>2011-04-19T13:07:28.000Z</time>
      </trkpt>
      <trkpt lat="48.63581" lon="1.78978">
        <ele>150.19999694824</ele>
        <time>2011-04-19T13:07:37.000Z</time>
      </trkpt>
      <trkpt lat="48.63568" lon="1.78968">
        <ele>149.60000610352</ele>
        <time>2011-04-19T13:07:46.000Z</time>
      </trkpt>
      <trkpt lat="48.63559" lon="1.78962">
        <ele>148.60000610352</ele>
        <time>2011-04-19T13:07:54.000Z</time>
      </trkpt>
      <trkpt lat="48.63547" lon="1.78958">
        <ele>148.19999694824</ele>
        <time>2011-04-19T13:08:03.000Z</time>
      </trkpt>
      <trkpt lat="48.63547" lon="1.78957">
        <ele>147.60000610352</ele>
        <time>2011-04-19T13:08:06.000Z</time>
      </trkpt>
      <trkpt lat="48.63542" lon="1.78956">
        <ele>147.60000610352</ele>
        <time>2011-04-19T13:08:13.000Z</time>
      </trkpt>
      <trkpt lat="48.6353" lon="1.78954">
        <ele>147.19999694824</ele>
        <time>2011-04-19T13:08:20.000Z</time>
      </trkpt>
      <trkpt lat="48.63515" lon="1.78951">
        <ele>147.19999694824</ele>
        <time>2011-04-19T13:08:30.000Z</time>
      </trkpt>
      <trkpt lat="48.63503" lon="1.78949">
        <ele>147.19999694824</ele>
        <time>2011-04-19T13:08:38.000Z</time>
      </trkpt>
      <trkpt lat="48.63496" lon="1.78949">
        <ele>147.19999694824</ele>
        <time>2011-04-19T13:08:43.000Z</time>
      </trkpt>
      <trkpt lat="48.63484" lon="1.78949">
        <ele>148.19999694824</ele>
        <time>2011-04-19T13:08:52.000Z</time>
      </trkpt>
      <trkpt lat="48.63477" lon="1.78941">
        <ele>148.19999694824</ele>
        <time>2011-04-19T13:08:58.000Z</time>
      </trkpt>
      <trkpt lat="48.63474" lon="1.78926">
        <ele>148.19999694824</ele>
        <time>2011-04-19T13:09:05.000Z</time>
      </trkpt>
      <trkpt lat="48.6347" lon="1.78908">
        <ele>148.19999694824</ele>
        <time>2011-04-19T13:09:13.000Z</time>
      </trkpt>
      <trkpt lat="48.63468" lon="1.78895">
        <ele>148.19999694824</ele>
        <time>2011-04-19T13:09:20.000Z</time>
      </trkpt>
      <trkpt lat="48.63466" lon="1.78878">
        <ele>148.19999694824</ele>
        <time>2011-04-19T13:09:29.000Z</time>
      </trkpt>
      <trkpt lat="48.63464" lon="1.78856">
        <ele>148.60000610352</ele>
        <time>2011-04-19T13:09:39.000Z</time>
      </trkpt>
      <trkpt lat="48.63463" lon="1.78828">
        <ele>149.19999694824</ele>
        <time>2011-04-19T13:09:52.000Z</time>
      </trkpt>
      <trkpt lat="48.63466" lon="1.78805">
        <ele>149.60000610352</ele>
        <time>2011-04-19T13:10:03.000Z</time>
      </trkpt>
      <trkpt lat="48.6347" lon="1.78788">
        <ele>149.19999694824</ele>
        <time>2011-04-19T13:10:11.000Z</time>
      </trkpt>
      <trkpt lat="48.63475" lon="1.78773">
        <ele>149.19999694824</ele>
        <time>2011-04-19T13:10:19.000Z</time>
      </trkpt>
      <trkpt lat="48.6348" lon="1.78757">
        <ele>149.19999694824</ele>
        <time>2011-04-19T13:10:27.000Z</time>
      </trkpt>
      <trkpt lat="48.63486" lon="1.78743">
        <ele>148.19999694824</ele>
        <time>2011-04-19T13:10:35.000Z</time>
      </trkpt>
      <trkpt lat="48.63488" lon="1.78733">
        <ele>148.60000610352</ele>
        <time>2011-04-19T13:10:41.000Z</time>
      </trkpt>
      <trkpt lat="48.63491" lon="1.78722">
        <ele>149.60000610352</ele>
        <time>2011-04-19T13:10:46.000Z</time>
      </trkpt>
      <trkpt lat="48.63491" lon="1.78717">
        <ele>150.19999694824</ele>
        <time>2011-04-19T13:10:51.000Z</time>
      </trkpt>
      <trkpt lat="48.63493" lon="1.78705">
        <ele>150.19999694824</ele>
        <time>2011-04-19T13:10:57.000Z</time>
      </trkpt>
      <trkpt lat="48.63498" lon="1.78682">
        <ele>150.19999694824</ele>
        <time>2011-04-19T13:11:08.000Z</time>
      </trkpt>
      <trkpt lat="48.63501" lon="1.78676">
        <ele>149.60000610352</ele>
        <time>2011-04-19T13:11:14.000Z</time>
      </trkpt>
      <trkpt lat="48.63502" lon="1.78666">
        <ele>149.60000610352</ele>
        <time>2011-04-19T13:11:21.000Z</time>
      </trkpt>
      <trkpt lat="48.63505" lon="1.78654">
        <ele>149.60000610352</ele>
        <time>2011-04-19T13:11:27.000Z</time>
      </trkpt>
      <trkpt lat="48.63508" lon="1.78643">
        <ele>149.60000610352</ele>
        <time>2011-04-19T13:11:33.000Z</time>
      </trkpt>
      <trkpt lat="48.63511" lon="1.78632">
        <ele>150.60000610352</ele>
        <time>2011-04-19T13:11:40.000Z</time>
      </trkpt>
      <trkpt lat="48.6351" lon="1.78632">
        <ele>150.60000610352</ele>
        <time>2011-04-19T13:11:41.000Z</time>
      </trkpt>
      <trkpt lat="48.63512" lon="1.78617">
        <ele>152.60000610352</ele>
        <time>2011-04-19T13:12:00.000Z</time>
      </trkpt>
      <trkpt lat="48.63515" lon="1.78596">
        <ele>152.60000610352</ele>
        <time>2011-04-19T13:12:04.000Z</time>
      </trkpt>
      <trkpt lat="48.63519" lon="1.78563">
        <ele>153</ele>
        <time>2011-04-19T13:12:10.000Z</time>
      </trkpt>
      <trkpt lat="48.63521" lon="1.78536">
        <ele>155</ele>
        <time>2011-04-19T13:12:15.000Z</time>
      </trkpt>
      <trkpt lat="48.63517" lon="1.78518">
        <ele>156.80000305176</ele>
        <time>2011-04-19T13:12:19.000Z</time>
      </trkpt>
      <trkpt lat="48.63519" lon="1.78508">
        <ele>156.80000305176</ele>
        <time>2011-04-19T13:12:25.000Z</time>
      </trkpt>
      <trkpt lat="48.63519" lon="1.78507">
        <ele>156.80000305176</ele>
        <time>2011-04-19T13:12:28.000Z</time>
      </trkpt>
      <trkpt lat="48.63518" lon="1.78474">
        <ele>155.39999389648</ele>
        <time>2011-04-19T13:13:30.000Z</time>
      </trkpt>
      <trkpt lat="48.63517" lon="1.78466">
        <ele>155.80000305176</ele>
        <time>2011-04-19T13:13:33.000Z</time>
      </trkpt>
      <trkpt lat="48.63516" lon="1.7846">
        <ele>156.80000305176</ele>
        <time>2011-04-19T13:13:36.000Z</time>
      </trkpt>
      <trkpt lat="48.63512" lon="1.78441">
        <ele>159.80000305176</ele>
        <time>2011-04-19T13:13:45.000Z</time>
      </trkpt>
      <trkpt lat="48.6351" lon="1.78429">
        <ele>161.60000610352</ele>
        <time>2011-04-19T13:13:51.000Z</time>
      </trkpt>
      <trkpt lat="48.63508" lon="1.78413">
        <ele>165</ele>
        <time>2011-04-19T13:13:59.000Z</time>
      </trkpt>
      <trkpt lat="48.63506" lon="1.78406">
        <ele>166.39999389648</ele>
        <time>2011-04-19T13:14:02.000Z</time>
      </trkpt>
      <trkpt lat="48.63505" lon="1.7839">
        <ele>168.39999389648</ele>
        <time>2011-04-19T13:14:09.000Z</time>
      </trkpt>
      <trkpt lat="48.63504" lon="1.78376">
        <ele>169.39999389648</ele>
        <time>2011-04-19T13:14:17.000Z</time>
      </trkpt>
      <trkpt lat="48.63504" lon="1.7836">
        <ele>171.19999694824</ele>
        <time>2011-04-19T13:14:24.000Z</time>
      </trkpt>
      <trkpt lat="48.63504" lon="1.78346">
        <ele>171.19999694824</ele>
        <time>2011-04-19T13:14:30.000Z</time>
      </trkpt>
      <trkpt lat="48.63503" lon="1.7833">
        <ele>172.60000610352</ele>
        <time>2011-04-19T13:14:38.000Z</time>
      </trkpt>
      <trkpt lat="48.63503" lon="1.78315">
        <ele>174.60000610352</ele>
        <time>2011-04-19T13:14:45.000Z</time>
      </trkpt>
      <trkpt lat="48.63502" lon="1.78307">
        <ele>176</ele>
        <time>2011-04-19T13:14:48.000Z</time>
      </trkpt>
      <trkpt lat="48.635" lon="1.7829">
        <ele>176</ele>
        <time>2011-04-19T13:14:56.000Z</time>
      </trkpt>
      <trkpt lat="48.635" lon="1.78285">
        <ele>176</ele>
        <time>2011-04-19T13:14:58.000Z</time>
      </trkpt>
      <trkpt lat="48.635" lon="1.7827">
        <ele>176.60000610352</ele>
        <time>2011-04-19T13:15:04.000Z</time>
      </trkpt>
      <trkpt lat="48.635" lon="1.78265">
        <ele>176.60000610352</ele>
        <time>2011-04-19T13:15:06.000Z</time>
      </trkpt>
      <trkpt lat="48.63501" lon="1.7825">
        <ele>176.60000610352</ele>
        <time>2011-04-19T13:15:13.000Z</time>
      </trkpt>
      <trkpt lat="48.63504" lon="1.78241">
        <ele>173.19999694824</ele>
        <time>2011-04-19T13:15:19.000Z</time>
      </trkpt>
      <trkpt lat="48.63507" lon="1.78222">
        <ele>171.80000305176</ele>
        <time>2011-04-19T13:15:28.000Z</time>
      </trkpt>
      <trkpt lat="48.6351" lon="1.78202">
        <ele>171.80000305176</ele>
        <time>2011-04-19T13:15:37.000Z</time>
      </trkpt>
      <trkpt lat="48.63512" lon="1.78182">
        <ele>172.60000610352</ele>
        <time>2011-04-19T13:15:46.000Z</time>
      </trkpt>
      <trkpt lat="48.63512" lon="1.78165">
        <ele>173.60000610352</ele>
        <time>2011-04-19T13:15:53.000Z</time>
      </trkpt>
      <trkpt lat="48.63513" lon="1.78164">
        <ele>173.19999694824</ele>
        <time>2011-04-19T13:15:54.000Z</time>
      </trkpt>
      <trkpt lat="48.63516" lon="1.78149">
        <ele>171.19999694824</ele>
        <time>2011-04-19T13:16:02.000Z</time>
      </trkpt>
      <trkpt lat="48.63519" lon="1.78136">
        <ele>170.19999694824</ele>
        <time>2011-04-19T13:16:09.000Z</time>
      </trkpt>
      <trkpt lat="48.6352" lon="1.78131">
        <ele>170.19999694824</ele>
        <time>2011-04-19T13:16:11.000Z</time>
      </trkpt>
      <trkpt lat="48.63523" lon="1.78117">
        <ele>169.39999389648</ele>
        <time>2011-04-19T13:16:18.000Z</time>
      </trkpt>
      <trkpt lat="48.63525" lon="1.78102">
        <ele>168.80000305176</ele>
        <time>2011-04-19T13:16:25.000Z</time>
      </trkpt>
      <trkpt lat="48.63529" lon="1.78086">
        <ele>164</ele>
        <time>2011-04-19T13:16:33.000Z</time>
      </trkpt>
      <trkpt lat="48.63533" lon="1.78074">
        <ele>161.19999694824</ele>
        <time>2011-04-19T13:16:40.000Z</time>
      </trkpt>
      <trkpt lat="48.63534" lon="1.78065">
        <ele>160.19999694824</ele>
        <time>2011-04-19T13:16:44.000Z</time>
      </trkpt>
      <trkpt lat="48.63538" lon="1.78046">
        <ele>159.80000305176</ele>
        <time>2011-04-19T13:16:53.000Z</time>
      </trkpt>
      <trkpt lat="48.63539" lon="1.78027">
        <ele>160.60000610352</ele>
        <time>2011-04-19T13:17:01.000Z</time>
      </trkpt>
      <trkpt lat="48.6354" lon="1.78007">
        <ele>161.19999694824</ele>
        <time>2011-04-19T13:17:10.000Z</time>
      </trkpt>
      <trkpt lat="48.63541" lon="1.77989">
        <ele>162.19999694824</ele>
        <time>2011-04-19T13:17:18.000Z</time>
      </trkpt>
      <trkpt lat="48.63541" lon="1.77975">
        <ele>162.60000610352</ele>
        <time>2011-04-19T13:17:25.000Z</time>
      </trkpt>
      <trkpt lat="48.63543" lon="1.77957">
        <ele>162.19999694824</ele>
        <time>2011-04-19T13:17:34.000Z</time>
      </trkpt>
      <trkpt lat="48.63545" lon="1.77943">
        <ele>162.19999694824</ele>
        <time>2011-04-19T13:17:42.000Z</time>
      </trkpt>
      <trkpt lat="48.63547" lon="1.77927">
        <ele>161.60000610352</ele>
        <time>2011-04-19T13:17:50.000Z</time>
      </trkpt>
      <trkpt lat="48.63548" lon="1.77919">
        <ele>161.19999694824</ele>
        <time>2011-04-19T13:17:56.000Z</time>
      </trkpt>
      <trkpt lat="48.63549" lon="1.7791">
        <ele>160.60000610352</ele>
        <time>2011-04-19T13:18:07.000Z</time>
      </trkpt>
      <trkpt lat="48.6355" lon="1.77893">
        <ele>160.60000610352</ele>
        <time>2011-04-19T13:18:14.000Z</time>
      </trkpt>
      <trkpt lat="48.63551" lon="1.77877">
        <ele>161.19999694824</ele>
        <time>2011-04-19T13:18:22.000Z</time>
      </trkpt>
      <trkpt lat="48.63552" lon="1.77863">
        <ele>161.19999694824</ele>
        <time>2011-04-19T13:18:30.000Z</time>
      </trkpt>
      <trkpt lat="48.63552" lon="1.77853">
        <ele>161.19999694824</ele>
        <time>2011-04-19T13:18:35.000Z</time>
      </trkpt>
      <trkpt lat="48.63553" lon="1.77846">
        <ele>160.60000610352</ele>
        <time>2011-04-19T13:18:39.000Z</time>
      </trkpt>
      <trkpt lat="48.63553" lon="1.77845">
        <ele>160.60000610352</ele>
        <time>2011-04-19T13:18:42.000Z</time>
      </trkpt>
      <trkpt lat="48.63553" lon="1.77836">
        <ele>162.19999694824</ele>
        <time>2011-04-19T13:18:53.000Z</time>
      </trkpt>
      <trkpt lat="48.63554" lon="1.77818">
        <ele>162.19999694824</ele>
        <time>2011-04-19T13:19:02.000Z</time>
      </trkpt>
      <trkpt lat="48.63553" lon="1.778">
        <ele>163</ele>
        <time>2011-04-19T13:19:11.000Z</time>
      </trkpt>
      <trkpt lat="48.63553" lon="1.77798">
        <ele>163</ele>
        <time>2011-04-19T13:19:12.000Z</time>
      </trkpt>
      <trkpt lat="48.63553" lon="1.77797">
        <ele>163.60000610352</ele>
        <time>2011-04-19T13:19:15.000Z</time>
      </trkpt>
      <trkpt lat="48.63551" lon="1.77789">
        <ele>166.39999389648</ele>
        <time>2011-04-19T13:19:27.000Z</time>
      </trkpt>
      <trkpt lat="48.63551" lon="1.77774">
        <ele>163</ele>
        <time>2011-04-19T13:19:34.000Z</time>
      </trkpt>
      <trkpt lat="48.63555" lon="1.77761">
        <ele>159.80000305176</ele>
        <time>2011-04-19T13:19:42.000Z</time>
      </trkpt>
      <trkpt lat="48.63556" lon="1.77745">
        <ele>156.80000305176</ele>
        <time>2011-04-19T13:19:50.000Z</time>
      </trkpt>
      <trkpt lat="48.63555" lon="1.7773">
        <ele>156.39999389648</ele>
        <time>2011-04-19T13:19:56.000Z</time>
      </trkpt>
      <trkpt lat="48.63557" lon="1.77717">
        <ele>153.39999389648</ele>
        <time>2011-04-19T13:20:03.000Z</time>
      </trkpt>
      <trkpt lat="48.63555" lon="1.77693">
        <ele>155.39999389648</ele>
        <time>2011-04-19T13:20:13.000Z</time>
      </trkpt>
      <trkpt lat="48.63553" lon="1.77676">
        <ele>157.39999389648</ele>
        <time>2011-04-19T13:20:20.000Z</time>
      </trkpt>
      <trkpt lat="48.6355" lon="1.77663">
        <ele>155.80000305176</ele>
        <time>2011-04-19T13:20:27.000Z</time>
      </trkpt>
      <trkpt lat="48.63548" lon="1.77649">
        <ele>153</ele>
        <time>2011-04-19T13:20:34.000Z</time>
      </trkpt>
      <trkpt lat="48.63546" lon="1.77644">
        <ele>151.60000610352</ele>
        <time>2011-04-19T13:20:36.000Z</time>
      </trkpt>
      <trkpt lat="48.63544" lon="1.77629">
        <ele>148.19999694824</ele>
        <time>2011-04-19T13:20:43.000Z</time>
      </trkpt>
      <trkpt lat="48.63544" lon="1.77624">
        <ele>147.60000610352</ele>
        <time>2011-04-19T13:20:45.000Z</time>
      </trkpt>
      <trkpt lat="48.63538" lon="1.77614">
        <ele>148.19999694824</ele>
        <time>2011-04-19T13:20:51.000Z</time>
      </trkpt>
      <trkpt lat="48.63533" lon="1.77605">
        <ele>148.19999694824</ele>
        <time>2011-04-19T13:20:56.000Z</time>
      </trkpt>
      <trkpt lat="48.63527" lon="1.77591">
        <ele>146.80000305176</ele>
        <time>2011-04-19T13:21:04.000Z</time>
      </trkpt>
      <trkpt lat="48.6352" lon="1.77575">
        <ele>144.39999389648</ele>
        <time>2011-04-19T13:21:13.000Z</time>
      </trkpt>
      <trkpt lat="48.63514" lon="1.77558">
        <ele>143.80000305176</ele>
        <time>2011-04-19T13:21:22.000Z</time>
      </trkpt>
      <trkpt lat="48.63514" lon="1.77557">
        <ele>143.80000305176</ele>
        <time>2011-04-19T13:21:25.000Z</time>
      </trkpt>
      <trkpt lat="48.63507" lon="1.77541">
        <ele>145.80000305176</ele>
        <time>2011-04-19T13:21:57.000Z</time>
      </trkpt>
      <trkpt lat="48.63496" lon="1.77522">
        <ele>143.80000305176</ele>
        <time>2011-04-19T13:22:08.000Z</time>
      </trkpt>
      <trkpt lat="48.63487" lon="1.7751">
        <ele>141.39999389648</ele>
        <time>2011-04-19T13:22:17.000Z</time>
      </trkpt>
      <trkpt lat="48.63476" lon="1.77499">
        <ele>141.39999389648</ele>
        <time>2011-04-19T13:22:26.000Z</time>
      </trkpt>
      <trkpt lat="48.63468" lon="1.77492">
        <ele>139.60000610352</ele>
        <time>2011-04-19T13:22:33.000Z</time>
      </trkpt>
      <trkpt lat="48.6346" lon="1.77483">
        <ele>140.39999389648</ele>
        <time>2011-04-19T13:22:40.000Z</time>
      </trkpt>
      <trkpt lat="48.6345" lon="1.77471">
        <ele>141.39999389648</ele>
        <time>2011-04-19T13:22:49.000Z</time>
      </trkpt>
      <trkpt lat="48.63441" lon="1.77457">
        <ele>143.39999389648</ele>
        <time>2011-04-19T13:22:58.000Z</time>
      </trkpt>
      <trkpt lat="48.63432" lon="1.7744">
        <ele>142.80000305176</ele>
        <time>2011-04-19T13:23:08.000Z</time>
      </trkpt>
      <trkpt lat="48.63423" lon="1.77424">
        <ele>143.39999389648</ele>
        <time>2011-04-19T13:23:18.000Z</time>
      </trkpt>
      <trkpt lat="48.63422" lon="1.77423">
        <ele>143.39999389648</ele>
        <time>2011-04-19T13:23:21.000Z</time>
      </trkpt>
      <trkpt lat="48.63419" lon="1.77417">
        <ele>143.39999389648</ele>
        <time>2011-04-19T13:23:29.000Z</time>
      </trkpt>
      <trkpt lat="48.63408" lon="1.77397">
        <ele>143.80000305176</ele>
        <time>2011-04-19T13:23:39.000Z</time>
      </trkpt>
      <trkpt lat="48.634" lon="1.7738">
        <ele>145.80000305176</ele>
        <time>2011-04-19T13:23:49.000Z</time>
      </trkpt>
      <trkpt lat="48.63395" lon="1.77365">
        <ele>145.19999694824</ele>
        <time>2011-04-19T13:23:57.000Z</time>
      </trkpt>
      <trkpt lat="48.63393" lon="1.77353">
        <ele>145.80000305176</ele>
        <time>2011-04-19T13:24:03.000Z</time>
      </trkpt>
      <trkpt lat="48.63392" lon="1.77333">
        <ele>146.19999694824</ele>
        <time>2011-04-19T13:24:12.000Z</time>
      </trkpt>
      <trkpt lat="48.63394" lon="1.77311">
        <ele>146.80000305176</ele>
        <time>2011-04-19T13:24:22.000Z</time>
      </trkpt>
      <trkpt lat="48.63396" lon="1.77295">
        <ele>148.19999694824</ele>
        <time>2011-04-19T13:24:30.000Z</time>
      </trkpt>
      <trkpt lat="48.63397" lon="1.77275">
        <ele>150.19999694824</ele>
        <time>2011-04-19T13:24:39.000Z</time>
      </trkpt>
      <trkpt lat="48.63399" lon="1.7725">
        <ele>151</ele>
        <time>2011-04-19T13:24:51.000Z</time>
      </trkpt>
      <trkpt lat="48.63401" lon="1.77225">
        <ele>153</ele>
        <time>2011-04-19T13:25:03.000Z</time>
      </trkpt>
      <trkpt lat="48.63402" lon="1.77202">
        <ele>153.39999389648</ele>
        <time>2011-04-19T13:25:13.000Z</time>
      </trkpt>
      <trkpt lat="48.63399" lon="1.77185">
        <ele>153.39999389648</ele>
        <time>2011-04-19T13:25:21.000Z</time>
      </trkpt>
      <trkpt lat="48.63394" lon="1.7717">
        <ele>153.39999389648</ele>
        <time>2011-04-19T13:25:29.000Z</time>
      </trkpt>
      <trkpt lat="48.63388" lon="1.77156">
        <ele>153.39999389648</ele>
        <time>2011-04-19T13:25:38.000Z</time>
      </trkpt>
      <trkpt lat="48.63384" lon="1.77148">
        <ele>154.39999389648</ele>
        <time>2011-04-19T13:25:44.000Z</time>
      </trkpt>
      <trkpt lat="48.63384" lon="1.77147">
        <ele>154</ele>
        <time>2011-04-19T13:25:47.000Z</time>
      </trkpt>
      <trkpt lat="48.63378" lon="1.77131">
        <ele>155.80000305176</ele>
        <time>2011-04-19T13:26:12.000Z</time>
      </trkpt>
      <trkpt lat="48.63375" lon="1.7711">
        <ele>157.80000305176</ele>
        <time>2011-04-19T13:26:22.000Z</time>
      </trkpt>
      <trkpt lat="48.63371" lon="1.77091">
        <ele>157.80000305176</ele>
        <time>2011-04-19T13:26:32.000Z</time>
      </trkpt>
      <trkpt lat="48.63369" lon="1.77068">
        <ele>156.39999389648</ele>
        <time>2011-04-19T13:26:43.000Z</time>
      </trkpt>
      <trkpt lat="48.63367" lon="1.77048">
        <ele>155.80000305176</ele>
        <time>2011-04-19T13:26:53.000Z</time>
      </trkpt>
      <trkpt lat="48.63364" lon="1.77022">
        <ele>155</ele>
        <time>2011-04-19T13:27:05.000Z</time>
      </trkpt>
      <trkpt lat="48.6336" lon="1.76998">
        <ele>155.80000305176</ele>
        <time>2011-04-19T13:27:16.000Z</time>
      </trkpt>
      <trkpt lat="48.63355" lon="1.76982">
        <ele>155.39999389648</ele>
        <time>2011-04-19T13:27:24.000Z</time>
      </trkpt>
      <trkpt lat="48.63348" lon="1.76958">
        <ele>153.39999389648</ele>
        <time>2011-04-19T13:27:36.000Z</time>
      </trkpt>
      <trkpt lat="48.63346" lon="1.76945">
        <ele>152.60000610352</ele>
        <time>2011-04-19T13:27:42.000Z</time>
      </trkpt>
      <trkpt lat="48.6335" lon="1.76935">
        <ele>151</ele>
        <time>2011-04-19T13:27:49.000Z</time>
      </trkpt>
      <trkpt lat="48.63352" lon="1.76926">
        <ele>150.19999694824</ele>
        <time>2011-04-19T13:27:56.000Z</time>
      </trkpt>
      <trkpt lat="48.63353" lon="1.7692">
        <ele>149.19999694824</ele>
        <time>2011-04-19T13:28:01.000Z</time>
      </trkpt>
      <trkpt lat="48.63357" lon="1.76901">
        <ele>148.60000610352</ele>
        <time>2011-04-19T13:28:09.000Z</time>
      </trkpt>
      <trkpt lat="48.63362" lon="1.76878">
        <ele>147.19999694824</ele>
        <time>2011-04-19T13:28:19.000Z</time>
      </trkpt>
      <trkpt lat="48.6337" lon="1.76847">
        <ele>146.80000305176</ele>
        <time>2011-04-19T13:28:34.000Z</time>
      </trkpt>
      <trkpt lat="48.63373" lon="1.76832">
        <ele>145.80000305176</ele>
        <time>2011-04-19T13:28:41.000Z</time>
      </trkpt>
      <trkpt lat="48.63377" lon="1.76817">
        <ele>145.80000305176</ele>
        <time>2011-04-19T13:28:48.000Z</time>
      </trkpt>
      <trkpt lat="48.6338" lon="1.76805">
        <ele>145.80000305176</ele>
        <time>2011-04-19T13:28:54.000Z</time>
      </trkpt>
      <trkpt lat="48.63384" lon="1.76786">
        <ele>145.19999694824</ele>
        <time>2011-04-19T13:29:03.000Z</time>
      </trkpt>
      <trkpt lat="48.63388" lon="1.76769">
        <ele>144.80000305176</ele>
        <time>2011-04-19T13:29:11.000Z</time>
      </trkpt>
      <trkpt lat="48.63392" lon="1.76753">
        <ele>144.39999389648</ele>
        <time>2011-04-19T13:29:19.000Z</time>
      </trkpt>
      <trkpt lat="48.63394" lon="1.7674">
        <ele>144.39999389648</ele>
        <time>2011-04-19T13:29:25.000Z</time>
      </trkpt>
      <trkpt lat="48.63397" lon="1.7672">
        <ele>144.39999389648</ele>
        <time>2011-04-19T13:29:34.000Z</time>
      </trkpt>
      <trkpt lat="48.63401" lon="1.76702">
        <ele>143.39999389648</ele>
        <time>2011-04-19T13:29:42.000Z</time>
      </trkpt>
      <trkpt lat="48.63404" lon="1.76684">
        <ele>142</ele>
        <time>2011-04-19T13:29:50.000Z</time>
      </trkpt>
      <trkpt lat="48.63403" lon="1.76672">
        <ele>142.80000305176</ele>
        <time>2011-04-19T13:29:56.000Z</time>
      </trkpt>
      <trkpt lat="48.63403" lon="1.76666">
        <ele>142.80000305176</ele>
        <time>2011-04-19T13:29:59.000Z</time>
      </trkpt>
      <trkpt lat="48.63404" lon="1.76654">
        <ele>142</ele>
        <time>2011-04-19T13:30:05.000Z</time>
      </trkpt>
      <trkpt lat="48.63406" lon="1.7664">
        <ele>144.80000305176</ele>
        <time>2011-04-19T13:30:13.000Z</time>
      </trkpt>
      <trkpt lat="48.63407" lon="1.76637">
        <ele>144.80000305176</ele>
        <time>2011-04-19T13:30:15.000Z</time>
      </trkpt>
      <trkpt lat="48.63409" lon="1.76634">
        <ele>144.39999389648</ele>
        <time>2011-04-19T13:30:17.000Z</time>
      </trkpt>
      <trkpt lat="48.6341" lon="1.76627">
        <ele>143.39999389648</ele>
        <time>2011-04-19T13:30:23.000Z</time>
      </trkpt>
      <trkpt lat="48.63409" lon="1.76626">
        <ele>142</ele>
        <time>2011-04-19T13:30:28.000Z</time>
      </trkpt>
      <trkpt lat="48.63408" lon="1.76623">
        <ele>143.39999389648</ele>
        <time>2011-04-19T13:30:31.000Z</time>
      </trkpt>
      <trkpt lat="48.63407" lon="1.76636">
        <ele>151.60000610352</ele>
        <time>2011-04-19T13:34:18.000Z</time>
      </trkpt>
      <trkpt lat="48.63405" lon="1.76631">
        <ele>153</ele>
        <time>2011-04-19T13:34:23.000Z</time>
      </trkpt>
      <trkpt lat="48.63418" lon="1.76626">
        <ele>136.19999694824</ele>
        <time>2011-04-19T13:46:48.000Z</time>
      </trkpt>
      <trkpt lat="48.63423" lon="1.76613">
        <ele>134.80000305176</ele>
        <time>2011-04-19T13:46:54.000Z</time>
      </trkpt>
      <trkpt lat="48.63429" lon="1.76601">
        <ele>133.80000305176</ele>
        <time>2011-04-19T13:47:01.000Z</time>
      </trkpt>
      <trkpt lat="48.6344" lon="1.76587">
        <ele>132.39999389648</ele>
        <time>2011-04-19T13:47:11.000Z</time>
      </trkpt>
      <trkpt lat="48.63455" lon="1.76577">
        <ele>134.80000305176</ele>
        <time>2011-04-19T13:47:21.000Z</time>
      </trkpt>
      <trkpt lat="48.63469" lon="1.76572">
        <ele>136.60000610352</ele>
        <time>2011-04-19T13:47:31.000Z</time>
      </trkpt>
      <trkpt lat="48.6348" lon="1.76569">
        <ele>136.19999694824</ele>
        <time>2011-04-19T13:47:39.000Z</time>
      </trkpt>
      <trkpt lat="48.63484" lon="1.76568">
        <ele>136.19999694824</ele>
        <time>2011-04-19T13:47:42.000Z</time>
      </trkpt>
      <trkpt lat="48.63494" lon="1.76566">
        <ele>137.60000610352</ele>
        <time>2011-04-19T13:47:48.000Z</time>
      </trkpt>
      <trkpt lat="48.63504" lon="1.76564">
        <ele>138</ele>
        <time>2011-04-19T13:47:55.000Z</time>
      </trkpt>
      <trkpt lat="48.63508" lon="1.76563">
        <ele>138</ele>
        <time>2011-04-19T13:47:58.000Z</time>
      </trkpt>
      <trkpt lat="48.63513" lon="1.76554">
        <ele>138.60000610352</ele>
        <time>2011-04-19T13:48:06.000Z</time>
      </trkpt>
      <trkpt lat="48.63517" lon="1.76548">
        <ele>138</ele>
        <time>2011-04-19T13:48:14.000Z</time>
      </trkpt>
      <trkpt lat="48.63508" lon="1.76521">
        <ele>136.19999694824</ele>
        <time>2011-04-19T13:49:08.000Z</time>
      </trkpt>
      <trkpt lat="48.63503" lon="1.76511">
        <ele>137.19999694824</ele>
        <time>2011-04-19T13:49:13.000Z</time>
      </trkpt>
      <trkpt lat="48.635" lon="1.76498">
        <ele>136.60000610352</ele>
        <time>2011-04-19T13:49:19.000Z</time>
      </trkpt>
      <trkpt lat="48.63499" lon="1.76488">
        <ele>135.19999694824</ele>
        <time>2011-04-19T13:49:24.000Z</time>
      </trkpt>
      <trkpt lat="48.63498" lon="1.76482">
        <ele>135.19999694824</ele>
        <time>2011-04-19T13:49:27.000Z</time>
      </trkpt>
      <trkpt lat="48.63496" lon="1.76472">
        <ele>136.19999694824</ele>
        <time>2011-04-19T13:49:32.000Z</time>
      </trkpt>
      <trkpt lat="48.63495" lon="1.7646">
        <ele>136.60000610352</ele>
        <time>2011-04-19T13:49:38.000Z</time>
      </trkpt>
      <trkpt lat="48.63496" lon="1.76444">
        <ele>133.80000305176</ele>
        <time>2011-04-19T13:49:46.000Z</time>
      </trkpt>
      <trkpt lat="48.63497" lon="1.76442">
        <ele>133.19999694824</ele>
        <time>2011-04-19T13:49:47.000Z</time>
      </trkpt>
      <trkpt lat="48.63496" lon="1.76428">
        <ele>133.80000305176</ele>
        <time>2011-04-19T13:49:54.000Z</time>
      </trkpt>
      <trkpt lat="48.63496" lon="1.7642">
        <ele>133.80000305176</ele>
        <time>2011-04-19T13:49:59.000Z</time>
      </trkpt>
      <trkpt lat="48.63496" lon="1.764">
        <ele>134.80000305176</ele>
        <time>2011-04-19T13:50:09.000Z</time>
      </trkpt>
      <trkpt lat="48.63497" lon="1.76386">
        <ele>135.19999694824</ele>
        <time>2011-04-19T13:50:17.000Z</time>
      </trkpt>
      <trkpt lat="48.63498" lon="1.76373">
        <ele>136.19999694824</ele>
        <time>2011-04-19T13:50:24.000Z</time>
      </trkpt>
      <trkpt lat="48.63498" lon="1.76358">
        <ele>137.19999694824</ele>
        <time>2011-04-19T13:50:31.000Z</time>
      </trkpt>
      <trkpt lat="48.63499" lon="1.76349">
        <ele>134.19999694824</ele>
        <time>2011-04-19T13:50:35.000Z</time>
      </trkpt>
      <trkpt lat="48.63501" lon="1.76336">
        <ele>133.80000305176</ele>
        <time>2011-04-19T13:50:42.000Z</time>
      </trkpt>
      <trkpt lat="48.63506" lon="1.7634">
        <ele>134.80000305176</ele>
        <time>2011-04-19T13:50:46.000Z</time>
      </trkpt>
      <trkpt lat="48.6351" lon="1.76343">
        <ele>136.60000610352</ele>
        <time>2011-04-19T13:50:48.000Z</time>
      </trkpt>
      <trkpt lat="48.63514" lon="1.76344">
        <ele>137.60000610352</ele>
        <time>2011-04-19T13:50:53.000Z</time>
      </trkpt>
      <trkpt lat="48.6352" lon="1.76347">
        <ele>138</ele>
        <time>2011-04-19T13:51:01.000Z</time>
      </trkpt>
      <trkpt lat="48.63521" lon="1.76347">
        <ele>139.60000610352</ele>
        <time>2011-04-19T13:51:02.000Z</time>
      </trkpt>
      <trkpt lat="48.63526" lon="1.76348">
        <ele>142.80000305176</ele>
        <time>2011-04-19T13:51:06.000Z</time>
      </trkpt>
      <trkpt lat="48.63533" lon="1.76347">
        <ele>146.19999694824</ele>
        <time>2011-04-19T13:51:12.000Z</time>
      </trkpt>
      <trkpt lat="48.6354" lon="1.76348">
        <ele>146.80000305176</ele>
        <time>2011-04-19T13:51:17.000Z</time>
      </trkpt>
      <trkpt lat="48.63543" lon="1.76348">
        <ele>146.80000305176</ele>
        <time>2011-04-19T13:51:19.000Z</time>
      </trkpt>
      <trkpt lat="48.63549" lon="1.76349">
        <ele>146.19999694824</ele>
        <time>2011-04-19T13:51:25.000Z</time>
      </trkpt>
      <trkpt lat="48.63553" lon="1.76351">
        <ele>148.60000610352</ele>
        <time>2011-04-19T13:51:28.000Z</time>
      </trkpt>
      <trkpt lat="48.6356" lon="1.76351">
        <ele>148.60000610352</ele>
        <time>2011-04-19T13:51:35.000Z</time>
      </trkpt>
      <trkpt lat="48.63567" lon="1.76347">
        <ele>148.60000610352</ele>
        <time>2011-04-19T13:51:40.000Z</time>
      </trkpt>
      <trkpt lat="48.63573" lon="1.76338">
        <ele>149.19999694824</ele>
        <time>2011-04-19T13:51:47.000Z</time>
      </trkpt>
      <trkpt lat="48.63573" lon="1.76335">
        <ele>151</ele>
        <time>2011-04-19T13:51:49.000Z</time>
      </trkpt>
      <trkpt lat="48.63577" lon="1.76327">
        <ele>151.60000610352</ele>
        <time>2011-04-19T13:51:54.000Z</time>
      </trkpt>
      <trkpt lat="48.63582" lon="1.76317">
        <ele>151</ele>
        <time>2011-04-19T13:52:00.000Z</time>
      </trkpt>
      <trkpt lat="48.63586" lon="1.7631">
        <ele>151.60000610352</ele>
        <time>2011-04-19T13:52:05.000Z</time>
      </trkpt>
      <trkpt lat="48.63589" lon="1.76306">
        <ele>151</ele>
        <time>2011-04-19T13:52:09.000Z</time>
      </trkpt>
      <trkpt lat="48.63592" lon="1.76298">
        <ele>148.60000610352</ele>
        <time>2011-04-19T13:52:14.000Z</time>
      </trkpt>
      <trkpt lat="48.63594" lon="1.76287">
        <ele>147.19999694824</ele>
        <time>2011-04-19T13:52:20.000Z</time>
      </trkpt>
      <trkpt lat="48.63597" lon="1.7628">
        <ele>148.19999694824</ele>
        <time>2011-04-19T13:52:25.000Z</time>
      </trkpt>
      <trkpt lat="48.63603" lon="1.76271">
        <ele>152</ele>
        <time>2011-04-19T13:52:32.000Z</time>
      </trkpt>
      <trkpt lat="48.63608" lon="1.76262">
        <ele>152</ele>
        <time>2011-04-19T13:52:38.000Z</time>
      </trkpt>
      <trkpt lat="48.63608" lon="1.76258">
        <ele>152</ele>
        <time>2011-04-19T13:52:40.000Z</time>
      </trkpt>
      <trkpt lat="48.63609" lon="1.76253">
        <ele>151</ele>
        <time>2011-04-19T13:52:43.000Z</time>
      </trkpt>
      <trkpt lat="48.63614" lon="1.76247">
        <ele>149.60000610352</ele>
        <time>2011-04-19T13:52:48.000Z</time>
      </trkpt>
      <trkpt lat="48.63617" lon="1.76241">
        <ele>149.19999694824</ele>
        <time>2011-04-19T13:52:52.000Z</time>
      </trkpt>
      <trkpt lat="48.63625" lon="1.7623">
        <ele>151</ele>
        <time>2011-04-19T13:53:00.000Z</time>
      </trkpt>
      <trkpt lat="48.63625" lon="1.7622">
        <ele>152</ele>
        <time>2011-04-19T13:53:06.000Z</time>
      </trkpt>
      <trkpt lat="48.63625" lon="1.76218">
        <ele>151.60000610352</ele>
        <time>2011-04-19T13:53:07.000Z</time>
      </trkpt>
      <trkpt lat="48.63623" lon="1.76201">
        <ele>155.39999389648</ele>
        <time>2011-04-19T13:53:14.000Z</time>
      </trkpt>
      <trkpt lat="48.6362" lon="1.76186">
        <ele>156.39999389648</ele>
        <time>2011-04-19T13:53:21.000Z</time>
      </trkpt>
      <trkpt lat="48.63618" lon="1.7618">
        <ele>156.80000305176</ele>
        <time>2011-04-19T13:53:24.000Z</time>
      </trkpt>
      <trkpt lat="48.63616" lon="1.76169">
        <ele>156.39999389648</ele>
        <time>2011-04-19T13:53:31.000Z</time>
      </trkpt>
      <trkpt lat="48.63612" lon="1.76155">
        <ele>156.39999389648</ele>
        <time>2011-04-19T13:53:40.000Z</time>
      </trkpt>
      <trkpt lat="48.6361" lon="1.7615">
        <ele>155.80000305176</ele>
        <time>2011-04-19T13:53:44.000Z</time>
      </trkpt>
      <trkpt lat="48.6361" lon="1.76149">
        <ele>154.39999389648</ele>
        <time>2011-04-19T13:53:47.000Z</time>
      </trkpt>
      <trkpt lat="48.63608" lon="1.76141">
        <ele>155</ele>
        <time>2011-04-19T13:53:56.000Z</time>
      </trkpt>
      <trkpt lat="48.63606" lon="1.76136">
        <ele>154.39999389648</ele>
        <time>2011-04-19T13:53:58.000Z</time>
      </trkpt>
      <trkpt lat="48.63602" lon="1.76121">
        <ele>154.39999389648</ele>
        <time>2011-04-19T13:54:06.000Z</time>
      </trkpt>
      <trkpt lat="48.63598" lon="1.76106">
        <ele>155.80000305176</ele>
        <time>2011-04-19T13:54:14.000Z</time>
      </trkpt>
      <trkpt lat="48.63593" lon="1.76094">
        <ele>157.39999389648</ele>
        <time>2011-04-19T13:54:20.000Z</time>
      </trkpt>
      <trkpt lat="48.63589" lon="1.76079">
        <ele>157.80000305176</ele>
        <time>2011-04-19T13:54:28.000Z</time>
      </trkpt>
      <trkpt lat="48.63586" lon="1.76071">
        <ele>157.80000305176</ele>
        <time>2011-04-19T13:54:32.000Z</time>
      </trkpt>
      <trkpt lat="48.63583" lon="1.76059">
        <ele>156.80000305176</ele>
        <time>2011-04-19T13:54:38.000Z</time>
      </trkpt>
      <trkpt lat="48.63581" lon="1.76051">
        <ele>156.39999389648</ele>
        <time>2011-04-19T13:54:41.000Z</time>
      </trkpt>
      <trkpt lat="48.63576" lon="1.76035">
        <ele>155.80000305176</ele>
        <time>2011-04-19T13:54:48.000Z</time>
      </trkpt>
      <trkpt lat="48.63571" lon="1.76021">
        <ele>155.80000305176</ele>
        <time>2011-04-19T13:54:55.000Z</time>
      </trkpt>
      <trkpt lat="48.63567" lon="1.7601">
        <ele>154.39999389648</ele>
        <time>2011-04-19T13:55:01.000Z</time>
      </trkpt>
      <trkpt lat="48.63565" lon="1.75997">
        <ele>154</ele>
        <time>2011-04-19T13:55:08.000Z</time>
      </trkpt>
      <trkpt lat="48.63562" lon="1.75992">
        <ele>155</ele>
        <time>2011-04-19T13:55:11.000Z</time>
      </trkpt>
      <trkpt lat="48.63559" lon="1.75984">
        <ele>154.39999389648</ele>
        <time>2011-04-19T13:55:15.000Z</time>
      </trkpt>
      <trkpt lat="48.63557" lon="1.75977">
        <ele>153</ele>
        <time>2011-04-19T13:55:18.000Z</time>
      </trkpt>
      <trkpt lat="48.63555" lon="1.75967">
        <ele>152.60000610352</ele>
        <time>2011-04-19T13:55:21.000Z</time>
      </trkpt>
      <trkpt lat="48.63551" lon="1.75954">
        <ele>152</ele>
        <time>2011-04-19T13:55:26.000Z</time>
      </trkpt>
      <trkpt lat="48.63547" lon="1.75942">
        <ele>152</ele>
        <time>2011-04-19T13:55:31.000Z</time>
      </trkpt>
      <trkpt lat="48.63546" lon="1.75939">
        <ele>152</ele>
        <time>2011-04-19T13:55:33.000Z</time>
      </trkpt>
      <trkpt lat="48.63544" lon="1.75936">
        <ele>152.60000610352</ele>
        <time>2011-04-19T13:55:35.000Z</time>
      </trkpt>
      <trkpt lat="48.63541" lon="1.7592">
        <ele>153</ele>
        <time>2011-04-19T13:55:42.000Z</time>
      </trkpt>
      <trkpt lat="48.63539" lon="1.75912">
        <ele>154.39999389648</ele>
        <time>2011-04-19T13:55:47.000Z</time>
      </trkpt>
      <trkpt lat="48.63537" lon="1.75904">
        <ele>151.60000610352</ele>
        <time>2011-04-19T13:55:51.000Z</time>
      </trkpt>
      <trkpt lat="48.63536" lon="1.75896">
        <ele>152.60000610352</ele>
        <time>2011-04-19T13:55:55.000Z</time>
      </trkpt>
      <trkpt lat="48.6353" lon="1.75879">
        <ele>147.60000610352</ele>
        <time>2011-04-19T13:56:03.000Z</time>
      </trkpt>
      <trkpt lat="48.63526" lon="1.75867">
        <ele>148.60000610352</ele>
        <time>2011-04-19T13:56:10.000Z</time>
      </trkpt>
      <trkpt lat="48.63524" lon="1.75859">
        <ele>149.19999694824</ele>
        <time>2011-04-19T13:56:14.000Z</time>
      </trkpt>
      <trkpt lat="48.6352" lon="1.75846">
        <ele>147.60000610352</ele>
        <time>2011-04-19T13:56:21.000Z</time>
      </trkpt>
      <trkpt lat="48.63518" lon="1.75833">
        <ele>149.60000610352</ele>
        <time>2011-04-19T13:56:27.000Z</time>
      </trkpt>
      <trkpt lat="48.63517" lon="1.75831">
        <ele>149.60000610352</ele>
        <time>2011-04-19T13:56:28.000Z</time>
      </trkpt>
      <trkpt lat="48.63513" lon="1.75813">
        <ele>149.19999694824</ele>
        <time>2011-04-19T13:56:36.000Z</time>
      </trkpt>
      <trkpt lat="48.6351" lon="1.75802">
        <ele>150.19999694824</ele>
        <time>2011-04-19T13:56:42.000Z</time>
      </trkpt>
      <trkpt lat="48.63507" lon="1.75792">
        <ele>149.60000610352</ele>
        <time>2011-04-19T13:56:48.000Z</time>
      </trkpt>
      <trkpt lat="48.63502" lon="1.75782">
        <ele>151.60000610352</ele>
        <time>2011-04-19T13:56:54.000Z</time>
      </trkpt>
      <trkpt lat="48.63494" lon="1.75771">
        <ele>150.19999694824</ele>
        <time>2011-04-19T13:57:02.000Z</time>
      </trkpt>
      <trkpt lat="48.63489" lon="1.75763">
        <ele>151.60000610352</ele>
        <time>2011-04-19T13:57:07.000Z</time>
      </trkpt>
      <trkpt lat="48.63482" lon="1.7575">
        <ele>153</ele>
        <time>2011-04-19T13:57:14.000Z</time>
      </trkpt>
      <trkpt lat="48.63482" lon="1.75748">
        <ele>153.39999389648</ele>
        <time>2011-04-19T13:57:15.000Z</time>
      </trkpt>
      <trkpt lat="48.63479" lon="1.75743">
        <ele>152.60000610352</ele>
        <time>2011-04-19T13:57:18.000Z</time>
      </trkpt>
      <trkpt lat="48.63474" lon="1.75733">
        <ele>150.60000610352</ele>
        <time>2011-04-19T13:57:24.000Z</time>
      </trkpt>
      <trkpt lat="48.63471" lon="1.75724">
        <ele>154</ele>
        <time>2011-04-19T13:57:29.000Z</time>
      </trkpt>
      <trkpt lat="48.63465" lon="1.75713">
        <ele>154.39999389648</ele>
        <time>2011-04-19T13:57:36.000Z</time>
      </trkpt>
      <trkpt lat="48.63459" lon="1.757">
        <ele>156.39999389648</ele>
        <time>2011-04-19T13:57:44.000Z</time>
      </trkpt>
      <trkpt lat="48.63457" lon="1.75697">
        <ele>155</ele>
        <time>2011-04-19T13:57:46.000Z</time>
      </trkpt>
      <trkpt lat="48.63451" lon="1.75689">
        <ele>155.80000305176</ele>
        <time>2011-04-19T13:57:52.000Z</time>
      </trkpt>
      <trkpt lat="48.63447" lon="1.7568">
        <ele>156.80000305176</ele>
        <time>2011-04-19T13:57:57.000Z</time>
      </trkpt>
      <trkpt lat="48.63445" lon="1.75676">
        <ele>156.80000305176</ele>
        <time>2011-04-19T13:57:59.000Z</time>
      </trkpt>
      <trkpt lat="48.63442" lon="1.75669">
        <ele>156.39999389648</ele>
        <time>2011-04-19T13:58:02.000Z</time>
      </trkpt>
      <trkpt lat="48.63437" lon="1.75659">
        <ele>152.60000610352</ele>
        <time>2011-04-19T13:58:08.000Z</time>
      </trkpt>
      <trkpt lat="48.63435" lon="1.75655">
        <ele>152.60000610352</ele>
        <time>2011-04-19T13:58:10.000Z</time>
      </trkpt>
      <trkpt lat="48.63432" lon="1.75645">
        <ele>150.60000610352</ele>
        <time>2011-04-19T13:58:14.000Z</time>
      </trkpt>
      <trkpt lat="48.63429" lon="1.75634">
        <ele>150.60000610352</ele>
        <time>2011-04-19T13:58:21.000Z</time>
      </trkpt>
      <trkpt lat="48.63425" lon="1.75626">
        <ele>151</ele>
        <time>2011-04-19T13:58:26.000Z</time>
      </trkpt>
      <trkpt lat="48.63421" lon="1.75615">
        <ele>151.60000610352</ele>
        <time>2011-04-19T13:58:32.000Z</time>
      </trkpt>
      <trkpt lat="48.63417" lon="1.75605">
        <ele>152</ele>
        <time>2011-04-19T13:58:38.000Z</time>
      </trkpt>
      <trkpt lat="48.63412" lon="1.75594">
        <ele>151</ele>
        <time>2011-04-19T13:58:45.000Z</time>
      </trkpt>
      <trkpt lat="48.63404" lon="1.7558">
        <ele>148.60000610352</ele>
        <time>2011-04-19T13:58:54.000Z</time>
      </trkpt>
      <trkpt lat="48.63403" lon="1.75578">
        <ele>148.60000610352</ele>
        <time>2011-04-19T13:58:55.000Z</time>
      </trkpt>
      <trkpt lat="48.63405" lon="1.75562">
        <ele>152</ele>
        <time>2011-04-19T13:59:03.000Z</time>
      </trkpt>
      <trkpt lat="48.63415" lon="1.75556">
        <ele>153</ele>
        <time>2011-04-19T13:59:11.000Z</time>
      </trkpt>
      <trkpt lat="48.63423" lon="1.75551">
        <ele>153.39999389648</ele>
        <time>2011-04-19T13:59:17.000Z</time>
      </trkpt>
      <trkpt lat="48.6343" lon="1.75543">
        <ele>153</ele>
        <time>2011-04-19T13:59:24.000Z</time>
      </trkpt>
      <trkpt lat="48.63437" lon="1.75531">
        <ele>153.39999389648</ele>
        <time>2011-04-19T13:59:32.000Z</time>
      </trkpt>
      <trkpt lat="48.63446" lon="1.75521">
        <ele>153.39999389648</ele>
        <time>2011-04-19T13:59:40.000Z</time>
      </trkpt>
      <trkpt lat="48.63449" lon="1.75517">
        <ele>153.39999389648</ele>
        <time>2011-04-19T13:59:43.000Z</time>
      </trkpt>
      <trkpt lat="48.63456" lon="1.75513">
        <ele>152.60000610352</ele>
        <time>2011-04-19T13:59:47.000Z</time>
      </trkpt>
      <trkpt lat="48.63458" lon="1.75511">
        <ele>152</ele>
        <time>2011-04-19T13:59:49.000Z</time>
      </trkpt>
      <trkpt lat="48.63466" lon="1.75504">
        <ele>150.60000610352</ele>
        <time>2011-04-19T13:59:55.000Z</time>
      </trkpt>
      <trkpt lat="48.63471" lon="1.75498">
        <ele>150.60000610352</ele>
        <time>2011-04-19T14:00:00.000Z</time>
      </trkpt>
      <trkpt lat="48.63477" lon="1.75492">
        <ele>151.60000610352</ele>
        <time>2011-04-19T14:00:07.000Z</time>
      </trkpt>
      <trkpt lat="48.63478" lon="1.7549">
        <ele>152.60000610352</ele>
        <time>2011-04-19T14:00:10.000Z</time>
      </trkpt>
      <trkpt lat="48.6349" lon="1.75447">
        <ele>154.39999389648</ele>
        <time>2011-04-19T14:13:25.000Z</time>
      </trkpt>
      <trkpt lat="48.63489" lon="1.75445">
        <ele>156.80000305176</ele>
        <time>2011-04-19T14:13:26.000Z</time>
      </trkpt>
      <trkpt lat="48.63553" lon="1.75475">
        <ele>162.60000610352</ele>
        <time>2011-04-20T05:57:57.000Z</time>
      </trkpt>
      <trkpt lat="48.63556" lon="1.75474">
        <ele>166</ele>
        <time>2011-04-20T05:57:58.000Z</time>
      </trkpt>
      <trkpt lat="48.63562" lon="1.7548">
        <ele>157.80000305176</ele>
        <time>2011-04-20T05:58:05.000Z</time>
      </trkpt>
      <trkpt lat="48.63563" lon="1.7548">
        <ele>157.39999389648</ele>
        <time>2011-04-20T05:58:06.000Z</time>
      </trkpt>
      <trkpt lat="48.63567" lon="1.75483">
        <ele>154</ele>
        <time>2011-04-20T05:58:10.000Z</time>
      </trkpt>
      <trkpt lat="48.63571" lon="1.75485">
        <ele>153</ele>
        <time>2011-04-20T05:58:13.000Z</time>
      </trkpt>
      <trkpt lat="48.63575" lon="1.75484">
        <ele>152.60000610352</ele>
        <time>2011-04-20T05:58:16.000Z</time>
      </trkpt>
      <trkpt lat="48.63584" lon="1.75487">
        <ele>151</ele>
        <time>2011-04-20T05:58:24.000Z</time>
      </trkpt>
      <trkpt lat="48.63587" lon="1.75489">
        <ele>151</ele>
        <time>2011-04-20T05:58:29.000Z</time>
      </trkpt>
      <trkpt lat="48.63597" lon="1.7549">
        <ele>151.60000610352</ele>
        <time>2011-04-20T05:58:40.000Z</time>
      </trkpt>
      <trkpt lat="48.63606" lon="1.75491">
        <ele>151.60000610352</ele>
        <time>2011-04-20T05:58:47.000Z</time>
      </trkpt>
      <trkpt lat="48.63615" lon="1.75491">
        <ele>152.60000610352</ele>
        <time>2011-04-20T05:58:55.000Z</time>
      </trkpt>
      <trkpt lat="48.63625" lon="1.75492">
        <ele>153.39999389648</ele>
        <time>2011-04-20T05:59:03.000Z</time>
      </trkpt>
      <trkpt lat="48.63634" lon="1.75494">
        <ele>155</ele>
        <time>2011-04-20T05:59:11.000Z</time>
      </trkpt>
      <trkpt lat="48.6364" lon="1.75495">
        <ele>155.39999389648</ele>
        <time>2011-04-20T05:59:16.000Z</time>
      </trkpt>
      <trkpt lat="48.6365" lon="1.75496">
        <ele>156.80000305176</ele>
        <time>2011-04-20T05:59:24.000Z</time>
      </trkpt>
      <trkpt lat="48.63656" lon="1.75498">
        <ele>157.39999389648</ele>
        <time>2011-04-20T05:59:30.000Z</time>
      </trkpt>
      <trkpt lat="48.63665" lon="1.75499">
        <ele>157.80000305176</ele>
        <time>2011-04-20T05:59:37.000Z</time>
      </trkpt>
      <trkpt lat="48.63672" lon="1.75501">
        <ele>158.19999694824</ele>
        <time>2011-04-20T05:59:43.000Z</time>
      </trkpt>
      <trkpt lat="48.63675" lon="1.75502">
        <ele>158.19999694824</ele>
        <time>2011-04-20T05:59:46.000Z</time>
      </trkpt>
      <trkpt lat="48.63681" lon="1.75504">
        <ele>158.19999694824</ele>
        <time>2011-04-20T05:59:51.000Z</time>
      </trkpt>
      <trkpt lat="48.63687" lon="1.75504">
        <ele>158.19999694824</ele>
        <time>2011-04-20T05:59:57.000Z</time>
      </trkpt>
      <trkpt lat="48.63688" lon="1.75505">
        <ele>158.19999694824</ele>
        <time>2011-04-20T05:59:59.000Z</time>
      </trkpt>
      <trkpt lat="48.63694" lon="1.75505">
        <ele>156.80000305176</ele>
        <time>2011-04-20T06:00:04.000Z</time>
      </trkpt>
      <trkpt lat="48.637" lon="1.75508">
        <ele>156.39999389648</ele>
        <time>2011-04-20T06:00:09.000Z</time>
      </trkpt>
      <trkpt lat="48.63706" lon="1.7551">
        <ele>156.80000305176</ele>
        <time>2011-04-20T06:00:15.000Z</time>
      </trkpt>
      <trkpt lat="48.63712" lon="1.7551">
        <ele>156.80000305176</ele>
        <time>2011-04-20T06:00:19.000Z</time>
      </trkpt>
      <trkpt lat="48.63714" lon="1.7551">
        <ele>157.39999389648</ele>
        <time>2011-04-20T06:00:21.000Z</time>
      </trkpt>
      <trkpt lat="48.63722" lon="1.75513">
        <ele>157.39999389648</ele>
        <time>2011-04-20T06:00:28.000Z</time>
      </trkpt>
      <trkpt lat="48.63726" lon="1.75514">
        <ele>157.80000305176</ele>
        <time>2011-04-20T06:00:32.000Z</time>
      </trkpt>
      <trkpt lat="48.63729" lon="1.75515">
        <ele>157.80000305176</ele>
        <time>2011-04-20T06:00:35.000Z</time>
      </trkpt>
      <trkpt lat="48.63735" lon="1.75518">
        <ele>158.19999694824</ele>
        <time>2011-04-20T06:00:41.000Z</time>
      </trkpt>
      <trkpt lat="48.63736" lon="1.75519">
        <ele>158.19999694824</ele>
        <time>2011-04-20T06:00:42.000Z</time>
      </trkpt>
      <trkpt lat="48.63741" lon="1.7552">
        <ele>158.19999694824</ele>
        <time>2011-04-20T06:00:47.000Z</time>
      </trkpt>
      <trkpt lat="48.63744" lon="1.75522">
        <ele>158.19999694824</ele>
        <time>2011-04-20T06:00:49.000Z</time>
      </trkpt>
      <trkpt lat="48.63751" lon="1.75526">
        <ele>156.39999389648</ele>
        <time>2011-04-20T06:00:57.000Z</time>
      </trkpt>
      <trkpt lat="48.63758" lon="1.75525">
        <ele>159.19999694824</ele>
        <time>2011-04-20T06:01:03.000Z</time>
      </trkpt>
      <trkpt lat="48.63763" lon="1.75525">
        <ele>160.60000610352</ele>
        <time>2011-04-20T06:01:08.000Z</time>
      </trkpt>
      <trkpt lat="48.6377" lon="1.75527">
        <ele>160.19999694824</ele>
        <time>2011-04-20T06:01:14.000Z</time>
      </trkpt>
      <trkpt lat="48.63779" lon="1.75529">
        <ele>160.60000610352</ele>
        <time>2011-04-20T06:01:23.000Z</time>
      </trkpt>
      <trkpt lat="48.63785" lon="1.75531">
        <ele>160.19999694824</ele>
        <time>2011-04-20T06:01:28.000Z</time>
      </trkpt>
      <trkpt lat="48.63792" lon="1.75533">
        <ele>160.60000610352</ele>
        <time>2011-04-20T06:01:34.000Z</time>
      </trkpt>
      <trkpt lat="48.63794" lon="1.75534">
        <ele>160.60000610352</ele>
        <time>2011-04-20T06:01:36.000Z</time>
      </trkpt>
      <trkpt lat="48.638" lon="1.75537">
        <ele>160.60000610352</ele>
        <time>2011-04-20T06:01:42.000Z</time>
      </trkpt>
      <trkpt lat="48.63805" lon="1.75538">
        <ele>159.80000305176</ele>
        <time>2011-04-20T06:01:47.000Z</time>
      </trkpt>
      <trkpt lat="48.63814" lon="1.75541">
        <ele>159.19999694824</ele>
        <time>2011-04-20T06:01:54.000Z</time>
      </trkpt>
      <trkpt lat="48.63816" lon="1.75541">
        <ele>159.19999694824</ele>
        <time>2011-04-20T06:01:56.000Z</time>
      </trkpt>
      <trkpt lat="48.63819" lon="1.75542">
        <ele>159.19999694824</ele>
        <time>2011-04-20T06:02:00.000Z</time>
      </trkpt>
      <trkpt lat="48.63817" lon="1.75542">
        <ele>158.80000305176</ele>
        <time>2011-04-20T06:02:05.000Z</time>
      </trkpt>
      <trkpt lat="48.63834" lon="1.75545">
        <ele>158.19999694824</ele>
        <time>2011-04-20T06:02:44.000Z</time>
      </trkpt>
      <trkpt lat="48.63839" lon="1.75547">
        <ele>157.39999389648</ele>
        <time>2011-04-20T06:02:47.000Z</time>
      </trkpt>
      <trkpt lat="48.63845" lon="1.75547">
        <ele>158.19999694824</ele>
        <time>2011-04-20T06:02:52.000Z</time>
      </trkpt>
      <trkpt lat="48.63849" lon="1.75548">
        <ele>157.80000305176</ele>
        <time>2011-04-20T06:02:56.000Z</time>
      </trkpt>
      <trkpt lat="48.63854" lon="1.75549">
        <ele>157.80000305176</ele>
        <time>2011-04-20T06:03:00.000Z</time>
      </trkpt>
      <trkpt lat="48.63858" lon="1.75549">
        <ele>157.80000305176</ele>
        <time>2011-04-20T06:03:04.000Z</time>
      </trkpt>
      <trkpt lat="48.63861" lon="1.75551">
        <ele>157.39999389648</ele>
        <time>2011-04-20T06:03:08.000Z</time>
      </trkpt>
      <trkpt lat="48.63866" lon="1.75551">
        <ele>156.80000305176</ele>
        <time>2011-04-20T06:03:12.000Z</time>
      </trkpt>
      <trkpt lat="48.63871" lon="1.7555">
        <ele>156.80000305176</ele>
        <time>2011-04-20T06:03:16.000Z</time>
      </trkpt>
      <trkpt lat="48.63877" lon="1.7555">
        <ele>156.39999389648</ele>
        <time>2011-04-20T06:03:22.000Z</time>
      </trkpt>
      <trkpt lat="48.6388" lon="1.75547">
        <ele>157.80000305176</ele>
        <time>2011-04-20T06:03:25.000Z</time>
      </trkpt>
      <trkpt lat="48.63881" lon="1.75547">
        <ele>157.80000305176</ele>
        <time>2011-04-20T06:03:26.000Z</time>
      </trkpt>
      <trkpt lat="48.63884" lon="1.75546">
        <ele>158.80000305176</ele>
        <time>2011-04-20T06:03:30.000Z</time>
      </trkpt>
      <trkpt lat="48.63895" lon="1.75541">
        <ele>158.19999694824</ele>
        <time>2011-04-20T06:04:07.000Z</time>
      </trkpt>
      <trkpt lat="48.63903" lon="1.75538">
        <ele>158.19999694824</ele>
        <time>2011-04-20T06:04:13.000Z</time>
      </trkpt>
      <trkpt lat="48.63907" lon="1.75537">
        <ele>158.80000305176</ele>
        <time>2011-04-20T06:04:17.000Z</time>
      </trkpt>
      <trkpt lat="48.63915" lon="1.75536">
        <ele>159.19999694824</ele>
        <time>2011-04-20T06:04:23.000Z</time>
      </trkpt>
      <trkpt lat="48.63919" lon="1.75537">
        <ele>160.19999694824</ele>
        <time>2011-04-20T06:04:26.000Z</time>
      </trkpt>
      <trkpt lat="48.63922" lon="1.75544">
        <ele>159.19999694824</ele>
        <time>2011-04-20T06:04:31.000Z</time>
      </trkpt>
      <trkpt lat="48.63925" lon="1.75549">
        <ele>159.80000305176</ele>
        <time>2011-04-20T06:04:35.000Z</time>
      </trkpt>
      <trkpt lat="48.63926" lon="1.75556">
        <ele>159.80000305176</ele>
        <time>2011-04-20T06:04:39.000Z</time>
      </trkpt>
      <trkpt lat="48.63927" lon="1.75567">
        <ele>159.19999694824</ele>
        <time>2011-04-20T06:04:45.000Z</time>
      </trkpt>
      <trkpt lat="48.63927" lon="1.7557">
        <ele>158.80000305176</ele>
        <time>2011-04-20T06:04:46.000Z</time>
      </trkpt>
      <trkpt lat="48.63926" lon="1.75583">
        <ele>158.19999694824</ele>
        <time>2011-04-20T06:04:53.000Z</time>
      </trkpt>
      <trkpt lat="48.63926" lon="1.75587">
        <ele>158.19999694824</ele>
        <time>2011-04-20T06:04:55.000Z</time>
      </trkpt>
      <trkpt lat="48.63928" lon="1.75592">
        <ele>158.19999694824</ele>
        <time>2011-04-20T06:04:59.000Z</time>
      </trkpt>
      <trkpt lat="48.6393" lon="1.756">
        <ele>157.39999389648</ele>
        <time>2011-04-20T06:05:03.000Z</time>
      </trkpt>
      <trkpt lat="48.63935" lon="1.75612">
        <ele>156.39999389648</ele>
        <time>2011-04-20T06:05:11.000Z</time>
      </trkpt>
      <trkpt lat="48.6394" lon="1.75625">
        <ele>155.39999389648</ele>
        <time>2011-04-20T06:05:19.000Z</time>
      </trkpt>
      <trkpt lat="48.63945" lon="1.75634">
        <ele>155.39999389648</ele>
        <time>2011-04-20T06:05:25.000Z</time>
      </trkpt>
      <trkpt lat="48.63946" lon="1.75636">
        <ele>155.39999389648</ele>
        <time>2011-04-20T06:05:26.000Z</time>
      </trkpt>
      <trkpt lat="48.63952" lon="1.75645">
        <ele>155</ele>
        <time>2011-04-20T06:05:33.000Z</time>
      </trkpt>
      <trkpt lat="48.63957" lon="1.75653">
        <ele>155</ele>
        <time>2011-04-20T06:05:39.000Z</time>
      </trkpt>
      <trkpt lat="48.63961" lon="1.7566">
        <ele>155.39999389648</ele>
        <time>2011-04-20T06:05:45.000Z</time>
      </trkpt>
      <trkpt lat="48.63966" lon="1.7567">
        <ele>155</ele>
        <time>2011-04-20T06:05:52.000Z</time>
      </trkpt>
      <trkpt lat="48.63969" lon="1.75678">
        <ele>155.39999389648</ele>
        <time>2011-04-20T06:05:57.000Z</time>
      </trkpt>
      <trkpt lat="48.63971" lon="1.75692">
        <ele>155</ele>
        <time>2011-04-20T06:06:04.000Z</time>
      </trkpt>
      <trkpt lat="48.63974" lon="1.75706">
        <ele>154.39999389648</ele>
        <time>2011-04-20T06:06:12.000Z</time>
      </trkpt>
      <trkpt lat="48.63976" lon="1.75719">
        <ele>154</ele>
        <time>2011-04-20T06:06:19.000Z</time>
      </trkpt>
      <trkpt lat="48.63978" lon="1.75728">
        <ele>154</ele>
        <time>2011-04-20T06:06:25.000Z</time>
      </trkpt>
      <trkpt lat="48.63978" lon="1.75738">
        <ele>153</ele>
        <time>2011-04-20T06:06:32.000Z</time>
      </trkpt>
      <trkpt lat="48.6398" lon="1.7574">
        <ele>154.39999389648</ele>
        <time>2011-04-20T06:06:38.000Z</time>
      </trkpt>
      <trkpt lat="48.6398" lon="1.7574">
        <ele>154.39999389648</ele>
        <time>2011-04-20T06:06:39.000Z</time>
      </trkpt>
      <trkpt lat="48.63992" lon="1.7581">
        <ele>154</ele>
        <time>2011-04-20T06:09:01.000Z</time>
      </trkpt>
      <trkpt lat="48.63994" lon="1.75824">
        <ele>154</ele>
        <time>2011-04-20T06:09:08.000Z</time>
      </trkpt>
      <trkpt lat="48.63996" lon="1.7584">
        <ele>154.39999389648</ele>
        <time>2011-04-20T06:09:17.000Z</time>
      </trkpt>
      <trkpt lat="48.63997" lon="1.75852">
        <ele>154.39999389648</ele>
        <time>2011-04-20T06:09:25.000Z</time>
      </trkpt>
      <trkpt lat="48.63997" lon="1.75852">
        <ele>154.39999389648</ele>
        <time>2011-04-20T06:09:26.000Z</time>
      </trkpt>
      <trkpt lat="48.64" lon="1.75884">
        <ele>153</ele>
        <time>2011-04-20T06:09:47.000Z</time>
      </trkpt>
      <trkpt lat="48.64001" lon="1.75901">
        <ele>152</ele>
        <time>2011-04-20T06:09:55.000Z</time>
      </trkpt>
      <trkpt lat="48.64001" lon="1.75916">
        <ele>150.60000610352</ele>
        <time>2011-04-20T06:10:03.000Z</time>
      </trkpt>
      <trkpt lat="48.64002" lon="1.75934">
        <ele>149.60000610352</ele>
        <time>2011-04-20T06:10:12.000Z</time>
      </trkpt>
      <trkpt lat="48.64003" lon="1.75951">
        <ele>148.19999694824</ele>
        <time>2011-04-20T06:10:20.000Z</time>
      </trkpt>
      <trkpt lat="48.64004" lon="1.75962">
        <ele>147.19999694824</ele>
        <time>2011-04-20T06:10:25.000Z</time>
      </trkpt>
      <trkpt lat="48.64004" lon="1.75966">
        <ele>147.19999694824</ele>
        <time>2011-04-20T06:10:27.000Z</time>
      </trkpt>
      <trkpt lat="48.64003" lon="1.75989">
        <ele>145.80000305176</ele>
        <time>2011-04-20T06:10:38.000Z</time>
      </trkpt>
      <trkpt lat="48.64002" lon="1.76009">
        <ele>144.80000305176</ele>
        <time>2011-04-20T06:10:48.000Z</time>
      </trkpt>
      <trkpt lat="48.64" lon="1.76023">
        <ele>143.80000305176</ele>
        <time>2011-04-20T06:10:56.000Z</time>
      </trkpt>
      <trkpt lat="48.63999" lon="1.7603">
        <ele>143.39999389648</ele>
        <time>2011-04-20T06:11:00.000Z</time>
      </trkpt>
      <trkpt lat="48.63997" lon="1.76039">
        <ele>143.39999389648</ele>
        <time>2011-04-20T06:11:05.000Z</time>
      </trkpt>
      <trkpt lat="48.63996" lon="1.76051">
        <ele>143.80000305176</ele>
        <time>2011-04-20T06:11:10.000Z</time>
      </trkpt>
      <trkpt lat="48.63995" lon="1.76062">
        <ele>145.19999694824</ele>
        <time>2011-04-20T06:11:17.000Z</time>
      </trkpt>
      <trkpt lat="48.63993" lon="1.76072">
        <ele>146.19999694824</ele>
        <time>2011-04-20T06:11:22.000Z</time>
      </trkpt>
      <trkpt lat="48.63992" lon="1.76073">
        <ele>146.19999694824</ele>
        <time>2011-04-20T06:11:23.000Z</time>
      </trkpt>
      <trkpt lat="48.63992" lon="1.76079">
        <ele>145.80000305176</ele>
        <time>2011-04-20T06:11:26.000Z</time>
      </trkpt>
      <trkpt lat="48.6399" lon="1.76096">
        <ele>144.39999389648</ele>
        <time>2011-04-20T06:11:35.000Z</time>
      </trkpt>
      <trkpt lat="48.63989" lon="1.76108">
        <ele>143.39999389648</ele>
        <time>2011-04-20T06:11:42.000Z</time>
      </trkpt>
      <trkpt lat="48.63988" lon="1.76128">
        <ele>142.80000305176</ele>
        <time>2011-04-20T06:11:51.000Z</time>
      </trkpt>
      <trkpt lat="48.63987" lon="1.76143">
        <ele>142.39999389648</ele>
        <time>2011-04-20T06:11:58.000Z</time>
      </trkpt>
      <trkpt lat="48.63987" lon="1.76151">
        <ele>144.39999389648</ele>
        <time>2011-04-20T06:12:03.000Z</time>
      </trkpt>
      <trkpt lat="48.63989" lon="1.76159">
        <ele>145.19999694824</ele>
        <time>2011-04-20T06:12:08.000Z</time>
      </trkpt>
      <trkpt lat="48.63988" lon="1.76166">
        <ele>146.19999694824</ele>
        <time>2011-04-20T06:12:13.000Z</time>
      </trkpt>
      <trkpt lat="48.63988" lon="1.76171">
        <ele>145.80000305176</ele>
        <time>2011-04-20T06:12:18.000Z</time>
      </trkpt>
      <trkpt lat="48.63988" lon="1.76181">
        <ele>145.19999694824</ele>
        <time>2011-04-20T06:12:24.000Z</time>
      </trkpt>
      <trkpt lat="48.63989" lon="1.7619">
        <ele>144.80000305176</ele>
        <time>2011-04-20T06:12:29.000Z</time>
      </trkpt>
      <trkpt lat="48.63991" lon="1.76201">
        <ele>144.39999389648</ele>
        <time>2011-04-20T06:12:35.000Z</time>
      </trkpt>
      <trkpt lat="48.63992" lon="1.76205">
        <ele>143.80000305176</ele>
        <time>2011-04-20T06:12:37.000Z</time>
      </trkpt>
      <trkpt lat="48.63993" lon="1.76211">
        <ele>144.80000305176</ele>
        <time>2011-04-20T06:12:41.000Z</time>
      </trkpt>
      <trkpt lat="48.63994" lon="1.76221">
        <ele>144.39999389648</ele>
        <time>2011-04-20T06:12:46.000Z</time>
      </trkpt>
      <trkpt lat="48.63995" lon="1.76227">
        <ele>144.39999389648</ele>
        <time>2011-04-20T06:12:50.000Z</time>
      </trkpt>
      <trkpt lat="48.63996" lon="1.76231">
        <ele>144.39999389648</ele>
        <time>2011-04-20T06:12:52.000Z</time>
      </trkpt>
      <trkpt lat="48.63998" lon="1.7624">
        <ele>143.80000305176</ele>
        <time>2011-04-20T06:12:59.000Z</time>
      </trkpt>
      <trkpt lat="48.63999" lon="1.76242">
        <ele>143.80000305176</ele>
        <time>2011-04-20T06:13:00.000Z</time>
      </trkpt>
      <trkpt lat="48.64" lon="1.76253">
        <ele>143.39999389648</ele>
        <time>2011-04-20T06:13:06.000Z</time>
      </trkpt>
      <trkpt lat="48.64" lon="1.76254">
        <ele>143.80000305176</ele>
        <time>2011-04-20T06:13:07.000Z</time>
      </trkpt>
      <trkpt lat="48.64002" lon="1.76261">
        <ele>143.39999389648</ele>
        <time>2011-04-20T06:13:11.000Z</time>
      </trkpt>
      <trkpt lat="48.64003" lon="1.76266">
        <ele>143.39999389648</ele>
        <time>2011-04-20T06:13:15.000Z</time>
      </trkpt>
      <trkpt lat="48.64004" lon="1.7627">
        <ele>142.80000305176</ele>
        <time>2011-04-20T06:13:17.000Z</time>
      </trkpt>
      <trkpt lat="48.64006" lon="1.76281">
        <ele>142.39999389648</ele>
        <time>2011-04-20T06:13:23.000Z</time>
      </trkpt>
      <trkpt lat="48.6401" lon="1.76295">
        <ele>142</ele>
        <time>2011-04-20T06:13:31.000Z</time>
      </trkpt>
      <trkpt lat="48.64013" lon="1.76302">
        <ele>141.39999389648</ele>
        <time>2011-04-20T06:13:36.000Z</time>
      </trkpt>
      <trkpt lat="48.64015" lon="1.76303">
        <ele>141.39999389648</ele>
        <time>2011-04-20T06:13:40.000Z</time>
      </trkpt>
      <trkpt lat="48.64033" lon="1.76313">
        <ele>140.39999389648</ele>
        <time>2011-04-20T06:14:54.000Z</time>
      </trkpt>
      <trkpt lat="48.64037" lon="1.7631">
        <ele>139.60000610352</ele>
        <time>2011-04-20T06:14:58.000Z</time>
      </trkpt>
      <trkpt lat="48.64043" lon="1.76305">
        <ele>138.60000610352</ele>
        <time>2011-04-20T06:15:03.000Z</time>
      </trkpt>
      <trkpt lat="48.64043" lon="1.76304">
        <ele>138.60000610352</ele>
        <time>2011-04-20T06:15:04.000Z</time>
      </trkpt>
      <trkpt lat="48.64049" lon="1.76297">
        <ele>135.60000610352</ele>
        <time>2011-04-20T06:15:12.000Z</time>
      </trkpt>
      <trkpt lat="48.64056" lon="1.7629">
        <ele>137.60000610352</ele>
        <time>2011-04-20T06:15:18.000Z</time>
      </trkpt>
      <trkpt lat="48.64063" lon="1.76283">
        <ele>137.60000610352</ele>
        <time>2011-04-20T06:15:24.000Z</time>
      </trkpt>
      <trkpt lat="48.64067" lon="1.76279">
        <ele>137.60000610352</ele>
        <time>2011-04-20T06:15:28.000Z</time>
      </trkpt>
      <trkpt lat="48.64074" lon="1.76274">
        <ele>139</ele>
        <time>2011-04-20T06:15:34.000Z</time>
      </trkpt>
      <trkpt lat="48.64082" lon="1.7627">
        <ele>139</ele>
        <time>2011-04-20T06:15:41.000Z</time>
      </trkpt>
      <trkpt lat="48.64089" lon="1.76265">
        <ele>138</ele>
        <time>2011-04-20T06:15:47.000Z</time>
      </trkpt>
      <trkpt lat="48.64098" lon="1.7626">
        <ele>138</ele>
        <time>2011-04-20T06:15:55.000Z</time>
      </trkpt>
      <trkpt lat="48.6411" lon="1.76252">
        <ele>139</ele>
        <time>2011-04-20T06:16:06.000Z</time>
      </trkpt>
      <trkpt lat="48.6412" lon="1.76246">
        <ele>139.60000610352</ele>
        <time>2011-04-20T06:16:14.000Z</time>
      </trkpt>
      <trkpt lat="48.64128" lon="1.76242">
        <ele>140</ele>
        <time>2011-04-20T06:16:21.000Z</time>
      </trkpt>
      <trkpt lat="48.64136" lon="1.76238">
        <ele>139.60000610352</ele>
        <time>2011-04-20T06:16:27.000Z</time>
      </trkpt>
      <trkpt lat="48.64142" lon="1.76234">
        <ele>140</ele>
        <time>2011-04-20T06:16:32.000Z</time>
      </trkpt>
      <trkpt lat="48.6415" lon="1.7623">
        <ele>139.60000610352</ele>
        <time>2011-04-20T06:16:39.000Z</time>
      </trkpt>
      <trkpt lat="48.64157" lon="1.76228">
        <ele>138</ele>
        <time>2011-04-20T06:16:45.000Z</time>
      </trkpt>
      <trkpt lat="48.64165" lon="1.76223">
        <ele>138</ele>
        <time>2011-04-20T06:16:52.000Z</time>
      </trkpt>
      <trkpt lat="48.64166" lon="1.76222">
        <ele>138.60000610352</ele>
        <time>2011-04-20T06:16:53.000Z</time>
      </trkpt>
      <trkpt lat="48.64172" lon="1.7622">
        <ele>138.60000610352</ele>
        <time>2011-04-20T06:16:58.000Z</time>
      </trkpt>
      <trkpt lat="48.64179" lon="1.76216">
        <ele>139</ele>
        <time>2011-04-20T06:17:04.000Z</time>
      </trkpt>
      <trkpt lat="48.64183" lon="1.76214">
        <ele>139</ele>
        <time>2011-04-20T06:17:08.000Z</time>
      </trkpt>
      <trkpt lat="48.64191" lon="1.7621">
        <ele>138.60000610352</ele>
        <time>2011-04-20T06:17:15.000Z</time>
      </trkpt>
      <trkpt lat="48.64198" lon="1.76205">
        <ele>138.60000610352</ele>
        <time>2011-04-20T06:17:21.000Z</time>
      </trkpt>
      <trkpt lat="48.64201" lon="1.76203">
        <ele>137.60000610352</ele>
        <time>2011-04-20T06:17:24.000Z</time>
      </trkpt>
      <trkpt lat="48.6421" lon="1.762">
        <ele>136.19999694824</ele>
        <time>2011-04-20T06:17:32.000Z</time>
      </trkpt>
      <trkpt lat="48.64218" lon="1.76198">
        <ele>133.80000305176</ele>
        <time>2011-04-20T06:17:40.000Z</time>
      </trkpt>
      <trkpt lat="48.64227" lon="1.76195">
        <ele>133.80000305176</ele>
        <time>2011-04-20T06:17:47.000Z</time>
      </trkpt>
      <trkpt lat="48.64235" lon="1.76192">
        <ele>134.19999694824</ele>
        <time>2011-04-20T06:17:53.000Z</time>
      </trkpt>
      <trkpt lat="48.64242" lon="1.76192">
        <ele>136.19999694824</ele>
        <time>2011-04-20T06:17:59.000Z</time>
      </trkpt>
      <trkpt lat="48.64253" lon="1.76195">
        <ele>138.60000610352</ele>
        <time>2011-04-20T06:18:07.000Z</time>
      </trkpt>
      <trkpt lat="48.64261" lon="1.76199">
        <ele>139</ele>
        <time>2011-04-20T06:18:13.000Z</time>
      </trkpt>
      <trkpt lat="48.6427" lon="1.76206">
        <ele>139.60000610352</ele>
        <time>2011-04-20T06:18:21.000Z</time>
      </trkpt>
      <trkpt lat="48.64275" lon="1.76212">
        <ele>139.60000610352</ele>
        <time>2011-04-20T06:18:26.000Z</time>
      </trkpt>
      <trkpt lat="48.6428" lon="1.7622">
        <ele>139</ele>
        <time>2011-04-20T06:18:32.000Z</time>
      </trkpt>
      <trkpt lat="48.64283" lon="1.76224">
        <ele>139</ele>
        <time>2011-04-20T06:18:35.000Z</time>
      </trkpt>
      <trkpt lat="48.64287" lon="1.7623">
        <ele>138</ele>
        <time>2011-04-20T06:18:41.000Z</time>
      </trkpt>
      <trkpt lat="48.6429" lon="1.76236">
        <ele>136.60000610352</ele>
        <time>2011-04-20T06:18:45.000Z</time>
      </trkpt>
      <trkpt lat="48.64294" lon="1.76243">
        <ele>136.19999694824</ele>
        <time>2011-04-20T06:18:50.000Z</time>
      </trkpt>
      <trkpt lat="48.64295" lon="1.76244">
        <ele>136.19999694824</ele>
        <time>2011-04-20T06:18:51.000Z</time>
      </trkpt>
      <trkpt lat="48.64301" lon="1.76252">
        <ele>137.60000610352</ele>
        <time>2011-04-20T06:18:58.000Z</time>
      </trkpt>
      <trkpt lat="48.64305" lon="1.76261">
        <ele>136.60000610352</ele>
        <time>2011-04-20T06:19:05.000Z</time>
      </trkpt>
      <trkpt lat="48.64308" lon="1.76265">
        <ele>135.19999694824</ele>
        <time>2011-04-20T06:19:12.000Z</time>
      </trkpt>
      <trkpt lat="48.64311" lon="1.76269">
        <ele>135.60000610352</ele>
        <time>2011-04-20T06:19:20.000Z</time>
      </trkpt>
      <trkpt lat="48.64311" lon="1.7627">
        <ele>136.19999694824</ele>
        <time>2011-04-20T06:19:22.000Z</time>
      </trkpt>
      <trkpt lat="48.64319" lon="1.76284">
        <ele>137.60000610352</ele>
        <time>2011-04-20T06:19:36.000Z</time>
      </trkpt>
      <trkpt lat="48.64322" lon="1.76292">
        <ele>139</ele>
        <time>2011-04-20T06:19:40.000Z</time>
      </trkpt>
      <trkpt lat="48.64325" lon="1.763">
        <ele>140</ele>
        <time>2011-04-20T06:19:46.000Z</time>
      </trkpt>
      <trkpt lat="48.64327" lon="1.76305">
        <ele>140</ele>
        <time>2011-04-20T06:19:50.000Z</time>
      </trkpt>
      <trkpt lat="48.64331" lon="1.76315">
        <ele>138</ele>
        <time>2011-04-20T06:19:56.000Z</time>
      </trkpt>
      <trkpt lat="48.64332" lon="1.76316">
        <ele>137.60000610352</ele>
        <time>2011-04-20T06:19:57.000Z</time>
      </trkpt>
      <trkpt lat="48.64334" lon="1.76319">
        <ele>135.60000610352</ele>
        <time>2011-04-20T06:20:00.000Z</time>
      </trkpt>
      <trkpt lat="48.64337" lon="1.7633">
        <ele>134.80000305176</ele>
        <time>2011-04-20T06:20:05.000Z</time>
      </trkpt>
      <trkpt lat="48.64337" lon="1.76335">
        <ele>134.80000305176</ele>
        <time>2011-04-20T06:20:10.000Z</time>
      </trkpt>
      <trkpt lat="48.64342" lon="1.76343">
        <ele>136.19999694824</ele>
        <time>2011-04-20T06:20:26.000Z</time>
      </trkpt>
      <trkpt lat="48.64347" lon="1.7635">
        <ele>136.60000610352</ele>
        <time>2011-04-20T06:20:30.000Z</time>
      </trkpt>
      <trkpt lat="48.64351" lon="1.76358">
        <ele>136.19999694824</ele>
        <time>2011-04-20T06:20:35.000Z</time>
      </trkpt>
      <trkpt lat="48.64355" lon="1.76367">
        <ele>136.19999694824</ele>
        <time>2011-04-20T06:20:41.000Z</time>
      </trkpt>
      <trkpt lat="48.64355" lon="1.76369">
        <ele>136.19999694824</ele>
        <time>2011-04-20T06:20:42.000Z</time>
      </trkpt>
      <trkpt lat="48.64357" lon="1.76378">
        <ele>135.60000610352</ele>
        <time>2011-04-20T06:20:47.000Z</time>
      </trkpt>
      <trkpt lat="48.64359" lon="1.76381">
        <ele>135.60000610352</ele>
        <time>2011-04-20T06:20:51.000Z</time>
      </trkpt>
      <trkpt lat="48.64401" lon="1.76279">
        <ele>140</ele>
        <time>2011-04-20T06:22:41.000Z</time>
      </trkpt>
      <trkpt lat="48.64405" lon="1.76272">
        <ele>141</ele>
        <time>2011-04-20T06:22:45.000Z</time>
      </trkpt>
      <trkpt lat="48.64411" lon="1.76267">
        <ele>140.39999389648</ele>
        <time>2011-04-20T06:22:51.000Z</time>
      </trkpt>
      <trkpt lat="48.64416" lon="1.76263">
        <ele>140.39999389648</ele>
        <time>2011-04-20T06:22:55.000Z</time>
      </trkpt>
      <trkpt lat="48.64423" lon="1.76255">
        <ele>138</ele>
        <time>2011-04-20T06:23:03.000Z</time>
      </trkpt>
      <trkpt lat="48.64431" lon="1.76245">
        <ele>137.60000610352</ele>
        <time>2011-04-20T06:23:11.000Z</time>
      </trkpt>
      <trkpt lat="48.64435" lon="1.7624">
        <ele>137.60000610352</ele>
        <time>2011-04-20T06:23:15.000Z</time>
      </trkpt>
      <trkpt lat="48.64439" lon="1.76227">
        <ele>136.19999694824</ele>
        <time>2011-04-20T06:23:23.000Z</time>
      </trkpt>
      <trkpt lat="48.64443" lon="1.76218">
        <ele>134.19999694824</ele>
        <time>2011-04-20T06:23:29.000Z</time>
      </trkpt>
      <trkpt lat="48.64445" lon="1.76212">
        <ele>134.80000305176</ele>
        <time>2011-04-20T06:23:32.000Z</time>
      </trkpt>
      <trkpt lat="48.64453" lon="1.76202">
        <ele>138.60000610352</ele>
        <time>2011-04-20T06:23:39.000Z</time>
      </trkpt>
      <trkpt lat="48.64458" lon="1.76192">
        <ele>139</ele>
        <time>2011-04-20T06:23:46.000Z</time>
      </trkpt>
      <trkpt lat="48.64458" lon="1.76191">
        <ele>138.60000610352</ele>
        <time>2011-04-20T06:23:47.000Z</time>
      </trkpt>
      <trkpt lat="48.64465" lon="1.76181">
        <ele>137.60000610352</ele>
        <time>2011-04-20T06:23:54.000Z</time>
      </trkpt>
      <trkpt lat="48.64469" lon="1.76171">
        <ele>137.19999694824</ele>
        <time>2011-04-20T06:24:01.000Z</time>
      </trkpt>
      <trkpt lat="48.64472" lon="1.76164">
        <ele>140</ele>
        <time>2011-04-20T06:24:05.000Z</time>
      </trkpt>
      <trkpt lat="48.64475" lon="1.76151">
        <ele>143.80000305176</ele>
        <time>2011-04-20T06:24:12.000Z</time>
      </trkpt>
      <trkpt lat="48.6448" lon="1.76143">
        <ele>145.19999694824</ele>
        <time>2011-04-20T06:24:17.000Z</time>
      </trkpt>
      <trkpt lat="48.64484" lon="1.7613">
        <ele>146.19999694824</ele>
        <time>2011-04-20T06:24:25.000Z</time>
      </trkpt>
      <trkpt lat="48.64485" lon="1.76128">
        <ele>146.19999694824</ele>
        <time>2011-04-20T06:24:26.000Z</time>
      </trkpt>
      <trkpt lat="48.6449" lon="1.76114">
        <ele>147.60000610352</ele>
        <time>2011-04-20T06:24:34.000Z</time>
      </trkpt>
      <trkpt lat="48.64491" lon="1.76112">
        <ele>147.60000610352</ele>
        <time>2011-04-20T06:24:35.000Z</time>
      </trkpt>
      <trkpt lat="48.64497" lon="1.76094">
        <ele>148.60000610352</ele>
        <time>2011-04-20T06:24:45.000Z</time>
      </trkpt>
      <trkpt lat="48.64501" lon="1.76077">
        <ele>148.19999694824</ele>
        <time>2011-04-20T06:24:54.000Z</time>
      </trkpt>
      <trkpt lat="48.64505" lon="1.76059">
        <ele>148.60000610352</ele>
        <time>2011-04-20T06:25:03.000Z</time>
      </trkpt>
      <trkpt lat="48.64509" lon="1.76046">
        <ele>149.60000610352</ele>
        <time>2011-04-20T06:25:10.000Z</time>
      </trkpt>
      <trkpt lat="48.64512" lon="1.76033">
        <ele>146.19999694824</ele>
        <time>2011-04-20T06:25:18.000Z</time>
      </trkpt>
      <trkpt lat="48.64514" lon="1.76023">
        <ele>146.80000305176</ele>
        <time>2011-04-20T06:25:23.000Z</time>
      </trkpt>
      <trkpt lat="48.64518" lon="1.76012">
        <ele>147.19999694824</ele>
        <time>2011-04-20T06:25:29.000Z</time>
      </trkpt>
      <trkpt lat="48.64523" lon="1.75998">
        <ele>145.80000305176</ele>
        <time>2011-04-20T06:25:37.000Z</time>
      </trkpt>
      <trkpt lat="48.64529" lon="1.75985">
        <ele>144.39999389648</ele>
        <time>2011-04-20T06:25:45.000Z</time>
      </trkpt>
      <trkpt lat="48.64531" lon="1.75978">
        <ele>144.80000305176</ele>
        <time>2011-04-20T06:25:49.000Z</time>
      </trkpt>
      <trkpt lat="48.64537" lon="1.75965">
        <ele>144.39999389648</ele>
        <time>2011-04-20T06:25:57.000Z</time>
      </trkpt>
      <trkpt lat="48.64539" lon="1.75961">
        <ele>143.39999389648</ele>
        <time>2011-04-20T06:26:00.000Z</time>
      </trkpt>
      <trkpt lat="48.64546" lon="1.75944">
        <ele>146.80000305176</ele>
        <time>2011-04-20T06:26:09.000Z</time>
      </trkpt>
      <trkpt lat="48.64549" lon="1.7593">
        <ele>151.60000610352</ele>
        <time>2011-04-20T06:26:16.000Z</time>
      </trkpt>
      <trkpt lat="48.64557" lon="1.75916">
        <ele>154</ele>
        <time>2011-04-20T06:26:25.000Z</time>
      </trkpt>
      <trkpt lat="48.64563" lon="1.75906">
        <ele>154.39999389648</ele>
        <time>2011-04-20T06:26:32.000Z</time>
      </trkpt>
      <trkpt lat="48.64569" lon="1.75893">
        <ele>152.60000610352</ele>
        <time>2011-04-20T06:26:41.000Z</time>
      </trkpt>
      <trkpt lat="48.64571" lon="1.75889">
        <ele>152</ele>
        <time>2011-04-20T06:26:44.000Z</time>
      </trkpt>
      <trkpt lat="48.64576" lon="1.7588">
        <ele>152</ele>
        <time>2011-04-20T06:26:50.000Z</time>
      </trkpt>
      <trkpt lat="48.64577" lon="1.75877">
        <ele>151.60000610352</ele>
        <time>2011-04-20T06:26:52.000Z</time>
      </trkpt>
      <trkpt lat="48.64577" lon="1.75875">
        <ele>151.60000610352</ele>
        <time>2011-04-20T06:26:54.000Z</time>
      </trkpt>
      <trkpt lat="48.64582" lon="1.75864">
        <ele>151</ele>
        <time>2011-04-20T06:27:02.000Z</time>
      </trkpt>
      <trkpt lat="48.64583" lon="1.75861">
        <ele>151</ele>
        <time>2011-04-20T06:27:04.000Z</time>
      </trkpt>
      <trkpt lat="48.64591" lon="1.75846">
        <ele>152.60000610352</ele>
        <time>2011-04-20T06:27:13.000Z</time>
      </trkpt>
      <trkpt lat="48.64593" lon="1.7584">
        <ele>154</ele>
        <time>2011-04-20T06:27:17.000Z</time>
      </trkpt>
      <trkpt lat="48.64599" lon="1.75828">
        <ele>155</ele>
        <time>2011-04-20T06:27:25.000Z</time>
      </trkpt>
      <trkpt lat="48.64603" lon="1.75819">
        <ele>153.39999389648</ele>
        <time>2011-04-20T06:27:31.000Z</time>
      </trkpt>
      <trkpt lat="48.64612" lon="1.75804">
        <ele>152.60000610352</ele>
        <time>2011-04-20T06:27:42.000Z</time>
      </trkpt>
      <trkpt lat="48.64619" lon="1.75791">
        <ele>151</ele>
        <time>2011-04-20T06:27:51.000Z</time>
      </trkpt>
      <trkpt lat="48.64622" lon="1.75788">
        <ele>151</ele>
        <time>2011-04-20T06:27:54.000Z</time>
      </trkpt>
      <trkpt lat="48.6463" lon="1.75773">
        <ele>151.60000610352</ele>
        <time>2011-04-20T06:28:04.000Z</time>
      </trkpt>
      <trkpt lat="48.64636" lon="1.75763">
        <ele>153</ele>
        <time>2011-04-20T06:28:12.000Z</time>
      </trkpt>
      <trkpt lat="48.6464" lon="1.75757">
        <ele>153</ele>
        <time>2011-04-20T06:28:16.000Z</time>
      </trkpt>
      <trkpt lat="48.64643" lon="1.75755">
        <ele>155.39999389648</ele>
        <time>2011-04-20T06:28:21.000Z</time>
      </trkpt>
      <trkpt lat="48.6465" lon="1.75741">
        <ele>161.60000610352</ele>
        <time>2011-04-20T06:28:54.000Z</time>
      </trkpt>
      <trkpt lat="48.64657" lon="1.75733">
        <ele>160.19999694824</ele>
        <time>2011-04-20T06:29:00.000Z</time>
      </trkpt>
      <trkpt lat="48.64665" lon="1.75723">
        <ele>159.19999694824</ele>
        <time>2011-04-20T06:29:08.000Z</time>
      </trkpt>
      <trkpt lat="48.64669" lon="1.75718">
        <ele>161.19999694824</ele>
        <time>2011-04-20T06:29:13.000Z</time>
      </trkpt>
      <trkpt lat="48.64675" lon="1.75713">
        <ele>160.60000610352</ele>
        <time>2011-04-20T06:29:18.000Z</time>
      </trkpt>
      <trkpt lat="48.64681" lon="1.75705">
        <ele>159.80000305176</ele>
        <time>2011-04-20T06:29:25.000Z</time>
      </trkpt>
      <trkpt lat="48.64684" lon="1.75701">
        <ele>159.80000305176</ele>
        <time>2011-04-20T06:29:28.000Z</time>
      </trkpt>
      <trkpt lat="48.6469" lon="1.75695">
        <ele>160.19999694824</ele>
        <time>2011-04-20T06:29:34.000Z</time>
      </trkpt>
      <trkpt lat="48.64696" lon="1.75684">
        <ele>161.19999694824</ele>
        <time>2011-04-20T06:29:43.000Z</time>
      </trkpt>
      <trkpt lat="48.647" lon="1.75679">
        <ele>162.19999694824</ele>
        <time>2011-04-20T06:29:47.000Z</time>
      </trkpt>
      <trkpt lat="48.64706" lon="1.75673">
        <ele>159.80000305176</ele>
        <time>2011-04-20T06:29:53.000Z</time>
      </trkpt>
      <trkpt lat="48.64709" lon="1.7567">
        <ele>159.80000305176</ele>
        <time>2011-04-20T06:29:57.000Z</time>
      </trkpt>
      <trkpt lat="48.64714" lon="1.75662">
        <ele>158.19999694824</ele>
        <time>2011-04-20T06:30:02.000Z</time>
      </trkpt>
      <trkpt lat="48.6472" lon="1.75655">
        <ele>157.80000305176</ele>
        <time>2011-04-20T06:30:08.000Z</time>
      </trkpt>
      <trkpt lat="48.64722" lon="1.75651">
        <ele>157.39999389648</ele>
        <time>2011-04-20T06:30:11.000Z</time>
      </trkpt>
      <trkpt lat="48.64723" lon="1.75649">
        <ele>158.19999694824</ele>
        <time>2011-04-20T06:30:13.000Z</time>
      </trkpt>
      <trkpt lat="48.64724" lon="1.75646">
        <ele>159.80000305176</ele>
        <time>2011-04-20T06:30:16.000Z</time>
      </trkpt>
      <trkpt lat="48.6473" lon="1.75637">
        <ele>159.80000305176</ele>
        <time>2011-04-20T06:30:24.000Z</time>
      </trkpt>
      <trkpt lat="48.64735" lon="1.75628">
        <ele>159.19999694824</ele>
        <time>2011-04-20T06:30:31.000Z</time>
      </trkpt>
      <trkpt lat="48.64741" lon="1.75626">
        <ele>159.19999694824</ele>
        <time>2011-04-20T06:30:36.000Z</time>
      </trkpt>
      <trkpt lat="48.64744" lon="1.75622">
        <ele>160.19999694824</ele>
        <time>2011-04-20T06:30:39.000Z</time>
      </trkpt>
      <trkpt lat="48.64746" lon="1.75618">
        <ele>160.19999694824</ele>
        <time>2011-04-20T06:30:42.000Z</time>
      </trkpt>
      <trkpt lat="48.64749" lon="1.75608">
        <ele>160.60000610352</ele>
        <time>2011-04-20T06:30:49.000Z</time>
      </trkpt>
      <trkpt lat="48.64752" lon="1.75603">
        <ele>161.60000610352</ele>
        <time>2011-04-20T06:30:54.000Z</time>
      </trkpt>
      <trkpt lat="48.64758" lon="1.75592">
        <ele>162.19999694824</ele>
        <time>2011-04-20T06:31:01.000Z</time>
      </trkpt>
      <trkpt lat="48.64762" lon="1.75588">
        <ele>161.60000610352</ele>
        <time>2011-04-20T06:31:05.000Z</time>
      </trkpt>
      <trkpt lat="48.64765" lon="1.75585">
        <ele>162.60000610352</ele>
        <time>2011-04-20T06:31:08.000Z</time>
      </trkpt>
      <trkpt lat="48.64774" lon="1.75589">
        <ele>167.39999389648</ele>
        <time>2011-04-20T06:31:14.000Z</time>
      </trkpt>
      <trkpt lat="48.64774" lon="1.75589">
        <ele>167.80000305176</ele>
        <time>2011-04-20T06:31:15.000Z</time>
      </trkpt>
      <trkpt lat="48.64775" lon="1.7559">
        <ele>169.39999389648</ele>
        <time>2011-04-20T06:31:18.000Z</time>
      </trkpt>
      <trkpt lat="48.64776" lon="1.75591">
        <ele>169.80000305176</ele>
        <time>2011-04-20T06:31:21.000Z</time>
      </trkpt>
      <trkpt lat="48.6478" lon="1.75594">
        <ele>173.60000610352</ele>
        <time>2011-04-20T06:31:22.000Z</time>
      </trkpt>
      <trkpt lat="48.64783" lon="1.75598">
        <ele>175</ele>
        <time>2011-04-20T06:31:26.000Z</time>
      </trkpt>
      <trkpt lat="48.6479" lon="1.756">
        <ele>176.60000610352</ele>
        <time>2011-04-20T06:31:33.000Z</time>
      </trkpt>
      <trkpt lat="48.64796" lon="1.75603">
        <ele>178</ele>
        <time>2011-04-20T06:31:38.000Z</time>
      </trkpt>
      <trkpt lat="48.64801" lon="1.75609">
        <ele>179</ele>
        <time>2011-04-20T06:31:43.000Z</time>
      </trkpt>
      <trkpt lat="48.64805" lon="1.75613">
        <ele>176.60000610352</ele>
        <time>2011-04-20T06:31:46.000Z</time>
      </trkpt>
      <trkpt lat="48.6481" lon="1.75619">
        <ele>173.60000610352</ele>
        <time>2011-04-20T06:31:52.000Z</time>
      </trkpt>
      <trkpt lat="48.64817" lon="1.75624">
        <ele>168.39999389648</ele>
        <time>2011-04-20T06:31:58.000Z</time>
      </trkpt>
      <trkpt lat="48.64821" lon="1.75626">
        <ele>167.80000305176</ele>
        <time>2011-04-20T06:32:03.000Z</time>
      </trkpt>
      <trkpt lat="48.64822" lon="1.75626">
        <ele>168.80000305176</ele>
        <time>2011-04-20T06:32:04.000Z</time>
      </trkpt>
      <trkpt lat="48.64828" lon="1.75628">
        <ele>172.19999694824</ele>
        <time>2011-04-20T06:32:08.000Z</time>
      </trkpt>
      <trkpt lat="48.64838" lon="1.7563">
        <ele>171.80000305176</ele>
        <time>2011-04-20T06:32:15.000Z</time>
      </trkpt>
      <trkpt lat="48.64844" lon="1.75635">
        <ele>168.80000305176</ele>
        <time>2011-04-20T06:32:21.000Z</time>
      </trkpt>
      <trkpt lat="48.64847" lon="1.75641">
        <ele>171.19999694824</ele>
        <time>2011-04-20T06:32:25.000Z</time>
      </trkpt>
      <trkpt lat="48.64849" lon="1.75643">
        <ele>171.19999694824</ele>
        <time>2011-04-20T06:32:27.000Z</time>
      </trkpt>
      <trkpt lat="48.64853" lon="1.75651">
        <ele>165.39999389648</ele>
        <time>2011-04-20T06:32:35.000Z</time>
      </trkpt>
      <trkpt lat="48.64857" lon="1.75656">
        <ele>162.60000610352</ele>
        <time>2011-04-20T06:32:40.000Z</time>
      </trkpt>
      <trkpt lat="48.64863" lon="1.75663">
        <ele>164</ele>
        <time>2011-04-20T06:32:45.000Z</time>
      </trkpt>
      <trkpt lat="48.64869" lon="1.75668">
        <ele>165.39999389648</ele>
        <time>2011-04-20T06:32:51.000Z</time>
      </trkpt>
      <trkpt lat="48.64875" lon="1.75676">
        <ele>167</ele>
        <time>2011-04-20T06:32:57.000Z</time>
      </trkpt>
      <trkpt lat="48.6488" lon="1.75685">
        <ele>161.60000610352</ele>
        <time>2011-04-20T06:33:04.000Z</time>
      </trkpt>
      <trkpt lat="48.64887" lon="1.75692">
        <ele>162.19999694824</ele>
        <time>2011-04-20T06:33:14.000Z</time>
      </trkpt>
      <trkpt lat="48.6489" lon="1.75694">
        <ele>161.19999694824</ele>
        <time>2011-04-20T06:33:17.000Z</time>
      </trkpt>
      <trkpt lat="48.64894" lon="1.75703">
        <ele>155.80000305176</ele>
        <time>2011-04-20T06:33:24.000Z</time>
      </trkpt>
      <trkpt lat="48.649" lon="1.75708">
        <ele>154.39999389648</ele>
        <time>2011-04-20T06:33:32.000Z</time>
      </trkpt>
      <trkpt lat="48.64903" lon="1.75715">
        <ele>153</ele>
        <time>2011-04-20T06:33:38.000Z</time>
      </trkpt>
      <trkpt lat="48.64912" lon="1.75722">
        <ele>153.39999389648</ele>
        <time>2011-04-20T06:33:50.000Z</time>
      </trkpt>
      <trkpt lat="48.64917" lon="1.75724">
        <ele>155.39999389648</ele>
        <time>2011-04-20T06:33:56.000Z</time>
      </trkpt>
      <trkpt lat="48.64922" lon="1.75731">
        <ele>157.39999389648</ele>
        <time>2011-04-20T06:34:03.000Z</time>
      </trkpt>
      <trkpt lat="48.64925" lon="1.75735">
        <ele>159.80000305176</ele>
        <time>2011-04-20T06:34:12.000Z</time>
      </trkpt>
      <trkpt lat="48.64941" lon="1.75738">
        <ele>177</ele>
        <time>2011-04-20T06:35:21.000Z</time>
      </trkpt>
      <trkpt lat="48.64945" lon="1.75739">
        <ele>176.60000610352</ele>
        <time>2011-04-20T06:35:26.000Z</time>
      </trkpt>
      <trkpt lat="48.64951" lon="1.75742">
        <ele>172.60000610352</ele>
        <time>2011-04-20T06:35:33.000Z</time>
      </trkpt>
      <trkpt lat="48.64952" lon="1.75742">
        <ele>172.60000610352</ele>
        <time>2011-04-20T06:35:39.000Z</time>
      </trkpt>
      <trkpt lat="48.64975" lon="1.75775">
        <ele>174.60000610352</ele>
        <time>2011-04-20T06:36:32.000Z</time>
      </trkpt>
      <trkpt lat="48.64981" lon="1.75782">
        <ele>177.60000610352</ele>
        <time>2011-04-20T06:36:38.000Z</time>
      </trkpt>
      <trkpt lat="48.64987" lon="1.75785">
        <ele>178.39999389648</ele>
        <time>2011-04-20T06:36:44.000Z</time>
      </trkpt>
      <trkpt lat="48.64993" lon="1.75785">
        <ele>177.60000610352</ele>
        <time>2011-04-20T06:36:51.000Z</time>
      </trkpt>
      <trkpt lat="48.64999" lon="1.75778">
        <ele>173.19999694824</ele>
        <time>2011-04-20T06:36:58.000Z</time>
      </trkpt>
      <trkpt lat="48.64997" lon="1.75774">
        <ele>172.19999694824</ele>
        <time>2011-04-20T06:37:03.000Z</time>
      </trkpt>
      <trkpt lat="48.64996" lon="1.75773">
        <ele>172.19999694824</ele>
        <time>2011-04-20T06:37:04.000Z</time>
      </trkpt>
      <trkpt lat="48.64992" lon="1.75767">
        <ele>172.19999694824</ele>
        <time>2011-04-20T06:37:11.000Z</time>
      </trkpt>
      <trkpt lat="48.6499" lon="1.75761">
        <ele>172.60000610352</ele>
        <time>2011-04-20T06:37:16.000Z</time>
      </trkpt>
      <trkpt lat="48.64987" lon="1.75753">
        <ele>173.60000610352</ele>
        <time>2011-04-20T06:37:23.000Z</time>
      </trkpt>
      <trkpt lat="48.64984" lon="1.75747">
        <ele>172.60000610352</ele>
        <time>2011-04-20T06:37:29.000Z</time>
      </trkpt>
      <trkpt lat="48.64983" lon="1.75742">
        <ele>170.19999694824</ele>
        <time>2011-04-20T06:37:32.000Z</time>
      </trkpt>
      <trkpt lat="48.64982" lon="1.75738">
        <ele>168.39999389648</ele>
        <time>2011-04-20T06:37:35.000Z</time>
      </trkpt>
      <trkpt lat="48.64979" lon="1.7573">
        <ele>166.39999389648</ele>
        <time>2011-04-20T06:37:42.000Z</time>
      </trkpt>
      <trkpt lat="48.64976" lon="1.75727">
        <ele>166.39999389648</ele>
        <time>2011-04-20T06:37:45.000Z</time>
      </trkpt>
      <trkpt lat="48.64975" lon="1.75723">
        <ele>166.39999389648</ele>
        <time>2011-04-20T06:37:48.000Z</time>
      </trkpt>
      <trkpt lat="48.64973" lon="1.75719">
        <ele>166.39999389648</ele>
        <time>2011-04-20T06:37:51.000Z</time>
      </trkpt>
      <trkpt lat="48.64971" lon="1.7571">
        <ele>166.39999389648</ele>
        <time>2011-04-20T06:37:57.000Z</time>
      </trkpt>
      <trkpt lat="48.6497" lon="1.75708">
        <ele>165.39999389648</ele>
        <time>2011-04-20T06:37:59.000Z</time>
      </trkpt>
      <trkpt lat="48.64969" lon="1.75704">
        <ele>164</ele>
        <time>2011-04-20T06:38:01.000Z</time>
      </trkpt>
      <trkpt lat="48.64965" lon="1.75691">
        <ele>160.60000610352</ele>
        <time>2011-04-20T06:38:08.000Z</time>
      </trkpt>
      <trkpt lat="48.64965" lon="1.7569">
        <ele>160.19999694824</ele>
        <time>2011-04-20T06:38:09.000Z</time>
      </trkpt>
      <trkpt lat="48.64963" lon="1.75686">
        <ele>159.19999694824</ele>
        <time>2011-04-20T06:38:13.000Z</time>
      </trkpt>
      <trkpt lat="48.6496" lon="1.75679">
        <ele>160.19999694824</ele>
        <time>2011-04-20T06:38:18.000Z</time>
      </trkpt>
      <trkpt lat="48.64956" lon="1.75674">
        <ele>163.60000610352</ele>
        <time>2011-04-20T06:38:21.000Z</time>
      </trkpt>
      <trkpt lat="48.6495" lon="1.75661">
        <ele>169.80000305176</ele>
        <time>2011-04-20T06:38:29.000Z</time>
      </trkpt>
      <trkpt lat="48.64946" lon="1.75654">
        <ele>171.80000305176</ele>
        <time>2011-04-20T06:38:33.000Z</time>
      </trkpt>
      <trkpt lat="48.64945" lon="1.75649">
        <ele>171.19999694824</ele>
        <time>2011-04-20T06:38:36.000Z</time>
      </trkpt>
      <trkpt lat="48.64951" lon="1.75635">
        <ele>166.39999389648</ele>
        <time>2011-04-20T06:38:43.000Z</time>
      </trkpt>
      <trkpt lat="48.64951" lon="1.75633">
        <ele>166</ele>
        <time>2011-04-20T06:38:44.000Z</time>
      </trkpt>
      <trkpt lat="48.64955" lon="1.75626">
        <ele>166</ele>
        <time>2011-04-20T06:38:48.000Z</time>
      </trkpt>
      <trkpt lat="48.64959" lon="1.75617">
        <ele>165</ele>
        <time>2011-04-20T06:38:53.000Z</time>
      </trkpt>
      <trkpt lat="48.64965" lon="1.75607">
        <ele>161.19999694824</ele>
        <time>2011-04-20T06:39:01.000Z</time>
      </trkpt>
      <trkpt lat="48.6497" lon="1.756">
        <ele>159.80000305176</ele>
        <time>2011-04-20T06:39:06.000Z</time>
      </trkpt>
      <trkpt lat="48.64971" lon="1.75598">
        <ele>159.19999694824</ele>
        <time>2011-04-20T06:39:07.000Z</time>
      </trkpt>
      <trkpt lat="48.64976" lon="1.75589">
        <ele>158.19999694824</ele>
        <time>2011-04-20T06:39:13.000Z</time>
      </trkpt>
      <trkpt lat="48.64977" lon="1.75588">
        <ele>157.80000305176</ele>
        <time>2011-04-20T06:39:14.000Z</time>
      </trkpt>
      <trkpt lat="48.64979" lon="1.75582">
        <ele>157.80000305176</ele>
        <time>2011-04-20T06:39:18.000Z</time>
      </trkpt>
      <trkpt lat="48.64981" lon="1.75578">
        <ele>159.19999694824</ele>
        <time>2011-04-20T06:39:22.000Z</time>
      </trkpt>
      <trkpt lat="48.64982" lon="1.75575">
        <ele>162.19999694824</ele>
        <time>2011-04-20T06:39:27.000Z</time>
      </trkpt>
      <trkpt lat="48.64976" lon="1.75566">
        <ele>172.19999694824</ele>
        <time>2011-04-20T06:40:04.000Z</time>
      </trkpt>
      <trkpt lat="48.64981" lon="1.75558">
        <ele>171.19999694824</ele>
        <time>2011-04-20T06:40:08.000Z</time>
      </trkpt>
      <trkpt lat="48.64982" lon="1.75556">
        <ele>170.19999694824</ele>
        <time>2011-04-20T06:40:09.000Z</time>
      </trkpt>
      <trkpt lat="48.64984" lon="1.75552">
        <ele>168.39999389648</ele>
        <time>2011-04-20T06:40:12.000Z</time>
      </trkpt>
      <trkpt lat="48.64991" lon="1.75544">
        <ele>166.39999389648</ele>
        <time>2011-04-20T06:40:18.000Z</time>
      </trkpt>
      <trkpt lat="48.64994" lon="1.7554">
        <ele>166.39999389648</ele>
        <time>2011-04-20T06:40:22.000Z</time>
      </trkpt>
      <trkpt lat="48.64998" lon="1.75533">
        <ele>164.60000610352</ele>
        <time>2011-04-20T06:40:26.000Z</time>
      </trkpt>
      <trkpt lat="48.65005" lon="1.75521">
        <ele>164</ele>
        <time>2011-04-20T06:40:33.000Z</time>
      </trkpt>
      <trkpt lat="48.65007" lon="1.75515">
        <ele>161.60000610352</ele>
        <time>2011-04-20T06:40:37.000Z</time>
      </trkpt>
      <trkpt lat="48.65016" lon="1.75507">
        <ele>161.60000610352</ele>
        <time>2011-04-20T06:40:44.000Z</time>
      </trkpt>
      <trkpt lat="48.65019" lon="1.75503">
        <ele>161.19999694824</ele>
        <time>2011-04-20T06:40:47.000Z</time>
      </trkpt>
      <trkpt lat="48.65026" lon="1.75493">
        <ele>161.60000610352</ele>
        <time>2011-04-20T06:40:54.000Z</time>
      </trkpt>
      <trkpt lat="48.65029" lon="1.75483">
        <ele>159.19999694824</ele>
        <time>2011-04-20T06:41:00.000Z</time>
      </trkpt>
      <trkpt lat="48.65033" lon="1.75477">
        <ele>158.19999694824</ele>
        <time>2011-04-20T06:41:04.000Z</time>
      </trkpt>
      <trkpt lat="48.6504" lon="1.75466">
        <ele>158.19999694824</ele>
        <time>2011-04-20T06:41:11.000Z</time>
      </trkpt>
      <trkpt lat="48.65042" lon="1.75457">
        <ele>156.39999389648</ele>
        <time>2011-04-20T06:41:16.000Z</time>
      </trkpt>
      <trkpt lat="48.65046" lon="1.75447">
        <ele>156.80000305176</ele>
        <time>2011-04-20T06:41:21.000Z</time>
      </trkpt>
      <trkpt lat="48.6505" lon="1.7544">
        <ele>155.80000305176</ele>
        <time>2011-04-20T06:41:26.000Z</time>
      </trkpt>
      <trkpt lat="48.65053" lon="1.75435">
        <ele>155.39999389648</ele>
        <time>2011-04-20T06:41:30.000Z</time>
      </trkpt>
      <trkpt lat="48.65058" lon="1.75428">
        <ele>154.39999389648</ele>
        <time>2011-04-20T06:41:35.000Z</time>
      </trkpt>
      <trkpt lat="48.65064" lon="1.75415">
        <ele>156.39999389648</ele>
        <time>2011-04-20T06:41:43.000Z</time>
      </trkpt>
      <trkpt lat="48.6507" lon="1.75405">
        <ele>158.19999694824</ele>
        <time>2011-04-20T06:41:50.000Z</time>
      </trkpt>
      <trkpt lat="48.65074" lon="1.75395">
        <ele>160.19999694824</ele>
        <time>2011-04-20T06:41:57.000Z</time>
      </trkpt>
      <trkpt lat="48.65078" lon="1.75385">
        <ele>161.19999694824</ele>
        <time>2011-04-20T06:42:03.000Z</time>
      </trkpt>
      <trkpt lat="48.6508" lon="1.7538">
        <ele>159.80000305176</ele>
        <time>2011-04-20T06:42:06.000Z</time>
      </trkpt>
      <trkpt lat="48.65088" lon="1.75369">
        <ele>156.80000305176</ele>
        <time>2011-04-20T06:42:14.000Z</time>
      </trkpt>
      <trkpt lat="48.65093" lon="1.75357">
        <ele>155</ele>
        <time>2011-04-20T06:42:21.000Z</time>
      </trkpt>
      <trkpt lat="48.65097" lon="1.75351">
        <ele>154.39999389648</ele>
        <time>2011-04-20T06:42:25.000Z</time>
      </trkpt>
      <trkpt lat="48.65101" lon="1.75342">
        <ele>155.39999389648</ele>
        <time>2011-04-20T06:42:31.000Z</time>
      </trkpt>
      <trkpt lat="48.65106" lon="1.75336">
        <ele>155.39999389648</ele>
        <time>2011-04-20T06:42:35.000Z</time>
      </trkpt>
      <trkpt lat="48.65109" lon="1.75329">
        <ele>155.80000305176</ele>
        <time>2011-04-20T06:42:39.000Z</time>
      </trkpt>
      <trkpt lat="48.65111" lon="1.75327">
        <ele>155.80000305176</ele>
        <time>2011-04-20T06:42:41.000Z</time>
      </trkpt>
      <trkpt lat="48.65114" lon="1.75316">
        <ele>155.80000305176</ele>
        <time>2011-04-20T06:42:47.000Z</time>
      </trkpt>
      <trkpt lat="48.65118" lon="1.75311">
        <ele>157.39999389648</ele>
        <time>2011-04-20T06:42:51.000Z</time>
      </trkpt>
      <trkpt lat="48.6512" lon="1.75306">
        <ele>158.19999694824</ele>
        <time>2011-04-20T06:42:54.000Z</time>
      </trkpt>
      <trkpt lat="48.65123" lon="1.75298">
        <ele>158.80000305176</ele>
        <time>2011-04-20T06:42:59.000Z</time>
      </trkpt>
      <trkpt lat="48.65128" lon="1.75289">
        <ele>157.80000305176</ele>
        <time>2011-04-20T06:43:05.000Z</time>
      </trkpt>
      <trkpt lat="48.65132" lon="1.75284">
        <ele>158.19999694824</ele>
        <time>2011-04-20T06:43:09.000Z</time>
      </trkpt>
      <trkpt lat="48.65135" lon="1.75279">
        <ele>159.19999694824</ele>
        <time>2011-04-20T06:43:12.000Z</time>
      </trkpt>
      <trkpt lat="48.65139" lon="1.75267">
        <ele>160.60000610352</ele>
        <time>2011-04-20T06:43:19.000Z</time>
      </trkpt>
      <trkpt lat="48.65144" lon="1.75258">
        <ele>162.19999694824</ele>
        <time>2011-04-20T06:43:24.000Z</time>
      </trkpt>
      <trkpt lat="48.65147" lon="1.7525">
        <ele>160.19999694824</ele>
        <time>2011-04-20T06:43:30.000Z</time>
      </trkpt>
      <trkpt lat="48.65151" lon="1.75245">
        <ele>159.19999694824</ele>
        <time>2011-04-20T06:43:33.000Z</time>
      </trkpt>
      <trkpt lat="48.65155" lon="1.75236">
        <ele>156.80000305176</ele>
        <time>2011-04-20T06:43:39.000Z</time>
      </trkpt>
      <trkpt lat="48.6516" lon="1.7523">
        <ele>155.80000305176</ele>
        <time>2011-04-20T06:43:43.000Z</time>
      </trkpt>
      <trkpt lat="48.65161" lon="1.75228">
        <ele>155.80000305176</ele>
        <time>2011-04-20T06:43:45.000Z</time>
      </trkpt>
      <trkpt lat="48.65167" lon="1.75219">
        <ele>154.39999389648</ele>
        <time>2011-04-20T06:43:51.000Z</time>
      </trkpt>
      <trkpt lat="48.65173" lon="1.75209">
        <ele>151.60000610352</ele>
        <time>2011-04-20T06:43:59.000Z</time>
      </trkpt>
      <trkpt lat="48.65178" lon="1.75201">
        <ele>149.60000610352</ele>
        <time>2011-04-20T06:44:05.000Z</time>
      </trkpt>
      <trkpt lat="48.6518" lon="1.752">
        <ele>149.60000610352</ele>
        <time>2011-04-20T06:44:06.000Z</time>
      </trkpt>
      <trkpt lat="48.65183" lon="1.75192">
        <ele>149.60000610352</ele>
        <time>2011-04-20T06:44:11.000Z</time>
      </trkpt>
      <trkpt lat="48.65186" lon="1.75185">
        <ele>150.19999694824</ele>
        <time>2011-04-20T06:44:15.000Z</time>
      </trkpt>
      <trkpt lat="48.65189" lon="1.75178">
        <ele>151</ele>
        <time>2011-04-20T06:44:19.000Z</time>
      </trkpt>
      <trkpt lat="48.65193" lon="1.7517">
        <ele>152</ele>
        <time>2011-04-20T06:44:24.000Z</time>
      </trkpt>
      <trkpt lat="48.65195" lon="1.75166">
        <ele>153.39999389648</ele>
        <time>2011-04-20T06:44:27.000Z</time>
      </trkpt>
      <trkpt lat="48.652" lon="1.7516">
        <ele>155.39999389648</ele>
        <time>2011-04-20T06:44:32.000Z</time>
      </trkpt>
      <trkpt lat="48.65202" lon="1.75151">
        <ele>155.39999389648</ele>
        <time>2011-04-20T06:44:37.000Z</time>
      </trkpt>
      <trkpt lat="48.65206" lon="1.75144">
        <ele>154.39999389648</ele>
        <time>2011-04-20T06:44:42.000Z</time>
      </trkpt>
      <trkpt lat="48.65209" lon="1.75138">
        <ele>154</ele>
        <time>2011-04-20T06:44:46.000Z</time>
      </trkpt>
      <trkpt lat="48.65217" lon="1.7513">
        <ele>155</ele>
        <time>2011-04-20T06:44:52.000Z</time>
      </trkpt>
      <trkpt lat="48.65221" lon="1.7512">
        <ele>153</ele>
        <time>2011-04-20T06:44:59.000Z</time>
      </trkpt>
      <trkpt lat="48.65223" lon="1.75116">
        <ele>153.39999389648</ele>
        <time>2011-04-20T06:45:02.000Z</time>
      </trkpt>
      <trkpt lat="48.65228" lon="1.75103">
        <ele>152.60000610352</ele>
        <time>2011-04-20T06:45:11.000Z</time>
      </trkpt>
      <trkpt lat="48.65233" lon="1.75093">
        <ele>155</ele>
        <time>2011-04-20T06:45:17.000Z</time>
      </trkpt>
      <trkpt lat="48.65234" lon="1.75091">
        <ele>155</ele>
        <time>2011-04-20T06:45:18.000Z</time>
      </trkpt>
      <trkpt lat="48.65238" lon="1.75086">
        <ele>155.80000305176</ele>
        <time>2011-04-20T06:45:22.000Z</time>
      </trkpt>
      <trkpt lat="48.65242" lon="1.75081">
        <ele>156.39999389648</ele>
        <time>2011-04-20T06:45:25.000Z</time>
      </trkpt>
      <trkpt lat="48.65245" lon="1.75075">
        <ele>155</ele>
        <time>2011-04-20T06:45:29.000Z</time>
      </trkpt>
      <trkpt lat="48.65253" lon="1.75066">
        <ele>153.39999389648</ele>
        <time>2011-04-20T06:45:36.000Z</time>
      </trkpt>
      <trkpt lat="48.65259" lon="1.75059">
        <ele>154</ele>
        <time>2011-04-20T06:45:41.000Z</time>
      </trkpt>
      <trkpt lat="48.6526" lon="1.75054">
        <ele>154</ele>
        <time>2011-04-20T06:45:44.000Z</time>
      </trkpt>
      <trkpt lat="48.65262" lon="1.75048">
        <ele>153</ele>
        <time>2011-04-20T06:45:48.000Z</time>
      </trkpt>
      <trkpt lat="48.65265" lon="1.75045">
        <ele>154</ele>
        <time>2011-04-20T06:45:51.000Z</time>
      </trkpt>
      <trkpt lat="48.65269" lon="1.75034">
        <ele>154</ele>
        <time>2011-04-20T06:45:57.000Z</time>
      </trkpt>
      <trkpt lat="48.65271" lon="1.75031">
        <ele>153.39999389648</ele>
        <time>2011-04-20T06:46:00.000Z</time>
      </trkpt>
      <trkpt lat="48.65275" lon="1.75023">
        <ele>151.60000610352</ele>
        <time>2011-04-20T06:46:06.000Z</time>
      </trkpt>
      <trkpt lat="48.6528" lon="1.75015">
        <ele>150.60000610352</ele>
        <time>2011-04-20T06:46:11.000Z</time>
      </trkpt>
      <trkpt lat="48.6528" lon="1.75013">
        <ele>151</ele>
        <time>2011-04-20T06:46:12.000Z</time>
      </trkpt>
      <trkpt lat="48.65286" lon="1.75003">
        <ele>149.60000610352</ele>
        <time>2011-04-20T06:46:18.000Z</time>
      </trkpt>
      <trkpt lat="48.65286" lon="1.75001">
        <ele>150.19999694824</ele>
        <time>2011-04-20T06:46:19.000Z</time>
      </trkpt>
      <trkpt lat="48.6529" lon="1.74994">
        <ele>150.60000610352</ele>
        <time>2011-04-20T06:46:23.000Z</time>
      </trkpt>
      <trkpt lat="48.65297" lon="1.74981">
        <ele>150.19999694824</ele>
        <time>2011-04-20T06:46:32.000Z</time>
      </trkpt>
      <trkpt lat="48.65301" lon="1.74971">
        <ele>151</ele>
        <time>2011-04-20T06:46:38.000Z</time>
      </trkpt>
      <trkpt lat="48.65303" lon="1.74965">
        <ele>153</ele>
        <time>2011-04-20T06:46:42.000Z</time>
      </trkpt>
      <trkpt lat="48.65313" lon="1.74954">
        <ele>154.39999389648</ele>
        <time>2011-04-20T06:46:51.000Z</time>
      </trkpt>
      <trkpt lat="48.65316" lon="1.7495">
        <ele>154</ele>
        <time>2011-04-20T06:46:55.000Z</time>
      </trkpt>
      <trkpt lat="48.65322" lon="1.74939">
        <ele>153</ele>
        <time>2011-04-20T06:47:02.000Z</time>
      </trkpt>
      <trkpt lat="48.65325" lon="1.74933">
        <ele>153.39999389648</ele>
        <time>2011-04-20T06:47:06.000Z</time>
      </trkpt>
      <trkpt lat="48.65327" lon="1.74925">
        <ele>154</ele>
        <time>2011-04-20T06:47:11.000Z</time>
      </trkpt>
      <trkpt lat="48.65331" lon="1.7492">
        <ele>153.39999389648</ele>
        <time>2011-04-20T06:47:15.000Z</time>
      </trkpt>
      <trkpt lat="48.65336" lon="1.74911">
        <ele>154</ele>
        <time>2011-04-20T06:47:21.000Z</time>
      </trkpt>
      <trkpt lat="48.65339" lon="1.74906">
        <ele>154.39999389648</ele>
        <time>2011-04-20T06:47:24.000Z</time>
      </trkpt>
      <trkpt lat="48.65346" lon="1.74891">
        <ele>155.80000305176</ele>
        <time>2011-04-20T06:47:32.000Z</time>
      </trkpt>
      <trkpt lat="48.65348" lon="1.74888">
        <ele>155.39999389648</ele>
        <time>2011-04-20T06:47:34.000Z</time>
      </trkpt>
      <trkpt lat="48.6535" lon="1.74882">
        <ele>155.39999389648</ele>
        <time>2011-04-20T06:47:38.000Z</time>
      </trkpt>
      <trkpt lat="48.65355" lon="1.74875">
        <ele>157.39999389648</ele>
        <time>2011-04-20T06:47:43.000Z</time>
      </trkpt>
      <trkpt lat="48.65359" lon="1.74867">
        <ele>156.39999389648</ele>
        <time>2011-04-20T06:47:48.000Z</time>
      </trkpt>
      <trkpt lat="48.6536" lon="1.74863">
        <ele>161.60000610352</ele>
        <time>2011-04-20T06:47:51.000Z</time>
      </trkpt>
      <trkpt lat="48.65363" lon="1.74858">
        <ele>165</ele>
        <time>2011-04-20T06:47:56.000Z</time>
      </trkpt>
      <trkpt lat="48.65363" lon="1.74853">
        <ele>168.80000305176</ele>
        <time>2011-04-20T06:48:02.000Z</time>
      </trkpt>
      <trkpt lat="48.65364" lon="1.74853">
        <ele>168.80000305176</ele>
        <time>2011-04-20T06:48:04.000Z</time>
      </trkpt>
      <trkpt lat="48.65367" lon="1.74839">
        <ele>169.80000305176</ele>
        <time>2011-04-20T06:48:49.000Z</time>
      </trkpt>
      <trkpt lat="48.65368" lon="1.74833">
        <ele>166.39999389648</ele>
        <time>2011-04-20T06:48:53.000Z</time>
      </trkpt>
      <trkpt lat="48.65374" lon="1.74824">
        <ele>162.19999694824</ele>
        <time>2011-04-20T06:49:00.000Z</time>
      </trkpt>
      <trkpt lat="48.65375" lon="1.74822">
        <ele>161.60000610352</ele>
        <time>2011-04-20T06:49:01.000Z</time>
      </trkpt>
      <trkpt lat="48.65379" lon="1.74816">
        <ele>160.19999694824</ele>
        <time>2011-04-20T06:49:06.000Z</time>
      </trkpt>
      <trkpt lat="48.65384" lon="1.7481">
        <ele>159.19999694824</ele>
        <time>2011-04-20T06:49:11.000Z</time>
      </trkpt>
      <trkpt lat="48.65391" lon="1.74801">
        <ele>155.80000305176</ele>
        <time>2011-04-20T06:49:19.000Z</time>
      </trkpt>
      <trkpt lat="48.65395" lon="1.74793">
        <ele>156.80000305176</ele>
        <time>2011-04-20T06:49:25.000Z</time>
      </trkpt>
      <trkpt lat="48.65398" lon="1.74787">
        <ele>156.80000305176</ele>
        <time>2011-04-20T06:49:29.000Z</time>
      </trkpt>
      <trkpt lat="48.65405" lon="1.74779">
        <ele>152.60000610352</ele>
        <time>2011-04-20T06:49:36.000Z</time>
      </trkpt>
      <trkpt lat="48.65409" lon="1.74772">
        <ele>151</ele>
        <time>2011-04-20T06:49:41.000Z</time>
      </trkpt>
      <trkpt lat="48.65412" lon="1.74764">
        <ele>151</ele>
        <time>2011-04-20T06:49:46.000Z</time>
      </trkpt>
      <trkpt lat="48.65417" lon="1.74756">
        <ele>153</ele>
        <time>2011-04-20T06:49:52.000Z</time>
      </trkpt>
      <trkpt lat="48.65418" lon="1.74755">
        <ele>152</ele>
        <time>2011-04-20T06:49:53.000Z</time>
      </trkpt>
      <trkpt lat="48.65421" lon="1.74741">
        <ele>154.39999389648</ele>
        <time>2011-04-20T06:50:00.000Z</time>
      </trkpt>
      <trkpt lat="48.65424" lon="1.74735">
        <ele>156.39999389648</ele>
        <time>2011-04-20T06:50:04.000Z</time>
      </trkpt>
      <trkpt lat="48.6543" lon="1.74725">
        <ele>155.39999389648</ele>
        <time>2011-04-20T06:50:10.000Z</time>
      </trkpt>
      <trkpt lat="48.65435" lon="1.74716">
        <ele>155.39999389648</ele>
        <time>2011-04-20T06:50:16.000Z</time>
      </trkpt>
      <trkpt lat="48.6544" lon="1.7471">
        <ele>157.39999389648</ele>
        <time>2011-04-20T06:50:21.000Z</time>
      </trkpt>
      <trkpt lat="48.65442" lon="1.74707">
        <ele>157.39999389648</ele>
        <time>2011-04-20T06:50:23.000Z</time>
      </trkpt>
      <trkpt lat="48.65447" lon="1.74698">
        <ele>158.19999694824</ele>
        <time>2011-04-20T06:50:29.000Z</time>
      </trkpt>
      <trkpt lat="48.65453" lon="1.74691">
        <ele>156.80000305176</ele>
        <time>2011-04-20T06:50:35.000Z</time>
      </trkpt>
      <trkpt lat="48.65455" lon="1.74688">
        <ele>156.39999389648</ele>
        <time>2011-04-20T06:50:37.000Z</time>
      </trkpt>
      <trkpt lat="48.65461" lon="1.74674">
        <ele>157.39999389648</ele>
        <time>2011-04-20T06:50:46.000Z</time>
      </trkpt>
      <trkpt lat="48.65465" lon="1.74666">
        <ele>158.19999694824</ele>
        <time>2011-04-20T06:50:51.000Z</time>
      </trkpt>
      <trkpt lat="48.65467" lon="1.7466">
        <ele>157.39999389648</ele>
        <time>2011-04-20T06:50:55.000Z</time>
      </trkpt>
      <trkpt lat="48.65471" lon="1.74652">
        <ele>157.80000305176</ele>
        <time>2011-04-20T06:51:00.000Z</time>
      </trkpt>
      <trkpt lat="48.65478" lon="1.74639">
        <ele>158.19999694824</ele>
        <time>2011-04-20T06:51:09.000Z</time>
      </trkpt>
      <trkpt lat="48.65479" lon="1.74637">
        <ele>158.19999694824</ele>
        <time>2011-04-20T06:51:10.000Z</time>
      </trkpt>
      <trkpt lat="48.65484" lon="1.74623">
        <ele>159.19999694824</ele>
        <time>2011-04-20T06:51:17.000Z</time>
      </trkpt>
      <trkpt lat="48.65489" lon="1.74611">
        <ele>158.19999694824</ele>
        <time>2011-04-20T06:51:24.000Z</time>
      </trkpt>
      <trkpt lat="48.65494" lon="1.746">
        <ele>159.19999694824</ele>
        <time>2011-04-20T06:51:31.000Z</time>
      </trkpt>
      <trkpt lat="48.65497" lon="1.74595">
        <ele>160.60000610352</ele>
        <time>2011-04-20T06:51:35.000Z</time>
      </trkpt>
      <trkpt lat="48.65501" lon="1.74593">
        <ele>162.19999694824</ele>
        <time>2011-04-20T06:51:40.000Z</time>
      </trkpt>
      <trkpt lat="48.65505" lon="1.74594">
        <ele>165</ele>
        <time>2011-04-20T06:51:43.000Z</time>
      </trkpt>
      <trkpt lat="48.65511" lon="1.74596">
        <ele>167.39999389648</ele>
        <time>2011-04-20T06:51:48.000Z</time>
      </trkpt>
      <trkpt lat="48.65513" lon="1.74593">
        <ele>170.19999694824</ele>
        <time>2011-04-20T06:51:51.000Z</time>
      </trkpt>
      <trkpt lat="48.65517" lon="1.74593">
        <ele>170.80000305176</ele>
        <time>2011-04-20T06:51:54.000Z</time>
      </trkpt>
      <trkpt lat="48.65526" lon="1.74594">
        <ele>171.80000305176</ele>
        <time>2011-04-20T06:52:00.000Z</time>
      </trkpt>
      <trkpt lat="48.65533" lon="1.74595">
        <ele>172.19999694824</ele>
        <time>2011-04-20T06:52:05.000Z</time>
      </trkpt>
      <trkpt lat="48.65534" lon="1.74595">
        <ele>172.60000610352</ele>
        <time>2011-04-20T06:52:06.000Z</time>
      </trkpt>
      <trkpt lat="48.6554" lon="1.74598">
        <ele>174.19999694824</ele>
        <time>2011-04-20T06:52:12.000Z</time>
      </trkpt>
      <trkpt lat="48.65543" lon="1.74598">
        <ele>175</ele>
        <time>2011-04-20T06:52:15.000Z</time>
      </trkpt>
      <trkpt lat="48.65549" lon="1.74598">
        <ele>175.60000610352</ele>
        <time>2011-04-20T06:52:21.000Z</time>
      </trkpt>
      <trkpt lat="48.65551" lon="1.746">
        <ele>175.60000610352</ele>
        <time>2011-04-20T06:52:24.000Z</time>
      </trkpt>
      <trkpt lat="48.65552" lon="1.746">
        <ele>176</ele>
        <time>2011-04-20T06:52:25.000Z</time>
      </trkpt>
      <trkpt lat="48.65561" lon="1.74602">
        <ele>178</ele>
        <time>2011-04-20T06:52:30.000Z</time>
      </trkpt>
      <trkpt lat="48.65562" lon="1.74602">
        <ele>178</ele>
        <time>2011-04-20T06:52:31.000Z</time>
      </trkpt>
      <trkpt lat="48.65568" lon="1.74605">
        <ele>180</ele>
        <time>2011-04-20T06:52:35.000Z</time>
      </trkpt>
      <trkpt lat="48.65572" lon="1.7461">
        <ele>180.39999389648</ele>
        <time>2011-04-20T06:52:38.000Z</time>
      </trkpt>
      <trkpt lat="48.65579" lon="1.74618">
        <ele>184.80000305176</ele>
        <time>2011-04-20T06:52:45.000Z</time>
      </trkpt>
      <trkpt lat="48.65583" lon="1.74626">
        <ele>186.19999694824</ele>
        <time>2011-04-20T06:52:49.000Z</time>
      </trkpt>
      <trkpt lat="48.65584" lon="1.74633">
        <ele>185.19999694824</ele>
        <time>2011-04-20T06:52:54.000Z</time>
      </trkpt>
      <trkpt lat="48.65587" lon="1.74637">
        <ele>185.19999694824</ele>
        <time>2011-04-20T06:53:01.000Z</time>
      </trkpt>
      <trkpt lat="48.65587" lon="1.74659">
        <ele>178.39999389648</ele>
        <time>2011-04-20T06:53:46.000Z</time>
      </trkpt>
      <trkpt lat="48.65585" lon="1.7466">
        <ele>176.60000610352</ele>
        <time>2011-04-20T06:53:51.000Z</time>
      </trkpt>
      <trkpt lat="48.65586" lon="1.7466">
        <ele>180.39999389648</ele>
        <time>2011-04-20T06:53:55.000Z</time>
      </trkpt>
      <trkpt lat="48.65593" lon="1.74681">
        <ele>180.39999389648</ele>
        <time>2011-04-20T06:54:54.000Z</time>
      </trkpt>
      <trkpt lat="48.65593" lon="1.74684">
        <ele>181.39999389648</ele>
        <time>2011-04-20T06:54:55.000Z</time>
      </trkpt>
      <trkpt lat="48.65595" lon="1.74691">
        <ele>181.39999389648</ele>
        <time>2011-04-20T06:55:00.000Z</time>
      </trkpt>
      <trkpt lat="48.65607" lon="1.74698">
        <ele>182.39999389648</ele>
        <time>2011-04-20T06:55:08.000Z</time>
      </trkpt>
      <trkpt lat="48.65611" lon="1.74701">
        <ele>183.19999694824</ele>
        <time>2011-04-20T06:55:12.000Z</time>
      </trkpt>
      <trkpt lat="48.65615" lon="1.74715">
        <ele>186.60000610352</ele>
        <time>2011-04-20T06:55:20.000Z</time>
      </trkpt>
      <trkpt lat="48.65616" lon="1.74726">
        <ele>189</ele>
        <time>2011-04-20T06:55:25.000Z</time>
      </trkpt>
      <trkpt lat="48.65616" lon="1.74731">
        <ele>191</ele>
        <time>2011-04-20T06:55:29.000Z</time>
      </trkpt>
      <trkpt lat="48.65622" lon="1.74745">
        <ele>192.80000305176</ele>
        <time>2011-04-20T06:55:37.000Z</time>
      </trkpt>
      <trkpt lat="48.65623" lon="1.74747">
        <ele>193.39999389648</ele>
        <time>2011-04-20T06:55:38.000Z</time>
      </trkpt>
      <trkpt lat="48.65624" lon="1.7475">
        <ele>193.80000305176</ele>
        <time>2011-04-20T06:55:40.000Z</time>
      </trkpt>
      <trkpt lat="48.65629" lon="1.74757">
        <ele>193.39999389648</ele>
        <time>2011-04-20T06:55:46.000Z</time>
      </trkpt>
      <trkpt lat="48.65631" lon="1.7476">
        <ele>192</ele>
        <time>2011-04-20T06:55:48.000Z</time>
      </trkpt>
      <trkpt lat="48.65636" lon="1.74766">
        <ele>190.39999389648</ele>
        <time>2011-04-20T06:55:54.000Z</time>
      </trkpt>
      <trkpt lat="48.65642" lon="1.74771">
        <ele>190</ele>
        <time>2011-04-20T06:55:59.000Z</time>
      </trkpt>
      <trkpt lat="48.65644" lon="1.74772">
        <ele>191</ele>
        <time>2011-04-20T06:56:01.000Z</time>
      </trkpt>
      <trkpt lat="48.65649" lon="1.74767">
        <ele>188</ele>
        <time>2011-04-20T06:56:07.000Z</time>
      </trkpt>
      <trkpt lat="48.65649" lon="1.74766">
        <ele>187.60000610352</ele>
        <time>2011-04-20T06:56:08.000Z</time>
      </trkpt>
      <trkpt lat="48.65653" lon="1.7476">
        <ele>187.19999694824</ele>
        <time>2011-04-20T06:56:14.000Z</time>
      </trkpt>
      <trkpt lat="48.65661" lon="1.74752">
        <ele>184.19999694824</ele>
        <time>2011-04-20T06:56:21.000Z</time>
      </trkpt>
      <trkpt lat="48.65668" lon="1.74748">
        <ele>182.39999389648</ele>
        <time>2011-04-20T06:56:26.000Z</time>
      </trkpt>
      <trkpt lat="48.6567" lon="1.74746">
        <ele>182.80000305176</ele>
        <time>2011-04-20T06:56:28.000Z</time>
      </trkpt>
      <trkpt lat="48.65675" lon="1.74743">
        <ele>181.80000305176</ele>
        <time>2011-04-20T06:56:32.000Z</time>
      </trkpt>
      <trkpt lat="48.65679" lon="1.74736">
        <ele>178.39999389648</ele>
        <time>2011-04-20T06:56:36.000Z</time>
      </trkpt>
      <trkpt lat="48.65684" lon="1.74725">
        <ele>173.60000610352</ele>
        <time>2011-04-20T06:56:43.000Z</time>
      </trkpt>
      <trkpt lat="48.65688" lon="1.74712">
        <ele>170.19999694824</ele>
        <time>2011-04-20T06:56:51.000Z</time>
      </trkpt>
      <trkpt lat="48.65694" lon="1.74704">
        <ele>168.80000305176</ele>
        <time>2011-04-20T06:56:57.000Z</time>
      </trkpt>
      <trkpt lat="48.65699" lon="1.74696">
        <ele>166</ele>
        <time>2011-04-20T06:57:03.000Z</time>
      </trkpt>
      <trkpt lat="48.65706" lon="1.74685">
        <ele>163</ele>
        <time>2011-04-20T06:57:10.000Z</time>
      </trkpt>
      <trkpt lat="48.6571" lon="1.74681">
        <ele>164</ele>
        <time>2011-04-20T06:57:13.000Z</time>
      </trkpt>
      <trkpt lat="48.65711" lon="1.74679">
        <ele>163</ele>
        <time>2011-04-20T06:57:15.000Z</time>
      </trkpt>
      <trkpt lat="48.65715" lon="1.74668">
        <ele>163</ele>
        <time>2011-04-20T06:57:21.000Z</time>
      </trkpt>
      <trkpt lat="48.65718" lon="1.74659">
        <ele>165.39999389648</ele>
        <time>2011-04-20T06:57:26.000Z</time>
      </trkpt>
      <trkpt lat="48.65723" lon="1.74645">
        <ele>165.39999389648</ele>
        <time>2011-04-20T06:57:33.000Z</time>
      </trkpt>
      <trkpt lat="48.65727" lon="1.74637">
        <ele>165</ele>
        <time>2011-04-20T06:57:37.000Z</time>
      </trkpt>
      <trkpt lat="48.65733" lon="1.74623">
        <ele>163</ele>
        <time>2011-04-20T06:57:45.000Z</time>
      </trkpt>
      <trkpt lat="48.65735" lon="1.7462">
        <ele>162.19999694824</ele>
        <time>2011-04-20T06:57:47.000Z</time>
      </trkpt>
      <trkpt lat="48.65738" lon="1.74613">
        <ele>160.60000610352</ele>
        <time>2011-04-20T06:57:51.000Z</time>
      </trkpt>
      <trkpt lat="48.65743" lon="1.74598">
        <ele>158.80000305176</ele>
        <time>2011-04-20T06:58:00.000Z</time>
      </trkpt>
      <trkpt lat="48.65747" lon="1.74591">
        <ele>158.19999694824</ele>
        <time>2011-04-20T06:58:04.000Z</time>
      </trkpt>
      <trkpt lat="48.65748" lon="1.74588">
        <ele>157.80000305176</ele>
        <time>2011-04-20T06:58:06.000Z</time>
      </trkpt>
      <trkpt lat="48.65755" lon="1.74578">
        <ele>156.80000305176</ele>
        <time>2011-04-20T06:58:12.000Z</time>
      </trkpt>
      <trkpt lat="48.65759" lon="1.74568">
        <ele>156.39999389648</ele>
        <time>2011-04-20T06:58:18.000Z</time>
      </trkpt>
      <trkpt lat="48.65762" lon="1.74562">
        <ele>155.80000305176</ele>
        <time>2011-04-20T06:58:21.000Z</time>
      </trkpt>
      <trkpt lat="48.65771" lon="1.74544">
        <ele>155.80000305176</ele>
        <time>2011-04-20T06:58:31.000Z</time>
      </trkpt>
      <trkpt lat="48.65777" lon="1.7453">
        <ele>155.39999389648</ele>
        <time>2011-04-20T06:58:39.000Z</time>
      </trkpt>
      <trkpt lat="48.6578" lon="1.7452">
        <ele>155</ele>
        <time>2011-04-20T06:58:45.000Z</time>
      </trkpt>
      <trkpt lat="48.6578" lon="1.74519">
        <ele>155.39999389648</ele>
        <time>2011-04-20T06:58:46.000Z</time>
      </trkpt>
      <trkpt lat="48.6578" lon="1.74509">
        <ele>155.80000305176</ele>
        <time>2011-04-20T06:58:54.000Z</time>
      </trkpt>
      <trkpt lat="48.65783" lon="1.74505">
        <ele>155</ele>
        <time>2011-04-20T06:58:57.000Z</time>
      </trkpt>
      <trkpt lat="48.6579" lon="1.745">
        <ele>153.39999389648</ele>
        <time>2011-04-20T06:59:03.000Z</time>
      </trkpt>
      <trkpt lat="48.65792" lon="1.74498">
        <ele>153</ele>
        <time>2011-04-20T06:59:04.000Z</time>
      </trkpt>
      <trkpt lat="48.65803" lon="1.74493">
        <ele>150.60000610352</ele>
        <time>2011-04-20T06:59:13.000Z</time>
      </trkpt>
      <trkpt lat="48.65811" lon="1.7449">
        <ele>150.19999694824</ele>
        <time>2011-04-20T06:59:19.000Z</time>
      </trkpt>
      <trkpt lat="48.65817" lon="1.74488">
        <ele>151</ele>
        <time>2011-04-20T06:59:24.000Z</time>
      </trkpt>
      <trkpt lat="48.65825" lon="1.74483">
        <ele>151.60000610352</ele>
        <time>2011-04-20T06:59:31.000Z</time>
      </trkpt>
      <trkpt lat="48.65826" lon="1.74481">
        <ele>152</ele>
        <time>2011-04-20T06:59:32.000Z</time>
      </trkpt>
      <trkpt lat="48.65829" lon="1.74474">
        <ele>152.60000610352</ele>
        <time>2011-04-20T06:59:36.000Z</time>
      </trkpt>
      <trkpt lat="48.65836" lon="1.74463">
        <ele>152.60000610352</ele>
        <time>2011-04-20T06:59:44.000Z</time>
      </trkpt>
      <trkpt lat="48.65839" lon="1.74453">
        <ele>156.80000305176</ele>
        <time>2011-04-20T06:59:50.000Z</time>
      </trkpt>
      <trkpt lat="48.6585" lon="1.74444">
        <ele>157.39999389648</ele>
        <time>2011-04-20T06:59:59.000Z</time>
      </trkpt>
      <trkpt lat="48.65862" lon="1.74438">
        <ele>157.39999389648</ele>
        <time>2011-04-20T07:00:08.000Z</time>
      </trkpt>
      <trkpt lat="48.65869" lon="1.74435">
        <ele>158.80000305176</ele>
        <time>2011-04-20T07:00:13.000Z</time>
      </trkpt>
      <trkpt lat="48.65872" lon="1.74434">
        <ele>158.80000305176</ele>
        <time>2011-04-20T07:00:15.000Z</time>
      </trkpt>
      <trkpt lat="48.6588" lon="1.74431">
        <ele>160.19999694824</ele>
        <time>2011-04-20T07:00:21.000Z</time>
      </trkpt>
      <trkpt lat="48.65891" lon="1.74427">
        <ele>161.19999694824</ele>
        <time>2011-04-20T07:00:29.000Z</time>
      </trkpt>
      <trkpt lat="48.65907" lon="1.7442">
        <ele>161.60000610352</ele>
        <time>2011-04-20T07:00:41.000Z</time>
      </trkpt>
      <trkpt lat="48.6591" lon="1.74419">
        <ele>161.60000610352</ele>
        <time>2011-04-20T07:00:43.000Z</time>
      </trkpt>
      <trkpt lat="48.65915" lon="1.74416">
        <ele>161.19999694824</ele>
        <time>2011-04-20T07:00:47.000Z</time>
      </trkpt>
      <trkpt lat="48.65926" lon="1.74409">
        <ele>161.19999694824</ele>
        <time>2011-04-20T07:00:55.000Z</time>
      </trkpt>
      <trkpt lat="48.65936" lon="1.74405">
        <ele>159.19999694824</ele>
        <time>2011-04-20T07:01:03.000Z</time>
      </trkpt>
      <trkpt lat="48.65946" lon="1.74403">
        <ele>159.80000305176</ele>
        <time>2011-04-20T07:01:10.000Z</time>
      </trkpt>
      <trkpt lat="48.65956" lon="1.74399">
        <ele>161.19999694824</ele>
        <time>2011-04-20T07:01:17.000Z</time>
      </trkpt>
      <trkpt lat="48.6596" lon="1.74398">
        <ele>162.19999694824</ele>
        <time>2011-04-20T07:01:20.000Z</time>
      </trkpt>
      <trkpt lat="48.6597" lon="1.74393">
        <ele>165</ele>
        <time>2011-04-20T07:01:27.000Z</time>
      </trkpt>
      <trkpt lat="48.65983" lon="1.74388">
        <ele>167</ele>
        <time>2011-04-20T07:01:35.000Z</time>
      </trkpt>
      <trkpt lat="48.65988" lon="1.74388">
        <ele>167.80000305176</ele>
        <time>2011-04-20T07:01:38.000Z</time>
      </trkpt>
      <trkpt lat="48.65998" lon="1.74387">
        <ele>168.80000305176</ele>
        <time>2011-04-20T07:01:44.000Z</time>
      </trkpt>
      <trkpt lat="48.66001" lon="1.74386">
        <ele>167.80000305176</ele>
        <time>2011-04-20T07:01:47.000Z</time>
      </trkpt>
      <trkpt lat="48.66007" lon="1.74377">
        <ele>165.39999389648</ele>
        <time>2011-04-20T07:01:54.000Z</time>
      </trkpt>
      <trkpt lat="48.66009" lon="1.74374">
        <ele>164</ele>
        <time>2011-04-20T07:01:56.000Z</time>
      </trkpt>
      <trkpt lat="48.66015" lon="1.74359">
        <ele>156.80000305176</ele>
        <time>2011-04-20T07:02:05.000Z</time>
      </trkpt>
      <trkpt lat="48.66023" lon="1.7435">
        <ele>151.60000610352</ele>
        <time>2011-04-20T07:02:13.000Z</time>
      </trkpt>
      <trkpt lat="48.66026" lon="1.74343">
        <ele>151.60000610352</ele>
        <time>2011-04-20T07:02:18.000Z</time>
      </trkpt>
      <trkpt lat="48.66029" lon="1.74325">
        <ele>151.60000610352</ele>
        <time>2011-04-20T07:02:28.000Z</time>
      </trkpt>
      <trkpt lat="48.66035" lon="1.74316">
        <ele>151</ele>
        <time>2011-04-20T07:02:35.000Z</time>
      </trkpt>
      <trkpt lat="48.66042" lon="1.74307">
        <ele>150.19999694824</ele>
        <time>2011-04-20T07:02:42.000Z</time>
      </trkpt>
      <trkpt lat="48.6605" lon="1.74293">
        <ele>149.19999694824</ele>
        <time>2011-04-20T07:02:51.000Z</time>
      </trkpt>
      <trkpt lat="48.66054" lon="1.74288">
        <ele>149.19999694824</ele>
        <time>2011-04-20T07:02:55.000Z</time>
      </trkpt>
      <trkpt lat="48.66059" lon="1.74276">
        <ele>147.60000610352</ele>
        <time>2011-04-20T07:03:02.000Z</time>
      </trkpt>
      <trkpt lat="48.66062" lon="1.74271">
        <ele>148.19999694824</ele>
        <time>2011-04-20T07:03:05.000Z</time>
      </trkpt>
      <trkpt lat="48.66068" lon="1.74256">
        <ele>149.19999694824</ele>
        <time>2011-04-20T07:03:13.000Z</time>
      </trkpt>
      <trkpt lat="48.66072" lon="1.74243">
        <ele>149.60000610352</ele>
        <time>2011-04-20T07:03:20.000Z</time>
      </trkpt>
      <trkpt lat="48.66075" lon="1.74238">
        <ele>150.19999694824</ele>
        <time>2011-04-20T07:03:23.000Z</time>
      </trkpt>
      <trkpt lat="48.66081" lon="1.74226">
        <ele>150.19999694824</ele>
        <time>2011-04-20T07:03:30.000Z</time>
      </trkpt>
      <trkpt lat="48.66083" lon="1.74223">
        <ele>150.19999694824</ele>
        <time>2011-04-20T07:03:32.000Z</time>
      </trkpt>
      <trkpt lat="48.66089" lon="1.7421">
        <ele>150.19999694824</ele>
        <time>2011-04-20T07:03:39.000Z</time>
      </trkpt>
      <trkpt lat="48.66097" lon="1.74197">
        <ele>147.19999694824</ele>
        <time>2011-04-20T07:03:47.000Z</time>
      </trkpt>
      <trkpt lat="48.66103" lon="1.74183">
        <ele>147.19999694824</ele>
        <time>2011-04-20T07:03:55.000Z</time>
      </trkpt>
      <trkpt lat="48.66108" lon="1.74171">
        <ele>148.19999694824</ele>
        <time>2011-04-20T07:04:01.000Z</time>
      </trkpt>
      <trkpt lat="48.66113" lon="1.74156">
        <ele>147.60000610352</ele>
        <time>2011-04-20T07:04:08.000Z</time>
      </trkpt>
      <trkpt lat="48.66118" lon="1.74148">
        <ele>148.60000610352</ele>
        <time>2011-04-20T07:04:14.000Z</time>
      </trkpt>
      <trkpt lat="48.66126" lon="1.74135">
        <ele>149.60000610352</ele>
        <time>2011-04-20T07:04:22.000Z</time>
      </trkpt>
      <trkpt lat="48.66131" lon="1.74126">
        <ele>152.60000610352</ele>
        <time>2011-04-20T07:04:28.000Z</time>
      </trkpt>
      <trkpt lat="48.66136" lon="1.74112">
        <ele>149.19999694824</ele>
        <time>2011-04-20T07:04:34.000Z</time>
      </trkpt>
      <trkpt lat="48.6614" lon="1.741">
        <ele>150.60000610352</ele>
        <time>2011-04-20T07:04:40.000Z</time>
      </trkpt>
      <trkpt lat="48.66147" lon="1.74091">
        <ele>151</ele>
        <time>2011-04-20T07:04:46.000Z</time>
      </trkpt>
      <trkpt lat="48.66152" lon="1.7408">
        <ele>153.39999389648</ele>
        <time>2011-04-20T07:04:53.000Z</time>
      </trkpt>
      <trkpt lat="48.66153" lon="1.74078">
        <ele>153.39999389648</ele>
        <time>2011-04-20T07:04:54.000Z</time>
      </trkpt>
      <trkpt lat="48.66157" lon="1.74068">
        <ele>154.39999389648</ele>
        <time>2011-04-20T07:05:00.000Z</time>
      </trkpt>
      <trkpt lat="48.66164" lon="1.74061">
        <ele>153.39999389648</ele>
        <time>2011-04-20T07:05:06.000Z</time>
      </trkpt>
      <trkpt lat="48.66168" lon="1.74053">
        <ele>155</ele>
        <time>2011-04-20T07:05:11.000Z</time>
      </trkpt>
      <trkpt lat="48.6617" lon="1.74048">
        <ele>155.39999389648</ele>
        <time>2011-04-20T07:05:14.000Z</time>
      </trkpt>
      <trkpt lat="48.66174" lon="1.74038">
        <ele>156.80000305176</ele>
        <time>2011-04-20T07:05:19.000Z</time>
      </trkpt>
      <trkpt lat="48.6618" lon="1.74029">
        <ele>159.80000305176</ele>
        <time>2011-04-20T07:05:25.000Z</time>
      </trkpt>
      <trkpt lat="48.66182" lon="1.74026">
        <ele>158.80000305176</ele>
        <time>2011-04-20T07:05:28.000Z</time>
      </trkpt>
      <trkpt lat="48.66189" lon="1.74012">
        <ele>159.80000305176</ele>
        <time>2011-04-20T07:05:36.000Z</time>
      </trkpt>
      <trkpt lat="48.66198" lon="1.74006">
        <ele>159.80000305176</ele>
        <time>2011-04-20T07:05:42.000Z</time>
      </trkpt>
      <trkpt lat="48.662" lon="1.74005">
        <ele>160.19999694824</ele>
        <time>2011-04-20T07:05:43.000Z</time>
      </trkpt>
      <trkpt lat="48.66206" lon="1.74006">
        <ele>164</ele>
        <time>2011-04-20T07:05:46.000Z</time>
      </trkpt>
      <trkpt lat="48.6621" lon="1.74006">
        <ele>167.39999389648</ele>
        <time>2011-04-20T07:05:49.000Z</time>
      </trkpt>
      <trkpt lat="48.66218" lon="1.74006">
        <ele>170.19999694824</ele>
        <time>2011-04-20T07:05:54.000Z</time>
      </trkpt>
      <trkpt lat="48.66224" lon="1.74006">
        <ele>170.80000305176</ele>
        <time>2011-04-20T07:05:59.000Z</time>
      </trkpt>
      <trkpt lat="48.66233" lon="1.74009">
        <ele>174.19999694824</ele>
        <time>2011-04-20T07:06:05.000Z</time>
      </trkpt>
      <trkpt lat="48.66242" lon="1.74015">
        <ele>173.19999694824</ele>
        <time>2011-04-20T07:06:11.000Z</time>
      </trkpt>
      <trkpt lat="48.66246" lon="1.74016">
        <ele>172.60000610352</ele>
        <time>2011-04-20T07:06:14.000Z</time>
      </trkpt>
      <trkpt lat="48.66257" lon="1.7402">
        <ele>172.60000610352</ele>
        <time>2011-04-20T07:06:21.000Z</time>
      </trkpt>
      <trkpt lat="48.66262" lon="1.74023">
        <ele>171.80000305176</ele>
        <time>2011-04-20T07:06:26.000Z</time>
      </trkpt>
      <trkpt lat="48.66271" lon="1.74026">
        <ele>174.60000610352</ele>
        <time>2011-04-20T07:06:32.000Z</time>
      </trkpt>
      <trkpt lat="48.66281" lon="1.7403">
        <ele>177.60000610352</ele>
        <time>2011-04-20T07:06:39.000Z</time>
      </trkpt>
      <trkpt lat="48.66287" lon="1.74034">
        <ele>180</ele>
        <time>2011-04-20T07:06:42.000Z</time>
      </trkpt>
      <trkpt lat="48.66299" lon="1.74037">
        <ele>171.80000305176</ele>
        <time>2011-04-20T07:06:49.000Z</time>
      </trkpt>
      <trkpt lat="48.66303" lon="1.74036">
        <ele>170.80000305176</ele>
        <time>2011-04-20T07:06:52.000Z</time>
      </trkpt>
      <trkpt lat="48.66306" lon="1.74031">
        <ele>171.80000305176</ele>
        <time>2011-04-20T07:06:56.000Z</time>
      </trkpt>
      <trkpt lat="48.66311" lon="1.74024">
        <ele>168.39999389648</ele>
        <time>2011-04-20T07:07:01.000Z</time>
      </trkpt>
      <trkpt lat="48.66313" lon="1.74018">
        <ele>163</ele>
        <time>2011-04-20T07:07:07.000Z</time>
      </trkpt>
      <trkpt lat="48.66313" lon="1.74016">
        <ele>161.60000610352</ele>
        <time>2011-04-20T07:07:10.000Z</time>
      </trkpt>
      <trkpt lat="48.66323" lon="1.74009">
        <ele>159.80000305176</ele>
        <time>2011-04-20T07:07:27.000Z</time>
      </trkpt>
      <trkpt lat="48.66329" lon="1.74002">
        <ele>157.80000305176</ele>
        <time>2011-04-20T07:07:32.000Z</time>
      </trkpt>
      <trkpt lat="48.66335" lon="1.73996">
        <ele>155.39999389648</ele>
        <time>2011-04-20T07:07:37.000Z</time>
      </trkpt>
      <trkpt lat="48.66343" lon="1.73984">
        <ele>151.60000610352</ele>
        <time>2011-04-20T07:07:45.000Z</time>
      </trkpt>
      <trkpt lat="48.6635" lon="1.73974">
        <ele>148.60000610352</ele>
        <time>2011-04-20T07:07:51.000Z</time>
      </trkpt>
      <trkpt lat="48.66357" lon="1.73959">
        <ele>144.80000305176</ele>
        <time>2011-04-20T07:07:59.000Z</time>
      </trkpt>
      <trkpt lat="48.66362" lon="1.7395">
        <ele>144.39999389648</ele>
        <time>2011-04-20T07:08:05.000Z</time>
      </trkpt>
      <trkpt lat="48.6637" lon="1.73939">
        <ele>141.39999389648</ele>
        <time>2011-04-20T07:08:12.000Z</time>
      </trkpt>
      <trkpt lat="48.66371" lon="1.73936">
        <ele>140.39999389648</ele>
        <time>2011-04-20T07:08:14.000Z</time>
      </trkpt>
      <trkpt lat="48.66377" lon="1.73922">
        <ele>140.39999389648</ele>
        <time>2011-04-20T07:08:21.000Z</time>
      </trkpt>
      <trkpt lat="48.66382" lon="1.73915">
        <ele>141</ele>
        <time>2011-04-20T07:08:26.000Z</time>
      </trkpt>
      <trkpt lat="48.66385" lon="1.7391">
        <ele>142.39999389648</ele>
        <time>2011-04-20T07:08:31.000Z</time>
      </trkpt>
      <trkpt lat="48.66388" lon="1.73899">
        <ele>144.39999389648</ele>
        <time>2011-04-20T07:08:37.000Z</time>
      </trkpt>
      <trkpt lat="48.66396" lon="1.73888">
        <ele>143.39999389648</ele>
        <time>2011-04-20T07:08:44.000Z</time>
      </trkpt>
      <trkpt lat="48.66403" lon="1.73874">
        <ele>142.80000305176</ele>
        <time>2011-04-20T07:08:52.000Z</time>
      </trkpt>
      <trkpt lat="48.66408" lon="1.73865">
        <ele>142.80000305176</ele>
        <time>2011-04-20T07:08:57.000Z</time>
      </trkpt>
      <trkpt lat="48.66408" lon="1.73863">
        <ele>142.80000305176</ele>
        <time>2011-04-20T07:08:58.000Z</time>
      </trkpt>
      <trkpt lat="48.66412" lon="1.73853">
        <ele>142.39999389648</ele>
        <time>2011-04-20T07:09:03.000Z</time>
      </trkpt>
      <trkpt lat="48.6642" lon="1.73837">
        <ele>141.39999389648</ele>
        <time>2011-04-20T07:09:12.000Z</time>
      </trkpt>
      <trkpt lat="48.66421" lon="1.73836">
        <ele>141.39999389648</ele>
        <time>2011-04-20T07:09:13.000Z</time>
      </trkpt>
      <trkpt lat="48.66423" lon="1.73834">
        <ele>140.39999389648</ele>
        <time>2011-04-20T07:09:15.000Z</time>
      </trkpt>
      <trkpt lat="48.6643" lon="1.73822">
        <ele>139.60000610352</ele>
        <time>2011-04-20T07:09:22.000Z</time>
      </trkpt>
      <trkpt lat="48.66433" lon="1.73812">
        <ele>139</ele>
        <time>2011-04-20T07:09:26.000Z</time>
      </trkpt>
      <trkpt lat="48.66441" lon="1.73798">
        <ele>138.60000610352</ele>
        <time>2011-04-20T07:09:34.000Z</time>
      </trkpt>
      <trkpt lat="48.66442" lon="1.73796">
        <ele>138.60000610352</ele>
        <time>2011-04-20T07:09:35.000Z</time>
      </trkpt>
      <trkpt lat="48.66451" lon="1.73779">
        <ele>138</ele>
        <time>2011-04-20T07:09:44.000Z</time>
      </trkpt>
      <trkpt lat="48.66455" lon="1.73771">
        <ele>137.60000610352</ele>
        <time>2011-04-20T07:09:48.000Z</time>
      </trkpt>
      <trkpt lat="48.66458" lon="1.73761">
        <ele>137.60000610352</ele>
        <time>2011-04-20T07:09:53.000Z</time>
      </trkpt>
      <trkpt lat="48.6646" lon="1.73757">
        <ele>138</ele>
        <time>2011-04-20T07:09:55.000Z</time>
      </trkpt>
      <trkpt lat="48.66466" lon="1.73743">
        <ele>137.19999694824</ele>
        <time>2011-04-20T07:10:02.000Z</time>
      </trkpt>
      <trkpt lat="48.66473" lon="1.73733">
        <ele>137.60000610352</ele>
        <time>2011-04-20T07:10:08.000Z</time>
      </trkpt>
      <trkpt lat="48.66476" lon="1.73725">
        <ele>142.39999389648</ele>
        <time>2011-04-20T07:10:13.000Z</time>
      </trkpt>
      <trkpt lat="48.66482" lon="1.73714">
        <ele>140</ele>
        <time>2011-04-20T07:10:19.000Z</time>
      </trkpt>
      <trkpt lat="48.66491" lon="1.73699">
        <ele>137.19999694824</ele>
        <time>2011-04-20T07:10:27.000Z</time>
      </trkpt>
      <trkpt lat="48.66494" lon="1.73694">
        <ele>136.60000610352</ele>
        <time>2011-04-20T07:10:30.000Z</time>
      </trkpt>
      <trkpt lat="48.66496" lon="1.73686">
        <ele>136.19999694824</ele>
        <time>2011-04-20T07:10:34.000Z</time>
      </trkpt>
      <trkpt lat="48.66498" lon="1.73683">
        <ele>136.19999694824</ele>
        <time>2011-04-20T07:10:36.000Z</time>
      </trkpt>
      <trkpt lat="48.66508" lon="1.73662">
        <ele>134.80000305176</ele>
        <time>2011-04-20T07:10:47.000Z</time>
      </trkpt>
      <trkpt lat="48.66514" lon="1.73656">
        <ele>133.80000305176</ele>
        <time>2011-04-20T07:10:52.000Z</time>
      </trkpt>
      <trkpt lat="48.66521" lon="1.73645">
        <ele>132.80000305176</ele>
        <time>2011-04-20T07:10:59.000Z</time>
      </trkpt>
      <trkpt lat="48.66528" lon="1.73634">
        <ele>132.39999389648</ele>
        <time>2011-04-20T07:11:05.000Z</time>
      </trkpt>
      <trkpt lat="48.66533" lon="1.73621">
        <ele>132.39999389648</ele>
        <time>2011-04-20T07:11:12.000Z</time>
      </trkpt>
      <trkpt lat="48.66539" lon="1.73607">
        <ele>131.80000305176</ele>
        <time>2011-04-20T07:11:19.000Z</time>
      </trkpt>
      <trkpt lat="48.66541" lon="1.73603">
        <ele>131.80000305176</ele>
        <time>2011-04-20T07:11:21.000Z</time>
      </trkpt>
      <trkpt lat="48.66552" lon="1.73585">
        <ele>130.80000305176</ele>
        <time>2011-04-20T07:11:31.000Z</time>
      </trkpt>
      <trkpt lat="48.66559" lon="1.73569">
        <ele>130.80000305176</ele>
        <time>2011-04-20T07:11:39.000Z</time>
      </trkpt>
      <trkpt lat="48.66565" lon="1.73558">
        <ele>131.39999389648</ele>
        <time>2011-04-20T07:11:45.000Z</time>
      </trkpt>
      <trkpt lat="48.66569" lon="1.73547">
        <ele>132.39999389648</ele>
        <time>2011-04-20T07:11:51.000Z</time>
      </trkpt>
      <trkpt lat="48.66576" lon="1.73534">
        <ele>132.39999389648</ele>
        <time>2011-04-20T07:11:58.000Z</time>
      </trkpt>
      <trkpt lat="48.66579" lon="1.73529">
        <ele>132.39999389648</ele>
        <time>2011-04-20T07:12:02.000Z</time>
      </trkpt>
      <trkpt lat="48.66578" lon="1.73528">
        <ele>134.80000305176</ele>
        <time>2011-04-20T07:12:07.000Z</time>
      </trkpt>
      <trkpt lat="48.66587" lon="1.73531">
        <ele>134.80000305176</ele>
        <time>2011-04-20T07:12:35.000Z</time>
      </trkpt>
      <trkpt lat="48.66591" lon="1.73537">
        <ele>135.19999694824</ele>
        <time>2011-04-20T07:12:37.000Z</time>
      </trkpt>
      <trkpt lat="48.66599" lon="1.73555">
        <ele>137.19999694824</ele>
        <time>2011-04-20T07:12:44.000Z</time>
      </trkpt>
      <trkpt lat="48.66606" lon="1.73579">
        <ele>139</ele>
        <time>2011-04-20T07:12:49.000Z</time>
      </trkpt>
      <trkpt lat="48.66615" lon="1.73594">
        <ele>141</ele>
        <time>2011-04-20T07:12:53.000Z</time>
      </trkpt>
      <trkpt lat="48.66627" lon="1.73595">
        <ele>141.39999389648</ele>
        <time>2011-04-20T07:12:57.000Z</time>
      </trkpt>
      <trkpt lat="48.6664" lon="1.73589">
        <ele>143.39999389648</ele>
        <time>2011-04-20T07:13:02.000Z</time>
      </trkpt>
      <trkpt lat="48.66645" lon="1.73586">
        <ele>144.39999389648</ele>
        <time>2011-04-20T07:13:06.000Z</time>
      </trkpt>
      <trkpt lat="48.66651" lon="1.73583">
        <ele>145.80000305176</ele>
        <time>2011-04-20T07:13:11.000Z</time>
      </trkpt>
      <trkpt lat="48.6666" lon="1.73591">
        <ele>148.19999694824</ele>
        <time>2011-04-20T07:13:18.000Z</time>
      </trkpt>
      <trkpt lat="48.66664" lon="1.73605">
        <ele>150.19999694824</ele>
        <time>2011-04-20T07:13:25.000Z</time>
      </trkpt>
      <trkpt lat="48.66667" lon="1.7362">
        <ele>153</ele>
        <time>2011-04-20T07:13:33.000Z</time>
      </trkpt>
      <trkpt lat="48.6667" lon="1.73627">
        <ele>155.80000305176</ele>
        <time>2011-04-20T07:13:37.000Z</time>
      </trkpt>
      <trkpt lat="48.66671" lon="1.73628">
        <ele>156.39999389648</ele>
        <time>2011-04-20T07:13:38.000Z</time>
      </trkpt>
      <trkpt lat="48.66672" lon="1.73636">
        <ele>162.60000610352</ele>
        <time>2011-04-20T07:13:44.000Z</time>
      </trkpt>
      <trkpt lat="48.66674" lon="1.73642">
        <ele>165</ele>
        <time>2011-04-20T07:13:48.000Z</time>
      </trkpt>
      <trkpt lat="48.66676" lon="1.73647">
        <ele>166</ele>
        <time>2011-04-20T07:13:51.000Z</time>
      </trkpt>
      <trkpt lat="48.66681" lon="1.73666">
        <ele>173.19999694824</ele>
        <time>2011-04-20T07:14:01.000Z</time>
      </trkpt>
      <trkpt lat="48.66683" lon="1.73676">
        <ele>169.80000305176</ele>
        <time>2011-04-20T07:14:07.000Z</time>
      </trkpt>
      <trkpt lat="48.66684" lon="1.73679">
        <ele>167.80000305176</ele>
        <time>2011-04-20T07:14:09.000Z</time>
      </trkpt>
      <trkpt lat="48.66686" lon="1.73689">
        <ele>164</ele>
        <time>2011-04-20T07:14:15.000Z</time>
      </trkpt>
      <trkpt lat="48.66691" lon="1.737">
        <ele>164.60000610352</ele>
        <time>2011-04-20T07:14:21.000Z</time>
      </trkpt>
      <trkpt lat="48.66695" lon="1.73713">
        <ele>168.80000305176</ele>
        <time>2011-04-20T07:14:28.000Z</time>
      </trkpt>
      <trkpt lat="48.667" lon="1.73715">
        <ele>171.80000305176</ele>
        <time>2011-04-20T07:14:33.000Z</time>
      </trkpt>
      <trkpt lat="48.6671" lon="1.7372">
        <ele>172.60000610352</ele>
        <time>2011-04-20T07:14:41.000Z</time>
      </trkpt>
      <trkpt lat="48.66715" lon="1.73723">
        <ele>171.19999694824</ele>
        <time>2011-04-20T07:14:45.000Z</time>
      </trkpt>
      <trkpt lat="48.66723" lon="1.73728">
        <ele>169.80000305176</ele>
        <time>2011-04-20T07:14:52.000Z</time>
      </trkpt>
      <trkpt lat="48.66729" lon="1.73731">
        <ele>171.80000305176</ele>
        <time>2011-04-20T07:14:57.000Z</time>
      </trkpt>
      <trkpt lat="48.66738" lon="1.73737">
        <ele>172.60000610352</ele>
        <time>2011-04-20T07:15:03.000Z</time>
      </trkpt>
      <trkpt lat="48.66744" lon="1.73741">
        <ele>176</ele>
        <time>2011-04-20T07:15:08.000Z</time>
      </trkpt>
      <trkpt lat="48.66746" lon="1.73742">
        <ele>175</ele>
        <time>2011-04-20T07:15:10.000Z</time>
      </trkpt>
      <trkpt lat="48.66752" lon="1.73746">
        <ele>173.19999694824</ele>
        <time>2011-04-20T07:15:16.000Z</time>
      </trkpt>
      <trkpt lat="48.66756" lon="1.73746">
        <ele>172.60000610352</ele>
        <time>2011-04-20T07:15:20.000Z</time>
      </trkpt>
      <trkpt lat="48.66764" lon="1.73751">
        <ele>171.19999694824</ele>
        <time>2011-04-20T07:15:25.000Z</time>
      </trkpt>
      <trkpt lat="48.66774" lon="1.73757">
        <ele>172.19999694824</ele>
        <time>2011-04-20T07:15:31.000Z</time>
      </trkpt>
      <trkpt lat="48.66784" lon="1.73763">
        <ele>169.80000305176</ele>
        <time>2011-04-20T07:15:38.000Z</time>
      </trkpt>
      <trkpt lat="48.66788" lon="1.73766">
        <ele>168.39999389648</ele>
        <time>2011-04-20T07:15:41.000Z</time>
      </trkpt>
      <trkpt lat="48.66794" lon="1.73773">
        <ele>167.39999389648</ele>
        <time>2011-04-20T07:15:45.000Z</time>
      </trkpt>
      <trkpt lat="48.66799" lon="1.73775">
        <ele>167</ele>
        <time>2011-04-20T07:15:51.000Z</time>
      </trkpt>
      <trkpt lat="48.66804" lon="1.73767">
        <ele>163.60000610352</ele>
        <time>2011-04-20T07:16:17.000Z</time>
      </trkpt>
      <trkpt lat="48.66811" lon="1.73754">
        <ele>160.60000610352</ele>
        <time>2011-04-20T07:16:24.000Z</time>
      </trkpt>
      <trkpt lat="48.66819" lon="1.73743">
        <ele>160.60000610352</ele>
        <time>2011-04-20T07:16:30.000Z</time>
      </trkpt>
      <trkpt lat="48.66828" lon="1.73731">
        <ele>159.80000305176</ele>
        <time>2011-04-20T07:16:35.000Z</time>
      </trkpt>
      <trkpt lat="48.66835" lon="1.73724">
        <ele>156.80000305176</ele>
        <time>2011-04-20T07:16:42.000Z</time>
      </trkpt>
      <trkpt lat="48.66839" lon="1.7372">
        <ele>157.39999389648</ele>
        <time>2011-04-20T07:16:45.000Z</time>
      </trkpt>
      <trkpt lat="48.66846" lon="1.73712">
        <ele>157.39999389648</ele>
        <time>2011-04-20T07:16:52.000Z</time>
      </trkpt>
      <trkpt lat="48.66851" lon="1.73704">
        <ele>156.80000305176</ele>
        <time>2011-04-20T07:16:58.000Z</time>
      </trkpt>
      <trkpt lat="48.66854" lon="1.737">
        <ele>156.80000305176</ele>
        <time>2011-04-20T07:17:02.000Z</time>
      </trkpt>
      <trkpt lat="48.6686" lon="1.73688">
        <ele>158.19999694824</ele>
        <time>2011-04-20T07:17:10.000Z</time>
      </trkpt>
      <trkpt lat="48.66867" lon="1.73679">
        <ele>155</ele>
        <time>2011-04-20T07:17:17.000Z</time>
      </trkpt>
      <trkpt lat="48.66875" lon="1.7367">
        <ele>154.39999389648</ele>
        <time>2011-04-20T07:17:24.000Z</time>
      </trkpt>
      <trkpt lat="48.6688" lon="1.73667">
        <ele>155.80000305176</ele>
        <time>2011-04-20T07:17:29.000Z</time>
      </trkpt>
      <trkpt lat="48.66886" lon="1.73659">
        <ele>157.80000305176</ele>
        <time>2011-04-20T07:17:35.000Z</time>
      </trkpt>
      <trkpt lat="48.6689" lon="1.73657">
        <ele>158.19999694824</ele>
        <time>2011-04-20T07:17:38.000Z</time>
      </trkpt>
      <trkpt lat="48.66894" lon="1.73652">
        <ele>158.80000305176</ele>
        <time>2011-04-20T07:17:43.000Z</time>
      </trkpt>
      <trkpt lat="48.66903" lon="1.7364">
        <ele>159.19999694824</ele>
        <time>2011-04-20T07:17:52.000Z</time>
      </trkpt>
      <trkpt lat="48.66909" lon="1.73632">
        <ele>160.19999694824</ele>
        <time>2011-04-20T07:17:59.000Z</time>
      </trkpt>
      <trkpt lat="48.66917" lon="1.73625">
        <ele>158.80000305176</ele>
        <time>2011-04-20T07:18:06.000Z</time>
      </trkpt>
      <trkpt lat="48.66926" lon="1.73614">
        <ele>157.80000305176</ele>
        <time>2011-04-20T07:18:14.000Z</time>
      </trkpt>
      <trkpt lat="48.66934" lon="1.73605">
        <ele>156.39999389648</ele>
        <time>2011-04-20T07:18:21.000Z</time>
      </trkpt>
      <trkpt lat="48.66939" lon="1.73597">
        <ele>154.39999389648</ele>
        <time>2011-04-20T07:18:27.000Z</time>
      </trkpt>
      <trkpt lat="48.66945" lon="1.73586">
        <ele>152.60000610352</ele>
        <time>2011-04-20T07:18:34.000Z</time>
      </trkpt>
      <trkpt lat="48.66952" lon="1.73578">
        <ele>153.39999389648</ele>
        <time>2011-04-20T07:18:41.000Z</time>
      </trkpt>
      <trkpt lat="48.66959" lon="1.7357">
        <ele>153</ele>
        <time>2011-04-20T07:18:48.000Z</time>
      </trkpt>
      <trkpt lat="48.6696" lon="1.73569">
        <ele>152.60000610352</ele>
        <time>2011-04-20T07:18:49.000Z</time>
      </trkpt>
      <trkpt lat="48.66964" lon="1.73565">
        <ele>151</ele>
        <time>2011-04-20T07:18:53.000Z</time>
      </trkpt>
      <trkpt lat="48.66966" lon="1.73563">
        <ele>150.60000610352</ele>
        <time>2011-04-20T07:18:55.000Z</time>
      </trkpt>
      <trkpt lat="48.66973" lon="1.73559">
        <ele>153</ele>
        <time>2011-04-20T07:19:02.000Z</time>
      </trkpt>
      <trkpt lat="48.66983" lon="1.73556">
        <ele>153</ele>
        <time>2011-04-20T07:19:08.000Z</time>
      </trkpt>
      <trkpt lat="48.66988" lon="1.73546">
        <ele>153</ele>
        <time>2011-04-20T07:19:15.000Z</time>
      </trkpt>
      <trkpt lat="48.66991" lon="1.73536">
        <ele>155</ele>
        <time>2011-04-20T07:19:22.000Z</time>
      </trkpt>
      <trkpt lat="48.66992" lon="1.73532">
        <ele>154.39999389648</ele>
        <time>2011-04-20T07:19:24.000Z</time>
      </trkpt>
      <trkpt lat="48.66996" lon="1.73529">
        <ele>153.39999389648</ele>
        <time>2011-04-20T07:19:28.000Z</time>
      </trkpt>
      <trkpt lat="48.67003" lon="1.7352">
        <ele>152</ele>
        <time>2011-04-20T07:19:36.000Z</time>
      </trkpt>
      <trkpt lat="48.67005" lon="1.73517">
        <ele>151.60000610352</ele>
        <time>2011-04-20T07:19:39.000Z</time>
      </trkpt>
      <trkpt lat="48.67012" lon="1.73505">
        <ele>150.60000610352</ele>
        <time>2011-04-20T07:19:47.000Z</time>
      </trkpt>
      <trkpt lat="48.67016" lon="1.73499">
        <ele>152.60000610352</ele>
        <time>2011-04-20T07:19:52.000Z</time>
      </trkpt>
      <trkpt lat="48.67024" lon="1.73503">
        <ele>154.39999389648</ele>
        <time>2011-04-20T07:19:58.000Z</time>
      </trkpt>
      <trkpt lat="48.67026" lon="1.73505">
        <ele>155.39999389648</ele>
        <time>2011-04-20T07:20:00.000Z</time>
      </trkpt>
      <trkpt lat="48.67035" lon="1.7351">
        <ele>158.19999694824</ele>
        <time>2011-04-20T07:20:08.000Z</time>
      </trkpt>
      <trkpt lat="48.67036" lon="1.7351">
        <ele>158.19999694824</ele>
        <time>2011-04-20T07:20:09.000Z</time>
      </trkpt>
      <trkpt lat="48.67042" lon="1.73504">
        <ele>158.80000305176</ele>
        <time>2011-04-20T07:20:17.000Z</time>
      </trkpt>
      <trkpt lat="48.67046" lon="1.73499">
        <ele>158.19999694824</ele>
        <time>2011-04-20T07:20:22.000Z</time>
      </trkpt>
      <trkpt lat="48.67047" lon="1.73489">
        <ele>156.39999389648</ele>
        <time>2011-04-20T07:20:28.000Z</time>
      </trkpt>
      <trkpt lat="48.67048" lon="1.73487">
        <ele>155.39999389648</ele>
        <time>2011-04-20T07:20:31.000Z</time>
      </trkpt>
      <trkpt lat="48.67051" lon="1.73464">
        <ele>153.39999389648</ele>
        <time>2011-04-20T07:21:10.000Z</time>
      </trkpt>
      <trkpt lat="48.67053" lon="1.73457">
        <ele>154.39999389648</ele>
        <time>2011-04-20T07:21:13.000Z</time>
      </trkpt>
      <trkpt lat="48.67053" lon="1.73442">
        <ele>154</ele>
        <time>2011-04-20T07:21:21.000Z</time>
      </trkpt>
      <trkpt lat="48.67058" lon="1.73429">
        <ele>154</ele>
        <time>2011-04-20T07:21:29.000Z</time>
      </trkpt>
      <trkpt lat="48.67062" lon="1.73423">
        <ele>155.39999389648</ele>
        <time>2011-04-20T07:21:35.000Z</time>
      </trkpt>
      <trkpt lat="48.67067" lon="1.73415">
        <ele>156.80000305176</ele>
        <time>2011-04-20T07:21:42.000Z</time>
      </trkpt>
      <trkpt lat="48.67074" lon="1.73413">
        <ele>156.39999389648</ele>
        <time>2011-04-20T07:21:48.000Z</time>
      </trkpt>
      <trkpt lat="48.67077" lon="1.73413">
        <ele>157.39999389648</ele>
        <time>2011-04-20T07:21:51.000Z</time>
      </trkpt>
      <trkpt lat="48.67082" lon="1.73404">
        <ele>156.39999389648</ele>
        <time>2011-04-20T07:21:58.000Z</time>
      </trkpt>
      <trkpt lat="48.67088" lon="1.73402">
        <ele>156.80000305176</ele>
        <time>2011-04-20T07:22:04.000Z</time>
      </trkpt>
      <trkpt lat="48.6709" lon="1.73405">
        <ele>157.39999389648</ele>
        <time>2011-04-20T07:22:07.000Z</time>
      </trkpt>
      <trkpt lat="48.67096" lon="1.73405">
        <ele>159.19999694824</ele>
        <time>2011-04-20T07:22:13.000Z</time>
      </trkpt>
      <trkpt lat="48.67101" lon="1.73411">
        <ele>160.60000610352</ele>
        <time>2011-04-20T07:22:19.000Z</time>
      </trkpt>
      <trkpt lat="48.67102" lon="1.73414">
        <ele>161.60000610352</ele>
        <time>2011-04-20T07:22:21.000Z</time>
      </trkpt>
      <trkpt lat="48.67108" lon="1.73425">
        <ele>162.19999694824</ele>
        <time>2011-04-20T07:22:29.000Z</time>
      </trkpt>
      <trkpt lat="48.67115" lon="1.73433">
        <ele>162.60000610352</ele>
        <time>2011-04-20T07:22:37.000Z</time>
      </trkpt>
      <trkpt lat="48.67123" lon="1.73437">
        <ele>163</ele>
        <time>2011-04-20T07:22:44.000Z</time>
      </trkpt>
      <trkpt lat="48.67129" lon="1.73443">
        <ele>163.60000610352</ele>
        <time>2011-04-20T07:22:50.000Z</time>
      </trkpt>
      <trkpt lat="48.67132" lon="1.73448">
        <ele>163</ele>
        <time>2011-04-20T07:22:54.000Z</time>
      </trkpt>
      <trkpt lat="48.67133" lon="1.7345">
        <ele>163</ele>
        <time>2011-04-20T07:22:56.000Z</time>
      </trkpt>
      <trkpt lat="48.67134" lon="1.73453">
        <ele>163</ele>
        <time>2011-04-20T07:22:59.000Z</time>
      </trkpt>
      <trkpt lat="48.67136" lon="1.73463">
        <ele>166</ele>
        <time>2011-04-20T07:23:06.000Z</time>
      </trkpt>
      <trkpt lat="48.67139" lon="1.73477">
        <ele>166</ele>
        <time>2011-04-20T07:23:14.000Z</time>
      </trkpt>
      <trkpt lat="48.67143" lon="1.7349">
        <ele>165.39999389648</ele>
        <time>2011-04-20T07:23:22.000Z</time>
      </trkpt>
      <trkpt lat="48.67146" lon="1.73502">
        <ele>163.60000610352</ele>
        <time>2011-04-20T07:23:29.000Z</time>
      </trkpt>
      <trkpt lat="48.67151" lon="1.73508">
        <ele>166.39999389648</ele>
        <time>2011-04-20T07:23:34.000Z</time>
      </trkpt>
      <trkpt lat="48.67154" lon="1.73509">
        <ele>167</ele>
        <time>2011-04-20T07:23:36.000Z</time>
      </trkpt>
      <trkpt lat="48.67158" lon="1.73518">
        <ele>166.39999389648</ele>
        <time>2011-04-20T07:23:43.000Z</time>
      </trkpt>
      <trkpt lat="48.67159" lon="1.73522">
        <ele>166.39999389648</ele>
        <time>2011-04-20T07:23:47.000Z</time>
      </trkpt>
      <trkpt lat="48.67162" lon="1.73525">
        <ele>165</ele>
        <time>2011-04-20T07:23:53.000Z</time>
      </trkpt>
      <trkpt lat="48.67171" lon="1.73545">
        <ele>165</ele>
        <time>2011-04-20T07:32:04.000Z</time>
      </trkpt>
      <trkpt lat="48.67173" lon="1.73552">
        <ele>164.60000610352</ele>
        <time>2011-04-20T07:32:07.000Z</time>
      </trkpt>
      <trkpt lat="48.67176" lon="1.73562">
        <ele>164</ele>
        <time>2011-04-20T07:32:12.000Z</time>
      </trkpt>
      <trkpt lat="48.67176" lon="1.73569">
        <ele>162.60000610352</ele>
        <time>2011-04-20T07:32:16.000Z</time>
      </trkpt>
      <trkpt lat="48.67178" lon="1.73579">
        <ele>162.19999694824</ele>
        <time>2011-04-20T07:32:21.000Z</time>
      </trkpt>
      <trkpt lat="48.67184" lon="1.73584">
        <ele>162.19999694824</ele>
        <time>2011-04-20T07:32:27.000Z</time>
      </trkpt>
      <trkpt lat="48.67187" lon="1.73593">
        <ele>162.19999694824</ele>
        <time>2011-04-20T07:32:32.000Z</time>
      </trkpt>
      <trkpt lat="48.67189" lon="1.73601">
        <ele>163</ele>
        <time>2011-04-20T07:32:37.000Z</time>
      </trkpt>
      <trkpt lat="48.67189" lon="1.73611">
        <ele>165</ele>
        <time>2011-04-20T07:32:43.000Z</time>
      </trkpt>
      <trkpt lat="48.67189" lon="1.73613">
        <ele>165</ele>
        <time>2011-04-20T07:32:44.000Z</time>
      </trkpt>
      <trkpt lat="48.67189" lon="1.7362">
        <ele>165.39999389648</ele>
        <time>2011-04-20T07:32:48.000Z</time>
      </trkpt>
      <trkpt lat="48.67188" lon="1.73626">
        <ele>166.39999389648</ele>
        <time>2011-04-20T07:32:50.000Z</time>
      </trkpt>
      <trkpt lat="48.67191" lon="1.73635">
        <ele>167</ele>
        <time>2011-04-20T07:32:55.000Z</time>
      </trkpt>
      <trkpt lat="48.67191" lon="1.73646">
        <ele>167</ele>
        <time>2011-04-20T07:33:01.000Z</time>
      </trkpt>
      <trkpt lat="48.67191" lon="1.73648">
        <ele>167</ele>
        <time>2011-04-20T07:33:02.000Z</time>
      </trkpt>
      <trkpt lat="48.67193" lon="1.7366">
        <ele>167.39999389648</ele>
        <time>2011-04-20T07:33:08.000Z</time>
      </trkpt>
      <trkpt lat="48.67193" lon="1.73673">
        <ele>166.39999389648</ele>
        <time>2011-04-20T07:33:15.000Z</time>
      </trkpt>
      <trkpt lat="48.67192" lon="1.73678">
        <ele>166</ele>
        <time>2011-04-20T07:33:19.000Z</time>
      </trkpt>
      <trkpt lat="48.67189" lon="1.73685">
        <ele>163</ele>
        <time>2011-04-20T07:33:23.000Z</time>
      </trkpt>
      <trkpt lat="48.67183" lon="1.7369">
        <ele>160.60000610352</ele>
        <time>2011-04-20T07:33:27.000Z</time>
      </trkpt>
      <trkpt lat="48.67181" lon="1.73699">
        <ele>158.80000305176</ele>
        <time>2011-04-20T07:33:32.000Z</time>
      </trkpt>
      <trkpt lat="48.67178" lon="1.73712">
        <ele>160.19999694824</ele>
        <time>2011-04-20T07:33:36.000Z</time>
      </trkpt>
      <trkpt lat="48.67177" lon="1.7372">
        <ele>162.19999694824</ele>
        <time>2011-04-20T07:33:39.000Z</time>
      </trkpt>
      <trkpt lat="48.67172" lon="1.73731">
        <ele>161.60000610352</ele>
        <time>2011-04-20T07:33:45.000Z</time>
      </trkpt>
      <trkpt lat="48.67169" lon="1.73739">
        <ele>161.60000610352</ele>
        <time>2011-04-20T07:33:50.000Z</time>
      </trkpt>
      <trkpt lat="48.67164" lon="1.73744">
        <ele>159.19999694824</ele>
        <time>2011-04-20T07:33:56.000Z</time>
      </trkpt>
      <trkpt lat="48.67163" lon="1.73746">
        <ele>159.19999694824</ele>
        <time>2011-04-20T07:33:58.000Z</time>
      </trkpt>
      <trkpt lat="48.67161" lon="1.73751">
        <ele>159.19999694824</ele>
        <time>2011-04-20T07:34:01.000Z</time>
      </trkpt>
      <trkpt lat="48.6716" lon="1.73759">
        <ele>159.80000305176</ele>
        <time>2011-04-20T07:34:07.000Z</time>
      </trkpt>
      <trkpt lat="48.6716" lon="1.73761">
        <ele>160.19999694824</ele>
        <time>2011-04-20T07:34:08.000Z</time>
      </trkpt>
      <trkpt lat="48.6716" lon="1.73764">
        <ele>161.19999694824</ele>
        <time>2011-04-20T07:34:10.000Z</time>
      </trkpt>
      <trkpt lat="48.67161" lon="1.73767">
        <ele>160.60000610352</ele>
        <time>2011-04-20T07:34:12.000Z</time>
      </trkpt>
      <trkpt lat="48.67164" lon="1.73771">
        <ele>159.19999694824</ele>
        <time>2011-04-20T07:34:18.000Z</time>
      </trkpt>
      <trkpt lat="48.67187" lon="1.73781">
        <ele>151.60000610352</ele>
        <time>2011-04-20T07:34:54.000Z</time>
      </trkpt>
      <trkpt lat="48.67188" lon="1.73781">
        <ele>152</ele>
        <time>2011-04-20T07:34:55.000Z</time>
      </trkpt>
      <trkpt lat="48.67193" lon="1.73785">
        <ele>151</ele>
        <time>2011-04-20T07:35:01.000Z</time>
      </trkpt>
      <trkpt lat="48.67197" lon="1.73787">
        <ele>151</ele>
        <time>2011-04-20T07:35:06.000Z</time>
      </trkpt>
      <trkpt lat="48.67201" lon="1.73788">
        <ele>152</ele>
        <time>2011-04-20T07:35:10.000Z</time>
      </trkpt>
      <trkpt lat="48.67203" lon="1.7379">
        <ele>150.60000610352</ele>
        <time>2011-04-20T07:35:15.000Z</time>
      </trkpt>
      <trkpt lat="48.67205" lon="1.7379">
        <ele>149.19999694824</ele>
        <time>2011-04-20T07:35:19.000Z</time>
      </trkpt>
      <trkpt lat="48.67227" lon="1.73784">
        <ele>147.19999694824</ele>
        <time>2011-04-20T07:35:50.000Z</time>
      </trkpt>
      <trkpt lat="48.67233" lon="1.73783">
        <ele>147.60000610352</ele>
        <time>2011-04-20T07:35:55.000Z</time>
      </trkpt>
      <trkpt lat="48.67234" lon="1.73783">
        <ele>148.19999694824</ele>
        <time>2011-04-20T07:35:56.000Z</time>
      </trkpt>
      <trkpt lat="48.6724" lon="1.73782">
        <ele>147.60000610352</ele>
        <time>2011-04-20T07:36:02.000Z</time>
      </trkpt>
      <trkpt lat="48.67246" lon="1.73776">
        <ele>145.80000305176</ele>
        <time>2011-04-20T07:36:07.000Z</time>
      </trkpt>
      <trkpt lat="48.67247" lon="1.73773">
        <ele>144.80000305176</ele>
        <time>2011-04-20T07:36:10.000Z</time>
      </trkpt>
      <trkpt lat="48.6725" lon="1.73762">
        <ele>144.39999389648</ele>
        <time>2011-04-20T07:36:16.000Z</time>
      </trkpt>
      <trkpt lat="48.6725" lon="1.73751">
        <ele>141.39999389648</ele>
        <time>2011-04-20T07:36:22.000Z</time>
      </trkpt>
      <trkpt lat="48.6725" lon="1.73744">
        <ele>142.39999389648</ele>
        <time>2011-04-20T07:36:26.000Z</time>
      </trkpt>
      <trkpt lat="48.6725" lon="1.7374">
        <ele>141</ele>
        <time>2011-04-20T07:36:31.000Z</time>
      </trkpt>
      <trkpt lat="48.6725" lon="1.7374">
        <ele>141</ele>
        <time>2011-04-20T07:36:32.000Z</time>
      </trkpt>
      <trkpt lat="48.67257" lon="1.73748">
        <ele>140</ele>
        <time>2011-04-20T07:37:18.000Z</time>
      </trkpt>
      <trkpt lat="48.67257" lon="1.73754">
        <ele>139</ele>
        <time>2011-04-20T07:37:22.000Z</time>
      </trkpt>
      <trkpt lat="48.67259" lon="1.73757">
        <ele>139.60000610352</ele>
        <time>2011-04-20T07:37:29.000Z</time>
      </trkpt>
      <trkpt lat="48.67262" lon="1.73762">
        <ele>139</ele>
        <time>2011-04-20T07:37:33.000Z</time>
      </trkpt>
      <trkpt lat="48.67262" lon="1.7377">
        <ele>138.60000610352</ele>
        <time>2011-04-20T07:37:37.000Z</time>
      </trkpt>
      <trkpt lat="48.67261" lon="1.73772">
        <ele>138.60000610352</ele>
        <time>2011-04-20T07:37:38.000Z</time>
      </trkpt>
      <trkpt lat="48.67255" lon="1.73778">
        <ele>138</ele>
        <time>2011-04-20T07:37:44.000Z</time>
      </trkpt>
      <trkpt lat="48.67254" lon="1.73784">
        <ele>138.60000610352</ele>
        <time>2011-04-20T07:37:47.000Z</time>
      </trkpt>
      <trkpt lat="48.67254" lon="1.73788">
        <ele>139.60000610352</ele>
        <time>2011-04-20T07:37:51.000Z</time>
      </trkpt>
      <trkpt lat="48.67255" lon="1.73789">
        <ele>140.39999389648</ele>
        <time>2011-04-20T07:37:55.000Z</time>
      </trkpt>
      <trkpt lat="48.67267" lon="1.73802">
        <ele>143.80000305176</ele>
        <time>2011-04-20T07:39:08.000Z</time>
      </trkpt>
      <trkpt lat="48.6727" lon="1.73805">
        <ele>142.80000305176</ele>
        <time>2011-04-20T07:39:10.000Z</time>
      </trkpt>
      <trkpt lat="48.67281" lon="1.73808">
        <ele>141</ele>
        <time>2011-04-20T07:39:20.000Z</time>
      </trkpt>
      <trkpt lat="48.67287" lon="1.73801">
        <ele>140</ele>
        <time>2011-04-20T07:39:27.000Z</time>
      </trkpt>
      <trkpt lat="48.67291" lon="1.73792">
        <ele>140</ele>
        <time>2011-04-20T07:39:32.000Z</time>
      </trkpt>
      <trkpt lat="48.67294" lon="1.73781">
        <ele>140.39999389648</ele>
        <time>2011-04-20T07:39:38.000Z</time>
      </trkpt>
      <trkpt lat="48.67297" lon="1.73767">
        <ele>139.60000610352</ele>
        <time>2011-04-20T07:39:45.000Z</time>
      </trkpt>
      <trkpt lat="48.67298" lon="1.73762">
        <ele>139.60000610352</ele>
        <time>2011-04-20T07:39:48.000Z</time>
      </trkpt>
      <trkpt lat="48.67298" lon="1.73759">
        <ele>139.60000610352</ele>
        <time>2011-04-20T07:39:53.000Z</time>
      </trkpt>
      <trkpt lat="48.67299" lon="1.73751">
        <ele>140.39999389648</ele>
        <time>2011-04-20T07:40:06.000Z</time>
      </trkpt>
      <trkpt lat="48.67303" lon="1.73737">
        <ele>141.39999389648</ele>
        <time>2011-04-20T07:40:12.000Z</time>
      </trkpt>
      <trkpt lat="48.67307" lon="1.73715">
        <ele>141</ele>
        <time>2011-04-20T07:40:23.000Z</time>
      </trkpt>
      <trkpt lat="48.67309" lon="1.73705">
        <ele>141.39999389648</ele>
        <time>2011-04-20T07:40:28.000Z</time>
      </trkpt>
      <trkpt lat="48.6731" lon="1.73697">
        <ele>142</ele>
        <time>2011-04-20T07:40:32.000Z</time>
      </trkpt>
      <trkpt lat="48.67315" lon="1.73683">
        <ele>142.39999389648</ele>
        <time>2011-04-20T07:40:39.000Z</time>
      </trkpt>
      <trkpt lat="48.67321" lon="1.73663">
        <ele>142</ele>
        <time>2011-04-20T07:40:49.000Z</time>
      </trkpt>
      <trkpt lat="48.67325" lon="1.7365">
        <ele>141</ele>
        <time>2011-04-20T07:40:56.000Z</time>
      </trkpt>
      <trkpt lat="48.67329" lon="1.7363">
        <ele>140</ele>
        <time>2011-04-20T07:41:06.000Z</time>
      </trkpt>
      <trkpt lat="48.6733" lon="1.73616">
        <ele>139.60000610352</ele>
        <time>2011-04-20T07:41:13.000Z</time>
      </trkpt>
      <trkpt lat="48.67331" lon="1.73603">
        <ele>138.60000610352</ele>
        <time>2011-04-20T07:41:19.000Z</time>
      </trkpt>
      <trkpt lat="48.67334" lon="1.7359">
        <ele>138</ele>
        <time>2011-04-20T07:41:27.000Z</time>
      </trkpt>
      <trkpt lat="48.6734" lon="1.73585">
        <ele>138</ele>
        <time>2011-04-20T07:41:33.000Z</time>
      </trkpt>
      <trkpt lat="48.67346" lon="1.73572">
        <ele>142.39999389648</ele>
        <time>2011-04-20T07:41:39.000Z</time>
      </trkpt>
      <trkpt lat="48.67351" lon="1.73563">
        <ele>147.19999694824</ele>
        <time>2011-04-20T07:41:45.000Z</time>
      </trkpt>
      <trkpt lat="48.67353" lon="1.7356">
        <ele>148.19999694824</ele>
        <time>2011-04-20T07:41:47.000Z</time>
      </trkpt>
      <trkpt lat="48.67357" lon="1.73556">
        <ele>149.19999694824</ele>
        <time>2011-04-20T07:41:52.000Z</time>
      </trkpt>
      <trkpt lat="48.67358" lon="1.73556">
        <ele>149.19999694824</ele>
        <time>2011-04-20T07:41:53.000Z</time>
      </trkpt>
      <trkpt lat="48.67359" lon="1.73549">
        <ele>151</ele>
        <time>2011-04-20T07:41:57.000Z</time>
      </trkpt>
      <trkpt lat="48.6736" lon="1.73546">
        <ele>151.60000610352</ele>
        <time>2011-04-20T07:42:01.000Z</time>
      </trkpt>
      <trkpt lat="48.6736" lon="1.73517">
        <ele>151</ele>
        <time>2011-04-20T07:42:42.000Z</time>
      </trkpt>
      <trkpt lat="48.67358" lon="1.73511">
        <ele>152.60000610352</ele>
        <time>2011-04-20T07:42:46.000Z</time>
      </trkpt>
      <trkpt lat="48.67356" lon="1.73505">
        <ele>156.39999389648</ele>
        <time>2011-04-20T07:42:52.000Z</time>
      </trkpt>
      <trkpt lat="48.67356" lon="1.73504">
        <ele>156.80000305176</ele>
        <time>2011-04-20T07:42:54.000Z</time>
      </trkpt>
      <trkpt lat="48.67357" lon="1.73468">
        <ele>161.60000610352</ele>
        <time>2011-04-20T07:45:00.000Z</time>
      </trkpt>
      <trkpt lat="48.67356" lon="1.73466">
        <ele>161.19999694824</ele>
        <time>2011-04-20T07:45:01.000Z</time>
      </trkpt>
      <trkpt lat="48.67357" lon="1.73446">
        <ele>161.60000610352</ele>
        <time>2011-04-20T07:45:10.000Z</time>
      </trkpt>
      <trkpt lat="48.67357" lon="1.73439">
        <ele>161.60000610352</ele>
        <time>2011-04-20T07:45:14.000Z</time>
      </trkpt>
      <trkpt lat="48.67361" lon="1.73431">
        <ele>163</ele>
        <time>2011-04-20T07:45:20.000Z</time>
      </trkpt>
      <trkpt lat="48.67363" lon="1.73428">
        <ele>163</ele>
        <time>2011-04-20T07:45:22.000Z</time>
      </trkpt>
      <trkpt lat="48.67363" lon="1.73417">
        <ele>164.60000610352</ele>
        <time>2011-04-20T07:45:28.000Z</time>
      </trkpt>
      <trkpt lat="48.67366" lon="1.73405">
        <ele>163.60000610352</ele>
        <time>2011-04-20T07:45:35.000Z</time>
      </trkpt>
      <trkpt lat="48.67366" lon="1.73404">
        <ele>163.60000610352</ele>
        <time>2011-04-20T07:45:36.000Z</time>
      </trkpt>
      <trkpt lat="48.6737" lon="1.73398">
        <ele>163.60000610352</ele>
        <time>2011-04-20T07:45:40.000Z</time>
      </trkpt>
      <trkpt lat="48.67377" lon="1.73394">
        <ele>162.60000610352</ele>
        <time>2011-04-20T07:45:47.000Z</time>
      </trkpt>
      <trkpt lat="48.67382" lon="1.73391">
        <ele>164.60000610352</ele>
        <time>2011-04-20T07:45:52.000Z</time>
      </trkpt>
      <trkpt lat="48.67391" lon="1.7339">
        <ele>163.60000610352</ele>
        <time>2011-04-20T07:46:00.000Z</time>
      </trkpt>
      <trkpt lat="48.67399" lon="1.73385">
        <ele>164.60000610352</ele>
        <time>2011-04-20T07:46:06.000Z</time>
      </trkpt>
      <trkpt lat="48.67407" lon="1.73379">
        <ele>166</ele>
        <time>2011-04-20T07:46:12.000Z</time>
      </trkpt>
      <trkpt lat="48.67417" lon="1.73369">
        <ele>164</ele>
        <time>2011-04-20T07:46:21.000Z</time>
      </trkpt>
      <trkpt lat="48.67421" lon="1.73362">
        <ele>163</ele>
        <time>2011-04-20T07:46:25.000Z</time>
      </trkpt>
      <trkpt lat="48.67424" lon="1.73356">
        <ele>162.60000610352</ele>
        <time>2011-04-20T07:46:29.000Z</time>
      </trkpt>
      <trkpt lat="48.67431" lon="1.73345">
        <ele>162.60000610352</ele>
        <time>2011-04-20T07:46:37.000Z</time>
      </trkpt>
      <trkpt lat="48.67435" lon="1.73339">
        <ele>165</ele>
        <time>2011-04-20T07:46:41.000Z</time>
      </trkpt>
      <trkpt lat="48.67439" lon="1.73334">
        <ele>166</ele>
        <time>2011-04-20T07:46:45.000Z</time>
      </trkpt>
      <trkpt lat="48.67447" lon="1.73325">
        <ele>166.39999389648</ele>
        <time>2011-04-20T07:46:54.000Z</time>
      </trkpt>
      <trkpt lat="48.67448" lon="1.73322">
        <ele>167</ele>
        <time>2011-04-20T07:46:56.000Z</time>
      </trkpt>
      <trkpt lat="48.67454" lon="1.73313">
        <ele>166.39999389648</ele>
        <time>2011-04-20T07:47:04.000Z</time>
      </trkpt>
      <trkpt lat="48.67459" lon="1.73305">
        <ele>166</ele>
        <time>2011-04-20T07:47:10.000Z</time>
      </trkpt>
      <trkpt lat="48.67461" lon="1.73298">
        <ele>166</ele>
        <time>2011-04-20T07:47:14.000Z</time>
      </trkpt>
      <trkpt lat="48.67466" lon="1.73288">
        <ele>163.60000610352</ele>
        <time>2011-04-20T07:47:21.000Z</time>
      </trkpt>
      <trkpt lat="48.6747" lon="1.73278">
        <ele>160.60000610352</ele>
        <time>2011-04-20T07:47:29.000Z</time>
      </trkpt>
      <trkpt lat="48.67472" lon="1.73269">
        <ele>161.60000610352</ele>
        <time>2011-04-20T07:47:34.000Z</time>
      </trkpt>
      <trkpt lat="48.67477" lon="1.73257">
        <ele>165</ele>
        <time>2011-04-20T07:47:41.000Z</time>
      </trkpt>
      <trkpt lat="48.67478" lon="1.73254">
        <ele>164.60000610352</ele>
        <time>2011-04-20T07:47:43.000Z</time>
      </trkpt>
      <trkpt lat="48.67484" lon="1.73244">
        <ele>167</ele>
        <time>2011-04-20T07:47:50.000Z</time>
      </trkpt>
      <trkpt lat="48.67493" lon="1.73233">
        <ele>166.39999389648</ele>
        <time>2011-04-20T07:47:57.000Z</time>
      </trkpt>
      <trkpt lat="48.67498" lon="1.73232">
        <ele>167</ele>
        <time>2011-04-20T07:48:01.000Z</time>
      </trkpt>
      <trkpt lat="48.67507" lon="1.73239">
        <ele>166.39999389648</ele>
        <time>2011-04-20T07:48:09.000Z</time>
      </trkpt>
      <trkpt lat="48.67511" lon="1.73246">
        <ele>165.39999389648</ele>
        <time>2011-04-20T07:48:14.000Z</time>
      </trkpt>
      <trkpt lat="48.67521" lon="1.73255">
        <ele>170.19999694824</ele>
        <time>2011-04-20T07:48:22.000Z</time>
      </trkpt>
      <trkpt lat="48.67522" lon="1.73256">
        <ele>170.80000305176</ele>
        <time>2011-04-20T07:48:23.000Z</time>
      </trkpt>
      <trkpt lat="48.67527" lon="1.73258">
        <ele>171.80000305176</ele>
        <time>2011-04-20T07:48:27.000Z</time>
      </trkpt>
      <trkpt lat="48.67529" lon="1.73257">
        <ele>173.60000610352</ele>
        <time>2011-04-20T07:48:33.000Z</time>
      </trkpt>
      <trkpt lat="48.67551" lon="1.7328">
        <ele>174.19999694824</ele>
        <time>2011-04-20T07:49:27.000Z</time>
      </trkpt>
      <trkpt lat="48.67559" lon="1.73293">
        <ele>172.19999694824</ele>
        <time>2011-04-20T07:49:34.000Z</time>
      </trkpt>
      <trkpt lat="48.67568" lon="1.73305">
        <ele>168.80000305176</ele>
        <time>2011-04-20T07:49:43.000Z</time>
      </trkpt>
      <trkpt lat="48.67581" lon="1.73312">
        <ele>168.80000305176</ele>
        <time>2011-04-20T07:49:52.000Z</time>
      </trkpt>
      <trkpt lat="48.67594" lon="1.73316">
        <ele>168.80000305176</ele>
        <time>2011-04-20T07:50:01.000Z</time>
      </trkpt>
      <trkpt lat="48.67612" lon="1.73316">
        <ele>168.39999389648</ele>
        <time>2011-04-20T07:50:14.000Z</time>
      </trkpt>
      <trkpt lat="48.67624" lon="1.73316">
        <ele>169.39999389648</ele>
        <time>2011-04-20T07:50:23.000Z</time>
      </trkpt>
      <trkpt lat="48.67634" lon="1.73319">
        <ele>169.80000305176</ele>
        <time>2011-04-20T07:50:31.000Z</time>
      </trkpt>
      <trkpt lat="48.67646" lon="1.7332">
        <ele>170.80000305176</ele>
        <time>2011-04-20T07:50:39.000Z</time>
      </trkpt>
      <trkpt lat="48.67658" lon="1.73323">
        <ele>170.80000305176</ele>
        <time>2011-04-20T07:50:48.000Z</time>
      </trkpt>
      <trkpt lat="48.67674" lon="1.73326">
        <ele>171.19999694824</ele>
        <time>2011-04-20T07:50:59.000Z</time>
      </trkpt>
      <trkpt lat="48.67683" lon="1.73328">
        <ele>170.80000305176</ele>
        <time>2011-04-20T07:51:06.000Z</time>
      </trkpt>
      <trkpt lat="48.67691" lon="1.73331">
        <ele>171.80000305176</ele>
        <time>2011-04-20T07:51:12.000Z</time>
      </trkpt>
      <trkpt lat="48.677" lon="1.73334">
        <ele>171.80000305176</ele>
        <time>2011-04-20T07:51:19.000Z</time>
      </trkpt>
      <trkpt lat="48.67708" lon="1.73337">
        <ele>171.19999694824</ele>
        <time>2011-04-20T07:51:25.000Z</time>
      </trkpt>
      <trkpt lat="48.67719" lon="1.73339">
        <ele>171.80000305176</ele>
        <time>2011-04-20T07:51:32.000Z</time>
      </trkpt>
      <trkpt lat="48.67728" lon="1.73341">
        <ele>172.60000610352</ele>
        <time>2011-04-20T07:51:39.000Z</time>
      </trkpt>
      <trkpt lat="48.67733" lon="1.73345">
        <ele>173.60000610352</ele>
        <time>2011-04-20T07:51:43.000Z</time>
      </trkpt>
      <trkpt lat="48.67742" lon="1.73348">
        <ele>174.60000610352</ele>
        <time>2011-04-20T07:51:50.000Z</time>
      </trkpt>
      <trkpt lat="48.67752" lon="1.73356">
        <ele>173.60000610352</ele>
        <time>2011-04-20T07:51:58.000Z</time>
      </trkpt>
      <trkpt lat="48.6776" lon="1.73364">
        <ele>173.19999694824</ele>
        <time>2011-04-20T07:52:05.000Z</time>
      </trkpt>
      <trkpt lat="48.67769" lon="1.73372">
        <ele>173.19999694824</ele>
        <time>2011-04-20T07:52:12.000Z</time>
      </trkpt>
      <trkpt lat="48.6778" lon="1.73382">
        <ele>175.60000610352</ele>
        <time>2011-04-20T07:52:20.000Z</time>
      </trkpt>
      <trkpt lat="48.6779" lon="1.73391">
        <ele>174.60000610352</ele>
        <time>2011-04-20T07:52:28.000Z</time>
      </trkpt>
      <trkpt lat="48.67791" lon="1.73392">
        <ele>174.19999694824</ele>
        <time>2011-04-20T07:52:31.000Z</time>
      </trkpt>
      <trkpt lat="48.67797" lon="1.73401">
        <ele>176</ele>
        <time>2011-04-20T07:53:04.000Z</time>
      </trkpt>
      <trkpt lat="48.67806" lon="1.73408">
        <ele>175.60000610352</ele>
        <time>2011-04-20T07:53:10.000Z</time>
      </trkpt>
      <trkpt lat="48.67808" lon="1.73409">
        <ele>176.60000610352</ele>
        <time>2011-04-20T07:53:11.000Z</time>
      </trkpt>
      <trkpt lat="48.67814" lon="1.73416">
        <ele>175</ele>
        <time>2011-04-20T07:53:18.000Z</time>
      </trkpt>
      <trkpt lat="48.67822" lon="1.73425">
        <ele>171.80000305176</ele>
        <time>2011-04-20T07:53:24.000Z</time>
      </trkpt>
      <trkpt lat="48.67826" lon="1.73428">
        <ele>170.19999694824</ele>
        <time>2011-04-20T07:53:27.000Z</time>
      </trkpt>
      <trkpt lat="48.67835" lon="1.73436">
        <ele>167.39999389648</ele>
        <time>2011-04-20T07:53:35.000Z</time>
      </trkpt>
      <trkpt lat="48.67844" lon="1.73443">
        <ele>167.39999389648</ele>
        <time>2011-04-20T07:53:42.000Z</time>
      </trkpt>
      <trkpt lat="48.67851" lon="1.7345">
        <ele>166.39999389648</ele>
        <time>2011-04-20T07:53:48.000Z</time>
      </trkpt>
      <trkpt lat="48.67861" lon="1.73458">
        <ele>167.80000305176</ele>
        <time>2011-04-20T07:53:55.000Z</time>
      </trkpt>
      <trkpt lat="48.67868" lon="1.73465">
        <ele>168.39999389648</ele>
        <time>2011-04-20T07:54:00.000Z</time>
      </trkpt>
      <trkpt lat="48.67875" lon="1.73473">
        <ele>167.80000305176</ele>
        <time>2011-04-20T07:54:06.000Z</time>
      </trkpt>
      <trkpt lat="48.67888" lon="1.73491">
        <ele>167</ele>
        <time>2011-04-20T07:54:18.000Z</time>
      </trkpt>
      <trkpt lat="48.67893" lon="1.73498">
        <ele>167</ele>
        <time>2011-04-20T07:54:23.000Z</time>
      </trkpt>
      <trkpt lat="48.67901" lon="1.73509">
        <ele>167</ele>
        <time>2011-04-20T07:54:30.000Z</time>
      </trkpt>
      <trkpt lat="48.67911" lon="1.73522">
        <ele>167.39999389648</ele>
        <time>2011-04-20T07:54:39.000Z</time>
      </trkpt>
      <trkpt lat="48.67918" lon="1.73534">
        <ele>167</ele>
        <time>2011-04-20T07:54:46.000Z</time>
      </trkpt>
      <trkpt lat="48.67927" lon="1.73546">
        <ele>168.80000305176</ele>
        <time>2011-04-20T07:54:54.000Z</time>
      </trkpt>
      <trkpt lat="48.67935" lon="1.73558">
        <ele>168.80000305176</ele>
        <time>2011-04-20T07:55:02.000Z</time>
      </trkpt>
      <trkpt lat="48.67941" lon="1.73568">
        <ele>167.39999389648</ele>
        <time>2011-04-20T07:55:08.000Z</time>
      </trkpt>
      <trkpt lat="48.67951" lon="1.73581">
        <ele>165</ele>
        <time>2011-04-20T07:55:16.000Z</time>
      </trkpt>
      <trkpt lat="48.67955" lon="1.73589">
        <ele>164</ele>
        <time>2011-04-20T07:55:22.000Z</time>
      </trkpt>
      <trkpt lat="48.67957" lon="1.7359">
        <ele>165.39999389648</ele>
        <time>2011-04-20T07:55:25.000Z</time>
      </trkpt>
      <trkpt lat="48.67965" lon="1.73602">
        <ele>165</ele>
        <time>2011-04-20T07:55:33.000Z</time>
      </trkpt>
      <trkpt lat="48.67971" lon="1.73611">
        <ele>163.60000610352</ele>
        <time>2011-04-20T07:55:39.000Z</time>
      </trkpt>
      <trkpt lat="48.67973" lon="1.73612">
        <ele>163.60000610352</ele>
        <time>2011-04-20T07:55:40.000Z</time>
      </trkpt>
      <trkpt lat="48.67981" lon="1.73626">
        <ele>163.60000610352</ele>
        <time>2011-04-20T07:55:48.000Z</time>
      </trkpt>
      <trkpt lat="48.67983" lon="1.73629">
        <ele>164</ele>
        <time>2011-04-20T07:55:50.000Z</time>
      </trkpt>
      <trkpt lat="48.6799" lon="1.73642">
        <ele>163</ele>
        <time>2011-04-20T07:55:58.000Z</time>
      </trkpt>
      <trkpt lat="48.67997" lon="1.7365">
        <ele>165</ele>
        <time>2011-04-20T07:56:04.000Z</time>
      </trkpt>
      <trkpt lat="48.68007" lon="1.73662">
        <ele>166.39999389648</ele>
        <time>2011-04-20T07:56:12.000Z</time>
      </trkpt>
      <trkpt lat="48.68017" lon="1.73676">
        <ele>167.39999389648</ele>
        <time>2011-04-20T07:56:22.000Z</time>
      </trkpt>
      <trkpt lat="48.68021" lon="1.73683">
        <ele>168.39999389648</ele>
        <time>2011-04-20T07:56:28.000Z</time>
      </trkpt>
      <trkpt lat="48.68026" lon="1.73691">
        <ele>168.39999389648</ele>
        <time>2011-04-20T07:56:33.000Z</time>
      </trkpt>
      <trkpt lat="48.68033" lon="1.73702">
        <ele>167</ele>
        <time>2011-04-20T07:56:39.000Z</time>
      </trkpt>
      <trkpt lat="48.68035" lon="1.73703">
        <ele>166.39999389648</ele>
        <time>2011-04-20T07:56:40.000Z</time>
      </trkpt>
      <trkpt lat="48.68044" lon="1.73715">
        <ele>168.39999389648</ele>
        <time>2011-04-20T07:56:48.000Z</time>
      </trkpt>
      <trkpt lat="48.68052" lon="1.73728">
        <ele>166</ele>
        <time>2011-04-20T07:56:55.000Z</time>
      </trkpt>
      <trkpt lat="48.6806" lon="1.73741">
        <ele>163</ele>
        <time>2011-04-20T07:57:03.000Z</time>
      </trkpt>
      <trkpt lat="48.68067" lon="1.73748">
        <ele>163.60000610352</ele>
        <time>2011-04-20T07:57:08.000Z</time>
      </trkpt>
      <trkpt lat="48.68074" lon="1.73759">
        <ele>163</ele>
        <time>2011-04-20T07:57:14.000Z</time>
      </trkpt>
      <trkpt lat="48.68076" lon="1.73762">
        <ele>163</ele>
        <time>2011-04-20T07:57:16.000Z</time>
      </trkpt>
      <trkpt lat="48.68083" lon="1.73772">
        <ele>165</ele>
        <time>2011-04-20T07:57:23.000Z</time>
      </trkpt>
      <trkpt lat="48.68088" lon="1.73779">
        <ele>164</ele>
        <time>2011-04-20T07:57:28.000Z</time>
      </trkpt>
      <trkpt lat="48.68091" lon="1.73785">
        <ele>164.60000610352</ele>
        <time>2011-04-20T07:57:32.000Z</time>
      </trkpt>
      <trkpt lat="48.681" lon="1.73797">
        <ele>165.39999389648</ele>
        <time>2011-04-20T07:57:39.000Z</time>
      </trkpt>
      <trkpt lat="48.68105" lon="1.73805">
        <ele>164</ele>
        <time>2011-04-20T07:57:45.000Z</time>
      </trkpt>
      <trkpt lat="48.68116" lon="1.7382">
        <ele>164</ele>
        <time>2011-04-20T07:57:54.000Z</time>
      </trkpt>
      <trkpt lat="48.68126" lon="1.73833">
        <ele>161.60000610352</ele>
        <time>2011-04-20T07:58:02.000Z</time>
      </trkpt>
      <trkpt lat="48.68135" lon="1.73845">
        <ele>161.19999694824</ele>
        <time>2011-04-20T07:58:10.000Z</time>
      </trkpt>
      <trkpt lat="48.6814" lon="1.73853">
        <ele>162.60000610352</ele>
        <time>2011-04-20T07:58:15.000Z</time>
      </trkpt>
      <trkpt lat="48.68144" lon="1.7386">
        <ele>163</ele>
        <time>2011-04-20T07:58:19.000Z</time>
      </trkpt>
      <trkpt lat="48.68151" lon="1.73869">
        <ele>164.60000610352</ele>
        <time>2011-04-20T07:58:26.000Z</time>
      </trkpt>
      <trkpt lat="48.6816" lon="1.73882">
        <ele>162.60000610352</ele>
        <time>2011-04-20T07:58:34.000Z</time>
      </trkpt>
      <trkpt lat="48.68166" lon="1.7389">
        <ele>161.19999694824</ele>
        <time>2011-04-20T07:58:39.000Z</time>
      </trkpt>
      <trkpt lat="48.68173" lon="1.739">
        <ele>161.19999694824</ele>
        <time>2011-04-20T07:58:45.000Z</time>
      </trkpt>
      <trkpt lat="48.68178" lon="1.73907">
        <ele>163.60000610352</ele>
        <time>2011-04-20T07:58:51.000Z</time>
      </trkpt>
      <trkpt lat="48.68182" lon="1.73905">
        <ele>168.39999389648</ele>
        <time>2011-04-20T07:59:00.000Z</time>
      </trkpt>
      <trkpt lat="48.68186" lon="1.73908">
        <ele>169.39999389648</ele>
        <time>2011-04-20T07:59:10.000Z</time>
      </trkpt>
      <trkpt lat="48.68191" lon="1.73921">
        <ele>167</ele>
        <time>2011-04-20T07:59:14.000Z</time>
      </trkpt>
      <trkpt lat="48.68196" lon="1.7393">
        <ele>165.39999389648</ele>
        <time>2011-04-20T07:59:19.000Z</time>
      </trkpt>
      <trkpt lat="48.68203" lon="1.7394">
        <ele>165.39999389648</ele>
        <time>2011-04-20T07:59:26.000Z</time>
      </trkpt>
      <trkpt lat="48.68209" lon="1.73949">
        <ele>164.60000610352</ele>
        <time>2011-04-20T07:59:32.000Z</time>
      </trkpt>
      <trkpt lat="48.68211" lon="1.73953">
        <ele>163.60000610352</ele>
        <time>2011-04-20T07:59:35.000Z</time>
      </trkpt>
      <trkpt lat="48.68214" lon="1.73964">
        <ele>162.60000610352</ele>
        <time>2011-04-20T07:59:41.000Z</time>
      </trkpt>
      <trkpt lat="48.68214" lon="1.73968">
        <ele>163.60000610352</ele>
        <time>2011-04-20T07:59:43.000Z</time>
      </trkpt>
      <trkpt lat="48.68216" lon="1.73987">
        <ele>162.19999694824</ele>
        <time>2011-04-20T07:59:51.000Z</time>
      </trkpt>
      <trkpt lat="48.68218" lon="1.74">
        <ele>162.60000610352</ele>
        <time>2011-04-20T07:59:56.000Z</time>
      </trkpt>
      <trkpt lat="48.68221" lon="1.74014">
        <ele>162.60000610352</ele>
        <time>2011-04-20T08:00:03.000Z</time>
      </trkpt>
      <trkpt lat="48.68225" lon="1.74026">
        <ele>160.19999694824</ele>
        <time>2011-04-20T08:00:10.000Z</time>
      </trkpt>
      <trkpt lat="48.68227" lon="1.7404">
        <ele>160.60000610352</ele>
        <time>2011-04-20T08:00:17.000Z</time>
      </trkpt>
      <trkpt lat="48.68229" lon="1.74049">
        <ele>160.19999694824</ele>
        <time>2011-04-20T08:00:21.000Z</time>
      </trkpt>
      <trkpt lat="48.68232" lon="1.74063">
        <ele>160.60000610352</ele>
        <time>2011-04-20T08:00:28.000Z</time>
      </trkpt>
      <trkpt lat="48.68236" lon="1.74077">
        <ele>160.60000610352</ele>
        <time>2011-04-20T08:00:35.000Z</time>
      </trkpt>
      <trkpt lat="48.68238" lon="1.74087">
        <ele>161.60000610352</ele>
        <time>2011-04-20T08:00:40.000Z</time>
      </trkpt>
      <trkpt lat="48.6824" lon="1.74095">
        <ele>161.19999694824</ele>
        <time>2011-04-20T08:00:44.000Z</time>
      </trkpt>
      <trkpt lat="48.68243" lon="1.74102">
        <ele>160.60000610352</ele>
        <time>2011-04-20T08:00:47.000Z</time>
      </trkpt>
      <trkpt lat="48.68243" lon="1.74107">
        <ele>160.19999694824</ele>
        <time>2011-04-20T08:00:49.000Z</time>
      </trkpt>
      <trkpt lat="48.68245" lon="1.74126">
        <ele>158.19999694824</ele>
        <time>2011-04-20T08:00:58.000Z</time>
      </trkpt>
      <trkpt lat="48.68247" lon="1.74144">
        <ele>156.39999389648</ele>
        <time>2011-04-20T08:01:06.000Z</time>
      </trkpt>
      <trkpt lat="48.68249" lon="1.7416">
        <ele>157.39999389648</ele>
        <time>2011-04-20T08:01:13.000Z</time>
      </trkpt>
      <trkpt lat="48.68252" lon="1.74184">
        <ele>158.19999694824</ele>
        <time>2011-04-20T08:01:23.000Z</time>
      </trkpt>
      <trkpt lat="48.68253" lon="1.7419">
        <ele>158.80000305176</ele>
        <time>2011-04-20T08:01:26.000Z</time>
      </trkpt>
      <trkpt lat="48.68253" lon="1.74196">
        <ele>159.19999694824</ele>
        <time>2011-04-20T08:01:29.000Z</time>
      </trkpt>
      <trkpt lat="48.68256" lon="1.7421">
        <ele>158.80000305176</ele>
        <time>2011-04-20T08:01:36.000Z</time>
      </trkpt>
      <trkpt lat="48.68258" lon="1.74228">
        <ele>159.19999694824</ele>
        <time>2011-04-20T08:01:44.000Z</time>
      </trkpt>
      <trkpt lat="48.68261" lon="1.74243">
        <ele>157.80000305176</ele>
        <time>2011-04-20T08:01:52.000Z</time>
      </trkpt>
      <trkpt lat="48.68263" lon="1.74254">
        <ele>157.39999389648</ele>
        <time>2011-04-20T08:01:57.000Z</time>
      </trkpt>
      <trkpt lat="48.68265" lon="1.74262">
        <ele>156.39999389648</ele>
        <time>2011-04-20T08:02:02.000Z</time>
      </trkpt>
      <trkpt lat="48.68267" lon="1.74276">
        <ele>155.80000305176</ele>
        <time>2011-04-20T08:02:10.000Z</time>
      </trkpt>
      <trkpt lat="48.6827" lon="1.74293">
        <ele>155</ele>
        <time>2011-04-20T08:02:18.000Z</time>
      </trkpt>
      <trkpt lat="48.68273" lon="1.74308">
        <ele>155</ele>
        <time>2011-04-20T08:02:25.000Z</time>
      </trkpt>
      <trkpt lat="48.68276" lon="1.74325">
        <ele>155.39999389648</ele>
        <time>2011-04-20T08:02:33.000Z</time>
      </trkpt>
      <trkpt lat="48.68279" lon="1.7434">
        <ele>155.80000305176</ele>
        <time>2011-04-20T08:02:40.000Z</time>
      </trkpt>
      <trkpt lat="48.68282" lon="1.74356">
        <ele>155.80000305176</ele>
        <time>2011-04-20T08:02:47.000Z</time>
      </trkpt>
      <trkpt lat="48.68285" lon="1.74374">
        <ele>156.80000305176</ele>
        <time>2011-04-20T08:02:55.000Z</time>
      </trkpt>
      <trkpt lat="48.68285" lon="1.74377">
        <ele>156.39999389648</ele>
        <time>2011-04-20T08:02:57.000Z</time>
      </trkpt>
      <trkpt lat="48.68288" lon="1.7439">
        <ele>157.39999389648</ele>
        <time>2011-04-20T08:03:04.000Z</time>
      </trkpt>
      <trkpt lat="48.68289" lon="1.74391">
        <ele>157.39999389648</ele>
        <time>2011-04-20T08:03:05.000Z</time>
      </trkpt>
      <trkpt lat="48.68293" lon="1.74406">
        <ele>156.80000305176</ele>
        <time>2011-04-20T08:03:12.000Z</time>
      </trkpt>
      <trkpt lat="48.68296" lon="1.7442">
        <ele>156.80000305176</ele>
        <time>2011-04-20T08:03:19.000Z</time>
      </trkpt>
      <trkpt lat="48.68299" lon="1.74436">
        <ele>157.80000305176</ele>
        <time>2011-04-20T08:03:27.000Z</time>
      </trkpt>
      <trkpt lat="48.68302" lon="1.74453">
        <ele>159.19999694824</ele>
        <time>2011-04-20T08:03:35.000Z</time>
      </trkpt>
      <trkpt lat="48.68303" lon="1.74463">
        <ele>157.39999389648</ele>
        <time>2011-04-20T08:03:40.000Z</time>
      </trkpt>
      <trkpt lat="48.68306" lon="1.74479">
        <ele>157.39999389648</ele>
        <time>2011-04-20T08:03:48.000Z</time>
      </trkpt>
      <trkpt lat="48.68304" lon="1.74487">
        <ele>155.39999389648</ele>
        <time>2011-04-20T08:03:52.000Z</time>
      </trkpt>
      <trkpt lat="48.68306" lon="1.74497">
        <ele>152.60000610352</ele>
        <time>2011-04-20T08:03:58.000Z</time>
      </trkpt>
      <trkpt lat="48.68307" lon="1.74503">
        <ele>152</ele>
        <time>2011-04-20T08:04:01.000Z</time>
      </trkpt>
      <trkpt lat="48.68316" lon="1.74516">
        <ele>151</ele>
        <time>2011-04-20T08:04:10.000Z</time>
      </trkpt>
      <trkpt lat="48.68318" lon="1.74519">
        <ele>153</ele>
        <time>2011-04-20T08:04:14.000Z</time>
      </trkpt>
      <trkpt lat="48.68324" lon="1.74527">
        <ele>150.19999694824</ele>
        <time>2011-04-20T08:04:19.000Z</time>
      </trkpt>
      <trkpt lat="48.68331" lon="1.74534">
        <ele>147.60000610352</ele>
        <time>2011-04-20T08:04:25.000Z</time>
      </trkpt>
      <trkpt lat="48.68337" lon="1.74544">
        <ele>146.19999694824</ele>
        <time>2011-04-20T08:04:31.000Z</time>
      </trkpt>
      <trkpt lat="48.68338" lon="1.74545">
        <ele>146.19999694824</ele>
        <time>2011-04-20T08:04:32.000Z</time>
      </trkpt>
      <trkpt lat="48.68347" lon="1.74553">
        <ele>145.80000305176</ele>
        <time>2011-04-20T08:04:40.000Z</time>
      </trkpt>
      <trkpt lat="48.68354" lon="1.74558">
        <ele>146.19999694824</ele>
        <time>2011-04-20T08:04:46.000Z</time>
      </trkpt>
      <trkpt lat="48.68361" lon="1.74563">
        <ele>147.19999694824</ele>
        <time>2011-04-20T08:04:52.000Z</time>
      </trkpt>
      <trkpt lat="48.68369" lon="1.74562">
        <ele>149.19999694824</ele>
        <time>2011-04-20T08:04:58.000Z</time>
      </trkpt>
      <trkpt lat="48.68377" lon="1.74568">
        <ele>150.19999694824</ele>
        <time>2011-04-20T08:05:04.000Z</time>
      </trkpt>
      <trkpt lat="48.68381" lon="1.74574">
        <ele>149.19999694824</ele>
        <time>2011-04-20T08:05:11.000Z</time>
      </trkpt>
      <trkpt lat="48.68386" lon="1.74568">
        <ele>150.60000610352</ele>
        <time>2011-04-20T08:05:17.000Z</time>
      </trkpt>
      <trkpt lat="48.68388" lon="1.74561">
        <ele>150.19999694824</ele>
        <time>2011-04-20T08:05:21.000Z</time>
      </trkpt>
      <trkpt lat="48.68394" lon="1.7455">
        <ele>147.60000610352</ele>
        <time>2011-04-20T08:05:30.000Z</time>
      </trkpt>
      <trkpt lat="48.68396" lon="1.74548">
        <ele>146.80000305176</ele>
        <time>2011-04-20T08:05:32.000Z</time>
      </trkpt>
      <trkpt lat="48.68403" lon="1.74537">
        <ele>147.19999694824</ele>
        <time>2011-04-20T08:05:40.000Z</time>
      </trkpt>
      <trkpt lat="48.68409" lon="1.7453">
        <ele>145.80000305176</ele>
        <time>2011-04-20T08:05:47.000Z</time>
      </trkpt>
      <trkpt lat="48.68416" lon="1.74524">
        <ele>145.19999694824</ele>
        <time>2011-04-20T08:05:53.000Z</time>
      </trkpt>
      <trkpt lat="48.68426" lon="1.74514">
        <ele>149.60000610352</ele>
        <time>2011-04-20T08:06:01.000Z</time>
      </trkpt>
      <trkpt lat="48.68436" lon="1.74507">
        <ele>149.60000610352</ele>
        <time>2011-04-20T08:06:09.000Z</time>
      </trkpt>
      <trkpt lat="48.68446" lon="1.74502">
        <ele>149.19999694824</ele>
        <time>2011-04-20T08:06:17.000Z</time>
      </trkpt>
      <trkpt lat="48.68456" lon="1.74494">
        <ele>150.60000610352</ele>
        <time>2011-04-20T08:06:25.000Z</time>
      </trkpt>
      <trkpt lat="48.68463" lon="1.74491">
        <ele>148.60000610352</ele>
        <time>2011-04-20T08:06:31.000Z</time>
      </trkpt>
      <trkpt lat="48.68469" lon="1.74486">
        <ele>148.60000610352</ele>
        <time>2011-04-20T08:06:36.000Z</time>
      </trkpt>
      <trkpt lat="48.68475" lon="1.7448">
        <ele>150.19999694824</ele>
        <time>2011-04-20T08:06:42.000Z</time>
      </trkpt>
      <trkpt lat="48.68481" lon="1.74476">
        <ele>151.60000610352</ele>
        <time>2011-04-20T08:06:47.000Z</time>
      </trkpt>
      <trkpt lat="48.68494" lon="1.74469">
        <ele>149.60000610352</ele>
        <time>2011-04-20T08:06:57.000Z</time>
      </trkpt>
      <trkpt lat="48.685" lon="1.74466">
        <ele>151</ele>
        <time>2011-04-20T08:07:01.000Z</time>
      </trkpt>
      <trkpt lat="48.68503" lon="1.74466">
        <ele>151</ele>
        <time>2011-04-20T08:07:05.000Z</time>
      </trkpt>
      <trkpt lat="48.68508" lon="1.74451">
        <ele>155</ele>
        <time>2011-04-20T08:07:31.000Z</time>
      </trkpt>
      <trkpt lat="48.68517" lon="1.74447">
        <ele>154.39999389648</ele>
        <time>2011-04-20T08:07:37.000Z</time>
      </trkpt>
      <trkpt lat="48.68527" lon="1.74444">
        <ele>153.39999389648</ele>
        <time>2011-04-20T08:07:44.000Z</time>
      </trkpt>
      <trkpt lat="48.68535" lon="1.74437">
        <ele>153</ele>
        <time>2011-04-20T08:07:50.000Z</time>
      </trkpt>
      <trkpt lat="48.68543" lon="1.74428">
        <ele>155</ele>
        <time>2011-04-20T08:07:56.000Z</time>
      </trkpt>
      <trkpt lat="48.68548" lon="1.74424">
        <ele>153.39999389648</ele>
        <time>2011-04-20T08:08:00.000Z</time>
      </trkpt>
      <trkpt lat="48.68554" lon="1.74417">
        <ele>152.60000610352</ele>
        <time>2011-04-20T08:08:05.000Z</time>
      </trkpt>
      <trkpt lat="48.68562" lon="1.74408">
        <ele>149.19999694824</ele>
        <time>2011-04-20T08:08:11.000Z</time>
      </trkpt>
      <trkpt lat="48.6857" lon="1.74394">
        <ele>145.80000305176</ele>
        <time>2011-04-20T08:08:19.000Z</time>
      </trkpt>
      <trkpt lat="48.68573" lon="1.74387">
        <ele>143.80000305176</ele>
        <time>2011-04-20T08:08:22.000Z</time>
      </trkpt>
      <trkpt lat="48.68576" lon="1.74375">
        <ele>145.80000305176</ele>
        <time>2011-04-20T08:08:28.000Z</time>
      </trkpt>
      <trkpt lat="48.68576" lon="1.74361">
        <ele>147.60000610352</ele>
        <time>2011-04-20T08:08:35.000Z</time>
      </trkpt>
      <trkpt lat="48.68575" lon="1.74342">
        <ele>148.19999694824</ele>
        <time>2011-04-20T08:08:43.000Z</time>
      </trkpt>
      <trkpt lat="48.68577" lon="1.74325">
        <ele>146.80000305176</ele>
        <time>2011-04-20T08:08:51.000Z</time>
      </trkpt>
      <trkpt lat="48.68578" lon="1.74317">
        <ele>147.19999694824</ele>
        <time>2011-04-20T08:08:55.000Z</time>
      </trkpt>
      <trkpt lat="48.68584" lon="1.74301">
        <ele>147.19999694824</ele>
        <time>2011-04-20T08:09:03.000Z</time>
      </trkpt>
      <trkpt lat="48.6859" lon="1.74289">
        <ele>146.80000305176</ele>
        <time>2011-04-20T08:09:10.000Z</time>
      </trkpt>
      <trkpt lat="48.68599" lon="1.74274">
        <ele>149.60000610352</ele>
        <time>2011-04-20T08:09:19.000Z</time>
      </trkpt>
      <trkpt lat="48.68608" lon="1.74264">
        <ele>152.60000610352</ele>
        <time>2011-04-20T08:09:26.000Z</time>
      </trkpt>
      <trkpt lat="48.68622" lon="1.74252">
        <ele>158.80000305176</ele>
        <time>2011-04-20T08:09:36.000Z</time>
      </trkpt>
      <trkpt lat="48.68631" lon="1.74245">
        <ele>160.60000610352</ele>
        <time>2011-04-20T08:09:43.000Z</time>
      </trkpt>
      <trkpt lat="48.6864" lon="1.74241">
        <ele>161.60000610352</ele>
        <time>2011-04-20T08:09:49.000Z</time>
      </trkpt>
      <trkpt lat="48.68651" lon="1.74233">
        <ele>163.60000610352</ele>
        <time>2011-04-20T08:09:57.000Z</time>
      </trkpt>
      <trkpt lat="48.68654" lon="1.7423">
        <ele>164.60000610352</ele>
        <time>2011-04-20T08:09:59.000Z</time>
      </trkpt>
      <trkpt lat="48.68669" lon="1.74225">
        <ele>167</ele>
        <time>2011-04-20T08:10:09.000Z</time>
      </trkpt>
      <trkpt lat="48.68679" lon="1.74226">
        <ele>163</ele>
        <time>2011-04-20T08:10:15.000Z</time>
      </trkpt>
      <trkpt lat="48.68688" lon="1.74224">
        <ele>161.60000610352</ele>
        <time>2011-04-20T08:10:23.000Z</time>
      </trkpt>
      <trkpt lat="48.68689" lon="1.74224">
        <ele>161.60000610352</ele>
        <time>2011-04-20T08:10:24.000Z</time>
      </trkpt>
      <trkpt lat="48.68699" lon="1.74216">
        <ele>157.39999389648</ele>
        <time>2011-04-20T08:10:32.000Z</time>
      </trkpt>
      <trkpt lat="48.68702" lon="1.74205">
        <ele>153</ele>
        <time>2011-04-20T08:10:39.000Z</time>
      </trkpt>
      <trkpt lat="48.68703" lon="1.74192">
        <ele>150.19999694824</ele>
        <time>2011-04-20T08:10:46.000Z</time>
      </trkpt>
      <trkpt lat="48.68707" lon="1.7418">
        <ele>147.60000610352</ele>
        <time>2011-04-20T08:10:52.000Z</time>
      </trkpt>
      <trkpt lat="48.68713" lon="1.74169">
        <ele>145.80000305176</ele>
        <time>2011-04-20T08:10:59.000Z</time>
      </trkpt>
      <trkpt lat="48.68724" lon="1.74152">
        <ele>147.60000610352</ele>
        <time>2011-04-20T08:11:10.000Z</time>
      </trkpt>
      <trkpt lat="48.68732" lon="1.74141">
        <ele>148.19999694824</ele>
        <time>2011-04-20T08:11:17.000Z</time>
      </trkpt>
      <trkpt lat="48.68741" lon="1.7413">
        <ele>146.19999694824</ele>
        <time>2011-04-20T08:11:25.000Z</time>
      </trkpt>
      <trkpt lat="48.68741" lon="1.74128">
        <ele>145.80000305176</ele>
        <time>2011-04-20T08:11:26.000Z</time>
      </trkpt>
      <trkpt lat="48.68752" lon="1.74113">
        <ele>145.80000305176</ele>
        <time>2011-04-20T08:11:36.000Z</time>
      </trkpt>
      <trkpt lat="48.6876" lon="1.74099">
        <ele>145.80000305176</ele>
        <time>2011-04-20T08:11:45.000Z</time>
      </trkpt>
      <trkpt lat="48.68767" lon="1.74088">
        <ele>147.19999694824</ele>
        <time>2011-04-20T08:11:52.000Z</time>
      </trkpt>
      <trkpt lat="48.68772" lon="1.74078">
        <ele>148.60000610352</ele>
        <time>2011-04-20T08:11:58.000Z</time>
      </trkpt>
      <trkpt lat="48.68781" lon="1.74064">
        <ele>149.60000610352</ele>
        <time>2011-04-20T08:12:07.000Z</time>
      </trkpt>
      <trkpt lat="48.68788" lon="1.74056">
        <ele>150.19999694824</ele>
        <time>2011-04-20T08:12:13.000Z</time>
      </trkpt>
      <trkpt lat="48.68793" lon="1.7405">
        <ele>149.60000610352</ele>
        <time>2011-04-20T08:12:19.000Z</time>
      </trkpt>
      <trkpt lat="48.68796" lon="1.74045">
        <ele>150.19999694824</ele>
        <time>2011-04-20T08:12:23.000Z</time>
      </trkpt>
      <trkpt lat="48.688" lon="1.74039">
        <ele>150.19999694824</ele>
        <time>2011-04-20T08:12:27.000Z</time>
      </trkpt>
      <trkpt lat="48.68807" lon="1.74026">
        <ele>152.60000610352</ele>
        <time>2011-04-20T08:12:35.000Z</time>
      </trkpt>
      <trkpt lat="48.68815" lon="1.74013">
        <ele>155.80000305176</ele>
        <time>2011-04-20T08:12:43.000Z</time>
      </trkpt>
      <trkpt lat="48.68822" lon="1.74003">
        <ele>156.80000305176</ele>
        <time>2011-04-20T08:12:51.000Z</time>
      </trkpt>
      <trkpt lat="48.68828" lon="1.73993">
        <ele>156.39999389648</ele>
        <time>2011-04-20T08:12:58.000Z</time>
      </trkpt>
      <trkpt lat="48.68834" lon="1.73982">
        <ele>157.80000305176</ele>
        <time>2011-04-20T08:13:05.000Z</time>
      </trkpt>
      <trkpt lat="48.68839" lon="1.7397">
        <ele>159.80000305176</ele>
        <time>2011-04-20T08:13:13.000Z</time>
      </trkpt>
      <trkpt lat="48.68846" lon="1.73956">
        <ele>158.80000305176</ele>
        <time>2011-04-20T08:13:21.000Z</time>
      </trkpt>
      <trkpt lat="48.68854" lon="1.73945">
        <ele>159.19999694824</ele>
        <time>2011-04-20T08:13:29.000Z</time>
      </trkpt>
      <trkpt lat="48.68861" lon="1.73934">
        <ele>158.80000305176</ele>
        <time>2011-04-20T08:13:36.000Z</time>
      </trkpt>
      <trkpt lat="48.68867" lon="1.73924">
        <ele>161.19999694824</ele>
        <time>2011-04-20T08:13:44.000Z</time>
      </trkpt>
      <trkpt lat="48.68874" lon="1.73912">
        <ele>161.19999694824</ele>
        <time>2011-04-20T08:13:52.000Z</time>
      </trkpt>
      <trkpt lat="48.68881" lon="1.73902">
        <ele>162.19999694824</ele>
        <time>2011-04-20T08:13:59.000Z</time>
      </trkpt>
      <trkpt lat="48.68884" lon="1.73898">
        <ele>163.60000610352</ele>
        <time>2011-04-20T08:14:02.000Z</time>
      </trkpt>
      <trkpt lat="48.68892" lon="1.73888">
        <ele>163</ele>
        <time>2011-04-20T08:14:09.000Z</time>
      </trkpt>
      <trkpt lat="48.68897" lon="1.73881">
        <ele>162.60000610352</ele>
        <time>2011-04-20T08:14:14.000Z</time>
      </trkpt>
      <trkpt lat="48.68898" lon="1.73878">
        <ele>163</ele>
        <time>2011-04-20T08:14:16.000Z</time>
      </trkpt>
      <trkpt lat="48.68905" lon="1.73867">
        <ele>163</ele>
        <time>2011-04-20T08:14:23.000Z</time>
      </trkpt>
      <trkpt lat="48.68906" lon="1.73866">
        <ele>163</ele>
        <time>2011-04-20T08:14:24.000Z</time>
      </trkpt>
      <trkpt lat="48.6891" lon="1.7386">
        <ele>162.60000610352</ele>
        <time>2011-04-20T08:14:28.000Z</time>
      </trkpt>
      <trkpt lat="48.68918" lon="1.73844">
        <ele>164</ele>
        <time>2011-04-20T08:14:37.000Z</time>
      </trkpt>
      <trkpt lat="48.68924" lon="1.73834">
        <ele>162.60000610352</ele>
        <time>2011-04-20T08:14:44.000Z</time>
      </trkpt>
      <trkpt lat="48.68927" lon="1.73828">
        <ele>164</ele>
        <time>2011-04-20T08:14:47.000Z</time>
      </trkpt>
      <trkpt lat="48.68933" lon="1.73818">
        <ele>165</ele>
        <time>2011-04-20T08:14:54.000Z</time>
      </trkpt>
      <trkpt lat="48.68937" lon="1.73813">
        <ele>166</ele>
        <time>2011-04-20T08:14:58.000Z</time>
      </trkpt>
      <trkpt lat="48.68944" lon="1.73801">
        <ele>166</ele>
        <time>2011-04-20T08:15:05.000Z</time>
      </trkpt>
      <trkpt lat="48.6895" lon="1.7379">
        <ele>165.39999389648</ele>
        <time>2011-04-20T08:15:12.000Z</time>
      </trkpt>
      <trkpt lat="48.6896" lon="1.73775">
        <ele>166</ele>
        <time>2011-04-20T08:15:22.000Z</time>
      </trkpt>
      <trkpt lat="48.68969" lon="1.73761">
        <ele>165.39999389648</ele>
        <time>2011-04-20T08:15:31.000Z</time>
      </trkpt>
      <trkpt lat="48.68977" lon="1.73748">
        <ele>165.39999389648</ele>
        <time>2011-04-20T08:15:39.000Z</time>
      </trkpt>
      <trkpt lat="48.68986" lon="1.73735">
        <ele>166.39999389648</ele>
        <time>2011-04-20T08:15:47.000Z</time>
      </trkpt>
      <trkpt lat="48.68997" lon="1.73714">
        <ele>168.39999389648</ele>
        <time>2011-04-20T08:15:59.000Z</time>
      </trkpt>
      <trkpt lat="48.69004" lon="1.73705">
        <ele>167.80000305176</ele>
        <time>2011-04-20T08:16:06.000Z</time>
      </trkpt>
      <trkpt lat="48.69012" lon="1.73692">
        <ele>168.80000305176</ele>
        <time>2011-04-20T08:16:14.000Z</time>
      </trkpt>
      <trkpt lat="48.69018" lon="1.73684">
        <ele>168.80000305176</ele>
        <time>2011-04-20T08:16:19.000Z</time>
      </trkpt>
      <trkpt lat="48.69029" lon="1.73667">
        <ele>168.39999389648</ele>
        <time>2011-04-20T08:16:30.000Z</time>
      </trkpt>
      <trkpt lat="48.69038" lon="1.73652">
        <ele>167.80000305176</ele>
        <time>2011-04-20T08:16:39.000Z</time>
      </trkpt>
      <trkpt lat="48.69041" lon="1.73648">
        <ele>167.80000305176</ele>
        <time>2011-04-20T08:16:42.000Z</time>
      </trkpt>
      <trkpt lat="48.69044" lon="1.73641">
        <ele>168.39999389648</ele>
        <time>2011-04-20T08:16:46.000Z</time>
      </trkpt>
      <trkpt lat="48.69052" lon="1.73629">
        <ele>168.39999389648</ele>
        <time>2011-04-20T08:16:54.000Z</time>
      </trkpt>
      <trkpt lat="48.69062" lon="1.73621">
        <ele>168.39999389648</ele>
        <time>2011-04-20T08:17:02.000Z</time>
      </trkpt>
      <trkpt lat="48.6907" lon="1.73628">
        <ele>166.39999389648</ele>
        <time>2011-04-20T08:17:09.000Z</time>
      </trkpt>
      <trkpt lat="48.69074" lon="1.73641">
        <ele>167.39999389648</ele>
        <time>2011-04-20T08:17:16.000Z</time>
      </trkpt>
      <trkpt lat="48.69077" lon="1.73654">
        <ele>168.80000305176</ele>
        <time>2011-04-20T08:17:22.000Z</time>
      </trkpt>
      <trkpt lat="48.69081" lon="1.73667">
        <ele>170.19999694824</ele>
        <time>2011-04-20T08:17:29.000Z</time>
      </trkpt>
      <trkpt lat="48.69083" lon="1.73675">
        <ele>171.19999694824</ele>
        <time>2011-04-20T08:17:33.000Z</time>
      </trkpt>
      <trkpt lat="48.69089" lon="1.73691">
        <ele>171.80000305176</ele>
        <time>2011-04-20T08:17:41.000Z</time>
      </trkpt>
      <trkpt lat="48.69094" lon="1.73711">
        <ele>169.80000305176</ele>
        <time>2011-04-20T08:17:50.000Z</time>
      </trkpt>
      <trkpt lat="48.69095" lon="1.73713">
        <ele>169.80000305176</ele>
        <time>2011-04-20T08:17:51.000Z</time>
      </trkpt>
      <trkpt lat="48.69099" lon="1.73727">
        <ele>170.80000305176</ele>
        <time>2011-04-20T08:17:58.000Z</time>
      </trkpt>
      <trkpt lat="48.69101" lon="1.73734">
        <ele>170.80000305176</ele>
        <time>2011-04-20T08:18:01.000Z</time>
      </trkpt>
      <trkpt lat="48.69106" lon="1.73753">
        <ele>168.39999389648</ele>
        <time>2011-04-20T08:18:10.000Z</time>
      </trkpt>
      <trkpt lat="48.6911" lon="1.7377">
        <ele>167.80000305176</ele>
        <time>2011-04-20T08:18:18.000Z</time>
      </trkpt>
      <trkpt lat="48.69111" lon="1.73772">
        <ele>167.80000305176</ele>
        <time>2011-04-20T08:18:19.000Z</time>
      </trkpt>
      <trkpt lat="48.69116" lon="1.7379">
        <ele>167.39999389648</ele>
        <time>2011-04-20T08:18:28.000Z</time>
      </trkpt>
      <trkpt lat="48.69121" lon="1.73803">
        <ele>165.39999389648</ele>
        <time>2011-04-20T08:18:35.000Z</time>
      </trkpt>
      <trkpt lat="48.69124" lon="1.73821">
        <ele>163</ele>
        <time>2011-04-20T08:18:44.000Z</time>
      </trkpt>
      <trkpt lat="48.69129" lon="1.73841">
        <ele>162.19999694824</ele>
        <time>2011-04-20T08:18:52.000Z</time>
      </trkpt>
      <trkpt lat="48.69132" lon="1.73855">
        <ele>161.19999694824</ele>
        <time>2011-04-20T08:18:58.000Z</time>
      </trkpt>
      <trkpt lat="48.69134" lon="1.73871">
        <ele>161.19999694824</ele>
        <time>2011-04-20T08:19:04.000Z</time>
      </trkpt>
      <trkpt lat="48.6914" lon="1.73889">
        <ele>159.80000305176</ele>
        <time>2011-04-20T08:19:12.000Z</time>
      </trkpt>
      <trkpt lat="48.69145" lon="1.73909">
        <ele>158.80000305176</ele>
        <time>2011-04-20T08:19:21.000Z</time>
      </trkpt>
      <trkpt lat="48.69152" lon="1.73935">
        <ele>157.80000305176</ele>
        <time>2011-04-20T08:19:33.000Z</time>
      </trkpt>
      <trkpt lat="48.69156" lon="1.73954">
        <ele>157.39999389648</ele>
        <time>2011-04-20T08:19:41.000Z</time>
      </trkpt>
      <trkpt lat="48.6916" lon="1.73971">
        <ele>156.80000305176</ele>
        <time>2011-04-20T08:19:49.000Z</time>
      </trkpt>
      <trkpt lat="48.69166" lon="1.73989">
        <ele>155.39999389648</ele>
        <time>2011-04-20T08:19:57.000Z</time>
      </trkpt>
      <trkpt lat="48.69172" lon="1.74009">
        <ele>154</ele>
        <time>2011-04-20T08:20:07.000Z</time>
      </trkpt>
      <trkpt lat="48.69177" lon="1.74028">
        <ele>154</ele>
        <time>2011-04-20T08:20:16.000Z</time>
      </trkpt>
      <trkpt lat="48.69182" lon="1.74049">
        <ele>154</ele>
        <time>2011-04-20T08:20:25.000Z</time>
      </trkpt>
      <trkpt lat="48.69186" lon="1.74068">
        <ele>153.39999389648</ele>
        <time>2011-04-20T08:20:34.000Z</time>
      </trkpt>
      <trkpt lat="48.69191" lon="1.74087">
        <ele>153</ele>
        <time>2011-04-20T08:20:43.000Z</time>
      </trkpt>
      <trkpt lat="48.69194" lon="1.74097">
        <ele>153</ele>
        <time>2011-04-20T08:20:49.000Z</time>
      </trkpt>
      <trkpt lat="48.692" lon="1.7412">
        <ele>152.60000610352</ele>
        <time>2011-04-20T08:21:00.000Z</time>
      </trkpt>
      <trkpt lat="48.69206" lon="1.74144">
        <ele>152.60000610352</ele>
        <time>2011-04-20T08:21:11.000Z</time>
      </trkpt>
      <trkpt lat="48.6921" lon="1.74162">
        <ele>153</ele>
        <time>2011-04-20T08:21:19.000Z</time>
      </trkpt>
      <trkpt lat="48.69215" lon="1.74181">
        <ele>153</ele>
        <time>2011-04-20T08:21:28.000Z</time>
      </trkpt>
      <trkpt lat="48.69219" lon="1.74197">
        <ele>152.60000610352</ele>
        <time>2011-04-20T08:21:35.000Z</time>
      </trkpt>
      <trkpt lat="48.69223" lon="1.74213">
        <ele>151</ele>
        <time>2011-04-20T08:21:43.000Z</time>
      </trkpt>
      <trkpt lat="48.69228" lon="1.74228">
        <ele>151.60000610352</ele>
        <time>2011-04-20T08:21:51.000Z</time>
      </trkpt>
      <trkpt lat="48.69231" lon="1.74241">
        <ele>151</ele>
        <time>2011-04-20T08:21:57.000Z</time>
      </trkpt>
      <trkpt lat="48.69235" lon="1.74258">
        <ele>151</ele>
        <time>2011-04-20T08:22:05.000Z</time>
      </trkpt>
      <trkpt lat="48.6924" lon="1.74274">
        <ele>151</ele>
        <time>2011-04-20T08:22:13.000Z</time>
      </trkpt>
      <trkpt lat="48.69244" lon="1.74291">
        <ele>152</ele>
        <time>2011-04-20T08:22:21.000Z</time>
      </trkpt>
      <trkpt lat="48.69244" lon="1.74295">
        <ele>153</ele>
        <time>2011-04-20T08:22:23.000Z</time>
      </trkpt>
      <trkpt lat="48.69246" lon="1.74304">
        <ele>154</ele>
        <time>2011-04-20T08:22:27.000Z</time>
      </trkpt>
      <trkpt lat="48.6925" lon="1.7432">
        <ele>155.39999389648</ele>
        <time>2011-04-20T08:22:34.000Z</time>
      </trkpt>
      <trkpt lat="48.69254" lon="1.74335">
        <ele>156.39999389648</ele>
        <time>2011-04-20T08:22:40.000Z</time>
      </trkpt>
      <trkpt lat="48.69259" lon="1.74351">
        <ele>157.80000305176</ele>
        <time>2011-04-20T08:22:48.000Z</time>
      </trkpt>
      <trkpt lat="48.69262" lon="1.74363">
        <ele>157.39999389648</ele>
        <time>2011-04-20T08:22:54.000Z</time>
      </trkpt>
      <trkpt lat="48.69266" lon="1.74381">
        <ele>156.39999389648</ele>
        <time>2011-04-20T08:23:03.000Z</time>
      </trkpt>
      <trkpt lat="48.69272" lon="1.74403">
        <ele>157.80000305176</ele>
        <time>2011-04-20T08:23:14.000Z</time>
      </trkpt>
      <trkpt lat="48.69275" lon="1.74416">
        <ele>158.19999694824</ele>
        <time>2011-04-20T08:23:20.000Z</time>
      </trkpt>
      <trkpt lat="48.69278" lon="1.74427">
        <ele>159.19999694824</ele>
        <time>2011-04-20T08:23:25.000Z</time>
      </trkpt>
      <trkpt lat="48.69281" lon="1.74441">
        <ele>160.60000610352</ele>
        <time>2011-04-20T08:23:31.000Z</time>
      </trkpt>
      <trkpt lat="48.69284" lon="1.74455">
        <ele>161.19999694824</ele>
        <time>2011-04-20T08:23:38.000Z</time>
      </trkpt>
      <trkpt lat="48.6929" lon="1.74481">
        <ele>161.19999694824</ele>
        <time>2011-04-20T08:23:51.000Z</time>
      </trkpt>
      <trkpt lat="48.69293" lon="1.74497">
        <ele>162.19999694824</ele>
        <time>2011-04-20T08:23:59.000Z</time>
      </trkpt>
      <trkpt lat="48.69298" lon="1.74518">
        <ele>162.19999694824</ele>
        <time>2011-04-20T08:24:10.000Z</time>
      </trkpt>
      <trkpt lat="48.69304" lon="1.74537">
        <ele>163</ele>
        <time>2011-04-20T08:24:20.000Z</time>
      </trkpt>
      <trkpt lat="48.69308" lon="1.74556">
        <ele>163.60000610352</ele>
        <time>2011-04-20T08:24:29.000Z</time>
      </trkpt>
      <trkpt lat="48.69311" lon="1.74567">
        <ele>163.60000610352</ele>
        <time>2011-04-20T08:24:35.000Z</time>
      </trkpt>
      <trkpt lat="48.69314" lon="1.74583">
        <ele>163</ele>
        <time>2011-04-20T08:24:43.000Z</time>
      </trkpt>
      <trkpt lat="48.69315" lon="1.74589">
        <ele>163.60000610352</ele>
        <time>2011-04-20T08:24:46.000Z</time>
      </trkpt>
      <trkpt lat="48.69322" lon="1.74606">
        <ele>162.60000610352</ele>
        <time>2011-04-20T08:24:55.000Z</time>
      </trkpt>
      <trkpt lat="48.69326" lon="1.74621">
        <ele>162.19999694824</ele>
        <time>2011-04-20T08:25:02.000Z</time>
      </trkpt>
      <trkpt lat="48.69327" lon="1.74625">
        <ele>162.19999694824</ele>
        <time>2011-04-20T08:25:04.000Z</time>
      </trkpt>
      <trkpt lat="48.69329" lon="1.74636">
        <ele>163.60000610352</ele>
        <time>2011-04-20T08:25:09.000Z</time>
      </trkpt>
      <trkpt lat="48.69331" lon="1.7464">
        <ele>163.60000610352</ele>
        <time>2011-04-20T08:25:11.000Z</time>
      </trkpt>
      <trkpt lat="48.69335" lon="1.74652">
        <ele>164</ele>
        <time>2011-04-20T08:25:17.000Z</time>
      </trkpt>
      <trkpt lat="48.6934" lon="1.74667">
        <ele>165</ele>
        <time>2011-04-20T08:25:25.000Z</time>
      </trkpt>
      <trkpt lat="48.69345" lon="1.74686">
        <ele>165</ele>
        <time>2011-04-20T08:25:34.000Z</time>
      </trkpt>
      <trkpt lat="48.69348" lon="1.74698">
        <ele>165</ele>
        <time>2011-04-20T08:25:40.000Z</time>
      </trkpt>
      <trkpt lat="48.69351" lon="1.74708">
        <ele>164.60000610352</ele>
        <time>2011-04-20T08:25:45.000Z</time>
      </trkpt>
      <trkpt lat="48.69355" lon="1.7472">
        <ele>164</ele>
        <time>2011-04-20T08:25:51.000Z</time>
      </trkpt>
      <trkpt lat="48.69358" lon="1.74734">
        <ele>163</ele>
        <time>2011-04-20T08:25:57.000Z</time>
      </trkpt>
      <trkpt lat="48.69364" lon="1.74751">
        <ele>161.60000610352</ele>
        <time>2011-04-20T08:26:05.000Z</time>
      </trkpt>
      <trkpt lat="48.69368" lon="1.74767">
        <ele>159.80000305176</ele>
        <time>2011-04-20T08:26:12.000Z</time>
      </trkpt>
      <trkpt lat="48.6937" lon="1.74779">
        <ele>157.80000305176</ele>
        <time>2011-04-20T08:26:17.000Z</time>
      </trkpt>
      <trkpt lat="48.69374" lon="1.74795">
        <ele>155.80000305176</ele>
        <time>2011-04-20T08:26:24.000Z</time>
      </trkpt>
      <trkpt lat="48.69378" lon="1.74811">
        <ele>155.39999389648</ele>
        <time>2011-04-20T08:26:31.000Z</time>
      </trkpt>
      <trkpt lat="48.69382" lon="1.74823">
        <ele>157.80000305176</ele>
        <time>2011-04-20T08:26:38.000Z</time>
      </trkpt>
      <trkpt lat="48.69382" lon="1.74823">
        <ele>157.80000305176</ele>
        <time>2011-04-20T08:26:40.000Z</time>
      </trkpt>
      <trkpt lat="48.69383" lon="1.74831">
        <ele>158.80000305176</ele>
        <time>2011-04-20T08:26:53.000Z</time>
      </trkpt>
      <trkpt lat="48.69385" lon="1.74841">
        <ele>157.80000305176</ele>
        <time>2011-04-20T08:26:57.000Z</time>
      </trkpt>
      <trkpt lat="48.69388" lon="1.74855">
        <ele>157.80000305176</ele>
        <time>2011-04-20T08:27:04.000Z</time>
      </trkpt>
      <trkpt lat="48.69393" lon="1.7487">
        <ele>159.19999694824</ele>
        <time>2011-04-20T08:27:12.000Z</time>
      </trkpt>
      <trkpt lat="48.69397" lon="1.74881">
        <ele>160.60000610352</ele>
        <time>2011-04-20T08:27:18.000Z</time>
      </trkpt>
      <trkpt lat="48.69403" lon="1.74893">
        <ele>162.60000610352</ele>
        <time>2011-04-20T08:27:23.000Z</time>
      </trkpt>
      <trkpt lat="48.69407" lon="1.74909">
        <ele>165</ele>
        <time>2011-04-20T08:27:29.000Z</time>
      </trkpt>
      <trkpt lat="48.6941" lon="1.74926">
        <ele>164.60000610352</ele>
        <time>2011-04-20T08:27:36.000Z</time>
      </trkpt>
      <trkpt lat="48.69413" lon="1.74939">
        <ele>166</ele>
        <time>2011-04-20T08:27:42.000Z</time>
      </trkpt>
      <trkpt lat="48.69415" lon="1.7495">
        <ele>166.39999389648</ele>
        <time>2011-04-20T08:27:48.000Z</time>
      </trkpt>
      <trkpt lat="48.69416" lon="1.74955">
        <ele>166.39999389648</ele>
        <time>2011-04-20T08:27:50.000Z</time>
      </trkpt>
      <trkpt lat="48.6942" lon="1.74971">
        <ele>166.39999389648</ele>
        <time>2011-04-20T08:27:58.000Z</time>
      </trkpt>
      <trkpt lat="48.69423" lon="1.74984">
        <ele>167.80000305176</ele>
        <time>2011-04-20T08:28:04.000Z</time>
      </trkpt>
      <trkpt lat="48.69424" lon="1.74991">
        <ele>167.39999389648</ele>
        <time>2011-04-20T08:28:08.000Z</time>
      </trkpt>
      <trkpt lat="48.69428" lon="1.75003">
        <ele>168.80000305176</ele>
        <time>2011-04-20T08:28:14.000Z</time>
      </trkpt>
      <trkpt lat="48.69432" lon="1.75021">
        <ele>167.39999389648</ele>
        <time>2011-04-20T08:28:23.000Z</time>
      </trkpt>
      <trkpt lat="48.69434" lon="1.75034">
        <ele>165</ele>
        <time>2011-04-20T08:28:30.000Z</time>
      </trkpt>
      <trkpt lat="48.69439" lon="1.75048">
        <ele>165</ele>
        <time>2011-04-20T08:28:37.000Z</time>
      </trkpt>
      <trkpt lat="48.69442" lon="1.7506">
        <ele>163.60000610352</ele>
        <time>2011-04-20T08:28:43.000Z</time>
      </trkpt>
      <trkpt lat="48.69447" lon="1.75078">
        <ele>164</ele>
        <time>2011-04-20T08:28:52.000Z</time>
      </trkpt>
      <trkpt lat="48.69449" lon="1.75084">
        <ele>165</ele>
        <time>2011-04-20T08:28:55.000Z</time>
      </trkpt>
      <trkpt lat="48.69454" lon="1.75096">
        <ele>165</ele>
        <time>2011-04-20T08:29:01.000Z</time>
      </trkpt>
      <trkpt lat="48.69456" lon="1.75109">
        <ele>163.60000610352</ele>
        <time>2011-04-20T08:29:08.000Z</time>
      </trkpt>
      <trkpt lat="48.69461" lon="1.75126">
        <ele>162.19999694824</ele>
        <time>2011-04-20T08:29:16.000Z</time>
      </trkpt>
      <trkpt lat="48.69466" lon="1.7514">
        <ele>162.60000610352</ele>
        <time>2011-04-20T08:29:23.000Z</time>
      </trkpt>
      <trkpt lat="48.69467" lon="1.75149">
        <ele>162.60000610352</ele>
        <time>2011-04-20T08:29:27.000Z</time>
      </trkpt>
      <trkpt lat="48.69472" lon="1.75168">
        <ele>162.19999694824</ele>
        <time>2011-04-20T08:29:36.000Z</time>
      </trkpt>
      <trkpt lat="48.69474" lon="1.75183">
        <ele>161.60000610352</ele>
        <time>2011-04-20T08:29:43.000Z</time>
      </trkpt>
      <trkpt lat="48.69478" lon="1.752">
        <ele>161.19999694824</ele>
        <time>2011-04-20T08:29:51.000Z</time>
      </trkpt>
      <trkpt lat="48.69484" lon="1.75221">
        <ele>160.60000610352</ele>
        <time>2011-04-20T08:30:01.000Z</time>
      </trkpt>
      <trkpt lat="48.69489" lon="1.7524">
        <ele>158.80000305176</ele>
        <time>2011-04-20T08:30:09.000Z</time>
      </trkpt>
      <trkpt lat="48.69492" lon="1.75256">
        <ele>157.39999389648</ele>
        <time>2011-04-20T08:30:16.000Z</time>
      </trkpt>
      <trkpt lat="48.69498" lon="1.75271">
        <ele>156.39999389648</ele>
        <time>2011-04-20T08:30:23.000Z</time>
      </trkpt>
      <trkpt lat="48.69503" lon="1.75287">
        <ele>154.39999389648</ele>
        <time>2011-04-20T08:30:30.000Z</time>
      </trkpt>
      <trkpt lat="48.69504" lon="1.75289">
        <ele>154.39999389648</ele>
        <time>2011-04-20T08:30:31.000Z</time>
      </trkpt>
      <trkpt lat="48.69507" lon="1.75304">
        <ele>154</ele>
        <time>2011-04-20T08:30:38.000Z</time>
      </trkpt>
      <trkpt lat="48.69511" lon="1.75323">
        <ele>154.39999389648</ele>
        <time>2011-04-20T08:30:46.000Z</time>
      </trkpt>
      <trkpt lat="48.69513" lon="1.75335">
        <ele>155</ele>
        <time>2011-04-20T08:30:51.000Z</time>
      </trkpt>
      <trkpt lat="48.69516" lon="1.75348">
        <ele>155</ele>
        <time>2011-04-20T08:30:57.000Z</time>
      </trkpt>
      <trkpt lat="48.69521" lon="1.75368">
        <ele>155</ele>
        <time>2011-04-20T08:31:06.000Z</time>
      </trkpt>
      <trkpt lat="48.69526" lon="1.75385">
        <ele>155.80000305176</ele>
        <time>2011-04-20T08:31:14.000Z</time>
      </trkpt>
      <trkpt lat="48.69528" lon="1.754">
        <ele>155.80000305176</ele>
        <time>2011-04-20T08:31:21.000Z</time>
      </trkpt>
      <trkpt lat="48.69531" lon="1.75411">
        <ele>155.39999389648</ele>
        <time>2011-04-20T08:31:26.000Z</time>
      </trkpt>
      <trkpt lat="48.69537" lon="1.75433">
        <ele>154</ele>
        <time>2011-04-20T08:31:36.000Z</time>
      </trkpt>
      <trkpt lat="48.69539" lon="1.7544">
        <ele>153.39999389648</ele>
        <time>2011-04-20T08:31:39.000Z</time>
      </trkpt>
      <trkpt lat="48.69542" lon="1.75447">
        <ele>153.39999389648</ele>
        <time>2011-04-20T08:31:43.000Z</time>
      </trkpt>
      <trkpt lat="48.69547" lon="1.75465">
        <ele>152.60000610352</ele>
        <time>2011-04-20T08:31:52.000Z</time>
      </trkpt>
      <trkpt lat="48.69551" lon="1.75482">
        <ele>151.60000610352</ele>
        <time>2011-04-20T08:32:00.000Z</time>
      </trkpt>
      <trkpt lat="48.69557" lon="1.75507">
        <ele>151</ele>
        <time>2011-04-20T08:32:11.000Z</time>
      </trkpt>
      <trkpt lat="48.69561" lon="1.75523">
        <ele>151</ele>
        <time>2011-04-20T08:32:18.000Z</time>
      </trkpt>
      <trkpt lat="48.69566" lon="1.75539">
        <ele>151</ele>
        <time>2011-04-20T08:32:26.000Z</time>
      </trkpt>
      <trkpt lat="48.69571" lon="1.75551">
        <ele>151</ele>
        <time>2011-04-20T08:32:33.000Z</time>
      </trkpt>
      <trkpt lat="48.69575" lon="1.75566">
        <ele>151.60000610352</ele>
        <time>2011-04-20T08:32:40.000Z</time>
      </trkpt>
      <trkpt lat="48.69577" lon="1.75573">
        <ele>151.60000610352</ele>
        <time>2011-04-20T08:32:43.000Z</time>
      </trkpt>
      <trkpt lat="48.69578" lon="1.75581">
        <ele>152</ele>
        <time>2011-04-20T08:32:47.000Z</time>
      </trkpt>
      <trkpt lat="48.69584" lon="1.75602">
        <ele>151.60000610352</ele>
        <time>2011-04-20T08:32:56.000Z</time>
      </trkpt>
      <trkpt lat="48.69587" lon="1.7562">
        <ele>151.60000610352</ele>
        <time>2011-04-20T08:33:04.000Z</time>
      </trkpt>
      <trkpt lat="48.69591" lon="1.75641">
        <ele>151</ele>
        <time>2011-04-20T08:33:13.000Z</time>
      </trkpt>
      <trkpt lat="48.69592" lon="1.75648">
        <ele>151.60000610352</ele>
        <time>2011-04-20T08:33:16.000Z</time>
      </trkpt>
      <trkpt lat="48.69594" lon="1.75662">
        <ele>152.60000610352</ele>
        <time>2011-04-20T08:33:23.000Z</time>
      </trkpt>
      <trkpt lat="48.69598" lon="1.75676">
        <ele>155</ele>
        <time>2011-04-20T08:33:31.000Z</time>
      </trkpt>
      <trkpt lat="48.69604" lon="1.75691">
        <ele>156.80000305176</ele>
        <time>2011-04-20T08:33:38.000Z</time>
      </trkpt>
      <trkpt lat="48.69606" lon="1.75695">
        <ele>157.39999389648</ele>
        <time>2011-04-20T08:33:45.000Z</time>
      </trkpt>
      <trkpt lat="48.69609" lon="1.75703">
        <ele>156.39999389648</ele>
        <time>2011-04-20T08:34:11.000Z</time>
      </trkpt>
      <trkpt lat="48.69612" lon="1.75713">
        <ele>156.39999389648</ele>
        <time>2011-04-20T08:34:16.000Z</time>
      </trkpt>
      <trkpt lat="48.69614" lon="1.75728">
        <ele>157.39999389648</ele>
        <time>2011-04-20T08:34:24.000Z</time>
      </trkpt>
      <trkpt lat="48.69613" lon="1.75728">
        <ele>157.39999389648</ele>
        <time>2011-04-20T08:34:26.000Z</time>
      </trkpt>
      <trkpt lat="48.69616" lon="1.75738">
        <ele>156.39999389648</ele>
        <time>2011-04-20T08:34:56.000Z</time>
      </trkpt>
      <trkpt lat="48.69617" lon="1.75747">
        <ele>156.39999389648</ele>
        <time>2011-04-20T08:35:00.000Z</time>
      </trkpt>
      <trkpt lat="48.69619" lon="1.75753">
        <ele>156.80000305176</ele>
        <time>2011-04-20T08:35:04.000Z</time>
      </trkpt>
      <trkpt lat="48.69623" lon="1.75763">
        <ele>156.80000305176</ele>
        <time>2011-04-20T08:35:09.000Z</time>
      </trkpt>
      <trkpt lat="48.69627" lon="1.7578">
        <ele>156.80000305176</ele>
        <time>2011-04-20T08:35:17.000Z</time>
      </trkpt>
      <trkpt lat="48.69632" lon="1.75796">
        <ele>157.80000305176</ele>
        <time>2011-04-20T08:35:24.000Z</time>
      </trkpt>
      <trkpt lat="48.69634" lon="1.75803">
        <ele>157.80000305176</ele>
        <time>2011-04-20T08:35:27.000Z</time>
      </trkpt>
      <trkpt lat="48.69637" lon="1.75815">
        <ele>157.80000305176</ele>
        <time>2011-04-20T08:35:33.000Z</time>
      </trkpt>
      <trkpt lat="48.69638" lon="1.7582">
        <ele>157.80000305176</ele>
        <time>2011-04-20T08:35:35.000Z</time>
      </trkpt>
      <trkpt lat="48.69641" lon="1.75832">
        <ele>159.19999694824</ele>
        <time>2011-04-20T08:35:41.000Z</time>
      </trkpt>
      <trkpt lat="48.69646" lon="1.75843">
        <ele>163</ele>
        <time>2011-04-20T08:35:46.000Z</time>
      </trkpt>
      <trkpt lat="48.69649" lon="1.75849">
        <ele>165</ele>
        <time>2011-04-20T08:35:49.000Z</time>
      </trkpt>
      <trkpt lat="48.69653" lon="1.75863">
        <ele>167.80000305176</ele>
        <time>2011-04-20T08:35:56.000Z</time>
      </trkpt>
      <trkpt lat="48.69654" lon="1.75872">
        <ele>167</ele>
        <time>2011-04-20T08:36:00.000Z</time>
      </trkpt>
      <trkpt lat="48.69658" lon="1.75887">
        <ele>165.39999389648</ele>
        <time>2011-04-20T08:36:07.000Z</time>
      </trkpt>
      <trkpt lat="48.69659" lon="1.75893">
        <ele>164</ele>
        <time>2011-04-20T08:36:10.000Z</time>
      </trkpt>
      <trkpt lat="48.69659" lon="1.75901">
        <ele>163.60000610352</ele>
        <time>2011-04-20T08:36:14.000Z</time>
      </trkpt>
      <trkpt lat="48.6966" lon="1.75909">
        <ele>164</ele>
        <time>2011-04-20T08:36:18.000Z</time>
      </trkpt>
      <trkpt lat="48.69662" lon="1.75927">
        <ele>165</ele>
        <time>2011-04-20T08:36:27.000Z</time>
      </trkpt>
      <trkpt lat="48.69663" lon="1.75942">
        <ele>166</ele>
        <time>2011-04-20T08:36:34.000Z</time>
      </trkpt>
      <trkpt lat="48.69664" lon="1.75957">
        <ele>167.39999389648</ele>
        <time>2011-04-20T08:36:41.000Z</time>
      </trkpt>
      <trkpt lat="48.69665" lon="1.75974">
        <ele>168.39999389648</ele>
        <time>2011-04-20T08:36:49.000Z</time>
      </trkpt>
      <trkpt lat="48.69668" lon="1.75987">
        <ele>169.80000305176</ele>
        <time>2011-04-20T08:36:55.000Z</time>
      </trkpt>
      <trkpt lat="48.69668" lon="1.75991">
        <ele>169.80000305176</ele>
        <time>2011-04-20T08:36:57.000Z</time>
      </trkpt>
      <trkpt lat="48.6967" lon="1.76007">
        <ele>168.80000305176</ele>
        <time>2011-04-20T08:37:05.000Z</time>
      </trkpt>
      <trkpt lat="48.69672" lon="1.7602">
        <ele>168.39999389648</ele>
        <time>2011-04-20T08:37:11.000Z</time>
      </trkpt>
      <trkpt lat="48.69674" lon="1.76036">
        <ele>171.19999694824</ele>
        <time>2011-04-20T08:37:19.000Z</time>
      </trkpt>
      <trkpt lat="48.69676" lon="1.7605">
        <ele>171.80000305176</ele>
        <time>2011-04-20T08:37:26.000Z</time>
      </trkpt>
      <trkpt lat="48.69678" lon="1.76063">
        <ele>175</ele>
        <time>2011-04-20T08:37:33.000Z</time>
      </trkpt>
      <trkpt lat="48.69682" lon="1.76072">
        <ele>176</ele>
        <time>2011-04-20T08:37:38.000Z</time>
      </trkpt>
      <trkpt lat="48.69684" lon="1.76087">
        <ele>179</ele>
        <time>2011-04-20T08:37:46.000Z</time>
      </trkpt>
      <trkpt lat="48.69686" lon="1.76102">
        <ele>179</ele>
        <time>2011-04-20T08:37:53.000Z</time>
      </trkpt>
      <trkpt lat="48.69689" lon="1.76115">
        <ele>181.80000305176</ele>
        <time>2011-04-20T08:38:00.000Z</time>
      </trkpt>
      <trkpt lat="48.69689" lon="1.76117">
        <ele>182.39999389648</ele>
        <time>2011-04-20T08:38:01.000Z</time>
      </trkpt>
      <trkpt lat="48.6969" lon="1.76123">
        <ele>183.80000305176</ele>
        <time>2011-04-20T08:38:04.000Z</time>
      </trkpt>
      <trkpt lat="48.69693" lon="1.76137">
        <ele>183.19999694824</ele>
        <time>2011-04-20T08:38:11.000Z</time>
      </trkpt>
      <trkpt lat="48.69694" lon="1.76141">
        <ele>184.19999694824</ele>
        <time>2011-04-20T08:38:13.000Z</time>
      </trkpt>
      <trkpt lat="48.69695" lon="1.76151">
        <ele>182.80000305176</ele>
        <time>2011-04-20T08:38:18.000Z</time>
      </trkpt>
      <trkpt lat="48.69695" lon="1.76162">
        <ele>181.39999389648</ele>
        <time>2011-04-20T08:38:23.000Z</time>
      </trkpt>
      <trkpt lat="48.69696" lon="1.76179">
        <ele>179</ele>
        <time>2011-04-20T08:38:31.000Z</time>
      </trkpt>
      <trkpt lat="48.697" lon="1.76192">
        <ele>180.39999389648</ele>
        <time>2011-04-20T08:38:37.000Z</time>
      </trkpt>
      <trkpt lat="48.69701" lon="1.76201">
        <ele>181.39999389648</ele>
        <time>2011-04-20T08:38:41.000Z</time>
      </trkpt>
      <trkpt lat="48.69702" lon="1.76207">
        <ele>181.39999389648</ele>
        <time>2011-04-20T08:38:44.000Z</time>
      </trkpt>
      <trkpt lat="48.69704" lon="1.76223">
        <ele>184.19999694824</ele>
        <time>2011-04-20T08:38:51.000Z</time>
      </trkpt>
      <trkpt lat="48.69706" lon="1.76236">
        <ele>184.80000305176</ele>
        <time>2011-04-20T08:38:56.000Z</time>
      </trkpt>
      <trkpt lat="48.69707" lon="1.76242">
        <ele>184.80000305176</ele>
        <time>2011-04-20T08:38:58.000Z</time>
      </trkpt>
      <trkpt lat="48.6971" lon="1.76253">
        <ele>184.80000305176</ele>
        <time>2011-04-20T08:39:03.000Z</time>
      </trkpt>
      <trkpt lat="48.69711" lon="1.76261">
        <ele>185.19999694824</ele>
        <time>2011-04-20T08:39:07.000Z</time>
      </trkpt>
      <trkpt lat="48.69714" lon="1.76277">
        <ele>184.80000305176</ele>
        <time>2011-04-20T08:39:15.000Z</time>
      </trkpt>
      <trkpt lat="48.69713" lon="1.76291">
        <ele>182.39999389648</ele>
        <time>2011-04-20T08:39:22.000Z</time>
      </trkpt>
      <trkpt lat="48.69717" lon="1.76304">
        <ele>181.39999389648</ele>
        <time>2011-04-20T08:39:29.000Z</time>
      </trkpt>
      <trkpt lat="48.69717" lon="1.76319">
        <ele>180</ele>
        <time>2011-04-20T08:39:36.000Z</time>
      </trkpt>
      <trkpt lat="48.69716" lon="1.76334">
        <ele>178</ele>
        <time>2011-04-20T08:39:42.000Z</time>
      </trkpt>
      <trkpt lat="48.69715" lon="1.76349">
        <ele>177.60000610352</ele>
        <time>2011-04-20T08:39:49.000Z</time>
      </trkpt>
      <trkpt lat="48.69716" lon="1.76367">
        <ele>177</ele>
        <time>2011-04-20T08:39:56.000Z</time>
      </trkpt>
      <trkpt lat="48.69718" lon="1.76379">
        <ele>177</ele>
        <time>2011-04-20T08:40:01.000Z</time>
      </trkpt>
      <trkpt lat="48.6972" lon="1.76393">
        <ele>176</ele>
        <time>2011-04-20T08:40:07.000Z</time>
      </trkpt>
      <trkpt lat="48.69724" lon="1.76413">
        <ele>175.60000610352</ele>
        <time>2011-04-20T08:40:15.000Z</time>
      </trkpt>
      <trkpt lat="48.69727" lon="1.7643">
        <ele>178.39999389648</ele>
        <time>2011-04-20T08:40:22.000Z</time>
      </trkpt>
      <trkpt lat="48.6973" lon="1.7645">
        <ele>179</ele>
        <time>2011-04-20T08:40:30.000Z</time>
      </trkpt>
      <trkpt lat="48.69733" lon="1.76467">
        <ele>179</ele>
        <time>2011-04-20T08:40:37.000Z</time>
      </trkpt>
      <trkpt lat="48.69735" lon="1.76481">
        <ele>179</ele>
        <time>2011-04-20T08:40:43.000Z</time>
      </trkpt>
      <trkpt lat="48.69737" lon="1.76503">
        <ele>178</ele>
        <time>2011-04-20T08:40:52.000Z</time>
      </trkpt>
      <trkpt lat="48.69738" lon="1.76507">
        <ele>178</ele>
        <time>2011-04-20T08:40:54.000Z</time>
      </trkpt>
      <trkpt lat="48.69738" lon="1.76515">
        <ele>177</ele>
        <time>2011-04-20T08:40:58.000Z</time>
      </trkpt>
      <trkpt lat="48.69741" lon="1.76537">
        <ele>178.39999389648</ele>
        <time>2011-04-20T08:41:07.000Z</time>
      </trkpt>
      <trkpt lat="48.69742" lon="1.76551">
        <ele>179.39999389648</ele>
        <time>2011-04-20T08:41:13.000Z</time>
      </trkpt>
      <trkpt lat="48.69743" lon="1.76564">
        <ele>178.39999389648</ele>
        <time>2011-04-20T08:41:18.000Z</time>
      </trkpt>
      <trkpt lat="48.69744" lon="1.76573">
        <ele>177.60000610352</ele>
        <time>2011-04-20T08:41:22.000Z</time>
      </trkpt>
      <trkpt lat="48.69743" lon="1.76584">
        <ele>179.39999389648</ele>
        <time>2011-04-20T08:41:27.000Z</time>
      </trkpt>
      <trkpt lat="48.69743" lon="1.76594">
        <ele>181.80000305176</ele>
        <time>2011-04-20T08:41:32.000Z</time>
      </trkpt>
      <trkpt lat="48.69747" lon="1.76605">
        <ele>182.39999389648</ele>
        <time>2011-04-20T08:41:38.000Z</time>
      </trkpt>
      <trkpt lat="48.69754" lon="1.76613">
        <ele>180</ele>
        <time>2011-04-20T08:41:46.000Z</time>
      </trkpt>
      <trkpt lat="48.69761" lon="1.76621">
        <ele>180.80000305176</ele>
        <time>2011-04-20T08:41:52.000Z</time>
      </trkpt>
      <trkpt lat="48.6977" lon="1.76631">
        <ele>181.80000305176</ele>
        <time>2011-04-20T08:42:01.000Z</time>
      </trkpt>
      <trkpt lat="48.69777" lon="1.76639">
        <ele>181.80000305176</ele>
        <time>2011-04-20T08:42:06.000Z</time>
      </trkpt>
      <trkpt lat="48.6978" lon="1.76642">
        <ele>183.19999694824</ele>
        <time>2011-04-20T08:42:08.000Z</time>
      </trkpt>
      <trkpt lat="48.69784" lon="1.76646">
        <ele>184.80000305176</ele>
        <time>2011-04-20T08:42:12.000Z</time>
      </trkpt>
      <trkpt lat="48.69788" lon="1.7665">
        <ele>185.19999694824</ele>
        <time>2011-04-20T08:42:15.000Z</time>
      </trkpt>
      <trkpt lat="48.69791" lon="1.76653">
        <ele>183.19999694824</ele>
        <time>2011-04-20T08:42:21.000Z</time>
      </trkpt>
      <trkpt lat="48.69793" lon="1.76657">
        <ele>182.39999389648</ele>
        <time>2011-04-20T08:42:27.000Z</time>
      </trkpt>
      <trkpt lat="48.69796" lon="1.7666">
        <ele>180.80000305176</ele>
        <time>2011-04-20T08:42:28.000Z</time>
      </trkpt>
      <trkpt lat="48.698" lon="1.76667">
        <ele>181.80000305176</ele>
        <time>2011-04-20T08:42:32.000Z</time>
      </trkpt>
      <trkpt lat="48.69805" lon="1.76674">
        <ele>183.19999694824</ele>
        <time>2011-04-20T08:42:37.000Z</time>
      </trkpt>
      <trkpt lat="48.69811" lon="1.7668">
        <ele>180.80000305176</ele>
        <time>2011-04-20T08:42:41.000Z</time>
      </trkpt>
      <trkpt lat="48.69817" lon="1.76687">
        <ele>182.39999389648</ele>
        <time>2011-04-20T08:42:46.000Z</time>
      </trkpt>
      <trkpt lat="48.69826" lon="1.76698">
        <ele>177</ele>
        <time>2011-04-20T08:42:53.000Z</time>
      </trkpt>
      <trkpt lat="48.69833" lon="1.76705">
        <ele>177.60000610352</ele>
        <time>2011-04-20T08:42:58.000Z</time>
      </trkpt>
      <trkpt lat="48.69837" lon="1.76711">
        <ele>175.60000610352</ele>
        <time>2011-04-20T08:43:02.000Z</time>
      </trkpt>
      <trkpt lat="48.69844" lon="1.76719">
        <ele>176</ele>
        <time>2011-04-20T08:43:08.000Z</time>
      </trkpt>
      <trkpt lat="48.69853" lon="1.76729">
        <ele>176.60000610352</ele>
        <time>2011-04-20T08:43:15.000Z</time>
      </trkpt>
      <trkpt lat="48.6986" lon="1.76737">
        <ele>176</ele>
        <time>2011-04-20T08:43:21.000Z</time>
      </trkpt>
      <trkpt lat="48.69866" lon="1.76745">
        <ele>175</ele>
        <time>2011-04-20T08:43:26.000Z</time>
      </trkpt>
      <trkpt lat="48.69874" lon="1.76754">
        <ele>174.60000610352</ele>
        <time>2011-04-20T08:43:32.000Z</time>
      </trkpt>
      <trkpt lat="48.6988" lon="1.76759">
        <ele>175.60000610352</ele>
        <time>2011-04-20T08:43:37.000Z</time>
      </trkpt>
      <trkpt lat="48.69887" lon="1.76767">
        <ele>172.19999694824</ele>
        <time>2011-04-20T08:43:42.000Z</time>
      </trkpt>
      <trkpt lat="48.69888" lon="1.76769">
        <ele>172.60000610352</ele>
        <time>2011-04-20T08:43:43.000Z</time>
      </trkpt>
      <trkpt lat="48.69891" lon="1.76772">
        <ele>171.19999694824</ele>
        <time>2011-04-20T08:43:45.000Z</time>
      </trkpt>
      <trkpt lat="48.69899" lon="1.76779">
        <ele>168.39999389648</ele>
        <time>2011-04-20T08:43:52.000Z</time>
      </trkpt>
      <trkpt lat="48.69907" lon="1.76781">
        <ele>169.80000305176</ele>
        <time>2011-04-20T08:43:57.000Z</time>
      </trkpt>
      <trkpt lat="48.69912" lon="1.7678">
        <ele>168.80000305176</ele>
        <time>2011-04-20T08:44:01.000Z</time>
      </trkpt>
      <trkpt lat="48.69917" lon="1.76778">
        <ele>171.80000305176</ele>
        <time>2011-04-20T08:44:08.000Z</time>
      </trkpt>
      <trkpt lat="48.69926" lon="1.76777">
        <ele>171.80000305176</ele>
        <time>2011-04-20T08:44:14.000Z</time>
      </trkpt>
      <trkpt lat="48.69937" lon="1.76776">
        <ele>169.80000305176</ele>
        <time>2011-04-20T08:44:21.000Z</time>
      </trkpt>
      <trkpt lat="48.69946" lon="1.76775">
        <ele>169.39999389648</ele>
        <time>2011-04-20T08:44:26.000Z</time>
      </trkpt>
      <trkpt lat="48.69953" lon="1.76776">
        <ele>169.39999389648</ele>
        <time>2011-04-20T08:44:32.000Z</time>
      </trkpt>
      <trkpt lat="48.69961" lon="1.76775">
        <ele>168.80000305176</ele>
        <time>2011-04-20T08:44:36.000Z</time>
      </trkpt>
      <trkpt lat="48.69967" lon="1.76774">
        <ele>168.80000305176</ele>
        <time>2011-04-20T08:44:41.000Z</time>
      </trkpt>
      <trkpt lat="48.69977" lon="1.76775">
        <ele>167.39999389648</ele>
        <time>2011-04-20T08:44:48.000Z</time>
      </trkpt>
      <trkpt lat="48.69985" lon="1.76776">
        <ele>165.39999389648</ele>
        <time>2011-04-20T08:44:54.000Z</time>
      </trkpt>
      <trkpt lat="48.69988" lon="1.76776">
        <ele>165</ele>
        <time>2011-04-20T08:44:56.000Z</time>
      </trkpt>
      <trkpt lat="48.69996" lon="1.76778">
        <ele>162.60000610352</ele>
        <time>2011-04-20T08:45:02.000Z</time>
      </trkpt>
      <trkpt lat="48.69998" lon="1.76779">
        <ele>161.60000610352</ele>
        <time>2011-04-20T08:45:03.000Z</time>
      </trkpt>
      <trkpt lat="48.70008" lon="1.76778">
        <ele>157.80000305176</ele>
        <time>2011-04-20T08:45:11.000Z</time>
      </trkpt>
      <trkpt lat="48.7001" lon="1.76779">
        <ele>157.39999389648</ele>
        <time>2011-04-20T08:45:12.000Z</time>
      </trkpt>
      <trkpt lat="48.70012" lon="1.76779">
        <ele>157.80000305176</ele>
        <time>2011-04-20T08:45:14.000Z</time>
      </trkpt>
      <trkpt lat="48.70021" lon="1.7678">
        <ele>157.39999389648</ele>
        <time>2011-04-20T08:45:21.000Z</time>
      </trkpt>
      <trkpt lat="48.70034" lon="1.76781">
        <ele>154</ele>
        <time>2011-04-20T08:45:29.000Z</time>
      </trkpt>
      <trkpt lat="48.70036" lon="1.76782">
        <ele>153.39999389648</ele>
        <time>2011-04-20T08:45:30.000Z</time>
      </trkpt>
      <trkpt lat="48.70043" lon="1.76781">
        <ele>160.60000610352</ele>
        <time>2011-04-20T08:45:35.000Z</time>
      </trkpt>
      <trkpt lat="48.70056" lon="1.76779">
        <ele>167</ele>
        <time>2011-04-20T08:45:42.000Z</time>
      </trkpt>
      <trkpt lat="48.70061" lon="1.76778">
        <ele>168.80000305176</ele>
        <time>2011-04-20T08:45:45.000Z</time>
      </trkpt>
      <trkpt lat="48.70067" lon="1.76778">
        <ele>170.19999694824</ele>
        <time>2011-04-20T08:45:49.000Z</time>
      </trkpt>
      <trkpt lat="48.70079" lon="1.76775">
        <ele>171.19999694824</ele>
        <time>2011-04-20T08:45:57.000Z</time>
      </trkpt>
      <trkpt lat="48.70084" lon="1.76775">
        <ele>173.19999694824</ele>
        <time>2011-04-20T08:46:00.000Z</time>
      </trkpt>
      <trkpt lat="48.70092" lon="1.76777">
        <ele>172.60000610352</ele>
        <time>2011-04-20T08:46:06.000Z</time>
      </trkpt>
      <trkpt lat="48.70094" lon="1.76778">
        <ele>169.80000305176</ele>
        <time>2011-04-20T08:46:08.000Z</time>
      </trkpt>
      <trkpt lat="48.70101" lon="1.76781">
        <ele>164</ele>
        <time>2011-04-20T08:46:14.000Z</time>
      </trkpt>
      <trkpt lat="48.70106" lon="1.76782">
        <ele>163</ele>
        <time>2011-04-20T08:46:18.000Z</time>
      </trkpt>
      <trkpt lat="48.70111" lon="1.76783">
        <ele>165</ele>
        <time>2011-04-20T08:46:22.000Z</time>
      </trkpt>
      <trkpt lat="48.70121" lon="1.76783">
        <ele>167</ele>
        <time>2011-04-20T08:46:28.000Z</time>
      </trkpt>
      <trkpt lat="48.70128" lon="1.76782">
        <ele>167.39999389648</ele>
        <time>2011-04-20T08:46:32.000Z</time>
      </trkpt>
      <trkpt lat="48.70135" lon="1.76781">
        <ele>167</ele>
        <time>2011-04-20T08:46:36.000Z</time>
      </trkpt>
      <trkpt lat="48.70147" lon="1.76777">
        <ele>164.60000610352</ele>
        <time>2011-04-20T08:46:44.000Z</time>
      </trkpt>
      <trkpt lat="48.70159" lon="1.76771">
        <ele>159.19999694824</ele>
        <time>2011-04-20T08:46:51.000Z</time>
      </trkpt>
      <trkpt lat="48.70161" lon="1.76769">
        <ele>158.19999694824</ele>
        <time>2011-04-20T08:46:53.000Z</time>
      </trkpt>
      <trkpt lat="48.70166" lon="1.76762">
        <ele>158.19999694824</ele>
        <time>2011-04-20T08:46:57.000Z</time>
      </trkpt>
      <trkpt lat="48.70172" lon="1.7675">
        <ele>158.19999694824</ele>
        <time>2011-04-20T08:47:04.000Z</time>
      </trkpt>
      <trkpt lat="48.70176" lon="1.76744">
        <ele>157.39999389648</ele>
        <time>2011-04-20T08:47:07.000Z</time>
      </trkpt>
      <trkpt lat="48.70186" lon="1.76741">
        <ele>156.80000305176</ele>
        <time>2011-04-20T08:47:14.000Z</time>
      </trkpt>
      <trkpt lat="48.70192" lon="1.76733">
        <ele>155.39999389648</ele>
        <time>2011-04-20T08:47:20.000Z</time>
      </trkpt>
      <trkpt lat="48.70197" lon="1.76726">
        <ele>155.39999389648</ele>
        <time>2011-04-20T08:47:26.000Z</time>
      </trkpt>
      <trkpt lat="48.70198" lon="1.76725">
        <ele>155.39999389648</ele>
        <time>2011-04-20T08:47:27.000Z</time>
      </trkpt>
      <trkpt lat="48.70207" lon="1.76716">
        <ele>155.80000305176</ele>
        <time>2011-04-20T08:47:33.000Z</time>
      </trkpt>
      <trkpt lat="48.70216" lon="1.76711">
        <ele>157.39999389648</ele>
        <time>2011-04-20T08:47:40.000Z</time>
      </trkpt>
      <trkpt lat="48.70219" lon="1.7671">
        <ele>157.39999389648</ele>
        <time>2011-04-20T08:47:42.000Z</time>
      </trkpt>
      <trkpt lat="48.70228" lon="1.76703">
        <ele>153.39999389648</ele>
        <time>2011-04-20T08:47:49.000Z</time>
      </trkpt>
      <trkpt lat="48.70236" lon="1.76697">
        <ele>150.19999694824</ele>
        <time>2011-04-20T08:47:55.000Z</time>
      </trkpt>
      <trkpt lat="48.70237" lon="1.76697">
        <ele>149.60000610352</ele>
        <time>2011-04-20T08:47:56.000Z</time>
      </trkpt>
      <trkpt lat="48.70242" lon="1.76693">
        <ele>149.60000610352</ele>
        <time>2011-04-20T08:48:00.000Z</time>
      </trkpt>
      <trkpt lat="48.70245" lon="1.76693">
        <ele>147.60000610352</ele>
        <time>2011-04-20T08:48:02.000Z</time>
      </trkpt>
      <trkpt lat="48.70252" lon="1.7669">
        <ele>148.19999694824</ele>
        <time>2011-04-20T08:48:07.000Z</time>
      </trkpt>
      <trkpt lat="48.70258" lon="1.76685">
        <ele>147.19999694824</ele>
        <time>2011-04-20T08:48:13.000Z</time>
      </trkpt>
      <trkpt lat="48.70265" lon="1.76682">
        <ele>147.19999694824</ele>
        <time>2011-04-20T08:48:18.000Z</time>
      </trkpt>
      <trkpt lat="48.70275" lon="1.76681">
        <ele>148.19999694824</ele>
        <time>2011-04-20T08:48:25.000Z</time>
      </trkpt>
      <trkpt lat="48.70277" lon="1.76681">
        <ele>148.19999694824</ele>
        <time>2011-04-20T08:48:26.000Z</time>
      </trkpt>
      <trkpt lat="48.70286" lon="1.76676">
        <ele>149.19999694824</ele>
        <time>2011-04-20T08:48:32.000Z</time>
      </trkpt>
      <trkpt lat="48.70296" lon="1.76669">
        <ele>152.60000610352</ele>
        <time>2011-04-20T08:48:38.000Z</time>
      </trkpt>
      <trkpt lat="48.70306" lon="1.76663">
        <ele>151</ele>
        <time>2011-04-20T08:48:44.000Z</time>
      </trkpt>
      <trkpt lat="48.70317" lon="1.76654">
        <ele>154</ele>
        <time>2011-04-20T08:48:52.000Z</time>
      </trkpt>
      <trkpt lat="48.70317" lon="1.76651">
        <ele>159.80000305176</ele>
        <time>2011-04-20T08:48:57.000Z</time>
      </trkpt>
      <trkpt lat="48.70322" lon="1.76645">
        <ele>163</ele>
        <time>2011-04-20T08:49:04.000Z</time>
      </trkpt>
      <trkpt lat="48.70323" lon="1.76644">
        <ele>163</ele>
        <time>2011-04-20T08:49:05.000Z</time>
      </trkpt>
      <trkpt lat="48.70332" lon="1.76636">
        <ele>162.60000610352</ele>
        <time>2011-04-20T08:49:11.000Z</time>
      </trkpt>
      <trkpt lat="48.70339" lon="1.76632">
        <ele>162.60000610352</ele>
        <time>2011-04-20T08:49:16.000Z</time>
      </trkpt>
      <trkpt lat="48.70347" lon="1.76627">
        <ele>159.80000305176</ele>
        <time>2011-04-20T08:49:23.000Z</time>
      </trkpt>
      <trkpt lat="48.70356" lon="1.76621">
        <ele>159.80000305176</ele>
        <time>2011-04-20T08:49:29.000Z</time>
      </trkpt>
      <trkpt lat="48.70364" lon="1.76616">
        <ele>160.60000610352</ele>
        <time>2011-04-20T08:49:35.000Z</time>
      </trkpt>
      <trkpt lat="48.7037" lon="1.76611">
        <ele>160.60000610352</ele>
        <time>2011-04-20T08:49:40.000Z</time>
      </trkpt>
      <trkpt lat="48.70373" lon="1.7661">
        <ele>161.19999694824</ele>
        <time>2011-04-20T08:49:42.000Z</time>
      </trkpt>
      <trkpt lat="48.70378" lon="1.76606">
        <ele>162.60000610352</ele>
        <time>2011-04-20T08:49:46.000Z</time>
      </trkpt>
      <trkpt lat="48.70387" lon="1.766">
        <ele>162.60000610352</ele>
        <time>2011-04-20T08:49:53.000Z</time>
      </trkpt>
      <trkpt lat="48.70397" lon="1.76594">
        <ele>163</ele>
        <time>2011-04-20T08:50:00.000Z</time>
      </trkpt>
      <trkpt lat="48.70406" lon="1.76591">
        <ele>166</ele>
        <time>2011-04-20T08:50:06.000Z</time>
      </trkpt>
      <trkpt lat="48.70415" lon="1.76586">
        <ele>166.39999389648</ele>
        <time>2011-04-20T08:50:13.000Z</time>
      </trkpt>
      <trkpt lat="48.70424" lon="1.76582">
        <ele>167</ele>
        <time>2011-04-20T08:50:20.000Z</time>
      </trkpt>
      <trkpt lat="48.70431" lon="1.76575">
        <ele>169.80000305176</ele>
        <time>2011-04-20T08:50:25.000Z</time>
      </trkpt>
      <trkpt lat="48.70437" lon="1.76557">
        <ele>167.80000305176</ele>
        <time>2011-04-20T08:50:34.000Z</time>
      </trkpt>
      <trkpt lat="48.70441" lon="1.76537">
        <ele>167.39999389648</ele>
        <time>2011-04-20T08:50:42.000Z</time>
      </trkpt>
      <trkpt lat="48.70444" lon="1.7652">
        <ele>166</ele>
        <time>2011-04-20T08:50:49.000Z</time>
      </trkpt>
      <trkpt lat="48.70447" lon="1.76508">
        <ele>162.60000610352</ele>
        <time>2011-04-20T08:50:55.000Z</time>
      </trkpt>
      <trkpt lat="48.70447" lon="1.76506">
        <ele>161.60000610352</ele>
        <time>2011-04-20T08:50:56.000Z</time>
      </trkpt>
      <trkpt lat="48.7045" lon="1.76498">
        <ele>158.19999694824</ele>
        <time>2011-04-20T08:51:00.000Z</time>
      </trkpt>
      <trkpt lat="48.70453" lon="1.76484">
        <ele>155.39999389648</ele>
        <time>2011-04-20T08:51:07.000Z</time>
      </trkpt>
      <trkpt lat="48.70453" lon="1.76482">
        <ele>155</ele>
        <time>2011-04-20T08:51:08.000Z</time>
      </trkpt>
      <trkpt lat="48.70456" lon="1.76474">
        <ele>153.39999389648</ele>
        <time>2011-04-20T08:51:12.000Z</time>
      </trkpt>
      <trkpt lat="48.70458" lon="1.76456">
        <ele>151.60000610352</ele>
        <time>2011-04-20T08:51:19.000Z</time>
      </trkpt>
      <trkpt lat="48.70461" lon="1.76436">
        <ele>147.60000610352</ele>
        <time>2011-04-20T08:51:28.000Z</time>
      </trkpt>
      <trkpt lat="48.70462" lon="1.76426">
        <ele>149.19999694824</ele>
        <time>2011-04-20T08:51:33.000Z</time>
      </trkpt>
      <trkpt lat="48.7046" lon="1.76411">
        <ele>150.19999694824</ele>
        <time>2011-04-20T08:51:39.000Z</time>
      </trkpt>
      <trkpt lat="48.70458" lon="1.76399">
        <ele>151</ele>
        <time>2011-04-20T08:51:44.000Z</time>
      </trkpt>
      <trkpt lat="48.70458" lon="1.76394">
        <ele>159.19999694824</ele>
        <time>2011-04-20T08:51:51.000Z</time>
      </trkpt>
      <trkpt lat="48.70457" lon="1.76392">
        <ele>162.19999694824</ele>
        <time>2011-04-20T08:51:54.000Z</time>
      </trkpt>
      <trkpt lat="48.7047" lon="1.76376">
        <ele>164.60000610352</ele>
        <time>2011-04-20T08:52:55.000Z</time>
      </trkpt>
      <trkpt lat="48.70478" lon="1.76377">
        <ele>164</ele>
        <time>2011-04-20T08:53:00.000Z</time>
      </trkpt>
      <trkpt lat="48.70491" lon="1.7638">
        <ele>166.39999389648</ele>
        <time>2011-04-20T08:53:07.000Z</time>
      </trkpt>
      <trkpt lat="48.70498" lon="1.76381">
        <ele>170.80000305176</ele>
        <time>2011-04-20T08:53:13.000Z</time>
      </trkpt>
      <trkpt lat="48.70511" lon="1.76389">
        <ele>171.19999694824</ele>
        <time>2011-04-20T08:53:21.000Z</time>
      </trkpt>
      <trkpt lat="48.7052" lon="1.76394">
        <ele>168.80000305176</ele>
        <time>2011-04-20T08:53:27.000Z</time>
      </trkpt>
      <trkpt lat="48.70523" lon="1.76395">
        <ele>168.80000305176</ele>
        <time>2011-04-20T08:53:29.000Z</time>
      </trkpt>
      <trkpt lat="48.70528" lon="1.76397">
        <ele>168.39999389648</ele>
        <time>2011-04-20T08:53:33.000Z</time>
      </trkpt>
      <trkpt lat="48.70536" lon="1.76402">
        <ele>168.80000305176</ele>
        <time>2011-04-20T08:53:41.000Z</time>
      </trkpt>
      <trkpt lat="48.7054" lon="1.76403">
        <ele>169.39999389648</ele>
        <time>2011-04-20T08:53:44.000Z</time>
      </trkpt>
      <trkpt lat="48.70549" lon="1.76406">
        <ele>168.80000305176</ele>
        <time>2011-04-20T08:53:50.000Z</time>
      </trkpt>
      <trkpt lat="48.70558" lon="1.76409">
        <ele>169.80000305176</ele>
        <time>2011-04-20T08:53:57.000Z</time>
      </trkpt>
      <trkpt lat="48.70566" lon="1.76411">
        <ele>170.19999694824</ele>
        <time>2011-04-20T08:54:03.000Z</time>
      </trkpt>
      <trkpt lat="48.70573" lon="1.76413">
        <ele>171.19999694824</ele>
        <time>2011-04-20T08:54:08.000Z</time>
      </trkpt>
      <trkpt lat="48.70583" lon="1.76417">
        <ele>172.60000610352</ele>
        <time>2011-04-20T08:54:15.000Z</time>
      </trkpt>
      <trkpt lat="48.7059" lon="1.7642">
        <ele>172.60000610352</ele>
        <time>2011-04-20T08:54:21.000Z</time>
      </trkpt>
      <trkpt lat="48.70592" lon="1.7642">
        <ele>172.60000610352</ele>
        <time>2011-04-20T08:54:22.000Z</time>
      </trkpt>
      <trkpt lat="48.70604" lon="1.76425">
        <ele>174.19999694824</ele>
        <time>2011-04-20T08:54:31.000Z</time>
      </trkpt>
      <trkpt lat="48.70615" lon="1.76428">
        <ele>175.60000610352</ele>
        <time>2011-04-20T08:54:39.000Z</time>
      </trkpt>
      <trkpt lat="48.70622" lon="1.76428">
        <ele>177.60000610352</ele>
        <time>2011-04-20T08:54:45.000Z</time>
      </trkpt>
      <trkpt lat="48.70624" lon="1.76428">
        <ele>177.60000610352</ele>
        <time>2011-04-20T08:54:46.000Z</time>
      </trkpt>
      <trkpt lat="48.70633" lon="1.76432">
        <ele>177.60000610352</ele>
        <time>2011-04-20T08:54:53.000Z</time>
      </trkpt>
      <trkpt lat="48.70638" lon="1.76433">
        <ele>178</ele>
        <time>2011-04-20T08:54:57.000Z</time>
      </trkpt>
      <trkpt lat="48.70646" lon="1.76437">
        <ele>177.60000610352</ele>
        <time>2011-04-20T08:55:03.000Z</time>
      </trkpt>
      <trkpt lat="48.70655" lon="1.76442">
        <ele>176.60000610352</ele>
        <time>2011-04-20T08:55:10.000Z</time>
      </trkpt>
      <trkpt lat="48.70665" lon="1.76446">
        <ele>176.60000610352</ele>
        <time>2011-04-20T08:55:17.000Z</time>
      </trkpt>
      <trkpt lat="48.70674" lon="1.7645">
        <ele>177</ele>
        <time>2011-04-20T08:55:24.000Z</time>
      </trkpt>
      <trkpt lat="48.70682" lon="1.76453">
        <ele>176.60000610352</ele>
        <time>2011-04-20T08:55:31.000Z</time>
      </trkpt>
      <trkpt lat="48.70693" lon="1.76457">
        <ele>176.60000610352</ele>
        <time>2011-04-20T08:55:39.000Z</time>
      </trkpt>
      <trkpt lat="48.70708" lon="1.76463">
        <ele>176</ele>
        <time>2011-04-20T08:55:51.000Z</time>
      </trkpt>
      <trkpt lat="48.70716" lon="1.76465">
        <ele>176</ele>
        <time>2011-04-20T08:55:56.000Z</time>
      </trkpt>
      <trkpt lat="48.70724" lon="1.76468">
        <ele>175.60000610352</ele>
        <time>2011-04-20T08:56:03.000Z</time>
      </trkpt>
      <trkpt lat="48.70734" lon="1.7647">
        <ele>175</ele>
        <time>2011-04-20T08:56:10.000Z</time>
      </trkpt>
      <trkpt lat="48.7074" lon="1.76471">
        <ele>175.60000610352</ele>
        <time>2011-04-20T08:56:15.000Z</time>
      </trkpt>
      <trkpt lat="48.70746" lon="1.76469">
        <ele>174.60000610352</ele>
        <time>2011-04-20T08:56:19.000Z</time>
      </trkpt>
      <trkpt lat="48.70747" lon="1.7647">
        <ele>174.60000610352</ele>
        <time>2011-04-20T08:56:20.000Z</time>
      </trkpt>
      <trkpt lat="48.70757" lon="1.76471">
        <ele>175</ele>
        <time>2011-04-20T08:56:27.000Z</time>
      </trkpt>
      <trkpt lat="48.70765" lon="1.76472">
        <ele>174.60000610352</ele>
        <time>2011-04-20T08:56:33.000Z</time>
      </trkpt>
      <trkpt lat="48.70774" lon="1.76471">
        <ele>175</ele>
        <time>2011-04-20T08:56:40.000Z</time>
      </trkpt>
      <trkpt lat="48.70783" lon="1.7647">
        <ele>175.60000610352</ele>
        <time>2011-04-20T08:56:46.000Z</time>
      </trkpt>
      <trkpt lat="48.70793" lon="1.7647">
        <ele>176</ele>
        <time>2011-04-20T08:56:53.000Z</time>
      </trkpt>
      <trkpt lat="48.70806" lon="1.7647">
        <ele>176.60000610352</ele>
        <time>2011-04-20T08:57:03.000Z</time>
      </trkpt>
      <trkpt lat="48.70822" lon="1.76469">
        <ele>178</ele>
        <time>2011-04-20T08:57:13.000Z</time>
      </trkpt>
      <trkpt lat="48.70828" lon="1.76469">
        <ele>177</ele>
        <time>2011-04-20T08:57:18.000Z</time>
      </trkpt>
      <trkpt lat="48.70838" lon="1.76471">
        <ele>176</ele>
        <time>2011-04-20T08:57:25.000Z</time>
      </trkpt>
      <trkpt lat="48.70849" lon="1.76472">
        <ele>174.60000610352</ele>
        <time>2011-04-20T08:57:33.000Z</time>
      </trkpt>
      <trkpt lat="48.70863" lon="1.76473">
        <ele>173.60000610352</ele>
        <time>2011-04-20T08:57:43.000Z</time>
      </trkpt>
      <trkpt lat="48.70875" lon="1.76473">
        <ele>173.19999694824</ele>
        <time>2011-04-20T08:57:52.000Z</time>
      </trkpt>
      <trkpt lat="48.7089" lon="1.76474">
        <ele>173.19999694824</ele>
        <time>2011-04-20T08:58:03.000Z</time>
      </trkpt>
      <trkpt lat="48.70897" lon="1.76475">
        <ele>172.60000610352</ele>
        <time>2011-04-20T08:58:08.000Z</time>
      </trkpt>
      <trkpt lat="48.70904" lon="1.76474">
        <ele>172.19999694824</ele>
        <time>2011-04-20T08:58:13.000Z</time>
      </trkpt>
      <trkpt lat="48.70914" lon="1.76474">
        <ele>172.60000610352</ele>
        <time>2011-04-20T08:58:20.000Z</time>
      </trkpt>
      <trkpt lat="48.70923" lon="1.76474">
        <ele>172.19999694824</ele>
        <time>2011-04-20T08:58:26.000Z</time>
      </trkpt>
      <trkpt lat="48.70933" lon="1.76475">
        <ele>171.19999694824</ele>
        <time>2011-04-20T08:58:34.000Z</time>
      </trkpt>
      <trkpt lat="48.70942" lon="1.76474">
        <ele>170.80000305176</ele>
        <time>2011-04-20T08:58:41.000Z</time>
      </trkpt>
      <trkpt lat="48.70951" lon="1.76475">
        <ele>169.80000305176</ele>
        <time>2011-04-20T08:58:47.000Z</time>
      </trkpt>
      <trkpt lat="48.70963" lon="1.76474">
        <ele>169.80000305176</ele>
        <time>2011-04-20T08:58:56.000Z</time>
      </trkpt>
      <trkpt lat="48.70975" lon="1.76474">
        <ele>169.80000305176</ele>
        <time>2011-04-20T08:59:05.000Z</time>
      </trkpt>
      <trkpt lat="48.70988" lon="1.76475">
        <ele>169.80000305176</ele>
        <time>2011-04-20T08:59:15.000Z</time>
      </trkpt>
      <trkpt lat="48.70998" lon="1.76475">
        <ele>169.39999389648</ele>
        <time>2011-04-20T08:59:23.000Z</time>
      </trkpt>
      <trkpt lat="48.71011" lon="1.76474">
        <ele>168.80000305176</ele>
        <time>2011-04-20T08:59:33.000Z</time>
      </trkpt>
      <trkpt lat="48.71022" lon="1.76473">
        <ele>168.39999389648</ele>
        <time>2011-04-20T08:59:41.000Z</time>
      </trkpt>
      <trkpt lat="48.71033" lon="1.7647">
        <ele>167.80000305176</ele>
        <time>2011-04-20T08:59:50.000Z</time>
      </trkpt>
      <trkpt lat="48.71048" lon="1.76465">
        <ele>167.80000305176</ele>
        <time>2011-04-20T09:00:01.000Z</time>
      </trkpt>
      <trkpt lat="48.71057" lon="1.76463">
        <ele>167.80000305176</ele>
        <time>2011-04-20T09:00:08.000Z</time>
      </trkpt>
      <trkpt lat="48.71067" lon="1.7646">
        <ele>167.39999389648</ele>
        <time>2011-04-20T09:00:16.000Z</time>
      </trkpt>
      <trkpt lat="48.7108" lon="1.76456">
        <ele>166.39999389648</ele>
        <time>2011-04-20T09:00:26.000Z</time>
      </trkpt>
      <trkpt lat="48.71095" lon="1.76451">
        <ele>166.39999389648</ele>
        <time>2011-04-20T09:00:37.000Z</time>
      </trkpt>
      <trkpt lat="48.71111" lon="1.76443">
        <ele>166</ele>
        <time>2011-04-20T09:00:49.000Z</time>
      </trkpt>
      <trkpt lat="48.71122" lon="1.76437">
        <ele>166</ele>
        <time>2011-04-20T09:00:58.000Z</time>
      </trkpt>
      <trkpt lat="48.71136" lon="1.76432">
        <ele>165.39999389648</ele>
        <time>2011-04-20T09:01:09.000Z</time>
      </trkpt>
      <trkpt lat="48.71147" lon="1.76429">
        <ele>165</ele>
        <time>2011-04-20T09:01:18.000Z</time>
      </trkpt>
      <trkpt lat="48.7116" lon="1.76426">
        <ele>164</ele>
        <time>2011-04-20T09:01:27.000Z</time>
      </trkpt>
      <trkpt lat="48.71169" lon="1.76425">
        <ele>163.60000610352</ele>
        <time>2011-04-20T09:01:34.000Z</time>
      </trkpt>
      <trkpt lat="48.7118" lon="1.76424">
        <ele>163.60000610352</ele>
        <time>2011-04-20T09:01:43.000Z</time>
      </trkpt>
      <trkpt lat="48.71186" lon="1.76424">
        <ele>163.60000610352</ele>
        <time>2011-04-20T09:01:48.000Z</time>
      </trkpt>
      <trkpt lat="48.71195" lon="1.76422">
        <ele>162.19999694824</ele>
        <time>2011-04-20T09:01:56.000Z</time>
      </trkpt>
      <trkpt lat="48.71203" lon="1.76419">
        <ele>161.60000610352</ele>
        <time>2011-04-20T09:02:03.000Z</time>
      </trkpt>
      <trkpt lat="48.7121" lon="1.76417">
        <ele>161.60000610352</ele>
        <time>2011-04-20T09:02:09.000Z</time>
      </trkpt>
      <trkpt lat="48.71214" lon="1.76414">
        <ele>161.19999694824</ele>
        <time>2011-04-20T09:02:13.000Z</time>
      </trkpt>
      <trkpt lat="48.71223" lon="1.7641">
        <ele>161.60000610352</ele>
        <time>2011-04-20T09:02:20.000Z</time>
      </trkpt>
      <trkpt lat="48.7123" lon="1.76407">
        <ele>160.60000610352</ele>
        <time>2011-04-20T09:02:26.000Z</time>
      </trkpt>
      <trkpt lat="48.71231" lon="1.76407">
        <ele>160.60000610352</ele>
        <time>2011-04-20T09:02:27.000Z</time>
      </trkpt>
      <trkpt lat="48.71237" lon="1.76405">
        <ele>160.19999694824</ele>
        <time>2011-04-20T09:02:32.000Z</time>
      </trkpt>
      <trkpt lat="48.71244" lon="1.76402">
        <ele>160.60000610352</ele>
        <time>2011-04-20T09:02:38.000Z</time>
      </trkpt>
      <trkpt lat="48.71249" lon="1.76401">
        <ele>161.19999694824</ele>
        <time>2011-04-20T09:02:42.000Z</time>
      </trkpt>
      <trkpt lat="48.71254" lon="1.76399">
        <ele>161.60000610352</ele>
        <time>2011-04-20T09:02:46.000Z</time>
      </trkpt>
      <trkpt lat="48.71261" lon="1.76397">
        <ele>163</ele>
        <time>2011-04-20T09:02:52.000Z</time>
      </trkpt>
      <trkpt lat="48.71262" lon="1.76397">
        <ele>163</ele>
        <time>2011-04-20T09:02:53.000Z</time>
      </trkpt>
      <trkpt lat="48.71271" lon="1.76395">
        <ele>163</ele>
        <time>2011-04-20T09:02:59.000Z</time>
      </trkpt>
      <trkpt lat="48.71279" lon="1.76391">
        <ele>162.60000610352</ele>
        <time>2011-04-20T09:03:04.000Z</time>
      </trkpt>
      <trkpt lat="48.71279" lon="1.76391">
        <ele>162.60000610352</ele>
        <time>2011-04-20T09:03:06.000Z</time>
      </trkpt>
    </trkseg>
  </trk>
</gpx>